<?xml version="1.0" encoding="UTF-8" standalone="no" ?>
<gpx xmlns="http://www.topografix.com/GPX/1/1" xmlns:xsi="http://www.w3.org/2001/XMLSchema-instance" xsi:schemaLocation="http://www.topografix.com/GPX/1/1 http://www.topografix.com/GPX/1/1/gpx.xsd" version="1.1" creator="VisuGPX - https://www.visugpx.com">
  <metadata>
    <name>AFT19 j2.1</name>
  </metadata>
  <trk>
    <name><![CDATA[AFT19 j2.1]]></name>
    <trkseg>
      <trkpt lat="44.06414" lon="5.83078">
        <ele>722.57</ele>
        <time>2019-06-24T10:23:15Z</time>
      </trkpt>
      <trkpt lat="44.0641" lon="5.83081">
        <ele>724.49</ele>
        <time>2019-06-24T10:23:24Z</time>
      </trkpt>
      <trkpt lat="44.06407" lon="5.83081">
        <ele>727.86</ele>
        <time>2019-06-24T10:23:29Z</time>
      </trkpt>
      <trkpt lat="44.06408" lon="5.83082">
        <ele>729.3</ele>
        <time>2019-06-24T10:23:31Z</time>
      </trkpt>
      <trkpt lat="44.06409" lon="5.83084">
        <ele>732.66</ele>
        <time>2019-06-24T10:23:43Z</time>
      </trkpt>
      <trkpt lat="44.0641" lon="5.83088">
        <ele>736.03</ele>
        <time>2019-06-24T10:24:06Z</time>
      </trkpt>
      <trkpt lat="44.0641" lon="5.83089">
        <ele>737.47</ele>
        <time>2019-06-24T10:24:17Z</time>
      </trkpt>
      <trkpt lat="44.06413" lon="5.83086">
        <ele>740.35</ele>
        <time>2019-06-24T10:24:48Z</time>
      </trkpt>
      <trkpt lat="44.06407" lon="5.83087">
        <ele>739.87</ele>
        <time>2019-06-24T10:25:08Z</time>
      </trkpt>
      <trkpt lat="44.06408" lon="5.83088">
        <ele>740.83</ele>
        <time>2019-06-24T10:25:21Z</time>
      </trkpt>
      <trkpt lat="44.06402" lon="5.8309">
        <ele>740.35</ele>
        <time>2019-06-24T10:25:24Z</time>
      </trkpt>
      <trkpt lat="44.06399" lon="5.83091">
        <ele>739.39</ele>
        <time>2019-06-24T10:25:25Z</time>
      </trkpt>
      <trkpt lat="44.06395" lon="5.83092">
        <ele>739.87</ele>
        <time>2019-06-24T10:25:26Z</time>
      </trkpt>
      <trkpt lat="44.06386" lon="5.83095">
        <ele>738.43</ele>
        <time>2019-06-24T10:25:28Z</time>
      </trkpt>
      <trkpt lat="44.0638" lon="5.83097">
        <ele>737.95</ele>
        <time>2019-06-24T10:25:29Z</time>
      </trkpt>
      <trkpt lat="44.06354" lon="5.83106">
        <ele>734.1</ele>
        <time>2019-06-24T10:25:33Z</time>
      </trkpt>
      <trkpt lat="44.06332" lon="5.83116">
        <ele>730.74</ele>
        <time>2019-06-24T10:25:36Z</time>
      </trkpt>
      <trkpt lat="44.06307" lon="5.83126">
        <ele>727.86</ele>
        <time>2019-06-24T10:25:39Z</time>
      </trkpt>
      <trkpt lat="44.06272" lon="5.8314">
        <ele>723.53</ele>
        <time>2019-06-24T10:25:43Z</time>
      </trkpt>
      <trkpt lat="44.06238" lon="5.83153">
        <ele>720.16</ele>
        <time>2019-06-24T10:25:47Z</time>
      </trkpt>
      <trkpt lat="44.0623" lon="5.83156">
        <ele>719.68</ele>
        <time>2019-06-24T10:25:48Z</time>
      </trkpt>
      <trkpt lat="44.0621" lon="5.83163">
        <ele>717.76</ele>
        <time>2019-06-24T10:25:51Z</time>
      </trkpt>
      <trkpt lat="44.06196" lon="5.83172">
        <ele>716.32</ele>
        <time>2019-06-24T10:25:58Z</time>
      </trkpt>
      <trkpt lat="44.06196" lon="5.83178">
        <ele>716.8</ele>
        <time>2019-06-24T10:25:59Z</time>
      </trkpt>
      <trkpt lat="44.06197" lon="5.83187">
        <ele>716.32</ele>
        <time>2019-06-24T10:26:00Z</time>
      </trkpt>
      <trkpt lat="44.06213" lon="5.83282">
        <ele>717.76</ele>
        <time>2019-06-24T10:26:07Z</time>
      </trkpt>
      <trkpt lat="44.06232" lon="5.83403">
        <ele>714.4</ele>
        <time>2019-06-24T10:26:16Z</time>
      </trkpt>
      <trkpt lat="44.0625" lon="5.83512">
        <ele>715.36</ele>
        <time>2019-06-24T10:26:27Z</time>
      </trkpt>
      <trkpt lat="44.06255" lon="5.83535">
        <ele>716.32</ele>
        <time>2019-06-24T10:26:30Z</time>
      </trkpt>
      <trkpt lat="44.06258" lon="5.83544">
        <ele>716.8</ele>
        <time>2019-06-24T10:26:31Z</time>
      </trkpt>
      <trkpt lat="44.06294" lon="5.83666">
        <ele>718.72</ele>
        <time>2019-06-24T10:26:41Z</time>
      </trkpt>
      <trkpt lat="44.063" lon="5.8369">
        <ele>719.2</ele>
        <time>2019-06-24T10:26:43Z</time>
      </trkpt>
      <trkpt lat="44.06301" lon="5.83702">
        <ele>719.2</ele>
        <time>2019-06-24T10:26:44Z</time>
      </trkpt>
      <trkpt lat="44.06315" lon="5.83829">
        <ele>719.2</ele>
        <time>2019-06-24T10:26:53Z</time>
      </trkpt>
      <trkpt lat="44.06324" lon="5.83943">
        <ele>719.2</ele>
        <time>2019-06-24T10:27:00Z</time>
      </trkpt>
      <trkpt lat="44.06298" lon="5.84144">
        <ele>722.09</ele>
        <time>2019-06-24T10:27:10Z</time>
      </trkpt>
      <trkpt lat="44.06257" lon="5.84351">
        <ele>722.09</ele>
        <time>2019-06-24T10:27:18Z</time>
      </trkpt>
      <trkpt lat="44.06248" lon="5.84424">
        <ele>721.61</ele>
        <time>2019-06-24T10:27:21Z</time>
      </trkpt>
      <trkpt lat="44.0625" lon="5.84447">
        <ele>721.13</ele>
        <time>2019-06-24T10:27:22Z</time>
      </trkpt>
      <trkpt lat="44.06255" lon="5.8447">
        <ele>721.13</ele>
        <time>2019-06-24T10:27:23Z</time>
      </trkpt>
      <trkpt lat="44.06263" lon="5.84492">
        <ele>720.65</ele>
        <time>2019-06-24T10:27:24Z</time>
      </trkpt>
      <trkpt lat="44.06271" lon="5.84514">
        <ele>721.61</ele>
        <time>2019-06-24T10:27:25Z</time>
      </trkpt>
      <trkpt lat="44.06295" lon="5.84579">
        <ele>720.65</ele>
        <time>2019-06-24T10:27:28Z</time>
      </trkpt>
      <trkpt lat="44.06298" lon="5.84602">
        <ele>720.16</ele>
        <time>2019-06-24T10:27:29Z</time>
      </trkpt>
      <trkpt lat="44.06298" lon="5.84625">
        <ele>720.16</ele>
        <time>2019-06-24T10:27:30Z</time>
      </trkpt>
      <trkpt lat="44.06293" lon="5.8472">
        <ele>721.61</ele>
        <time>2019-06-24T10:27:34Z</time>
      </trkpt>
      <trkpt lat="44.06294" lon="5.84742">
        <ele>720.65</ele>
        <time>2019-06-24T10:27:35Z</time>
      </trkpt>
      <trkpt lat="44.06298" lon="5.84764">
        <ele>720.16</ele>
        <time>2019-06-24T10:27:36Z</time>
      </trkpt>
      <trkpt lat="44.06302" lon="5.84787">
        <ele>720.16</ele>
        <time>2019-06-24T10:27:37Z</time>
      </trkpt>
      <trkpt lat="44.06308" lon="5.84809">
        <ele>720.16</ele>
        <time>2019-06-24T10:27:38Z</time>
      </trkpt>
      <trkpt lat="44.06356" lon="5.85001">
        <ele>721.13</ele>
        <time>2019-06-24T10:27:46Z</time>
      </trkpt>
      <trkpt lat="44.06358" lon="5.85026">
        <ele>721.13</ele>
        <time>2019-06-24T10:27:47Z</time>
      </trkpt>
      <trkpt lat="44.06358" lon="5.85051">
        <ele>721.61</ele>
        <time>2019-06-24T10:27:48Z</time>
      </trkpt>
      <trkpt lat="44.06357" lon="5.85227">
        <ele>721.13</ele>
        <time>2019-06-24T10:27:55Z</time>
      </trkpt>
      <trkpt lat="44.06362" lon="5.85251">
        <ele>720.65</ele>
        <time>2019-06-24T10:27:56Z</time>
      </trkpt>
      <trkpt lat="44.06369" lon="5.85274">
        <ele>721.13</ele>
        <time>2019-06-24T10:27:57Z</time>
      </trkpt>
      <trkpt lat="44.06398" lon="5.85364">
        <ele>721.13</ele>
        <time>2019-06-24T10:28:01Z</time>
      </trkpt>
      <trkpt lat="44.06407" lon="5.85384">
        <ele>720.65</ele>
        <time>2019-06-24T10:28:02Z</time>
      </trkpt>
      <trkpt lat="44.06417" lon="5.85403">
        <ele>720.65</ele>
        <time>2019-06-24T10:28:03Z</time>
      </trkpt>
      <trkpt lat="44.06497" lon="5.85541">
        <ele>720.16</ele>
        <time>2019-06-24T10:28:10Z</time>
      </trkpt>
      <trkpt lat="44.06505" lon="5.85565">
        <ele>719.2</ele>
        <time>2019-06-24T10:28:11Z</time>
      </trkpt>
      <trkpt lat="44.06521" lon="5.85612">
        <ele>721.13</ele>
        <time>2019-06-24T10:28:13Z</time>
      </trkpt>
      <trkpt lat="44.06532" lon="5.85633">
        <ele>720.65</ele>
        <time>2019-06-24T10:28:14Z</time>
      </trkpt>
      <trkpt lat="44.06544" lon="5.85653">
        <ele>721.13</ele>
        <time>2019-06-24T10:28:15Z</time>
      </trkpt>
      <trkpt lat="44.06581" lon="5.8571">
        <ele>720.65</ele>
        <time>2019-06-24T10:28:18Z</time>
      </trkpt>
      <trkpt lat="44.06589" lon="5.85729">
        <ele>720.16</ele>
        <time>2019-06-24T10:28:19Z</time>
      </trkpt>
      <trkpt lat="44.06594" lon="5.8575">
        <ele>720.16</ele>
        <time>2019-06-24T10:28:20Z</time>
      </trkpt>
      <trkpt lat="44.06593" lon="5.8577">
        <ele>720.16</ele>
        <time>2019-06-24T10:28:21Z</time>
      </trkpt>
      <trkpt lat="44.06589" lon="5.85788">
        <ele>720.16</ele>
        <time>2019-06-24T10:28:22Z</time>
      </trkpt>
      <trkpt lat="44.06582" lon="5.85807">
        <ele>721.13</ele>
        <time>2019-06-24T10:28:23Z</time>
      </trkpt>
      <trkpt lat="44.06576" lon="5.85826">
        <ele>721.13</ele>
        <time>2019-06-24T10:28:24Z</time>
      </trkpt>
      <trkpt lat="44.06571" lon="5.85847">
        <ele>720.65</ele>
        <time>2019-06-24T10:28:25Z</time>
      </trkpt>
      <trkpt lat="44.06569" lon="5.85869">
        <ele>720.16</ele>
        <time>2019-06-24T10:28:26Z</time>
      </trkpt>
      <trkpt lat="44.06564" lon="5.86104">
        <ele>721.13</ele>
        <time>2019-06-24T10:28:35Z</time>
      </trkpt>
      <trkpt lat="44.06558" lon="5.86156">
        <ele>721.13</ele>
        <time>2019-06-24T10:28:37Z</time>
      </trkpt>
      <trkpt lat="44.0656" lon="5.86181">
        <ele>720.65</ele>
        <time>2019-06-24T10:28:38Z</time>
      </trkpt>
      <trkpt lat="44.06565" lon="5.86207">
        <ele>721.13</ele>
        <time>2019-06-24T10:28:39Z</time>
      </trkpt>
      <trkpt lat="44.06582" lon="5.86285">
        <ele>721.13</ele>
        <time>2019-06-24T10:28:42Z</time>
      </trkpt>
      <trkpt lat="44.06584" lon="5.86312">
        <ele>721.61</ele>
        <time>2019-06-24T10:28:43Z</time>
      </trkpt>
      <trkpt lat="44.06585" lon="5.86395">
        <ele>721.61</ele>
        <time>2019-06-24T10:28:46Z</time>
      </trkpt>
      <trkpt lat="44.06589" lon="5.86421">
        <ele>722.09</ele>
        <time>2019-06-24T10:28:47Z</time>
      </trkpt>
      <trkpt lat="44.06596" lon="5.86446">
        <ele>722.09</ele>
        <time>2019-06-24T10:28:48Z</time>
      </trkpt>
      <trkpt lat="44.06602" lon="5.86472">
        <ele>722.09</ele>
        <time>2019-06-24T10:28:49Z</time>
      </trkpt>
      <trkpt lat="44.06606" lon="5.86498">
        <ele>722.09</ele>
        <time>2019-06-24T10:28:50Z</time>
      </trkpt>
      <trkpt lat="44.06606" lon="5.86525">
        <ele>722.09</ele>
        <time>2019-06-24T10:28:51Z</time>
      </trkpt>
      <trkpt lat="44.06604" lon="5.86553">
        <ele>721.61</ele>
        <time>2019-06-24T10:28:52Z</time>
      </trkpt>
      <trkpt lat="44.06602" lon="5.8658">
        <ele>721.61</ele>
        <time>2019-06-24T10:28:53Z</time>
      </trkpt>
      <trkpt lat="44.06597" lon="5.86659">
        <ele>721.61</ele>
        <time>2019-06-24T10:28:56Z</time>
      </trkpt>
      <trkpt lat="44.06599" lon="5.86683">
        <ele>720.65</ele>
        <time>2019-06-24T10:28:57Z</time>
      </trkpt>
      <trkpt lat="44.06603" lon="5.86707">
        <ele>721.13</ele>
        <time>2019-06-24T10:28:58Z</time>
      </trkpt>
      <trkpt lat="44.0661" lon="5.86754">
        <ele>720.65</ele>
        <time>2019-06-24T10:29:00Z</time>
      </trkpt>
      <trkpt lat="44.06611" lon="5.86777">
        <ele>720.65</ele>
        <time>2019-06-24T10:29:01Z</time>
      </trkpt>
      <trkpt lat="44.06609" lon="5.86799">
        <ele>720.65</ele>
        <time>2019-06-24T10:29:02Z</time>
      </trkpt>
      <trkpt lat="44.06604" lon="5.86821">
        <ele>720.65</ele>
        <time>2019-06-24T10:29:03Z</time>
      </trkpt>
      <trkpt lat="44.06598" lon="5.86842">
        <ele>721.61</ele>
        <time>2019-06-24T10:29:04Z</time>
      </trkpt>
      <trkpt lat="44.06592" lon="5.86865">
        <ele>721.13</ele>
        <time>2019-06-24T10:29:05Z</time>
      </trkpt>
      <trkpt lat="44.06588" lon="5.86889">
        <ele>721.13</ele>
        <time>2019-06-24T10:29:06Z</time>
      </trkpt>
      <trkpt lat="44.06585" lon="5.86914">
        <ele>721.13</ele>
        <time>2019-06-24T10:29:07Z</time>
      </trkpt>
      <trkpt lat="44.06576" lon="5.87074">
        <ele>722.09</ele>
        <time>2019-06-24T10:29:13Z</time>
      </trkpt>
      <trkpt lat="44.06577" lon="5.87098">
        <ele>721.13</ele>
        <time>2019-06-24T10:29:14Z</time>
      </trkpt>
      <trkpt lat="44.06579" lon="5.8712">
        <ele>721.13</ele>
        <time>2019-06-24T10:29:15Z</time>
      </trkpt>
      <trkpt lat="44.06578" lon="5.87142">
        <ele>720.65</ele>
        <time>2019-06-24T10:29:16Z</time>
      </trkpt>
      <trkpt lat="44.06573" lon="5.87163">
        <ele>719.68</ele>
        <time>2019-06-24T10:29:17Z</time>
      </trkpt>
      <trkpt lat="44.06567" lon="5.87183">
        <ele>720.16</ele>
        <time>2019-06-24T10:29:18Z</time>
      </trkpt>
      <trkpt lat="44.0656" lon="5.87203">
        <ele>721.13</ele>
        <time>2019-06-24T10:29:19Z</time>
      </trkpt>
      <trkpt lat="44.06554" lon="5.87224">
        <ele>721.61</ele>
        <time>2019-06-24T10:29:20Z</time>
      </trkpt>
      <trkpt lat="44.0655" lon="5.87245">
        <ele>721.13</ele>
        <time>2019-06-24T10:29:21Z</time>
      </trkpt>
      <trkpt lat="44.06547" lon="5.87266">
        <ele>720.65</ele>
        <time>2019-06-24T10:29:22Z</time>
      </trkpt>
      <trkpt lat="44.06546" lon="5.87359">
        <ele>720.65</ele>
        <time>2019-06-24T10:29:26Z</time>
      </trkpt>
      <trkpt lat="44.0655" lon="5.87382">
        <ele>721.13</ele>
        <time>2019-06-24T10:29:27Z</time>
      </trkpt>
      <trkpt lat="44.06559" lon="5.87427">
        <ele>720.65</ele>
        <time>2019-06-24T10:29:29Z</time>
      </trkpt>
      <trkpt lat="44.06558" lon="5.87449">
        <ele>720.65</ele>
        <time>2019-06-24T10:29:30Z</time>
      </trkpt>
      <trkpt lat="44.06554" lon="5.87469">
        <ele>720.65</ele>
        <time>2019-06-24T10:29:31Z</time>
      </trkpt>
      <trkpt lat="44.06539" lon="5.87522">
        <ele>719.2</ele>
        <time>2019-06-24T10:29:34Z</time>
      </trkpt>
      <trkpt lat="44.06537" lon="5.87539">
        <ele>719.2</ele>
        <time>2019-06-24T10:29:35Z</time>
      </trkpt>
      <trkpt lat="44.06539" lon="5.87556">
        <ele>718.72</ele>
        <time>2019-06-24T10:29:36Z</time>
      </trkpt>
      <trkpt lat="44.06545" lon="5.87572">
        <ele>720.16</ele>
        <time>2019-06-24T10:29:37Z</time>
      </trkpt>
      <trkpt lat="44.06554" lon="5.87586">
        <ele>719.68</ele>
        <time>2019-06-24T10:29:38Z</time>
      </trkpt>
      <trkpt lat="44.06566" lon="5.87597">
        <ele>719.68</ele>
        <time>2019-06-24T10:29:39Z</time>
      </trkpt>
      <trkpt lat="44.0658" lon="5.87606">
        <ele>719.68</ele>
        <time>2019-06-24T10:29:40Z</time>
      </trkpt>
      <trkpt lat="44.06595" lon="5.87613">
        <ele>719.68</ele>
        <time>2019-06-24T10:29:41Z</time>
      </trkpt>
      <trkpt lat="44.06645" lon="5.87638">
        <ele>718.72</ele>
        <time>2019-06-24T10:29:45Z</time>
      </trkpt>
      <trkpt lat="44.06653" lon="5.87646">
        <ele>718.24</ele>
        <time>2019-06-24T10:29:46Z</time>
      </trkpt>
      <trkpt lat="44.06659" lon="5.87657">
        <ele>718.24</ele>
        <time>2019-06-24T10:29:47Z</time>
      </trkpt>
      <trkpt lat="44.06662" lon="5.8767">
        <ele>718.24</ele>
        <time>2019-06-24T10:29:48Z</time>
      </trkpt>
      <trkpt lat="44.0666" lon="5.87685">
        <ele>719.2</ele>
        <time>2019-06-24T10:29:49Z</time>
      </trkpt>
      <trkpt lat="44.06653" lon="5.87699">
        <ele>719.68</ele>
        <time>2019-06-24T10:29:50Z</time>
      </trkpt>
      <trkpt lat="44.06644" lon="5.87713">
        <ele>720.16</ele>
        <time>2019-06-24T10:29:51Z</time>
      </trkpt>
      <trkpt lat="44.06634" lon="5.87728">
        <ele>720.16</ele>
        <time>2019-06-24T10:29:52Z</time>
      </trkpt>
      <trkpt lat="44.06625" lon="5.87744">
        <ele>720.65</ele>
        <time>2019-06-24T10:29:53Z</time>
      </trkpt>
      <trkpt lat="44.06616" lon="5.87763">
        <ele>720.65</ele>
        <time>2019-06-24T10:29:54Z</time>
      </trkpt>
      <trkpt lat="44.06586" lon="5.87843">
        <ele>721.13</ele>
        <time>2019-06-24T10:29:58Z</time>
      </trkpt>
      <trkpt lat="44.06584" lon="5.87863">
        <ele>721.13</ele>
        <time>2019-06-24T10:29:59Z</time>
      </trkpt>
      <trkpt lat="44.06585" lon="5.87881">
        <ele>720.16</ele>
        <time>2019-06-24T10:30:00Z</time>
      </trkpt>
      <trkpt lat="44.06587" lon="5.87899">
        <ele>719.2</ele>
        <time>2019-06-24T10:30:01Z</time>
      </trkpt>
      <trkpt lat="44.06586" lon="5.87915">
        <ele>718.72</ele>
        <time>2019-06-24T10:30:02Z</time>
      </trkpt>
      <trkpt lat="44.06581" lon="5.87929">
        <ele>718.72</ele>
        <time>2019-06-24T10:30:03Z</time>
      </trkpt>
      <trkpt lat="44.06572" lon="5.87938">
        <ele>718.72</ele>
        <time>2019-06-24T10:30:04Z</time>
      </trkpt>
      <trkpt lat="44.0656" lon="5.87942">
        <ele>719.68</ele>
        <time>2019-06-24T10:30:05Z</time>
      </trkpt>
      <trkpt lat="44.06546" lon="5.87941">
        <ele>720.16</ele>
        <time>2019-06-24T10:30:06Z</time>
      </trkpt>
      <trkpt lat="44.06532" lon="5.87939">
        <ele>720.16</ele>
        <time>2019-06-24T10:30:07Z</time>
      </trkpt>
      <trkpt lat="44.06517" lon="5.87938">
        <ele>720.65</ele>
        <time>2019-06-24T10:30:08Z</time>
      </trkpt>
      <trkpt lat="44.06502" lon="5.87939">
        <ele>720.65</ele>
        <time>2019-06-24T10:30:09Z</time>
      </trkpt>
      <trkpt lat="44.06486" lon="5.87944">
        <ele>721.13</ele>
        <time>2019-06-24T10:30:10Z</time>
      </trkpt>
      <trkpt lat="44.06471" lon="5.87953">
        <ele>720.65</ele>
        <time>2019-06-24T10:30:11Z</time>
      </trkpt>
      <trkpt lat="44.06457" lon="5.87966">
        <ele>721.13</ele>
        <time>2019-06-24T10:30:12Z</time>
      </trkpt>
      <trkpt lat="44.06446" lon="5.87984">
        <ele>720.65</ele>
        <time>2019-06-24T10:30:13Z</time>
      </trkpt>
      <trkpt lat="44.06436" lon="5.88005">
        <ele>721.13</ele>
        <time>2019-06-24T10:30:14Z</time>
      </trkpt>
      <trkpt lat="44.06428" lon="5.88028">
        <ele>720.65</ele>
        <time>2019-06-24T10:30:15Z</time>
      </trkpt>
      <trkpt lat="44.06348" lon="5.88218">
        <ele>721.61</ele>
        <time>2019-06-24T10:30:23Z</time>
      </trkpt>
      <trkpt lat="44.06338" lon="5.88241">
        <ele>721.61</ele>
        <time>2019-06-24T10:30:24Z</time>
      </trkpt>
      <trkpt lat="44.0633" lon="5.88266">
        <ele>721.61</ele>
        <time>2019-06-24T10:30:25Z</time>
      </trkpt>
      <trkpt lat="44.06289" lon="5.88463">
        <ele>720.16</ele>
        <time>2019-06-24T10:30:33Z</time>
      </trkpt>
      <trkpt lat="44.06289" lon="5.88486">
        <ele>720.16</ele>
        <time>2019-06-24T10:30:34Z</time>
      </trkpt>
      <trkpt lat="44.06291" lon="5.88509">
        <ele>720.65</ele>
        <time>2019-06-24T10:30:35Z</time>
      </trkpt>
      <trkpt lat="44.06308" lon="5.88632">
        <ele>721.13</ele>
        <time>2019-06-24T10:30:40Z</time>
      </trkpt>
      <trkpt lat="44.06315" lon="5.88655">
        <ele>721.13</ele>
        <time>2019-06-24T10:30:41Z</time>
      </trkpt>
      <trkpt lat="44.06325" lon="5.88678">
        <ele>721.61</ele>
        <time>2019-06-24T10:30:42Z</time>
      </trkpt>
      <trkpt lat="44.06337" lon="5.88698">
        <ele>721.61</ele>
        <time>2019-06-24T10:30:43Z</time>
      </trkpt>
      <trkpt lat="44.06351" lon="5.88715">
        <ele>721.13</ele>
        <time>2019-06-24T10:30:44Z</time>
      </trkpt>
      <trkpt lat="44.06366" lon="5.8873">
        <ele>721.13</ele>
        <time>2019-06-24T10:30:45Z</time>
      </trkpt>
      <trkpt lat="44.0638" lon="5.88741">
        <ele>721.13</ele>
        <time>2019-06-24T10:30:46Z</time>
      </trkpt>
      <trkpt lat="44.06395" lon="5.88747">
        <ele>720.16</ele>
        <time>2019-06-24T10:30:47Z</time>
      </trkpt>
      <trkpt lat="44.0641" lon="5.88746">
        <ele>719.68</ele>
        <time>2019-06-24T10:30:48Z</time>
      </trkpt>
      <trkpt lat="44.06425" lon="5.8874">
        <ele>720.16</ele>
        <time>2019-06-24T10:30:49Z</time>
      </trkpt>
      <trkpt lat="44.06441" lon="5.8873">
        <ele>720.16</ele>
        <time>2019-06-24T10:30:50Z</time>
      </trkpt>
      <trkpt lat="44.06456" lon="5.88719">
        <ele>720.16</ele>
        <time>2019-06-24T10:30:51Z</time>
      </trkpt>
      <trkpt lat="44.0647" lon="5.88706">
        <ele>720.65</ele>
        <time>2019-06-24T10:30:52Z</time>
      </trkpt>
      <trkpt lat="44.06483" lon="5.8869">
        <ele>721.13</ele>
        <time>2019-06-24T10:30:53Z</time>
      </trkpt>
      <trkpt lat="44.06494" lon="5.88674">
        <ele>721.13</ele>
        <time>2019-06-24T10:30:54Z</time>
      </trkpt>
      <trkpt lat="44.06502" lon="5.88659">
        <ele>720.16</ele>
        <time>2019-06-24T10:30:55Z</time>
      </trkpt>
      <trkpt lat="44.06511" lon="5.88646">
        <ele>719.68</ele>
        <time>2019-06-24T10:30:56Z</time>
      </trkpt>
      <trkpt lat="44.0652" lon="5.88638">
        <ele>719.2</ele>
        <time>2019-06-24T10:30:57Z</time>
      </trkpt>
      <trkpt lat="44.06529" lon="5.88634">
        <ele>718.72</ele>
        <time>2019-06-24T10:30:58Z</time>
      </trkpt>
      <trkpt lat="44.06539" lon="5.88638">
        <ele>718.24</ele>
        <time>2019-06-24T10:30:59Z</time>
      </trkpt>
      <trkpt lat="44.06546" lon="5.88647">
        <ele>718.24</ele>
        <time>2019-06-24T10:31:00Z</time>
      </trkpt>
      <trkpt lat="44.06551" lon="5.88662">
        <ele>718.24</ele>
        <time>2019-06-24T10:31:01Z</time>
      </trkpt>
      <trkpt lat="44.06553" lon="5.88678">
        <ele>719.2</ele>
        <time>2019-06-24T10:31:02Z</time>
      </trkpt>
      <trkpt lat="44.06554" lon="5.88697">
        <ele>719.2</ele>
        <time>2019-06-24T10:31:03Z</time>
      </trkpt>
      <trkpt lat="44.06562" lon="5.88776">
        <ele>719.68</ele>
        <time>2019-06-24T10:31:07Z</time>
      </trkpt>
      <trkpt lat="44.06562" lon="5.88797">
        <ele>720.16</ele>
        <time>2019-06-24T10:31:08Z</time>
      </trkpt>
      <trkpt lat="44.06559" lon="5.88818">
        <ele>720.16</ele>
        <time>2019-06-24T10:31:09Z</time>
      </trkpt>
      <trkpt lat="44.0655" lon="5.88916">
        <ele>718.72</ele>
        <time>2019-06-24T10:31:14Z</time>
      </trkpt>
      <trkpt lat="44.06551" lon="5.88936">
        <ele>719.2</ele>
        <time>2019-06-24T10:31:15Z</time>
      </trkpt>
      <trkpt lat="44.06562" lon="5.89015">
        <ele>718.72</ele>
        <time>2019-06-24T10:31:19Z</time>
      </trkpt>
      <trkpt lat="44.06588" lon="5.8915">
        <ele>718.72</ele>
        <time>2019-06-24T10:31:28Z</time>
      </trkpt>
      <trkpt lat="44.06631" lon="5.89294">
        <ele>717.76</ele>
        <time>2019-06-24T10:31:39Z</time>
      </trkpt>
      <trkpt lat="44.06646" lon="5.89354">
        <ele>718.24</ele>
        <time>2019-06-24T10:31:43Z</time>
      </trkpt>
      <trkpt lat="44.06646" lon="5.89372">
        <ele>718.72</ele>
        <time>2019-06-24T10:31:44Z</time>
      </trkpt>
      <trkpt lat="44.06646" lon="5.8939">
        <ele>718.72</ele>
        <time>2019-06-24T10:31:45Z</time>
      </trkpt>
      <trkpt lat="44.06624" lon="5.89597">
        <ele>718.24</ele>
        <time>2019-06-24T10:31:57Z</time>
      </trkpt>
      <trkpt lat="44.06615" lon="5.89681">
        <ele>718.72</ele>
        <time>2019-06-24T10:32:03Z</time>
      </trkpt>
      <trkpt lat="44.06615" lon="5.89696">
        <ele>718.24</ele>
        <time>2019-06-24T10:32:04Z</time>
      </trkpt>
      <trkpt lat="44.06617" lon="5.89711">
        <ele>718.72</ele>
        <time>2019-06-24T10:32:05Z</time>
      </trkpt>
      <trkpt lat="44.0662" lon="5.89726">
        <ele>718.24</ele>
        <time>2019-06-24T10:32:06Z</time>
      </trkpt>
      <trkpt lat="44.06624" lon="5.8974">
        <ele>718.72</ele>
        <time>2019-06-24T10:32:07Z</time>
      </trkpt>
      <trkpt lat="44.06629" lon="5.89754">
        <ele>718.72</ele>
        <time>2019-06-24T10:32:08Z</time>
      </trkpt>
      <trkpt lat="44.06643" lon="5.89793">
        <ele>717.28</ele>
        <time>2019-06-24T10:32:11Z</time>
      </trkpt>
      <trkpt lat="44.06649" lon="5.89805">
        <ele>716.8</ele>
        <time>2019-06-24T10:32:12Z</time>
      </trkpt>
      <trkpt lat="44.06656" lon="5.89815">
        <ele>717.28</ele>
        <time>2019-06-24T10:32:13Z</time>
      </trkpt>
      <trkpt lat="44.06666" lon="5.89823">
        <ele>716.32</ele>
        <time>2019-06-24T10:32:14Z</time>
      </trkpt>
      <trkpt lat="44.06677" lon="5.89829">
        <ele>716.32</ele>
        <time>2019-06-24T10:32:15Z</time>
      </trkpt>
      <trkpt lat="44.06688" lon="5.89833">
        <ele>715.36</ele>
        <time>2019-06-24T10:32:16Z</time>
      </trkpt>
      <trkpt lat="44.06699" lon="5.89835">
        <ele>715.36</ele>
        <time>2019-06-24T10:32:17Z</time>
      </trkpt>
      <trkpt lat="44.06748" lon="5.89841">
        <ele>712.95</ele>
        <time>2019-06-24T10:32:21Z</time>
      </trkpt>
      <trkpt lat="44.06786" lon="5.89838">
        <ele>711.03</ele>
        <time>2019-06-24T10:32:24Z</time>
      </trkpt>
      <trkpt lat="44.06798" lon="5.89842">
        <ele>710.55</ele>
        <time>2019-06-24T10:32:25Z</time>
      </trkpt>
      <trkpt lat="44.0681" lon="5.89848">
        <ele>709.59</ele>
        <time>2019-06-24T10:32:26Z</time>
      </trkpt>
      <trkpt lat="44.06821" lon="5.89857">
        <ele>709.59</ele>
        <time>2019-06-24T10:32:27Z</time>
      </trkpt>
      <trkpt lat="44.06832" lon="5.89868">
        <ele>708.63</ele>
        <time>2019-06-24T10:32:28Z</time>
      </trkpt>
      <trkpt lat="44.06842" lon="5.89881">
        <ele>708.63</ele>
        <time>2019-06-24T10:32:29Z</time>
      </trkpt>
      <trkpt lat="44.06851" lon="5.89897">
        <ele>708.15</ele>
        <time>2019-06-24T10:32:30Z</time>
      </trkpt>
      <trkpt lat="44.06858" lon="5.89914">
        <ele>707.67</ele>
        <time>2019-06-24T10:32:31Z</time>
      </trkpt>
      <trkpt lat="44.06866" lon="5.89932">
        <ele>707.67</ele>
        <time>2019-06-24T10:32:32Z</time>
      </trkpt>
      <trkpt lat="44.06874" lon="5.89948">
        <ele>706.71</ele>
        <time>2019-06-24T10:32:33Z</time>
      </trkpt>
      <trkpt lat="44.06885" lon="5.89961">
        <ele>705.75</ele>
        <time>2019-06-24T10:32:34Z</time>
      </trkpt>
      <trkpt lat="44.06898" lon="5.89971">
        <ele>705.26</ele>
        <time>2019-06-24T10:32:35Z</time>
      </trkpt>
      <trkpt lat="44.06977" lon="5.90022">
        <ele>701.9</ele>
        <time>2019-06-24T10:32:40Z</time>
      </trkpt>
      <trkpt lat="44.0701" lon="5.90045">
        <ele>700.94</ele>
        <time>2019-06-24T10:32:42Z</time>
      </trkpt>
      <trkpt lat="44.07064" lon="5.90077">
        <ele>698.53</ele>
        <time>2019-06-24T10:32:45Z</time>
      </trkpt>
      <trkpt lat="44.07139" lon="5.90115">
        <ele>694.69</ele>
        <time>2019-06-24T10:32:49Z</time>
      </trkpt>
      <trkpt lat="44.07195" lon="5.90136">
        <ele>691.33</ele>
        <time>2019-06-24T10:32:52Z</time>
      </trkpt>
      <trkpt lat="44.07247" lon="5.90155">
        <ele>687.48</ele>
        <time>2019-06-24T10:32:55Z</time>
      </trkpt>
      <trkpt lat="44.07263" lon="5.90164">
        <ele>686.52</ele>
        <time>2019-06-24T10:32:56Z</time>
      </trkpt>
      <trkpt lat="44.07279" lon="5.90176">
        <ele>686.04</ele>
        <time>2019-06-24T10:32:57Z</time>
      </trkpt>
      <trkpt lat="44.07294" lon="5.90191">
        <ele>685.56</ele>
        <time>2019-06-24T10:32:58Z</time>
      </trkpt>
      <trkpt lat="44.07309" lon="5.90207">
        <ele>685.08</ele>
        <time>2019-06-24T10:32:59Z</time>
      </trkpt>
      <trkpt lat="44.07324" lon="5.90225">
        <ele>683.63</ele>
        <time>2019-06-24T10:33:00Z</time>
      </trkpt>
      <trkpt lat="44.07369" lon="5.90282">
        <ele>681.71</ele>
        <time>2019-06-24T10:33:03Z</time>
      </trkpt>
      <trkpt lat="44.07414" lon="5.90339">
        <ele>680.27</ele>
        <time>2019-06-24T10:33:06Z</time>
      </trkpt>
      <trkpt lat="44.0747" lon="5.90412">
        <ele>676.91</ele>
        <time>2019-06-24T10:33:10Z</time>
      </trkpt>
      <trkpt lat="44.07484" lon="5.90431">
        <ele>677.39</ele>
        <time>2019-06-24T10:33:11Z</time>
      </trkpt>
      <trkpt lat="44.07556" lon="5.90597">
        <ele>675.94</ele>
        <time>2019-06-24T10:33:18Z</time>
      </trkpt>
      <trkpt lat="44.07567" lon="5.90652">
        <ele>675.46</ele>
        <time>2019-06-24T10:33:20Z</time>
      </trkpt>
      <trkpt lat="44.07578" lon="5.90727">
        <ele>674.02</ele>
        <time>2019-06-24T10:33:23Z</time>
      </trkpt>
      <trkpt lat="44.07577" lon="5.9075">
        <ele>673.06</ele>
        <time>2019-06-24T10:33:24Z</time>
      </trkpt>
      <trkpt lat="44.07574" lon="5.90773">
        <ele>673.06</ele>
        <time>2019-06-24T10:33:25Z</time>
      </trkpt>
      <trkpt lat="44.0757" lon="5.90794">
        <ele>672.1</ele>
        <time>2019-06-24T10:33:26Z</time>
      </trkpt>
      <trkpt lat="44.07565" lon="5.90813">
        <ele>672.58</ele>
        <time>2019-06-24T10:33:27Z</time>
      </trkpt>
      <trkpt lat="44.07546" lon="5.90896">
        <ele>670.66</ele>
        <time>2019-06-24T10:33:31Z</time>
      </trkpt>
      <trkpt lat="44.07544" lon="5.90919">
        <ele>670.18</ele>
        <time>2019-06-24T10:33:32Z</time>
      </trkpt>
      <trkpt lat="44.07543" lon="5.90943">
        <ele>669.22</ele>
        <time>2019-06-24T10:33:33Z</time>
      </trkpt>
      <trkpt lat="44.07543" lon="5.90969">
        <ele>668.25</ele>
        <time>2019-06-24T10:33:34Z</time>
      </trkpt>
      <trkpt lat="44.07544" lon="5.90995">
        <ele>667.29</ele>
        <time>2019-06-24T10:33:35Z</time>
      </trkpt>
      <trkpt lat="44.07553" lon="5.91103">
        <ele>662.49</ele>
        <time>2019-06-24T10:33:39Z</time>
      </trkpt>
      <trkpt lat="44.07562" lon="5.91178">
        <ele>659.12</ele>
        <time>2019-06-24T10:33:42Z</time>
      </trkpt>
      <trkpt lat="44.07562" lon="5.91201">
        <ele>658.64</ele>
        <time>2019-06-24T10:33:43Z</time>
      </trkpt>
      <trkpt lat="44.07561" lon="5.91224">
        <ele>658.64</ele>
        <time>2019-06-24T10:33:44Z</time>
      </trkpt>
      <trkpt lat="44.07572" lon="5.914">
        <ele>655.76</ele>
        <time>2019-06-24T10:33:51Z</time>
      </trkpt>
      <trkpt lat="44.07577" lon="5.91454">
        <ele>652.39</ele>
        <time>2019-06-24T10:33:53Z</time>
      </trkpt>
      <trkpt lat="44.07587" lon="5.91559">
        <ele>648.07</ele>
        <time>2019-06-24T10:33:57Z</time>
      </trkpt>
      <trkpt lat="44.07588" lon="5.9161">
        <ele>645.18</ele>
        <time>2019-06-24T10:33:59Z</time>
      </trkpt>
      <trkpt lat="44.07584" lon="5.91635">
        <ele>644.7</ele>
        <time>2019-06-24T10:34:00Z</time>
      </trkpt>
      <trkpt lat="44.07579" lon="5.9166">
        <ele>643.26</ele>
        <time>2019-06-24T10:34:01Z</time>
      </trkpt>
      <trkpt lat="44.0755" lon="5.91755">
        <ele>639.89</ele>
        <time>2019-06-24T10:34:05Z</time>
      </trkpt>
      <trkpt lat="44.07525" lon="5.91824">
        <ele>636.53</ele>
        <time>2019-06-24T10:34:08Z</time>
      </trkpt>
      <trkpt lat="44.07507" lon="5.91889">
        <ele>633.17</ele>
        <time>2019-06-24T10:34:11Z</time>
      </trkpt>
      <trkpt lat="44.07497" lon="5.9193">
        <ele>631.24</ele>
        <time>2019-06-24T10:34:13Z</time>
      </trkpt>
      <trkpt lat="44.07489" lon="5.91947">
        <ele>630.28</ele>
        <time>2019-06-24T10:34:14Z</time>
      </trkpt>
      <trkpt lat="44.07479" lon="5.9196">
        <ele>629.8</ele>
        <time>2019-06-24T10:34:15Z</time>
      </trkpt>
      <trkpt lat="44.07467" lon="5.91972">
        <ele>629.8</ele>
        <time>2019-06-24T10:34:16Z</time>
      </trkpt>
      <trkpt lat="44.07453" lon="5.91983">
        <ele>629.8</ele>
        <time>2019-06-24T10:34:17Z</time>
      </trkpt>
      <trkpt lat="44.0744" lon="5.91996">
        <ele>628.84</ele>
        <time>2019-06-24T10:34:18Z</time>
      </trkpt>
      <trkpt lat="44.07428" lon="5.92011">
        <ele>628.36</ele>
        <time>2019-06-24T10:34:19Z</time>
      </trkpt>
      <trkpt lat="44.07415" lon="5.92028">
        <ele>628.36</ele>
        <time>2019-06-24T10:34:20Z</time>
      </trkpt>
      <trkpt lat="44.07404" lon="5.92046">
        <ele>626.92</ele>
        <time>2019-06-24T10:34:21Z</time>
      </trkpt>
      <trkpt lat="44.07374" lon="5.92098">
        <ele>624.03</ele>
        <time>2019-06-24T10:34:24Z</time>
      </trkpt>
      <trkpt lat="44.07368" lon="5.92116">
        <ele>622.59</ele>
        <time>2019-06-24T10:34:25Z</time>
      </trkpt>
      <trkpt lat="44.07355" lon="5.92148">
        <ele>621.63</ele>
        <time>2019-06-24T10:34:27Z</time>
      </trkpt>
      <trkpt lat="44.07345" lon="5.92159">
        <ele>621.15</ele>
        <time>2019-06-24T10:34:28Z</time>
      </trkpt>
      <trkpt lat="44.07333" lon="5.92169">
        <ele>620.67</ele>
        <time>2019-06-24T10:34:29Z</time>
      </trkpt>
      <trkpt lat="44.07321" lon="5.92181">
        <ele>621.15</ele>
        <time>2019-06-24T10:34:30Z</time>
      </trkpt>
      <trkpt lat="44.07308" lon="5.92195">
        <ele>621.15</ele>
        <time>2019-06-24T10:34:31Z</time>
      </trkpt>
      <trkpt lat="44.07245" lon="5.92307">
        <ele>617.3</ele>
        <time>2019-06-24T10:34:37Z</time>
      </trkpt>
      <trkpt lat="44.07221" lon="5.92367">
        <ele>613.94</ele>
        <time>2019-06-24T10:34:40Z</time>
      </trkpt>
      <trkpt lat="44.07211" lon="5.92384">
        <ele>612.98</ele>
        <time>2019-06-24T10:34:41Z</time>
      </trkpt>
      <trkpt lat="44.072" lon="5.924">
        <ele>612.02</ele>
        <time>2019-06-24T10:34:42Z</time>
      </trkpt>
      <trkpt lat="44.07167" lon="5.92442">
        <ele>609.61</ele>
        <time>2019-06-24T10:34:45Z</time>
      </trkpt>
      <trkpt lat="44.07155" lon="5.92452">
        <ele>608.17</ele>
        <time>2019-06-24T10:34:46Z</time>
      </trkpt>
      <trkpt lat="44.07141" lon="5.92458">
        <ele>607.21</ele>
        <time>2019-06-24T10:34:47Z</time>
      </trkpt>
      <trkpt lat="44.07127" lon="5.92464">
        <ele>607.21</ele>
        <time>2019-06-24T10:34:48Z</time>
      </trkpt>
      <trkpt lat="44.07051" lon="5.92511">
        <ele>603.85</ele>
        <time>2019-06-24T10:34:53Z</time>
      </trkpt>
      <trkpt lat="44.07021" lon="5.92529">
        <ele>600.96</ele>
        <time>2019-06-24T10:34:55Z</time>
      </trkpt>
      <trkpt lat="44.06988" lon="5.92541">
        <ele>599.52</ele>
        <time>2019-06-24T10:34:57Z</time>
      </trkpt>
      <trkpt lat="44.06971" lon="5.92543">
        <ele>599.04</ele>
        <time>2019-06-24T10:34:58Z</time>
      </trkpt>
      <trkpt lat="44.06954" lon="5.92542">
        <ele>597.6</ele>
        <time>2019-06-24T10:34:59Z</time>
      </trkpt>
      <trkpt lat="44.06909" lon="5.92537">
        <ele>594.23</ele>
        <time>2019-06-24T10:35:02Z</time>
      </trkpt>
      <trkpt lat="44.06896" lon="5.92539">
        <ele>593.75</ele>
        <time>2019-06-24T10:35:03Z</time>
      </trkpt>
      <trkpt lat="44.06883" lon="5.92545">
        <ele>593.27</ele>
        <time>2019-06-24T10:35:04Z</time>
      </trkpt>
      <trkpt lat="44.06871" lon="5.92555">
        <ele>592.79</ele>
        <time>2019-06-24T10:35:05Z</time>
      </trkpt>
      <trkpt lat="44.06859" lon="5.92568">
        <ele>592.31</ele>
        <time>2019-06-24T10:35:06Z</time>
      </trkpt>
      <trkpt lat="44.06847" lon="5.92581">
        <ele>592.31</ele>
        <time>2019-06-24T10:35:07Z</time>
      </trkpt>
      <trkpt lat="44.06776" lon="5.92642">
        <ele>589.91</ele>
        <time>2019-06-24T10:35:12Z</time>
      </trkpt>
      <trkpt lat="44.0675" lon="5.92669">
        <ele>587.5</ele>
        <time>2019-06-24T10:35:14Z</time>
      </trkpt>
      <trkpt lat="44.06739" lon="5.92684">
        <ele>586.54</ele>
        <time>2019-06-24T10:35:15Z</time>
      </trkpt>
      <trkpt lat="44.06729" lon="5.92701">
        <ele>585.58</ele>
        <time>2019-06-24T10:35:16Z</time>
      </trkpt>
      <trkpt lat="44.0672" lon="5.9272">
        <ele>585.1</ele>
        <time>2019-06-24T10:35:17Z</time>
      </trkpt>
      <trkpt lat="44.06711" lon="5.92741">
        <ele>583.66</ele>
        <time>2019-06-24T10:35:18Z</time>
      </trkpt>
      <trkpt lat="44.06702" lon="5.92761">
        <ele>583.66</ele>
        <time>2019-06-24T10:35:19Z</time>
      </trkpt>
      <trkpt lat="44.06652" lon="5.92869">
        <ele>580.77</ele>
        <time>2019-06-24T10:35:24Z</time>
      </trkpt>
      <trkpt lat="44.06637" lon="5.92909">
        <ele>577.41</ele>
        <time>2019-06-24T10:35:26Z</time>
      </trkpt>
      <trkpt lat="44.06632" lon="5.92928">
        <ele>576.93</ele>
        <time>2019-06-24T10:35:27Z</time>
      </trkpt>
      <trkpt lat="44.06631" lon="5.92945">
        <ele>575.49</ele>
        <time>2019-06-24T10:35:28Z</time>
      </trkpt>
      <trkpt lat="44.06629" lon="5.92961">
        <ele>574.53</ele>
        <time>2019-06-24T10:35:29Z</time>
      </trkpt>
      <trkpt lat="44.06623" lon="5.92973">
        <ele>574.04</ele>
        <time>2019-06-24T10:35:30Z</time>
      </trkpt>
      <trkpt lat="44.06613" lon="5.92981">
        <ele>573.56</ele>
        <time>2019-06-24T10:35:31Z</time>
      </trkpt>
      <trkpt lat="44.06601" lon="5.92987">
        <ele>574.04</ele>
        <time>2019-06-24T10:35:32Z</time>
      </trkpt>
      <trkpt lat="44.06589" lon="5.92995">
        <ele>573.56</ele>
        <time>2019-06-24T10:35:33Z</time>
      </trkpt>
      <trkpt lat="44.06577" lon="5.93006">
        <ele>572.6</ele>
        <time>2019-06-24T10:35:34Z</time>
      </trkpt>
      <trkpt lat="44.06565" lon="5.93019">
        <ele>572.6</ele>
        <time>2019-06-24T10:35:35Z</time>
      </trkpt>
      <trkpt lat="44.06553" lon="5.93035">
        <ele>571.64</ele>
        <time>2019-06-24T10:35:36Z</time>
      </trkpt>
      <trkpt lat="44.06529" lon="5.93069">
        <ele>571.64</ele>
        <time>2019-06-24T10:35:38Z</time>
      </trkpt>
      <trkpt lat="44.06519" lon="5.93088">
        <ele>572.6</ele>
        <time>2019-06-24T10:35:39Z</time>
      </trkpt>
      <trkpt lat="44.06511" lon="5.93109">
        <ele>571.64</ele>
        <time>2019-06-24T10:35:40Z</time>
      </trkpt>
      <trkpt lat="44.06488" lon="5.93173">
        <ele>571.64</ele>
        <time>2019-06-24T10:35:43Z</time>
      </trkpt>
      <trkpt lat="44.06478" lon="5.93192">
        <ele>571.64</ele>
        <time>2019-06-24T10:35:44Z</time>
      </trkpt>
      <trkpt lat="44.06467" lon="5.93209">
        <ele>571.64</ele>
        <time>2019-06-24T10:35:45Z</time>
      </trkpt>
      <trkpt lat="44.06455" lon="5.93226">
        <ele>571.16</ele>
        <time>2019-06-24T10:35:46Z</time>
      </trkpt>
      <trkpt lat="44.06442" lon="5.93241">
        <ele>570.68</ele>
        <time>2019-06-24T10:35:47Z</time>
      </trkpt>
      <trkpt lat="44.06417" lon="5.9327">
        <ele>570.2</ele>
        <time>2019-06-24T10:35:49Z</time>
      </trkpt>
      <trkpt lat="44.06392" lon="5.93307">
        <ele>568.76</ele>
        <time>2019-06-24T10:35:52Z</time>
      </trkpt>
      <trkpt lat="44.0639" lon="5.93318">
        <ele>567.8</ele>
        <time>2019-06-24T10:35:53Z</time>
      </trkpt>
      <trkpt lat="44.06392" lon="5.9333">
        <ele>567.8</ele>
        <time>2019-06-24T10:35:54Z</time>
      </trkpt>
      <trkpt lat="44.06397" lon="5.9334">
        <ele>567.8</ele>
        <time>2019-06-24T10:35:55Z</time>
      </trkpt>
      <trkpt lat="44.06406" lon="5.93347">
        <ele>567.8</ele>
        <time>2019-06-24T10:35:56Z</time>
      </trkpt>
      <trkpt lat="44.06417" lon="5.93353">
        <ele>567.32</ele>
        <time>2019-06-24T10:35:57Z</time>
      </trkpt>
      <trkpt lat="44.06428" lon="5.93357">
        <ele>567.8</ele>
        <time>2019-06-24T10:35:58Z</time>
      </trkpt>
      <trkpt lat="44.06438" lon="5.9336">
        <ele>567.32</ele>
        <time>2019-06-24T10:35:59Z</time>
      </trkpt>
      <trkpt lat="44.06447" lon="5.93363">
        <ele>566.83</ele>
        <time>2019-06-24T10:36:00Z</time>
      </trkpt>
      <trkpt lat="44.06453" lon="5.93368">
        <ele>566.35</ele>
        <time>2019-06-24T10:36:01Z</time>
      </trkpt>
      <trkpt lat="44.06455" lon="5.93376">
        <ele>566.35</ele>
        <time>2019-06-24T10:36:02Z</time>
      </trkpt>
      <trkpt lat="44.06453" lon="5.93384">
        <ele>566.35</ele>
        <time>2019-06-24T10:36:03Z</time>
      </trkpt>
      <trkpt lat="44.06446" lon="5.93391">
        <ele>566.83</ele>
        <time>2019-06-24T10:36:04Z</time>
      </trkpt>
      <trkpt lat="44.06436" lon="5.93395">
        <ele>566.35</ele>
        <time>2019-06-24T10:36:05Z</time>
      </trkpt>
      <trkpt lat="44.06425" lon="5.93398">
        <ele>566.83</ele>
        <time>2019-06-24T10:36:06Z</time>
      </trkpt>
      <trkpt lat="44.064" lon="5.93408">
        <ele>566.83</ele>
        <time>2019-06-24T10:36:08Z</time>
      </trkpt>
      <trkpt lat="44.06388" lon="5.93417">
        <ele>566.83</ele>
        <time>2019-06-24T10:36:09Z</time>
      </trkpt>
      <trkpt lat="44.06375" lon="5.9343">
        <ele>566.35</ele>
        <time>2019-06-24T10:36:10Z</time>
      </trkpt>
      <trkpt lat="44.06363" lon="5.93446">
        <ele>566.83</ele>
        <time>2019-06-24T10:36:11Z</time>
      </trkpt>
      <trkpt lat="44.0635" lon="5.93463">
        <ele>566.35</ele>
        <time>2019-06-24T10:36:12Z</time>
      </trkpt>
      <trkpt lat="44.06328" lon="5.93495">
        <ele>565.39</ele>
        <time>2019-06-24T10:36:14Z</time>
      </trkpt>
      <trkpt lat="44.06311" lon="5.93528">
        <ele>563.47</ele>
        <time>2019-06-24T10:36:16Z</time>
      </trkpt>
      <trkpt lat="44.06306" lon="5.93545">
        <ele>562.99</ele>
        <time>2019-06-24T10:36:17Z</time>
      </trkpt>
      <trkpt lat="44.06305" lon="5.93562">
        <ele>561.55</ele>
        <time>2019-06-24T10:36:18Z</time>
      </trkpt>
      <trkpt lat="44.06308" lon="5.93579">
        <ele>561.07</ele>
        <time>2019-06-24T10:36:19Z</time>
      </trkpt>
      <trkpt lat="44.06312" lon="5.93596">
        <ele>561.07</ele>
        <time>2019-06-24T10:36:20Z</time>
      </trkpt>
      <trkpt lat="44.06316" lon="5.93612">
        <ele>561.07</ele>
        <time>2019-06-24T10:36:21Z</time>
      </trkpt>
      <trkpt lat="44.06316" lon="5.93628">
        <ele>559.62</ele>
        <time>2019-06-24T10:36:22Z</time>
      </trkpt>
      <trkpt lat="44.06312" lon="5.93643">
        <ele>559.14</ele>
        <time>2019-06-24T10:36:23Z</time>
      </trkpt>
      <trkpt lat="44.06303" lon="5.93654">
        <ele>559.14</ele>
        <time>2019-06-24T10:36:24Z</time>
      </trkpt>
      <trkpt lat="44.06291" lon="5.93662">
        <ele>559.62</ele>
        <time>2019-06-24T10:36:25Z</time>
      </trkpt>
      <trkpt lat="44.0628" lon="5.93671">
        <ele>560.11</ele>
        <time>2019-06-24T10:36:26Z</time>
      </trkpt>
      <trkpt lat="44.06268" lon="5.93682">
        <ele>559.14</ele>
        <time>2019-06-24T10:36:27Z</time>
      </trkpt>
      <trkpt lat="44.06256" lon="5.93694">
        <ele>559.14</ele>
        <time>2019-06-24T10:36:28Z</time>
      </trkpt>
      <trkpt lat="44.06244" lon="5.93708">
        <ele>558.18</ele>
        <time>2019-06-24T10:36:29Z</time>
      </trkpt>
      <trkpt lat="44.06194" lon="5.93767">
        <ele>555.3</ele>
        <time>2019-06-24T10:36:33Z</time>
      </trkpt>
      <trkpt lat="44.06144" lon="5.93829">
        <ele>551.93</ele>
        <time>2019-06-24T10:36:37Z</time>
      </trkpt>
      <trkpt lat="44.06098" lon="5.93896">
        <ele>548.57</ele>
        <time>2019-06-24T10:36:41Z</time>
      </trkpt>
      <trkpt lat="44.06066" lon="5.93941">
        <ele>545.2</ele>
        <time>2019-06-24T10:36:44Z</time>
      </trkpt>
      <trkpt lat="44.06048" lon="5.93965">
        <ele>543.28</ele>
        <time>2019-06-24T10:36:46Z</time>
      </trkpt>
      <trkpt lat="44.06031" lon="5.93984">
        <ele>541.84</ele>
        <time>2019-06-24T10:36:48Z</time>
      </trkpt>
      <trkpt lat="44.06025" lon="5.93995">
        <ele>540.88</ele>
        <time>2019-06-24T10:36:49Z</time>
      </trkpt>
      <trkpt lat="44.06022" lon="5.94006">
        <ele>539.92</ele>
        <time>2019-06-24T10:36:50Z</time>
      </trkpt>
      <trkpt lat="44.06024" lon="5.94018">
        <ele>539.44</ele>
        <time>2019-06-24T10:36:51Z</time>
      </trkpt>
      <trkpt lat="44.0603" lon="5.94028">
        <ele>538.48</ele>
        <time>2019-06-24T10:36:52Z</time>
      </trkpt>
      <trkpt lat="44.06039" lon="5.94033">
        <ele>537.99</ele>
        <time>2019-06-24T10:36:53Z</time>
      </trkpt>
      <trkpt lat="44.06051" lon="5.94034">
        <ele>538.48</ele>
        <time>2019-06-24T10:36:54Z</time>
      </trkpt>
      <trkpt lat="44.06063" lon="5.94033">
        <ele>537.99</ele>
        <time>2019-06-24T10:36:55Z</time>
      </trkpt>
      <trkpt lat="44.06142" lon="5.94023">
        <ele>536.07</ele>
        <time>2019-06-24T10:37:00Z</time>
      </trkpt>
      <trkpt lat="44.06159" lon="5.94024">
        <ele>535.59</ele>
        <time>2019-06-24T10:37:01Z</time>
      </trkpt>
      <trkpt lat="44.06197" lon="5.94028">
        <ele>533.67</ele>
        <time>2019-06-24T10:37:03Z</time>
      </trkpt>
      <trkpt lat="44.06269" lon="5.94032">
        <ele>529.82</ele>
        <time>2019-06-24T10:37:07Z</time>
      </trkpt>
      <trkpt lat="44.06286" lon="5.9403">
        <ele>528.38</ele>
        <time>2019-06-24T10:37:08Z</time>
      </trkpt>
      <trkpt lat="44.06301" lon="5.94025">
        <ele>526.94</ele>
        <time>2019-06-24T10:37:09Z</time>
      </trkpt>
      <trkpt lat="44.06316" lon="5.94018">
        <ele>525.5</ele>
        <time>2019-06-24T10:37:10Z</time>
      </trkpt>
      <trkpt lat="44.06331" lon="5.94009">
        <ele>525.02</ele>
        <time>2019-06-24T10:37:11Z</time>
      </trkpt>
      <trkpt lat="44.06346" lon="5.93998">
        <ele>525.02</ele>
        <time>2019-06-24T10:37:12Z</time>
      </trkpt>
      <trkpt lat="44.0636" lon="5.93987">
        <ele>524.06</ele>
        <time>2019-06-24T10:37:13Z</time>
      </trkpt>
      <trkpt lat="44.06396" lon="5.93961">
        <ele>520.69</ele>
        <time>2019-06-24T10:37:16Z</time>
      </trkpt>
      <trkpt lat="44.06406" lon="5.93955">
        <ele>520.69</ele>
        <time>2019-06-24T10:37:17Z</time>
      </trkpt>
      <trkpt lat="44.06417" lon="5.93953">
        <ele>520.21</ele>
        <time>2019-06-24T10:37:18Z</time>
      </trkpt>
      <trkpt lat="44.06428" lon="5.93954">
        <ele>520.21</ele>
        <time>2019-06-24T10:37:19Z</time>
      </trkpt>
      <trkpt lat="44.06436" lon="5.93957">
        <ele>520.21</ele>
        <time>2019-06-24T10:37:20Z</time>
      </trkpt>
      <trkpt lat="44.06442" lon="5.93965">
        <ele>519.25</ele>
        <time>2019-06-24T10:37:21Z</time>
      </trkpt>
      <trkpt lat="44.06444" lon="5.93976">
        <ele>518.77</ele>
        <time>2019-06-24T10:37:22Z</time>
      </trkpt>
      <trkpt lat="44.06443" lon="5.93986">
        <ele>518.29</ele>
        <time>2019-06-24T10:37:23Z</time>
      </trkpt>
      <trkpt lat="44.06438" lon="5.93991">
        <ele>517.81</ele>
        <time>2019-06-24T10:37:24Z</time>
      </trkpt>
      <trkpt lat="44.06427" lon="5.93993">
        <ele>518.29</ele>
        <time>2019-06-24T10:37:25Z</time>
      </trkpt>
      <trkpt lat="44.06415" lon="5.93994">
        <ele>517.81</ele>
        <time>2019-06-24T10:37:26Z</time>
      </trkpt>
      <trkpt lat="44.06389" lon="5.93996">
        <ele>517.81</ele>
        <time>2019-06-24T10:37:28Z</time>
      </trkpt>
      <trkpt lat="44.06363" lon="5.94005">
        <ele>517.33</ele>
        <time>2019-06-24T10:37:30Z</time>
      </trkpt>
      <trkpt lat="44.06302" lon="5.94049">
        <ele>513.48</ele>
        <time>2019-06-24T10:37:35Z</time>
      </trkpt>
      <trkpt lat="44.0629" lon="5.94056">
        <ele>512.52</ele>
        <time>2019-06-24T10:37:36Z</time>
      </trkpt>
      <trkpt lat="44.06277" lon="5.94062">
        <ele>513</ele>
        <time>2019-06-24T10:37:37Z</time>
      </trkpt>
      <trkpt lat="44.06262" lon="5.94066">
        <ele>512.04</ele>
        <time>2019-06-24T10:37:38Z</time>
      </trkpt>
      <trkpt lat="44.0616" lon="5.9409">
        <ele>508.19</ele>
        <time>2019-06-24T10:37:44Z</time>
      </trkpt>
      <trkpt lat="44.06107" lon="5.94114">
        <ele>504.35</ele>
        <time>2019-06-24T10:37:47Z</time>
      </trkpt>
      <trkpt lat="44.0604" lon="5.94133">
        <ele>500.98</ele>
        <time>2019-06-24T10:37:51Z</time>
      </trkpt>
      <trkpt lat="44.05977" lon="5.94142">
        <ele>496.18</ele>
        <time>2019-06-24T10:37:55Z</time>
      </trkpt>
      <trkpt lat="44.05963" lon="5.94142">
        <ele>495.22</ele>
        <time>2019-06-24T10:37:56Z</time>
      </trkpt>
      <trkpt lat="44.05951" lon="5.94138">
        <ele>493.77</ele>
        <time>2019-06-24T10:37:57Z</time>
      </trkpt>
      <trkpt lat="44.05941" lon="5.94129">
        <ele>492.33</ele>
        <time>2019-06-24T10:37:58Z</time>
      </trkpt>
      <trkpt lat="44.05934" lon="5.94118">
        <ele>491.85</ele>
        <time>2019-06-24T10:37:59Z</time>
      </trkpt>
      <trkpt lat="44.0593" lon="5.94103">
        <ele>490.41</ele>
        <time>2019-06-24T10:38:00Z</time>
      </trkpt>
      <trkpt lat="44.0593" lon="5.94089">
        <ele>489.93</ele>
        <time>2019-06-24T10:38:01Z</time>
      </trkpt>
      <trkpt lat="44.05929" lon="5.94077">
        <ele>488.97</ele>
        <time>2019-06-24T10:38:02Z</time>
      </trkpt>
      <trkpt lat="44.05926" lon="5.94069">
        <ele>488.97</ele>
        <time>2019-06-24T10:38:03Z</time>
      </trkpt>
      <trkpt lat="44.0592" lon="5.94067">
        <ele>488.01</ele>
        <time>2019-06-24T10:38:04Z</time>
      </trkpt>
      <trkpt lat="44.05914" lon="5.9407">
        <ele>487.53</ele>
        <time>2019-06-24T10:38:05Z</time>
      </trkpt>
      <trkpt lat="44.05909" lon="5.94078">
        <ele>487.05</ele>
        <time>2019-06-24T10:38:06Z</time>
      </trkpt>
      <trkpt lat="44.05905" lon="5.9409">
        <ele>487.05</ele>
        <time>2019-06-24T10:38:07Z</time>
      </trkpt>
      <trkpt lat="44.05902" lon="5.94105">
        <ele>486.08</ele>
        <time>2019-06-24T10:38:08Z</time>
      </trkpt>
      <trkpt lat="44.05898" lon="5.9412">
        <ele>485.12</ele>
        <time>2019-06-24T10:38:09Z</time>
      </trkpt>
      <trkpt lat="44.0589" lon="5.94135">
        <ele>484.64</ele>
        <time>2019-06-24T10:38:10Z</time>
      </trkpt>
      <trkpt lat="44.0588" lon="5.94148">
        <ele>483.68</ele>
        <time>2019-06-24T10:38:11Z</time>
      </trkpt>
      <trkpt lat="44.05868" lon="5.94161">
        <ele>482.72</ele>
        <time>2019-06-24T10:38:12Z</time>
      </trkpt>
      <trkpt lat="44.05856" lon="5.94173">
        <ele>481.76</ele>
        <time>2019-06-24T10:38:13Z</time>
      </trkpt>
      <trkpt lat="44.05813" lon="5.9421">
        <ele>477.91</ele>
        <time>2019-06-24T10:38:16Z</time>
      </trkpt>
      <trkpt lat="44.05783" lon="5.94232">
        <ele>474.55</ele>
        <time>2019-06-24T10:38:18Z</time>
      </trkpt>
      <trkpt lat="44.05774" lon="5.94238">
        <ele>475.03</ele>
        <time>2019-06-24T10:38:19Z</time>
      </trkpt>
      <trkpt lat="44.05687" lon="5.94316">
        <ele>471.66</ele>
        <time>2019-06-24T10:38:25Z</time>
      </trkpt>
      <trkpt lat="44.05677" lon="5.94333">
        <ele>471.18</ele>
        <time>2019-06-24T10:38:26Z</time>
      </trkpt>
      <trkpt lat="44.0567" lon="5.94351">
        <ele>470.7</ele>
        <time>2019-06-24T10:38:27Z</time>
      </trkpt>
      <trkpt lat="44.05668" lon="5.94372">
        <ele>470.22</ele>
        <time>2019-06-24T10:38:28Z</time>
      </trkpt>
      <trkpt lat="44.05668" lon="5.94394">
        <ele>470.22</ele>
        <time>2019-06-24T10:38:29Z</time>
      </trkpt>
      <trkpt lat="44.0567" lon="5.94418">
        <ele>469.26</ele>
        <time>2019-06-24T10:38:30Z</time>
      </trkpt>
      <trkpt lat="44.05679" lon="5.94545">
        <ele>465.9</ele>
        <time>2019-06-24T10:38:35Z</time>
      </trkpt>
      <trkpt lat="44.05684" lon="5.94591">
        <ele>464.93</ele>
        <time>2019-06-24T10:38:37Z</time>
      </trkpt>
      <trkpt lat="44.05693" lon="5.94674">
        <ele>463.97</ele>
        <time>2019-06-24T10:38:41Z</time>
      </trkpt>
      <trkpt lat="44.0569" lon="5.94693">
        <ele>463.49</ele>
        <time>2019-06-24T10:38:42Z</time>
      </trkpt>
      <trkpt lat="44.05684" lon="5.94713">
        <ele>463.01</ele>
        <time>2019-06-24T10:38:43Z</time>
      </trkpt>
      <trkpt lat="44.0565" lon="5.94811">
        <ele>462.05</ele>
        <time>2019-06-24T10:38:48Z</time>
      </trkpt>
      <trkpt lat="44.05641" lon="5.94828">
        <ele>462.05</ele>
        <time>2019-06-24T10:38:49Z</time>
      </trkpt>
      <trkpt lat="44.05629" lon="5.94842">
        <ele>461.57</ele>
        <time>2019-06-24T10:38:50Z</time>
      </trkpt>
      <trkpt lat="44.05616" lon="5.94853">
        <ele>462.05</ele>
        <time>2019-06-24T10:38:51Z</time>
      </trkpt>
      <trkpt lat="44.056" lon="5.94859">
        <ele>461.57</ele>
        <time>2019-06-24T10:38:52Z</time>
      </trkpt>
      <trkpt lat="44.05583" lon="5.94861">
        <ele>461.57</ele>
        <time>2019-06-24T10:38:53Z</time>
      </trkpt>
      <trkpt lat="44.05565" lon="5.94861">
        <ele>461.57</ele>
        <time>2019-06-24T10:38:54Z</time>
      </trkpt>
      <trkpt lat="44.05547" lon="5.94858">
        <ele>461.57</ele>
        <time>2019-06-24T10:38:55Z</time>
      </trkpt>
      <trkpt lat="44.0551" lon="5.94855">
        <ele>460.61</ele>
        <time>2019-06-24T10:38:57Z</time>
      </trkpt>
      <trkpt lat="44.05491" lon="5.94859">
        <ele>461.09</ele>
        <time>2019-06-24T10:38:58Z</time>
      </trkpt>
      <trkpt lat="44.05473" lon="5.94867">
        <ele>460.61</ele>
        <time>2019-06-24T10:38:59Z</time>
      </trkpt>
      <trkpt lat="44.05455" lon="5.94879">
        <ele>460.61</ele>
        <time>2019-06-24T10:39:00Z</time>
      </trkpt>
      <trkpt lat="44.05323" lon="5.94964">
        <ele>460.13</ele>
        <time>2019-06-24T10:39:08Z</time>
      </trkpt>
      <trkpt lat="44.05305" lon="5.9497">
        <ele>460.13</ele>
        <time>2019-06-24T10:39:09Z</time>
      </trkpt>
      <trkpt lat="44.05225" lon="5.94993">
        <ele>456.28</ele>
        <time>2019-06-24T10:39:13Z</time>
      </trkpt>
      <trkpt lat="44.05146" lon="5.95037">
        <ele>454.36</ele>
        <time>2019-06-24T10:39:17Z</time>
      </trkpt>
      <trkpt lat="44.04981" lon="5.95147">
        <ele>452.92</ele>
        <time>2019-06-24T10:39:26Z</time>
      </trkpt>
      <trkpt lat="44.04847" lon="5.95221">
        <ele>453.88</ele>
        <time>2019-06-24T10:39:34Z</time>
      </trkpt>
      <trkpt lat="44.04829" lon="5.95221">
        <ele>454.36</ele>
        <time>2019-06-24T10:39:35Z</time>
      </trkpt>
      <trkpt lat="44.04811" lon="5.95218">
        <ele>454.36</ele>
        <time>2019-06-24T10:39:36Z</time>
      </trkpt>
      <trkpt lat="44.04758" lon="5.95208">
        <ele>454.84</ele>
        <time>2019-06-24T10:39:39Z</time>
      </trkpt>
      <trkpt lat="44.04689" lon="5.95213">
        <ele>451.48</ele>
        <time>2019-06-24T10:39:43Z</time>
      </trkpt>
      <trkpt lat="44.04678" lon="5.95218">
        <ele>451.48</ele>
        <time>2019-06-24T10:39:44Z</time>
      </trkpt>
      <trkpt lat="44.04664" lon="5.95227">
        <ele>450.03</ele>
        <time>2019-06-24T10:39:45Z</time>
      </trkpt>
      <trkpt lat="44.04651" lon="5.95241">
        <ele>449.55</ele>
        <time>2019-06-24T10:39:46Z</time>
      </trkpt>
      <trkpt lat="44.04638" lon="5.95255">
        <ele>449.55</ele>
        <time>2019-06-24T10:39:47Z</time>
      </trkpt>
      <trkpt lat="44.04602" lon="5.953">
        <ele>445.71</ele>
        <time>2019-06-24T10:39:50Z</time>
      </trkpt>
      <trkpt lat="44.04581" lon="5.95326">
        <ele>443.79</ele>
        <time>2019-06-24T10:39:52Z</time>
      </trkpt>
      <trkpt lat="44.04569" lon="5.95334">
        <ele>442.34</ele>
        <time>2019-06-24T10:39:53Z</time>
      </trkpt>
      <trkpt lat="44.04557" lon="5.95338">
        <ele>441.38</ele>
        <time>2019-06-24T10:39:54Z</time>
      </trkpt>
      <trkpt lat="44.04543" lon="5.95339">
        <ele>441.38</ele>
        <time>2019-06-24T10:39:55Z</time>
      </trkpt>
      <trkpt lat="44.04529" lon="5.95338">
        <ele>440.42</ele>
        <time>2019-06-24T10:39:56Z</time>
      </trkpt>
      <trkpt lat="44.04515" lon="5.95334">
        <ele>440.42</ele>
        <time>2019-06-24T10:39:57Z</time>
      </trkpt>
      <trkpt lat="44.04502" lon="5.9533">
        <ele>439.94</ele>
        <time>2019-06-24T10:39:58Z</time>
      </trkpt>
      <trkpt lat="44.04476" lon="5.95323">
        <ele>440.42</ele>
        <time>2019-06-24T10:40:00Z</time>
      </trkpt>
      <trkpt lat="44.04465" lon="5.95324">
        <ele>439.94</ele>
        <time>2019-06-24T10:40:01Z</time>
      </trkpt>
      <trkpt lat="44.04455" lon="5.95326">
        <ele>439.46</ele>
        <time>2019-06-24T10:40:02Z</time>
      </trkpt>
      <trkpt lat="44.0443" lon="5.95338">
        <ele>438.5</ele>
        <time>2019-06-24T10:40:07Z</time>
      </trkpt>
      <trkpt lat="44.04429" lon="5.9534">
        <ele>438.5</ele>
        <time>2019-06-24T10:40:08Z</time>
      </trkpt>
      <trkpt lat="44.04429" lon="5.95344">
        <ele>438.5</ele>
        <time>2019-06-24T10:40:09Z</time>
      </trkpt>
      <trkpt lat="44.0443" lon="5.95351">
        <ele>438.98</ele>
        <time>2019-06-24T10:40:10Z</time>
      </trkpt>
      <trkpt lat="44.04432" lon="5.95359">
        <ele>438.5</ele>
        <time>2019-06-24T10:40:11Z</time>
      </trkpt>
      <trkpt lat="44.04436" lon="5.95368">
        <ele>438.5</ele>
        <time>2019-06-24T10:40:12Z</time>
      </trkpt>
      <trkpt lat="44.04458" lon="5.95437">
        <ele>437.54</ele>
        <time>2019-06-24T10:40:20Z</time>
      </trkpt>
      <trkpt lat="44.04458" lon="5.95442">
        <ele>437.54</ele>
        <time>2019-06-24T10:40:21Z</time>
      </trkpt>
      <trkpt lat="44.04458" lon="5.95447">
        <ele>437.06</ele>
        <time>2019-06-24T10:40:22Z</time>
      </trkpt>
      <trkpt lat="44.04457" lon="5.9545">
        <ele>437.06</ele>
        <time>2019-06-24T10:40:23Z</time>
      </trkpt>
      <trkpt lat="44.04453" lon="5.95456">
        <ele>436.58</ele>
        <time>2019-06-24T10:40:30Z</time>
      </trkpt>
      <trkpt lat="44.04449" lon="5.95461">
        <ele>436.58</ele>
        <time>2019-06-24T10:40:31Z</time>
      </trkpt>
      <trkpt lat="44.04397" lon="5.95523">
        <ele>434.65</ele>
        <time>2019-06-24T10:40:39Z</time>
      </trkpt>
      <trkpt lat="44.04359" lon="5.95566">
        <ele>432.73</ele>
        <time>2019-06-24T10:40:44Z</time>
      </trkpt>
      <trkpt lat="44.0427" lon="5.95655">
        <ele>431.29</ele>
        <time>2019-06-24T10:40:53Z</time>
      </trkpt>
      <trkpt lat="44.04151" lon="5.95782">
        <ele>427.92</ele>
        <time>2019-06-24T10:41:04Z</time>
      </trkpt>
      <trkpt lat="44.04064" lon="5.95872">
        <ele>424.56</ele>
        <time>2019-06-24T10:41:13Z</time>
      </trkpt>
      <trkpt lat="44.04056" lon="5.95875">
        <ele>424.56</ele>
        <time>2019-06-24T10:41:14Z</time>
      </trkpt>
      <trkpt lat="44.04047" lon="5.95876">
        <ele>424.08</ele>
        <time>2019-06-24T10:41:15Z</time>
      </trkpt>
      <trkpt lat="44.04039" lon="5.95876">
        <ele>424.08</ele>
        <time>2019-06-24T10:41:16Z</time>
      </trkpt>
      <trkpt lat="44.0403" lon="5.95878">
        <ele>424.08</ele>
        <time>2019-06-24T10:41:17Z</time>
      </trkpt>
      <trkpt lat="44.04023" lon="5.95885">
        <ele>424.08</ele>
        <time>2019-06-24T10:41:18Z</time>
      </trkpt>
      <trkpt lat="44.04018" lon="5.95896">
        <ele>424.08</ele>
        <time>2019-06-24T10:41:19Z</time>
      </trkpt>
      <trkpt lat="44.04015" lon="5.95909">
        <ele>423.6</ele>
        <time>2019-06-24T10:41:20Z</time>
      </trkpt>
      <trkpt lat="44.0401" lon="5.95923">
        <ele>423.6</ele>
        <time>2019-06-24T10:41:21Z</time>
      </trkpt>
      <trkpt lat="44.04002" lon="5.95936">
        <ele>424.56</ele>
        <time>2019-06-24T10:41:22Z</time>
      </trkpt>
      <trkpt lat="44.03993" lon="5.95948">
        <ele>424.56</ele>
        <time>2019-06-24T10:41:23Z</time>
      </trkpt>
      <trkpt lat="44.03982" lon="5.95959">
        <ele>425.04</ele>
        <time>2019-06-24T10:41:24Z</time>
      </trkpt>
      <trkpt lat="44.03862" lon="5.96088">
        <ele>422.16</ele>
        <time>2019-06-24T10:41:35Z</time>
      </trkpt>
      <trkpt lat="44.03813" lon="5.96135">
        <ele>420.23</ele>
        <time>2019-06-24T10:41:41Z</time>
      </trkpt>
      <trkpt lat="44.03805" lon="5.96138">
        <ele>420.23</ele>
        <time>2019-06-24T10:41:42Z</time>
      </trkpt>
      <trkpt lat="44.03796" lon="5.96138">
        <ele>420.71</ele>
        <time>2019-06-24T10:41:43Z</time>
      </trkpt>
      <trkpt lat="44.03787" lon="5.96138">
        <ele>420.23</ele>
        <time>2019-06-24T10:41:44Z</time>
      </trkpt>
      <trkpt lat="44.03778" lon="5.9614">
        <ele>420.23</ele>
        <time>2019-06-24T10:41:45Z</time>
      </trkpt>
      <trkpt lat="44.03771" lon="5.96146">
        <ele>420.23</ele>
        <time>2019-06-24T10:41:46Z</time>
      </trkpt>
      <trkpt lat="44.03764" lon="5.96155">
        <ele>419.75</ele>
        <time>2019-06-24T10:41:47Z</time>
      </trkpt>
      <trkpt lat="44.0376" lon="5.96167">
        <ele>420.23</ele>
        <time>2019-06-24T10:41:48Z</time>
      </trkpt>
      <trkpt lat="44.03757" lon="5.96181">
        <ele>420.23</ele>
        <time>2019-06-24T10:41:49Z</time>
      </trkpt>
      <trkpt lat="44.03754" lon="5.96196">
        <ele>420.23</ele>
        <time>2019-06-24T10:41:50Z</time>
      </trkpt>
      <trkpt lat="44.03749" lon="5.96211">
        <ele>420.23</ele>
        <time>2019-06-24T10:41:51Z</time>
      </trkpt>
      <trkpt lat="44.03741" lon="5.96225">
        <ele>420.71</ele>
        <time>2019-06-24T10:41:52Z</time>
      </trkpt>
      <trkpt lat="44.03732" lon="5.9624">
        <ele>421.19</ele>
        <time>2019-06-24T10:41:53Z</time>
      </trkpt>
      <trkpt lat="44.03681" lon="5.96318">
        <ele>422.16</ele>
        <time>2019-06-24T10:41:58Z</time>
      </trkpt>
      <trkpt lat="44.03576" lon="5.96472">
        <ele>420.23</ele>
        <time>2019-06-24T10:42:09Z</time>
      </trkpt>
      <trkpt lat="44.0347" lon="5.96627">
        <ele>421.19</ele>
        <time>2019-06-24T10:42:20Z</time>
      </trkpt>
      <trkpt lat="44.03342" lon="5.96812">
        <ele>420.71</ele>
        <time>2019-06-24T10:42:32Z</time>
      </trkpt>
      <trkpt lat="44.03226" lon="5.96981">
        <ele>420.23</ele>
        <time>2019-06-24T10:42:43Z</time>
      </trkpt>
      <trkpt lat="44.03137" lon="5.97112">
        <ele>419.75</ele>
        <time>2019-06-24T10:42:53Z</time>
      </trkpt>
      <trkpt lat="44.03102" lon="5.97171">
        <ele>418.31</ele>
        <time>2019-06-24T10:42:59Z</time>
      </trkpt>
      <trkpt lat="44.03101" lon="5.97178">
        <ele>417.83</ele>
        <time>2019-06-24T10:43:00Z</time>
      </trkpt>
      <trkpt lat="44.03102" lon="5.97185">
        <ele>418.31</ele>
        <time>2019-06-24T10:43:01Z</time>
      </trkpt>
      <trkpt lat="44.03106" lon="5.9719">
        <ele>418.31</ele>
        <time>2019-06-24T10:43:02Z</time>
      </trkpt>
      <trkpt lat="44.03111" lon="5.97193">
        <ele>417.35</ele>
        <time>2019-06-24T10:43:03Z</time>
      </trkpt>
      <trkpt lat="44.03116" lon="5.97197">
        <ele>417.83</ele>
        <time>2019-06-24T10:43:04Z</time>
      </trkpt>
      <trkpt lat="44.03121" lon="5.97202">
        <ele>417.35</ele>
        <time>2019-06-24T10:43:05Z</time>
      </trkpt>
      <trkpt lat="44.03133" lon="5.97211">
        <ele>416.39</ele>
        <time>2019-06-24T10:43:07Z</time>
      </trkpt>
      <trkpt lat="44.03158" lon="5.97231">
        <ele>415.91</ele>
        <time>2019-06-24T10:43:12Z</time>
      </trkpt>
      <trkpt lat="44.03161" lon="5.97229">
        <ele>415.91</ele>
        <time>2019-06-24T10:43:13Z</time>
      </trkpt>
      <trkpt lat="44.03163" lon="5.97208">
        <ele>414.95</ele>
        <time>2019-06-24T10:43:18Z</time>
      </trkpt>
      <trkpt lat="44.0316" lon="5.97199">
        <ele>414.95</ele>
        <time>2019-06-24T10:43:20Z</time>
      </trkpt>
      <trkpt lat="44.03144" lon="5.97172">
        <ele>415.43</ele>
        <time>2019-06-24T10:43:25Z</time>
      </trkpt>
      <trkpt lat="44.03132" lon="5.97178">
        <ele>414.95</ele>
        <time>2019-06-24T10:43:32Z</time>
      </trkpt>
      <trkpt lat="44.03134" lon="5.97187">
        <ele>415.91</ele>
        <time>2019-06-24T10:43:42Z</time>
      </trkpt>
      <trkpt lat="44.03133" lon="5.97184">
        <ele>414.95</ele>
        <time>2019-06-24T10:44:04Z</time>
      </trkpt>
      <trkpt lat="44.03127" lon="5.97187">
        <ele>414.47</ele>
        <time>2019-06-24T10:44:40Z</time>
      </trkpt>
      <trkpt lat="44.03122" lon="5.97189">
        <ele>414.47</ele>
        <time>2019-06-24T10:45:22Z</time>
      </trkpt>
      <trkpt lat="44.03122" lon="5.97186">
        <ele>413.98</ele>
        <time>2019-06-24T10:45:53Z</time>
      </trkpt>
      <trkpt lat="44.03124" lon="5.97185">
        <ele>413.5</ele>
        <time>2019-06-24T10:46:20Z</time>
      </trkpt>
      <trkpt lat="44.03124" lon="5.97184">
        <ele>412.54</ele>
        <time>2019-06-24T10:46:51Z</time>
      </trkpt>
      <trkpt lat="44.03125" lon="5.97184">
        <ele>412.06</ele>
        <time>2019-06-24T10:47:28Z</time>
      </trkpt>
      <trkpt lat="44.03121" lon="5.97187">
        <ele>411.58</ele>
        <time>2019-06-24T10:48:05Z</time>
      </trkpt>
      <trkpt lat="44.03119" lon="5.97187">
        <ele>411.58</ele>
        <time>2019-06-24T10:48:41Z</time>
      </trkpt>
      <trkpt lat="44.03125" lon="5.97185">
        <ele>410.62</ele>
        <time>2019-06-24T10:49:23Z</time>
      </trkpt>
      <trkpt lat="44.03124" lon="5.97185">
        <ele>410.14</ele>
        <time>2019-06-24T10:49:57Z</time>
      </trkpt>
      <trkpt lat="44.03124" lon="5.97187">
        <ele>410.14</ele>
        <time>2019-06-24T10:50:33Z</time>
      </trkpt>
      <trkpt lat="44.03124" lon="5.97188">
        <ele>409.66</ele>
        <time>2019-06-24T10:51:01Z</time>
      </trkpt>
      <trkpt lat="44.03127" lon="5.97185">
        <ele>409.18</ele>
        <time>2019-06-24T10:51:24Z</time>
      </trkpt>
      <trkpt lat="44.03129" lon="5.97186">
        <ele>408.7</ele>
        <time>2019-06-24T10:51:48Z</time>
      </trkpt>
      <trkpt lat="44.03133" lon="5.9719">
        <ele>408.7</ele>
        <time>2019-06-24T10:51:50Z</time>
      </trkpt>
      <trkpt lat="44.0315" lon="5.97213">
        <ele>408.7</ele>
        <time>2019-06-24T10:51:55Z</time>
      </trkpt>
      <trkpt lat="44.03145" lon="5.97219">
        <ele>408.22</ele>
        <time>2019-06-24T10:51:58Z</time>
      </trkpt>
      <trkpt lat="44.0314" lon="5.97216">
        <ele>408.22</ele>
        <time>2019-06-24T10:51:59Z</time>
      </trkpt>
      <trkpt lat="44.03135" lon="5.97212">
        <ele>408.7</ele>
        <time>2019-06-24T10:52:00Z</time>
      </trkpt>
      <trkpt lat="44.0313" lon="5.97205">
        <ele>409.18</ele>
        <time>2019-06-24T10:52:01Z</time>
      </trkpt>
      <trkpt lat="44.03125" lon="5.97198">
        <ele>409.66</ele>
        <time>2019-06-24T10:52:02Z</time>
      </trkpt>
      <trkpt lat="44.0312" lon="5.97189">
        <ele>410.14</ele>
        <time>2019-06-24T10:52:03Z</time>
      </trkpt>
      <trkpt lat="44.03113" lon="5.97173">
        <ele>411.1</ele>
        <time>2019-06-24T10:52:05Z</time>
      </trkpt>
      <trkpt lat="44.0311" lon="5.9717">
        <ele>410.62</ele>
        <time>2019-06-24T10:52:06Z</time>
      </trkpt>
      <trkpt lat="44.03108" lon="5.97168">
        <ele>410.62</ele>
        <time>2019-06-24T10:52:07Z</time>
      </trkpt>
      <trkpt lat="44.03105" lon="5.97166">
        <ele>410.62</ele>
        <time>2019-06-24T10:52:15Z</time>
      </trkpt>
      <trkpt lat="44.03101" lon="5.97168">
        <ele>410.62</ele>
        <time>2019-06-24T10:52:16Z</time>
      </trkpt>
      <trkpt lat="44.03097" lon="5.97172">
        <ele>411.1</ele>
        <time>2019-06-24T10:52:17Z</time>
      </trkpt>
      <trkpt lat="44.03092" lon="5.97179">
        <ele>410.62</ele>
        <time>2019-06-24T10:52:18Z</time>
      </trkpt>
      <trkpt lat="44.03088" lon="5.97189">
        <ele>411.1</ele>
        <time>2019-06-24T10:52:19Z</time>
      </trkpt>
      <trkpt lat="44.03071" lon="5.97223">
        <ele>413.02</ele>
        <time>2019-06-24T10:52:22Z</time>
      </trkpt>
      <trkpt lat="44.03017" lon="5.97336">
        <ele>415.91</ele>
        <time>2019-06-24T10:52:33Z</time>
      </trkpt>
      <trkpt lat="44.02993" lon="5.97394">
        <ele>417.35</ele>
        <time>2019-06-24T10:52:39Z</time>
      </trkpt>
      <trkpt lat="44.02988" lon="5.97404">
        <ele>417.83</ele>
        <time>2019-06-24T10:52:41Z</time>
      </trkpt>
      <trkpt lat="44.02986" lon="5.97411">
        <ele>418.31</ele>
        <time>2019-06-24T10:52:42Z</time>
      </trkpt>
      <trkpt lat="44.02982" lon="5.97428">
        <ele>419.27</ele>
        <time>2019-06-24T10:52:44Z</time>
      </trkpt>
      <trkpt lat="44.02958" lon="5.97502">
        <ele>422.16</ele>
        <time>2019-06-24T10:52:51Z</time>
      </trkpt>
      <trkpt lat="44.02938" lon="5.97559">
        <ele>425.04</ele>
        <time>2019-06-24T10:52:57Z</time>
      </trkpt>
      <trkpt lat="44.02934" lon="5.97566">
        <ele>425.04</ele>
        <time>2019-06-24T10:52:58Z</time>
      </trkpt>
      <trkpt lat="44.02927" lon="5.9758">
        <ele>426</ele>
        <time>2019-06-24T10:53:00Z</time>
      </trkpt>
      <trkpt lat="44.02925" lon="5.97588">
        <ele>426.96</ele>
        <time>2019-06-24T10:53:01Z</time>
      </trkpt>
      <trkpt lat="44.02922" lon="5.97597">
        <ele>426.96</ele>
        <time>2019-06-24T10:53:02Z</time>
      </trkpt>
      <trkpt lat="44.02919" lon="5.97607">
        <ele>426.96</ele>
        <time>2019-06-24T10:53:03Z</time>
      </trkpt>
      <trkpt lat="44.02907" lon="5.97639">
        <ele>428.89</ele>
        <time>2019-06-24T10:53:06Z</time>
      </trkpt>
      <trkpt lat="44.02896" lon="5.97668">
        <ele>430.33</ele>
        <time>2019-06-24T10:53:09Z</time>
      </trkpt>
      <trkpt lat="44.02894" lon="5.97677">
        <ele>431.29</ele>
        <time>2019-06-24T10:53:10Z</time>
      </trkpt>
      <trkpt lat="44.02889" lon="5.97695">
        <ele>432.73</ele>
        <time>2019-06-24T10:53:12Z</time>
      </trkpt>
      <trkpt lat="44.02885" lon="5.97705">
        <ele>433.21</ele>
        <time>2019-06-24T10:53:13Z</time>
      </trkpt>
      <trkpt lat="44.0288" lon="5.97714">
        <ele>433.21</ele>
        <time>2019-06-24T10:53:14Z</time>
      </trkpt>
      <trkpt lat="44.02866" lon="5.97744">
        <ele>436.1</ele>
        <time>2019-06-24T10:53:17Z</time>
      </trkpt>
      <trkpt lat="44.02852" lon="5.97791">
        <ele>438.5</ele>
        <time>2019-06-24T10:53:21Z</time>
      </trkpt>
      <trkpt lat="44.02838" lon="5.97857">
        <ele>440.9</ele>
        <time>2019-06-24T10:53:26Z</time>
      </trkpt>
      <trkpt lat="44.02837" lon="5.97871">
        <ele>441.38</ele>
        <time>2019-06-24T10:53:27Z</time>
      </trkpt>
      <trkpt lat="44.02839" lon="5.97912">
        <ele>442.82</ele>
        <time>2019-06-24T10:53:30Z</time>
      </trkpt>
      <trkpt lat="44.0284" lon="5.97961">
        <ele>446.19</ele>
        <time>2019-06-24T10:53:34Z</time>
      </trkpt>
      <trkpt lat="44.02841" lon="5.97988">
        <ele>446.67</ele>
        <time>2019-06-24T10:53:36Z</time>
      </trkpt>
      <trkpt lat="44.02844" lon="5.98026">
        <ele>449.07</ele>
        <time>2019-06-24T10:53:39Z</time>
      </trkpt>
      <trkpt lat="44.02843" lon="5.98038">
        <ele>449.55</ele>
        <time>2019-06-24T10:53:40Z</time>
      </trkpt>
      <trkpt lat="44.02841" lon="5.98048">
        <ele>450.52</ele>
        <time>2019-06-24T10:53:41Z</time>
      </trkpt>
      <trkpt lat="44.02838" lon="5.98058">
        <ele>451</ele>
        <time>2019-06-24T10:53:42Z</time>
      </trkpt>
      <trkpt lat="44.02835" lon="5.98069">
        <ele>451.48</ele>
        <time>2019-06-24T10:53:43Z</time>
      </trkpt>
      <trkpt lat="44.02833" lon="5.98081">
        <ele>452.92</ele>
        <time>2019-06-24T10:53:44Z</time>
      </trkpt>
      <trkpt lat="44.02833" lon="5.98094">
        <ele>454.36</ele>
        <time>2019-06-24T10:53:45Z</time>
      </trkpt>
      <trkpt lat="44.02833" lon="5.98107">
        <ele>455.32</ele>
        <time>2019-06-24T10:53:46Z</time>
      </trkpt>
      <trkpt lat="44.02834" lon="5.9815">
        <ele>459.17</ele>
        <time>2019-06-24T10:53:49Z</time>
      </trkpt>
      <trkpt lat="44.02837" lon="5.98164">
        <ele>460.61</ele>
        <time>2019-06-24T10:53:50Z</time>
      </trkpt>
      <trkpt lat="44.02841" lon="5.98179">
        <ele>462.05</ele>
        <time>2019-06-24T10:53:51Z</time>
      </trkpt>
      <trkpt lat="44.0285" lon="5.98208">
        <ele>464.45</ele>
        <time>2019-06-24T10:53:53Z</time>
      </trkpt>
      <trkpt lat="44.02858" lon="5.98257">
        <ele>468.3</ele>
        <time>2019-06-24T10:53:56Z</time>
      </trkpt>
      <trkpt lat="44.02864" lon="5.9831">
        <ele>472.14</ele>
        <time>2019-06-24T10:53:59Z</time>
      </trkpt>
      <trkpt lat="44.02871" lon="5.98353">
        <ele>473.59</ele>
        <time>2019-06-24T10:54:02Z</time>
      </trkpt>
      <trkpt lat="44.02878" lon="5.98439">
        <ele>476.47</ele>
        <time>2019-06-24T10:54:08Z</time>
      </trkpt>
      <trkpt lat="44.02879" lon="5.98455">
        <ele>478.39</ele>
        <time>2019-06-24T10:54:09Z</time>
      </trkpt>
      <trkpt lat="44.02883" lon="5.98472">
        <ele>479.35</ele>
        <time>2019-06-24T10:54:10Z</time>
      </trkpt>
      <trkpt lat="44.02886" lon="5.98489">
        <ele>479.35</ele>
        <time>2019-06-24T10:54:11Z</time>
      </trkpt>
      <trkpt lat="44.02888" lon="5.98503">
        <ele>479.35</ele>
        <time>2019-06-24T10:54:12Z</time>
      </trkpt>
      <trkpt lat="44.02888" lon="5.98516">
        <ele>479.84</ele>
        <time>2019-06-24T10:54:13Z</time>
      </trkpt>
      <trkpt lat="44.02887" lon="5.98529">
        <ele>481.28</ele>
        <time>2019-06-24T10:54:14Z</time>
      </trkpt>
      <trkpt lat="44.02885" lon="5.98544">
        <ele>482.24</ele>
        <time>2019-06-24T10:54:15Z</time>
      </trkpt>
      <trkpt lat="44.02882" lon="5.9856">
        <ele>482.72</ele>
        <time>2019-06-24T10:54:16Z</time>
      </trkpt>
      <trkpt lat="44.02876" lon="5.98592">
        <ele>484.64</ele>
        <time>2019-06-24T10:54:18Z</time>
      </trkpt>
      <trkpt lat="44.02869" lon="5.98625">
        <ele>486.56</ele>
        <time>2019-06-24T10:54:20Z</time>
      </trkpt>
      <trkpt lat="44.02867" lon="5.98642">
        <ele>488.01</ele>
        <time>2019-06-24T10:54:21Z</time>
      </trkpt>
      <trkpt lat="44.02864" lon="5.98712">
        <ele>491.85</ele>
        <time>2019-06-24T10:54:25Z</time>
      </trkpt>
      <trkpt lat="44.02852" lon="5.98802">
        <ele>496.18</ele>
        <time>2019-06-24T10:54:30Z</time>
      </trkpt>
      <trkpt lat="44.02849" lon="5.98857">
        <ele>498.1</ele>
        <time>2019-06-24T10:54:33Z</time>
      </trkpt>
      <trkpt lat="44.0285" lon="5.98875">
        <ele>499.54</ele>
        <time>2019-06-24T10:54:34Z</time>
      </trkpt>
      <trkpt lat="44.02855" lon="5.9891">
        <ele>501.46</ele>
        <time>2019-06-24T10:54:36Z</time>
      </trkpt>
      <trkpt lat="44.02855" lon="5.98927">
        <ele>502.91</ele>
        <time>2019-06-24T10:54:37Z</time>
      </trkpt>
      <trkpt lat="44.02853" lon="5.98942">
        <ele>503.39</ele>
        <time>2019-06-24T10:54:38Z</time>
      </trkpt>
      <trkpt lat="44.02851" lon="5.98958">
        <ele>504.83</ele>
        <time>2019-06-24T10:54:39Z</time>
      </trkpt>
      <trkpt lat="44.0285" lon="5.98975">
        <ele>505.31</ele>
        <time>2019-06-24T10:54:40Z</time>
      </trkpt>
      <trkpt lat="44.02851" lon="5.98992">
        <ele>505.79</ele>
        <time>2019-06-24T10:54:41Z</time>
      </trkpt>
      <trkpt lat="44.02854" lon="5.9901">
        <ele>507.71</ele>
        <time>2019-06-24T10:54:42Z</time>
      </trkpt>
      <trkpt lat="44.02864" lon="5.99065">
        <ele>511.56</ele>
        <time>2019-06-24T10:54:45Z</time>
      </trkpt>
      <trkpt lat="44.02871" lon="5.99102">
        <ele>514.44</ele>
        <time>2019-06-24T10:54:47Z</time>
      </trkpt>
      <trkpt lat="44.02878" lon="5.99159">
        <ele>517.81</ele>
        <time>2019-06-24T10:54:50Z</time>
      </trkpt>
      <trkpt lat="44.0288" lon="5.99197">
        <ele>520.21</ele>
        <time>2019-06-24T10:54:52Z</time>
      </trkpt>
      <trkpt lat="44.02878" lon="5.9925">
        <ele>524.54</ele>
        <time>2019-06-24T10:54:55Z</time>
      </trkpt>
      <trkpt lat="44.02876" lon="5.99265">
        <ele>525.5</ele>
        <time>2019-06-24T10:54:56Z</time>
      </trkpt>
      <trkpt lat="44.02874" lon="5.99278">
        <ele>525.98</ele>
        <time>2019-06-24T10:54:57Z</time>
      </trkpt>
      <trkpt lat="44.0287" lon="5.99289">
        <ele>527.42</ele>
        <time>2019-06-24T10:54:58Z</time>
      </trkpt>
      <trkpt lat="44.02864" lon="5.99297">
        <ele>527.9</ele>
        <time>2019-06-24T10:54:59Z</time>
      </trkpt>
      <trkpt lat="44.02857" lon="5.99303">
        <ele>528.38</ele>
        <time>2019-06-24T10:55:00Z</time>
      </trkpt>
      <trkpt lat="44.02848" lon="5.99309">
        <ele>529.34</ele>
        <time>2019-06-24T10:55:01Z</time>
      </trkpt>
      <trkpt lat="44.02838" lon="5.99313">
        <ele>529.82</ele>
        <time>2019-06-24T10:55:02Z</time>
      </trkpt>
      <trkpt lat="44.02827" lon="5.99317">
        <ele>531.27</ele>
        <time>2019-06-24T10:55:03Z</time>
      </trkpt>
      <trkpt lat="44.02816" lon="5.99319">
        <ele>533.67</ele>
        <time>2019-06-24T10:55:04Z</time>
      </trkpt>
      <trkpt lat="44.02805" lon="5.99321">
        <ele>534.63</ele>
        <time>2019-06-24T10:55:05Z</time>
      </trkpt>
      <trkpt lat="44.02783" lon="5.99323">
        <ele>538.48</ele>
        <time>2019-06-24T10:55:07Z</time>
      </trkpt>
      <trkpt lat="44.02751" lon="5.99327">
        <ele>542.32</ele>
        <time>2019-06-24T10:55:10Z</time>
      </trkpt>
      <trkpt lat="44.02717" lon="5.99335">
        <ele>547.61</ele>
        <time>2019-06-24T10:55:13Z</time>
      </trkpt>
      <trkpt lat="44.02679" lon="5.99345">
        <ele>551.45</ele>
        <time>2019-06-24T10:55:16Z</time>
      </trkpt>
      <trkpt lat="44.02654" lon="5.99354">
        <ele>554.82</ele>
        <time>2019-06-24T10:55:18Z</time>
      </trkpt>
      <trkpt lat="44.02629" lon="5.99367">
        <ele>558.18</ele>
        <time>2019-06-24T10:55:20Z</time>
      </trkpt>
      <trkpt lat="44.02618" lon="5.99375">
        <ele>560.11</ele>
        <time>2019-06-24T10:55:21Z</time>
      </trkpt>
      <trkpt lat="44.02607" lon="5.99386">
        <ele>561.07</ele>
        <time>2019-06-24T10:55:22Z</time>
      </trkpt>
      <trkpt lat="44.02596" lon="5.99397">
        <ele>562.99</ele>
        <time>2019-06-24T10:55:23Z</time>
      </trkpt>
      <trkpt lat="44.02576" lon="5.99424">
        <ele>566.83</ele>
        <time>2019-06-24T10:55:25Z</time>
      </trkpt>
      <trkpt lat="44.0256" lon="5.99455">
        <ele>570.2</ele>
        <time>2019-06-24T10:55:27Z</time>
      </trkpt>
      <trkpt lat="44.02543" lon="5.99484">
        <ele>573.56</ele>
        <time>2019-06-24T10:55:29Z</time>
      </trkpt>
      <trkpt lat="44.02533" lon="5.99498">
        <ele>575.01</ele>
        <time>2019-06-24T10:55:30Z</time>
      </trkpt>
      <trkpt lat="44.0251" lon="5.99522">
        <ele>578.85</ele>
        <time>2019-06-24T10:55:32Z</time>
      </trkpt>
      <trkpt lat="44.02499" lon="5.99532">
        <ele>581.25</ele>
        <time>2019-06-24T10:55:33Z</time>
      </trkpt>
      <trkpt lat="44.02487" lon="5.9954">
        <ele>583.18</ele>
        <time>2019-06-24T10:55:34Z</time>
      </trkpt>
      <trkpt lat="44.02476" lon="5.99547">
        <ele>584.14</ele>
        <time>2019-06-24T10:55:35Z</time>
      </trkpt>
      <trkpt lat="44.02453" lon="5.99558">
        <ele>587.98</ele>
        <time>2019-06-24T10:55:37Z</time>
      </trkpt>
      <trkpt lat="44.02428" lon="5.99565">
        <ele>591.35</ele>
        <time>2019-06-24T10:55:39Z</time>
      </trkpt>
      <trkpt lat="44.02403" lon="5.99568">
        <ele>595.67</ele>
        <time>2019-06-24T10:55:41Z</time>
      </trkpt>
      <trkpt lat="44.02363" lon="5.99581">
        <ele>600</ele>
        <time>2019-06-24T10:55:44Z</time>
      </trkpt>
      <trkpt lat="44.0232" lon="5.99597">
        <ele>604.81</ele>
        <time>2019-06-24T10:55:47Z</time>
      </trkpt>
      <trkpt lat="44.02277" lon="5.99614">
        <ele>609.13</ele>
        <time>2019-06-24T10:55:50Z</time>
      </trkpt>
      <trkpt lat="44.02236" lon="5.99622">
        <ele>613.94</ele>
        <time>2019-06-24T10:55:53Z</time>
      </trkpt>
      <trkpt lat="44.02222" lon="5.99621">
        <ele>615.38</ele>
        <time>2019-06-24T10:55:54Z</time>
      </trkpt>
      <trkpt lat="44.02179" lon="5.99615">
        <ele>619.71</ele>
        <time>2019-06-24T10:55:57Z</time>
      </trkpt>
      <trkpt lat="44.02136" lon="5.99609">
        <ele>623.07</ele>
        <time>2019-06-24T10:56:00Z</time>
      </trkpt>
      <trkpt lat="44.02093" lon="5.99599">
        <ele>626.92</ele>
        <time>2019-06-24T10:56:03Z</time>
      </trkpt>
      <trkpt lat="44.02061" lon="5.99597">
        <ele>630.76</ele>
        <time>2019-06-24T10:56:05Z</time>
      </trkpt>
      <trkpt lat="44.02032" lon="5.99602">
        <ele>635.57</ele>
        <time>2019-06-24T10:56:07Z</time>
      </trkpt>
      <trkpt lat="44.02005" lon="5.99613">
        <ele>640.38</ele>
        <time>2019-06-24T10:56:09Z</time>
      </trkpt>
      <trkpt lat="44.01981" lon="5.99621">
        <ele>644.22</ele>
        <time>2019-06-24T10:56:11Z</time>
      </trkpt>
      <trkpt lat="44.01969" lon="5.99623">
        <ele>645.18</ele>
        <time>2019-06-24T10:56:12Z</time>
      </trkpt>
      <trkpt lat="44.01959" lon="5.99623">
        <ele>645.66</ele>
        <time>2019-06-24T10:56:13Z</time>
      </trkpt>
      <trkpt lat="44.01949" lon="5.99621">
        <ele>647.1</ele>
        <time>2019-06-24T10:56:14Z</time>
      </trkpt>
      <trkpt lat="44.01939" lon="5.99616">
        <ele>647.59</ele>
        <time>2019-06-24T10:56:15Z</time>
      </trkpt>
      <trkpt lat="44.01931" lon="5.99611">
        <ele>648.07</ele>
        <time>2019-06-24T10:56:16Z</time>
      </trkpt>
      <trkpt lat="44.01927" lon="5.99605">
        <ele>648.55</ele>
        <time>2019-06-24T10:56:17Z</time>
      </trkpt>
      <trkpt lat="44.01926" lon="5.996">
        <ele>649.51</ele>
        <time>2019-06-24T10:56:18Z</time>
      </trkpt>
      <trkpt lat="44.01926" lon="5.99597">
        <ele>649.51</ele>
        <time>2019-06-24T10:56:19Z</time>
      </trkpt>
      <trkpt lat="44.01932" lon="5.99595">
        <ele>650.47</ele>
        <time>2019-06-24T10:56:20Z</time>
      </trkpt>
      <trkpt lat="44.01938" lon="5.99597">
        <ele>650.47</ele>
        <time>2019-06-24T10:56:21Z</time>
      </trkpt>
      <trkpt lat="44.01945" lon="5.99601">
        <ele>651.43</ele>
        <time>2019-06-24T10:56:22Z</time>
      </trkpt>
      <trkpt lat="44.01952" lon="5.99605">
        <ele>652.39</ele>
        <time>2019-06-24T10:56:23Z</time>
      </trkpt>
      <trkpt lat="44.0196" lon="5.99606">
        <ele>653.35</ele>
        <time>2019-06-24T10:56:24Z</time>
      </trkpt>
      <trkpt lat="44.01968" lon="5.99604">
        <ele>654.31</ele>
        <time>2019-06-24T10:56:25Z</time>
      </trkpt>
      <trkpt lat="44.01977" lon="5.99599">
        <ele>654.8</ele>
        <time>2019-06-24T10:56:26Z</time>
      </trkpt>
      <trkpt lat="44.01986" lon="5.99592">
        <ele>656.24</ele>
        <time>2019-06-24T10:56:27Z</time>
      </trkpt>
      <trkpt lat="44.02001" lon="5.99579">
        <ele>658.16</ele>
        <time>2019-06-24T10:56:29Z</time>
      </trkpt>
      <trkpt lat="44.02007" lon="5.99571">
        <ele>659.12</ele>
        <time>2019-06-24T10:56:31Z</time>
      </trkpt>
      <trkpt lat="44.02006" lon="5.99567">
        <ele>659.6</ele>
        <time>2019-06-24T10:56:32Z</time>
      </trkpt>
      <trkpt lat="44.02003" lon="5.99565">
        <ele>660.08</ele>
        <time>2019-06-24T10:56:33Z</time>
      </trkpt>
      <trkpt lat="44.01998" lon="5.99567">
        <ele>660.08</ele>
        <time>2019-06-24T10:56:34Z</time>
      </trkpt>
      <trkpt lat="44.01993" lon="5.99571">
        <ele>660.56</ele>
        <time>2019-06-24T10:56:35Z</time>
      </trkpt>
      <trkpt lat="44.01986" lon="5.99577">
        <ele>661.52</ele>
        <time>2019-06-24T10:56:36Z</time>
      </trkpt>
      <trkpt lat="44.01978" lon="5.9958">
        <ele>662.01</ele>
        <time>2019-06-24T10:56:37Z</time>
      </trkpt>
      <trkpt lat="44.0197" lon="5.99582">
        <ele>663.45</ele>
        <time>2019-06-24T10:56:38Z</time>
      </trkpt>
      <trkpt lat="44.01962" lon="5.9958">
        <ele>663.93</ele>
        <time>2019-06-24T10:56:39Z</time>
      </trkpt>
      <trkpt lat="44.01955" lon="5.99575">
        <ele>664.89</ele>
        <time>2019-06-24T10:56:40Z</time>
      </trkpt>
      <trkpt lat="44.01946" lon="5.99568">
        <ele>665.85</ele>
        <time>2019-06-24T10:56:41Z</time>
      </trkpt>
      <trkpt lat="44.01938" lon="5.99559">
        <ele>667.29</ele>
        <time>2019-06-24T10:56:42Z</time>
      </trkpt>
      <trkpt lat="44.01931" lon="5.99548">
        <ele>667.77</ele>
        <time>2019-06-24T10:56:43Z</time>
      </trkpt>
      <trkpt lat="44.01926" lon="5.99537">
        <ele>669.7</ele>
        <time>2019-06-24T10:56:44Z</time>
      </trkpt>
      <trkpt lat="44.01921" lon="5.99528">
        <ele>669.7</ele>
        <time>2019-06-24T10:56:45Z</time>
      </trkpt>
      <trkpt lat="44.01915" lon="5.99523">
        <ele>670.18</ele>
        <time>2019-06-24T10:56:46Z</time>
      </trkpt>
      <trkpt lat="44.01908" lon="5.99521">
        <ele>670.66</ele>
        <time>2019-06-24T10:56:47Z</time>
      </trkpt>
      <trkpt lat="44.019" lon="5.99522">
        <ele>672.58</ele>
        <time>2019-06-24T10:56:48Z</time>
      </trkpt>
      <trkpt lat="44.01892" lon="5.99523">
        <ele>673.54</ele>
        <time>2019-06-24T10:56:49Z</time>
      </trkpt>
      <trkpt lat="44.01885" lon="5.99525">
        <ele>674.5</ele>
        <time>2019-06-24T10:56:50Z</time>
      </trkpt>
      <trkpt lat="44.0188" lon="5.9953">
        <ele>674.5</ele>
        <time>2019-06-24T10:56:51Z</time>
      </trkpt>
      <trkpt lat="44.01878" lon="5.99539">
        <ele>674.98</ele>
        <time>2019-06-24T10:56:52Z</time>
      </trkpt>
      <trkpt lat="44.01879" lon="5.9955">
        <ele>676.42</ele>
        <time>2019-06-24T10:56:53Z</time>
      </trkpt>
      <trkpt lat="44.01878" lon="5.9956">
        <ele>677.87</ele>
        <time>2019-06-24T10:56:54Z</time>
      </trkpt>
      <trkpt lat="44.01876" lon="5.99568">
        <ele>678.35</ele>
        <time>2019-06-24T10:56:55Z</time>
      </trkpt>
      <trkpt lat="44.0187" lon="5.99575">
        <ele>678.83</ele>
        <time>2019-06-24T10:56:56Z</time>
      </trkpt>
      <trkpt lat="44.01863" lon="5.99579">
        <ele>680.27</ele>
        <time>2019-06-24T10:56:57Z</time>
      </trkpt>
      <trkpt lat="44.01855" lon="5.99584">
        <ele>681.23</ele>
        <time>2019-06-24T10:56:58Z</time>
      </trkpt>
      <trkpt lat="44.01826" lon="5.99599">
        <ele>684.6</ele>
        <time>2019-06-24T10:57:01Z</time>
      </trkpt>
      <trkpt lat="44.01806" lon="5.99611">
        <ele>687.96</ele>
        <time>2019-06-24T10:57:03Z</time>
      </trkpt>
      <trkpt lat="44.01785" lon="5.99624">
        <ele>690.84</ele>
        <time>2019-06-24T10:57:05Z</time>
      </trkpt>
      <trkpt lat="44.01765" lon="5.99636">
        <ele>693.73</ele>
        <time>2019-06-24T10:57:07Z</time>
      </trkpt>
      <trkpt lat="44.01754" lon="5.99638">
        <ele>694.69</ele>
        <time>2019-06-24T10:57:08Z</time>
      </trkpt>
      <trkpt lat="44.01742" lon="5.99637">
        <ele>695.65</ele>
        <time>2019-06-24T10:57:09Z</time>
      </trkpt>
      <trkpt lat="44.01731" lon="5.99634">
        <ele>696.61</ele>
        <time>2019-06-24T10:57:10Z</time>
      </trkpt>
      <trkpt lat="44.01719" lon="5.99631">
        <ele>698.53</ele>
        <time>2019-06-24T10:57:11Z</time>
      </trkpt>
      <trkpt lat="44.01695" lon="5.99626">
        <ele>701.42</ele>
        <time>2019-06-24T10:57:13Z</time>
      </trkpt>
      <trkpt lat="44.01671" lon="5.99625">
        <ele>704.3</ele>
        <time>2019-06-24T10:57:15Z</time>
      </trkpt>
      <trkpt lat="44.0166" lon="5.99623">
        <ele>705.75</ele>
        <time>2019-06-24T10:57:16Z</time>
      </trkpt>
      <trkpt lat="44.01651" lon="5.9962">
        <ele>707.19</ele>
        <time>2019-06-24T10:57:17Z</time>
      </trkpt>
      <trkpt lat="44.01644" lon="5.99616">
        <ele>707.67</ele>
        <time>2019-06-24T10:57:18Z</time>
      </trkpt>
      <trkpt lat="44.01632" lon="5.99606">
        <ele>709.11</ele>
        <time>2019-06-24T10:57:20Z</time>
      </trkpt>
      <trkpt lat="44.01624" lon="5.99607">
        <ele>710.07</ele>
        <time>2019-06-24T10:57:21Z</time>
      </trkpt>
      <trkpt lat="44.01615" lon="5.9961">
        <ele>711.03</ele>
        <time>2019-06-24T10:57:22Z</time>
      </trkpt>
      <trkpt lat="44.01606" lon="5.99615">
        <ele>711.99</ele>
        <time>2019-06-24T10:57:23Z</time>
      </trkpt>
      <trkpt lat="44.01596" lon="5.99618">
        <ele>712.95</ele>
        <time>2019-06-24T10:57:24Z</time>
      </trkpt>
      <trkpt lat="44.01585" lon="5.9962">
        <ele>713.92</ele>
        <time>2019-06-24T10:57:25Z</time>
      </trkpt>
      <trkpt lat="44.01573" lon="5.99621">
        <ele>715.36</ele>
        <time>2019-06-24T10:57:26Z</time>
      </trkpt>
      <trkpt lat="44.01561" lon="5.99621">
        <ele>716.32</ele>
        <time>2019-06-24T10:57:27Z</time>
      </trkpt>
      <trkpt lat="44.01537" lon="5.99621">
        <ele>718.72</ele>
        <time>2019-06-24T10:57:29Z</time>
      </trkpt>
      <trkpt lat="44.01526" lon="5.99624">
        <ele>720.16</ele>
        <time>2019-06-24T10:57:30Z</time>
      </trkpt>
      <trkpt lat="44.01515" lon="5.99631">
        <ele>721.61</ele>
        <time>2019-06-24T10:57:31Z</time>
      </trkpt>
      <trkpt lat="44.01505" lon="5.9964">
        <ele>722.57</ele>
        <time>2019-06-24T10:57:32Z</time>
      </trkpt>
      <trkpt lat="44.01496" lon="5.99651">
        <ele>724.01</ele>
        <time>2019-06-24T10:57:33Z</time>
      </trkpt>
      <trkpt lat="44.01486" lon="5.99662">
        <ele>724.97</ele>
        <time>2019-06-24T10:57:34Z</time>
      </trkpt>
      <trkpt lat="44.01476" lon="5.9967">
        <ele>726.89</ele>
        <time>2019-06-24T10:57:35Z</time>
      </trkpt>
      <trkpt lat="44.0145" lon="5.99694">
        <ele>729.78</ele>
        <time>2019-06-24T10:57:38Z</time>
      </trkpt>
      <trkpt lat="44.01446" lon="5.99703">
        <ele>729.78</ele>
        <time>2019-06-24T10:57:39Z</time>
      </trkpt>
      <trkpt lat="44.01443" lon="5.99713">
        <ele>730.74</ele>
        <time>2019-06-24T10:57:40Z</time>
      </trkpt>
      <trkpt lat="44.01445" lon="5.99727">
        <ele>731.22</ele>
        <time>2019-06-24T10:57:41Z</time>
      </trkpt>
      <trkpt lat="44.01448" lon="5.99742">
        <ele>732.18</ele>
        <time>2019-06-24T10:57:42Z</time>
      </trkpt>
      <trkpt lat="44.01453" lon="5.9977">
        <ele>734.1</ele>
        <time>2019-06-24T10:57:44Z</time>
      </trkpt>
      <trkpt lat="44.01453" lon="5.99783">
        <ele>735.07</ele>
        <time>2019-06-24T10:57:45Z</time>
      </trkpt>
      <trkpt lat="44.01452" lon="5.99796">
        <ele>735.07</ele>
        <time>2019-06-24T10:57:46Z</time>
      </trkpt>
      <trkpt lat="44.01447" lon="5.99808">
        <ele>736.51</ele>
        <time>2019-06-24T10:57:47Z</time>
      </trkpt>
      <trkpt lat="44.0144" lon="5.99819">
        <ele>736.99</ele>
        <time>2019-06-24T10:57:48Z</time>
      </trkpt>
      <trkpt lat="44.01431" lon="5.99829">
        <ele>737.47</ele>
        <time>2019-06-24T10:57:49Z</time>
      </trkpt>
      <trkpt lat="44.01422" lon="5.9984">
        <ele>738.91</ele>
        <time>2019-06-24T10:57:50Z</time>
      </trkpt>
      <trkpt lat="44.0139" lon="5.9987">
        <ele>741.79</ele>
        <time>2019-06-24T10:57:53Z</time>
      </trkpt>
      <trkpt lat="44.01349" lon="5.999">
        <ele>745.16</ele>
        <time>2019-06-24T10:57:57Z</time>
      </trkpt>
      <trkpt lat="44.01316" lon="5.99927">
        <ele>748.04</ele>
        <time>2019-06-24T10:58:01Z</time>
      </trkpt>
      <trkpt lat="44.01282" lon="5.99959">
        <ele>751.89</ele>
        <time>2019-06-24T10:58:05Z</time>
      </trkpt>
      <trkpt lat="44.01244" lon="5.99995">
        <ele>754.77</ele>
        <time>2019-06-24T10:58:09Z</time>
      </trkpt>
      <trkpt lat="44.01225" lon="6.0001">
        <ele>757.18</ele>
        <time>2019-06-24T10:58:11Z</time>
      </trkpt>
      <trkpt lat="44.01216" lon="6.00014">
        <ele>757.66</ele>
        <time>2019-06-24T10:58:12Z</time>
      </trkpt>
      <trkpt lat="44.01205" lon="6.00014">
        <ele>757.66</ele>
        <time>2019-06-24T10:58:13Z</time>
      </trkpt>
      <trkpt lat="44.01195" lon="6.00012">
        <ele>759.1</ele>
        <time>2019-06-24T10:58:14Z</time>
      </trkpt>
      <trkpt lat="44.01185" lon="6.00009">
        <ele>760.06</ele>
        <time>2019-06-24T10:58:15Z</time>
      </trkpt>
      <trkpt lat="44.01178" lon="6.00005">
        <ele>760.54</ele>
        <time>2019-06-24T10:58:16Z</time>
      </trkpt>
      <trkpt lat="44.01172" lon="6.00002">
        <ele>761.5</ele>
        <time>2019-06-24T10:58:17Z</time>
      </trkpt>
      <trkpt lat="44.01167" lon="5.99999">
        <ele>761.5</ele>
        <time>2019-06-24T10:58:18Z</time>
      </trkpt>
      <trkpt lat="44.01155" lon="5.99997">
        <ele>762.46</ele>
        <time>2019-06-24T10:58:22Z</time>
      </trkpt>
      <trkpt lat="44.01154" lon="6.00001">
        <ele>763.42</ele>
        <time>2019-06-24T10:58:23Z</time>
      </trkpt>
      <trkpt lat="44.01155" lon="6.00006">
        <ele>763.9</ele>
        <time>2019-06-24T10:58:24Z</time>
      </trkpt>
      <trkpt lat="44.01158" lon="6.00011">
        <ele>763.9</ele>
        <time>2019-06-24T10:58:25Z</time>
      </trkpt>
      <trkpt lat="44.01163" lon="6.00017">
        <ele>764.87</ele>
        <time>2019-06-24T10:58:26Z</time>
      </trkpt>
      <trkpt lat="44.01172" lon="6.00031">
        <ele>765.83</ele>
        <time>2019-06-24T10:58:28Z</time>
      </trkpt>
      <trkpt lat="44.01176" lon="6.0004">
        <ele>766.31</ele>
        <time>2019-06-24T10:58:29Z</time>
      </trkpt>
      <trkpt lat="44.01178" lon="6.00047">
        <ele>766.79</ele>
        <time>2019-06-24T10:58:30Z</time>
      </trkpt>
      <trkpt lat="44.01179" lon="6.00053">
        <ele>767.27</ele>
        <time>2019-06-24T10:58:31Z</time>
      </trkpt>
      <trkpt lat="44.01179" lon="6.00057">
        <ele>767.75</ele>
        <time>2019-06-24T10:58:32Z</time>
      </trkpt>
      <trkpt lat="44.01179" lon="6.00061">
        <ele>767.75</ele>
        <time>2019-06-24T10:58:33Z</time>
      </trkpt>
      <trkpt lat="44.01178" lon="6.00064">
        <ele>768.23</ele>
        <time>2019-06-24T10:58:34Z</time>
      </trkpt>
      <trkpt lat="44.01177" lon="6.00066">
        <ele>767.75</ele>
        <time>2019-06-24T10:58:45Z</time>
      </trkpt>
      <trkpt lat="44.01166" lon="6.00091">
        <ele>778.46484375</ele>
      </trkpt>
      <trkpt lat="44.01163" lon="6.00094">
        <ele>778.46875</ele>
      </trkpt>
      <trkpt lat="44.01152" lon="6.0011">
        <ele>778.56640625</ele>
      </trkpt>
      <trkpt lat="44.01139" lon="6.00132">
        <ele>778.96484375</ele>
      </trkpt>
      <trkpt lat="44.01128" lon="6.00147">
        <ele>779.57421875</ele>
      </trkpt>
      <trkpt lat="44.01124" lon="6.00154">
        <ele>779.87890625</ele>
      </trkpt>
      <trkpt lat="44.0112" lon="6.00157">
        <ele>780.05859375</ele>
      </trkpt>
      <trkpt lat="44.01117" lon="6.0016">
        <ele>780.234375</ele>
      </trkpt>
      <trkpt lat="44.01105" lon="6.00166">
        <ele>780.609375</ele>
      </trkpt>
      <trkpt lat="44.01081" lon="6.00175">
        <ele>780.9453125</ele>
      </trkpt>
      <trkpt lat="44.01073" lon="6.0018">
        <ele>781.0234375</ele>
      </trkpt>
      <trkpt lat="44.0106" lon="6.0019">
        <ele>781.3671875</ele>
      </trkpt>
      <trkpt lat="44.0105" lon="6.00204">
        <ele>781.734375</ele>
      </trkpt>
      <trkpt lat="44.0105" lon="6.00224">
        <ele>782.48828125</ele>
      </trkpt>
      <trkpt lat="44.01054" lon="6.00247">
        <ele>783.54296875</ele>
      </trkpt>
      <trkpt lat="44.01053" lon="6.00267">
        <ele>784.0078125</ele>
      </trkpt>
      <trkpt lat="44.01034" lon="6.0029">
        <ele>783.421875</ele>
      </trkpt>
      <trkpt lat="44.01014" lon="6.00303">
        <ele>782.57421875</ele>
      </trkpt>
      <trkpt lat="44.00998" lon="6.00323">
        <ele>782.07421875</ele>
      </trkpt>
      <trkpt lat="44.00992" lon="6.00358">
        <ele>782.40234375</ele>
      </trkpt>
      <trkpt lat="44.00999" lon="6.0038">
        <ele>783.15625</ele>
      </trkpt>
      <trkpt lat="44.01004" lon="6.00391">
        <ele>783.63671875</ele>
      </trkpt>
      <trkpt lat="44.01011" lon="6.00408">
        <ele>784.3515625</ele>
      </trkpt>
      <trkpt lat="44.01015" lon="6.00431">
        <ele>785.11328125</ele>
      </trkpt>
      <trkpt lat="44.01006" lon="6.00466">
        <ele>785.47265625</ele>
      </trkpt>
      <trkpt lat="44.00995" lon="6.00488">
        <ele>785.62109375</ele>
      </trkpt>
      <trkpt lat="44.00982" lon="6.00498">
        <ele>785.54296875</ele>
      </trkpt>
      <trkpt lat="44.00966" lon="6.00502">
        <ele>784.95703125</ele>
      </trkpt>
      <trkpt lat="44.00954" lon="6.00502">
        <ele>784.3515625</ele>
      </trkpt>
      <trkpt lat="44.00934" lon="6.00518">
        <ele>784.046875</ele>
      </trkpt>
      <trkpt lat="44.0092" lon="6.00542">
        <ele>784.359375</ele>
      </trkpt>
      <trkpt lat="44.00897" lon="6.00564">
        <ele>784.28125</ele>
      </trkpt>
      <trkpt lat="44.00883" lon="6.00568">
        <ele>783.93359375</ele>
      </trkpt>
      <trkpt lat="44.0086" lon="6.00567">
        <ele>783.33203125</ele>
      </trkpt>
      <trkpt lat="44.00838" lon="6.00564">
        <ele>782.8125</ele>
      </trkpt>
      <trkpt lat="44.00818" lon="6.00562">
        <ele>782.39453125</ele>
      </trkpt>
      <trkpt lat="44.00801" lon="6.00564">
        <ele>782.63671875</ele>
      </trkpt>
      <trkpt lat="44.0079" lon="6.00569">
        <ele>782.83203125</ele>
      </trkpt>
      <trkpt lat="44.00784" lon="6.00574">
        <ele>782.9453125</ele>
      </trkpt>
      <trkpt lat="44.00767" lon="6.0059">
        <ele>782.62890625</ele>
      </trkpt>
      <trkpt lat="44.00764" lon="6.00593">
        <ele>782.4921875</ele>
      </trkpt>
      <trkpt lat="44.00759" lon="6.00595">
        <ele>782.46484375</ele>
      </trkpt>
      <trkpt lat="44.00733" lon="6.00609">
        <ele>781.80859375</ele>
      </trkpt>
      <trkpt lat="44.00705" lon="6.00626">
        <ele>779.77734375</ele>
      </trkpt>
      <trkpt lat="44.00691" lon="6.00637">
        <ele>777.859375</ele>
      </trkpt>
      <trkpt lat="44.00679" lon="6.00642">
        <ele>776.37109375</ele>
      </trkpt>
      <trkpt lat="44.0063" lon="6.00661">
        <ele>771.984375</ele>
      </trkpt>
      <trkpt lat="44.00587" lon="6.0068">
        <ele>769.40625</ele>
      </trkpt>
      <trkpt lat="44.00562" lon="6.00691">
        <ele>768.55078125</ele>
      </trkpt>
      <trkpt lat="44.00554" lon="6.00697">
        <ele>768.0703125</ele>
      </trkpt>
      <trkpt lat="44.00548" lon="6.00701">
        <ele>767.7265625</ele>
      </trkpt>
      <trkpt lat="44.0054" lon="6.00704">
        <ele>767.625</ele>
      </trkpt>
      <trkpt lat="44.00533" lon="6.00708">
        <ele>767.328125</ele>
      </trkpt>
      <trkpt lat="44.00527" lon="6.0071">
        <ele>767.16796875</ele>
      </trkpt>
      <trkpt lat="44.005" lon="6.0072">
        <ele>766.07421875</ele>
      </trkpt>
      <trkpt lat="44.00475" lon="6.00729">
        <ele>764.46875</ele>
      </trkpt>
      <trkpt lat="44.00472" lon="6.00731">
        <ele>763.95703125</ele>
      </trkpt>
      <trkpt lat="44.00446" lon="6.0074">
        <ele>761.4765625</ele>
      </trkpt>
      <trkpt lat="44.00433" lon="6.00742">
        <ele>760.640625</ele>
      </trkpt>
      <trkpt lat="44.00419" lon="6.00744">
        <ele>759.58203125</ele>
      </trkpt>
      <trkpt lat="44.00406" lon="6.00747">
        <ele>758.22265625</ele>
      </trkpt>
      <trkpt lat="44.00358" lon="6.00758">
        <ele>752.9453125</ele>
      </trkpt>
      <trkpt lat="44.00348" lon="6.0076">
        <ele>751.86328125</ele>
      </trkpt>
      <trkpt lat="44.00337" lon="6.0076">
        <ele>751.12890625</ele>
      </trkpt>
      <trkpt lat="44.00329" lon="6.0076">
        <ele>750.66015625</ele>
      </trkpt>
      <trkpt lat="44.00322" lon="6.00758">
        <ele>750.62109375</ele>
      </trkpt>
      <trkpt lat="44.00301" lon="6.0075">
        <ele>749.828125</ele>
      </trkpt>
      <trkpt lat="44.00298" lon="6.00749">
        <ele>749.62890625</ele>
      </trkpt>
      <trkpt lat="44.00292" lon="6.00746">
        <ele>749.375</ele>
      </trkpt>
      <trkpt lat="44.00286" lon="6.00746">
        <ele>748.70703125</ele>
      </trkpt>
      <trkpt lat="44.00264" lon="6.00749">
        <ele>745.4921875</ele>
      </trkpt>
      <trkpt lat="44.00258" lon="6.00753">
        <ele>744.265625</ele>
      </trkpt>
      <trkpt lat="44.00254" lon="6.00756">
        <ele>743.22265625</ele>
      </trkpt>
      <trkpt lat="44.00251" lon="6.00762">
        <ele>742.00390625</ele>
      </trkpt>
      <trkpt lat="44.00249" lon="6.00771">
        <ele>740.73046875</ele>
      </trkpt>
      <trkpt lat="44.0025" lon="6.00775">
        <ele>740.39453125</ele>
      </trkpt>
      <trkpt lat="44.00251" lon="6.00779">
        <ele>740.05078125</ele>
      </trkpt>
      <trkpt lat="44.00268" lon="6.00808">
        <ele>738.53515625</ele>
      </trkpt>
      <trkpt lat="44.00295" lon="6.00843">
        <ele>736.4765625</ele>
      </trkpt>
      <trkpt lat="44.0031" lon="6.00862">
        <ele>735.9921875</ele>
      </trkpt>
      <trkpt lat="44.00316" lon="6.00874">
        <ele>736.859375</ele>
      </trkpt>
      <trkpt lat="44.00318" lon="6.0088">
        <ele>737.28515625</ele>
      </trkpt>
      <trkpt lat="44.00319" lon="6.00889">
        <ele>737.78515625</ele>
      </trkpt>
      <trkpt lat="44.00319" lon="6.00896">
        <ele>738.19140625</ele>
      </trkpt>
      <trkpt lat="44.00318" lon="6.00903">
        <ele>738.50390625</ele>
      </trkpt>
      <trkpt lat="44.00316" lon="6.00909">
        <ele>738.7734375</ele>
      </trkpt>
      <trkpt lat="44.0031" lon="6.0092">
        <ele>740.14453125</ele>
      </trkpt>
      <trkpt lat="44.00304" lon="6.00926">
        <ele>741.06640625</ele>
      </trkpt>
      <trkpt lat="44.00299" lon="6.00932">
        <ele>741.77734375</ele>
      </trkpt>
      <trkpt lat="44.00288" lon="6.00941">
        <ele>742.96484375</ele>
      </trkpt>
      <trkpt lat="44.0028" lon="6.00948">
        <ele>743.65234375</ele>
      </trkpt>
      <trkpt lat="44.0027" lon="6.00953">
        <ele>744.0703125</ele>
      </trkpt>
      <trkpt lat="44.00263" lon="6.00956">
        <ele>744.2578125</ele>
      </trkpt>
      <trkpt lat="44.00253" lon="6.0096">
        <ele>744.7578125</ele>
      </trkpt>
      <trkpt lat="44.00244" lon="6.00962">
        <ele>745.09765625</ele>
      </trkpt>
      <trkpt lat="44.00231" lon="6.00963">
        <ele>745.26171875</ele>
      </trkpt>
      <trkpt lat="44.00208" lon="6.0096">
        <ele>744.6484375</ele>
      </trkpt>
      <trkpt lat="44.00193" lon="6.00959">
        <ele>745.18359375</ele>
      </trkpt>
      <trkpt lat="44.00174" lon="6.00958">
        <ele>745.90234375</ele>
      </trkpt>
      <trkpt lat="44.00165" lon="6.00955">
        <ele>745.86328125</ele>
      </trkpt>
      <trkpt lat="44.00157" lon="6.00952">
        <ele>745.52734375</ele>
      </trkpt>
      <trkpt lat="44.00122" lon="6.00935">
        <ele>745.546875</ele>
      </trkpt>
      <trkpt lat="44.00106" lon="6.00927">
        <ele>745.671875</ele>
      </trkpt>
      <trkpt lat="44.001" lon="6.00926">
        <ele>746.15234375</ele>
      </trkpt>
      <trkpt lat="44.0008" lon="6.0092">
        <ele>747.46484375</ele>
      </trkpt>
      <trkpt lat="44.00049" lon="6.00903">
        <ele>748.484375</ele>
      </trkpt>
      <trkpt lat="44.00039" lon="6.00896">
        <ele>748.47265625</ele>
      </trkpt>
      <trkpt lat="44.00033" lon="6.00889">
        <ele>747.81640625</ele>
      </trkpt>
      <trkpt lat="44.00031" lon="6.00886">
        <ele>747.4765625</ele>
      </trkpt>
      <trkpt lat="44.00022" lon="6.00876">
        <ele>747.0703125</ele>
      </trkpt>
      <trkpt lat="43.99987" lon="6.00841">
        <ele>748.92578125</ele>
      </trkpt>
      <trkpt lat="43.99974" lon="6.00826">
        <ele>748.66015625</ele>
      </trkpt>
      <trkpt lat="43.99971" lon="6.00821">
        <ele>748.5625</ele>
      </trkpt>
      <trkpt lat="43.99968" lon="6.00818">
        <ele>748.66796875</ele>
      </trkpt>
      <trkpt lat="43.99963" lon="6.00814">
        <ele>748.8515625</ele>
      </trkpt>
      <trkpt lat="43.99957" lon="6.00812">
        <ele>749.828125</ele>
      </trkpt>
      <trkpt lat="43.99946" lon="6.00808">
        <ele>751.578125</ele>
      </trkpt>
      <trkpt lat="43.99942" lon="6.00806">
        <ele>752.19921875</ele>
      </trkpt>
      <trkpt lat="43.99936" lon="6.00806">
        <ele>753.3203125</ele>
      </trkpt>
      <trkpt lat="43.99932" lon="6.00807">
        <ele>754.3359375</ele>
      </trkpt>
      <trkpt lat="43.99927" lon="6.00811">
        <ele>754.984375</ele>
      </trkpt>
      <trkpt lat="43.99921" lon="6.00817">
        <ele>755.390625</ele>
      </trkpt>
      <trkpt lat="43.99914" lon="6.00835">
        <ele>756.26953125</ele>
      </trkpt>
      <trkpt lat="43.99912" lon="6.00841">
        <ele>756.3984375</ele>
      </trkpt>
      <trkpt lat="43.99909" lon="6.00846">
        <ele>756.34375</ele>
      </trkpt>
      <trkpt lat="43.99904" lon="6.00851">
        <ele>756.0546875</ele>
      </trkpt>
      <trkpt lat="43.99901" lon="6.00855">
        <ele>755.734375</ele>
      </trkpt>
      <trkpt lat="43.9988" lon="6.00871">
        <ele>751.7421875</ele>
      </trkpt>
      <trkpt lat="43.99873" lon="6.00877">
        <ele>750.10546875</ele>
      </trkpt>
      <trkpt lat="43.9987" lon="6.00885">
        <ele>748.77734375</ele>
      </trkpt>
      <trkpt lat="43.99867" lon="6.00893">
        <ele>747.3515625</ele>
      </trkpt>
      <trkpt lat="43.99866" lon="6.00902">
        <ele>746.4453125</ele>
      </trkpt>
      <trkpt lat="43.99866" lon="6.00912">
        <ele>745.59375</ele>
      </trkpt>
      <trkpt lat="43.99868" lon="6.00921">
        <ele>744.953125</ele>
      </trkpt>
      <trkpt lat="43.99871" lon="6.00929">
        <ele>744.6796875</ele>
      </trkpt>
      <trkpt lat="43.99873" lon="6.00933">
        <ele>744.57421875</ele>
      </trkpt>
      <trkpt lat="43.99882" lon="6.00945">
        <ele>744.90234375</ele>
      </trkpt>
      <trkpt lat="43.99887" lon="6.00954">
        <ele>744.86328125</ele>
      </trkpt>
      <trkpt lat="43.99891" lon="6.00965">
        <ele>744.48046875</ele>
      </trkpt>
      <trkpt lat="43.99894" lon="6.00974">
        <ele>743.53515625</ele>
      </trkpt>
      <trkpt lat="43.99902" lon="6.00997">
        <ele>741.22265625</ele>
      </trkpt>
      <trkpt lat="43.99907" lon="6.0101">
        <ele>740.06640625</ele>
      </trkpt>
      <trkpt lat="43.99914" lon="6.01023">
        <ele>739.12109375</ele>
      </trkpt>
      <trkpt lat="43.9992" lon="6.01035">
        <ele>738.44140625</ele>
      </trkpt>
      <trkpt lat="43.99933" lon="6.01055">
        <ele>737.09375</ele>
      </trkpt>
      <trkpt lat="43.99941" lon="6.01067">
        <ele>736.00390625</ele>
      </trkpt>
      <trkpt lat="43.99947" lon="6.01079">
        <ele>734.68359375</ele>
      </trkpt>
      <trkpt lat="43.99953" lon="6.01093">
        <ele>733.9921875</ele>
      </trkpt>
      <trkpt lat="43.99963" lon="6.01114">
        <ele>732.95703125</ele>
      </trkpt>
      <trkpt lat="43.9997" lon="6.01132">
        <ele>731.43359375</ele>
      </trkpt>
      <trkpt lat="43.99972" lon="6.01138">
        <ele>731.3671875</ele>
      </trkpt>
      <trkpt lat="43.99981" lon="6.01165">
        <ele>731.0859375</ele>
      </trkpt>
      <trkpt lat="43.99984" lon="6.0117">
        <ele>730.9375</ele>
      </trkpt>
      <trkpt lat="43.99984" lon="6.01176">
        <ele>730.61328125</ele>
      </trkpt>
      <trkpt lat="43.99984" lon="6.01184">
        <ele>730.234375</ele>
      </trkpt>
      <trkpt lat="43.99983" lon="6.01189">
        <ele>729.94140625</ele>
      </trkpt>
      <trkpt lat="43.99979" lon="6.01196">
        <ele>730.28515625</ele>
      </trkpt>
      <trkpt lat="43.99976" lon="6.012">
        <ele>730.5390625</ele>
      </trkpt>
      <trkpt lat="43.99971" lon="6.01203">
        <ele>730.75390625</ele>
      </trkpt>
      <trkpt lat="43.99965" lon="6.01204">
        <ele>730.83984375</ele>
      </trkpt>
      <trkpt lat="43.99956" lon="6.01203">
        <ele>730.7578125</ele>
      </trkpt>
      <trkpt lat="43.99947" lon="6.012">
        <ele>730.421875</ele>
      </trkpt>
      <trkpt lat="43.99941" lon="6.01197">
        <ele>730.03515625</ele>
      </trkpt>
      <trkpt lat="43.99899" lon="6.01171">
        <ele>727.79296875</ele>
      </trkpt>
      <trkpt lat="43.99855" lon="6.01151">
        <ele>725.7265625</ele>
      </trkpt>
      <trkpt lat="43.99832" lon="6.01143">
        <ele>725.90234375</ele>
      </trkpt>
      <trkpt lat="43.99798" lon="6.01131">
        <ele>725.84375</ele>
      </trkpt>
      <trkpt lat="43.99776" lon="6.01124">
        <ele>725.765625</ele>
      </trkpt>
      <trkpt lat="43.99747" lon="6.01116">
        <ele>726.2109375</ele>
      </trkpt>
      <trkpt lat="43.99724" lon="6.01111">
        <ele>726.8828125</ele>
      </trkpt>
      <trkpt lat="43.99709" lon="6.01107">
        <ele>727.0859375</ele>
      </trkpt>
      <trkpt lat="43.99694" lon="6.01104">
        <ele>727.70703125</ele>
      </trkpt>
      <trkpt lat="43.99683" lon="6.01104">
        <ele>728.4765625</ele>
      </trkpt>
      <trkpt lat="43.99673" lon="6.01104">
        <ele>729.25</ele>
      </trkpt>
      <trkpt lat="43.99651" lon="6.01103">
        <ele>730.51171875</ele>
      </trkpt>
      <trkpt lat="43.99637" lon="6.01103">
        <ele>731.03515625</ele>
      </trkpt>
      <trkpt lat="43.99623" lon="6.01104">
        <ele>731.7734375</ele>
      </trkpt>
      <trkpt lat="43.99593" lon="6.01109">
        <ele>733.38671875</ele>
      </trkpt>
      <trkpt lat="43.99581" lon="6.0111">
        <ele>733.21484375</ele>
      </trkpt>
      <trkpt lat="43.99573" lon="6.0111">
        <ele>732.94921875</ele>
      </trkpt>
      <trkpt lat="43.99566" lon="6.0111">
        <ele>732.75</ele>
      </trkpt>
      <trkpt lat="43.99559" lon="6.01112">
        <ele>732.82421875</ele>
      </trkpt>
      <trkpt lat="43.99551" lon="6.01116">
        <ele>733.16015625</ele>
      </trkpt>
      <trkpt lat="43.99544" lon="6.01121">
        <ele>733.4296875</ele>
      </trkpt>
      <trkpt lat="43.99541" lon="6.01126">
        <ele>733.8984375</ele>
      </trkpt>
      <trkpt lat="43.99537" lon="6.01131">
        <ele>734.17578125</ele>
      </trkpt>
      <trkpt lat="43.99535" lon="6.01137">
        <ele>734.171875</ele>
      </trkpt>
      <trkpt lat="43.99534" lon="6.01141">
        <ele>734</ele>
      </trkpt>
      <trkpt lat="43.99532" lon="6.01148">
        <ele>733.64453125</ele>
      </trkpt>
      <trkpt lat="43.99529" lon="6.0117">
        <ele>732.921875</ele>
      </trkpt>
      <trkpt lat="43.99526" lon="6.01181">
        <ele>732.234375</ele>
      </trkpt>
      <trkpt lat="43.9952" lon="6.01191">
        <ele>730.89453125</ele>
      </trkpt>
      <trkpt lat="43.99515" lon="6.012">
        <ele>729.00390625</ele>
      </trkpt>
      <trkpt lat="43.99497" lon="6.01221">
        <ele>723.765625</ele>
      </trkpt>
      <trkpt lat="43.9948" lon="6.01238">
        <ele>719.83984375</ele>
      </trkpt>
      <trkpt lat="43.99458" lon="6.0126">
        <ele>714.15234375</ele>
      </trkpt>
      <trkpt lat="43.99444" lon="6.01274">
        <ele>710.64453125</ele>
      </trkpt>
      <trkpt lat="43.99428" lon="6.01297">
        <ele>706.25390625</ele>
      </trkpt>
      <trkpt lat="43.99419" lon="6.01308">
        <ele>704.17578125</ele>
      </trkpt>
      <trkpt lat="43.99413" lon="6.01319">
        <ele>702.32421875</ele>
      </trkpt>
      <trkpt lat="43.99404" lon="6.01335">
        <ele>699.8203125</ele>
      </trkpt>
      <trkpt lat="43.99398" lon="6.01349">
        <ele>697.875</ele>
      </trkpt>
      <trkpt lat="43.99387" lon="6.01368">
        <ele>694.40234375</ele>
      </trkpt>
      <trkpt lat="43.99381" lon="6.0138">
        <ele>692.07421875</ele>
      </trkpt>
      <trkpt lat="43.99374" lon="6.01395">
        <ele>689.21875</ele>
      </trkpt>
      <trkpt lat="43.99368" lon="6.01418">
        <ele>685.0859375</ele>
      </trkpt>
      <trkpt lat="43.99364" lon="6.01447">
        <ele>679.90625</ele>
      </trkpt>
      <trkpt lat="43.99361" lon="6.01459">
        <ele>677.78125</ele>
      </trkpt>
      <trkpt lat="43.99361" lon="6.01464">
        <ele>676.7890625</ele>
      </trkpt>
      <trkpt lat="43.99362" lon="6.01471">
        <ele>675.9453125</ele>
      </trkpt>
      <trkpt lat="43.99365" lon="6.01475">
        <ele>675.71484375</ele>
      </trkpt>
      <trkpt lat="43.99372" lon="6.01485">
        <ele>675.01953125</ele>
      </trkpt>
      <trkpt lat="43.99377" lon="6.01493">
        <ele>674.71875</ele>
      </trkpt>
      <trkpt lat="43.99381" lon="6.01499">
        <ele>674.5859375</ele>
      </trkpt>
      <trkpt lat="43.99383" lon="6.01504">
        <ele>674.52734375</ele>
      </trkpt>
      <trkpt lat="43.9939" lon="6.01525">
        <ele>674.43359375</ele>
      </trkpt>
      <trkpt lat="43.99392" lon="6.01535">
        <ele>674.8046875</ele>
      </trkpt>
      <trkpt lat="43.99394" lon="6.01545">
        <ele>675.08203125</ele>
      </trkpt>
      <trkpt lat="43.99394" lon="6.0155">
        <ele>675.16015625</ele>
      </trkpt>
      <trkpt lat="43.99392" lon="6.0157">
        <ele>675.48046875</ele>
      </trkpt>
      <trkpt lat="43.9939" lon="6.01584">
        <ele>676.8125</ele>
      </trkpt>
      <trkpt lat="43.99387" lon="6.01598">
        <ele>679.671875</ele>
      </trkpt>
      <trkpt lat="43.99383" lon="6.01622">
        <ele>684.85546875</ele>
      </trkpt>
      <trkpt lat="43.99382" lon="6.01628">
        <ele>686.33203125</ele>
      </trkpt>
      <trkpt lat="43.99382" lon="6.01633">
        <ele>687.515625</ele>
      </trkpt>
      <trkpt lat="43.99384" lon="6.01639">
        <ele>688.5078125</ele>
      </trkpt>
      <trkpt lat="43.99388" lon="6.01643">
        <ele>689.09765625</ele>
      </trkpt>
      <trkpt lat="43.99418" lon="6.01646">
        <ele>687.4921875</ele>
      </trkpt>
      <trkpt lat="43.99421" lon="6.0165">
        <ele>687.89453125</ele>
      </trkpt>
      <trkpt lat="43.99421" lon="6.01657">
        <ele>689.40234375</ele>
      </trkpt>
      <trkpt lat="43.99411" lon="6.01666">
        <ele>692.015625</ele>
      </trkpt>
      <trkpt lat="43.99404" lon="6.01672">
        <ele>693.875</ele>
      </trkpt>
      <trkpt lat="43.99395" lon="6.01682">
        <ele>696.71875</ele>
      </trkpt>
      <trkpt lat="43.99378" lon="6.01704">
        <ele>702.35546875</ele>
      </trkpt>
      <trkpt lat="43.99365" lon="6.01731">
        <ele>707.3515625</ele>
      </trkpt>
      <trkpt lat="43.99353" lon="6.01756">
        <ele>710.81640625</ele>
      </trkpt>
      <trkpt lat="43.99344" lon="6.01773">
        <ele>712.9140625</ele>
      </trkpt>
      <trkpt lat="43.99331" lon="6.01802">
        <ele>717.28515625</ele>
      </trkpt>
      <trkpt lat="43.99325" lon="6.01813">
        <ele>718.5234375</ele>
      </trkpt>
      <trkpt lat="43.99324" lon="6.01817">
        <ele>718.90625</ele>
      </trkpt>
      <trkpt lat="43.99323" lon="6.01822">
        <ele>719.37109375</ele>
      </trkpt>
      <trkpt lat="43.99325" lon="6.01831">
        <ele>719.8359375</ele>
      </trkpt>
      <trkpt lat="43.99328" lon="6.01847">
        <ele>720.76171875</ele>
      </trkpt>
      <trkpt lat="43.99329" lon="6.01852">
        <ele>721.07421875</ele>
      </trkpt>
      <trkpt lat="43.99329" lon="6.01858">
        <ele>721.45703125</ele>
      </trkpt>
      <trkpt lat="43.99328" lon="6.01865">
        <ele>722.078125</ele>
      </trkpt>
      <trkpt lat="43.99327" lon="6.01871">
        <ele>722.54296875</ele>
      </trkpt>
      <trkpt lat="43.99324" lon="6.01879">
        <ele>723.390625</ele>
      </trkpt>
      <trkpt lat="43.99298" lon="6.01922">
        <ele>728.61328125</ele>
      </trkpt>
      <trkpt lat="43.99291" lon="6.01934">
        <ele>730.35546875</ele>
      </trkpt>
      <trkpt lat="43.99283" lon="6.01948">
        <ele>732.37109375</ele>
      </trkpt>
      <trkpt lat="43.9928" lon="6.01957">
        <ele>733.63671875</ele>
      </trkpt>
      <trkpt lat="43.99271" lon="6.01975">
        <ele>735.71484375</ele>
      </trkpt>
      <trkpt lat="43.99267" lon="6.01989">
        <ele>736.609375</ele>
      </trkpt>
      <trkpt lat="43.99264" lon="6.01998">
        <ele>737.12890625</ele>
      </trkpt>
      <trkpt lat="43.99261" lon="6.02005">
        <ele>737.15234375</ele>
      </trkpt>
      <trkpt lat="43.99256" lon="6.0201">
        <ele>736.96875</ele>
      </trkpt>
      <trkpt lat="43.99252" lon="6.02013">
        <ele>736.65234375</ele>
      </trkpt>
      <trkpt lat="43.99223" lon="6.02034">
        <ele>732.4375</ele>
      </trkpt>
      <trkpt lat="43.99203" lon="6.0205">
        <ele>727.66796875</ele>
      </trkpt>
      <trkpt lat="43.99185" lon="6.02065">
        <ele>722.85546875</ele>
      </trkpt>
      <trkpt lat="43.99179" lon="6.02069">
        <ele>721.09765625</ele>
      </trkpt>
      <trkpt lat="43.99176" lon="6.02069">
        <ele>720.5546875</ele>
      </trkpt>
      <trkpt lat="43.99173" lon="6.02069">
        <ele>720.0078125</ele>
      </trkpt>
      <trkpt lat="43.99166" lon="6.02068">
        <ele>719.1171875</ele>
      </trkpt>
      <trkpt lat="43.99159" lon="6.02067">
        <ele>718.0625</ele>
      </trkpt>
      <trkpt lat="43.99153" lon="6.02069">
        <ele>716.74609375</ele>
      </trkpt>
      <trkpt lat="43.99148" lon="6.02072">
        <ele>715.51171875</ele>
      </trkpt>
      <trkpt lat="43.99125" lon="6.02083">
        <ele>711.38671875</ele>
      </trkpt>
      <trkpt lat="43.99118" lon="6.02086">
        <ele>710.13671875</ele>
      </trkpt>
      <trkpt lat="43.99109" lon="6.02087">
        <ele>708.99609375</ele>
      </trkpt>
      <trkpt lat="43.99106" lon="6.02087">
        <ele>708.6171875</ele>
      </trkpt>
      <trkpt lat="43.991" lon="6.02088">
        <ele>707.70703125</ele>
      </trkpt>
      <trkpt lat="43.99094" lon="6.0209">
        <ele>706.828125</ele>
      </trkpt>
      <trkpt lat="43.99078" lon="6.02099">
        <ele>703.8984375</ele>
      </trkpt>
      <trkpt lat="43.99072" lon="6.02108">
        <ele>701.8515625</ele>
      </trkpt>
      <trkpt lat="43.99068" lon="6.02112">
        <ele>700.80078125</ele>
      </trkpt>
      <trkpt lat="43.99063" lon="6.02116">
        <ele>699.484375</ele>
      </trkpt>
      <trkpt lat="43.9906" lon="6.02118">
        <ele>698.75</ele>
      </trkpt>
      <trkpt lat="43.99044" lon="6.02119">
        <ele>696.68359375</ele>
      </trkpt>
      <trkpt lat="43.99027" lon="6.02117">
        <ele>694.41015625</ele>
      </trkpt>
      <trkpt lat="43.99007" lon="6.02113">
        <ele>691.9609375</ele>
      </trkpt>
      <trkpt lat="43.98992" lon="6.02109">
        <ele>690.06640625</ele>
      </trkpt>
      <trkpt lat="43.98986" lon="6.02105">
        <ele>689.40625</ele>
      </trkpt>
      <trkpt lat="43.98982" lon="6.02101">
        <ele>689.31640625</ele>
      </trkpt>
      <trkpt lat="43.98977" lon="6.02095">
        <ele>689.4609375</ele>
      </trkpt>
      <trkpt lat="43.98974" lon="6.0209">
        <ele>689.48046875</ele>
      </trkpt>
      <trkpt lat="43.9897" lon="6.02089">
        <ele>688.9453125</ele>
      </trkpt>
      <trkpt lat="43.98967" lon="6.0209">
        <ele>688.32421875</ele>
      </trkpt>
      <trkpt lat="43.98961" lon="6.02094">
        <ele>687.1484375</ele>
      </trkpt>
      <trkpt lat="43.9895" lon="6.021">
        <ele>684.859375</ele>
      </trkpt>
      <trkpt lat="43.98941" lon="6.02104">
        <ele>683.01953125</ele>
      </trkpt>
      <trkpt lat="43.98921" lon="6.02112">
        <ele>680.8203125</ele>
      </trkpt>
      <trkpt lat="43.98905" lon="6.02117">
        <ele>680.359375</ele>
      </trkpt>
      <trkpt lat="43.98891" lon="6.02121">
        <ele>680.19921875</ele>
      </trkpt>
      <trkpt lat="43.98883" lon="6.02122">
        <ele>680.18359375</ele>
      </trkpt>
      <trkpt lat="43.98873" lon="6.02119">
        <ele>680.1015625</ele>
      </trkpt>
      <trkpt lat="43.98864" lon="6.02116">
        <ele>679.47265625</ele>
      </trkpt>
      <trkpt lat="43.98855" lon="6.02114">
        <ele>678.86328125</ele>
      </trkpt>
      <trkpt lat="43.98846" lon="6.02114">
        <ele>678.2421875</ele>
      </trkpt>
      <trkpt lat="43.98841" lon="6.02114">
        <ele>677.8515625</ele>
      </trkpt>
      <trkpt lat="43.98835" lon="6.02116">
        <ele>677.4296875</ele>
      </trkpt>
      <trkpt lat="43.98825" lon="6.02123">
        <ele>676.94921875</ele>
      </trkpt>
      <trkpt lat="43.98818" lon="6.02126">
        <ele>676.81640625</ele>
      </trkpt>
      <trkpt lat="43.98812" lon="6.02127">
        <ele>677.24609375</ele>
      </trkpt>
      <trkpt lat="43.98806" lon="6.02127">
        <ele>677.6328125</ele>
      </trkpt>
      <trkpt lat="43.98788" lon="6.02124">
        <ele>678.34765625</ele>
      </trkpt>
      <trkpt lat="43.98756" lon="6.02119">
        <ele>679.390625</ele>
      </trkpt>
      <trkpt lat="43.98744" lon="6.02119">
        <ele>679.92578125</ele>
      </trkpt>
      <trkpt lat="43.98734" lon="6.02119">
        <ele>680.41015625</ele>
      </trkpt>
      <trkpt lat="43.98727" lon="6.02122">
        <ele>681.0625</ele>
      </trkpt>
      <trkpt lat="43.98721" lon="6.02123">
        <ele>681.546875</ele>
      </trkpt>
      <trkpt lat="43.98717" lon="6.02122">
        <ele>681.5625</ele>
      </trkpt>
      <trkpt lat="43.9871" lon="6.02121">
        <ele>681.66796875</ele>
      </trkpt>
      <trkpt lat="43.98707" lon="6.02121">
        <ele>681.76953125</ele>
      </trkpt>
      <trkpt lat="43.98702" lon="6.02123">
        <ele>682.26953125</ele>
      </trkpt>
      <trkpt lat="43.98697" lon="6.02126">
        <ele>682.9296875</ele>
      </trkpt>
      <trkpt lat="43.98695" lon="6.02129">
        <ele>683.5390625</ele>
      </trkpt>
      <trkpt lat="43.98693" lon="6.02133">
        <ele>684.33203125</ele>
      </trkpt>
      <trkpt lat="43.9869" lon="6.02136">
        <ele>684.77734375</ele>
      </trkpt>
      <trkpt lat="43.98687" lon="6.02136">
        <ele>684.8359375</ele>
      </trkpt>
      <trkpt lat="43.98683" lon="6.02133">
        <ele>684.5078125</ele>
      </trkpt>
      <trkpt lat="43.9868" lon="6.02127">
        <ele>683.46484375</ele>
      </trkpt>
      <trkpt lat="43.98677" lon="6.02121">
        <ele>682.43359375</ele>
      </trkpt>
      <trkpt lat="43.98674" lon="6.02114">
        <ele>681.41796875</ele>
      </trkpt>
      <trkpt lat="43.98668" lon="6.02109">
        <ele>680.65234375</ele>
      </trkpt>
      <trkpt lat="43.98652" lon="6.021">
        <ele>679.75390625</ele>
      </trkpt>
      <trkpt lat="43.98641" lon="6.02095">
        <ele>679.92578125</ele>
      </trkpt>
      <trkpt lat="43.98632" lon="6.02088">
        <ele>679.91015625</ele>
      </trkpt>
      <trkpt lat="43.98619" lon="6.02078">
        <ele>679.7109375</ele>
      </trkpt>
      <trkpt lat="43.98615" lon="6.02077">
        <ele>680.04296875</ele>
      </trkpt>
      <trkpt lat="43.9861" lon="6.02075">
        <ele>680.375</ele>
      </trkpt>
      <trkpt lat="43.98605" lon="6.02079">
        <ele>681.359375</ele>
      </trkpt>
      <trkpt lat="43.98601" lon="6.02083">
        <ele>682.3671875</ele>
      </trkpt>
      <trkpt lat="43.98594" lon="6.02097">
        <ele>684.390625</ele>
      </trkpt>
      <trkpt lat="43.98588" lon="6.02105">
        <ele>685.3359375</ele>
      </trkpt>
      <trkpt lat="43.98585" lon="6.02109">
        <ele>685.65625</ele>
      </trkpt>
      <trkpt lat="43.98573" lon="6.02126">
        <ele>687.3046875</ele>
      </trkpt>
      <trkpt lat="43.98569" lon="6.02131">
        <ele>687.74609375</ele>
      </trkpt>
      <trkpt lat="43.98563" lon="6.02139">
        <ele>688.5390625</ele>
      </trkpt>
      <trkpt lat="43.9856" lon="6.02149">
        <ele>689.88671875</ele>
      </trkpt>
      <trkpt lat="43.98558" lon="6.02159">
        <ele>691.1015625</ele>
      </trkpt>
      <trkpt lat="43.98557" lon="6.02181">
        <ele>693.953125</ele>
      </trkpt>
      <trkpt lat="43.98557" lon="6.02195">
        <ele>695.73828125</ele>
      </trkpt>
      <trkpt lat="43.98557" lon="6.02202">
        <ele>696.6171875</ele>
      </trkpt>
      <trkpt lat="43.98555" lon="6.02205">
        <ele>696.8203125</ele>
      </trkpt>
      <trkpt lat="43.9855" lon="6.0221">
        <ele>696.94921875</ele>
      </trkpt>
      <trkpt lat="43.98546" lon="6.02208">
        <ele>696.46484375</ele>
      </trkpt>
      <trkpt lat="43.98543" lon="6.02206">
        <ele>695.95703125</ele>
      </trkpt>
      <trkpt lat="43.98538" lon="6.02198">
        <ele>695.0625</ele>
      </trkpt>
      <trkpt lat="43.98532" lon="6.02186">
        <ele>693.8359375</ele>
      </trkpt>
      <trkpt lat="43.98527" lon="6.02178">
        <ele>692.9453125</ele>
      </trkpt>
      <trkpt lat="43.9852" lon="6.02172">
        <ele>692.1796875</ele>
      </trkpt>
      <trkpt lat="43.98513" lon="6.02167">
        <ele>691.546875</ele>
      </trkpt>
      <trkpt lat="43.98506" lon="6.02162">
        <ele>691.02734375</ele>
      </trkpt>
      <trkpt lat="43.98484" lon="6.02154">
        <ele>690.28125</ele>
      </trkpt>
      <trkpt lat="43.98459" lon="6.02145">
        <ele>691.44140625</ele>
      </trkpt>
      <trkpt lat="43.98453" lon="6.02143">
        <ele>691.71875</ele>
      </trkpt>
      <trkpt lat="43.98447" lon="6.02144">
        <ele>692.41796875</ele>
      </trkpt>
      <trkpt lat="43.98441" lon="6.02145">
        <ele>693.23046875</ele>
      </trkpt>
      <trkpt lat="43.98435" lon="6.02147">
        <ele>694.1328125</ele>
      </trkpt>
      <trkpt lat="43.9843" lon="6.02152">
        <ele>695.46875</ele>
      </trkpt>
      <trkpt lat="43.98427" lon="6.02156">
        <ele>696.6484375</ele>
      </trkpt>
      <trkpt lat="43.98424" lon="6.02158">
        <ele>697.4375</ele>
      </trkpt>
      <trkpt lat="43.98418" lon="6.02161">
        <ele>698.6953125</ele>
      </trkpt>
      <trkpt lat="43.98414" lon="6.02162">
        <ele>699.4296875</ele>
      </trkpt>
      <trkpt lat="43.98409" lon="6.02162">
        <ele>700.10546875</ele>
      </trkpt>
      <trkpt lat="43.98404" lon="6.02161">
        <ele>700.453125</ele>
      </trkpt>
      <trkpt lat="43.98388" lon="6.02151">
        <ele>700.55078125</ele>
      </trkpt>
      <trkpt lat="43.9838" lon="6.02143">
        <ele>700.28125</ele>
      </trkpt>
      <trkpt lat="43.9837" lon="6.02138">
        <ele>700.65625</ele>
      </trkpt>
      <trkpt lat="43.98347" lon="6.02129">
        <ele>702.296875</ele>
      </trkpt>
      <trkpt lat="43.98341" lon="6.02128">
        <ele>702.98828125</ele>
      </trkpt>
      <trkpt lat="43.98332" lon="6.02128">
        <ele>704.18359375</ele>
      </trkpt>
      <trkpt lat="43.98326" lon="6.02129">
        <ele>705.3046875</ele>
      </trkpt>
      <trkpt lat="43.98321" lon="6.02131">
        <ele>706.51953125</ele>
      </trkpt>
      <trkpt lat="43.98315" lon="6.02133">
        <ele>707.5859375</ele>
      </trkpt>
      <trkpt lat="43.98291" lon="6.02141">
        <ele>712.234375</ele>
      </trkpt>
      <trkpt lat="43.9827" lon="6.02144">
        <ele>715.5</ele>
      </trkpt>
      <trkpt lat="43.98266" lon="6.02145">
        <ele>716.31640625</ele>
      </trkpt>
      <trkpt lat="43.98224" lon="6.02156">
        <ele>720.12890625</ele>
      </trkpt>
      <trkpt lat="43.98194" lon="6.02169">
        <ele>722.75390625</ele>
      </trkpt>
      <trkpt lat="43.98184" lon="6.02171">
        <ele>722.78515625</ele>
      </trkpt>
      <trkpt lat="43.98173" lon="6.02172">
        <ele>722.4609375</ele>
      </trkpt>
      <trkpt lat="43.98163" lon="6.02171">
        <ele>721.85546875</ele>
      </trkpt>
      <trkpt lat="43.98145" lon="6.02168">
        <ele>720.96875</ele>
      </trkpt>
      <trkpt lat="43.98137" lon="6.02166">
        <ele>720.69921875</ele>
      </trkpt>
      <trkpt lat="43.98118" lon="6.02159">
        <ele>720.171875</ele>
      </trkpt>
      <trkpt lat="43.98109" lon="6.02158">
        <ele>720.1953125</ele>
      </trkpt>
      <trkpt lat="43.981" lon="6.02158">
        <ele>720.32421875</ele>
      </trkpt>
      <trkpt lat="43.98096" lon="6.02158">
        <ele>720.35546875</ele>
      </trkpt>
      <trkpt lat="43.98088" lon="6.0216">
        <ele>720.4765625</ele>
      </trkpt>
      <trkpt lat="43.98082" lon="6.02162">
        <ele>720.53515625</ele>
      </trkpt>
      <trkpt lat="43.98066" lon="6.02159">
        <ele>720.51171875</ele>
      </trkpt>
      <trkpt lat="43.98051" lon="6.0216">
        <ele>720.5234375</ele>
      </trkpt>
      <trkpt lat="43.98042" lon="6.0216">
        <ele>720.484375</ele>
      </trkpt>
      <trkpt lat="43.98033" lon="6.0216">
        <ele>719.94921875</ele>
      </trkpt>
      <trkpt lat="43.98025" lon="6.02157">
        <ele>719.64453125</ele>
      </trkpt>
      <trkpt lat="43.98018" lon="6.02154">
        <ele>719.515625</ele>
      </trkpt>
      <trkpt lat="43.98013" lon="6.02149">
        <ele>719.5703125</ele>
      </trkpt>
      <trkpt lat="43.98007" lon="6.02143">
        <ele>719.859375</ele>
      </trkpt>
      <trkpt lat="43.97995" lon="6.02122">
        <ele>720.75390625</ele>
      </trkpt>
      <trkpt lat="43.97982" lon="6.02099">
        <ele>721.5</ele>
      </trkpt>
      <trkpt lat="43.97971" lon="6.0208">
        <ele>722.2578125</ele>
      </trkpt>
      <trkpt lat="43.97968" lon="6.02074">
        <ele>722.36328125</ele>
      </trkpt>
      <trkpt lat="43.97964" lon="6.02069">
        <ele>722.34375</ele>
      </trkpt>
      <trkpt lat="43.9796" lon="6.02065">
        <ele>722.265625</ele>
      </trkpt>
      <trkpt lat="43.97955" lon="6.02059">
        <ele>722.16796875</ele>
      </trkpt>
      <trkpt lat="43.97949" lon="6.02055">
        <ele>722.0546875</ele>
      </trkpt>
      <trkpt lat="43.97908" lon="6.02036">
        <ele>720.14453125</ele>
      </trkpt>
      <trkpt lat="43.97901" lon="6.02031">
        <ele>719.91796875</ele>
      </trkpt>
      <trkpt lat="43.97895" lon="6.02027">
        <ele>719.7421875</ele>
      </trkpt>
      <trkpt lat="43.97888" lon="6.02021">
        <ele>719.625</ele>
      </trkpt>
      <trkpt lat="43.97883" lon="6.02014">
        <ele>719.11328125</ele>
      </trkpt>
      <trkpt lat="43.97865" lon="6.01986">
        <ele>717.84375</ele>
      </trkpt>
      <trkpt lat="43.97851" lon="6.01967">
        <ele>717.46875</ele>
      </trkpt>
      <trkpt lat="43.97848" lon="6.01961">
        <ele>716.7109375</ele>
      </trkpt>
      <trkpt lat="43.97843" lon="6.01955">
        <ele>716.01171875</ele>
      </trkpt>
      <trkpt lat="43.97838" lon="6.0195">
        <ele>715.2734375</ele>
      </trkpt>
      <trkpt lat="43.97829" lon="6.01945">
        <ele>714.46484375</ele>
      </trkpt>
      <trkpt lat="43.97823" lon="6.01942">
        <ele>714.1015625</ele>
      </trkpt>
      <trkpt lat="43.97798" lon="6.01935">
        <ele>713.5</ele>
      </trkpt>
      <trkpt lat="43.97775" lon="6.01927">
        <ele>713.0625</ele>
      </trkpt>
      <trkpt lat="43.9777" lon="6.01927">
        <ele>713.19140625</ele>
      </trkpt>
      <trkpt lat="43.97765" lon="6.01927">
        <ele>713.359375</ele>
      </trkpt>
      <trkpt lat="43.9776" lon="6.0193">
        <ele>713.18359375</ele>
      </trkpt>
      <trkpt lat="43.97755" lon="6.01932">
        <ele>713.10546875</ele>
      </trkpt>
      <trkpt lat="43.9775" lon="6.01935">
        <ele>713.0859375</ele>
      </trkpt>
      <trkpt lat="43.97745" lon="6.01941">
        <ele>713.53125</ele>
      </trkpt>
      <trkpt lat="43.97733" lon="6.01964">
        <ele>715.71484375</ele>
      </trkpt>
      <trkpt lat="43.97721" lon="6.01981">
        <ele>715.7109375</ele>
      </trkpt>
      <trkpt lat="43.97714" lon="6.01987">
        <ele>715.51953125</ele>
      </trkpt>
      <trkpt lat="43.97707" lon="6.01992">
        <ele>715.0390625</ele>
      </trkpt>
      <trkpt lat="43.97701" lon="6.01994">
        <ele>714.3515625</ele>
      </trkpt>
      <trkpt lat="43.97692" lon="6.01996">
        <ele>713.49609375</ele>
      </trkpt>
      <trkpt lat="43.97653" lon="6.02">
        <ele>709.8671875</ele>
      </trkpt>
      <trkpt lat="43.97628" lon="6.02001">
        <ele>708.0390625</ele>
      </trkpt>
      <trkpt lat="43.97608" lon="6.02">
        <ele>706.1640625</ele>
      </trkpt>
      <trkpt lat="43.9759" lon="6.01998">
        <ele>704.3046875</ele>
      </trkpt>
      <trkpt lat="43.9758" lon="6.01996">
        <ele>703.21484375</ele>
      </trkpt>
      <trkpt lat="43.97546" lon="6.01987">
        <ele>699.16796875</ele>
      </trkpt>
      <trkpt lat="43.97513" lon="6.01976">
        <ele>694.3671875</ele>
      </trkpt>
      <trkpt lat="43.97475" lon="6.01964">
        <ele>689.484375</ele>
      </trkpt>
      <trkpt lat="43.97437" lon="6.01949">
        <ele>683.7578125</ele>
      </trkpt>
      <trkpt lat="43.97427" lon="6.01943">
        <ele>682.2265625</ele>
      </trkpt>
      <trkpt lat="43.97418" lon="6.01938">
        <ele>680.89453125</ele>
      </trkpt>
      <trkpt lat="43.97399" lon="6.01923">
        <ele>677.87890625</ele>
      </trkpt>
      <trkpt lat="43.97368" lon="6.01898">
        <ele>674.6328125</ele>
      </trkpt>
      <trkpt lat="43.9735" lon="6.01886">
        <ele>673.76171875</ele>
      </trkpt>
      <trkpt lat="43.97344" lon="6.01882">
        <ele>673.58984375</ele>
      </trkpt>
      <trkpt lat="43.97309" lon="6.0186">
        <ele>672.6171875</ele>
      </trkpt>
      <trkpt lat="43.97241" lon="6.01819">
        <ele>671.13671875</ele>
      </trkpt>
      <trkpt lat="43.97216" lon="6.01805">
        <ele>671.140625</ele>
      </trkpt>
      <trkpt lat="43.97205" lon="6.01801">
        <ele>671.09765625</ele>
      </trkpt>
      <trkpt lat="43.97192" lon="6.01798">
        <ele>670.578125</ele>
      </trkpt>
      <trkpt lat="43.97182" lon="6.01797">
        <ele>670.40234375</ele>
      </trkpt>
      <trkpt lat="43.97171" lon="6.01797">
        <ele>670.41796875</ele>
      </trkpt>
      <trkpt lat="43.97162" lon="6.01799">
        <ele>670.77734375</ele>
      </trkpt>
      <trkpt lat="43.97124" lon="6.01813">
        <ele>668.67578125</ele>
      </trkpt>
      <trkpt lat="43.9709" lon="6.01829">
        <ele>665.3828125</ele>
      </trkpt>
      <trkpt lat="43.97074" lon="6.01835">
        <ele>663.38671875</ele>
      </trkpt>
      <trkpt lat="43.9707" lon="6.01837">
        <ele>662.83203125</ele>
      </trkpt>
      <trkpt lat="43.97054" lon="6.01844">
        <ele>660.57421875</ele>
      </trkpt>
      <trkpt lat="43.97031" lon="6.01853">
        <ele>657.74609375</ele>
      </trkpt>
      <trkpt lat="43.9698" lon="6.01876">
        <ele>648.3828125</ele>
      </trkpt>
      <trkpt lat="43.96974" lon="6.01878">
        <ele>647.5703125</ele>
      </trkpt>
      <trkpt lat="43.9697" lon="6.01879">
        <ele>647.046875</ele>
      </trkpt>
      <trkpt lat="43.96966" lon="6.0188">
        <ele>646.52734375</ele>
      </trkpt>
      <trkpt lat="43.96956" lon="6.0188">
        <ele>645.83203125</ele>
      </trkpt>
      <trkpt lat="43.96952" lon="6.01878">
        <ele>645.9453125</ele>
      </trkpt>
      <trkpt lat="43.96943" lon="6.01874">
        <ele>646.1796875</ele>
      </trkpt>
      <trkpt lat="43.96921" lon="6.01854">
        <ele>647.31640625</ele>
      </trkpt>
      <trkpt lat="43.96914" lon="6.01849">
        <ele>647.28515625</ele>
      </trkpt>
      <trkpt lat="43.9688" lon="6.01819">
        <ele>648.29296875</ele>
      </trkpt>
      <trkpt lat="43.9687" lon="6.01812">
        <ele>648.39453125</ele>
      </trkpt>
      <trkpt lat="43.96862" lon="6.01805">
        <ele>648.2421875</ele>
      </trkpt>
      <trkpt lat="43.96851" lon="6.01799">
        <ele>647.5546875</ele>
      </trkpt>
      <trkpt lat="43.96824" lon="6.01786">
        <ele>644.80859375</ele>
      </trkpt>
      <trkpt lat="43.96808" lon="6.01776">
        <ele>644.2109375</ele>
      </trkpt>
      <trkpt lat="43.96798" lon="6.01771">
        <ele>643.86328125</ele>
      </trkpt>
      <trkpt lat="43.96789" lon="6.01766">
        <ele>643.34375</ele>
      </trkpt>
      <trkpt lat="43.96785" lon="6.01765">
        <ele>643.109375</ele>
      </trkpt>
      <trkpt lat="43.96782" lon="6.01765">
        <ele>642.70703125</ele>
      </trkpt>
      <trkpt lat="43.96779" lon="6.01768">
        <ele>641.953125</ele>
      </trkpt>
      <trkpt lat="43.96777" lon="6.01772">
        <ele>640.984375</ele>
      </trkpt>
      <trkpt lat="43.96776" lon="6.01777">
        <ele>639.98046875</ele>
      </trkpt>
      <trkpt lat="43.96777" lon="6.01784">
        <ele>639.07421875</ele>
      </trkpt>
      <trkpt lat="43.9678" lon="6.01789">
        <ele>638.609375</ele>
      </trkpt>
      <trkpt lat="43.96785" lon="6.01791">
        <ele>638.9375</ele>
      </trkpt>
      <trkpt lat="43.96794" lon="6.01793">
        <ele>639.671875</ele>
      </trkpt>
      <trkpt lat="43.96804" lon="6.01795">
        <ele>640.54296875</ele>
      </trkpt>
      <trkpt lat="43.96813" lon="6.018">
        <ele>641.0625</ele>
      </trkpt>
      <trkpt lat="43.96825" lon="6.01805">
        <ele>641.79296875</ele>
      </trkpt>
      <trkpt lat="43.96829" lon="6.01807">
        <ele>642.15234375</ele>
      </trkpt>
      <trkpt lat="43.96833" lon="6.0181">
        <ele>642.11328125</ele>
      </trkpt>
      <trkpt lat="43.96835" lon="6.01814">
        <ele>641.87890625</ele>
      </trkpt>
      <trkpt lat="43.96838" lon="6.01818">
        <ele>641.609375</ele>
      </trkpt>
      <trkpt lat="43.9684" lon="6.01822">
        <ele>641.14453125</ele>
      </trkpt>
      <trkpt lat="43.96842" lon="6.01829">
        <ele>640.25390625</ele>
      </trkpt>
      <trkpt lat="43.96843" lon="6.01834">
        <ele>639.3828125</ele>
      </trkpt>
      <trkpt lat="43.96844" lon="6.0184">
        <ele>638.296875</ele>
      </trkpt>
      <trkpt lat="43.96844" lon="6.01846">
        <ele>637.24609375</ele>
      </trkpt>
      <trkpt lat="43.96843" lon="6.01852">
        <ele>635.8359375</ele>
      </trkpt>
      <trkpt lat="43.96841" lon="6.01863">
        <ele>633.41015625</ele>
      </trkpt>
      <trkpt lat="43.9684" lon="6.01869">
        <ele>631.98046875</ele>
      </trkpt>
      <trkpt lat="43.9684" lon="6.01876">
        <ele>630.70703125</ele>
      </trkpt>
      <trkpt lat="43.96841" lon="6.01881">
        <ele>629.796875</ele>
      </trkpt>
      <trkpt lat="43.96842" lon="6.01888">
        <ele>628.67578125</ele>
      </trkpt>
      <trkpt lat="43.96843" lon="6.01893">
        <ele>627.8515625</ele>
      </trkpt>
      <trkpt lat="43.96845" lon="6.01898">
        <ele>627.015625</ele>
      </trkpt>
      <trkpt lat="43.96849" lon="6.01904">
        <ele>626.4140625</ele>
      </trkpt>
      <trkpt lat="43.96865" lon="6.01922">
        <ele>625.7578125</ele>
      </trkpt>
      <trkpt lat="43.96902" lon="6.0196">
        <ele>625.3671875</ele>
      </trkpt>
      <trkpt lat="43.96922" lon="6.01981">
        <ele>624.43359375</ele>
      </trkpt>
      <trkpt lat="43.96924" lon="6.01986">
        <ele>623.83984375</ele>
      </trkpt>
      <trkpt lat="43.96922" lon="6.01993">
        <ele>622.59765625</ele>
      </trkpt>
      <trkpt lat="43.96918" lon="6.01996">
        <ele>621.75390625</ele>
      </trkpt>
      <trkpt lat="43.96914" lon="6.01996">
        <ele>621.296875</ele>
      </trkpt>
      <trkpt lat="43.96911" lon="6.01994">
        <ele>621.26953125</ele>
      </trkpt>
      <trkpt lat="43.96895" lon="6.01982">
        <ele>621.15234375</ele>
      </trkpt>
      <trkpt lat="43.96869" lon="6.01964">
        <ele>620.43359375</ele>
      </trkpt>
      <trkpt lat="43.96854" lon="6.01955">
        <ele>619.69921875</ele>
      </trkpt>
      <trkpt lat="43.96839" lon="6.01949">
        <ele>618.6015625</ele>
      </trkpt>
      <trkpt lat="43.96832" lon="6.01947">
        <ele>617.890625</ele>
      </trkpt>
      <trkpt lat="43.96824" lon="6.01945">
        <ele>617.16796875</ele>
      </trkpt>
      <trkpt lat="43.96816" lon="6.01943">
        <ele>616.3671875</ele>
      </trkpt>
      <trkpt lat="43.96809" lon="6.01941">
        <ele>615.7578125</ele>
      </trkpt>
      <trkpt lat="43.96801" lon="6.01939">
        <ele>615.15625</ele>
      </trkpt>
      <trkpt lat="43.96794" lon="6.01937">
        <ele>614.5625</ele>
      </trkpt>
      <trkpt lat="43.9679" lon="6.01934">
        <ele>614.50390625</ele>
      </trkpt>
      <trkpt lat="43.96785" lon="6.0193">
        <ele>614.59765625</ele>
      </trkpt>
      <trkpt lat="43.96781" lon="6.01925">
        <ele>614.703125</ele>
      </trkpt>
      <trkpt lat="43.96778" lon="6.01921">
        <ele>614.94140625</ele>
      </trkpt>
      <trkpt lat="43.96775" lon="6.01916">
        <ele>615.34375</ele>
      </trkpt>
      <trkpt lat="43.96773" lon="6.0191">
        <ele>615.88671875</ele>
      </trkpt>
      <trkpt lat="43.9677" lon="6.01906">
        <ele>616.36328125</ele>
      </trkpt>
      <trkpt lat="43.96769" lon="6.01902">
        <ele>616.94921875</ele>
      </trkpt>
      <trkpt lat="43.96767" lon="6.01898">
        <ele>617.23046875</ele>
      </trkpt>
      <trkpt lat="43.96764" lon="6.01895">
        <ele>617.30078125</ele>
      </trkpt>
      <trkpt lat="43.96761" lon="6.01893">
        <ele>617.12890625</ele>
      </trkpt>
      <trkpt lat="43.96757" lon="6.01892">
        <ele>616.78515625</ele>
      </trkpt>
      <trkpt lat="43.96754" lon="6.01891">
        <ele>616.453125</ele>
      </trkpt>
      <trkpt lat="43.96722" lon="6.01892">
        <ele>611.06640625</ele>
      </trkpt>
      <trkpt lat="43.96708" lon="6.0189">
        <ele>609.3515625</ele>
      </trkpt>
      <trkpt lat="43.96694" lon="6.01886">
        <ele>608.53515625</ele>
      </trkpt>
      <trkpt lat="43.96682" lon="6.01877">
        <ele>608.765625</ele>
      </trkpt>
      <trkpt lat="43.96671" lon="6.01868">
        <ele>608.9765625</ele>
      </trkpt>
      <trkpt lat="43.96648" lon="6.0185">
        <ele>609.14453125</ele>
      </trkpt>
      <trkpt lat="43.96638" lon="6.01844">
        <ele>609.03515625</ele>
      </trkpt>
      <trkpt lat="43.9663" lon="6.01839">
        <ele>608.66015625</ele>
      </trkpt>
      <trkpt lat="43.96619" lon="6.01836">
        <ele>607.79296875</ele>
      </trkpt>
      <trkpt lat="43.96594" lon="6.01834">
        <ele>604.91796875</ele>
      </trkpt>
      <trkpt lat="43.96584" lon="6.01831">
        <ele>604.1640625</ele>
      </trkpt>
      <trkpt lat="43.96574" lon="6.01828">
        <ele>603.60546875</ele>
      </trkpt>
      <trkpt lat="43.96564" lon="6.01823">
        <ele>603.31640625</ele>
      </trkpt>
      <trkpt lat="43.96555" lon="6.01818">
        <ele>603.328125</ele>
      </trkpt>
      <trkpt lat="43.96541" lon="6.01813">
        <ele>602.9765625</ele>
      </trkpt>
      <trkpt lat="43.96527" lon="6.01809">
        <ele>602.125</ele>
      </trkpt>
      <trkpt lat="43.96513" lon="6.01808">
        <ele>600.81640625</ele>
      </trkpt>
      <trkpt lat="43.96477" lon="6.01806">
        <ele>597.27734375</ele>
      </trkpt>
      <trkpt lat="43.9646" lon="6.01805">
        <ele>595.4140625</ele>
      </trkpt>
      <trkpt lat="43.96443" lon="6.01803">
        <ele>593.74609375</ele>
      </trkpt>
      <trkpt lat="43.96409" lon="6.01797">
        <ele>590.3515625</ele>
      </trkpt>
      <trkpt lat="43.96403" lon="6.01795">
        <ele>589.8125</ele>
      </trkpt>
      <trkpt lat="43.96398" lon="6.01793">
        <ele>589.50390625</ele>
      </trkpt>
      <trkpt lat="43.96393" lon="6.01791">
        <ele>589.1953125</ele>
      </trkpt>
      <trkpt lat="43.96382" lon="6.01784">
        <ele>589.26953125</ele>
      </trkpt>
      <trkpt lat="43.96378" lon="6.01779">
        <ele>589.578125</ele>
      </trkpt>
      <trkpt lat="43.96369" lon="6.0177">
        <ele>590.046875</ele>
      </trkpt>
      <trkpt lat="43.96345" lon="6.01732">
        <ele>591.20703125</ele>
      </trkpt>
      <trkpt lat="43.96341" lon="6.01727">
        <ele>590.87890625</ele>
      </trkpt>
      <trkpt lat="43.96337" lon="6.01724">
        <ele>590.28125</ele>
      </trkpt>
      <trkpt lat="43.96333" lon="6.01719">
        <ele>589.81640625</ele>
      </trkpt>
      <trkpt lat="43.96327" lon="6.01716">
        <ele>588.96484375</ele>
      </trkpt>
      <trkpt lat="43.96323" lon="6.01714">
        <ele>588.23046875</ele>
      </trkpt>
      <trkpt lat="43.96318" lon="6.01711">
        <ele>587.44921875</ele>
      </trkpt>
      <trkpt lat="43.96302" lon="6.01709">
        <ele>584.2421875</ele>
      </trkpt>
      <trkpt lat="43.96285" lon="6.01709">
        <ele>580.76171875</ele>
      </trkpt>
      <trkpt lat="43.96279" lon="6.01707">
        <ele>579.5078125</ele>
      </trkpt>
      <trkpt lat="43.96274" lon="6.01706">
        <ele>578.484375</ele>
      </trkpt>
      <trkpt lat="43.96267" lon="6.01704">
        <ele>577.36328125</ele>
      </trkpt>
      <trkpt lat="43.96262" lon="6.01701">
        <ele>577.01953125</ele>
      </trkpt>
      <trkpt lat="43.96256" lon="6.01697">
        <ele>576.90625</ele>
      </trkpt>
      <trkpt lat="43.96251" lon="6.01692">
        <ele>576.75</ele>
      </trkpt>
      <trkpt lat="43.96217" lon="6.01657">
        <ele>577.609375</ele>
      </trkpt>
      <trkpt lat="43.96182" lon="6.01619">
        <ele>576.73046875</ele>
      </trkpt>
      <trkpt lat="43.96171" lon="6.01608">
        <ele>575.69921875</ele>
      </trkpt>
      <trkpt lat="43.96164" lon="6.01601">
        <ele>574.98046875</ele>
      </trkpt>
      <trkpt lat="43.96158" lon="6.01594">
        <ele>574.2578125</ele>
      </trkpt>
      <trkpt lat="43.96153" lon="6.01585">
        <ele>574.08984375</ele>
      </trkpt>
      <trkpt lat="43.96142" lon="6.0156">
        <ele>573.81640625</ele>
      </trkpt>
      <trkpt lat="43.96131" lon="6.01537">
        <ele>573.33203125</ele>
      </trkpt>
      <trkpt lat="43.96124" lon="6.01522">
        <ele>572.96484375</ele>
      </trkpt>
      <trkpt lat="43.96118" lon="6.01507">
        <ele>573.171875</ele>
      </trkpt>
      <trkpt lat="43.96112" lon="6.01493">
        <ele>573.1953125</ele>
      </trkpt>
      <trkpt lat="43.96104" lon="6.0148">
        <ele>572.77734375</ele>
      </trkpt>
      <trkpt lat="43.96083" lon="6.0145">
        <ele>572.0546875</ele>
      </trkpt>
      <trkpt lat="43.96048" lon="6.01403">
        <ele>571.3046875</ele>
      </trkpt>
      <trkpt lat="43.96009" lon="6.01347">
        <ele>569.83203125</ele>
      </trkpt>
      <trkpt lat="43.95984" lon="6.0131">
        <ele>568.83203125</ele>
      </trkpt>
      <trkpt lat="43.9595" lon="6.01263">
        <ele>567.7265625</ele>
      </trkpt>
      <trkpt lat="43.95942" lon="6.01251">
        <ele>567.48046875</ele>
      </trkpt>
      <trkpt lat="43.95934" lon="6.0124">
        <ele>566.8359375</ele>
      </trkpt>
      <trkpt lat="43.95927" lon="6.01228">
        <ele>566.890625</ele>
      </trkpt>
      <trkpt lat="43.95921" lon="6.01215">
        <ele>566.89453125</ele>
      </trkpt>
      <trkpt lat="43.95914" lon="6.01201">
        <ele>566.796875</ele>
      </trkpt>
      <trkpt lat="43.95902" lon="6.01173">
        <ele>566.12890625</ele>
      </trkpt>
      <trkpt lat="43.95892" lon="6.01145">
        <ele>565.66796875</ele>
      </trkpt>
      <trkpt lat="43.95881" lon="6.01112">
        <ele>565.4609375</ele>
      </trkpt>
      <trkpt lat="43.95871" lon="6.01079">
        <ele>565.265625</ele>
      </trkpt>
      <trkpt lat="43.95861" lon="6.01037">
        <ele>564.515625</ele>
      </trkpt>
      <trkpt lat="43.9585" lon="6.00996">
        <ele>562.12109375</ele>
      </trkpt>
      <trkpt lat="43.95842" lon="6.00971">
        <ele>559.75390625</ele>
      </trkpt>
      <trkpt lat="43.95835" lon="6.00948">
        <ele>557.50390625</ele>
      </trkpt>
      <trkpt lat="43.95804" lon="6.00861">
        <ele>551.85546875</ele>
      </trkpt>
      <trkpt lat="43.95799" lon="6.00845">
        <ele>551.06640625</ele>
      </trkpt>
      <trkpt lat="43.95796" lon="6.00829">
        <ele>550.45703125</ele>
      </trkpt>
      <trkpt lat="43.95794" lon="6.00812">
        <ele>550.24609375</ele>
      </trkpt>
      <trkpt lat="43.9579" lon="6.00756">
        <ele>548.54296875</ele>
      </trkpt>
      <trkpt lat="43.95789" lon="6.00716">
        <ele>545.46484375</ele>
      </trkpt>
      <trkpt lat="43.95788" lon="6.00676">
        <ele>541.4609375</ele>
      </trkpt>
      <trkpt lat="43.95788" lon="6.00666">
        <ele>540.3125</ele>
      </trkpt>
      <trkpt lat="43.95787" lon="6.00635">
        <ele>536.890625</ele>
      </trkpt>
      <trkpt lat="43.95787" lon="6.00615">
        <ele>536.49609375</ele>
      </trkpt>
      <trkpt lat="43.95781" lon="6.00557">
        <ele>538.3359375</ele>
      </trkpt>
      <trkpt lat="43.9578" lon="6.00542">
        <ele>540.3125</ele>
      </trkpt>
      <trkpt lat="43.95779" lon="6.00537">
        <ele>540.921875</ele>
      </trkpt>
      <trkpt lat="43.95778" lon="6.00532">
        <ele>541.51953125</ele>
      </trkpt>
      <trkpt lat="43.95776" lon="6.00526">
        <ele>541.95703125</ele>
      </trkpt>
      <trkpt lat="43.95774" lon="6.00521">
        <ele>542.52734375</ele>
      </trkpt>
      <trkpt lat="43.95772" lon="6.00517">
        <ele>543.09375</ele>
      </trkpt>
      <trkpt lat="43.95766" lon="6.00509">
        <ele>543.76171875</ele>
      </trkpt>
      <trkpt lat="43.95761" lon="6.005">
        <ele>544.5703125</ele>
      </trkpt>
      <trkpt lat="43.95755" lon="6.00491">
        <ele>545.3203125</ele>
      </trkpt>
      <trkpt lat="43.95751" lon="6.00482">
        <ele>545.86328125</ele>
      </trkpt>
      <trkpt lat="43.95747" lon="6.00471">
        <ele>546.53515625</ele>
      </trkpt>
      <trkpt lat="43.95743" lon="6.00462">
        <ele>546.84765625</ele>
      </trkpt>
      <trkpt lat="43.95736" lon="6.0044">
        <ele>547.984375</ele>
      </trkpt>
      <trkpt lat="43.95733" lon="6.00429">
        <ele>548.51953125</ele>
      </trkpt>
      <trkpt lat="43.95731" lon="6.00418">
        <ele>549.16015625</ele>
      </trkpt>
      <trkpt lat="43.95726" lon="6.00401">
        <ele>549.0546875</ele>
      </trkpt>
      <trkpt lat="43.95721" lon="6.00384">
        <ele>547.98828125</ele>
      </trkpt>
      <trkpt lat="43.95716" lon="6.00366">
        <ele>546.6875</ele>
      </trkpt>
      <trkpt lat="43.95711" lon="6.00355">
        <ele>545.5</ele>
      </trkpt>
      <trkpt lat="43.95709" lon="6.00349">
        <ele>545.3515625</ele>
      </trkpt>
      <trkpt lat="43.957" lon="6.00325">
        <ele>545.15625</ele>
      </trkpt>
      <trkpt lat="43.95679" lon="6.00275">
        <ele>543.51953125</ele>
      </trkpt>
      <trkpt lat="43.9567" lon="6.00249">
        <ele>542.421875</ele>
      </trkpt>
      <trkpt lat="43.9565" lon="6.00201">
        <ele>540.99609375</ele>
      </trkpt>
      <trkpt lat="43.9563" lon="6.00153">
        <ele>541.734375</ele>
      </trkpt>
      <trkpt lat="43.95609" lon="6.00102">
        <ele>539.82421875</ele>
      </trkpt>
      <trkpt lat="43.9559" lon="6.00052">
        <ele>537.08984375</ele>
      </trkpt>
      <trkpt lat="43.95583" lon="6.00034">
        <ele>535.984375</ele>
      </trkpt>
      <trkpt lat="43.95561" lon="5.99979">
        <ele>532.53515625</ele>
      </trkpt>
      <trkpt lat="43.95558" lon="5.99967">
        <ele>532.2265625</ele>
      </trkpt>
      <trkpt lat="43.95555" lon="5.99955">
        <ele>530.671875</ele>
      </trkpt>
      <trkpt lat="43.95552" lon="5.99943">
        <ele>529.15234375</ele>
      </trkpt>
      <trkpt lat="43.95549" lon="5.99923">
        <ele>527.5390625</ele>
      </trkpt>
      <trkpt lat="43.95543" lon="5.9988">
        <ele>522.97265625</ele>
      </trkpt>
      <trkpt lat="43.95543" lon="5.99876">
        <ele>522.58984375</ele>
      </trkpt>
      <trkpt lat="43.95538" lon="5.99829">
        <ele>519.359375</ele>
      </trkpt>
      <trkpt lat="43.95535" lon="5.99797">
        <ele>518.875</ele>
      </trkpt>
      <trkpt lat="43.95534" lon="5.99781">
        <ele>520.4921875</ele>
      </trkpt>
      <trkpt lat="43.95536" lon="5.9978">
        <ele>520.68359375</ele>
      </trkpt>
      <trkpt lat="43.95519" lon="5.99736">
        <ele>527.9</ele>
        <time>2019-06-24T11:19:21Z</time>
      </trkpt>
      <trkpt lat="43.95502" lon="5.99727">
        <ele>527.42</ele>
        <time>2019-06-24T11:19:23Z</time>
      </trkpt>
      <trkpt lat="43.95492" lon="5.99724">
        <ele>527.42</ele>
        <time>2019-06-24T11:19:24Z</time>
      </trkpt>
      <trkpt lat="43.95388" lon="5.99703">
        <ele>528.38</ele>
        <time>2019-06-24T11:19:32Z</time>
      </trkpt>
      <trkpt lat="43.95271" lon="5.99623">
        <ele>525.02</ele>
        <time>2019-06-24T11:19:40Z</time>
      </trkpt>
      <trkpt lat="43.95228" lon="5.99589">
        <ele>521.17</ele>
        <time>2019-06-24T11:19:43Z</time>
      </trkpt>
      <trkpt lat="43.95203" lon="5.99565">
        <ele>519.25</ele>
        <time>2019-06-24T11:19:45Z</time>
      </trkpt>
      <trkpt lat="43.95192" lon="5.99551">
        <ele>518.29</ele>
        <time>2019-06-24T11:19:46Z</time>
      </trkpt>
      <trkpt lat="43.95182" lon="5.99536">
        <ele>518.29</ele>
        <time>2019-06-24T11:19:47Z</time>
      </trkpt>
      <trkpt lat="43.95147" lon="5.9947">
        <ele>515.4</ele>
        <time>2019-06-24T11:19:51Z</time>
      </trkpt>
      <trkpt lat="43.9514" lon="5.99451">
        <ele>514.92</ele>
        <time>2019-06-24T11:19:52Z</time>
      </trkpt>
      <trkpt lat="43.95127" lon="5.99413">
        <ele>514.92</ele>
        <time>2019-06-24T11:19:54Z</time>
      </trkpt>
      <trkpt lat="43.95119" lon="5.99396">
        <ele>514.44</ele>
        <time>2019-06-24T11:19:55Z</time>
      </trkpt>
      <trkpt lat="43.95109" lon="5.99379">
        <ele>513.96</ele>
        <time>2019-06-24T11:19:56Z</time>
      </trkpt>
      <trkpt lat="43.95098" lon="5.99363">
        <ele>513.96</ele>
        <time>2019-06-24T11:19:57Z</time>
      </trkpt>
      <trkpt lat="43.95085" lon="5.99349">
        <ele>513.48</ele>
        <time>2019-06-24T11:19:58Z</time>
      </trkpt>
      <trkpt lat="43.94996" lon="5.99253">
        <ele>511.08</ele>
        <time>2019-06-24T11:20:05Z</time>
      </trkpt>
      <trkpt lat="43.94858" lon="5.99094">
        <ele>507.71</ele>
        <time>2019-06-24T11:20:16Z</time>
      </trkpt>
      <trkpt lat="43.94812" lon="5.99039">
        <ele>505.79</ele>
        <time>2019-06-24T11:20:20Z</time>
      </trkpt>
      <trkpt lat="43.9476" lon="5.9899">
        <ele>505.31</ele>
        <time>2019-06-24T11:20:24Z</time>
      </trkpt>
      <trkpt lat="43.94744" lon="5.98981">
        <ele>504.83</ele>
        <time>2019-06-24T11:20:25Z</time>
      </trkpt>
      <trkpt lat="43.94728" lon="5.98973">
        <ele>503.87</ele>
        <time>2019-06-24T11:20:26Z</time>
      </trkpt>
      <trkpt lat="43.94711" lon="5.98968">
        <ele>504.35</ele>
        <time>2019-06-24T11:20:27Z</time>
      </trkpt>
      <trkpt lat="43.94693" lon="5.98965">
        <ele>503.39</ele>
        <time>2019-06-24T11:20:28Z</time>
      </trkpt>
      <trkpt lat="43.94675" lon="5.98964">
        <ele>502.91</ele>
        <time>2019-06-24T11:20:29Z</time>
      </trkpt>
      <trkpt lat="43.94658" lon="5.98964">
        <ele>501.95</ele>
        <time>2019-06-24T11:20:30Z</time>
      </trkpt>
      <trkpt lat="43.9464" lon="5.98965">
        <ele>501.95</ele>
        <time>2019-06-24T11:20:31Z</time>
      </trkpt>
      <trkpt lat="43.94522" lon="5.98937">
        <ele>499.06</ele>
        <time>2019-06-24T11:20:38Z</time>
      </trkpt>
      <trkpt lat="43.94476" lon="5.98924">
        <ele>497.62</ele>
        <time>2019-06-24T11:20:41Z</time>
      </trkpt>
      <trkpt lat="43.94462" lon="5.98924">
        <ele>497.14</ele>
        <time>2019-06-24T11:20:42Z</time>
      </trkpt>
      <trkpt lat="43.94449" lon="5.98925">
        <ele>497.62</ele>
        <time>2019-06-24T11:20:43Z</time>
      </trkpt>
      <trkpt lat="43.94435" lon="5.98927">
        <ele>497.14</ele>
        <time>2019-06-24T11:20:44Z</time>
      </trkpt>
      <trkpt lat="43.94421" lon="5.9893">
        <ele>497.62</ele>
        <time>2019-06-24T11:20:45Z</time>
      </trkpt>
      <trkpt lat="43.9431" lon="5.98958">
        <ele>494.74</ele>
        <time>2019-06-24T11:20:52Z</time>
      </trkpt>
      <trkpt lat="43.94294" lon="5.98957">
        <ele>494.26</ele>
        <time>2019-06-24T11:20:53Z</time>
      </trkpt>
      <trkpt lat="43.94277" lon="5.98955">
        <ele>493.77</ele>
        <time>2019-06-24T11:20:54Z</time>
      </trkpt>
      <trkpt lat="43.94217" lon="5.98932">
        <ele>491.85</ele>
        <time>2019-06-24T11:20:58Z</time>
      </trkpt>
      <trkpt lat="43.94204" lon="5.98924">
        <ele>491.37</ele>
        <time>2019-06-24T11:20:59Z</time>
      </trkpt>
      <trkpt lat="43.94195" lon="5.98915">
        <ele>491.37</ele>
        <time>2019-06-24T11:21:00Z</time>
      </trkpt>
      <trkpt lat="43.94188" lon="5.98908">
        <ele>490.89</ele>
        <time>2019-06-24T11:21:01Z</time>
      </trkpt>
      <trkpt lat="43.94182" lon="5.98901">
        <ele>489.93</ele>
        <time>2019-06-24T11:21:02Z</time>
      </trkpt>
      <trkpt lat="43.94179" lon="5.98896">
        <ele>489.93</ele>
        <time>2019-06-24T11:21:03Z</time>
      </trkpt>
      <trkpt lat="43.9417" lon="5.9889">
        <ele>489.93</ele>
        <time>2019-06-24T11:21:06Z</time>
      </trkpt>
      <trkpt lat="43.94168" lon="5.98893">
        <ele>489.93</ele>
        <time>2019-06-24T11:21:07Z</time>
      </trkpt>
      <trkpt lat="43.94165" lon="5.98897">
        <ele>489.93</ele>
        <time>2019-06-24T11:21:08Z</time>
      </trkpt>
      <trkpt lat="43.94155" lon="5.9892">
        <ele>490.41</ele>
        <time>2019-06-24T11:21:11Z</time>
      </trkpt>
      <trkpt lat="43.94154" lon="5.98931">
        <ele>490.41</ele>
        <time>2019-06-24T11:21:12Z</time>
      </trkpt>
      <trkpt lat="43.94155" lon="5.98944">
        <ele>490.41</ele>
        <time>2019-06-24T11:21:13Z</time>
      </trkpt>
      <trkpt lat="43.94175" lon="5.99068">
        <ele>494.26</ele>
        <time>2019-06-24T11:21:20Z</time>
      </trkpt>
      <trkpt lat="43.94188" lon="5.99128">
        <ele>499.06</ele>
        <time>2019-06-24T11:21:23Z</time>
      </trkpt>
      <trkpt lat="43.94198" lon="5.99193">
        <ele>501.95</ele>
        <time>2019-06-24T11:21:26Z</time>
      </trkpt>
      <trkpt lat="43.94208" lon="5.9926">
        <ele>505.31</ele>
        <time>2019-06-24T11:21:29Z</time>
      </trkpt>
      <trkpt lat="43.9421" lon="5.99285">
        <ele>506.27</ele>
        <time>2019-06-24T11:21:30Z</time>
      </trkpt>
      <trkpt lat="43.9421" lon="5.99309">
        <ele>506.75</ele>
        <time>2019-06-24T11:21:31Z</time>
      </trkpt>
      <trkpt lat="43.94222" lon="5.99504">
        <ele>507.23</ele>
        <time>2019-06-24T11:21:39Z</time>
      </trkpt>
      <trkpt lat="43.94218" lon="5.99623">
        <ele>507.23</ele>
        <time>2019-06-24T11:21:46Z</time>
      </trkpt>
      <trkpt lat="43.94219" lon="5.9967">
        <ele>509.64</ele>
        <time>2019-06-24T11:21:50Z</time>
      </trkpt>
      <trkpt lat="43.94222" lon="5.99815">
        <ele>512.52</ele>
        <time>2019-06-24T11:21:58Z</time>
      </trkpt>
      <trkpt lat="43.94223" lon="5.99855">
        <ele>513.48</ele>
        <time>2019-06-24T11:22:00Z</time>
      </trkpt>
      <trkpt lat="43.94229" lon="5.9991">
        <ele>516.85</ele>
        <time>2019-06-24T11:22:03Z</time>
      </trkpt>
      <trkpt lat="43.9423" lon="5.99929">
        <ele>516.85</ele>
        <time>2019-06-24T11:22:04Z</time>
      </trkpt>
      <trkpt lat="43.94231" lon="6.00132">
        <ele>516.85</ele>
        <time>2019-06-24T11:22:14Z</time>
      </trkpt>
      <trkpt lat="43.94253" lon="6.00325">
        <ele>519.25</ele>
        <time>2019-06-24T11:22:23Z</time>
      </trkpt>
      <trkpt lat="43.94273" lon="6.00539">
        <ele>520.69</ele>
        <time>2019-06-24T11:22:32Z</time>
      </trkpt>
      <trkpt lat="43.94306" lon="6.00888">
        <ele>523.58</ele>
        <time>2019-06-24T11:22:47Z</time>
      </trkpt>
      <trkpt lat="43.94318" lon="6.00974">
        <ele>526.94</ele>
        <time>2019-06-24T11:22:51Z</time>
      </trkpt>
      <trkpt lat="43.94323" lon="6.01017">
        <ele>527.42</ele>
        <time>2019-06-24T11:22:53Z</time>
      </trkpt>
      <trkpt lat="43.94337" lon="6.01132">
        <ele>526.94</ele>
        <time>2019-06-24T11:22:59Z</time>
      </trkpt>
      <trkpt lat="43.9435" lon="6.01201">
        <ele>530.3</ele>
        <time>2019-06-24T11:23:03Z</time>
      </trkpt>
      <trkpt lat="43.94368" lon="6.01293">
        <ele>533.19</ele>
        <time>2019-06-24T11:23:08Z</time>
      </trkpt>
      <trkpt lat="43.94405" lon="6.01425">
        <ele>534.63</ele>
        <time>2019-06-24T11:23:16Z</time>
      </trkpt>
      <trkpt lat="43.94413" lon="6.01439">
        <ele>535.59</ele>
        <time>2019-06-24T11:23:17Z</time>
      </trkpt>
      <trkpt lat="43.94447" lon="6.01494">
        <ele>539.44</ele>
        <time>2019-06-24T11:23:21Z</time>
      </trkpt>
      <trkpt lat="43.94453" lon="6.01509">
        <ele>539.44</ele>
        <time>2019-06-24T11:23:22Z</time>
      </trkpt>
      <trkpt lat="43.94454" lon="6.01525">
        <ele>539.92</ele>
        <time>2019-06-24T11:23:23Z</time>
      </trkpt>
      <trkpt lat="43.94452" lon="6.01542">
        <ele>540.4</ele>
        <time>2019-06-24T11:23:24Z</time>
      </trkpt>
      <trkpt lat="43.94449" lon="6.01558">
        <ele>541.84</ele>
        <time>2019-06-24T11:23:25Z</time>
      </trkpt>
      <trkpt lat="43.94448" lon="6.01574">
        <ele>542.8</ele>
        <time>2019-06-24T11:23:26Z</time>
      </trkpt>
      <trkpt lat="43.94447" lon="6.01589">
        <ele>542.8</ele>
        <time>2019-06-24T11:23:27Z</time>
      </trkpt>
      <trkpt lat="43.94447" lon="6.01604">
        <ele>542.8</ele>
        <time>2019-06-24T11:23:28Z</time>
      </trkpt>
      <trkpt lat="43.94448" lon="6.0162">
        <ele>543.28</ele>
        <time>2019-06-24T11:23:29Z</time>
      </trkpt>
      <trkpt lat="43.9445" lon="6.01637">
        <ele>542.8</ele>
        <time>2019-06-24T11:23:30Z</time>
      </trkpt>
      <trkpt lat="43.94453" lon="6.01654">
        <ele>543.28</ele>
        <time>2019-06-24T11:23:31Z</time>
      </trkpt>
      <trkpt lat="43.94457" lon="6.01672">
        <ele>543.76</ele>
        <time>2019-06-24T11:23:32Z</time>
      </trkpt>
      <trkpt lat="43.94462" lon="6.01689">
        <ele>543.76</ele>
        <time>2019-06-24T11:23:33Z</time>
      </trkpt>
      <trkpt lat="43.94497" lon="6.01794">
        <ele>542.32</ele>
        <time>2019-06-24T11:23:41Z</time>
      </trkpt>
      <trkpt lat="43.94504" lon="6.01845">
        <ele>543.76</ele>
        <time>2019-06-24T11:23:45Z</time>
      </trkpt>
      <trkpt lat="43.94506" lon="6.01889">
        <ele>542.32</ele>
        <time>2019-06-24T11:23:48Z</time>
      </trkpt>
      <trkpt lat="43.94505" lon="6.01905">
        <ele>541.84</ele>
        <time>2019-06-24T11:23:49Z</time>
      </trkpt>
      <trkpt lat="43.94503" lon="6.01937">
        <ele>541.36</ele>
        <time>2019-06-24T11:23:51Z</time>
      </trkpt>
      <trkpt lat="43.94504" lon="6.01953">
        <ele>541.84</ele>
        <time>2019-06-24T11:23:52Z</time>
      </trkpt>
      <trkpt lat="43.94506" lon="6.0197">
        <ele>541.36</ele>
        <time>2019-06-24T11:23:53Z</time>
      </trkpt>
      <trkpt lat="43.94509" lon="6.01986">
        <ele>540.88</ele>
        <time>2019-06-24T11:23:54Z</time>
      </trkpt>
      <trkpt lat="43.94512" lon="6.02002">
        <ele>540.88</ele>
        <time>2019-06-24T11:23:55Z</time>
      </trkpt>
      <trkpt lat="43.94541" lon="6.02111">
        <ele>543.76</ele>
        <time>2019-06-24T11:24:02Z</time>
      </trkpt>
      <trkpt lat="43.94564" lon="6.02179">
        <ele>545.69</ele>
        <time>2019-06-24T11:24:06Z</time>
      </trkpt>
      <trkpt lat="43.94566" lon="6.02197">
        <ele>546.17</ele>
        <time>2019-06-24T11:24:07Z</time>
      </trkpt>
      <trkpt lat="43.94566" lon="6.02215">
        <ele>547.61</ele>
        <time>2019-06-24T11:24:08Z</time>
      </trkpt>
      <trkpt lat="43.94567" lon="6.02249">
        <ele>549.53</ele>
        <time>2019-06-24T11:24:10Z</time>
      </trkpt>
      <trkpt lat="43.94569" lon="6.02266">
        <ele>550.49</ele>
        <time>2019-06-24T11:24:11Z</time>
      </trkpt>
      <trkpt lat="43.94572" lon="6.02283">
        <ele>551.45</ele>
        <time>2019-06-24T11:24:12Z</time>
      </trkpt>
      <trkpt lat="43.94613" lon="6.02443">
        <ele>552.41</ele>
        <time>2019-06-24T11:24:21Z</time>
      </trkpt>
      <trkpt lat="43.94625" lon="6.02519">
        <ele>550.01</ele>
        <time>2019-06-24T11:24:26Z</time>
      </trkpt>
      <trkpt lat="43.94652" lon="6.02595">
        <ele>546.65</ele>
        <time>2019-06-24T11:24:32Z</time>
      </trkpt>
      <trkpt lat="43.94653" lon="6.026">
        <ele>546.17</ele>
        <time>2019-06-24T11:24:33Z</time>
      </trkpt>
      <trkpt lat="43.94653" lon="6.02603">
        <ele>546.17</ele>
        <time>2019-06-24T11:24:34Z</time>
      </trkpt>
      <trkpt lat="43.94651" lon="6.02604">
        <ele>546.17</ele>
        <time>2019-06-24T11:24:35Z</time>
      </trkpt>
      <trkpt lat="43.94649" lon="6.02604">
        <ele>546.65</ele>
        <time>2019-06-24T11:24:46Z</time>
      </trkpt>
      <trkpt lat="43.94643" lon="6.02605">
        <ele>546.17</ele>
        <time>2019-06-24T11:25:01Z</time>
      </trkpt>
      <trkpt lat="43.94641" lon="6.02604">
        <ele>546.17</ele>
        <time>2019-06-24T11:25:05Z</time>
      </trkpt>
      <trkpt lat="43.9464" lon="6.02603">
        <ele>546.17</ele>
        <time>2019-06-24T11:25:06Z</time>
      </trkpt>
      <trkpt lat="43.94638" lon="6.02602">
        <ele>545.69</ele>
        <time>2019-06-24T11:25:07Z</time>
      </trkpt>
      <trkpt lat="43.94636" lon="6.02602">
        <ele>545.69</ele>
        <time>2019-06-24T11:25:08Z</time>
      </trkpt>
      <trkpt lat="43.94636" lon="6.02602">
        <ele>542.32</ele>
        <time>2019-06-24T11:25:15Z</time>
      </trkpt>
      <trkpt lat="43.94636" lon="6.02602">
        <ele>547.61</ele>
        <time>2019-06-24T11:25:16Z</time>
      </trkpt>
      <trkpt lat="43.94626" lon="6.02596">
        <ele>545.2</ele>
        <time>2019-06-24T11:25:34Z</time>
      </trkpt>
      <trkpt lat="43.94624" lon="6.02595">
        <ele>545.2</ele>
        <time>2019-06-24T11:26:20Z</time>
      </trkpt>
      <trkpt lat="43.94611" lon="6.02598">
        <ele>544.72</ele>
        <time>2019-06-24T11:26:34Z</time>
      </trkpt>
      <trkpt lat="43.94574" lon="6.02626">
        <ele>543.28</ele>
        <time>2019-06-24T11:26:45Z</time>
      </trkpt>
      <trkpt lat="43.94563" lon="6.02635">
        <ele>542.32</ele>
        <time>2019-06-24T11:26:48Z</time>
      </trkpt>
      <trkpt lat="43.94536" lon="6.0265">
        <ele>542.8</ele>
        <time>2019-06-24T11:26:53Z</time>
      </trkpt>
      <trkpt lat="43.94529" lon="6.02651">
        <ele>542.32</ele>
        <time>2019-06-24T11:26:54Z</time>
      </trkpt>
      <trkpt lat="43.94523" lon="6.0265">
        <ele>542.8</ele>
        <time>2019-06-24T11:26:55Z</time>
      </trkpt>
      <trkpt lat="43.94494" lon="6.02641">
        <ele>541.36</ele>
        <time>2019-06-24T11:27:03Z</time>
      </trkpt>
      <trkpt lat="43.9448" lon="6.02636">
        <ele>541.36</ele>
        <time>2019-06-24T11:27:07Z</time>
      </trkpt>
      <trkpt lat="43.94475" lon="6.02636">
        <ele>541.36</ele>
        <time>2019-06-24T11:27:08Z</time>
      </trkpt>
      <trkpt lat="43.9447" lon="6.02637">
        <ele>542.32</ele>
        <time>2019-06-24T11:27:09Z</time>
      </trkpt>
      <trkpt lat="43.94405" lon="6.02666">
        <ele>543.28</ele>
        <time>2019-06-24T11:27:20Z</time>
      </trkpt>
      <trkpt lat="43.94382" lon="6.02676">
        <ele>545.2</ele>
        <time>2019-06-24T11:27:24Z</time>
      </trkpt>
      <trkpt lat="43.94377" lon="6.02677">
        <ele>545.2</ele>
        <time>2019-06-24T11:27:25Z</time>
      </trkpt>
      <trkpt lat="43.94371" lon="6.02676">
        <ele>545.69</ele>
        <time>2019-06-24T11:27:26Z</time>
      </trkpt>
      <trkpt lat="43.94365" lon="6.02673">
        <ele>546.17</ele>
        <time>2019-06-24T11:27:27Z</time>
      </trkpt>
      <trkpt lat="43.94359" lon="6.02669">
        <ele>547.13</ele>
        <time>2019-06-24T11:27:28Z</time>
      </trkpt>
      <trkpt lat="43.94353" lon="6.02665">
        <ele>548.09</ele>
        <time>2019-06-24T11:27:29Z</time>
      </trkpt>
      <trkpt lat="43.9434" lon="6.02656">
        <ele>550.01</ele>
        <time>2019-06-24T11:27:31Z</time>
      </trkpt>
      <trkpt lat="43.94333" lon="6.02653">
        <ele>550.01</ele>
        <time>2019-06-24T11:27:32Z</time>
      </trkpt>
      <trkpt lat="43.94301" lon="6.02642">
        <ele>553.38</ele>
        <time>2019-06-24T11:27:36Z</time>
      </trkpt>
      <trkpt lat="43.94284" lon="6.02638">
        <ele>554.82</ele>
        <time>2019-06-24T11:27:38Z</time>
      </trkpt>
      <trkpt lat="43.94276" lon="6.02638">
        <ele>554.82</ele>
        <time>2019-06-24T11:27:39Z</time>
      </trkpt>
      <trkpt lat="43.94245" lon="6.02644">
        <ele>557.22</ele>
        <time>2019-06-24T11:27:43Z</time>
      </trkpt>
      <trkpt lat="43.94238" lon="6.02648">
        <ele>558.18</ele>
        <time>2019-06-24T11:27:44Z</time>
      </trkpt>
      <trkpt lat="43.94231" lon="6.02654">
        <ele>558.66</ele>
        <time>2019-06-24T11:27:45Z</time>
      </trkpt>
      <trkpt lat="43.94225" lon="6.0266">
        <ele>559.14</ele>
        <time>2019-06-24T11:27:46Z</time>
      </trkpt>
      <trkpt lat="43.9422" lon="6.02668">
        <ele>560.11</ele>
        <time>2019-06-24T11:27:47Z</time>
      </trkpt>
      <trkpt lat="43.94216" lon="6.02677">
        <ele>560.59</ele>
        <time>2019-06-24T11:27:48Z</time>
      </trkpt>
      <trkpt lat="43.94211" lon="6.02685">
        <ele>561.55</ele>
        <time>2019-06-24T11:27:49Z</time>
      </trkpt>
      <trkpt lat="43.94206" lon="6.02691">
        <ele>561.07</ele>
        <time>2019-06-24T11:27:50Z</time>
      </trkpt>
      <trkpt lat="43.942" lon="6.02693">
        <ele>562.03</ele>
        <time>2019-06-24T11:27:51Z</time>
      </trkpt>
      <trkpt lat="43.94194" lon="6.02693">
        <ele>562.03</ele>
        <time>2019-06-24T11:27:52Z</time>
      </trkpt>
      <trkpt lat="43.94188" lon="6.0269">
        <ele>562.51</ele>
        <time>2019-06-24T11:27:53Z</time>
      </trkpt>
      <trkpt lat="43.94183" lon="6.02685">
        <ele>562.03</ele>
        <time>2019-06-24T11:27:54Z</time>
      </trkpt>
      <trkpt lat="43.94179" lon="6.02677">
        <ele>562.51</ele>
        <time>2019-06-24T11:27:55Z</time>
      </trkpt>
      <trkpt lat="43.94177" lon="6.02669">
        <ele>562.51</ele>
        <time>2019-06-24T11:27:56Z</time>
      </trkpt>
      <trkpt lat="43.94176" lon="6.02659">
        <ele>562.99</ele>
        <time>2019-06-24T11:27:57Z</time>
      </trkpt>
      <trkpt lat="43.94174" lon="6.02649">
        <ele>563.95</ele>
        <time>2019-06-24T11:27:58Z</time>
      </trkpt>
      <trkpt lat="43.94172" lon="6.02638">
        <ele>563.95</ele>
        <time>2019-06-24T11:27:59Z</time>
      </trkpt>
      <trkpt lat="43.94161" lon="6.02598">
        <ele>565.87</ele>
        <time>2019-06-24T11:28:03Z</time>
      </trkpt>
      <trkpt lat="43.94156" lon="6.0259">
        <ele>566.35</ele>
        <time>2019-06-24T11:28:04Z</time>
      </trkpt>
      <trkpt lat="43.94147" lon="6.02575">
        <ele>567.8</ele>
        <time>2019-06-24T11:28:06Z</time>
      </trkpt>
      <trkpt lat="43.94145" lon="6.02567">
        <ele>567.8</ele>
        <time>2019-06-24T11:28:07Z</time>
      </trkpt>
      <trkpt lat="43.94144" lon="6.02557">
        <ele>568.28</ele>
        <time>2019-06-24T11:28:08Z</time>
      </trkpt>
      <trkpt lat="43.94145" lon="6.02547">
        <ele>568.28</ele>
        <time>2019-06-24T11:28:09Z</time>
      </trkpt>
      <trkpt lat="43.94147" lon="6.02537">
        <ele>569.24</ele>
        <time>2019-06-24T11:28:10Z</time>
      </trkpt>
      <trkpt lat="43.94148" lon="6.02528">
        <ele>569.24</ele>
        <time>2019-06-24T11:28:11Z</time>
      </trkpt>
      <trkpt lat="43.94147" lon="6.0252">
        <ele>570.2</ele>
        <time>2019-06-24T11:28:12Z</time>
      </trkpt>
      <trkpt lat="43.94144" lon="6.02513">
        <ele>570.68</ele>
        <time>2019-06-24T11:28:13Z</time>
      </trkpt>
      <trkpt lat="43.9414" lon="6.02508">
        <ele>571.16</ele>
        <time>2019-06-24T11:28:14Z</time>
      </trkpt>
      <trkpt lat="43.94135" lon="6.02505">
        <ele>571.64</ele>
        <time>2019-06-24T11:28:15Z</time>
      </trkpt>
      <trkpt lat="43.94129" lon="6.02503">
        <ele>572.12</ele>
        <time>2019-06-24T11:28:16Z</time>
      </trkpt>
      <trkpt lat="43.94122" lon="6.02503">
        <ele>572.6</ele>
        <time>2019-06-24T11:28:17Z</time>
      </trkpt>
      <trkpt lat="43.94114" lon="6.02503">
        <ele>573.08</ele>
        <time>2019-06-24T11:28:18Z</time>
      </trkpt>
      <trkpt lat="43.94079" lon="6.02501">
        <ele>575.97</ele>
        <time>2019-06-24T11:28:23Z</time>
      </trkpt>
      <trkpt lat="43.94076" lon="6.02498">
        <ele>576.45</ele>
        <time>2019-06-24T11:28:24Z</time>
      </trkpt>
      <trkpt lat="43.94075" lon="6.02494">
        <ele>575.49</ele>
        <time>2019-06-24T11:28:25Z</time>
      </trkpt>
      <trkpt lat="43.94076" lon="6.02489">
        <ele>576.45</ele>
        <time>2019-06-24T11:28:26Z</time>
      </trkpt>
      <trkpt lat="43.94079" lon="6.02485">
        <ele>576.93</ele>
        <time>2019-06-24T11:28:27Z</time>
      </trkpt>
      <trkpt lat="43.94085" lon="6.0248">
        <ele>576.93</ele>
        <time>2019-06-24T11:28:28Z</time>
      </trkpt>
      <trkpt lat="43.94091" lon="6.02476">
        <ele>577.41</ele>
        <time>2019-06-24T11:28:29Z</time>
      </trkpt>
      <trkpt lat="43.94098" lon="6.0247">
        <ele>577.89</ele>
        <time>2019-06-24T11:28:30Z</time>
      </trkpt>
      <trkpt lat="43.94104" lon="6.02463">
        <ele>578.37</ele>
        <time>2019-06-24T11:28:31Z</time>
      </trkpt>
      <trkpt lat="43.9412" lon="6.02439">
        <ele>579.81</ele>
        <time>2019-06-24T11:28:34Z</time>
      </trkpt>
      <trkpt lat="43.94123" lon="6.02431">
        <ele>580.29</ele>
        <time>2019-06-24T11:28:35Z</time>
      </trkpt>
      <trkpt lat="43.94125" lon="6.02424">
        <ele>580.77</ele>
        <time>2019-06-24T11:28:36Z</time>
      </trkpt>
      <trkpt lat="43.94125" lon="6.02417">
        <ele>580.77</ele>
        <time>2019-06-24T11:28:37Z</time>
      </trkpt>
      <trkpt lat="43.94124" lon="6.02408">
        <ele>581.25</ele>
        <time>2019-06-24T11:28:38Z</time>
      </trkpt>
      <trkpt lat="43.94122" lon="6.024">
        <ele>582.22</ele>
        <time>2019-06-24T11:28:39Z</time>
      </trkpt>
      <trkpt lat="43.9412" lon="6.0239">
        <ele>582.7</ele>
        <time>2019-06-24T11:28:40Z</time>
      </trkpt>
      <trkpt lat="43.94115" lon="6.02369">
        <ele>583.66</ele>
        <time>2019-06-24T11:28:42Z</time>
      </trkpt>
      <trkpt lat="43.94115" lon="6.0236">
        <ele>584.14</ele>
        <time>2019-06-24T11:28:43Z</time>
      </trkpt>
      <trkpt lat="43.94117" lon="6.02352">
        <ele>584.14</ele>
        <time>2019-06-24T11:28:44Z</time>
      </trkpt>
      <trkpt lat="43.94125" lon="6.02328">
        <ele>585.58</ele>
        <time>2019-06-24T11:28:47Z</time>
      </trkpt>
      <trkpt lat="43.94126" lon="6.0232">
        <ele>586.54</ele>
        <time>2019-06-24T11:28:48Z</time>
      </trkpt>
      <trkpt lat="43.94125" lon="6.02312">
        <ele>586.54</ele>
        <time>2019-06-24T11:28:49Z</time>
      </trkpt>
      <trkpt lat="43.94123" lon="6.02303">
        <ele>587.02</ele>
        <time>2019-06-24T11:28:50Z</time>
      </trkpt>
      <trkpt lat="43.9412" lon="6.02295">
        <ele>587.5</ele>
        <time>2019-06-24T11:28:51Z</time>
      </trkpt>
      <trkpt lat="43.94115" lon="6.02287">
        <ele>587.98</ele>
        <time>2019-06-24T11:28:52Z</time>
      </trkpt>
      <trkpt lat="43.94109" lon="6.0228">
        <ele>588.46</ele>
        <time>2019-06-24T11:28:53Z</time>
      </trkpt>
      <trkpt lat="43.94103" lon="6.02275">
        <ele>588.95</ele>
        <time>2019-06-24T11:28:54Z</time>
      </trkpt>
      <trkpt lat="43.94095" lon="6.02271">
        <ele>589.91</ele>
        <time>2019-06-24T11:28:55Z</time>
      </trkpt>
      <trkpt lat="43.94088" lon="6.02269">
        <ele>590.39</ele>
        <time>2019-06-24T11:28:56Z</time>
      </trkpt>
      <trkpt lat="43.9408" lon="6.02266">
        <ele>590.87</ele>
        <time>2019-06-24T11:28:57Z</time>
      </trkpt>
      <trkpt lat="43.94072" lon="6.02263">
        <ele>591.35</ele>
        <time>2019-06-24T11:28:58Z</time>
      </trkpt>
      <trkpt lat="43.94065" lon="6.02258">
        <ele>592.79</ele>
        <time>2019-06-24T11:28:59Z</time>
      </trkpt>
      <trkpt lat="43.94059" lon="6.0225">
        <ele>593.27</ele>
        <time>2019-06-24T11:29:00Z</time>
      </trkpt>
      <trkpt lat="43.94055" lon="6.02242">
        <ele>593.75</ele>
        <time>2019-06-24T11:29:01Z</time>
      </trkpt>
      <trkpt lat="43.94051" lon="6.02233">
        <ele>594.23</ele>
        <time>2019-06-24T11:29:02Z</time>
      </trkpt>
      <trkpt lat="43.94048" lon="6.02223">
        <ele>595.19</ele>
        <time>2019-06-24T11:29:03Z</time>
      </trkpt>
      <trkpt lat="43.94044" lon="6.02215">
        <ele>595.67</ele>
        <time>2019-06-24T11:29:04Z</time>
      </trkpt>
      <trkpt lat="43.94041" lon="6.02207">
        <ele>596.15</ele>
        <time>2019-06-24T11:29:05Z</time>
      </trkpt>
      <trkpt lat="43.94039" lon="6.02202">
        <ele>596.15</ele>
        <time>2019-06-24T11:29:06Z</time>
      </trkpt>
      <trkpt lat="43.94036" lon="6.02199">
        <ele>596.15</ele>
        <time>2019-06-24T11:29:07Z</time>
      </trkpt>
      <trkpt lat="43.94033" lon="6.02198">
        <ele>596.15</ele>
        <time>2019-06-24T11:29:08Z</time>
      </trkpt>
      <trkpt lat="43.94031" lon="6.02199">
        <ele>596.64</ele>
        <time>2019-06-24T11:29:09Z</time>
      </trkpt>
      <trkpt lat="43.94028" lon="6.02202">
        <ele>597.12</ele>
        <time>2019-06-24T11:29:10Z</time>
      </trkpt>
      <trkpt lat="43.94027" lon="6.02205">
        <ele>597.12</ele>
        <time>2019-06-24T11:29:11Z</time>
      </trkpt>
      <trkpt lat="43.94027" lon="6.0221">
        <ele>597.6</ele>
        <time>2019-06-24T11:29:12Z</time>
      </trkpt>
      <trkpt lat="43.94028" lon="6.02216">
        <ele>598.08</ele>
        <time>2019-06-24T11:29:13Z</time>
      </trkpt>
      <trkpt lat="43.94031" lon="6.02223">
        <ele>598.56</ele>
        <time>2019-06-24T11:29:14Z</time>
      </trkpt>
      <trkpt lat="43.94034" lon="6.02231">
        <ele>599.04</ele>
        <time>2019-06-24T11:29:15Z</time>
      </trkpt>
      <trkpt lat="43.94037" lon="6.0224">
        <ele>599.52</ele>
        <time>2019-06-24T11:29:16Z</time>
      </trkpt>
      <trkpt lat="43.94045" lon="6.02269">
        <ele>600.96</ele>
        <time>2019-06-24T11:29:19Z</time>
      </trkpt>
      <trkpt lat="43.94048" lon="6.02287">
        <ele>601.44</ele>
        <time>2019-06-24T11:29:21Z</time>
      </trkpt>
      <trkpt lat="43.94048" lon="6.02296">
        <ele>601.92</ele>
        <time>2019-06-24T11:29:22Z</time>
      </trkpt>
      <trkpt lat="43.94047" lon="6.02304">
        <ele>602.4</ele>
        <time>2019-06-24T11:29:23Z</time>
      </trkpt>
      <trkpt lat="43.94043" lon="6.02312">
        <ele>603.36</ele>
        <time>2019-06-24T11:29:24Z</time>
      </trkpt>
      <trkpt lat="43.94038" lon="6.02319">
        <ele>603.85</ele>
        <time>2019-06-24T11:29:25Z</time>
      </trkpt>
      <trkpt lat="43.94034" lon="6.02328">
        <ele>604.33</ele>
        <time>2019-06-24T11:29:26Z</time>
      </trkpt>
      <trkpt lat="43.94032" lon="6.02338">
        <ele>605.29</ele>
        <time>2019-06-24T11:29:27Z</time>
      </trkpt>
      <trkpt lat="43.94031" lon="6.02349">
        <ele>605.77</ele>
        <time>2019-06-24T11:29:28Z</time>
      </trkpt>
      <trkpt lat="43.9403" lon="6.02359">
        <ele>606.25</ele>
        <time>2019-06-24T11:29:29Z</time>
      </trkpt>
      <trkpt lat="43.9403" lon="6.02369">
        <ele>606.73</ele>
        <time>2019-06-24T11:29:30Z</time>
      </trkpt>
      <trkpt lat="43.9403" lon="6.02378">
        <ele>607.21</ele>
        <time>2019-06-24T11:29:31Z</time>
      </trkpt>
      <trkpt lat="43.94029" lon="6.02385">
        <ele>607.21</ele>
        <time>2019-06-24T11:29:32Z</time>
      </trkpt>
      <trkpt lat="43.94027" lon="6.02393">
        <ele>608.17</ele>
        <time>2019-06-24T11:29:33Z</time>
      </trkpt>
      <trkpt lat="43.94023" lon="6.02399">
        <ele>607.69</ele>
        <time>2019-06-24T11:29:34Z</time>
      </trkpt>
      <trkpt lat="43.94018" lon="6.02405">
        <ele>608.17</ele>
        <time>2019-06-24T11:29:35Z</time>
      </trkpt>
      <trkpt lat="43.94012" lon="6.02411">
        <ele>609.13</ele>
        <time>2019-06-24T11:29:36Z</time>
      </trkpt>
      <trkpt lat="43.94006" lon="6.02415">
        <ele>610.09</ele>
        <time>2019-06-24T11:29:37Z</time>
      </trkpt>
      <trkpt lat="43.93998" lon="6.02419">
        <ele>610.09</ele>
        <time>2019-06-24T11:29:38Z</time>
      </trkpt>
      <trkpt lat="43.9399" lon="6.02423">
        <ele>610.57</ele>
        <time>2019-06-24T11:29:39Z</time>
      </trkpt>
      <trkpt lat="43.93959" lon="6.02439">
        <ele>613.46</ele>
        <time>2019-06-24T11:29:43Z</time>
      </trkpt>
      <trkpt lat="43.93944" lon="6.02447">
        <ele>614.42</ele>
        <time>2019-06-24T11:29:45Z</time>
      </trkpt>
      <trkpt lat="43.93931" lon="6.02455">
        <ele>615.86</ele>
        <time>2019-06-24T11:29:47Z</time>
      </trkpt>
      <trkpt lat="43.93925" lon="6.02457">
        <ele>615.86</ele>
        <time>2019-06-24T11:29:48Z</time>
      </trkpt>
      <trkpt lat="43.93921" lon="6.02458">
        <ele>615.38</ele>
        <time>2019-06-24T11:29:49Z</time>
      </trkpt>
      <trkpt lat="43.93917" lon="6.02456">
        <ele>615.38</ele>
        <time>2019-06-24T11:29:50Z</time>
      </trkpt>
      <trkpt lat="43.93916" lon="6.02452">
        <ele>615.86</ele>
        <time>2019-06-24T11:29:51Z</time>
      </trkpt>
      <trkpt lat="43.93916" lon="6.02447">
        <ele>616.34</ele>
        <time>2019-06-24T11:29:52Z</time>
      </trkpt>
      <trkpt lat="43.93917" lon="6.02442">
        <ele>617.3</ele>
        <time>2019-06-24T11:29:53Z</time>
      </trkpt>
      <trkpt lat="43.9392" lon="6.02438">
        <ele>617.3</ele>
        <time>2019-06-24T11:29:54Z</time>
      </trkpt>
      <trkpt lat="43.93925" lon="6.02435">
        <ele>617.3</ele>
        <time>2019-06-24T11:29:55Z</time>
      </trkpt>
      <trkpt lat="43.9393" lon="6.02431">
        <ele>618.26</ele>
        <time>2019-06-24T11:29:56Z</time>
      </trkpt>
      <trkpt lat="43.93936" lon="6.02426">
        <ele>618.75</ele>
        <time>2019-06-24T11:29:57Z</time>
      </trkpt>
      <trkpt lat="43.93941" lon="6.0242">
        <ele>619.23</ele>
        <time>2019-06-24T11:29:58Z</time>
      </trkpt>
      <trkpt lat="43.93946" lon="6.02414">
        <ele>619.23</ele>
        <time>2019-06-24T11:29:59Z</time>
      </trkpt>
      <trkpt lat="43.93951" lon="6.02408">
        <ele>619.71</ele>
        <time>2019-06-24T11:30:00Z</time>
      </trkpt>
      <trkpt lat="43.93957" lon="6.02403">
        <ele>620.19</ele>
        <time>2019-06-24T11:30:01Z</time>
      </trkpt>
      <trkpt lat="43.93967" lon="6.02394">
        <ele>621.15</ele>
        <time>2019-06-24T11:30:03Z</time>
      </trkpt>
      <trkpt lat="43.93971" lon="6.02389">
        <ele>621.63</ele>
        <time>2019-06-24T11:30:04Z</time>
      </trkpt>
      <trkpt lat="43.93974" lon="6.02383">
        <ele>622.11</ele>
        <time>2019-06-24T11:30:05Z</time>
      </trkpt>
      <trkpt lat="43.93975" lon="6.02376">
        <ele>621.63</ele>
        <time>2019-06-24T11:30:06Z</time>
      </trkpt>
      <trkpt lat="43.93976" lon="6.02369">
        <ele>622.59</ele>
        <time>2019-06-24T11:30:07Z</time>
      </trkpt>
      <trkpt lat="43.93975" lon="6.02362">
        <ele>622.59</ele>
        <time>2019-06-24T11:30:08Z</time>
      </trkpt>
      <trkpt lat="43.93972" lon="6.02338">
        <ele>624.51</ele>
        <time>2019-06-24T11:30:11Z</time>
      </trkpt>
      <trkpt lat="43.93969" lon="6.023">
        <ele>625.96</ele>
        <time>2019-06-24T11:30:19Z</time>
      </trkpt>
      <trkpt lat="43.93967" lon="6.02294">
        <ele>625.96</ele>
        <time>2019-06-24T11:30:20Z</time>
      </trkpt>
      <trkpt lat="43.93964" lon="6.02286">
        <ele>626.92</ele>
        <time>2019-06-24T11:30:21Z</time>
      </trkpt>
      <trkpt lat="43.9394" lon="6.02235">
        <ele>629.8</ele>
        <time>2019-06-24T11:30:27Z</time>
      </trkpt>
      <trkpt lat="43.93934" lon="6.02228">
        <ele>630.28</ele>
        <time>2019-06-24T11:30:28Z</time>
      </trkpt>
      <trkpt lat="43.93927" lon="6.02221">
        <ele>630.76</ele>
        <time>2019-06-24T11:30:29Z</time>
      </trkpt>
      <trkpt lat="43.9392" lon="6.02215">
        <ele>631.72</ele>
        <time>2019-06-24T11:30:30Z</time>
      </trkpt>
      <trkpt lat="43.93888" lon="6.02192">
        <ele>634.61</ele>
        <time>2019-06-24T11:30:34Z</time>
      </trkpt>
      <trkpt lat="43.93862" lon="6.02172">
        <ele>637.01</ele>
        <time>2019-06-24T11:30:38Z</time>
      </trkpt>
      <trkpt lat="43.93857" lon="6.02169">
        <ele>637.01</ele>
        <time>2019-06-24T11:30:39Z</time>
      </trkpt>
      <trkpt lat="43.93838" lon="6.0215">
        <ele>637.97</ele>
        <time>2019-06-24T11:30:46Z</time>
      </trkpt>
      <trkpt lat="43.93832" lon="6.02128">
        <ele>637.01</ele>
        <time>2019-06-24T11:30:49Z</time>
      </trkpt>
      <trkpt lat="43.93829" lon="6.0212">
        <ele>636.05</ele>
        <time>2019-06-24T11:30:50Z</time>
      </trkpt>
      <trkpt lat="43.93824" lon="6.02112">
        <ele>636.05</ele>
        <time>2019-06-24T11:30:51Z</time>
      </trkpt>
      <trkpt lat="43.93813" lon="6.02096">
        <ele>634.13</ele>
        <time>2019-06-24T11:30:53Z</time>
      </trkpt>
      <trkpt lat="43.93807" lon="6.0209">
        <ele>634.13</ele>
        <time>2019-06-24T11:30:54Z</time>
      </trkpt>
      <trkpt lat="43.938" lon="6.02085">
        <ele>633.65</ele>
        <time>2019-06-24T11:30:55Z</time>
      </trkpt>
      <trkpt lat="43.93761" lon="6.02067">
        <ele>629.8</ele>
        <time>2019-06-24T11:31:01Z</time>
      </trkpt>
      <trkpt lat="43.93753" lon="6.02065">
        <ele>629.32</ele>
        <time>2019-06-24T11:31:02Z</time>
      </trkpt>
      <trkpt lat="43.93744" lon="6.02066">
        <ele>628.36</ele>
        <time>2019-06-24T11:31:03Z</time>
      </trkpt>
      <trkpt lat="43.93737" lon="6.02071">
        <ele>627.4</ele>
        <time>2019-06-24T11:31:04Z</time>
      </trkpt>
      <trkpt lat="43.9373" lon="6.0208">
        <ele>626.92</ele>
        <time>2019-06-24T11:31:05Z</time>
      </trkpt>
      <trkpt lat="43.93726" lon="6.02093">
        <ele>625.96</ele>
        <time>2019-06-24T11:31:06Z</time>
      </trkpt>
      <trkpt lat="43.93723" lon="6.0211">
        <ele>625.47</ele>
        <time>2019-06-24T11:31:07Z</time>
      </trkpt>
      <trkpt lat="43.93719" lon="6.02126">
        <ele>624.51</ele>
        <time>2019-06-24T11:31:08Z</time>
      </trkpt>
      <trkpt lat="43.93714" lon="6.02142">
        <ele>623.55</ele>
        <time>2019-06-24T11:31:09Z</time>
      </trkpt>
      <trkpt lat="43.93706" lon="6.02156">
        <ele>622.59</ele>
        <time>2019-06-24T11:31:10Z</time>
      </trkpt>
      <trkpt lat="43.93697" lon="6.0217">
        <ele>622.11</ele>
        <time>2019-06-24T11:31:11Z</time>
      </trkpt>
      <trkpt lat="43.93687" lon="6.02182">
        <ele>621.15</ele>
        <time>2019-06-24T11:31:12Z</time>
      </trkpt>
      <trkpt lat="43.93675" lon="6.02192">
        <ele>620.19</ele>
        <time>2019-06-24T11:31:13Z</time>
      </trkpt>
      <trkpt lat="43.93663" lon="6.02201">
        <ele>618.75</ele>
        <time>2019-06-24T11:31:14Z</time>
      </trkpt>
      <trkpt lat="43.93652" lon="6.02208">
        <ele>617.78</ele>
        <time>2019-06-24T11:31:15Z</time>
      </trkpt>
      <trkpt lat="43.93641" lon="6.02211">
        <ele>616.34</ele>
        <time>2019-06-24T11:31:16Z</time>
      </trkpt>
      <trkpt lat="43.9363" lon="6.02211">
        <ele>614.9</ele>
        <time>2019-06-24T11:31:17Z</time>
      </trkpt>
      <trkpt lat="43.9362" lon="6.02208">
        <ele>613.94</ele>
        <time>2019-06-24T11:31:18Z</time>
      </trkpt>
      <trkpt lat="43.93599" lon="6.02202">
        <ele>612.02</ele>
        <time>2019-06-24T11:31:20Z</time>
      </trkpt>
      <trkpt lat="43.93589" lon="6.02204">
        <ele>611.06</ele>
        <time>2019-06-24T11:31:21Z</time>
      </trkpt>
      <trkpt lat="43.93578" lon="6.02209">
        <ele>610.09</ele>
        <time>2019-06-24T11:31:22Z</time>
      </trkpt>
      <trkpt lat="43.93569" lon="6.02217">
        <ele>609.13</ele>
        <time>2019-06-24T11:31:23Z</time>
      </trkpt>
      <trkpt lat="43.93561" lon="6.02229">
        <ele>608.17</ele>
        <time>2019-06-24T11:31:24Z</time>
      </trkpt>
      <trkpt lat="43.93555" lon="6.02242">
        <ele>607.69</ele>
        <time>2019-06-24T11:31:25Z</time>
      </trkpt>
      <trkpt lat="43.9355" lon="6.02258">
        <ele>606.73</ele>
        <time>2019-06-24T11:31:26Z</time>
      </trkpt>
      <trkpt lat="43.93546" lon="6.02275">
        <ele>605.77</ele>
        <time>2019-06-24T11:31:27Z</time>
      </trkpt>
      <trkpt lat="43.93532" lon="6.0234">
        <ele>601.92</ele>
        <time>2019-06-24T11:31:31Z</time>
      </trkpt>
      <trkpt lat="43.93532" lon="6.02354">
        <ele>600.96</ele>
        <time>2019-06-24T11:31:32Z</time>
      </trkpt>
      <trkpt lat="43.93533" lon="6.02367">
        <ele>600</ele>
        <time>2019-06-24T11:31:33Z</time>
      </trkpt>
      <trkpt lat="43.93536" lon="6.02384">
        <ele>599.04</ele>
        <time>2019-06-24T11:31:35Z</time>
      </trkpt>
      <trkpt lat="43.93534" lon="6.02389">
        <ele>598.56</ele>
        <time>2019-06-24T11:31:36Z</time>
      </trkpt>
      <trkpt lat="43.9353" lon="6.02389">
        <ele>598.08</ele>
        <time>2019-06-24T11:31:37Z</time>
      </trkpt>
      <trkpt lat="43.93526" lon="6.02385">
        <ele>597.12</ele>
        <time>2019-06-24T11:31:38Z</time>
      </trkpt>
      <trkpt lat="43.93524" lon="6.02379">
        <ele>597.12</ele>
        <time>2019-06-24T11:31:39Z</time>
      </trkpt>
      <trkpt lat="43.93522" lon="6.0237">
        <ele>597.12</ele>
        <time>2019-06-24T11:31:40Z</time>
      </trkpt>
      <trkpt lat="43.9352" lon="6.0236">
        <ele>596.64</ele>
        <time>2019-06-24T11:31:41Z</time>
      </trkpt>
      <trkpt lat="43.93519" lon="6.0235">
        <ele>596.64</ele>
        <time>2019-06-24T11:31:42Z</time>
      </trkpt>
      <trkpt lat="43.93519" lon="6.02342">
        <ele>595.67</ele>
        <time>2019-06-24T11:31:43Z</time>
      </trkpt>
      <trkpt lat="43.93519" lon="6.02336">
        <ele>595.19</ele>
        <time>2019-06-24T11:31:44Z</time>
      </trkpt>
      <trkpt lat="43.93518" lon="6.02329">
        <ele>593.75</ele>
        <time>2019-06-24T11:31:46Z</time>
      </trkpt>
      <trkpt lat="43.93516" lon="6.02329">
        <ele>594.23</ele>
        <time>2019-06-24T11:31:47Z</time>
      </trkpt>
      <trkpt lat="43.93514" lon="6.02331">
        <ele>594.23</ele>
        <time>2019-06-24T11:31:48Z</time>
      </trkpt>
      <trkpt lat="43.93513" lon="6.02334">
        <ele>593.75</ele>
        <time>2019-06-24T11:31:49Z</time>
      </trkpt>
      <trkpt lat="43.93512" lon="6.02339">
        <ele>593.75</ele>
        <time>2019-06-24T11:31:50Z</time>
      </trkpt>
      <trkpt lat="43.93511" lon="6.02347">
        <ele>592.79</ele>
        <time>2019-06-24T11:31:51Z</time>
      </trkpt>
      <trkpt lat="43.93509" lon="6.02355">
        <ele>592.31</ele>
        <time>2019-06-24T11:31:52Z</time>
      </trkpt>
      <trkpt lat="43.93506" lon="6.02364">
        <ele>591.83</ele>
        <time>2019-06-24T11:31:53Z</time>
      </trkpt>
      <trkpt lat="43.93503" lon="6.02374">
        <ele>590.87</ele>
        <time>2019-06-24T11:31:54Z</time>
      </trkpt>
      <trkpt lat="43.93501" lon="6.02384">
        <ele>589.91</ele>
        <time>2019-06-24T11:31:55Z</time>
      </trkpt>
      <trkpt lat="43.93499" lon="6.02393">
        <ele>589.43</ele>
        <time>2019-06-24T11:31:56Z</time>
      </trkpt>
      <trkpt lat="43.93496" lon="6.024">
        <ele>588.95</ele>
        <time>2019-06-24T11:31:57Z</time>
      </trkpt>
      <trkpt lat="43.93492" lon="6.02406">
        <ele>587.98</ele>
        <time>2019-06-24T11:31:58Z</time>
      </trkpt>
      <trkpt lat="43.93488" lon="6.02409">
        <ele>587.98</ele>
        <time>2019-06-24T11:31:59Z</time>
      </trkpt>
      <trkpt lat="43.93483" lon="6.02411">
        <ele>587.98</ele>
        <time>2019-06-24T11:32:00Z</time>
      </trkpt>
      <trkpt lat="43.93477" lon="6.0241">
        <ele>587.5</ele>
        <time>2019-06-24T11:32:01Z</time>
      </trkpt>
      <trkpt lat="43.93472" lon="6.02408">
        <ele>587.5</ele>
        <time>2019-06-24T11:32:02Z</time>
      </trkpt>
      <trkpt lat="43.93466" lon="6.02403">
        <ele>587.02</ele>
        <time>2019-06-24T11:32:03Z</time>
      </trkpt>
      <trkpt lat="43.93461" lon="6.02395">
        <ele>587.02</ele>
        <time>2019-06-24T11:32:04Z</time>
      </trkpt>
      <trkpt lat="43.93456" lon="6.02386">
        <ele>587.02</ele>
        <time>2019-06-24T11:32:05Z</time>
      </trkpt>
      <trkpt lat="43.93452" lon="6.02375">
        <ele>587.5</ele>
        <time>2019-06-24T11:32:06Z</time>
      </trkpt>
      <trkpt lat="43.93437" lon="6.02334">
        <ele>587.5</ele>
        <time>2019-06-24T11:32:10Z</time>
      </trkpt>
      <trkpt lat="43.93433" lon="6.02328">
        <ele>587.98</ele>
        <time>2019-06-24T11:32:11Z</time>
      </trkpt>
      <trkpt lat="43.93428" lon="6.02324">
        <ele>587.02</ele>
        <time>2019-06-24T11:32:12Z</time>
      </trkpt>
      <trkpt lat="43.93422" lon="6.02322">
        <ele>587.5</ele>
        <time>2019-06-24T11:32:13Z</time>
      </trkpt>
      <trkpt lat="43.93415" lon="6.02321">
        <ele>587.5</ele>
        <time>2019-06-24T11:32:14Z</time>
      </trkpt>
      <trkpt lat="43.93407" lon="6.02323">
        <ele>587.98</ele>
        <time>2019-06-24T11:32:15Z</time>
      </trkpt>
      <trkpt lat="43.93398" lon="6.02324">
        <ele>588.46</ele>
        <time>2019-06-24T11:32:16Z</time>
      </trkpt>
      <trkpt lat="43.9336" lon="6.02329">
        <ele>588.95</ele>
        <time>2019-06-24T11:32:21Z</time>
      </trkpt>
      <trkpt lat="43.93355" lon="6.02328">
        <ele>589.91</ele>
        <time>2019-06-24T11:32:22Z</time>
      </trkpt>
      <trkpt lat="43.93352" lon="6.02326">
        <ele>589.43</ele>
        <time>2019-06-24T11:32:23Z</time>
      </trkpt>
      <trkpt lat="43.9335" lon="6.02323">
        <ele>589.43</ele>
        <time>2019-06-24T11:32:24Z</time>
      </trkpt>
      <trkpt lat="43.93348" lon="6.02318">
        <ele>589.43</ele>
        <time>2019-06-24T11:32:25Z</time>
      </trkpt>
      <trkpt lat="43.93348" lon="6.02313">
        <ele>589.43</ele>
        <time>2019-06-24T11:32:26Z</time>
      </trkpt>
      <trkpt lat="43.9335" lon="6.02307">
        <ele>590.39</ele>
        <time>2019-06-24T11:32:27Z</time>
      </trkpt>
      <trkpt lat="43.93353" lon="6.02302">
        <ele>590.87</ele>
        <time>2019-06-24T11:32:28Z</time>
      </trkpt>
      <trkpt lat="43.93357" lon="6.02297">
        <ele>591.35</ele>
        <time>2019-06-24T11:32:29Z</time>
      </trkpt>
      <trkpt lat="43.93363" lon="6.02292">
        <ele>592.31</ele>
        <time>2019-06-24T11:32:30Z</time>
      </trkpt>
      <trkpt lat="43.93369" lon="6.02288">
        <ele>592.79</ele>
        <time>2019-06-24T11:32:31Z</time>
      </trkpt>
      <trkpt lat="43.93376" lon="6.02284">
        <ele>593.27</ele>
        <time>2019-06-24T11:32:32Z</time>
      </trkpt>
      <trkpt lat="43.93382" lon="6.02279">
        <ele>593.75</ele>
        <time>2019-06-24T11:32:33Z</time>
      </trkpt>
      <trkpt lat="43.93388" lon="6.02273">
        <ele>594.23</ele>
        <time>2019-06-24T11:32:34Z</time>
      </trkpt>
      <trkpt lat="43.93394" lon="6.02266">
        <ele>594.71</ele>
        <time>2019-06-24T11:32:35Z</time>
      </trkpt>
      <trkpt lat="43.93409" lon="6.02244">
        <ele>597.6</ele>
        <time>2019-06-24T11:32:38Z</time>
      </trkpt>
      <trkpt lat="43.93413" lon="6.02236">
        <ele>597.6</ele>
        <time>2019-06-24T11:32:39Z</time>
      </trkpt>
      <trkpt lat="43.93415" lon="6.02228">
        <ele>598.56</ele>
        <time>2019-06-24T11:32:40Z</time>
      </trkpt>
      <trkpt lat="43.93416" lon="6.02219">
        <ele>599.04</ele>
        <time>2019-06-24T11:32:41Z</time>
      </trkpt>
      <trkpt lat="43.93416" lon="6.0221">
        <ele>600</ele>
        <time>2019-06-24T11:32:42Z</time>
      </trkpt>
      <trkpt lat="43.93415" lon="6.02201">
        <ele>600.96</ele>
        <time>2019-06-24T11:32:43Z</time>
      </trkpt>
      <trkpt lat="43.93413" lon="6.02191">
        <ele>601.44</ele>
        <time>2019-06-24T11:32:44Z</time>
      </trkpt>
      <trkpt lat="43.93411" lon="6.02181">
        <ele>602.4</ele>
        <time>2019-06-24T11:32:45Z</time>
      </trkpt>
      <trkpt lat="43.93405" lon="6.02162">
        <ele>603.85</ele>
        <time>2019-06-24T11:32:47Z</time>
      </trkpt>
      <trkpt lat="43.934" lon="6.02144">
        <ele>605.29</ele>
        <time>2019-06-24T11:32:49Z</time>
      </trkpt>
      <trkpt lat="43.934" lon="6.02136">
        <ele>605.77</ele>
        <time>2019-06-24T11:32:50Z</time>
      </trkpt>
      <trkpt lat="43.93401" lon="6.02127">
        <ele>606.25</ele>
        <time>2019-06-24T11:32:51Z</time>
      </trkpt>
      <trkpt lat="43.93403" lon="6.02117">
        <ele>607.21</ele>
        <time>2019-06-24T11:32:52Z</time>
      </trkpt>
      <trkpt lat="43.93403" lon="6.02107">
        <ele>607.69</ele>
        <time>2019-06-24T11:32:53Z</time>
      </trkpt>
      <trkpt lat="43.93403" lon="6.02098">
        <ele>608.65</ele>
        <time>2019-06-24T11:32:54Z</time>
      </trkpt>
      <trkpt lat="43.93401" lon="6.0209">
        <ele>609.13</ele>
        <time>2019-06-24T11:32:55Z</time>
      </trkpt>
      <trkpt lat="43.93398" lon="6.02082">
        <ele>609.61</ele>
        <time>2019-06-24T11:32:56Z</time>
      </trkpt>
      <trkpt lat="43.93393" lon="6.02075">
        <ele>610.09</ele>
        <time>2019-06-24T11:32:57Z</time>
      </trkpt>
      <trkpt lat="43.93388" lon="6.02069">
        <ele>611.06</ele>
        <time>2019-06-24T11:32:58Z</time>
      </trkpt>
      <trkpt lat="43.93382" lon="6.02063">
        <ele>612.5</ele>
        <time>2019-06-24T11:32:59Z</time>
      </trkpt>
      <trkpt lat="43.93375" lon="6.02058">
        <ele>612.5</ele>
        <time>2019-06-24T11:33:00Z</time>
      </trkpt>
      <trkpt lat="43.93369" lon="6.02053">
        <ele>613.94</ele>
        <time>2019-06-24T11:33:01Z</time>
      </trkpt>
      <trkpt lat="43.93364" lon="6.02047">
        <ele>614.9</ele>
        <time>2019-06-24T11:33:02Z</time>
      </trkpt>
      <trkpt lat="43.93361" lon="6.02042">
        <ele>614.9</ele>
        <time>2019-06-24T11:33:03Z</time>
      </trkpt>
      <trkpt lat="43.9336" lon="6.02036">
        <ele>615.38</ele>
        <time>2019-06-24T11:33:04Z</time>
      </trkpt>
      <trkpt lat="43.93362" lon="6.0203">
        <ele>615.86</ele>
        <time>2019-06-24T11:33:05Z</time>
      </trkpt>
      <trkpt lat="43.93365" lon="6.02023">
        <ele>616.34</ele>
        <time>2019-06-24T11:33:06Z</time>
      </trkpt>
      <trkpt lat="43.9337" lon="6.02016">
        <ele>616.82</ele>
        <time>2019-06-24T11:33:07Z</time>
      </trkpt>
      <trkpt lat="43.93376" lon="6.02008">
        <ele>617.3</ele>
        <time>2019-06-24T11:33:08Z</time>
      </trkpt>
      <trkpt lat="43.93381" lon="6.01999">
        <ele>617.78</ele>
        <time>2019-06-24T11:33:09Z</time>
      </trkpt>
      <trkpt lat="43.93385" lon="6.01989">
        <ele>618.26</ele>
        <time>2019-06-24T11:33:10Z</time>
      </trkpt>
      <trkpt lat="43.93388" lon="6.0198">
        <ele>618.75</ele>
        <time>2019-06-24T11:33:11Z</time>
      </trkpt>
      <trkpt lat="43.93389" lon="6.01971">
        <ele>618.75</ele>
        <time>2019-06-24T11:33:12Z</time>
      </trkpt>
      <trkpt lat="43.93389" lon="6.01963">
        <ele>619.71</ele>
        <time>2019-06-24T11:33:13Z</time>
      </trkpt>
      <trkpt lat="43.93388" lon="6.01955">
        <ele>619.71</ele>
        <time>2019-06-24T11:33:14Z</time>
      </trkpt>
      <trkpt lat="43.93385" lon="6.01949">
        <ele>620.19</ele>
        <time>2019-06-24T11:33:15Z</time>
      </trkpt>
      <trkpt lat="43.93381" lon="6.01943">
        <ele>620.19</ele>
        <time>2019-06-24T11:33:16Z</time>
      </trkpt>
      <trkpt lat="43.93376" lon="6.01939">
        <ele>620.67</ele>
        <time>2019-06-24T11:33:17Z</time>
      </trkpt>
      <trkpt lat="43.93371" lon="6.01937">
        <ele>621.63</ele>
        <time>2019-06-24T11:33:18Z</time>
      </trkpt>
      <trkpt lat="43.93366" lon="6.01936">
        <ele>621.63</ele>
        <time>2019-06-24T11:33:19Z</time>
      </trkpt>
      <trkpt lat="43.9336" lon="6.01935">
        <ele>622.11</ele>
        <time>2019-06-24T11:33:20Z</time>
      </trkpt>
      <trkpt lat="43.93354" lon="6.01936">
        <ele>622.59</ele>
        <time>2019-06-24T11:33:21Z</time>
      </trkpt>
      <trkpt lat="43.93346" lon="6.01937">
        <ele>623.55</ele>
        <time>2019-06-24T11:33:22Z</time>
      </trkpt>
      <trkpt lat="43.93338" lon="6.01939">
        <ele>624.03</ele>
        <time>2019-06-24T11:33:23Z</time>
      </trkpt>
      <trkpt lat="43.93303" lon="6.01949">
        <ele>626.92</ele>
        <time>2019-06-24T11:33:27Z</time>
      </trkpt>
      <trkpt lat="43.93263" lon="6.01963">
        <ele>630.76</ele>
        <time>2019-06-24T11:33:31Z</time>
      </trkpt>
      <trkpt lat="43.93233" lon="6.01977">
        <ele>634.13</ele>
        <time>2019-06-24T11:33:34Z</time>
      </trkpt>
      <trkpt lat="43.93192" lon="6.02005">
        <ele>637.01</ele>
        <time>2019-06-24T11:33:38Z</time>
      </trkpt>
      <trkpt lat="43.9316" lon="6.02027">
        <ele>640.38</ele>
        <time>2019-06-24T11:33:41Z</time>
      </trkpt>
      <trkpt lat="43.93121" lon="6.02061">
        <ele>643.26</ele>
        <time>2019-06-24T11:33:46Z</time>
      </trkpt>
      <trkpt lat="43.93114" lon="6.02064">
        <ele>642.78</ele>
        <time>2019-06-24T11:33:47Z</time>
      </trkpt>
      <trkpt lat="43.93107" lon="6.02065">
        <ele>644.22</ele>
        <time>2019-06-24T11:33:48Z</time>
      </trkpt>
      <trkpt lat="43.931" lon="6.02065">
        <ele>644.7</ele>
        <time>2019-06-24T11:33:49Z</time>
      </trkpt>
      <trkpt lat="43.93093" lon="6.02063">
        <ele>644.22</ele>
        <time>2019-06-24T11:33:50Z</time>
      </trkpt>
      <trkpt lat="43.93063" lon="6.0206">
        <ele>646.62</ele>
        <time>2019-06-24T11:33:54Z</time>
      </trkpt>
      <trkpt lat="43.93057" lon="6.02062">
        <ele>647.59</ele>
        <time>2019-06-24T11:33:55Z</time>
      </trkpt>
      <trkpt lat="43.93052" lon="6.02067">
        <ele>647.59</ele>
        <time>2019-06-24T11:33:56Z</time>
      </trkpt>
      <trkpt lat="43.93048" lon="6.02074">
        <ele>648.55</ele>
        <time>2019-06-24T11:33:57Z</time>
      </trkpt>
      <trkpt lat="43.93044" lon="6.02083">
        <ele>649.03</ele>
        <time>2019-06-24T11:33:58Z</time>
      </trkpt>
      <trkpt lat="43.93042" lon="6.02094">
        <ele>649.03</ele>
        <time>2019-06-24T11:33:59Z</time>
      </trkpt>
      <trkpt lat="43.93039" lon="6.02106">
        <ele>649.99</ele>
        <time>2019-06-24T11:34:00Z</time>
      </trkpt>
      <trkpt lat="43.93035" lon="6.02119">
        <ele>650.95</ele>
        <time>2019-06-24T11:34:01Z</time>
      </trkpt>
      <trkpt lat="43.9303" lon="6.02131">
        <ele>651.43</ele>
        <time>2019-06-24T11:34:02Z</time>
      </trkpt>
      <trkpt lat="43.93024" lon="6.02143">
        <ele>651.91</ele>
        <time>2019-06-24T11:34:03Z</time>
      </trkpt>
      <trkpt lat="43.93016" lon="6.02153">
        <ele>652.87</ele>
        <time>2019-06-24T11:34:04Z</time>
      </trkpt>
      <trkpt lat="43.93007" lon="6.02162">
        <ele>653.35</ele>
        <time>2019-06-24T11:34:05Z</time>
      </trkpt>
      <trkpt lat="43.92997" lon="6.0217">
        <ele>654.31</ele>
        <time>2019-06-24T11:34:06Z</time>
      </trkpt>
      <trkpt lat="43.92987" lon="6.02177">
        <ele>654.8</ele>
        <time>2019-06-24T11:34:07Z</time>
      </trkpt>
      <trkpt lat="43.92975" lon="6.02182">
        <ele>655.28</ele>
        <time>2019-06-24T11:34:08Z</time>
      </trkpt>
      <trkpt lat="43.92963" lon="6.02187">
        <ele>655.76</ele>
        <time>2019-06-24T11:34:09Z</time>
      </trkpt>
      <trkpt lat="43.9295" lon="6.0219">
        <ele>656.72</ele>
        <time>2019-06-24T11:34:10Z</time>
      </trkpt>
      <trkpt lat="43.92923" lon="6.02198">
        <ele>657.68</ele>
        <time>2019-06-24T11:34:12Z</time>
      </trkpt>
      <trkpt lat="43.92867" lon="6.02208">
        <ele>659.12</ele>
        <time>2019-06-24T11:34:18Z</time>
      </trkpt>
      <trkpt lat="43.92861" lon="6.02207">
        <ele>659.6</ele>
        <time>2019-06-24T11:34:19Z</time>
      </trkpt>
      <trkpt lat="43.92855" lon="6.02203">
        <ele>660.08</ele>
        <time>2019-06-24T11:34:20Z</time>
      </trkpt>
      <trkpt lat="43.9285" lon="6.02199">
        <ele>660.08</ele>
        <time>2019-06-24T11:34:21Z</time>
      </trkpt>
      <trkpt lat="43.92845" lon="6.02194">
        <ele>661.04</ele>
        <time>2019-06-24T11:34:22Z</time>
      </trkpt>
      <trkpt lat="43.92841" lon="6.02187">
        <ele>662.01</ele>
        <time>2019-06-24T11:34:23Z</time>
      </trkpt>
      <trkpt lat="43.92838" lon="6.02179">
        <ele>662.49</ele>
        <time>2019-06-24T11:34:24Z</time>
      </trkpt>
      <trkpt lat="43.92835" lon="6.02169">
        <ele>662.97</ele>
        <time>2019-06-24T11:34:25Z</time>
      </trkpt>
      <trkpt lat="43.92832" lon="6.02159">
        <ele>663.45</ele>
        <time>2019-06-24T11:34:26Z</time>
      </trkpt>
      <trkpt lat="43.92828" lon="6.02149">
        <ele>663.93</ele>
        <time>2019-06-24T11:34:27Z</time>
      </trkpt>
      <trkpt lat="43.92814" lon="6.02102">
        <ele>665.37</ele>
        <time>2019-06-24T11:34:31Z</time>
      </trkpt>
      <trkpt lat="43.92762" lon="6.01961">
        <ele>668.73</ele>
        <time>2019-06-24T11:34:43Z</time>
      </trkpt>
      <trkpt lat="43.9274" lon="6.0187">
        <ele>667.29</ele>
        <time>2019-06-24T11:34:52Z</time>
      </trkpt>
      <trkpt lat="43.92718" lon="6.01764">
        <ele>666.33</ele>
        <time>2019-06-24T11:35:05Z</time>
      </trkpt>
      <trkpt lat="43.92687" lon="6.01654">
        <ele>664.89</ele>
        <time>2019-06-24T11:35:14Z</time>
      </trkpt>
      <trkpt lat="43.92682" lon="6.01645">
        <ele>664.89</ele>
        <time>2019-06-24T11:35:15Z</time>
      </trkpt>
      <trkpt lat="43.92677" lon="6.01636">
        <ele>664.89</ele>
        <time>2019-06-24T11:35:16Z</time>
      </trkpt>
      <trkpt lat="43.92672" lon="6.01628">
        <ele>665.85</ele>
        <time>2019-06-24T11:35:17Z</time>
      </trkpt>
      <trkpt lat="43.92666" lon="6.0162">
        <ele>664.89</ele>
        <time>2019-06-24T11:35:18Z</time>
      </trkpt>
      <trkpt lat="43.92608" lon="6.01522">
        <ele>667.29</ele>
        <time>2019-06-24T11:35:27Z</time>
      </trkpt>
      <trkpt lat="43.9256" lon="6.01439">
        <ele>665.85</ele>
        <time>2019-06-24T11:35:36Z</time>
      </trkpt>
      <trkpt lat="43.92559" lon="6.01436">
        <ele>665.37</ele>
        <time>2019-06-24T11:35:47Z</time>
      </trkpt>
      <trkpt lat="43.92559" lon="6.01436">
        <ele>665.37</ele>
        <time>2019-06-24T11:36:21Z</time>
      </trkpt>
      <trkpt lat="43.92559" lon="6.01437">
        <ele>665.85</ele>
        <time>2019-06-24T11:37:06Z</time>
      </trkpt>
      <trkpt lat="43.92559" lon="6.01437">
        <ele>666.33</ele>
        <time>2019-06-24T11:37:59Z</time>
      </trkpt>
      <trkpt lat="43.92558" lon="6.01436">
        <ele>666.33</ele>
        <time>2019-06-24T11:38:20Z</time>
      </trkpt>
      <trkpt lat="43.92556" lon="6.01433">
        <ele>666.33</ele>
        <time>2019-06-24T11:38:21Z</time>
      </trkpt>
      <trkpt lat="43.92529" lon="6.0138">
        <ele>667.29</ele>
        <time>2019-06-24T11:38:28Z</time>
      </trkpt>
      <trkpt lat="43.92467" lon="6.01262">
        <ele>665.85</ele>
        <time>2019-06-24T11:38:39Z</time>
      </trkpt>
      <trkpt lat="43.92369" lon="6.01081">
        <ele>668.25</ele>
        <time>2019-06-24T11:38:54Z</time>
      </trkpt>
      <trkpt lat="43.92299" lon="6.00953">
        <ele>664.41</ele>
        <time>2019-06-24T11:39:04Z</time>
      </trkpt>
      <trkpt lat="43.92258" lon="6.00874">
        <ele>661.04</ele>
        <time>2019-06-24T11:39:13Z</time>
      </trkpt>
      <trkpt lat="43.92255" lon="6.00871">
        <ele>661.04</ele>
        <time>2019-06-24T11:39:14Z</time>
      </trkpt>
      <trkpt lat="43.92252" lon="6.00869">
        <ele>660.56</ele>
        <time>2019-06-24T11:39:15Z</time>
      </trkpt>
      <trkpt lat="43.92249" lon="6.00869">
        <ele>661.04</ele>
        <time>2019-06-24T11:39:16Z</time>
      </trkpt>
      <trkpt lat="43.92246" lon="6.0087">
        <ele>660.56</ele>
        <time>2019-06-24T11:39:17Z</time>
      </trkpt>
      <trkpt lat="43.92242" lon="6.00873">
        <ele>660.56</ele>
        <time>2019-06-24T11:39:18Z</time>
      </trkpt>
      <trkpt lat="43.92238" lon="6.00876">
        <ele>660.56</ele>
        <time>2019-06-24T11:39:19Z</time>
      </trkpt>
      <trkpt lat="43.92234" lon="6.00881">
        <ele>660.56</ele>
        <time>2019-06-24T11:39:20Z</time>
      </trkpt>
      <trkpt lat="43.9223" lon="6.00886">
        <ele>660.08</ele>
        <time>2019-06-24T11:39:21Z</time>
      </trkpt>
      <trkpt lat="43.92221" lon="6.00897">
        <ele>659.6</ele>
        <time>2019-06-24T11:39:23Z</time>
      </trkpt>
      <trkpt lat="43.92182" lon="6.00929">
        <ele>658.64</ele>
        <time>2019-06-24T11:39:29Z</time>
      </trkpt>
      <trkpt lat="43.92176" lon="6.00932">
        <ele>658.64</ele>
        <time>2019-06-24T11:39:30Z</time>
      </trkpt>
      <trkpt lat="43.92169" lon="6.00934">
        <ele>658.64</ele>
        <time>2019-06-24T11:39:31Z</time>
      </trkpt>
      <trkpt lat="43.92163" lon="6.00934">
        <ele>658.16</ele>
        <time>2019-06-24T11:39:32Z</time>
      </trkpt>
      <trkpt lat="43.92156" lon="6.00934">
        <ele>657.68</ele>
        <time>2019-06-24T11:39:33Z</time>
      </trkpt>
      <trkpt lat="43.92127" lon="6.00934">
        <ele>656.24</ele>
        <time>2019-06-24T11:39:37Z</time>
      </trkpt>
      <trkpt lat="43.92121" lon="6.00936">
        <ele>655.76</ele>
        <time>2019-06-24T11:39:38Z</time>
      </trkpt>
      <trkpt lat="43.92115" lon="6.00939">
        <ele>654.31</ele>
        <time>2019-06-24T11:39:39Z</time>
      </trkpt>
      <trkpt lat="43.92109" lon="6.00941">
        <ele>654.8</ele>
        <time>2019-06-24T11:39:40Z</time>
      </trkpt>
      <trkpt lat="43.92091" lon="6.00946">
        <ele>655.28</ele>
        <time>2019-06-24T11:39:43Z</time>
      </trkpt>
      <trkpt lat="43.92085" lon="6.00946">
        <ele>655.76</ele>
        <time>2019-06-24T11:39:44Z</time>
      </trkpt>
      <trkpt lat="43.9208" lon="6.00943">
        <ele>655.76</ele>
        <time>2019-06-24T11:39:45Z</time>
      </trkpt>
      <trkpt lat="43.92076" lon="6.00939">
        <ele>655.76</ele>
        <time>2019-06-24T11:39:46Z</time>
      </trkpt>
      <trkpt lat="43.92073" lon="6.00933">
        <ele>655.76</ele>
        <time>2019-06-24T11:39:47Z</time>
      </trkpt>
      <trkpt lat="43.92071" lon="6.00926">
        <ele>655.76</ele>
        <time>2019-06-24T11:39:48Z</time>
      </trkpt>
      <trkpt lat="43.92069" lon="6.00918">
        <ele>655.76</ele>
        <time>2019-06-24T11:39:49Z</time>
      </trkpt>
      <trkpt lat="43.92067" lon="6.00909">
        <ele>656.24</ele>
        <time>2019-06-24T11:39:50Z</time>
      </trkpt>
      <trkpt lat="43.92064" lon="6.00892">
        <ele>655.76</ele>
        <time>2019-06-24T11:39:52Z</time>
      </trkpt>
      <trkpt lat="43.92052" lon="6.00808">
        <ele>656.72</ele>
        <time>2019-06-24T11:40:00Z</time>
      </trkpt>
      <trkpt lat="43.92045" lon="6.0079">
        <ele>655.76</ele>
        <time>2019-06-24T11:40:02Z</time>
      </trkpt>
      <trkpt lat="43.92042" lon="6.00784">
        <ele>655.76</ele>
        <time>2019-06-24T11:40:03Z</time>
      </trkpt>
      <trkpt lat="43.92039" lon="6.0078">
        <ele>655.76</ele>
        <time>2019-06-24T11:40:04Z</time>
      </trkpt>
      <trkpt lat="43.92037" lon="6.00778">
        <ele>655.28</ele>
        <time>2019-06-24T11:40:11Z</time>
      </trkpt>
      <trkpt lat="43.92013" lon="6.00763">
        <ele>654.31</ele>
        <time>2019-06-24T11:40:20Z</time>
      </trkpt>
      <trkpt lat="43.91995" lon="6.00754">
        <ele>653.83</ele>
        <time>2019-06-24T11:40:24Z</time>
      </trkpt>
      <trkpt lat="43.91991" lon="6.00752">
        <ele>652.87</ele>
        <time>2019-06-24T11:40:25Z</time>
      </trkpt>
      <trkpt lat="43.91988" lon="6.00749">
        <ele>653.35</ele>
        <time>2019-06-24T11:40:26Z</time>
      </trkpt>
      <trkpt lat="43.91985" lon="6.00747">
        <ele>652.87</ele>
        <time>2019-06-24T11:40:27Z</time>
      </trkpt>
      <trkpt lat="43.91984" lon="6.00748">
        <ele>652.87</ele>
        <time>2019-06-24T11:40:28Z</time>
      </trkpt>
      <trkpt lat="43.91983" lon="6.00749">
        <ele>652.87</ele>
        <time>2019-06-24T11:40:29Z</time>
      </trkpt>
      <trkpt lat="43.91985" lon="6.00753">
        <ele>651.91</ele>
        <time>2019-06-24T11:40:34Z</time>
      </trkpt>
      <trkpt lat="43.91988" lon="6.00753">
        <ele>652.87</ele>
        <time>2019-06-24T11:40:35Z</time>
      </trkpt>
      <trkpt lat="43.91991" lon="6.00754">
        <ele>652.39</ele>
        <time>2019-06-24T11:40:36Z</time>
      </trkpt>
      <trkpt lat="43.92" lon="6.00755">
        <ele>652.39</ele>
        <time>2019-06-24T11:40:45Z</time>
      </trkpt>
      <trkpt lat="43.9203" lon="6.00774">
        <ele>654.8</ele>
        <time>2019-06-24T11:40:53Z</time>
      </trkpt>
      <trkpt lat="43.92035" lon="6.00778">
        <ele>654.8</ele>
        <time>2019-06-24T11:40:54Z</time>
      </trkpt>
      <trkpt lat="43.9204" lon="6.00784">
        <ele>655.28</ele>
        <time>2019-06-24T11:40:55Z</time>
      </trkpt>
      <trkpt lat="43.92044" lon="6.00792">
        <ele>655.76</ele>
        <time>2019-06-24T11:40:56Z</time>
      </trkpt>
      <trkpt lat="43.92048" lon="6.00801">
        <ele>655.76</ele>
        <time>2019-06-24T11:40:57Z</time>
      </trkpt>
      <trkpt lat="43.92051" lon="6.00811">
        <ele>656.24</ele>
        <time>2019-06-24T11:40:58Z</time>
      </trkpt>
      <trkpt lat="43.92059" lon="6.00842">
        <ele>655.76</ele>
        <time>2019-06-24T11:41:01Z</time>
      </trkpt>
      <trkpt lat="43.92061" lon="6.00851">
        <ele>656.24</ele>
        <time>2019-06-24T11:41:02Z</time>
      </trkpt>
      <trkpt lat="43.92062" lon="6.0086">
        <ele>656.24</ele>
        <time>2019-06-24T11:41:03Z</time>
      </trkpt>
      <trkpt lat="43.92065" lon="6.00908">
        <ele>655.28</ele>
        <time>2019-06-24T11:41:08Z</time>
      </trkpt>
      <trkpt lat="43.92071" lon="6.00933">
        <ele>655.76</ele>
        <time>2019-06-24T11:41:11Z</time>
      </trkpt>
      <trkpt lat="43.92074" lon="6.00941">
        <ele>655.28</ele>
        <time>2019-06-24T11:41:12Z</time>
      </trkpt>
      <trkpt lat="43.92078" lon="6.00946">
        <ele>655.28</ele>
        <time>2019-06-24T11:41:13Z</time>
      </trkpt>
      <trkpt lat="43.92082" lon="6.00949">
        <ele>655.76</ele>
        <time>2019-06-24T11:41:14Z</time>
      </trkpt>
      <trkpt lat="43.92086" lon="6.0095">
        <ele>655.76</ele>
        <time>2019-06-24T11:41:15Z</time>
      </trkpt>
      <trkpt lat="43.9209" lon="6.0095">
        <ele>655.76</ele>
        <time>2019-06-24T11:41:16Z</time>
      </trkpt>
      <trkpt lat="43.92095" lon="6.0095">
        <ele>654.8</ele>
        <time>2019-06-24T11:41:17Z</time>
      </trkpt>
      <trkpt lat="43.921" lon="6.00948">
        <ele>654.8</ele>
        <time>2019-06-24T11:41:18Z</time>
      </trkpt>
      <trkpt lat="43.92107" lon="6.00946">
        <ele>654.8</ele>
        <time>2019-06-24T11:41:19Z</time>
      </trkpt>
      <trkpt lat="43.9213" lon="6.00936">
        <ele>656.24</ele>
        <time>2019-06-24T11:41:22Z</time>
      </trkpt>
      <trkpt lat="43.92137" lon="6.00935">
        <ele>656.72</ele>
        <time>2019-06-24T11:41:23Z</time>
      </trkpt>
      <trkpt lat="43.92145" lon="6.00935">
        <ele>656.72</ele>
        <time>2019-06-24T11:41:24Z</time>
      </trkpt>
      <trkpt lat="43.92169" lon="6.00935">
        <ele>657.68</ele>
        <time>2019-06-24T11:41:27Z</time>
      </trkpt>
      <trkpt lat="43.92177" lon="6.00933">
        <ele>658.16</ele>
        <time>2019-06-24T11:41:28Z</time>
      </trkpt>
      <trkpt lat="43.92185" lon="6.00929">
        <ele>658.64</ele>
        <time>2019-06-24T11:41:29Z</time>
      </trkpt>
      <trkpt lat="43.92193" lon="6.00923">
        <ele>659.12</ele>
        <time>2019-06-24T11:41:30Z</time>
      </trkpt>
      <trkpt lat="43.92201" lon="6.00916">
        <ele>659.12</ele>
        <time>2019-06-24T11:41:31Z</time>
      </trkpt>
      <trkpt lat="43.92234" lon="6.00886">
        <ele>660.56</ele>
        <time>2019-06-24T11:41:35Z</time>
      </trkpt>
      <trkpt lat="43.9224" lon="6.00878">
        <ele>661.04</ele>
        <time>2019-06-24T11:41:36Z</time>
      </trkpt>
      <trkpt lat="43.92245" lon="6.0087">
        <ele>661.04</ele>
        <time>2019-06-24T11:41:37Z</time>
      </trkpt>
      <trkpt lat="43.92247" lon="6.00863">
        <ele>661.52</ele>
        <time>2019-06-24T11:41:38Z</time>
      </trkpt>
      <trkpt lat="43.92247" lon="6.00856">
        <ele>661.52</ele>
        <time>2019-06-24T11:41:39Z</time>
      </trkpt>
      <trkpt lat="43.92245" lon="6.00847">
        <ele>661.52</ele>
        <time>2019-06-24T11:41:40Z</time>
      </trkpt>
      <trkpt lat="43.92242" lon="6.00837">
        <ele>661.04</ele>
        <time>2019-06-24T11:41:41Z</time>
      </trkpt>
      <trkpt lat="43.92237" lon="6.00827">
        <ele>661.52</ele>
        <time>2019-06-24T11:41:42Z</time>
      </trkpt>
      <trkpt lat="43.92231" lon="6.00817">
        <ele>661.52</ele>
        <time>2019-06-24T11:41:43Z</time>
      </trkpt>
      <trkpt lat="43.92154" lon="6.00685">
        <ele>661.52</ele>
        <time>2019-06-24T11:41:54Z</time>
      </trkpt>
      <trkpt lat="43.92125" lon="6.0063">
        <ele>658.64</ele>
        <time>2019-06-24T11:41:58Z</time>
      </trkpt>
      <trkpt lat="43.9211" lon="6.00602">
        <ele>656.72</ele>
        <time>2019-06-24T11:42:00Z</time>
      </trkpt>
      <trkpt lat="43.92034" lon="6.00458">
        <ele>655.76</ele>
        <time>2019-06-24T11:42:11Z</time>
      </trkpt>
      <trkpt lat="43.92028" lon="6.00446">
        <ele>655.76</ele>
        <time>2019-06-24T11:42:12Z</time>
      </trkpt>
      <trkpt lat="43.92022" lon="6.00433">
        <ele>655.76</ele>
        <time>2019-06-24T11:42:13Z</time>
      </trkpt>
      <trkpt lat="43.92018" lon="6.00418">
        <ele>656.24</ele>
        <time>2019-06-24T11:42:14Z</time>
      </trkpt>
      <trkpt lat="43.92014" lon="6.00403">
        <ele>655.76</ele>
        <time>2019-06-24T11:42:15Z</time>
      </trkpt>
      <trkpt lat="43.92011" lon="6.00387">
        <ele>655.76</ele>
        <time>2019-06-24T11:42:16Z</time>
      </trkpt>
      <trkpt lat="43.92008" lon="6.00371">
        <ele>656.24</ele>
        <time>2019-06-24T11:42:17Z</time>
      </trkpt>
      <trkpt lat="43.91977" lon="6.00245">
        <ele>657.68</ele>
        <time>2019-06-24T11:42:26Z</time>
      </trkpt>
      <trkpt lat="43.91971" lon="6.00185">
        <ele>655.76</ele>
        <time>2019-06-24T11:42:32Z</time>
      </trkpt>
      <trkpt lat="43.91968" lon="6.00179">
        <ele>655.76</ele>
        <time>2019-06-24T11:42:33Z</time>
      </trkpt>
      <trkpt lat="43.91965" lon="6.00174">
        <ele>655.76</ele>
        <time>2019-06-24T11:42:34Z</time>
      </trkpt>
      <trkpt lat="43.9196" lon="6.00171">
        <ele>656.24</ele>
        <time>2019-06-24T11:42:35Z</time>
      </trkpt>
      <trkpt lat="43.91954" lon="6.00169">
        <ele>656.24</ele>
        <time>2019-06-24T11:42:36Z</time>
      </trkpt>
      <trkpt lat="43.91948" lon="6.00168">
        <ele>656.24</ele>
        <time>2019-06-24T11:42:37Z</time>
      </trkpt>
      <trkpt lat="43.9194" lon="6.00169">
        <ele>655.76</ele>
        <time>2019-06-24T11:42:38Z</time>
      </trkpt>
      <trkpt lat="43.91931" lon="6.00171">
        <ele>655.28</ele>
        <time>2019-06-24T11:42:39Z</time>
      </trkpt>
      <trkpt lat="43.9182" lon="6.00195">
        <ele>652.39</ele>
        <time>2019-06-24T11:42:49Z</time>
      </trkpt>
      <trkpt lat="43.91778" lon="6.00202">
        <ele>650.47</ele>
        <time>2019-06-24T11:42:53Z</time>
      </trkpt>
      <trkpt lat="43.91734" lon="6.00211">
        <ele>648.07</ele>
        <time>2019-06-24T11:42:57Z</time>
      </trkpt>
      <trkpt lat="43.91703" lon="6.00224">
        <ele>647.1</ele>
        <time>2019-06-24T11:43:00Z</time>
      </trkpt>
      <trkpt lat="43.91627" lon="6.00258">
        <ele>643.74</ele>
        <time>2019-06-24T11:43:09Z</time>
      </trkpt>
      <trkpt lat="43.9162" lon="6.00261">
        <ele>642.78</ele>
        <time>2019-06-24T11:43:10Z</time>
      </trkpt>
      <trkpt lat="43.91613" lon="6.00265">
        <ele>641.34</ele>
        <time>2019-06-24T11:43:11Z</time>
      </trkpt>
      <trkpt lat="43.91606" lon="6.00269">
        <ele>640.86</ele>
        <time>2019-06-24T11:43:12Z</time>
      </trkpt>
      <trkpt lat="43.91601" lon="6.00274">
        <ele>639.89</ele>
        <time>2019-06-24T11:43:13Z</time>
      </trkpt>
      <trkpt lat="43.91595" lon="6.0028">
        <ele>638.93</ele>
        <time>2019-06-24T11:43:14Z</time>
      </trkpt>
      <trkpt lat="43.91589" lon="6.00285">
        <ele>638.93</ele>
        <time>2019-06-24T11:43:15Z</time>
      </trkpt>
      <trkpt lat="43.91583" lon="6.00289">
        <ele>637.49</ele>
        <time>2019-06-24T11:43:16Z</time>
      </trkpt>
      <trkpt lat="43.91576" lon="6.00291">
        <ele>636.53</ele>
        <time>2019-06-24T11:43:17Z</time>
      </trkpt>
      <trkpt lat="43.91569" lon="6.00291">
        <ele>636.53</ele>
        <time>2019-06-24T11:43:18Z</time>
      </trkpt>
      <trkpt lat="43.91561" lon="6.00289">
        <ele>636.53</ele>
        <time>2019-06-24T11:43:19Z</time>
      </trkpt>
      <trkpt lat="43.91552" lon="6.00285">
        <ele>635.57</ele>
        <time>2019-06-24T11:43:20Z</time>
      </trkpt>
      <trkpt lat="43.91544" lon="6.0028">
        <ele>635.09</ele>
        <time>2019-06-24T11:43:21Z</time>
      </trkpt>
      <trkpt lat="43.91526" lon="6.00269">
        <ele>634.13</ele>
        <time>2019-06-24T11:43:23Z</time>
      </trkpt>
      <trkpt lat="43.91509" lon="6.00253">
        <ele>633.65</ele>
        <time>2019-06-24T11:43:25Z</time>
      </trkpt>
      <trkpt lat="43.91493" lon="6.00236">
        <ele>632.2</ele>
        <time>2019-06-24T11:43:27Z</time>
      </trkpt>
      <trkpt lat="43.91462" lon="6.00206">
        <ele>629.8</ele>
        <time>2019-06-24T11:43:31Z</time>
      </trkpt>
      <trkpt lat="43.91453" lon="6.002">
        <ele>629.32</ele>
        <time>2019-06-24T11:43:32Z</time>
      </trkpt>
      <trkpt lat="43.91443" lon="6.00196">
        <ele>629.32</ele>
        <time>2019-06-24T11:43:33Z</time>
      </trkpt>
      <trkpt lat="43.91404" lon="6.00181">
        <ele>625.47</ele>
        <time>2019-06-24T11:43:37Z</time>
      </trkpt>
      <trkpt lat="43.91305" lon="6.00147">
        <ele>624.99</ele>
        <time>2019-06-24T11:43:47Z</time>
      </trkpt>
      <trkpt lat="43.9125" lon="6.0013">
        <ele>623.55</ele>
        <time>2019-06-24T11:43:52Z</time>
      </trkpt>
      <trkpt lat="43.9124" lon="6.00131">
        <ele>622.11</ele>
        <time>2019-06-24T11:43:53Z</time>
      </trkpt>
      <trkpt lat="43.91221" lon="6.00133">
        <ele>621.63</ele>
        <time>2019-06-24T11:43:55Z</time>
      </trkpt>
      <trkpt lat="43.91186" lon="6.00128">
        <ele>620.19</ele>
        <time>2019-06-24T11:43:58Z</time>
      </trkpt>
      <trkpt lat="43.91103" lon="6.00112">
        <ele>615.86</ele>
        <time>2019-06-24T11:44:06Z</time>
      </trkpt>
      <trkpt lat="43.91098" lon="6.00112">
        <ele>615.38</ele>
        <time>2019-06-24T11:44:07Z</time>
      </trkpt>
      <trkpt lat="43.91092" lon="6.00113">
        <ele>614.42</ele>
        <time>2019-06-24T11:44:08Z</time>
      </trkpt>
      <trkpt lat="43.91073" lon="6.00119">
        <ele>611.06</ele>
        <time>2019-06-24T11:44:11Z</time>
      </trkpt>
      <trkpt lat="43.91067" lon="6.00119">
        <ele>610.57</ele>
        <time>2019-06-24T11:44:12Z</time>
      </trkpt>
      <trkpt lat="43.91062" lon="6.00118">
        <ele>609.13</ele>
        <time>2019-06-24T11:44:13Z</time>
      </trkpt>
      <trkpt lat="43.91057" lon="6.00116">
        <ele>608.17</ele>
        <time>2019-06-24T11:44:14Z</time>
      </trkpt>
      <trkpt lat="43.91054" lon="6.00115">
        <ele>607.21</ele>
        <time>2019-06-24T11:44:15Z</time>
      </trkpt>
      <trkpt lat="43.91051" lon="6.00113">
        <ele>607.21</ele>
        <time>2019-06-24T11:44:16Z</time>
      </trkpt>
      <trkpt lat="43.91045" lon="6.00106">
        <ele>606.73</ele>
        <time>2019-06-24T11:44:25Z</time>
      </trkpt>
      <trkpt lat="43.91027" lon="6.00089">
        <ele>604.33</ele>
        <time>2019-06-24T11:44:45Z</time>
      </trkpt>
      <trkpt lat="43.90985" lon="6.0006">
        <ele>600.96</ele>
        <time>2019-06-24T11:44:51Z</time>
      </trkpt>
      <trkpt lat="43.90976" lon="6.00056">
        <ele>600.48</ele>
        <time>2019-06-24T11:44:52Z</time>
      </trkpt>
      <trkpt lat="43.90952" lon="6.00049">
        <ele>596.15</ele>
        <time>2019-06-24T11:44:55Z</time>
      </trkpt>
      <trkpt lat="43.90931" lon="6.00043">
        <ele>592.79</ele>
        <time>2019-06-24T11:44:58Z</time>
      </trkpt>
      <trkpt lat="43.90898" lon="6.00031">
        <ele>589.43</ele>
        <time>2019-06-24T11:45:03Z</time>
      </trkpt>
      <trkpt lat="43.90869" lon="6.00022">
        <ele>586.06</ele>
        <time>2019-06-24T11:45:08Z</time>
      </trkpt>
      <trkpt lat="43.90852" lon="6.0002">
        <ele>584.62</ele>
        <time>2019-06-24T11:45:11Z</time>
      </trkpt>
      <trkpt lat="43.90815" lon="6.00024">
        <ele>580.29</ele>
        <time>2019-06-24T11:45:16Z</time>
      </trkpt>
      <trkpt lat="43.90792" lon="6.00028">
        <ele>578.37</ele>
        <time>2019-06-24T11:45:19Z</time>
      </trkpt>
      <trkpt lat="43.90763" lon="6.00034">
        <ele>575.01</ele>
        <time>2019-06-24T11:45:23Z</time>
      </trkpt>
      <trkpt lat="43.90757" lon="6.00036">
        <ele>575.01</ele>
        <time>2019-06-24T11:45:24Z</time>
      </trkpt>
      <trkpt lat="43.90736" lon="6.00041">
        <ele>571.16</ele>
        <time>2019-06-24T11:45:28Z</time>
      </trkpt>
      <trkpt lat="43.9073" lon="6.00041">
        <ele>571.16</ele>
        <time>2019-06-24T11:45:29Z</time>
      </trkpt>
      <trkpt lat="43.90724" lon="6.0004">
        <ele>570.68</ele>
        <time>2019-06-24T11:45:30Z</time>
      </trkpt>
      <trkpt lat="43.90719" lon="6.00038">
        <ele>570.2</ele>
        <time>2019-06-24T11:45:31Z</time>
      </trkpt>
      <trkpt lat="43.90713" lon="6.00035">
        <ele>569.72</ele>
        <time>2019-06-24T11:45:32Z</time>
      </trkpt>
      <trkpt lat="43.90708" lon="6.00032">
        <ele>569.24</ele>
        <time>2019-06-24T11:45:33Z</time>
      </trkpt>
      <trkpt lat="43.90702" lon="6.0003">
        <ele>568.28</ele>
        <time>2019-06-24T11:45:34Z</time>
      </trkpt>
      <trkpt lat="43.90696" lon="6.00028">
        <ele>567.8</ele>
        <time>2019-06-24T11:45:35Z</time>
      </trkpt>
      <trkpt lat="43.90689" lon="6.00027">
        <ele>567.32</ele>
        <time>2019-06-24T11:45:36Z</time>
      </trkpt>
      <trkpt lat="43.90682" lon="6.00028">
        <ele>567.32</ele>
        <time>2019-06-24T11:45:37Z</time>
      </trkpt>
      <trkpt lat="43.90673" lon="6.00029">
        <ele>566.83</ele>
        <time>2019-06-24T11:45:38Z</time>
      </trkpt>
      <trkpt lat="43.9062" lon="6.00045">
        <ele>566.35</ele>
        <time>2019-06-24T11:45:44Z</time>
      </trkpt>
      <trkpt lat="43.90612" lon="6.0005">
        <ele>566.35</ele>
        <time>2019-06-24T11:45:45Z</time>
      </trkpt>
      <trkpt lat="43.90603" lon="6.00057">
        <ele>566.35</ele>
        <time>2019-06-24T11:45:46Z</time>
      </trkpt>
      <trkpt lat="43.90594" lon="6.00064">
        <ele>566.83</ele>
        <time>2019-06-24T11:45:47Z</time>
      </trkpt>
      <trkpt lat="43.90586" lon="6.00073">
        <ele>566.83</ele>
        <time>2019-06-24T11:45:48Z</time>
      </trkpt>
      <trkpt lat="43.90525" lon="6.0016">
        <ele>563.47</ele>
        <time>2019-06-24T11:45:56Z</time>
      </trkpt>
      <trkpt lat="43.90515" lon="6.00176">
        <ele>562.51</ele>
        <time>2019-06-24T11:45:58Z</time>
      </trkpt>
      <trkpt lat="43.9051" lon="6.00182">
        <ele>561.55</ele>
        <time>2019-06-24T11:45:59Z</time>
      </trkpt>
      <trkpt lat="43.90505" lon="6.00185">
        <ele>561.07</ele>
        <time>2019-06-24T11:46:00Z</time>
      </trkpt>
      <trkpt lat="43.905" lon="6.00188">
        <ele>560.59</ele>
        <time>2019-06-24T11:46:01Z</time>
      </trkpt>
      <trkpt lat="43.90494" lon="6.00189">
        <ele>559.62</ele>
        <time>2019-06-24T11:46:02Z</time>
      </trkpt>
      <trkpt lat="43.90489" lon="6.00188">
        <ele>559.14</ele>
        <time>2019-06-24T11:46:03Z</time>
      </trkpt>
      <trkpt lat="43.90485" lon="6.00187">
        <ele>558.66</ele>
        <time>2019-06-24T11:46:04Z</time>
      </trkpt>
      <trkpt lat="43.90481" lon="6.00184">
        <ele>558.66</ele>
        <time>2019-06-24T11:46:05Z</time>
      </trkpt>
      <trkpt lat="43.90477" lon="6.00181">
        <ele>557.7</ele>
        <time>2019-06-24T11:46:06Z</time>
      </trkpt>
      <trkpt lat="43.90472" lon="6.00177">
        <ele>557.22</ele>
        <time>2019-06-24T11:46:07Z</time>
      </trkpt>
      <trkpt lat="43.90468" lon="6.00171">
        <ele>556.74</ele>
        <time>2019-06-24T11:46:08Z</time>
      </trkpt>
      <trkpt lat="43.90465" lon="6.00164">
        <ele>556.74</ele>
        <time>2019-06-24T11:46:09Z</time>
      </trkpt>
      <trkpt lat="43.90463" lon="6.00157">
        <ele>555.78</ele>
        <time>2019-06-24T11:46:10Z</time>
      </trkpt>
      <trkpt lat="43.90462" lon="6.0015">
        <ele>555.3</ele>
        <time>2019-06-24T11:46:11Z</time>
      </trkpt>
      <trkpt lat="43.90463" lon="6.00142">
        <ele>554.82</ele>
        <time>2019-06-24T11:46:12Z</time>
      </trkpt>
      <trkpt lat="43.90464" lon="6.00121">
        <ele>553.86</ele>
        <time>2019-06-24T11:46:14Z</time>
      </trkpt>
      <trkpt lat="43.90459" lon="6.00073">
        <ele>550.01</ele>
        <time>2019-06-24T11:46:18Z</time>
      </trkpt>
      <trkpt lat="43.90457" lon="6.00064">
        <ele>549.53</ele>
        <time>2019-06-24T11:46:19Z</time>
      </trkpt>
      <trkpt lat="43.90453" lon="6.00057">
        <ele>548.57</ele>
        <time>2019-06-24T11:46:20Z</time>
      </trkpt>
      <trkpt lat="43.90449" lon="6.00052">
        <ele>547.61</ele>
        <time>2019-06-24T11:46:21Z</time>
      </trkpt>
      <trkpt lat="43.90443" lon="6.00048">
        <ele>547.13</ele>
        <time>2019-06-24T11:46:22Z</time>
      </trkpt>
      <trkpt lat="43.90434" lon="6.00045">
        <ele>545.69</ele>
        <time>2019-06-24T11:46:23Z</time>
      </trkpt>
      <trkpt lat="43.90425" lon="6.00042">
        <ele>544.72</ele>
        <time>2019-06-24T11:46:24Z</time>
      </trkpt>
      <trkpt lat="43.90406" lon="6.00037">
        <ele>541.36</ele>
        <time>2019-06-24T11:46:26Z</time>
      </trkpt>
      <trkpt lat="43.90382" lon="6.00035">
        <ele>537.51</ele>
        <time>2019-06-24T11:46:29Z</time>
      </trkpt>
      <trkpt lat="43.90354" lon="6.00032">
        <ele>534.63</ele>
        <time>2019-06-24T11:46:33Z</time>
      </trkpt>
      <trkpt lat="43.90347" lon="6.00031">
        <ele>533.67</ele>
        <time>2019-06-24T11:46:34Z</time>
      </trkpt>
      <trkpt lat="43.90342" lon="6.00032">
        <ele>532.71</ele>
        <time>2019-06-24T11:46:35Z</time>
      </trkpt>
      <trkpt lat="43.90337" lon="6.00035">
        <ele>531.75</ele>
        <time>2019-06-24T11:46:36Z</time>
      </trkpt>
      <trkpt lat="43.90333" lon="6.00037">
        <ele>530.79</ele>
        <time>2019-06-24T11:46:37Z</time>
      </trkpt>
      <trkpt lat="43.9033" lon="6.00041">
        <ele>530.79</ele>
        <time>2019-06-24T11:46:38Z</time>
      </trkpt>
      <trkpt lat="43.90329" lon="6.00046">
        <ele>530.3</ele>
        <time>2019-06-24T11:46:39Z</time>
      </trkpt>
      <trkpt lat="43.90328" lon="6.00053">
        <ele>529.82</ele>
        <time>2019-06-24T11:46:40Z</time>
      </trkpt>
      <trkpt lat="43.90329" lon="6.0006">
        <ele>529.82</ele>
        <time>2019-06-24T11:46:41Z</time>
      </trkpt>
      <trkpt lat="43.9033" lon="6.00068">
        <ele>529.34</ele>
        <time>2019-06-24T11:46:42Z</time>
      </trkpt>
      <trkpt lat="43.90333" lon="6.00077">
        <ele>528.86</ele>
        <time>2019-06-24T11:46:43Z</time>
      </trkpt>
      <trkpt lat="43.90337" lon="6.00086">
        <ele>529.34</ele>
        <time>2019-06-24T11:46:44Z</time>
      </trkpt>
      <trkpt lat="43.90341" lon="6.00095">
        <ele>528.38</ele>
        <time>2019-06-24T11:46:45Z</time>
      </trkpt>
      <trkpt lat="43.90344" lon="6.00104">
        <ele>528.38</ele>
        <time>2019-06-24T11:46:46Z</time>
      </trkpt>
      <trkpt lat="43.90346" lon="6.00114">
        <ele>527.9</ele>
        <time>2019-06-24T11:46:47Z</time>
      </trkpt>
      <trkpt lat="43.90347" lon="6.00122">
        <ele>526.46</ele>
        <time>2019-06-24T11:46:48Z</time>
      </trkpt>
      <trkpt lat="43.90345" lon="6.00131">
        <ele>526.94</ele>
        <time>2019-06-24T11:46:49Z</time>
      </trkpt>
      <trkpt lat="43.90342" lon="6.00138">
        <ele>527.42</ele>
        <time>2019-06-24T11:46:50Z</time>
      </trkpt>
      <trkpt lat="43.90337" lon="6.00144">
        <ele>527.42</ele>
        <time>2019-06-24T11:46:51Z</time>
      </trkpt>
      <trkpt lat="43.90331" lon="6.00147">
        <ele>525.98</ele>
        <time>2019-06-24T11:46:52Z</time>
      </trkpt>
      <trkpt lat="43.90323" lon="6.00149">
        <ele>526.94</ele>
        <time>2019-06-24T11:46:53Z</time>
      </trkpt>
      <trkpt lat="43.90315" lon="6.00148">
        <ele>525.5</ele>
        <time>2019-06-24T11:46:54Z</time>
      </trkpt>
      <trkpt lat="43.90305" lon="6.00148">
        <ele>524.54</ele>
        <time>2019-06-24T11:46:55Z</time>
      </trkpt>
      <trkpt lat="43.90296" lon="6.00149">
        <ele>523.09</ele>
        <time>2019-06-24T11:46:56Z</time>
      </trkpt>
      <trkpt lat="43.90287" lon="6.0015">
        <ele>524.06</ele>
        <time>2019-06-24T11:46:57Z</time>
      </trkpt>
      <trkpt lat="43.90279" lon="6.00152">
        <ele>522.61</ele>
        <time>2019-06-24T11:46:58Z</time>
      </trkpt>
      <trkpt lat="43.90273" lon="6.00152">
        <ele>522.13</ele>
        <time>2019-06-24T11:46:59Z</time>
      </trkpt>
      <trkpt lat="43.90267" lon="6.00151">
        <ele>521.17</ele>
        <time>2019-06-24T11:47:00Z</time>
      </trkpt>
      <trkpt lat="43.90262" lon="6.00148">
        <ele>521.17</ele>
        <time>2019-06-24T11:47:01Z</time>
      </trkpt>
      <trkpt lat="43.90259" lon="6.00143">
        <ele>520.21</ele>
        <time>2019-06-24T11:47:02Z</time>
      </trkpt>
      <trkpt lat="43.90258" lon="6.00138">
        <ele>519.73</ele>
        <time>2019-06-24T11:47:03Z</time>
      </trkpt>
      <trkpt lat="43.90257" lon="6.00132">
        <ele>519.73</ele>
        <time>2019-06-24T11:47:04Z</time>
      </trkpt>
      <trkpt lat="43.90258" lon="6.00125">
        <ele>519.73</ele>
        <time>2019-06-24T11:47:05Z</time>
      </trkpt>
      <trkpt lat="43.9026" lon="6.00119">
        <ele>518.77</ele>
        <time>2019-06-24T11:47:06Z</time>
      </trkpt>
      <trkpt lat="43.90263" lon="6.00114">
        <ele>518.29</ele>
        <time>2019-06-24T11:47:07Z</time>
      </trkpt>
      <trkpt lat="43.90267" lon="6.0011">
        <ele>517.81</ele>
        <time>2019-06-24T11:47:08Z</time>
      </trkpt>
      <trkpt lat="43.90275" lon="6.00099">
        <ele>516.85</ele>
        <time>2019-06-24T11:47:10Z</time>
      </trkpt>
      <trkpt lat="43.90277" lon="6.00091">
        <ele>515.88</ele>
        <time>2019-06-24T11:47:11Z</time>
      </trkpt>
      <trkpt lat="43.90277" lon="6.00083">
        <ele>515.88</ele>
        <time>2019-06-24T11:47:12Z</time>
      </trkpt>
      <trkpt lat="43.90276" lon="6.00075">
        <ele>515.88</ele>
        <time>2019-06-24T11:47:13Z</time>
      </trkpt>
      <trkpt lat="43.90272" lon="6.00067">
        <ele>515.4</ele>
        <time>2019-06-24T11:47:14Z</time>
      </trkpt>
      <trkpt lat="43.90265" lon="6.0006">
        <ele>514.92</ele>
        <time>2019-06-24T11:47:15Z</time>
      </trkpt>
      <trkpt lat="43.90256" lon="6.00052">
        <ele>514.44</ele>
        <time>2019-06-24T11:47:16Z</time>
      </trkpt>
      <trkpt lat="43.90247" lon="6.00045">
        <ele>513.96</ele>
        <time>2019-06-24T11:47:17Z</time>
      </trkpt>
      <trkpt lat="43.90228" lon="6.00032">
        <ele>511.08</ele>
        <time>2019-06-24T11:47:19Z</time>
      </trkpt>
      <trkpt lat="43.90196" lon="6.00012">
        <ele>507.71</ele>
        <time>2019-06-24T11:47:23Z</time>
      </trkpt>
      <trkpt lat="43.90182" lon="6.00004">
        <ele>506.27</ele>
        <time>2019-06-24T11:47:25Z</time>
      </trkpt>
      <trkpt lat="43.90175" lon="6.00002">
        <ele>504.35</ele>
        <time>2019-06-24T11:47:26Z</time>
      </trkpt>
      <trkpt lat="43.90168" lon="6.00001">
        <ele>502.91</ele>
        <time>2019-06-24T11:47:27Z</time>
      </trkpt>
      <trkpt lat="43.9016" lon="6.00003">
        <ele>501.95</ele>
        <time>2019-06-24T11:47:28Z</time>
      </trkpt>
      <trkpt lat="43.90151" lon="6.00004">
        <ele>501.46</ele>
        <time>2019-06-24T11:47:29Z</time>
      </trkpt>
      <trkpt lat="43.90111" lon="6.00018">
        <ele>497.62</ele>
        <time>2019-06-24T11:47:34Z</time>
      </trkpt>
      <trkpt lat="43.90097" lon="6.00026">
        <ele>496.18</ele>
        <time>2019-06-24T11:47:36Z</time>
      </trkpt>
      <trkpt lat="43.90091" lon="6.00032">
        <ele>495.7</ele>
        <time>2019-06-24T11:47:37Z</time>
      </trkpt>
      <trkpt lat="43.90086" lon="6.00038">
        <ele>495.22</ele>
        <time>2019-06-24T11:47:38Z</time>
      </trkpt>
      <trkpt lat="43.90081" lon="6.00045">
        <ele>494.74</ele>
        <time>2019-06-24T11:47:39Z</time>
      </trkpt>
      <trkpt lat="43.90077" lon="6.00053">
        <ele>494.74</ele>
        <time>2019-06-24T11:47:40Z</time>
      </trkpt>
      <trkpt lat="43.90074" lon="6.00061">
        <ele>493.77</ele>
        <time>2019-06-24T11:47:41Z</time>
      </trkpt>
      <trkpt lat="43.90073" lon="6.00071">
        <ele>493.77</ele>
        <time>2019-06-24T11:47:42Z</time>
      </trkpt>
      <trkpt lat="43.90072" lon="6.00083">
        <ele>493.29</ele>
        <time>2019-06-24T11:47:43Z</time>
      </trkpt>
      <trkpt lat="43.90073" lon="6.00093">
        <ele>492.81</ele>
        <time>2019-06-24T11:47:44Z</time>
      </trkpt>
      <trkpt lat="43.90075" lon="6.00101">
        <ele>492.33</ele>
        <time>2019-06-24T11:47:45Z</time>
      </trkpt>
      <trkpt lat="43.90078" lon="6.0011">
        <ele>492.81</ele>
        <time>2019-06-24T11:47:46Z</time>
      </trkpt>
      <trkpt lat="43.9008" lon="6.00118">
        <ele>492.33</ele>
        <time>2019-06-24T11:47:47Z</time>
      </trkpt>
      <trkpt lat="43.90081" lon="6.00125">
        <ele>491.37</ele>
        <time>2019-06-24T11:47:48Z</time>
      </trkpt>
      <trkpt lat="43.90081" lon="6.00132">
        <ele>491.37</ele>
        <time>2019-06-24T11:47:49Z</time>
      </trkpt>
      <trkpt lat="43.90079" lon="6.00137">
        <ele>490.41</ele>
        <time>2019-06-24T11:47:50Z</time>
      </trkpt>
      <trkpt lat="43.90075" lon="6.0014">
        <ele>489.93</ele>
        <time>2019-06-24T11:47:51Z</time>
      </trkpt>
      <trkpt lat="43.90071" lon="6.00141">
        <ele>489.45</ele>
        <time>2019-06-24T11:47:52Z</time>
      </trkpt>
      <trkpt lat="43.90066" lon="6.00141">
        <ele>488.97</ele>
        <time>2019-06-24T11:47:53Z</time>
      </trkpt>
      <trkpt lat="43.90062" lon="6.0014">
        <ele>488.49</ele>
        <time>2019-06-24T11:47:54Z</time>
      </trkpt>
      <trkpt lat="43.90057" lon="6.00138">
        <ele>488.01</ele>
        <time>2019-06-24T11:47:55Z</time>
      </trkpt>
      <trkpt lat="43.90052" lon="6.00136">
        <ele>487.05</ele>
        <time>2019-06-24T11:47:56Z</time>
      </trkpt>
      <trkpt lat="43.90045" lon="6.00132">
        <ele>486.56</ele>
        <time>2019-06-24T11:47:57Z</time>
      </trkpt>
      <trkpt lat="43.90012" lon="6.00114">
        <ele>482.72</ele>
        <time>2019-06-24T11:48:01Z</time>
      </trkpt>
      <trkpt lat="43.89996" lon="6.00104">
        <ele>479.35</ele>
        <time>2019-06-24T11:48:03Z</time>
      </trkpt>
      <trkpt lat="43.89981" lon="6.00094">
        <ele>475.03</ele>
        <time>2019-06-24T11:48:05Z</time>
      </trkpt>
      <trkpt lat="43.89966" lon="6.00088">
        <ele>473.59</ele>
        <time>2019-06-24T11:48:07Z</time>
      </trkpt>
      <trkpt lat="43.89957" lon="6.00086">
        <ele>472.14</ele>
        <time>2019-06-24T11:48:08Z</time>
      </trkpt>
      <trkpt lat="43.89949" lon="6.00086">
        <ele>471.18</ele>
        <time>2019-06-24T11:48:09Z</time>
      </trkpt>
      <trkpt lat="43.89941" lon="6.00086">
        <ele>469.74</ele>
        <time>2019-06-24T11:48:10Z</time>
      </trkpt>
      <trkpt lat="43.89934" lon="6.00088">
        <ele>468.78</ele>
        <time>2019-06-24T11:48:11Z</time>
      </trkpt>
      <trkpt lat="43.89926" lon="6.00091">
        <ele>467.82</ele>
        <time>2019-06-24T11:48:12Z</time>
      </trkpt>
      <trkpt lat="43.89919" lon="6.00095">
        <ele>467.34</ele>
        <time>2019-06-24T11:48:13Z</time>
      </trkpt>
      <trkpt lat="43.89911" lon="6.001">
        <ele>466.86</ele>
        <time>2019-06-24T11:48:14Z</time>
      </trkpt>
      <trkpt lat="43.89888" lon="6.00114">
        <ele>463.97</ele>
        <time>2019-06-24T11:48:17Z</time>
      </trkpt>
      <trkpt lat="43.89859" lon="6.00125">
        <ele>460.61</ele>
        <time>2019-06-24T11:48:21Z</time>
      </trkpt>
      <trkpt lat="43.89852" lon="6.00128">
        <ele>460.61</ele>
        <time>2019-06-24T11:48:22Z</time>
      </trkpt>
      <trkpt lat="43.89839" lon="6.00138">
        <ele>459.17</ele>
        <time>2019-06-24T11:48:24Z</time>
      </trkpt>
      <trkpt lat="43.89818" lon="6.00156">
        <ele>454.84</ele>
        <time>2019-06-24T11:48:27Z</time>
      </trkpt>
      <trkpt lat="43.89806" lon="6.00167">
        <ele>453.88</ele>
        <time>2019-06-24T11:48:29Z</time>
      </trkpt>
      <trkpt lat="43.89795" lon="6.00176">
        <ele>452.92</ele>
        <time>2019-06-24T11:48:31Z</time>
      </trkpt>
      <trkpt lat="43.89791" lon="6.00178">
        <ele>452.44</ele>
        <time>2019-06-24T11:48:32Z</time>
      </trkpt>
      <trkpt lat="43.89787" lon="6.00178">
        <ele>451.48</ele>
        <time>2019-06-24T11:48:33Z</time>
      </trkpt>
      <trkpt lat="43.89784" lon="6.00176">
        <ele>451.48</ele>
        <time>2019-06-24T11:48:34Z</time>
      </trkpt>
      <trkpt lat="43.89782" lon="6.00173">
        <ele>451.48</ele>
        <time>2019-06-24T11:48:35Z</time>
      </trkpt>
      <trkpt lat="43.89781" lon="6.00169">
        <ele>451</ele>
        <time>2019-06-24T11:48:36Z</time>
      </trkpt>
      <trkpt lat="43.89781" lon="6.00165">
        <ele>451</ele>
        <time>2019-06-24T11:48:37Z</time>
      </trkpt>
      <trkpt lat="43.89782" lon="6.00161">
        <ele>450.52</ele>
        <time>2019-06-24T11:48:38Z</time>
      </trkpt>
      <trkpt lat="43.89785" lon="6.00158">
        <ele>450.03</ele>
        <time>2019-06-24T11:48:39Z</time>
      </trkpt>
      <trkpt lat="43.89788" lon="6.00154">
        <ele>450.03</ele>
        <time>2019-06-24T11:48:40Z</time>
      </trkpt>
      <trkpt lat="43.89814" lon="6.00117">
        <ele>449.07</ele>
        <time>2019-06-24T11:48:45Z</time>
      </trkpt>
      <trkpt lat="43.89817" lon="6.00111">
        <ele>448.11</ele>
        <time>2019-06-24T11:48:46Z</time>
      </trkpt>
      <trkpt lat="43.89818" lon="6.00106">
        <ele>448.11</ele>
        <time>2019-06-24T11:48:47Z</time>
      </trkpt>
      <trkpt lat="43.89817" lon="6.00101">
        <ele>447.63</ele>
        <time>2019-06-24T11:48:48Z</time>
      </trkpt>
      <trkpt lat="43.89813" lon="6.00097">
        <ele>447.63</ele>
        <time>2019-06-24T11:48:49Z</time>
      </trkpt>
      <trkpt lat="43.8981" lon="6.00096">
        <ele>447.15</ele>
        <time>2019-06-24T11:48:50Z</time>
      </trkpt>
      <trkpt lat="43.89807" lon="6.00096">
        <ele>446.67</ele>
        <time>2019-06-24T11:48:51Z</time>
      </trkpt>
      <trkpt lat="43.89803" lon="6.00098">
        <ele>446.19</ele>
        <time>2019-06-24T11:48:52Z</time>
      </trkpt>
      <trkpt lat="43.89798" lon="6.00101">
        <ele>445.71</ele>
        <time>2019-06-24T11:48:53Z</time>
      </trkpt>
      <trkpt lat="43.89791" lon="6.00106">
        <ele>445.23</ele>
        <time>2019-06-24T11:48:54Z</time>
      </trkpt>
      <trkpt lat="43.89766" lon="6.00122">
        <ele>441.38</ele>
        <time>2019-06-24T11:48:57Z</time>
      </trkpt>
      <trkpt lat="43.89748" lon="6.00135">
        <ele>439.46</ele>
        <time>2019-06-24T11:49:00Z</time>
      </trkpt>
      <trkpt lat="43.89741" lon="6.00138">
        <ele>439.46</ele>
        <time>2019-06-24T11:49:01Z</time>
      </trkpt>
      <trkpt lat="43.89704" lon="6.00151">
        <ele>436.1</ele>
        <time>2019-06-24T11:49:06Z</time>
      </trkpt>
      <trkpt lat="43.89682" lon="6.00162">
        <ele>433.69</ele>
        <time>2019-06-24T11:49:09Z</time>
      </trkpt>
      <trkpt lat="43.89658" lon="6.00175">
        <ele>432.25</ele>
        <time>2019-06-24T11:49:13Z</time>
      </trkpt>
      <trkpt lat="43.89614" lon="6.00204">
        <ele>430.33</ele>
        <time>2019-06-24T11:49:19Z</time>
      </trkpt>
      <trkpt lat="43.89586" lon="6.00224">
        <ele>427.92</ele>
        <time>2019-06-24T11:49:23Z</time>
      </trkpt>
      <trkpt lat="43.89579" lon="6.00227">
        <ele>427.44</ele>
        <time>2019-06-24T11:49:24Z</time>
      </trkpt>
      <trkpt lat="43.89573" lon="6.00228">
        <ele>426.96</ele>
        <time>2019-06-24T11:49:25Z</time>
      </trkpt>
      <trkpt lat="43.89568" lon="6.00228">
        <ele>426.48</ele>
        <time>2019-06-24T11:49:26Z</time>
      </trkpt>
      <trkpt lat="43.89565" lon="6.00228">
        <ele>426</ele>
        <time>2019-06-24T11:49:27Z</time>
      </trkpt>
      <trkpt lat="43.89561" lon="6.00229">
        <ele>425.52</ele>
        <time>2019-06-24T11:49:36Z</time>
      </trkpt>
      <trkpt lat="43.89561" lon="6.0023">
        <ele>425.52</ele>
        <time>2019-06-24T11:50:01Z</time>
      </trkpt>
      <trkpt lat="43.8956" lon="6.0023">
        <ele>425.52</ele>
        <time>2019-06-24T11:50:18Z</time>
      </trkpt>
      <trkpt lat="43.89559" lon="6.00232">
        <ele>425.52</ele>
        <time>2019-06-24T11:50:19Z</time>
      </trkpt>
      <trkpt lat="43.89558" lon="6.00237">
        <ele>426</ele>
        <time>2019-06-24T11:50:20Z</time>
      </trkpt>
      <trkpt lat="43.89559" lon="6.00245">
        <ele>425.52</ele>
        <time>2019-06-24T11:50:21Z</time>
      </trkpt>
      <trkpt lat="43.89561" lon="6.00254">
        <ele>425.52</ele>
        <time>2019-06-24T11:50:22Z</time>
      </trkpt>
      <trkpt lat="43.89566" lon="6.00293">
        <ele>426.96</ele>
        <time>2019-06-24T11:50:25Z</time>
      </trkpt>
      <trkpt lat="43.89567" lon="6.00327">
        <ele>427.92</ele>
        <time>2019-06-24T11:50:27Z</time>
      </trkpt>
      <trkpt lat="43.89568" lon="6.00345">
        <ele>427.92</ele>
        <time>2019-06-24T11:50:28Z</time>
      </trkpt>
      <trkpt lat="43.89572" lon="6.00363">
        <ele>428.89</ele>
        <time>2019-06-24T11:50:29Z</time>
      </trkpt>
      <trkpt lat="43.89614" lon="6.00566">
        <ele>428.4</ele>
        <time>2019-06-24T11:50:39Z</time>
      </trkpt>
      <trkpt lat="43.89667" lon="6.00784">
        <ele>429.37</ele>
        <time>2019-06-24T11:50:49Z</time>
      </trkpt>
      <trkpt lat="43.89711" lon="6.01044">
        <ele>430.81</ele>
        <time>2019-06-24T11:51:00Z</time>
      </trkpt>
      <trkpt lat="43.89765" lon="6.01314">
        <ele>432.73</ele>
        <time>2019-06-24T11:51:11Z</time>
      </trkpt>
      <trkpt lat="43.89772" lon="6.01338">
        <ele>432.73</ele>
        <time>2019-06-24T11:51:12Z</time>
      </trkpt>
      <trkpt lat="43.89781" lon="6.0136">
        <ele>432.25</ele>
        <time>2019-06-24T11:51:13Z</time>
      </trkpt>
      <trkpt lat="43.89822" lon="6.01474">
        <ele>433.69</ele>
        <time>2019-06-24T11:51:18Z</time>
      </trkpt>
      <trkpt lat="43.89902" lon="6.01772">
        <ele>434.65</ele>
        <time>2019-06-24T11:51:30Z</time>
      </trkpt>
      <trkpt lat="43.89962" lon="6.0197">
        <ele>434.65</ele>
        <time>2019-06-24T11:51:38Z</time>
      </trkpt>
      <trkpt lat="43.90026" lon="6.02152">
        <ele>436.1</ele>
        <time>2019-06-24T11:51:47Z</time>
      </trkpt>
      <trkpt lat="43.90033" lon="6.02172">
        <ele>437.06</ele>
        <time>2019-06-24T11:51:48Z</time>
      </trkpt>
      <trkpt lat="43.90062" lon="6.02274">
        <ele>436.58</ele>
        <time>2019-06-24T11:51:53Z</time>
      </trkpt>
      <trkpt lat="43.90099" lon="6.02414">
        <ele>435.61</ele>
        <time>2019-06-24T11:52:00Z</time>
      </trkpt>
      <trkpt lat="43.90102" lon="6.02438">
        <ele>434.17</ele>
        <time>2019-06-24T11:52:02Z</time>
      </trkpt>
      <trkpt lat="43.90102" lon="6.02454">
        <ele>434.17</ele>
        <time>2019-06-24T11:52:04Z</time>
      </trkpt>
      <trkpt lat="43.90099" lon="6.0246">
        <ele>434.65</ele>
        <time>2019-06-24T11:52:05Z</time>
      </trkpt>
      <trkpt lat="43.90095" lon="6.02465">
        <ele>434.17</ele>
        <time>2019-06-24T11:52:06Z</time>
      </trkpt>
      <trkpt lat="43.90087" lon="6.0247">
        <ele>433.69</ele>
        <time>2019-06-24T11:52:07Z</time>
      </trkpt>
      <trkpt lat="43.90078" lon="6.02473">
        <ele>433.21</ele>
        <time>2019-06-24T11:52:08Z</time>
      </trkpt>
      <trkpt lat="43.90067" lon="6.02474">
        <ele>432.73</ele>
        <time>2019-06-24T11:52:09Z</time>
      </trkpt>
      <trkpt lat="43.90057" lon="6.02472">
        <ele>432.25</ele>
        <time>2019-06-24T11:52:10Z</time>
      </trkpt>
      <trkpt lat="43.90048" lon="6.0247">
        <ele>431.77</ele>
        <time>2019-06-24T11:52:11Z</time>
      </trkpt>
      <trkpt lat="43.90038" lon="6.02472">
        <ele>430.81</ele>
        <time>2019-06-24T11:52:12Z</time>
      </trkpt>
      <trkpt lat="43.90029" lon="6.02479">
        <ele>429.85</ele>
        <time>2019-06-24T11:52:13Z</time>
      </trkpt>
      <trkpt lat="43.90022" lon="6.0249">
        <ele>429.37</ele>
        <time>2019-06-24T11:52:14Z</time>
      </trkpt>
      <trkpt lat="43.90015" lon="6.02504">
        <ele>428.89</ele>
        <time>2019-06-24T11:52:15Z</time>
      </trkpt>
      <trkpt lat="43.90009" lon="6.0252">
        <ele>429.37</ele>
        <time>2019-06-24T11:52:16Z</time>
      </trkpt>
      <trkpt lat="43.90003" lon="6.02538">
        <ele>427.92</ele>
        <time>2019-06-24T11:52:17Z</time>
      </trkpt>
      <trkpt lat="43.89999" lon="6.02557">
        <ele>428.4</ele>
        <time>2019-06-24T11:52:18Z</time>
      </trkpt>
      <trkpt lat="43.89997" lon="6.02578">
        <ele>427.44</ele>
        <time>2019-06-24T11:52:19Z</time>
      </trkpt>
      <trkpt lat="43.89995" lon="6.02622">
        <ele>426</ele>
        <time>2019-06-24T11:52:21Z</time>
      </trkpt>
      <trkpt lat="43.89991" lon="6.02643">
        <ele>425.52</ele>
        <time>2019-06-24T11:52:22Z</time>
      </trkpt>
      <trkpt lat="43.89985" lon="6.0266">
        <ele>424.56</ele>
        <time>2019-06-24T11:52:23Z</time>
      </trkpt>
      <trkpt lat="43.89977" lon="6.02672">
        <ele>424.08</ele>
        <time>2019-06-24T11:52:24Z</time>
      </trkpt>
      <trkpt lat="43.89968" lon="6.02681">
        <ele>424.08</ele>
        <time>2019-06-24T11:52:25Z</time>
      </trkpt>
      <trkpt lat="43.8996" lon="6.02687">
        <ele>423.12</ele>
        <time>2019-06-24T11:52:26Z</time>
      </trkpt>
      <trkpt lat="43.89891" lon="6.02754">
        <ele>425.52</ele>
        <time>2019-06-24T11:52:34Z</time>
      </trkpt>
      <trkpt lat="43.89801" lon="6.02841">
        <ele>426</ele>
        <time>2019-06-24T11:52:44Z</time>
      </trkpt>
      <trkpt lat="43.89729" lon="6.02905">
        <ele>425.52</ele>
        <time>2019-06-24T11:52:50Z</time>
      </trkpt>
      <trkpt lat="43.89714" lon="6.02911">
        <ele>426</ele>
        <time>2019-06-24T11:52:51Z</time>
      </trkpt>
      <trkpt lat="43.89699" lon="6.02916">
        <ele>426</ele>
        <time>2019-06-24T11:52:52Z</time>
      </trkpt>
      <trkpt lat="43.8958" lon="6.02942">
        <ele>424.56</ele>
        <time>2019-06-24T11:53:01Z</time>
      </trkpt>
      <trkpt lat="43.89558" lon="6.02949">
        <ele>423.6</ele>
        <time>2019-06-24T11:53:03Z</time>
      </trkpt>
      <trkpt lat="43.8955" lon="6.02955">
        <ele>423.12</ele>
        <time>2019-06-24T11:53:04Z</time>
      </trkpt>
      <trkpt lat="43.89542" lon="6.02964">
        <ele>423.6</ele>
        <time>2019-06-24T11:53:05Z</time>
      </trkpt>
      <trkpt lat="43.89536" lon="6.02975">
        <ele>423.6</ele>
        <time>2019-06-24T11:53:06Z</time>
      </trkpt>
      <trkpt lat="43.89532" lon="6.02988">
        <ele>423.6</ele>
        <time>2019-06-24T11:53:07Z</time>
      </trkpt>
      <trkpt lat="43.89528" lon="6.03004">
        <ele>424.08</ele>
        <time>2019-06-24T11:53:08Z</time>
      </trkpt>
      <trkpt lat="43.89524" lon="6.03019">
        <ele>424.56</ele>
        <time>2019-06-24T11:53:09Z</time>
      </trkpt>
      <trkpt lat="43.89522" lon="6.03033">
        <ele>424.08</ele>
        <time>2019-06-24T11:53:10Z</time>
      </trkpt>
      <trkpt lat="43.89509" lon="6.03109">
        <ele>423.12</ele>
        <time>2019-06-24T11:53:19Z</time>
      </trkpt>
      <trkpt lat="43.89496" lon="6.03167">
        <ele>423.6</ele>
        <time>2019-06-24T11:53:26Z</time>
      </trkpt>
      <trkpt lat="43.89472" lon="6.03283">
        <ele>423.6</ele>
        <time>2019-06-24T11:53:35Z</time>
      </trkpt>
      <trkpt lat="43.89466" lon="6.03308">
        <ele>423.6</ele>
        <time>2019-06-24T11:53:38Z</time>
      </trkpt>
      <trkpt lat="43.89453" lon="6.03336">
        <ele>423.12</ele>
        <time>2019-06-24T11:53:46Z</time>
      </trkpt>
      <trkpt lat="43.89446" lon="6.03345">
        <ele>423.6</ele>
        <time>2019-06-24T11:53:56Z</time>
      </trkpt>
      <trkpt lat="43.89438" lon="6.03361">
        <ele>423.6</ele>
        <time>2019-06-24T11:54:07Z</time>
      </trkpt>
      <trkpt lat="43.89435" lon="6.03362">
        <ele>424.08</ele>
        <time>2019-06-24T11:54:13Z</time>
      </trkpt>
      <trkpt lat="43.89433" lon="6.0336">
        <ele>423.12</ele>
        <time>2019-06-24T11:54:14Z</time>
      </trkpt>
      <trkpt lat="43.89431" lon="6.03357">
        <ele>423.6</ele>
        <time>2019-06-24T11:54:15Z</time>
      </trkpt>
      <trkpt lat="43.89429" lon="6.03351">
        <ele>424.08</ele>
        <time>2019-06-24T11:54:16Z</time>
      </trkpt>
      <trkpt lat="43.89426" lon="6.03343">
        <ele>424.56</ele>
        <time>2019-06-24T11:54:17Z</time>
      </trkpt>
      <trkpt lat="43.89399" lon="6.03269">
        <ele>427.92</ele>
        <time>2019-06-24T11:54:23Z</time>
      </trkpt>
      <trkpt lat="43.89394" lon="6.03254">
        <ele>428.4</ele>
        <time>2019-06-24T11:54:24Z</time>
      </trkpt>
      <trkpt lat="43.89376" lon="6.03182">
        <ele>431.77</ele>
        <time>2019-06-24T11:54:29Z</time>
      </trkpt>
      <trkpt lat="43.89375" lon="6.03167">
        <ele>432.25</ele>
        <time>2019-06-24T11:54:30Z</time>
      </trkpt>
      <trkpt lat="43.89375" lon="6.03152">
        <ele>433.69</ele>
        <time>2019-06-24T11:54:31Z</time>
      </trkpt>
      <trkpt lat="43.89376" lon="6.03122">
        <ele>434.65</ele>
        <time>2019-06-24T11:54:33Z</time>
      </trkpt>
      <trkpt lat="43.89375" lon="6.03094">
        <ele>436.1</ele>
        <time>2019-06-24T11:54:35Z</time>
      </trkpt>
      <trkpt lat="43.89373" lon="6.0308">
        <ele>436.1</ele>
        <time>2019-06-24T11:54:36Z</time>
      </trkpt>
      <trkpt lat="43.89356" lon="6.03014">
        <ele>435.13</ele>
        <time>2019-06-24T11:54:43Z</time>
      </trkpt>
      <trkpt lat="43.89353" lon="6.03012">
        <ele>435.13</ele>
        <time>2019-06-24T11:54:44Z</time>
      </trkpt>
      <trkpt lat="43.89349" lon="6.03014">
        <ele>435.61</ele>
        <time>2019-06-24T11:54:45Z</time>
      </trkpt>
      <trkpt lat="43.89345" lon="6.03017">
        <ele>435.61</ele>
        <time>2019-06-24T11:54:46Z</time>
      </trkpt>
      <trkpt lat="43.89342" lon="6.03024">
        <ele>436.58</ele>
        <time>2019-06-24T11:54:47Z</time>
      </trkpt>
      <trkpt lat="43.8934" lon="6.03032">
        <ele>437.06</ele>
        <time>2019-06-24T11:54:48Z</time>
      </trkpt>
      <trkpt lat="43.8934" lon="6.03041">
        <ele>438.02</ele>
        <time>2019-06-24T11:54:49Z</time>
      </trkpt>
      <trkpt lat="43.89341" lon="6.0305">
        <ele>438.5</ele>
        <time>2019-06-24T11:54:50Z</time>
      </trkpt>
      <trkpt lat="43.89343" lon="6.03059">
        <ele>438.98</ele>
        <time>2019-06-24T11:54:51Z</time>
      </trkpt>
      <trkpt lat="43.89345" lon="6.03066">
        <ele>439.46</ele>
        <time>2019-06-24T11:54:52Z</time>
      </trkpt>
      <trkpt lat="43.89345" lon="6.03072">
        <ele>438.98</ele>
        <time>2019-06-24T11:54:53Z</time>
      </trkpt>
      <trkpt lat="43.89342" lon="6.03078">
        <ele>438.98</ele>
        <time>2019-06-24T11:54:54Z</time>
      </trkpt>
      <trkpt lat="43.89338" lon="6.03082">
        <ele>439.46</ele>
        <time>2019-06-24T11:54:55Z</time>
      </trkpt>
      <trkpt lat="43.89334" lon="6.03085">
        <ele>439.94</ele>
        <time>2019-06-24T11:54:56Z</time>
      </trkpt>
      <trkpt lat="43.89329" lon="6.03086">
        <ele>440.42</ele>
        <time>2019-06-24T11:54:57Z</time>
      </trkpt>
      <trkpt lat="43.89324" lon="6.03086">
        <ele>441.86</ele>
        <time>2019-06-24T11:54:58Z</time>
      </trkpt>
      <trkpt lat="43.89319" lon="6.03085">
        <ele>442.34</ele>
        <time>2019-06-24T11:54:59Z</time>
      </trkpt>
      <trkpt lat="43.89313" lon="6.03082">
        <ele>442.34</ele>
        <time>2019-06-24T11:55:00Z</time>
      </trkpt>
      <trkpt lat="43.89307" lon="6.03077">
        <ele>444.27</ele>
        <time>2019-06-24T11:55:01Z</time>
      </trkpt>
      <trkpt lat="43.893" lon="6.03072">
        <ele>444.75</ele>
        <time>2019-06-24T11:55:02Z</time>
      </trkpt>
      <trkpt lat="43.89293" lon="6.03069">
        <ele>445.71</ele>
        <time>2019-06-24T11:55:03Z</time>
      </trkpt>
      <trkpt lat="43.89286" lon="6.03066">
        <ele>446.19</ele>
        <time>2019-06-24T11:55:04Z</time>
      </trkpt>
      <trkpt lat="43.89275" lon="6.03059">
        <ele>447.63</ele>
        <time>2019-06-24T11:55:06Z</time>
      </trkpt>
      <trkpt lat="43.8927" lon="6.03055">
        <ele>448.59</ele>
        <time>2019-06-24T11:55:07Z</time>
      </trkpt>
      <trkpt lat="43.89266" lon="6.0305">
        <ele>449.07</ele>
        <time>2019-06-24T11:55:08Z</time>
      </trkpt>
      <trkpt lat="43.89263" lon="6.03045">
        <ele>449.07</ele>
        <time>2019-06-24T11:55:09Z</time>
      </trkpt>
      <trkpt lat="43.89262" lon="6.03038">
        <ele>450.03</ele>
        <time>2019-06-24T11:55:10Z</time>
      </trkpt>
      <trkpt lat="43.89261" lon="6.0303">
        <ele>450.52</ele>
        <time>2019-06-24T11:55:11Z</time>
      </trkpt>
      <trkpt lat="43.89263" lon="6.03022">
        <ele>451</ele>
        <time>2019-06-24T11:55:12Z</time>
      </trkpt>
      <trkpt lat="43.89265" lon="6.03014">
        <ele>451</ele>
        <time>2019-06-24T11:55:13Z</time>
      </trkpt>
      <trkpt lat="43.89267" lon="6.03006">
        <ele>451.96</ele>
        <time>2019-06-24T11:55:14Z</time>
      </trkpt>
      <trkpt lat="43.89269" lon="6.03">
        <ele>451.96</ele>
        <time>2019-06-24T11:55:15Z</time>
      </trkpt>
      <trkpt lat="43.8927" lon="6.02994">
        <ele>452.44</ele>
        <time>2019-06-24T11:55:16Z</time>
      </trkpt>
      <trkpt lat="43.8927" lon="6.02989">
        <ele>452.92</ele>
        <time>2019-06-24T11:55:17Z</time>
      </trkpt>
      <trkpt lat="43.89267" lon="6.02987">
        <ele>453.4</ele>
        <time>2019-06-24T11:55:18Z</time>
      </trkpt>
      <trkpt lat="43.89264" lon="6.02987">
        <ele>453.4</ele>
        <time>2019-06-24T11:55:19Z</time>
      </trkpt>
      <trkpt lat="43.89261" lon="6.0299">
        <ele>454.36</ele>
        <time>2019-06-24T11:55:20Z</time>
      </trkpt>
      <trkpt lat="43.89258" lon="6.02997">
        <ele>455.32</ele>
        <time>2019-06-24T11:55:21Z</time>
      </trkpt>
      <trkpt lat="43.89255" lon="6.03005">
        <ele>455.8</ele>
        <time>2019-06-24T11:55:22Z</time>
      </trkpt>
      <trkpt lat="43.89252" lon="6.03014">
        <ele>456.28</ele>
        <time>2019-06-24T11:55:23Z</time>
      </trkpt>
      <trkpt lat="43.89247" lon="6.03024">
        <ele>457.24</ele>
        <time>2019-06-24T11:55:24Z</time>
      </trkpt>
      <trkpt lat="43.89229" lon="6.03056">
        <ele>460.13</ele>
        <time>2019-06-24T11:55:27Z</time>
      </trkpt>
      <trkpt lat="43.89216" lon="6.03087">
        <ele>462.05</ele>
        <time>2019-06-24T11:55:30Z</time>
      </trkpt>
      <trkpt lat="43.89206" lon="6.03114">
        <ele>463.01</ele>
        <time>2019-06-24T11:55:33Z</time>
      </trkpt>
      <trkpt lat="43.89203" lon="6.03118">
        <ele>463.97</ele>
        <time>2019-06-24T11:55:34Z</time>
      </trkpt>
      <trkpt lat="43.89202" lon="6.03116">
        <ele>463.49</ele>
        <time>2019-06-24T11:55:36Z</time>
      </trkpt>
      <trkpt lat="43.89204" lon="6.03108">
        <ele>463.97</ele>
        <time>2019-06-24T11:55:37Z</time>
      </trkpt>
      <trkpt lat="43.89208" lon="6.03099">
        <ele>464.93</ele>
        <time>2019-06-24T11:55:38Z</time>
      </trkpt>
      <trkpt lat="43.89213" lon="6.03087">
        <ele>464.93</ele>
        <time>2019-06-24T11:55:39Z</time>
      </trkpt>
      <trkpt lat="43.89217" lon="6.03075">
        <ele>465.42</ele>
        <time>2019-06-24T11:55:40Z</time>
      </trkpt>
      <trkpt lat="43.89221" lon="6.03061">
        <ele>465.9</ele>
        <time>2019-06-24T11:55:41Z</time>
      </trkpt>
      <trkpt lat="43.89239" lon="6.02995">
        <ele>467.82</ele>
        <time>2019-06-24T11:55:46Z</time>
      </trkpt>
      <trkpt lat="43.89238" lon="6.02984">
        <ele>467.82</ele>
        <time>2019-06-24T11:55:47Z</time>
      </trkpt>
      <trkpt lat="43.89231" lon="6.02965">
        <ele>468.78</ele>
        <time>2019-06-24T11:55:49Z</time>
      </trkpt>
      <trkpt lat="43.89225" lon="6.02957">
        <ele>469.74</ele>
        <time>2019-06-24T11:55:50Z</time>
      </trkpt>
      <trkpt lat="43.89215" lon="6.02951">
        <ele>470.7</ele>
        <time>2019-06-24T11:55:51Z</time>
      </trkpt>
      <trkpt lat="43.89203" lon="6.02947">
        <ele>471.18</ele>
        <time>2019-06-24T11:55:52Z</time>
      </trkpt>
      <trkpt lat="43.89189" lon="6.02944">
        <ele>472.14</ele>
        <time>2019-06-24T11:55:53Z</time>
      </trkpt>
      <trkpt lat="43.89177" lon="6.02941">
        <ele>473.11</ele>
        <time>2019-06-24T11:55:54Z</time>
      </trkpt>
      <trkpt lat="43.89139" lon="6.02934">
        <ele>476.47</ele>
        <time>2019-06-24T11:55:57Z</time>
      </trkpt>
      <trkpt lat="43.89102" lon="6.02923">
        <ele>480.32</ele>
        <time>2019-06-24T11:56:00Z</time>
      </trkpt>
      <trkpt lat="43.89089" lon="6.02921">
        <ele>480.8</ele>
        <time>2019-06-24T11:56:01Z</time>
      </trkpt>
      <trkpt lat="43.89077" lon="6.02921">
        <ele>482.24</ele>
        <time>2019-06-24T11:56:02Z</time>
      </trkpt>
      <trkpt lat="43.89065" lon="6.02922">
        <ele>483.2</ele>
        <time>2019-06-24T11:56:03Z</time>
      </trkpt>
      <trkpt lat="43.89054" lon="6.02924">
        <ele>484.16</ele>
        <time>2019-06-24T11:56:04Z</time>
      </trkpt>
      <trkpt lat="43.89044" lon="6.02929">
        <ele>484.64</ele>
        <time>2019-06-24T11:56:05Z</time>
      </trkpt>
      <trkpt lat="43.89035" lon="6.02936">
        <ele>485.6</ele>
        <time>2019-06-24T11:56:06Z</time>
      </trkpt>
      <trkpt lat="43.89027" lon="6.02944">
        <ele>487.05</ele>
        <time>2019-06-24T11:56:07Z</time>
      </trkpt>
      <trkpt lat="43.88995" lon="6.02968">
        <ele>489.93</ele>
        <time>2019-06-24T11:56:10Z</time>
      </trkpt>
      <trkpt lat="43.88959" lon="6.02986">
        <ele>491.85</ele>
        <time>2019-06-24T11:56:13Z</time>
      </trkpt>
      <trkpt lat="43.88918" lon="6.03003">
        <ele>494.74</ele>
        <time>2019-06-24T11:56:17Z</time>
      </trkpt>
      <trkpt lat="43.8891" lon="6.03004">
        <ele>494.74</ele>
        <time>2019-06-24T11:56:18Z</time>
      </trkpt>
      <trkpt lat="43.88904" lon="6.03007">
        <ele>495.22</ele>
        <time>2019-06-24T11:56:19Z</time>
      </trkpt>
      <trkpt lat="43.889" lon="6.03012">
        <ele>496.18</ele>
        <time>2019-06-24T11:56:20Z</time>
      </trkpt>
      <trkpt lat="43.88898" lon="6.03017">
        <ele>496.66</ele>
        <time>2019-06-24T11:56:21Z</time>
      </trkpt>
      <trkpt lat="43.889" lon="6.03023">
        <ele>496.66</ele>
        <time>2019-06-24T11:56:22Z</time>
      </trkpt>
      <trkpt lat="43.88904" lon="6.03026">
        <ele>497.14</ele>
        <time>2019-06-24T11:56:23Z</time>
      </trkpt>
      <trkpt lat="43.88911" lon="6.03025">
        <ele>497.62</ele>
        <time>2019-06-24T11:56:24Z</time>
      </trkpt>
      <trkpt lat="43.88919" lon="6.03021">
        <ele>498.1</ele>
        <time>2019-06-24T11:56:25Z</time>
      </trkpt>
      <trkpt lat="43.88928" lon="6.03017">
        <ele>499.54</ele>
        <time>2019-06-24T11:56:26Z</time>
      </trkpt>
      <trkpt lat="43.88937" lon="6.03014">
        <ele>500.02</ele>
        <time>2019-06-24T11:56:27Z</time>
      </trkpt>
      <trkpt lat="43.88948" lon="6.03012">
        <ele>501.46</ele>
        <time>2019-06-24T11:56:28Z</time>
      </trkpt>
      <trkpt lat="43.88991" lon="6.03003">
        <ele>504.83</ele>
        <time>2019-06-24T11:56:32Z</time>
      </trkpt>
      <trkpt lat="43.89004" lon="6.03">
        <ele>505.31</ele>
        <time>2019-06-24T11:56:34Z</time>
      </trkpt>
      <trkpt lat="43.89008" lon="6.03003">
        <ele>505.79</ele>
        <time>2019-06-24T11:56:35Z</time>
      </trkpt>
      <trkpt lat="43.89009" lon="6.03008">
        <ele>506.27</ele>
        <time>2019-06-24T11:56:36Z</time>
      </trkpt>
      <trkpt lat="43.89007" lon="6.03014">
        <ele>506.75</ele>
        <time>2019-06-24T11:56:37Z</time>
      </trkpt>
      <trkpt lat="43.89002" lon="6.03018">
        <ele>507.71</ele>
        <time>2019-06-24T11:56:38Z</time>
      </trkpt>
      <trkpt lat="43.88995" lon="6.0302">
        <ele>509.16</ele>
        <time>2019-06-24T11:56:39Z</time>
      </trkpt>
      <trkpt lat="43.88987" lon="6.03021">
        <ele>509.16</ele>
        <time>2019-06-24T11:56:40Z</time>
      </trkpt>
      <trkpt lat="43.88979" lon="6.03024">
        <ele>510.12</ele>
        <time>2019-06-24T11:56:41Z</time>
      </trkpt>
      <trkpt lat="43.8897" lon="6.03029">
        <ele>511.08</ele>
        <time>2019-06-24T11:56:42Z</time>
      </trkpt>
      <trkpt lat="43.8894" lon="6.03049">
        <ele>514.44</ele>
        <time>2019-06-24T11:56:45Z</time>
      </trkpt>
      <trkpt lat="43.88905" lon="6.03066">
        <ele>517.81</ele>
        <time>2019-06-24T11:56:48Z</time>
      </trkpt>
      <trkpt lat="43.88878" lon="6.03075">
        <ele>521.17</ele>
        <time>2019-06-24T11:56:50Z</time>
      </trkpt>
      <trkpt lat="43.88836" lon="6.03087">
        <ele>525.5</ele>
        <time>2019-06-24T11:56:53Z</time>
      </trkpt>
      <trkpt lat="43.88791" lon="6.03098">
        <ele>529.34</ele>
        <time>2019-06-24T11:56:56Z</time>
      </trkpt>
      <trkpt lat="43.88743" lon="6.03111">
        <ele>534.15</ele>
        <time>2019-06-24T11:56:59Z</time>
      </trkpt>
      <trkpt lat="43.88698" lon="6.03131">
        <ele>537.99</ele>
        <time>2019-06-24T11:57:02Z</time>
      </trkpt>
      <trkpt lat="43.88671" lon="6.03146">
        <ele>541.36</ele>
        <time>2019-06-24T11:57:04Z</time>
      </trkpt>
      <trkpt lat="43.88659" lon="6.03156">
        <ele>541.36</ele>
        <time>2019-06-24T11:57:05Z</time>
      </trkpt>
      <trkpt lat="43.88648" lon="6.03166">
        <ele>543.28</ele>
        <time>2019-06-24T11:57:06Z</time>
      </trkpt>
      <trkpt lat="43.88627" lon="6.03182">
        <ele>545.2</ele>
        <time>2019-06-24T11:57:08Z</time>
      </trkpt>
      <trkpt lat="43.88618" lon="6.03194">
        <ele>545.2</ele>
        <time>2019-06-24T11:57:09Z</time>
      </trkpt>
      <trkpt lat="43.8861" lon="6.0321">
        <ele>546.17</ele>
        <time>2019-06-24T11:57:10Z</time>
      </trkpt>
      <trkpt lat="43.88605" lon="6.03228">
        <ele>546.65</ele>
        <time>2019-06-24T11:57:11Z</time>
      </trkpt>
      <trkpt lat="43.88599" lon="6.03246">
        <ele>547.61</ele>
        <time>2019-06-24T11:57:12Z</time>
      </trkpt>
      <trkpt lat="43.88594" lon="6.03265">
        <ele>549.05</ele>
        <time>2019-06-24T11:57:13Z</time>
      </trkpt>
      <trkpt lat="43.88574" lon="6.03321">
        <ele>550.49</ele>
        <time>2019-06-24T11:57:16Z</time>
      </trkpt>
      <trkpt lat="43.88565" lon="6.03361">
        <ele>553.38</ele>
        <time>2019-06-24T11:57:18Z</time>
      </trkpt>
      <trkpt lat="43.88561" lon="6.03381">
        <ele>553.86</ele>
        <time>2019-06-24T11:57:19Z</time>
      </trkpt>
      <trkpt lat="43.88559" lon="6.03401">
        <ele>553.86</ele>
        <time>2019-06-24T11:57:20Z</time>
      </trkpt>
      <trkpt lat="43.88559" lon="6.0342">
        <ele>553.38</ele>
        <time>2019-06-24T11:57:21Z</time>
      </trkpt>
      <trkpt lat="43.8856" lon="6.03439">
        <ele>553.86</ele>
        <time>2019-06-24T11:57:22Z</time>
      </trkpt>
      <trkpt lat="43.88562" lon="6.03457">
        <ele>554.34</ele>
        <time>2019-06-24T11:57:23Z</time>
      </trkpt>
      <trkpt lat="43.88566" lon="6.03475">
        <ele>554.34</ele>
        <time>2019-06-24T11:57:24Z</time>
      </trkpt>
      <trkpt lat="43.88574" lon="6.03492">
        <ele>555.3</ele>
        <time>2019-06-24T11:57:25Z</time>
      </trkpt>
      <trkpt lat="43.88584" lon="6.03509">
        <ele>555.3</ele>
        <time>2019-06-24T11:57:26Z</time>
      </trkpt>
      <trkpt lat="43.88595" lon="6.03526">
        <ele>555.78</ele>
        <time>2019-06-24T11:57:27Z</time>
      </trkpt>
      <trkpt lat="43.88625" lon="6.03577">
        <ele>555.78</ele>
        <time>2019-06-24T11:57:30Z</time>
      </trkpt>
      <trkpt lat="43.88631" lon="6.03597">
        <ele>555.78</ele>
        <time>2019-06-24T11:57:31Z</time>
      </trkpt>
      <trkpt lat="43.88634" lon="6.03618">
        <ele>555.78</ele>
        <time>2019-06-24T11:57:32Z</time>
      </trkpt>
      <trkpt lat="43.88633" lon="6.0364">
        <ele>555.78</ele>
        <time>2019-06-24T11:57:33Z</time>
      </trkpt>
      <trkpt lat="43.8863" lon="6.03662">
        <ele>556.26</ele>
        <time>2019-06-24T11:57:34Z</time>
      </trkpt>
      <trkpt lat="43.88625" lon="6.03684">
        <ele>556.74</ele>
        <time>2019-06-24T11:57:35Z</time>
      </trkpt>
      <trkpt lat="43.88611" lon="6.03749">
        <ele>556.74</ele>
        <time>2019-06-24T11:57:38Z</time>
      </trkpt>
      <trkpt lat="43.88603" lon="6.03768">
        <ele>558.18</ele>
        <time>2019-06-24T11:57:39Z</time>
      </trkpt>
      <trkpt lat="43.88589" lon="6.03805">
        <ele>560.59</ele>
        <time>2019-06-24T11:57:41Z</time>
      </trkpt>
      <trkpt lat="43.88584" lon="6.03826">
        <ele>561.55</ele>
        <time>2019-06-24T11:57:42Z</time>
      </trkpt>
      <trkpt lat="43.88569" lon="6.0389">
        <ele>565.39</ele>
        <time>2019-06-24T11:57:45Z</time>
      </trkpt>
      <trkpt lat="43.88555" lon="6.03932">
        <ele>569.24</ele>
        <time>2019-06-24T11:57:47Z</time>
      </trkpt>
      <trkpt lat="43.88549" lon="6.03954">
        <ele>569.24</ele>
        <time>2019-06-24T11:57:48Z</time>
      </trkpt>
      <trkpt lat="43.88544" lon="6.03977">
        <ele>571.16</ele>
        <time>2019-06-24T11:57:49Z</time>
      </trkpt>
      <trkpt lat="43.88538" lon="6.04021">
        <ele>574.04</ele>
        <time>2019-06-24T11:57:51Z</time>
      </trkpt>
      <trkpt lat="43.88538" lon="6.04043">
        <ele>575.01</ele>
        <time>2019-06-24T11:57:52Z</time>
      </trkpt>
      <trkpt lat="43.88539" lon="6.04064">
        <ele>575.49</ele>
        <time>2019-06-24T11:57:53Z</time>
      </trkpt>
      <trkpt lat="43.88541" lon="6.04085">
        <ele>577.89</ele>
        <time>2019-06-24T11:57:54Z</time>
      </trkpt>
      <trkpt lat="43.88544" lon="6.04105">
        <ele>578.85</ele>
        <time>2019-06-24T11:57:55Z</time>
      </trkpt>
      <trkpt lat="43.88549" lon="6.04124">
        <ele>579.33</ele>
        <time>2019-06-24T11:57:56Z</time>
      </trkpt>
      <trkpt lat="43.88555" lon="6.0414">
        <ele>579.33</ele>
        <time>2019-06-24T11:57:57Z</time>
      </trkpt>
      <trkpt lat="43.88562" lon="6.04153">
        <ele>579.33</ele>
        <time>2019-06-24T11:57:58Z</time>
      </trkpt>
      <trkpt lat="43.88568" lon="6.04165">
        <ele>579.33</ele>
        <time>2019-06-24T11:57:59Z</time>
      </trkpt>
      <trkpt lat="43.88572" lon="6.04175">
        <ele>579.81</ele>
        <time>2019-06-24T11:58:00Z</time>
      </trkpt>
      <trkpt lat="43.88572" lon="6.04184">
        <ele>579.81</ele>
        <time>2019-06-24T11:58:01Z</time>
      </trkpt>
      <trkpt lat="43.88569" lon="6.04191">
        <ele>579.33</ele>
        <time>2019-06-24T11:58:02Z</time>
      </trkpt>
      <trkpt lat="43.88565" lon="6.04196">
        <ele>578.85</ele>
        <time>2019-06-24T11:58:03Z</time>
      </trkpt>
      <trkpt lat="43.8856" lon="6.04198">
        <ele>579.81</ele>
        <time>2019-06-24T11:58:04Z</time>
      </trkpt>
      <trkpt lat="43.88556" lon="6.04196">
        <ele>581.25</ele>
        <time>2019-06-24T11:58:05Z</time>
      </trkpt>
      <trkpt lat="43.88544" lon="6.04186">
        <ele>581.73</ele>
        <time>2019-06-24T11:58:06Z</time>
      </trkpt>
      <trkpt lat="43.8853" lon="6.04176">
        <ele>582.22</ele>
        <time>2019-06-24T11:58:07Z</time>
      </trkpt>
      <trkpt lat="43.88516" lon="6.04171">
        <ele>583.18</ele>
        <time>2019-06-24T11:58:08Z</time>
      </trkpt>
      <trkpt lat="43.88502" lon="6.04167">
        <ele>584.14</ele>
        <time>2019-06-24T11:58:09Z</time>
      </trkpt>
      <trkpt lat="43.88491" lon="6.04165">
        <ele>584.62</ele>
        <time>2019-06-24T11:58:10Z</time>
      </trkpt>
      <trkpt lat="43.88483" lon="6.04158">
        <ele>585.58</ele>
        <time>2019-06-24T11:58:11Z</time>
      </trkpt>
      <trkpt lat="43.88477" lon="6.04146">
        <ele>586.54</ele>
        <time>2019-06-24T11:58:12Z</time>
      </trkpt>
      <trkpt lat="43.88471" lon="6.0413">
        <ele>588.46</ele>
        <time>2019-06-24T11:58:13Z</time>
      </trkpt>
      <trkpt lat="43.88466" lon="6.04114">
        <ele>588.95</ele>
        <time>2019-06-24T11:58:14Z</time>
      </trkpt>
      <trkpt lat="43.88445" lon="6.04069">
        <ele>591.83</ele>
        <time>2019-06-24T11:58:17Z</time>
      </trkpt>
      <trkpt lat="43.88439" lon="6.04062">
        <ele>591.83</ele>
        <time>2019-06-24T11:58:18Z</time>
      </trkpt>
      <trkpt lat="43.88434" lon="6.0406">
        <ele>591.83</ele>
        <time>2019-06-24T11:58:19Z</time>
      </trkpt>
      <trkpt lat="43.8843" lon="6.04061">
        <ele>592.31</ele>
        <time>2019-06-24T11:58:20Z</time>
      </trkpt>
      <trkpt lat="43.88428" lon="6.04063">
        <ele>593.27</ele>
        <time>2019-06-24T11:58:21Z</time>
      </trkpt>
      <trkpt lat="43.88428" lon="6.04069">
        <ele>593.27</ele>
        <time>2019-06-24T11:58:22Z</time>
      </trkpt>
      <trkpt lat="43.88431" lon="6.04078">
        <ele>593.75</ele>
        <time>2019-06-24T11:58:23Z</time>
      </trkpt>
      <trkpt lat="43.88439" lon="6.04115">
        <ele>597.12</ele>
        <time>2019-06-24T11:58:26Z</time>
      </trkpt>
      <trkpt lat="43.8844" lon="6.04131">
        <ele>598.56</ele>
        <time>2019-06-24T11:58:27Z</time>
      </trkpt>
      <trkpt lat="43.88444" lon="6.0418">
        <ele>600.96</ele>
        <time>2019-06-24T11:58:30Z</time>
      </trkpt>
      <trkpt lat="43.88448" lon="6.04211">
        <ele>601.44</ele>
        <time>2019-06-24T11:58:33Z</time>
      </trkpt>
      <trkpt lat="43.88446" lon="6.04215">
        <ele>601.44</ele>
        <time>2019-06-24T11:58:34Z</time>
      </trkpt>
      <trkpt lat="43.88444" lon="6.04214">
        <ele>601.92</ele>
        <time>2019-06-24T11:58:35Z</time>
      </trkpt>
      <trkpt lat="43.88443" lon="6.04208">
        <ele>602.88</ele>
        <time>2019-06-24T11:58:36Z</time>
      </trkpt>
      <trkpt lat="43.88442" lon="6.04199">
        <ele>602.88</ele>
        <time>2019-06-24T11:58:37Z</time>
      </trkpt>
      <trkpt lat="43.8844" lon="6.04187">
        <ele>604.33</ele>
        <time>2019-06-24T11:58:38Z</time>
      </trkpt>
      <trkpt lat="43.8843" lon="6.04132">
        <ele>608.65</ele>
        <time>2019-06-24T11:58:42Z</time>
      </trkpt>
      <trkpt lat="43.88425" lon="6.04117">
        <ele>608.65</ele>
        <time>2019-06-24T11:58:43Z</time>
      </trkpt>
      <trkpt lat="43.88416" lon="6.04101">
        <ele>610.09</ele>
        <time>2019-06-24T11:58:44Z</time>
      </trkpt>
      <trkpt lat="43.88405" lon="6.04089">
        <ele>610.57</ele>
        <time>2019-06-24T11:58:45Z</time>
      </trkpt>
      <trkpt lat="43.88397" lon="6.04082">
        <ele>612.02</ele>
        <time>2019-06-24T11:58:46Z</time>
      </trkpt>
      <trkpt lat="43.8839" lon="6.04078">
        <ele>611.54</ele>
        <time>2019-06-24T11:58:47Z</time>
      </trkpt>
      <trkpt lat="43.88385" lon="6.04079">
        <ele>612.02</ele>
        <time>2019-06-24T11:58:48Z</time>
      </trkpt>
      <trkpt lat="43.88382" lon="6.04083">
        <ele>612.02</ele>
        <time>2019-06-24T11:58:49Z</time>
      </trkpt>
      <trkpt lat="43.88382" lon="6.04089">
        <ele>612.5</ele>
        <time>2019-06-24T11:58:50Z</time>
      </trkpt>
      <trkpt lat="43.88386" lon="6.04097">
        <ele>613.46</ele>
        <time>2019-06-24T11:58:51Z</time>
      </trkpt>
      <trkpt lat="43.88391" lon="6.04105">
        <ele>613.94</ele>
        <time>2019-06-24T11:58:52Z</time>
      </trkpt>
      <trkpt lat="43.88396" lon="6.04116">
        <ele>614.9</ele>
        <time>2019-06-24T11:58:53Z</time>
      </trkpt>
      <trkpt lat="43.88399" lon="6.04128">
        <ele>615.38</ele>
        <time>2019-06-24T11:58:54Z</time>
      </trkpt>
      <trkpt lat="43.88401" lon="6.04143">
        <ele>616.82</ele>
        <time>2019-06-24T11:58:55Z</time>
      </trkpt>
      <trkpt lat="43.88401" lon="6.0416">
        <ele>617.78</ele>
        <time>2019-06-24T11:58:56Z</time>
      </trkpt>
      <trkpt lat="43.884" lon="6.04176">
        <ele>618.75</ele>
        <time>2019-06-24T11:58:57Z</time>
      </trkpt>
      <trkpt lat="43.88401" lon="6.04193">
        <ele>619.23</ele>
        <time>2019-06-24T11:58:58Z</time>
      </trkpt>
      <trkpt lat="43.88403" lon="6.04211">
        <ele>620.19</ele>
        <time>2019-06-24T11:58:59Z</time>
      </trkpt>
      <trkpt lat="43.88404" lon="6.0423">
        <ele>621.15</ele>
        <time>2019-06-24T11:59:00Z</time>
      </trkpt>
      <trkpt lat="43.88402" lon="6.04248">
        <ele>622.11</ele>
        <time>2019-06-24T11:59:01Z</time>
      </trkpt>
      <trkpt lat="43.88398" lon="6.04266">
        <ele>623.07</ele>
        <time>2019-06-24T11:59:02Z</time>
      </trkpt>
      <trkpt lat="43.88392" lon="6.04285">
        <ele>624.03</ele>
        <time>2019-06-24T11:59:03Z</time>
      </trkpt>
      <trkpt lat="43.88372" lon="6.04343">
        <ele>627.4</ele>
        <time>2019-06-24T11:59:07Z</time>
      </trkpt>
      <trkpt lat="43.88369" lon="6.04349">
        <ele>627.4</ele>
        <time>2019-06-24T11:59:08Z</time>
      </trkpt>
      <trkpt lat="43.88366" lon="6.0435">
        <ele>627.4</ele>
        <time>2019-06-24T11:59:09Z</time>
      </trkpt>
      <trkpt lat="43.88365" lon="6.04347">
        <ele>628.36</ele>
        <time>2019-06-24T11:59:10Z</time>
      </trkpt>
      <trkpt lat="43.88364" lon="6.0434">
        <ele>628.84</ele>
        <time>2019-06-24T11:59:11Z</time>
      </trkpt>
      <trkpt lat="43.88365" lon="6.04331">
        <ele>629.32</ele>
        <time>2019-06-24T11:59:12Z</time>
      </trkpt>
      <trkpt lat="43.88369" lon="6.04321">
        <ele>629.8</ele>
        <time>2019-06-24T11:59:13Z</time>
      </trkpt>
      <trkpt lat="43.88373" lon="6.04311">
        <ele>629.8</ele>
        <time>2019-06-24T11:59:14Z</time>
      </trkpt>
      <trkpt lat="43.88377" lon="6.04299">
        <ele>630.28</ele>
        <time>2019-06-24T11:59:15Z</time>
      </trkpt>
      <trkpt lat="43.88381" lon="6.04286">
        <ele>631.24</ele>
        <time>2019-06-24T11:59:16Z</time>
      </trkpt>
      <trkpt lat="43.88384" lon="6.04272">
        <ele>632.2</ele>
        <time>2019-06-24T11:59:17Z</time>
      </trkpt>
      <trkpt lat="43.88384" lon="6.04257">
        <ele>633.17</ele>
        <time>2019-06-24T11:59:18Z</time>
      </trkpt>
      <trkpt lat="43.88382" lon="6.04241">
        <ele>634.13</ele>
        <time>2019-06-24T11:59:19Z</time>
      </trkpt>
      <trkpt lat="43.88378" lon="6.04225">
        <ele>634.61</ele>
        <time>2019-06-24T11:59:20Z</time>
      </trkpt>
      <trkpt lat="43.88373" lon="6.04208">
        <ele>635.57</ele>
        <time>2019-06-24T11:59:21Z</time>
      </trkpt>
      <trkpt lat="43.88364" lon="6.04173">
        <ele>637.97</ele>
        <time>2019-06-24T11:59:23Z</time>
      </trkpt>
      <trkpt lat="43.88357" lon="6.04158">
        <ele>637.97</ele>
        <time>2019-06-24T11:59:24Z</time>
      </trkpt>
      <trkpt lat="43.88351" lon="6.04146">
        <ele>637.49</ele>
        <time>2019-06-24T11:59:25Z</time>
      </trkpt>
      <trkpt lat="43.88345" lon="6.04138">
        <ele>637.49</ele>
        <time>2019-06-24T11:59:26Z</time>
      </trkpt>
      <trkpt lat="43.88339" lon="6.04134">
        <ele>637.49</ele>
        <time>2019-06-24T11:59:27Z</time>
      </trkpt>
      <trkpt lat="43.88334" lon="6.04135">
        <ele>637.97</ele>
        <time>2019-06-24T11:59:28Z</time>
      </trkpt>
      <trkpt lat="43.88331" lon="6.04139">
        <ele>638.45</ele>
        <time>2019-06-24T11:59:29Z</time>
      </trkpt>
      <trkpt lat="43.88332" lon="6.04146">
        <ele>639.41</ele>
        <time>2019-06-24T11:59:30Z</time>
      </trkpt>
      <trkpt lat="43.88336" lon="6.04154">
        <ele>639.89</ele>
        <time>2019-06-24T11:59:31Z</time>
      </trkpt>
      <trkpt lat="43.88342" lon="6.04163">
        <ele>640.38</ele>
        <time>2019-06-24T11:59:32Z</time>
      </trkpt>
      <trkpt lat="43.88346" lon="6.04175">
        <ele>641.34</ele>
        <time>2019-06-24T11:59:33Z</time>
      </trkpt>
      <trkpt lat="43.88349" lon="6.04189">
        <ele>642.3</ele>
        <time>2019-06-24T11:59:34Z</time>
      </trkpt>
      <trkpt lat="43.8835" lon="6.04204">
        <ele>643.74</ele>
        <time>2019-06-24T11:59:35Z</time>
      </trkpt>
      <trkpt lat="43.88351" lon="6.0422">
        <ele>644.22</ele>
        <time>2019-06-24T11:59:36Z</time>
      </trkpt>
      <trkpt lat="43.88349" lon="6.04271">
        <ele>647.1</ele>
        <time>2019-06-24T11:59:39Z</time>
      </trkpt>
      <trkpt lat="43.88344" lon="6.04288">
        <ele>649.03</ele>
        <time>2019-06-24T11:59:40Z</time>
      </trkpt>
      <trkpt lat="43.88337" lon="6.04304">
        <ele>649.99</ele>
        <time>2019-06-24T11:59:41Z</time>
      </trkpt>
      <trkpt lat="43.88327" lon="6.04318">
        <ele>650.95</ele>
        <time>2019-06-24T11:59:42Z</time>
      </trkpt>
      <trkpt lat="43.88316" lon="6.04329">
        <ele>652.39</ele>
        <time>2019-06-24T11:59:43Z</time>
      </trkpt>
      <trkpt lat="43.88306" lon="6.04338">
        <ele>653.35</ele>
        <time>2019-06-24T11:59:44Z</time>
      </trkpt>
      <trkpt lat="43.88297" lon="6.04346">
        <ele>653.83</ele>
        <time>2019-06-24T11:59:45Z</time>
      </trkpt>
      <trkpt lat="43.88254" lon="6.0438">
        <ele>652.87</ele>
        <time>2019-06-24T11:59:52Z</time>
      </trkpt>
      <trkpt lat="43.88246" lon="6.04386">
        <ele>652.39</ele>
        <time>2019-06-24T11:59:59Z</time>
      </trkpt>
      <trkpt lat="43.88243" lon="6.04388">
        <ele>653.35</ele>
        <time>2019-06-24T12:00:22Z</time>
      </trkpt>
      <trkpt lat="43.88243" lon="6.04393">
        <ele>653.83</ele>
        <time>2019-06-24T12:00:23Z</time>
      </trkpt>
      <trkpt lat="43.88244" lon="6.04399">
        <ele>653.83</ele>
        <time>2019-06-24T12:00:24Z</time>
      </trkpt>
      <trkpt lat="43.88266" lon="6.04484">
        <ele>655.28</ele>
        <time>2019-06-24T12:00:31Z</time>
      </trkpt>
      <trkpt lat="43.88289" lon="6.04571">
        <ele>659.12</ele>
        <time>2019-06-24T12:00:36Z</time>
      </trkpt>
      <trkpt lat="43.8831" lon="6.04651">
        <ele>661.52</ele>
        <time>2019-06-24T12:00:40Z</time>
      </trkpt>
      <trkpt lat="43.88381" lon="6.04867">
        <ele>664.89</ele>
        <time>2019-06-24T12:00:50Z</time>
      </trkpt>
      <trkpt lat="43.88391" lon="6.04887">
        <ele>665.37</ele>
        <time>2019-06-24T12:00:51Z</time>
      </trkpt>
      <trkpt lat="43.88482" lon="6.05093">
        <ele>664.89</ele>
        <time>2019-06-24T12:01:02Z</time>
      </trkpt>
      <trkpt lat="43.88537" lon="6.05215">
        <ele>665.85</ele>
        <time>2019-06-24T12:01:11Z</time>
      </trkpt>
      <trkpt lat="43.88597" lon="6.05348">
        <ele>668.73</ele>
        <time>2019-06-24T12:01:18Z</time>
      </trkpt>
      <trkpt lat="43.88616" lon="6.0539">
        <ele>669.7</ele>
        <time>2019-06-24T12:01:20Z</time>
      </trkpt>
      <trkpt lat="43.88742" lon="6.05668">
        <ele>671.62</ele>
        <time>2019-06-24T12:01:32Z</time>
      </trkpt>
      <trkpt lat="43.88787" lon="6.05768">
        <ele>667.77</ele>
        <time>2019-06-24T12:01:37Z</time>
      </trkpt>
      <trkpt lat="43.88796" lon="6.05786">
        <ele>674.5</ele>
        <time>2019-06-24T12:01:38Z</time>
      </trkpt>
      <trkpt lat="43.88803" lon="6.05804">
        <ele>670.66</ele>
        <time>2019-06-24T12:01:39Z</time>
      </trkpt>
      <trkpt lat="43.88828" lon="6.0586">
        <ele>670.18</ele>
        <time>2019-06-24T12:01:44Z</time>
      </trkpt>
      <trkpt lat="43.88828" lon="6.05867">
        <ele>669.7</ele>
        <time>2019-06-24T12:01:45Z</time>
      </trkpt>
      <trkpt lat="43.88827" lon="6.05873">
        <ele>670.18</ele>
        <time>2019-06-24T12:01:46Z</time>
      </trkpt>
      <trkpt lat="43.88824" lon="6.05879">
        <ele>669.7</ele>
        <time>2019-06-24T12:01:47Z</time>
      </trkpt>
      <trkpt lat="43.88821" lon="6.05886">
        <ele>670.18</ele>
        <time>2019-06-24T12:01:48Z</time>
      </trkpt>
      <trkpt lat="43.88817" lon="6.05893">
        <ele>669.7</ele>
        <time>2019-06-24T12:01:49Z</time>
      </trkpt>
      <trkpt lat="43.88778" lon="6.05966">
        <ele>667.77</ele>
        <time>2019-06-24T12:01:56Z</time>
      </trkpt>
      <trkpt lat="43.88721" lon="6.06073">
        <ele>666.33</ele>
        <time>2019-06-24T12:02:07Z</time>
      </trkpt>
      <trkpt lat="43.88655" lon="6.06202">
        <ele>669.7</ele>
        <time>2019-06-24T12:02:17Z</time>
      </trkpt>
      <trkpt lat="43.88642" lon="6.06226">
        <ele>670.66</ele>
        <time>2019-06-24T12:02:19Z</time>
      </trkpt>
      <trkpt lat="43.88614" lon="6.06276">
        <ele>672.58</ele>
        <time>2019-06-24T12:02:23Z</time>
      </trkpt>
      <trkpt lat="43.88529" lon="6.06435">
        <ele>673.54</ele>
        <time>2019-06-24T12:02:34Z</time>
      </trkpt>
      <trkpt lat="43.88437" lon="6.06607">
        <ele>674.02</ele>
        <time>2019-06-24T12:02:47Z</time>
      </trkpt>
      <trkpt lat="43.88364" lon="6.06746">
        <ele>672.1</ele>
        <time>2019-06-24T12:02:58Z</time>
      </trkpt>
      <trkpt lat="43.8836" lon="6.06757">
        <ele>671.62</ele>
        <time>2019-06-24T12:02:59Z</time>
      </trkpt>
      <trkpt lat="43.88357" lon="6.06769">
        <ele>671.14</ele>
        <time>2019-06-24T12:03:00Z</time>
      </trkpt>
      <trkpt lat="43.88355" lon="6.06782">
        <ele>671.14</ele>
        <time>2019-06-24T12:03:01Z</time>
      </trkpt>
      <trkpt lat="43.88354" lon="6.06796">
        <ele>670.18</ele>
        <time>2019-06-24T12:03:02Z</time>
      </trkpt>
      <trkpt lat="43.88354" lon="6.0681">
        <ele>670.18</ele>
        <time>2019-06-24T12:03:03Z</time>
      </trkpt>
      <trkpt lat="43.88353" lon="6.06824">
        <ele>668.73</ele>
        <time>2019-06-24T12:03:04Z</time>
      </trkpt>
      <trkpt lat="43.88352" lon="6.06838">
        <ele>668.25</ele>
        <time>2019-06-24T12:03:05Z</time>
      </trkpt>
      <trkpt lat="43.8835" lon="6.06852">
        <ele>668.25</ele>
        <time>2019-06-24T12:03:06Z</time>
      </trkpt>
      <trkpt lat="43.88347" lon="6.06866">
        <ele>667.29</ele>
        <time>2019-06-24T12:03:07Z</time>
      </trkpt>
      <trkpt lat="43.88327" lon="6.06934">
        <ele>670.66</ele>
        <time>2019-06-24T12:03:12Z</time>
      </trkpt>
      <trkpt lat="43.88316" lon="6.06981">
        <ele>672.1</ele>
        <time>2019-06-24T12:03:15Z</time>
      </trkpt>
      <trkpt lat="43.88306" lon="6.07058">
        <ele>673.06</ele>
        <time>2019-06-24T12:03:20Z</time>
      </trkpt>
      <trkpt lat="43.88302" lon="6.07071">
        <ele>673.54</ele>
        <time>2019-06-24T12:03:21Z</time>
      </trkpt>
      <trkpt lat="43.88287" lon="6.07112">
        <ele>671.62</ele>
        <time>2019-06-24T12:03:24Z</time>
      </trkpt>
      <trkpt lat="43.88257" lon="6.0725">
        <ele>671.14</ele>
        <time>2019-06-24T12:03:33Z</time>
      </trkpt>
      <trkpt lat="43.88201" lon="6.07397">
        <ele>673.06</ele>
        <time>2019-06-24T12:03:43Z</time>
      </trkpt>
      <trkpt lat="43.88185" lon="6.07442">
        <ele>674.5</ele>
        <time>2019-06-24T12:03:46Z</time>
      </trkpt>
      <trkpt lat="43.88174" lon="6.07471">
        <ele>675.94</ele>
        <time>2019-06-24T12:03:48Z</time>
      </trkpt>
      <trkpt lat="43.88117" lon="6.07623">
        <ele>678.35</ele>
        <time>2019-06-24T12:03:59Z</time>
      </trkpt>
      <trkpt lat="43.8802" lon="6.07795">
        <ele>675.94</ele>
        <time>2019-06-24T12:04:13Z</time>
      </trkpt>
      <trkpt lat="43.87977" lon="6.07906">
        <ele>679.31</ele>
        <time>2019-06-24T12:04:21Z</time>
      </trkpt>
      <trkpt lat="43.87919" lon="6.08047">
        <ele>681.71</ele>
        <time>2019-06-24T12:04:31Z</time>
      </trkpt>
      <trkpt lat="43.87872" lon="6.08202">
        <ele>679.31</ele>
        <time>2019-06-24T12:04:42Z</time>
      </trkpt>
      <trkpt lat="43.87816" lon="6.08377">
        <ele>679.79</ele>
        <time>2019-06-24T12:04:54Z</time>
      </trkpt>
      <trkpt lat="43.87812" lon="6.08392">
        <ele>679.79</ele>
        <time>2019-06-24T12:04:55Z</time>
      </trkpt>
      <trkpt lat="43.87752" lon="6.08583">
        <ele>680.75</ele>
        <time>2019-06-24T12:05:09Z</time>
      </trkpt>
      <trkpt lat="43.87733" lon="6.08644">
        <ele>678.83</ele>
        <time>2019-06-24T12:05:13Z</time>
      </trkpt>
      <trkpt lat="43.87685" lon="6.08794">
        <ele>677.87</ele>
        <time>2019-06-24T12:05:23Z</time>
      </trkpt>
      <trkpt lat="43.87683" lon="6.08811">
        <ele>677.39</ele>
        <time>2019-06-24T12:05:24Z</time>
      </trkpt>
      <trkpt lat="43.87671" lon="6.08962">
        <ele>681.23</ele>
        <time>2019-06-24T12:05:33Z</time>
      </trkpt>
      <trkpt lat="43.87667" lon="6.08994">
        <ele>681.71</ele>
        <time>2019-06-24T12:05:35Z</time>
      </trkpt>
      <trkpt lat="43.87658" lon="6.09114">
        <ele>681.23</ele>
        <time>2019-06-24T12:05:43Z</time>
      </trkpt>
      <trkpt lat="43.87655" lon="6.09127">
        <ele>681.23</ele>
        <time>2019-06-24T12:05:44Z</time>
      </trkpt>
      <trkpt lat="43.87651" lon="6.09141">
        <ele>681.23</ele>
        <time>2019-06-24T12:05:45Z</time>
      </trkpt>
      <trkpt lat="43.87645" lon="6.09154">
        <ele>681.23</ele>
        <time>2019-06-24T12:05:46Z</time>
      </trkpt>
      <trkpt lat="43.8764" lon="6.09167">
        <ele>680.27</ele>
        <time>2019-06-24T12:05:47Z</time>
      </trkpt>
      <trkpt lat="43.87633" lon="6.0918">
        <ele>680.27</ele>
        <time>2019-06-24T12:05:48Z</time>
      </trkpt>
      <trkpt lat="43.87595" lon="6.09262">
        <ele>676.91</ele>
        <time>2019-06-24T12:05:54Z</time>
      </trkpt>
      <trkpt lat="43.87508" lon="6.09436">
        <ele>674.98</ele>
        <time>2019-06-24T12:06:07Z</time>
      </trkpt>
      <trkpt lat="43.87483" lon="6.09478">
        <ele>678.35</ele>
        <time>2019-06-24T12:06:11Z</time>
      </trkpt>
      <trkpt lat="43.87475" lon="6.09488">
        <ele>678.83</ele>
        <time>2019-06-24T12:06:12Z</time>
      </trkpt>
      <trkpt lat="43.87458" lon="6.09509">
        <ele>680.27</ele>
        <time>2019-06-24T12:06:14Z</time>
      </trkpt>
      <trkpt lat="43.87394" lon="6.09633">
        <ele>683.63</ele>
        <time>2019-06-24T12:06:23Z</time>
      </trkpt>
      <trkpt lat="43.87306" lon="6.09835">
        <ele>683.63</ele>
        <time>2019-06-24T12:06:37Z</time>
      </trkpt>
      <trkpt lat="43.87219" lon="6.10038">
        <ele>684.12</ele>
        <time>2019-06-24T12:06:51Z</time>
      </trkpt>
      <trkpt lat="43.87139" lon="6.10219">
        <ele>684.6</ele>
        <time>2019-06-24T12:07:04Z</time>
      </trkpt>
      <trkpt lat="43.87116" lon="6.10272">
        <ele>683.15</ele>
        <time>2019-06-24T12:07:08Z</time>
      </trkpt>
      <trkpt lat="43.87065" lon="6.10395">
        <ele>684.12</ele>
        <time>2019-06-24T12:07:19Z</time>
      </trkpt>
      <trkpt lat="43.87062" lon="6.10408">
        <ele>684.12</ele>
        <time>2019-06-24T12:07:20Z</time>
      </trkpt>
      <trkpt lat="43.87059" lon="6.10423">
        <ele>684.6</ele>
        <time>2019-06-24T12:07:21Z</time>
      </trkpt>
      <trkpt lat="43.87028" lon="6.1061">
        <ele>687</ele>
        <time>2019-06-24T12:07:31Z</time>
      </trkpt>
      <trkpt lat="43.86989" lon="6.1089">
        <ele>689.88</ele>
        <time>2019-06-24T12:07:45Z</time>
      </trkpt>
      <trkpt lat="43.86967" lon="6.11046">
        <ele>687</ele>
        <time>2019-06-24T12:07:54Z</time>
      </trkpt>
      <trkpt lat="43.86963" lon="6.11077">
        <ele>686.04</ele>
        <time>2019-06-24T12:07:56Z</time>
      </trkpt>
      <trkpt lat="43.8696" lon="6.11104">
        <ele>685.56</ele>
        <time>2019-06-24T12:07:58Z</time>
      </trkpt>
      <trkpt lat="43.86962" lon="6.11118">
        <ele>684.6</ele>
        <time>2019-06-24T12:07:59Z</time>
      </trkpt>
      <trkpt lat="43.86966" lon="6.11131">
        <ele>683.15</ele>
        <time>2019-06-24T12:08:00Z</time>
      </trkpt>
      <trkpt lat="43.86972" lon="6.11143">
        <ele>682.67</ele>
        <time>2019-06-24T12:08:01Z</time>
      </trkpt>
      <trkpt lat="43.86981" lon="6.11153">
        <ele>682.67</ele>
        <time>2019-06-24T12:08:02Z</time>
      </trkpt>
      <trkpt lat="43.86991" lon="6.11163">
        <ele>682.19</ele>
        <time>2019-06-24T12:08:03Z</time>
      </trkpt>
      <trkpt lat="43.87002" lon="6.11172">
        <ele>681.71</ele>
        <time>2019-06-24T12:08:04Z</time>
      </trkpt>
      <trkpt lat="43.87063" lon="6.11226">
        <ele>678.83</ele>
        <time>2019-06-24T12:08:09Z</time>
      </trkpt>
      <trkpt lat="43.87122" lon="6.11279">
        <ele>675.94</ele>
        <time>2019-06-24T12:08:13Z</time>
      </trkpt>
      <trkpt lat="43.87167" lon="6.11316">
        <ele>671.62</ele>
        <time>2019-06-24T12:08:16Z</time>
      </trkpt>
      <trkpt lat="43.8722" lon="6.11357">
        <ele>667.77</ele>
        <time>2019-06-24T12:08:20Z</time>
      </trkpt>
      <trkpt lat="43.87243" lon="6.11375">
        <ele>665.85</ele>
        <time>2019-06-24T12:08:22Z</time>
      </trkpt>
      <trkpt lat="43.87254" lon="6.11387">
        <ele>665.37</ele>
        <time>2019-06-24T12:08:23Z</time>
      </trkpt>
      <trkpt lat="43.87284" lon="6.11424">
        <ele>663.93</ele>
        <time>2019-06-24T12:08:26Z</time>
      </trkpt>
      <trkpt lat="43.87315" lon="6.1146">
        <ele>661.04</ele>
        <time>2019-06-24T12:08:29Z</time>
      </trkpt>
      <trkpt lat="43.87324" lon="6.11476">
        <ele>661.04</ele>
        <time>2019-06-24T12:08:30Z</time>
      </trkpt>
      <trkpt lat="43.87332" lon="6.11494">
        <ele>660.56</ele>
        <time>2019-06-24T12:08:31Z</time>
      </trkpt>
      <trkpt lat="43.87361" lon="6.11565">
        <ele>656.72</ele>
        <time>2019-06-24T12:08:35Z</time>
      </trkpt>
      <trkpt lat="43.87372" lon="6.11595">
        <ele>654.8</ele>
        <time>2019-06-24T12:08:37Z</time>
      </trkpt>
      <trkpt lat="43.87375" lon="6.11609">
        <ele>653.83</ele>
        <time>2019-06-24T12:08:38Z</time>
      </trkpt>
      <trkpt lat="43.87373" lon="6.11624">
        <ele>652.87</ele>
        <time>2019-06-24T12:08:39Z</time>
      </trkpt>
      <trkpt lat="43.87369" lon="6.11639">
        <ele>652.87</ele>
        <time>2019-06-24T12:08:40Z</time>
      </trkpt>
      <trkpt lat="43.87364" lon="6.11654">
        <ele>652.87</ele>
        <time>2019-06-24T12:08:41Z</time>
      </trkpt>
      <trkpt lat="43.8734" lon="6.11709">
        <ele>653.83</ele>
        <time>2019-06-24T12:08:45Z</time>
      </trkpt>
      <trkpt lat="43.87332" lon="6.11718">
        <ele>654.31</ele>
        <time>2019-06-24T12:08:46Z</time>
      </trkpt>
      <trkpt lat="43.87323" lon="6.11723">
        <ele>654.8</ele>
        <time>2019-06-24T12:08:47Z</time>
      </trkpt>
      <trkpt lat="43.87313" lon="6.11725">
        <ele>655.76</ele>
        <time>2019-06-24T12:08:48Z</time>
      </trkpt>
      <trkpt lat="43.87303" lon="6.11725">
        <ele>657.2</ele>
        <time>2019-06-24T12:08:49Z</time>
      </trkpt>
      <trkpt lat="43.87291" lon="6.11722">
        <ele>658.64</ele>
        <time>2019-06-24T12:08:50Z</time>
      </trkpt>
      <trkpt lat="43.87278" lon="6.11715">
        <ele>659.12</ele>
        <time>2019-06-24T12:08:51Z</time>
      </trkpt>
      <trkpt lat="43.87265" lon="6.11706">
        <ele>659.6</ele>
        <time>2019-06-24T12:08:52Z</time>
      </trkpt>
      <trkpt lat="43.87156" lon="6.11635">
        <ele>662.97</ele>
        <time>2019-06-24T12:08:59Z</time>
      </trkpt>
      <trkpt lat="43.87099" lon="6.116">
        <ele>662.01</ele>
        <time>2019-06-24T12:09:03Z</time>
      </trkpt>
      <trkpt lat="43.87085" lon="6.11595">
        <ele>662.01</ele>
        <time>2019-06-24T12:09:04Z</time>
      </trkpt>
      <trkpt lat="43.87071" lon="6.11595">
        <ele>661.52</ele>
        <time>2019-06-24T12:09:05Z</time>
      </trkpt>
      <trkpt lat="43.87057" lon="6.11598">
        <ele>661.52</ele>
        <time>2019-06-24T12:09:06Z</time>
      </trkpt>
      <trkpt lat="43.87042" lon="6.11602">
        <ele>662.97</ele>
        <time>2019-06-24T12:09:07Z</time>
      </trkpt>
      <trkpt lat="43.87027" lon="6.11603">
        <ele>662.01</ele>
        <time>2019-06-24T12:09:08Z</time>
      </trkpt>
      <trkpt lat="43.87014" lon="6.11605">
        <ele>661.52</ele>
        <time>2019-06-24T12:09:09Z</time>
      </trkpt>
      <trkpt lat="43.87002" lon="6.11607">
        <ele>661.52</ele>
        <time>2019-06-24T12:09:10Z</time>
      </trkpt>
      <trkpt lat="43.86992" lon="6.11611">
        <ele>660.56</ele>
        <time>2019-06-24T12:09:11Z</time>
      </trkpt>
      <trkpt lat="43.86984" lon="6.11619">
        <ele>660.56</ele>
        <time>2019-06-24T12:09:12Z</time>
      </trkpt>
      <trkpt lat="43.86979" lon="6.11631">
        <ele>660.08</ele>
        <time>2019-06-24T12:09:13Z</time>
      </trkpt>
      <trkpt lat="43.86976" lon="6.11645">
        <ele>660.56</ele>
        <time>2019-06-24T12:09:14Z</time>
      </trkpt>
      <trkpt lat="43.86975" lon="6.11661">
        <ele>660.56</ele>
        <time>2019-06-24T12:09:15Z</time>
      </trkpt>
      <trkpt lat="43.86974" lon="6.11679">
        <ele>661.52</ele>
        <time>2019-06-24T12:09:16Z</time>
      </trkpt>
      <trkpt lat="43.86974" lon="6.11716">
        <ele>662.49</ele>
        <time>2019-06-24T12:09:18Z</time>
      </trkpt>
      <trkpt lat="43.86977" lon="6.11735">
        <ele>662.01</ele>
        <time>2019-06-24T12:09:19Z</time>
      </trkpt>
      <trkpt lat="43.86983" lon="6.11754">
        <ele>662.01</ele>
        <time>2019-06-24T12:09:20Z</time>
      </trkpt>
      <trkpt lat="43.86991" lon="6.11772">
        <ele>662.49</ele>
        <time>2019-06-24T12:09:21Z</time>
      </trkpt>
      <trkpt lat="43.87001" lon="6.1179">
        <ele>662.97</ele>
        <time>2019-06-24T12:09:22Z</time>
      </trkpt>
      <trkpt lat="43.87063" lon="6.11931">
        <ele>662.49</ele>
        <time>2019-06-24T12:09:30Z</time>
      </trkpt>
      <trkpt lat="43.87066" lon="6.11946">
        <ele>662.01</ele>
        <time>2019-06-24T12:09:31Z</time>
      </trkpt>
      <trkpt lat="43.87066" lon="6.1196">
        <ele>662.01</ele>
        <time>2019-06-24T12:09:32Z</time>
      </trkpt>
      <trkpt lat="43.87062" lon="6.11972">
        <ele>661.52</ele>
        <time>2019-06-24T12:09:33Z</time>
      </trkpt>
      <trkpt lat="43.87057" lon="6.11982">
        <ele>662.01</ele>
        <time>2019-06-24T12:09:34Z</time>
      </trkpt>
      <trkpt lat="43.87052" lon="6.1199">
        <ele>662.49</ele>
        <time>2019-06-24T12:09:35Z</time>
      </trkpt>
      <trkpt lat="43.87046" lon="6.11995">
        <ele>662.97</ele>
        <time>2019-06-24T12:09:36Z</time>
      </trkpt>
      <trkpt lat="43.87037" lon="6.11996">
        <ele>663.45</ele>
        <time>2019-06-24T12:09:37Z</time>
      </trkpt>
      <trkpt lat="43.87028" lon="6.11994">
        <ele>664.41</ele>
        <time>2019-06-24T12:09:38Z</time>
      </trkpt>
      <trkpt lat="43.87019" lon="6.1199">
        <ele>665.37</ele>
        <time>2019-06-24T12:09:39Z</time>
      </trkpt>
      <trkpt lat="43.87008" lon="6.11982">
        <ele>666.33</ele>
        <time>2019-06-24T12:09:40Z</time>
      </trkpt>
      <trkpt lat="43.86996" lon="6.11972">
        <ele>666.33</ele>
        <time>2019-06-24T12:09:41Z</time>
      </trkpt>
      <trkpt lat="43.86981" lon="6.11962">
        <ele>667.29</ele>
        <time>2019-06-24T12:09:42Z</time>
      </trkpt>
      <trkpt lat="43.86967" lon="6.11957">
        <ele>668.25</ele>
        <time>2019-06-24T12:09:43Z</time>
      </trkpt>
      <trkpt lat="43.86953" lon="6.11957">
        <ele>668.73</ele>
        <time>2019-06-24T12:09:44Z</time>
      </trkpt>
      <trkpt lat="43.86939" lon="6.11961">
        <ele>670.18</ele>
        <time>2019-06-24T12:09:45Z</time>
      </trkpt>
      <trkpt lat="43.86926" lon="6.11968">
        <ele>671.14</ele>
        <time>2019-06-24T12:09:46Z</time>
      </trkpt>
      <trkpt lat="43.86913" lon="6.11978">
        <ele>671.14</ele>
        <time>2019-06-24T12:09:47Z</time>
      </trkpt>
      <trkpt lat="43.8689" lon="6.11999">
        <ele>673.06</ele>
        <time>2019-06-24T12:09:49Z</time>
      </trkpt>
      <trkpt lat="43.86882" lon="6.12015">
        <ele>673.54</ele>
        <time>2019-06-24T12:09:50Z</time>
      </trkpt>
      <trkpt lat="43.86877" lon="6.12033">
        <ele>674.5</ele>
        <time>2019-06-24T12:09:51Z</time>
      </trkpt>
      <trkpt lat="43.86873" lon="6.12053">
        <ele>674.5</ele>
        <time>2019-06-24T12:09:52Z</time>
      </trkpt>
      <trkpt lat="43.86853" lon="6.12133">
        <ele>676.91</ele>
        <time>2019-06-24T12:09:56Z</time>
      </trkpt>
      <trkpt lat="43.86846" lon="6.12145">
        <ele>676.91</ele>
        <time>2019-06-24T12:09:57Z</time>
      </trkpt>
      <trkpt lat="43.86839" lon="6.12153">
        <ele>676.91</ele>
        <time>2019-06-24T12:09:58Z</time>
      </trkpt>
      <trkpt lat="43.8683" lon="6.12153">
        <ele>676.91</ele>
        <time>2019-06-24T12:09:59Z</time>
      </trkpt>
      <trkpt lat="43.86822" lon="6.12151">
        <ele>677.39</ele>
        <time>2019-06-24T12:10:00Z</time>
      </trkpt>
      <trkpt lat="43.86814" lon="6.12143">
        <ele>678.83</ele>
        <time>2019-06-24T12:10:01Z</time>
      </trkpt>
      <trkpt lat="43.86806" lon="6.12132">
        <ele>679.31</ele>
        <time>2019-06-24T12:10:02Z</time>
      </trkpt>
      <trkpt lat="43.86798" lon="6.12117">
        <ele>679.31</ele>
        <time>2019-06-24T12:10:03Z</time>
      </trkpt>
      <trkpt lat="43.86763" lon="6.12058">
        <ele>682.67</ele>
        <time>2019-06-24T12:10:07Z</time>
      </trkpt>
      <trkpt lat="43.86753" lon="6.12044">
        <ele>683.15</ele>
        <time>2019-06-24T12:10:08Z</time>
      </trkpt>
      <trkpt lat="43.86729" lon="6.12017">
        <ele>685.08</ele>
        <time>2019-06-24T12:10:10Z</time>
      </trkpt>
      <trkpt lat="43.86687" lon="6.1198">
        <ele>687.48</ele>
        <time>2019-06-24T12:10:13Z</time>
      </trkpt>
      <trkpt lat="43.86672" lon="6.11971">
        <ele>688.44</ele>
        <time>2019-06-24T12:10:14Z</time>
      </trkpt>
      <trkpt lat="43.86657" lon="6.11964">
        <ele>688.92</ele>
        <time>2019-06-24T12:10:15Z</time>
      </trkpt>
      <trkpt lat="43.86643" lon="6.1196">
        <ele>688.92</ele>
        <time>2019-06-24T12:10:16Z</time>
      </trkpt>
      <trkpt lat="43.86629" lon="6.11962">
        <ele>688.92</ele>
        <time>2019-06-24T12:10:17Z</time>
      </trkpt>
      <trkpt lat="43.86615" lon="6.11968">
        <ele>688.92</ele>
        <time>2019-06-24T12:10:18Z</time>
      </trkpt>
      <trkpt lat="43.86603" lon="6.11979">
        <ele>690.84</ele>
        <time>2019-06-24T12:10:19Z</time>
      </trkpt>
      <trkpt lat="43.86592" lon="6.11994">
        <ele>691.33</ele>
        <time>2019-06-24T12:10:20Z</time>
      </trkpt>
      <trkpt lat="43.86583" lon="6.12012">
        <ele>691.33</ele>
        <time>2019-06-24T12:10:21Z</time>
      </trkpt>
      <trkpt lat="43.86574" lon="6.12032">
        <ele>692.77</ele>
        <time>2019-06-24T12:10:22Z</time>
      </trkpt>
      <trkpt lat="43.86564" lon="6.12051">
        <ele>692.77</ele>
        <time>2019-06-24T12:10:23Z</time>
      </trkpt>
      <trkpt lat="43.8645" lon="6.12277">
        <ele>691.81</ele>
        <time>2019-06-24T12:10:35Z</time>
      </trkpt>
      <trkpt lat="43.86422" lon="6.12374">
        <ele>689.4</ele>
        <time>2019-06-24T12:10:40Z</time>
      </trkpt>
      <trkpt lat="43.86387" lon="6.12491">
        <ele>691.33</ele>
        <time>2019-06-24T12:10:47Z</time>
      </trkpt>
      <trkpt lat="43.86352" lon="6.12605">
        <ele>692.77</ele>
        <time>2019-06-24T12:10:57Z</time>
      </trkpt>
      <trkpt lat="43.86328" lon="6.1269">
        <ele>691.81</ele>
        <time>2019-06-24T12:11:07Z</time>
      </trkpt>
      <trkpt lat="43.86325" lon="6.12698">
        <ele>691.33</ele>
        <time>2019-06-24T12:11:16Z</time>
      </trkpt>
      <trkpt lat="43.86313" lon="6.1273">
        <ele>691.81</ele>
        <time>2019-06-24T12:11:26Z</time>
      </trkpt>
      <trkpt lat="43.86305" lon="6.12748">
        <ele>691.81</ele>
        <time>2019-06-24T12:11:32Z</time>
      </trkpt>
      <trkpt lat="43.86304" lon="6.12748">
        <ele>691.81</ele>
        <time>2019-06-24T12:11:33Z</time>
      </trkpt>
      <trkpt lat="43.86303" lon="6.12749">
        <ele>691.33</ele>
        <time>2019-06-24T12:11:34Z</time>
      </trkpt>
      <trkpt lat="43.86302" lon="6.1275">
        <ele>691.33</ele>
        <time>2019-06-24T12:11:35Z</time>
      </trkpt>
      <trkpt lat="43.863" lon="6.12751">
        <ele>691.33</ele>
        <time>2019-06-24T12:11:36Z</time>
      </trkpt>
      <trkpt lat="43.86298" lon="6.12753">
        <ele>691.33</ele>
        <time>2019-06-24T12:11:37Z</time>
      </trkpt>
      <trkpt lat="43.86295" lon="6.12752">
        <ele>691.81</ele>
        <time>2019-06-24T12:11:38Z</time>
      </trkpt>
      <trkpt lat="43.86292" lon="6.1275">
        <ele>691.33</ele>
        <time>2019-06-24T12:11:39Z</time>
      </trkpt>
      <trkpt lat="43.86288" lon="6.12747">
        <ele>691.81</ele>
        <time>2019-06-24T12:11:40Z</time>
      </trkpt>
      <trkpt lat="43.86285" lon="6.12744">
        <ele>691.81</ele>
        <time>2019-06-24T12:11:41Z</time>
      </trkpt>
      <trkpt lat="43.86281" lon="6.12738">
        <ele>691.33</ele>
        <time>2019-06-24T12:11:43Z</time>
      </trkpt>
      <trkpt lat="43.86283" lon="6.12729">
        <ele>691.81</ele>
        <time>2019-06-24T12:11:45Z</time>
      </trkpt>
      <trkpt lat="43.8629" lon="6.12708">
        <ele>691.81</ele>
        <time>2019-06-24T12:11:50Z</time>
      </trkpt>
      <trkpt lat="43.86297" lon="6.1271">
        <ele>691.33</ele>
        <time>2019-06-24T12:12:01Z</time>
      </trkpt>
      <trkpt lat="43.86299" lon="6.12709">
        <ele>690.84</ele>
        <time>2019-06-24T12:12:33Z</time>
      </trkpt>
      <trkpt lat="43.86299" lon="6.12713">
        <ele>690.84</ele>
        <time>2019-06-24T12:13:13Z</time>
      </trkpt>
      <trkpt lat="43.86303" lon="6.12712">
        <ele>691.33</ele>
        <time>2019-06-24T12:14:00Z</time>
      </trkpt>
      <trkpt lat="43.86301" lon="6.12711">
        <ele>691.81</ele>
        <time>2019-06-24T12:14:32Z</time>
      </trkpt>
      <trkpt lat="43.86299" lon="6.12712">
        <ele>691.81</ele>
        <time>2019-06-24T12:15:03Z</time>
      </trkpt>
      <trkpt lat="43.86296" lon="6.12713">
        <ele>692.77</ele>
        <time>2019-06-24T12:15:40Z</time>
      </trkpt>
      <trkpt lat="43.86293" lon="6.12708">
        <ele>692.29</ele>
        <time>2019-06-24T12:16:18Z</time>
      </trkpt>
      <trkpt lat="43.86294" lon="6.12711">
        <ele>692.77</ele>
        <time>2019-06-24T12:16:49Z</time>
      </trkpt>
      <trkpt lat="43.86296" lon="6.1271">
        <ele>693.25</ele>
        <time>2019-06-24T12:17:29Z</time>
      </trkpt>
      <trkpt lat="43.86296" lon="6.12715">
        <ele>693.25</ele>
        <time>2019-06-24T12:18:09Z</time>
      </trkpt>
      <trkpt lat="43.863" lon="6.12717">
        <ele>693.73</ele>
        <time>2019-06-24T12:18:51Z</time>
      </trkpt>
      <trkpt lat="43.863" lon="6.12717">
        <ele>693.73</ele>
        <time>2019-06-24T12:19:24Z</time>
      </trkpt>
      <trkpt lat="43.86298" lon="6.12715">
        <ele>694.21</ele>
        <time>2019-06-24T12:20:01Z</time>
      </trkpt>
      <trkpt lat="43.86295" lon="6.12709">
        <ele>694.69</ele>
        <time>2019-06-24T12:20:43Z</time>
      </trkpt>
      <trkpt lat="43.86296" lon="6.12711">
        <ele>694.69</ele>
        <time>2019-06-24T12:21:23Z</time>
      </trkpt>
      <trkpt lat="43.86295" lon="6.12713">
        <ele>694.69</ele>
        <time>2019-06-24T12:21:55Z</time>
      </trkpt>
      <trkpt lat="43.86293" lon="6.12712">
        <ele>694.69</ele>
        <time>2019-06-24T12:22:31Z</time>
      </trkpt>
      <trkpt lat="43.86291" lon="6.12707">
        <ele>695.17</ele>
        <time>2019-06-24T12:23:07Z</time>
      </trkpt>
      <trkpt lat="43.86291" lon="6.12707">
        <ele>694.69</ele>
        <time>2019-06-24T12:23:40Z</time>
      </trkpt>
      <trkpt lat="43.8629" lon="6.12704">
        <ele>695.17</ele>
        <time>2019-06-24T12:24:21Z</time>
      </trkpt>
      <trkpt lat="43.86293" lon="6.12708">
        <ele>695.17</ele>
        <time>2019-06-24T12:25:04Z</time>
      </trkpt>
      <trkpt lat="43.86293" lon="6.12708">
        <ele>695.65</ele>
        <time>2019-06-24T12:25:32Z</time>
      </trkpt>
      <trkpt lat="43.86292" lon="6.12707">
        <ele>695.65</ele>
        <time>2019-06-24T12:25:59Z</time>
      </trkpt>
      <trkpt lat="43.86287" lon="6.12702">
        <ele>695.65</ele>
        <time>2019-06-24T12:26:32Z</time>
      </trkpt>
      <trkpt lat="43.86289" lon="6.12703">
        <ele>695.65</ele>
        <time>2019-06-24T12:27:11Z</time>
      </trkpt>
      <trkpt lat="43.86291" lon="6.12705">
        <ele>696.61</ele>
        <time>2019-06-24T12:27:49Z</time>
      </trkpt>
      <trkpt lat="43.86292" lon="6.12708">
        <ele>696.61</ele>
        <time>2019-06-24T12:28:30Z</time>
      </trkpt>
      <trkpt lat="43.86292" lon="6.12707">
        <ele>697.09</ele>
        <time>2019-06-24T12:29:16Z</time>
      </trkpt>
      <trkpt lat="43.86292" lon="6.12706">
        <ele>697.09</ele>
        <time>2019-06-24T12:29:51Z</time>
      </trkpt>
      <trkpt lat="43.86292" lon="6.12711">
        <ele>697.09</ele>
        <time>2019-06-24T12:30:27Z</time>
      </trkpt>
      <trkpt lat="43.86293" lon="6.12704">
        <ele>697.09</ele>
        <time>2019-06-24T12:31:16Z</time>
      </trkpt>
      <trkpt lat="43.86292" lon="6.1271">
        <ele>697.09</ele>
        <time>2019-06-24T12:31:55Z</time>
      </trkpt>
      <trkpt lat="43.86293" lon="6.12712">
        <ele>698.05</ele>
        <time>2019-06-24T12:32:22Z</time>
      </trkpt>
      <trkpt lat="43.86293" lon="6.12714">
        <ele>698.05</ele>
        <time>2019-06-24T12:32:46Z</time>
      </trkpt>
      <trkpt lat="43.86293" lon="6.12713">
        <ele>697.57</ele>
        <time>2019-06-24T12:33:19Z</time>
      </trkpt>
      <trkpt lat="43.86296" lon="6.12714">
        <ele>698.05</ele>
        <time>2019-06-24T12:33:54Z</time>
      </trkpt>
      <trkpt lat="43.86298" lon="6.1271">
        <ele>698.53</ele>
        <time>2019-06-24T12:34:31Z</time>
      </trkpt>
      <trkpt lat="43.86296" lon="6.12712">
        <ele>699.02</ele>
        <time>2019-06-24T12:35:15Z</time>
      </trkpt>
      <trkpt lat="43.86293" lon="6.12711">
        <ele>699.02</ele>
        <time>2019-06-24T12:35:45Z</time>
      </trkpt>
      <trkpt lat="43.86291" lon="6.12707">
        <ele>698.53</ele>
        <time>2019-06-24T12:36:13Z</time>
      </trkpt>
      <trkpt lat="43.86292" lon="6.12705">
        <ele>698.53</ele>
        <time>2019-06-24T12:36:23Z</time>
      </trkpt>
      <trkpt lat="43.8629" lon="6.12693">
        <ele>698.53</ele>
        <time>2019-06-24T12:36:28Z</time>
      </trkpt>
      <trkpt lat="43.86285" lon="6.12683">
        <ele>698.53</ele>
        <time>2019-06-24T12:36:31Z</time>
      </trkpt>
      <trkpt lat="43.86287" lon="6.12677">
        <ele>699.02</ele>
        <time>2019-06-24T12:36:34Z</time>
      </trkpt>
      <trkpt lat="43.86291" lon="6.12679">
        <ele>699.02</ele>
        <time>2019-06-24T12:36:36Z</time>
      </trkpt>
      <trkpt lat="43.86295" lon="6.12682">
        <ele>699.5</ele>
        <time>2019-06-24T12:36:37Z</time>
      </trkpt>
      <trkpt lat="43.863" lon="6.12685">
        <ele>699.5</ele>
        <time>2019-06-24T12:36:38Z</time>
      </trkpt>
      <trkpt lat="43.86306" lon="6.12688">
        <ele>699.5</ele>
        <time>2019-06-24T12:36:39Z</time>
      </trkpt>
      <trkpt lat="43.8638" lon="6.12742">
        <ele>700.94</ele>
        <time>2019-06-24T12:36:50Z</time>
      </trkpt>
      <trkpt lat="43.8646" lon="6.12791">
        <ele>702.38</ele>
        <time>2019-06-24T12:37:01Z</time>
      </trkpt>
      <trkpt lat="43.86469" lon="6.12792">
        <ele>702.86</ele>
        <time>2019-06-24T12:37:02Z</time>
      </trkpt>
      <trkpt lat="43.86583" lon="6.12795">
        <ele>703.82</ele>
        <time>2019-06-24T12:37:13Z</time>
      </trkpt>
      <trkpt lat="43.86695" lon="6.1283">
        <ele>705.26</ele>
        <time>2019-06-24T12:37:22Z</time>
      </trkpt>
      <trkpt lat="43.86868" lon="6.12899">
        <ele>707.67</ele>
        <time>2019-06-24T12:37:34Z</time>
      </trkpt>
      <trkpt lat="43.8699" lon="6.12903">
        <ele>709.11</ele>
        <time>2019-06-24T12:37:42Z</time>
      </trkpt>
      <trkpt lat="43.87019" lon="6.12899">
        <ele>709.59</ele>
        <time>2019-06-24T12:37:44Z</time>
      </trkpt>
      <trkpt lat="43.87034" lon="6.129">
        <ele>710.07</ele>
        <time>2019-06-24T12:37:45Z</time>
      </trkpt>
      <trkpt lat="43.87049" lon="6.12903">
        <ele>710.07</ele>
        <time>2019-06-24T12:37:46Z</time>
      </trkpt>
      <trkpt lat="43.87221" lon="6.12957">
        <ele>709.59</ele>
        <time>2019-06-24T12:37:58Z</time>
      </trkpt>
      <trkpt lat="43.87229" lon="6.12961">
        <ele>709.11</ele>
        <time>2019-06-24T12:37:59Z</time>
      </trkpt>
      <trkpt lat="43.87234" lon="6.12965">
        <ele>708.63</ele>
        <time>2019-06-24T12:38:00Z</time>
      </trkpt>
      <trkpt lat="43.87239" lon="6.1297">
        <ele>708.63</ele>
        <time>2019-06-24T12:38:01Z</time>
      </trkpt>
      <trkpt lat="43.87243" lon="6.12977">
        <ele>709.11</ele>
        <time>2019-06-24T12:38:02Z</time>
      </trkpt>
      <trkpt lat="43.87247" lon="6.12984">
        <ele>709.11</ele>
        <time>2019-06-24T12:38:03Z</time>
      </trkpt>
      <trkpt lat="43.87288" lon="6.13044">
        <ele>711.03</ele>
        <time>2019-06-24T12:38:10Z</time>
      </trkpt>
      <trkpt lat="43.87373" lon="6.13124">
        <ele>713.44</ele>
        <time>2019-06-24T12:38:18Z</time>
      </trkpt>
      <trkpt lat="43.87461" lon="6.13185">
        <ele>716.8</ele>
        <time>2019-06-24T12:38:24Z</time>
      </trkpt>
      <trkpt lat="43.87476" lon="6.13196">
        <ele>716.8</ele>
        <time>2019-06-24T12:38:25Z</time>
      </trkpt>
      <trkpt lat="43.87525" lon="6.1323">
        <ele>718.72</ele>
        <time>2019-06-24T12:38:28Z</time>
      </trkpt>
      <trkpt lat="43.87777" lon="6.13406">
        <ele>722.57</ele>
        <time>2019-06-24T12:38:43Z</time>
      </trkpt>
      <trkpt lat="43.87974" lon="6.1351">
        <ele>725.45</ele>
        <time>2019-06-24T12:38:54Z</time>
      </trkpt>
      <trkpt lat="43.88173" lon="6.13614">
        <ele>725.93</ele>
        <time>2019-06-24T12:39:06Z</time>
      </trkpt>
      <trkpt lat="43.88218" lon="6.13652">
        <ele>727.37</ele>
        <time>2019-06-24T12:39:09Z</time>
      </trkpt>
      <trkpt lat="43.88387" lon="6.13807">
        <ele>731.22</ele>
        <time>2019-06-24T12:39:21Z</time>
      </trkpt>
      <trkpt lat="43.88488" lon="6.13837">
        <ele>730.26</ele>
        <time>2019-06-24T12:39:28Z</time>
      </trkpt>
      <trkpt lat="43.88611" lon="6.13853">
        <ele>733.62</ele>
        <time>2019-06-24T12:39:37Z</time>
      </trkpt>
      <trkpt lat="43.88668" lon="6.13881">
        <ele>734.58</ele>
        <time>2019-06-24T12:39:41Z</time>
      </trkpt>
      <trkpt lat="43.88681" lon="6.13892">
        <ele>735.07</ele>
        <time>2019-06-24T12:39:42Z</time>
      </trkpt>
      <trkpt lat="43.88693" lon="6.13904">
        <ele>735.07</ele>
        <time>2019-06-24T12:39:43Z</time>
      </trkpt>
      <trkpt lat="43.88807" lon="6.14063">
        <ele>737.95</ele>
        <time>2019-06-24T12:39:53Z</time>
      </trkpt>
      <trkpt lat="43.88944" lon="6.14293">
        <ele>738.91</ele>
        <time>2019-06-24T12:40:06Z</time>
      </trkpt>
      <trkpt lat="43.88983" lon="6.14365">
        <ele>740.35</ele>
        <time>2019-06-24T12:40:11Z</time>
      </trkpt>
      <trkpt lat="43.89036" lon="6.14469">
        <ele>742.76</ele>
        <time>2019-06-24T12:40:19Z</time>
      </trkpt>
      <trkpt lat="43.89126" lon="6.14635">
        <ele>744.2</ele>
        <time>2019-06-24T12:40:33Z</time>
      </trkpt>
      <trkpt lat="43.89162" lon="6.14724">
        <ele>745.64</ele>
        <time>2019-06-24T12:40:43Z</time>
      </trkpt>
      <trkpt lat="43.89177" lon="6.14761">
        <ele>747.08</ele>
        <time>2019-06-24T12:40:46Z</time>
      </trkpt>
      <trkpt lat="43.89231" lon="6.14942">
        <ele>749.49</ele>
        <time>2019-06-24T12:40:58Z</time>
      </trkpt>
      <trkpt lat="43.89242" lon="6.14992">
        <ele>749</ele>
        <time>2019-06-24T12:41:02Z</time>
      </trkpt>
      <trkpt lat="43.89245" lon="6.15001">
        <ele>749.97</ele>
        <time>2019-06-24T12:46:41Z</time>
      </trkpt>
      <trkpt lat="43.8926" lon="6.15059">
        <ele>750.93</ele>
        <time>2019-06-24T12:46:44Z</time>
      </trkpt>
      <trkpt lat="43.89277" lon="6.15119">
        <ele>754.29</ele>
        <time>2019-06-24T12:46:47Z</time>
      </trkpt>
      <trkpt lat="43.89282" lon="6.1514">
        <ele>754.77</ele>
        <time>2019-06-24T12:46:48Z</time>
      </trkpt>
      <trkpt lat="43.89314" lon="6.15266">
        <ele>757.66</ele>
        <time>2019-06-24T12:46:54Z</time>
      </trkpt>
      <trkpt lat="43.89348" lon="6.15397">
        <ele>761.02</ele>
        <time>2019-06-24T12:47:00Z</time>
      </trkpt>
      <trkpt lat="43.89366" lon="6.15467">
        <ele>762.94</ele>
        <time>2019-06-24T12:47:03Z</time>
      </trkpt>
      <trkpt lat="43.89385" lon="6.15538">
        <ele>764.39</ele>
        <time>2019-06-24T12:47:06Z</time>
      </trkpt>
      <trkpt lat="43.8943" lon="6.15716">
        <ele>767.75</ele>
        <time>2019-06-24T12:47:14Z</time>
      </trkpt>
      <trkpt lat="43.8945" lon="6.15855">
        <ele>770.63</ele>
        <time>2019-06-24T12:47:20Z</time>
      </trkpt>
      <trkpt lat="43.89456" lon="6.15927">
        <ele>772.08</ele>
        <time>2019-06-24T12:47:23Z</time>
      </trkpt>
      <trkpt lat="43.89468" lon="6.16044">
        <ele>774.96</ele>
        <time>2019-06-24T12:47:28Z</time>
      </trkpt>
      <trkpt lat="43.89481" lon="6.1618">
        <ele>778.32</ele>
        <time>2019-06-24T12:47:34Z</time>
      </trkpt>
      <trkpt lat="43.89488" lon="6.16247">
        <ele>780.25</ele>
        <time>2019-06-24T12:47:37Z</time>
      </trkpt>
      <trkpt lat="43.895" lon="6.16358">
        <ele>783.13</ele>
        <time>2019-06-24T12:47:42Z</time>
      </trkpt>
      <trkpt lat="43.89508" lon="6.16403">
        <ele>784.09</ele>
        <time>2019-06-24T12:47:44Z</time>
      </trkpt>
      <trkpt lat="43.89528" lon="6.16518">
        <ele>786.98</ele>
        <time>2019-06-24T12:47:49Z</time>
      </trkpt>
      <trkpt lat="43.89541" lon="6.16582">
        <ele>788.42</ele>
        <time>2019-06-24T12:47:52Z</time>
      </trkpt>
      <trkpt lat="43.89578" lon="6.16722">
        <ele>791.3</ele>
        <time>2019-06-24T12:48:00Z</time>
      </trkpt>
      <trkpt lat="43.89582" lon="6.16772">
        <ele>791.3</ele>
        <time>2019-06-24T12:48:06Z</time>
      </trkpt>
      <trkpt lat="43.89582" lon="6.16783">
        <ele>791.78</ele>
        <time>2019-06-24T12:48:10Z</time>
      </trkpt>
      <trkpt lat="43.89582" lon="6.16786">
        <ele>791.78</ele>
        <time>2019-06-24T12:48:11Z</time>
      </trkpt>
      <trkpt lat="43.89582" lon="6.16789">
        <ele>791.78</ele>
        <time>2019-06-24T12:48:12Z</time>
      </trkpt>
      <trkpt lat="43.89586" lon="6.16855">
        <ele>792.26</ele>
        <time>2019-06-24T12:48:23Z</time>
      </trkpt>
      <trkpt lat="43.89594" lon="6.16915">
        <ele>798.03</ele>
        <time>2019-06-24T13:51:46Z</time>
      </trkpt>
      <trkpt lat="43.89596" lon="6.16922">
        <ele>797.55</ele>
        <time>2019-06-24T13:51:47Z</time>
      </trkpt>
      <trkpt lat="43.89598" lon="6.16929">
        <ele>798.03</ele>
        <time>2019-06-24T13:51:48Z</time>
      </trkpt>
      <trkpt lat="43.89632" lon="6.17037">
        <ele>802.36</ele>
        <time>2019-06-24T13:51:59Z</time>
      </trkpt>
      <trkpt lat="43.89636" lon="6.1705">
        <ele>802.36</ele>
        <time>2019-06-24T13:52:00Z</time>
      </trkpt>
      <trkpt lat="43.89652" lon="6.17104">
        <ele>804.76</ele>
        <time>2019-06-24T13:52:04Z</time>
      </trkpt>
      <trkpt lat="43.89663" lon="6.17167">
        <ele>808.13</ele>
        <time>2019-06-24T13:52:08Z</time>
      </trkpt>
      <trkpt lat="43.89665" lon="6.17184">
        <ele>808.13</ele>
        <time>2019-06-24T13:52:09Z</time>
      </trkpt>
      <trkpt lat="43.89676" lon="6.17273">
        <ele>811.01</ele>
        <time>2019-06-24T13:52:14Z</time>
      </trkpt>
      <trkpt lat="43.89681" lon="6.17309">
        <ele>811.97</ele>
        <time>2019-06-24T13:52:16Z</time>
      </trkpt>
      <trkpt lat="43.89689" lon="6.17363">
        <ele>813.41</ele>
        <time>2019-06-24T13:52:19Z</time>
      </trkpt>
      <trkpt lat="43.89721" lon="6.17487">
        <ele>815.34</ele>
        <time>2019-06-24T13:52:26Z</time>
      </trkpt>
      <trkpt lat="43.89755" lon="6.17633">
        <ele>818.7</ele>
        <time>2019-06-24T13:52:34Z</time>
      </trkpt>
      <trkpt lat="43.89761" lon="6.17695">
        <ele>820.14</ele>
        <time>2019-06-24T13:52:37Z</time>
      </trkpt>
      <trkpt lat="43.89773" lon="6.17784">
        <ele>823.51</ele>
        <time>2019-06-24T13:52:41Z</time>
      </trkpt>
      <trkpt lat="43.89804" lon="6.17893">
        <ele>826.87</ele>
        <time>2019-06-24T13:52:46Z</time>
      </trkpt>
      <trkpt lat="43.89818" lon="6.17936">
        <ele>830.24</ele>
        <time>2019-06-24T13:52:48Z</time>
      </trkpt>
      <trkpt lat="43.89839" lon="6.18001">
        <ele>833.6</ele>
        <time>2019-06-24T13:52:51Z</time>
      </trkpt>
      <trkpt lat="43.89861" lon="6.1809">
        <ele>836.48</ele>
        <time>2019-06-24T13:52:55Z</time>
      </trkpt>
      <trkpt lat="43.89876" lon="6.18159">
        <ele>839.85</ele>
        <time>2019-06-24T13:52:58Z</time>
      </trkpt>
      <trkpt lat="43.89898" lon="6.18254">
        <ele>843.21</ele>
        <time>2019-06-24T13:53:02Z</time>
      </trkpt>
      <trkpt lat="43.89922" lon="6.1835">
        <ele>846.1</ele>
        <time>2019-06-24T13:53:06Z</time>
      </trkpt>
      <trkpt lat="43.89949" lon="6.18441">
        <ele>849.46</ele>
        <time>2019-06-24T13:53:10Z</time>
      </trkpt>
      <trkpt lat="43.90012" lon="6.18575">
        <ele>848.98</ele>
        <time>2019-06-24T13:53:17Z</time>
      </trkpt>
      <trkpt lat="43.90077" lon="6.18743">
        <ele>848.5</ele>
        <time>2019-06-24T13:53:26Z</time>
      </trkpt>
      <trkpt lat="43.90114" lon="6.18873">
        <ele>847.54</ele>
        <time>2019-06-24T13:53:32Z</time>
      </trkpt>
      <trkpt lat="43.90117" lon="6.18895">
        <ele>848.02</ele>
        <time>2019-06-24T13:53:33Z</time>
      </trkpt>
      <trkpt lat="43.90117" lon="6.18918">
        <ele>848.02</ele>
        <time>2019-06-24T13:53:34Z</time>
      </trkpt>
      <trkpt lat="43.90116" lon="6.18942">
        <ele>848.02</ele>
        <time>2019-06-24T13:53:35Z</time>
      </trkpt>
      <trkpt lat="43.90114" lon="6.18965">
        <ele>848.02</ele>
        <time>2019-06-24T13:53:36Z</time>
      </trkpt>
      <trkpt lat="43.90102" lon="6.19093">
        <ele>846.58</ele>
        <time>2019-06-24T13:53:42Z</time>
      </trkpt>
      <trkpt lat="43.90095" lon="6.19108">
        <ele>846.1</ele>
        <time>2019-06-24T13:53:43Z</time>
      </trkpt>
      <trkpt lat="43.90086" lon="6.1912">
        <ele>846.58</ele>
        <time>2019-06-24T13:53:44Z</time>
      </trkpt>
      <trkpt lat="43.90073" lon="6.19129">
        <ele>847.06</ele>
        <time>2019-06-24T13:53:45Z</time>
      </trkpt>
      <trkpt lat="43.90059" lon="6.19135">
        <ele>847.54</ele>
        <time>2019-06-24T13:53:46Z</time>
      </trkpt>
      <trkpt lat="43.90044" lon="6.19139">
        <ele>847.54</ele>
        <time>2019-06-24T13:53:47Z</time>
      </trkpt>
      <trkpt lat="43.89952" lon="6.19184">
        <ele>847.54</ele>
        <time>2019-06-24T13:53:53Z</time>
      </trkpt>
      <trkpt lat="43.8994" lon="6.19198">
        <ele>847.54</ele>
        <time>2019-06-24T13:53:54Z</time>
      </trkpt>
      <trkpt lat="43.89931" lon="6.19214">
        <ele>847.06</ele>
        <time>2019-06-24T13:53:55Z</time>
      </trkpt>
      <trkpt lat="43.89924" lon="6.19233">
        <ele>847.06</ele>
        <time>2019-06-24T13:53:56Z</time>
      </trkpt>
      <trkpt lat="43.89917" lon="6.19252">
        <ele>847.54</ele>
        <time>2019-06-24T13:53:57Z</time>
      </trkpt>
      <trkpt lat="43.89909" lon="6.1927">
        <ele>847.54</ele>
        <time>2019-06-24T13:53:58Z</time>
      </trkpt>
      <trkpt lat="43.89899" lon="6.19287">
        <ele>847.54</ele>
        <time>2019-06-24T13:53:59Z</time>
      </trkpt>
      <trkpt lat="43.89888" lon="6.19303">
        <ele>847.06</ele>
        <time>2019-06-24T13:54:00Z</time>
      </trkpt>
      <trkpt lat="43.89855" lon="6.19348">
        <ele>846.1</ele>
        <time>2019-06-24T13:54:03Z</time>
      </trkpt>
      <trkpt lat="43.89848" lon="6.19365">
        <ele>845.14</ele>
        <time>2019-06-24T13:54:04Z</time>
      </trkpt>
      <trkpt lat="43.89845" lon="6.19384">
        <ele>844.18</ele>
        <time>2019-06-24T13:54:05Z</time>
      </trkpt>
      <trkpt lat="43.89844" lon="6.19405">
        <ele>845.62</ele>
        <time>2019-06-24T13:54:06Z</time>
      </trkpt>
      <trkpt lat="43.89843" lon="6.19425">
        <ele>846.58</ele>
        <time>2019-06-24T13:54:07Z</time>
      </trkpt>
      <trkpt lat="43.8984" lon="6.19488">
        <ele>849.94</ele>
        <time>2019-06-24T13:54:10Z</time>
      </trkpt>
      <trkpt lat="43.89838" lon="6.19508">
        <ele>850.9</ele>
        <time>2019-06-24T13:54:11Z</time>
      </trkpt>
      <trkpt lat="43.89834" lon="6.19529">
        <ele>852.35</ele>
        <time>2019-06-24T13:54:12Z</time>
      </trkpt>
      <trkpt lat="43.89822" lon="6.19589">
        <ele>856.19</ele>
        <time>2019-06-24T13:54:15Z</time>
      </trkpt>
      <trkpt lat="43.89811" lon="6.19647">
        <ele>859.56</ele>
        <time>2019-06-24T13:54:18Z</time>
      </trkpt>
      <trkpt lat="43.89806" lon="6.19682">
        <ele>861</ele>
        <time>2019-06-24T13:54:20Z</time>
      </trkpt>
      <trkpt lat="43.89807" lon="6.19698">
        <ele>861.96</ele>
        <time>2019-06-24T13:54:21Z</time>
      </trkpt>
      <trkpt lat="43.8981" lon="6.19713">
        <ele>862.44</ele>
        <time>2019-06-24T13:54:22Z</time>
      </trkpt>
      <trkpt lat="43.89815" lon="6.19726">
        <ele>863.4</ele>
        <time>2019-06-24T13:54:23Z</time>
      </trkpt>
      <trkpt lat="43.89822" lon="6.19739">
        <ele>864.36</ele>
        <time>2019-06-24T13:54:24Z</time>
      </trkpt>
      <trkpt lat="43.89828" lon="6.19751">
        <ele>865.8</ele>
        <time>2019-06-24T13:54:25Z</time>
      </trkpt>
      <trkpt lat="43.89834" lon="6.19762">
        <ele>866.29</ele>
        <time>2019-06-24T13:54:26Z</time>
      </trkpt>
      <trkpt lat="43.89849" lon="6.19783">
        <ele>874.26953125</ele>
      </trkpt>
      <trkpt lat="43.89854" lon="6.19779">
        <ele>873.93359375</ele>
      </trkpt>
      <trkpt lat="43.89864" lon="6.19777">
        <ele>874.23828125</ele>
      </trkpt>
      <trkpt lat="43.89877" lon="6.19786">
        <ele>876.90234375</ele>
      </trkpt>
      <trkpt lat="43.89892" lon="6.19812">
        <ele>880.91015625</ele>
      </trkpt>
      <trkpt lat="43.89917" lon="6.19846">
        <ele>883.23046875</ele>
      </trkpt>
      <trkpt lat="43.89926" lon="6.19863">
        <ele>883.16796875</ele>
      </trkpt>
      <trkpt lat="43.8993" lon="6.19879">
        <ele>883.72265625</ele>
      </trkpt>
      <trkpt lat="43.89928" lon="6.19884">
        <ele>889.84</ele>
        <time>2019-06-24T14:00:28Z</time>
      </trkpt>
      <trkpt lat="43.89929" lon="6.19893">
        <ele>890.32</ele>
        <time>2019-06-24T14:00:29Z</time>
      </trkpt>
      <trkpt lat="43.89929" lon="6.19904">
        <ele>890.8</ele>
        <time>2019-06-24T14:00:30Z</time>
      </trkpt>
      <trkpt lat="43.89927" lon="6.19915">
        <ele>892.24</ele>
        <time>2019-06-24T14:00:31Z</time>
      </trkpt>
      <trkpt lat="43.89925" lon="6.19927">
        <ele>893.2</ele>
        <time>2019-06-24T14:00:32Z</time>
      </trkpt>
      <trkpt lat="43.89921" lon="6.1994">
        <ele>895.12</ele>
        <time>2019-06-24T14:00:33Z</time>
      </trkpt>
      <trkpt lat="43.89908" lon="6.19995">
        <ele>898.49</ele>
        <time>2019-06-24T14:00:37Z</time>
      </trkpt>
      <trkpt lat="43.89906" lon="6.2001">
        <ele>899.93</ele>
        <time>2019-06-24T14:00:38Z</time>
      </trkpt>
      <trkpt lat="43.89906" lon="6.20023">
        <ele>901.37</ele>
        <time>2019-06-24T14:00:39Z</time>
      </trkpt>
      <trkpt lat="43.89905" lon="6.20064">
        <ele>904.74</ele>
        <time>2019-06-24T14:00:42Z</time>
      </trkpt>
      <trkpt lat="43.89901" lon="6.20105">
        <ele>908.1</ele>
        <time>2019-06-24T14:00:45Z</time>
      </trkpt>
      <trkpt lat="43.89899" lon="6.20144">
        <ele>911.47</ele>
        <time>2019-06-24T14:00:48Z</time>
      </trkpt>
      <trkpt lat="43.899" lon="6.20154">
        <ele>911.95</ele>
        <time>2019-06-24T14:00:49Z</time>
      </trkpt>
      <trkpt lat="43.89901" lon="6.20169">
        <ele>912.43</ele>
        <time>2019-06-24T14:00:51Z</time>
      </trkpt>
      <trkpt lat="43.899" lon="6.20174">
        <ele>912.91</ele>
        <time>2019-06-24T14:00:52Z</time>
      </trkpt>
      <trkpt lat="43.89898" lon="6.20183">
        <ele>914.35</ele>
        <time>2019-06-24T14:00:54Z</time>
      </trkpt>
      <trkpt lat="43.89895" lon="6.20188">
        <ele>914.35</ele>
        <time>2019-06-24T14:00:55Z</time>
      </trkpt>
      <trkpt lat="43.89892" lon="6.20193">
        <ele>915.31</ele>
        <time>2019-06-24T14:00:56Z</time>
      </trkpt>
      <trkpt lat="43.89888" lon="6.20198">
        <ele>915.79</ele>
        <time>2019-06-24T14:00:57Z</time>
      </trkpt>
      <trkpt lat="43.89883" lon="6.20202">
        <ele>916.75</ele>
        <time>2019-06-24T14:00:58Z</time>
      </trkpt>
      <trkpt lat="43.89879" lon="6.20208">
        <ele>918.2</ele>
        <time>2019-06-24T14:00:59Z</time>
      </trkpt>
      <trkpt lat="43.89876" lon="6.20215">
        <ele>918.68</ele>
        <time>2019-06-24T14:01:00Z</time>
      </trkpt>
      <trkpt lat="43.89873" lon="6.20223">
        <ele>919.16</ele>
        <time>2019-06-24T14:01:01Z</time>
      </trkpt>
      <trkpt lat="43.89871" lon="6.20233">
        <ele>920.12</ele>
        <time>2019-06-24T14:01:02Z</time>
      </trkpt>
      <trkpt lat="43.89868" lon="6.20243">
        <ele>921.08</ele>
        <time>2019-06-24T14:01:03Z</time>
      </trkpt>
      <trkpt lat="43.89863" lon="6.20253">
        <ele>922.52</ele>
        <time>2019-06-24T14:01:04Z</time>
      </trkpt>
      <trkpt lat="43.89858" lon="6.20263">
        <ele>923</ele>
        <time>2019-06-24T14:01:05Z</time>
      </trkpt>
      <trkpt lat="43.89852" lon="6.20272">
        <ele>924.45</ele>
        <time>2019-06-24T14:01:06Z</time>
      </trkpt>
      <trkpt lat="43.89845" lon="6.20282">
        <ele>925.41</ele>
        <time>2019-06-24T14:01:07Z</time>
      </trkpt>
      <trkpt lat="43.89826" lon="6.20311">
        <ele>928.77</ele>
        <time>2019-06-24T14:01:10Z</time>
      </trkpt>
      <trkpt lat="43.8982" lon="6.2032">
        <ele>930.21</ele>
        <time>2019-06-24T14:01:11Z</time>
      </trkpt>
      <trkpt lat="43.89813" lon="6.20327">
        <ele>930.69</ele>
        <time>2019-06-24T14:01:12Z</time>
      </trkpt>
      <trkpt lat="43.89806" lon="6.20332">
        <ele>931.65</ele>
        <time>2019-06-24T14:01:13Z</time>
      </trkpt>
      <trkpt lat="43.89782" lon="6.20344">
        <ele>934.54</ele>
        <time>2019-06-24T14:01:16Z</time>
      </trkpt>
      <trkpt lat="43.89756" lon="6.20361">
        <ele>936.94</ele>
        <time>2019-06-24T14:01:19Z</time>
      </trkpt>
      <trkpt lat="43.8973" lon="6.20373">
        <ele>939.35</ele>
        <time>2019-06-24T14:01:23Z</time>
      </trkpt>
      <trkpt lat="43.89728" lon="6.20377">
        <ele>939.83</ele>
        <time>2019-06-24T14:01:24Z</time>
      </trkpt>
      <trkpt lat="43.89726" lon="6.20382">
        <ele>940.31</ele>
        <time>2019-06-24T14:01:25Z</time>
      </trkpt>
      <trkpt lat="43.89727" lon="6.20387">
        <ele>940.31</ele>
        <time>2019-06-24T14:01:26Z</time>
      </trkpt>
      <trkpt lat="43.89729" lon="6.20392">
        <ele>940.79</ele>
        <time>2019-06-24T14:01:27Z</time>
      </trkpt>
      <trkpt lat="43.89733" lon="6.20395">
        <ele>940.79</ele>
        <time>2019-06-24T14:01:28Z</time>
      </trkpt>
      <trkpt lat="43.89737" lon="6.20396">
        <ele>941.75</ele>
        <time>2019-06-24T14:01:29Z</time>
      </trkpt>
      <trkpt lat="43.89742" lon="6.20395">
        <ele>941.75</ele>
        <time>2019-06-24T14:01:30Z</time>
      </trkpt>
      <trkpt lat="43.89747" lon="6.20392">
        <ele>942.23</ele>
        <time>2019-06-24T14:01:31Z</time>
      </trkpt>
      <trkpt lat="43.89753" lon="6.2039">
        <ele>942.71</ele>
        <time>2019-06-24T14:01:32Z</time>
      </trkpt>
      <trkpt lat="43.89759" lon="6.20388">
        <ele>944.15</ele>
        <time>2019-06-24T14:01:33Z</time>
      </trkpt>
      <trkpt lat="43.89766" lon="6.20389">
        <ele>944.15</ele>
        <time>2019-06-24T14:01:34Z</time>
      </trkpt>
      <trkpt lat="43.89774" lon="6.20391">
        <ele>944.63</ele>
        <time>2019-06-24T14:01:35Z</time>
      </trkpt>
      <trkpt lat="43.89781" lon="6.20395">
        <ele>945.11</ele>
        <time>2019-06-24T14:01:36Z</time>
      </trkpt>
      <trkpt lat="43.89789" lon="6.20401">
        <ele>946.56</ele>
        <time>2019-06-24T14:01:37Z</time>
      </trkpt>
      <trkpt lat="43.89796" lon="6.20407">
        <ele>946.56</ele>
        <time>2019-06-24T14:01:38Z</time>
      </trkpt>
      <trkpt lat="43.89811" lon="6.20418">
        <ele>949.44</ele>
        <time>2019-06-24T14:01:40Z</time>
      </trkpt>
      <trkpt lat="43.89819" lon="6.20421">
        <ele>950.4</ele>
        <time>2019-06-24T14:01:41Z</time>
      </trkpt>
      <trkpt lat="43.89826" lon="6.20423">
        <ele>950.88</ele>
        <time>2019-06-24T14:01:42Z</time>
      </trkpt>
      <trkpt lat="43.89831" lon="6.20425">
        <ele>950.88</ele>
        <time>2019-06-24T14:01:43Z</time>
      </trkpt>
      <trkpt lat="43.89835" lon="6.20429">
        <ele>951.84</ele>
        <time>2019-06-24T14:01:44Z</time>
      </trkpt>
      <trkpt lat="43.89838" lon="6.20434">
        <ele>952.8</ele>
        <time>2019-06-24T14:01:45Z</time>
      </trkpt>
      <trkpt lat="43.89839" lon="6.20441">
        <ele>952.8</ele>
        <time>2019-06-24T14:01:46Z</time>
      </trkpt>
      <trkpt lat="43.89839" lon="6.20448">
        <ele>953.28</ele>
        <time>2019-06-24T14:01:47Z</time>
      </trkpt>
      <trkpt lat="43.89837" lon="6.20456">
        <ele>954.25</ele>
        <time>2019-06-24T14:01:48Z</time>
      </trkpt>
      <trkpt lat="43.89834" lon="6.20462">
        <ele>954.73</ele>
        <time>2019-06-24T14:01:49Z</time>
      </trkpt>
      <trkpt lat="43.89831" lon="6.20469">
        <ele>955.69</ele>
        <time>2019-06-24T14:01:50Z</time>
      </trkpt>
      <trkpt lat="43.89829" lon="6.20476">
        <ele>956.17</ele>
        <time>2019-06-24T14:01:51Z</time>
      </trkpt>
      <trkpt lat="43.89829" lon="6.20484">
        <ele>956.17</ele>
        <time>2019-06-24T14:01:52Z</time>
      </trkpt>
      <trkpt lat="43.89831" lon="6.20491">
        <ele>957.13</ele>
        <time>2019-06-24T14:01:53Z</time>
      </trkpt>
      <trkpt lat="43.89835" lon="6.20497">
        <ele>957.13</ele>
        <time>2019-06-24T14:01:54Z</time>
      </trkpt>
      <trkpt lat="43.89841" lon="6.20502">
        <ele>957.61</ele>
        <time>2019-06-24T14:01:55Z</time>
      </trkpt>
      <trkpt lat="43.89848" lon="6.20507">
        <ele>957.61</ele>
        <time>2019-06-24T14:01:56Z</time>
      </trkpt>
      <trkpt lat="43.89855" lon="6.20513">
        <ele>958.09</ele>
        <time>2019-06-24T14:01:57Z</time>
      </trkpt>
      <trkpt lat="43.89862" lon="6.2052">
        <ele>958.57</ele>
        <time>2019-06-24T14:01:58Z</time>
      </trkpt>
      <trkpt lat="43.89867" lon="6.20528">
        <ele>959.53</ele>
        <time>2019-06-24T14:01:59Z</time>
      </trkpt>
      <trkpt lat="43.89886" lon="6.2057">
        <ele>962.42</ele>
        <time>2019-06-24T14:02:05Z</time>
      </trkpt>
      <trkpt lat="43.89889" lon="6.20586">
        <ele>963.86</ele>
        <time>2019-06-24T14:02:07Z</time>
      </trkpt>
      <trkpt lat="43.8989" lon="6.20595">
        <ele>963.86</ele>
        <time>2019-06-24T14:02:08Z</time>
      </trkpt>
      <trkpt lat="43.89891" lon="6.20604">
        <ele>964.82</ele>
        <time>2019-06-24T14:02:09Z</time>
      </trkpt>
      <trkpt lat="43.89892" lon="6.20625">
        <ele>965.78</ele>
        <time>2019-06-24T14:02:11Z</time>
      </trkpt>
      <trkpt lat="43.89894" lon="6.20635">
        <ele>966.74</ele>
        <time>2019-06-24T14:02:12Z</time>
      </trkpt>
      <trkpt lat="43.89897" lon="6.20645">
        <ele>967.22</ele>
        <time>2019-06-24T14:02:13Z</time>
      </trkpt>
      <trkpt lat="43.899" lon="6.20653">
        <ele>968.18</ele>
        <time>2019-06-24T14:02:14Z</time>
      </trkpt>
      <trkpt lat="43.89905" lon="6.20658">
        <ele>968.67</ele>
        <time>2019-06-24T14:02:15Z</time>
      </trkpt>
      <trkpt lat="43.8991" lon="6.2066">
        <ele>969.15</ele>
        <time>2019-06-24T14:02:16Z</time>
      </trkpt>
      <trkpt lat="43.89916" lon="6.20661">
        <ele>969.15</ele>
        <time>2019-06-24T14:02:17Z</time>
      </trkpt>
      <trkpt lat="43.89923" lon="6.20659">
        <ele>970.11</ele>
        <time>2019-06-24T14:02:18Z</time>
      </trkpt>
      <trkpt lat="43.8993" lon="6.20657">
        <ele>970.59</ele>
        <time>2019-06-24T14:02:19Z</time>
      </trkpt>
      <trkpt lat="43.89937" lon="6.20657">
        <ele>970.59</ele>
        <time>2019-06-24T14:02:20Z</time>
      </trkpt>
      <trkpt lat="43.89943" lon="6.20659">
        <ele>971.55</ele>
        <time>2019-06-24T14:02:21Z</time>
      </trkpt>
      <trkpt lat="43.89949" lon="6.20664">
        <ele>971.55</ele>
        <time>2019-06-24T14:02:22Z</time>
      </trkpt>
      <trkpt lat="43.89954" lon="6.20672">
        <ele>972.51</ele>
        <time>2019-06-24T14:02:23Z</time>
      </trkpt>
      <trkpt lat="43.89957" lon="6.20682">
        <ele>972.51</ele>
        <time>2019-06-24T14:02:24Z</time>
      </trkpt>
      <trkpt lat="43.89959" lon="6.20694">
        <ele>973.95</ele>
        <time>2019-06-24T14:02:25Z</time>
      </trkpt>
      <trkpt lat="43.89959" lon="6.20706">
        <ele>973.95</ele>
        <time>2019-06-24T14:02:26Z</time>
      </trkpt>
      <trkpt lat="43.89957" lon="6.20718">
        <ele>974.43</ele>
        <time>2019-06-24T14:02:27Z</time>
      </trkpt>
      <trkpt lat="43.89956" lon="6.20729">
        <ele>974.91</ele>
        <time>2019-06-24T14:02:28Z</time>
      </trkpt>
      <trkpt lat="43.89955" lon="6.20738">
        <ele>974.91</ele>
        <time>2019-06-24T14:02:29Z</time>
      </trkpt>
      <trkpt lat="43.89955" lon="6.20748">
        <ele>974.91</ele>
        <time>2019-06-24T14:02:30Z</time>
      </trkpt>
      <trkpt lat="43.89958" lon="6.20756">
        <ele>974.91</ele>
        <time>2019-06-24T14:02:31Z</time>
      </trkpt>
      <trkpt lat="43.89961" lon="6.20764">
        <ele>975.39</ele>
        <time>2019-06-24T14:02:32Z</time>
      </trkpt>
      <trkpt lat="43.89967" lon="6.2077">
        <ele>975.39</ele>
        <time>2019-06-24T14:02:33Z</time>
      </trkpt>
      <trkpt lat="43.89974" lon="6.20776">
        <ele>976.36</ele>
        <time>2019-06-24T14:02:34Z</time>
      </trkpt>
      <trkpt lat="43.89989" lon="6.20786">
        <ele>977.32</ele>
        <time>2019-06-24T14:02:36Z</time>
      </trkpt>
      <trkpt lat="43.89998" lon="6.20788">
        <ele>977.8</ele>
        <time>2019-06-24T14:02:37Z</time>
      </trkpt>
      <trkpt lat="43.90007" lon="6.2079">
        <ele>978.28</ele>
        <time>2019-06-24T14:02:38Z</time>
      </trkpt>
      <trkpt lat="43.90015" lon="6.20794">
        <ele>979.24</ele>
        <time>2019-06-24T14:02:39Z</time>
      </trkpt>
      <trkpt lat="43.90021" lon="6.20799">
        <ele>979.72</ele>
        <time>2019-06-24T14:02:40Z</time>
      </trkpt>
      <trkpt lat="43.90027" lon="6.20806">
        <ele>980.68</ele>
        <time>2019-06-24T14:02:41Z</time>
      </trkpt>
      <trkpt lat="43.90032" lon="6.20815">
        <ele>981.16</ele>
        <time>2019-06-24T14:02:42Z</time>
      </trkpt>
      <trkpt lat="43.90036" lon="6.20824">
        <ele>982.6</ele>
        <time>2019-06-24T14:02:43Z</time>
      </trkpt>
      <trkpt lat="43.90038" lon="6.20834">
        <ele>982.6</ele>
        <time>2019-06-24T14:02:44Z</time>
      </trkpt>
      <trkpt lat="43.90039" lon="6.20845">
        <ele>983.09</ele>
        <time>2019-06-24T14:02:45Z</time>
      </trkpt>
      <trkpt lat="43.90039" lon="6.20856">
        <ele>984.53</ele>
        <time>2019-06-24T14:02:46Z</time>
      </trkpt>
      <trkpt lat="43.90039" lon="6.20866">
        <ele>985.01</ele>
        <time>2019-06-24T14:02:47Z</time>
      </trkpt>
      <trkpt lat="43.90039" lon="6.20886">
        <ele>986.45</ele>
        <time>2019-06-24T14:02:49Z</time>
      </trkpt>
      <trkpt lat="43.9004" lon="6.20896">
        <ele>986.45</ele>
        <time>2019-06-24T14:02:50Z</time>
      </trkpt>
      <trkpt lat="43.90046" lon="6.20917">
        <ele>987.89</ele>
        <time>2019-06-24T14:02:52Z</time>
      </trkpt>
      <trkpt lat="43.90049" lon="6.20926">
        <ele>988.85</ele>
        <time>2019-06-24T14:02:53Z</time>
      </trkpt>
      <trkpt lat="43.90058" lon="6.20945">
        <ele>990.78</ele>
        <time>2019-06-24T14:02:55Z</time>
      </trkpt>
      <trkpt lat="43.9006" lon="6.20956">
        <ele>991.74</ele>
        <time>2019-06-24T14:02:56Z</time>
      </trkpt>
      <trkpt lat="43.90062" lon="6.20965">
        <ele>991.74</ele>
        <time>2019-06-24T14:02:57Z</time>
      </trkpt>
      <trkpt lat="43.90062" lon="6.20974">
        <ele>991.74</ele>
        <time>2019-06-24T14:02:58Z</time>
      </trkpt>
      <trkpt lat="43.9006" lon="6.20983">
        <ele>992.22</ele>
        <time>2019-06-24T14:02:59Z</time>
      </trkpt>
      <trkpt lat="43.90057" lon="6.20989">
        <ele>992.7</ele>
        <time>2019-06-24T14:03:00Z</time>
      </trkpt>
      <trkpt lat="43.90052" lon="6.20995">
        <ele>993.66</ele>
        <time>2019-06-24T14:03:01Z</time>
      </trkpt>
      <trkpt lat="43.90046" lon="6.20998">
        <ele>993.66</ele>
        <time>2019-06-24T14:03:02Z</time>
      </trkpt>
      <trkpt lat="43.90039" lon="6.20999">
        <ele>994.62</ele>
        <time>2019-06-24T14:03:03Z</time>
      </trkpt>
      <trkpt lat="43.90032" lon="6.21">
        <ele>995.1</ele>
        <time>2019-06-24T14:03:04Z</time>
      </trkpt>
      <trkpt lat="43.90026" lon="6.20998">
        <ele>996.06</ele>
        <time>2019-06-24T14:03:05Z</time>
      </trkpt>
      <trkpt lat="43.90018" lon="6.20996">
        <ele>996.54</ele>
        <time>2019-06-24T14:03:06Z</time>
      </trkpt>
      <trkpt lat="43.90011" lon="6.20996">
        <ele>997.02</ele>
        <time>2019-06-24T14:03:07Z</time>
      </trkpt>
      <trkpt lat="43.90004" lon="6.20997">
        <ele>997.99</ele>
        <time>2019-06-24T14:03:08Z</time>
      </trkpt>
      <trkpt lat="43.89997" lon="6.21">
        <ele>998.47</ele>
        <time>2019-06-24T14:03:09Z</time>
      </trkpt>
      <trkpt lat="43.89972" lon="6.21009">
        <ele>999.91</ele>
        <time>2019-06-24T14:03:12Z</time>
      </trkpt>
      <trkpt lat="43.89949" lon="6.21014">
        <ele>1001.83</ele>
        <time>2019-06-24T14:03:15Z</time>
      </trkpt>
      <trkpt lat="43.89942" lon="6.21017">
        <ele>1001.83</ele>
        <time>2019-06-24T14:03:16Z</time>
      </trkpt>
      <trkpt lat="43.89936" lon="6.21022">
        <ele>1002.31</ele>
        <time>2019-06-24T14:03:17Z</time>
      </trkpt>
      <trkpt lat="43.89932" lon="6.21028">
        <ele>1002.79</ele>
        <time>2019-06-24T14:03:18Z</time>
      </trkpt>
      <trkpt lat="43.89928" lon="6.21036">
        <ele>1003.75</ele>
        <time>2019-06-24T14:03:19Z</time>
      </trkpt>
      <trkpt lat="43.89926" lon="6.21045">
        <ele>1004.72</ele>
        <time>2019-06-24T14:03:20Z</time>
      </trkpt>
      <trkpt lat="43.89924" lon="6.21054">
        <ele>1005.2</ele>
        <time>2019-06-24T14:03:21Z</time>
      </trkpt>
      <trkpt lat="43.89924" lon="6.21063">
        <ele>1005.68</ele>
        <time>2019-06-24T14:03:22Z</time>
      </trkpt>
      <trkpt lat="43.89925" lon="6.21072">
        <ele>1006.16</ele>
        <time>2019-06-24T14:03:23Z</time>
      </trkpt>
      <trkpt lat="43.89927" lon="6.21079">
        <ele>1006.64</ele>
        <time>2019-06-24T14:03:24Z</time>
      </trkpt>
      <trkpt lat="43.89929" lon="6.21085">
        <ele>1007.12</ele>
        <time>2019-06-24T14:03:25Z</time>
      </trkpt>
      <trkpt lat="43.89932" lon="6.21091">
        <ele>1008.08</ele>
        <time>2019-06-24T14:03:26Z</time>
      </trkpt>
      <trkpt lat="43.89937" lon="6.21095">
        <ele>1008.56</ele>
        <time>2019-06-24T14:03:27Z</time>
      </trkpt>
      <trkpt lat="43.89943" lon="6.211">
        <ele>1009.52</ele>
        <time>2019-06-24T14:03:28Z</time>
      </trkpt>
      <trkpt lat="43.89949" lon="6.21104">
        <ele>1010.48</ele>
        <time>2019-06-24T14:03:29Z</time>
      </trkpt>
      <trkpt lat="43.89955" lon="6.2111">
        <ele>1010.48</ele>
        <time>2019-06-24T14:03:30Z</time>
      </trkpt>
      <trkpt lat="43.89961" lon="6.21117">
        <ele>1011.44</ele>
        <time>2019-06-24T14:03:31Z</time>
      </trkpt>
      <trkpt lat="43.89965" lon="6.21126">
        <ele>1012.41</ele>
        <time>2019-06-24T14:03:32Z</time>
      </trkpt>
      <trkpt lat="43.89969" lon="6.21135">
        <ele>1012.89</ele>
        <time>2019-06-24T14:03:33Z</time>
      </trkpt>
      <trkpt lat="43.89972" lon="6.21145">
        <ele>1013.85</ele>
        <time>2019-06-24T14:03:34Z</time>
      </trkpt>
      <trkpt lat="43.89974" lon="6.21156">
        <ele>1015.29</ele>
        <time>2019-06-24T14:03:35Z</time>
      </trkpt>
      <trkpt lat="43.89974" lon="6.21167">
        <ele>1015.77</ele>
        <time>2019-06-24T14:03:36Z</time>
      </trkpt>
      <trkpt lat="43.89974" lon="6.21178">
        <ele>1016.73</ele>
        <time>2019-06-24T14:03:37Z</time>
      </trkpt>
      <trkpt lat="43.89973" lon="6.2119">
        <ele>1017.21</ele>
        <time>2019-06-24T14:03:38Z</time>
      </trkpt>
      <trkpt lat="43.89972" lon="6.21201">
        <ele>1018.17</ele>
        <time>2019-06-24T14:03:39Z</time>
      </trkpt>
      <trkpt lat="43.89969" lon="6.21212">
        <ele>1018.65</ele>
        <time>2019-06-24T14:03:40Z</time>
      </trkpt>
      <trkpt lat="43.89965" lon="6.21223">
        <ele>1020.1</ele>
        <time>2019-06-24T14:03:41Z</time>
      </trkpt>
      <trkpt lat="43.89961" lon="6.21234">
        <ele>1021.06</ele>
        <time>2019-06-24T14:03:42Z</time>
      </trkpt>
      <trkpt lat="43.89956" lon="6.21245">
        <ele>1021.54</ele>
        <time>2019-06-24T14:03:43Z</time>
      </trkpt>
      <trkpt lat="43.8995" lon="6.21255">
        <ele>1022.98</ele>
        <time>2019-06-24T14:03:44Z</time>
      </trkpt>
      <trkpt lat="43.89944" lon="6.21264">
        <ele>1024.42</ele>
        <time>2019-06-24T14:03:45Z</time>
      </trkpt>
      <trkpt lat="43.89937" lon="6.21273">
        <ele>1024.9</ele>
        <time>2019-06-24T14:03:46Z</time>
      </trkpt>
      <trkpt lat="43.89924" lon="6.21293">
        <ele>1025.38</ele>
        <time>2019-06-24T14:03:49Z</time>
      </trkpt>
      <trkpt lat="43.89923" lon="6.21301">
        <ele>1025.86</ele>
        <time>2019-06-24T14:03:50Z</time>
      </trkpt>
      <trkpt lat="43.89923" lon="6.21309">
        <ele>1026.34</ele>
        <time>2019-06-24T14:03:51Z</time>
      </trkpt>
      <trkpt lat="43.89924" lon="6.21327">
        <ele>1028.27</ele>
        <time>2019-06-24T14:03:53Z</time>
      </trkpt>
      <trkpt lat="43.89923" lon="6.21335">
        <ele>1028.27</ele>
        <time>2019-06-24T14:03:54Z</time>
      </trkpt>
      <trkpt lat="43.89921" lon="6.21341">
        <ele>1028.27</ele>
        <time>2019-06-24T14:03:55Z</time>
      </trkpt>
      <trkpt lat="43.89918" lon="6.21345">
        <ele>1028.75</ele>
        <time>2019-06-24T14:03:56Z</time>
      </trkpt>
      <trkpt lat="43.89913" lon="6.21347">
        <ele>1029.23</ele>
        <time>2019-06-24T14:03:57Z</time>
      </trkpt>
      <trkpt lat="43.89907" lon="6.21347">
        <ele>1029.71</ele>
        <time>2019-06-24T14:03:58Z</time>
      </trkpt>
      <trkpt lat="43.89901" lon="6.21348">
        <ele>1030.67</ele>
        <time>2019-06-24T14:03:59Z</time>
      </trkpt>
      <trkpt lat="43.8988" lon="6.21352">
        <ele>1033.07</ele>
        <time>2019-06-24T14:04:02Z</time>
      </trkpt>
      <trkpt lat="43.89874" lon="6.21356">
        <ele>1033.07</ele>
        <time>2019-06-24T14:04:03Z</time>
      </trkpt>
      <trkpt lat="43.89868" lon="6.21363">
        <ele>1034.04</ele>
        <time>2019-06-24T14:04:04Z</time>
      </trkpt>
      <trkpt lat="43.89865" lon="6.21371">
        <ele>1034.52</ele>
        <time>2019-06-24T14:04:05Z</time>
      </trkpt>
      <trkpt lat="43.89862" lon="6.21381">
        <ele>1035</ele>
        <time>2019-06-24T14:04:06Z</time>
      </trkpt>
      <trkpt lat="43.8986" lon="6.21392">
        <ele>1035.96</ele>
        <time>2019-06-24T14:04:07Z</time>
      </trkpt>
      <trkpt lat="43.89859" lon="6.21403">
        <ele>1036.92</ele>
        <time>2019-06-24T14:04:08Z</time>
      </trkpt>
      <trkpt lat="43.8986" lon="6.21413">
        <ele>1037.4</ele>
        <time>2019-06-24T14:04:09Z</time>
      </trkpt>
      <trkpt lat="43.89862" lon="6.21422">
        <ele>1037.88</ele>
        <time>2019-06-24T14:04:10Z</time>
      </trkpt>
      <trkpt lat="43.89865" lon="6.21432">
        <ele>1038.36</ele>
        <time>2019-06-24T14:04:11Z</time>
      </trkpt>
      <trkpt lat="43.89869" lon="6.21441">
        <ele>1039.32</ele>
        <time>2019-06-24T14:04:12Z</time>
      </trkpt>
      <trkpt lat="43.89871" lon="6.21451">
        <ele>1039.32</ele>
        <time>2019-06-24T14:04:13Z</time>
      </trkpt>
      <trkpt lat="43.89872" lon="6.21462">
        <ele>1040.28</ele>
        <time>2019-06-24T14:04:14Z</time>
      </trkpt>
      <trkpt lat="43.89871" lon="6.21473">
        <ele>1041.25</ele>
        <time>2019-06-24T14:04:15Z</time>
      </trkpt>
      <trkpt lat="43.89869" lon="6.21484">
        <ele>1042.21</ele>
        <time>2019-06-24T14:04:16Z</time>
      </trkpt>
      <trkpt lat="43.89866" lon="6.21496">
        <ele>1042.69</ele>
        <time>2019-06-24T14:04:17Z</time>
      </trkpt>
      <trkpt lat="43.8986" lon="6.21519">
        <ele>1043.65</ele>
        <time>2019-06-24T14:04:19Z</time>
      </trkpt>
      <trkpt lat="43.89855" lon="6.21529">
        <ele>1044.61</ele>
        <time>2019-06-24T14:04:20Z</time>
      </trkpt>
      <trkpt lat="43.8985" lon="6.21538">
        <ele>1045.09</ele>
        <time>2019-06-24T14:04:21Z</time>
      </trkpt>
      <trkpt lat="43.89844" lon="6.21546">
        <ele>1046.05</ele>
        <time>2019-06-24T14:04:22Z</time>
      </trkpt>
      <trkpt lat="43.89841" lon="6.21553">
        <ele>1045.57</ele>
        <time>2019-06-24T14:04:23Z</time>
      </trkpt>
      <trkpt lat="43.89838" lon="6.21562">
        <ele>1046.05</ele>
        <time>2019-06-24T14:04:24Z</time>
      </trkpt>
      <trkpt lat="43.89836" lon="6.21572">
        <ele>1047.01</ele>
        <time>2019-06-24T14:04:25Z</time>
      </trkpt>
      <trkpt lat="43.89836" lon="6.21582">
        <ele>1047.97</ele>
        <time>2019-06-24T14:04:26Z</time>
      </trkpt>
      <trkpt lat="43.89837" lon="6.21591">
        <ele>1048.45</ele>
        <time>2019-06-24T14:04:27Z</time>
      </trkpt>
      <trkpt lat="43.89839" lon="6.21601">
        <ele>1048.94</ele>
        <time>2019-06-24T14:04:28Z</time>
      </trkpt>
      <trkpt lat="43.89842" lon="6.21608">
        <ele>1049.9</ele>
        <time>2019-06-24T14:04:29Z</time>
      </trkpt>
      <trkpt lat="43.89845" lon="6.21615">
        <ele>1050.38</ele>
        <time>2019-06-24T14:04:30Z</time>
      </trkpt>
      <trkpt lat="43.89849" lon="6.2162">
        <ele>1050.86</ele>
        <time>2019-06-24T14:04:31Z</time>
      </trkpt>
      <trkpt lat="43.89855" lon="6.21623">
        <ele>1051.82</ele>
        <time>2019-06-24T14:04:32Z</time>
      </trkpt>
      <trkpt lat="43.89862" lon="6.21626">
        <ele>1051.82</ele>
        <time>2019-06-24T14:04:33Z</time>
      </trkpt>
      <trkpt lat="43.89869" lon="6.21626">
        <ele>1052.3</ele>
        <time>2019-06-24T14:04:34Z</time>
      </trkpt>
      <trkpt lat="43.89877" lon="6.21626">
        <ele>1052.3</ele>
        <time>2019-06-24T14:04:35Z</time>
      </trkpt>
      <trkpt lat="43.89886" lon="6.21624">
        <ele>1052.78</ele>
        <time>2019-06-24T14:04:36Z</time>
      </trkpt>
      <trkpt lat="43.89896" lon="6.21624">
        <ele>1053.26</ele>
        <time>2019-06-24T14:04:37Z</time>
      </trkpt>
      <trkpt lat="43.89906" lon="6.21625">
        <ele>1054.22</ele>
        <time>2019-06-24T14:04:38Z</time>
      </trkpt>
      <trkpt lat="43.89996" lon="6.21646">
        <ele>1054.22</ele>
        <time>2019-06-24T14:04:46Z</time>
      </trkpt>
      <trkpt lat="43.90006" lon="6.21652">
        <ele>1053.74</ele>
        <time>2019-06-24T14:04:47Z</time>
      </trkpt>
      <trkpt lat="43.90015" lon="6.2166">
        <ele>1054.22</ele>
        <time>2019-06-24T14:04:48Z</time>
      </trkpt>
      <trkpt lat="43.9006" lon="6.21697">
        <ele>1052.78</ele>
        <time>2019-06-24T14:04:53Z</time>
      </trkpt>
      <trkpt lat="43.90076" lon="6.21711">
        <ele>1052.78</ele>
        <time>2019-06-24T14:04:55Z</time>
      </trkpt>
      <trkpt lat="43.90084" lon="6.21719">
        <ele>1052.3</ele>
        <time>2019-06-24T14:04:56Z</time>
      </trkpt>
      <trkpt lat="43.9009" lon="6.21728">
        <ele>1052.3</ele>
        <time>2019-06-24T14:04:57Z</time>
      </trkpt>
      <trkpt lat="43.90097" lon="6.21738">
        <ele>1052.78</ele>
        <time>2019-06-24T14:04:58Z</time>
      </trkpt>
      <trkpt lat="43.90103" lon="6.21748">
        <ele>1053.74</ele>
        <time>2019-06-24T14:04:59Z</time>
      </trkpt>
      <trkpt lat="43.9011" lon="6.21758">
        <ele>1053.74</ele>
        <time>2019-06-24T14:05:00Z</time>
      </trkpt>
      <trkpt lat="43.90132" lon="6.21786">
        <ele>1057.11</ele>
        <time>2019-06-24T14:05:03Z</time>
      </trkpt>
      <trkpt lat="43.90145" lon="6.21804">
        <ele>1058.07</ele>
        <time>2019-06-24T14:05:05Z</time>
      </trkpt>
      <trkpt lat="43.90149" lon="6.21813">
        <ele>1059.51</ele>
        <time>2019-06-24T14:05:06Z</time>
      </trkpt>
      <trkpt lat="43.90153" lon="6.21822">
        <ele>1059.99</ele>
        <time>2019-06-24T14:05:07Z</time>
      </trkpt>
      <trkpt lat="43.90156" lon="6.21831">
        <ele>1060.95</ele>
        <time>2019-06-24T14:05:08Z</time>
      </trkpt>
      <trkpt lat="43.90157" lon="6.21842">
        <ele>1061.91</ele>
        <time>2019-06-24T14:05:09Z</time>
      </trkpt>
      <trkpt lat="43.90158" lon="6.21853">
        <ele>1062.87</ele>
        <time>2019-06-24T14:05:10Z</time>
      </trkpt>
      <trkpt lat="43.90156" lon="6.21863">
        <ele>1063.84</ele>
        <time>2019-06-24T14:05:11Z</time>
      </trkpt>
      <trkpt lat="43.90154" lon="6.21874">
        <ele>1064.8</ele>
        <time>2019-06-24T14:05:12Z</time>
      </trkpt>
      <trkpt lat="43.90152" lon="6.21885">
        <ele>1066.24</ele>
        <time>2019-06-24T14:05:13Z</time>
      </trkpt>
      <trkpt lat="43.9015" lon="6.21897">
        <ele>1066.72</ele>
        <time>2019-06-24T14:05:14Z</time>
      </trkpt>
      <trkpt lat="43.9015" lon="6.2191">
        <ele>1067.2</ele>
        <time>2019-06-24T14:05:15Z</time>
      </trkpt>
      <trkpt lat="43.90151" lon="6.21923">
        <ele>1068.16</ele>
        <time>2019-06-24T14:05:16Z</time>
      </trkpt>
      <trkpt lat="43.90158" lon="6.21961">
        <ele>1071.53</ele>
        <time>2019-06-24T14:05:19Z</time>
      </trkpt>
      <trkpt lat="43.90162" lon="6.21972">
        <ele>1072.49</ele>
        <time>2019-06-24T14:05:20Z</time>
      </trkpt>
      <trkpt lat="43.90168" lon="6.21983">
        <ele>1072.97</ele>
        <time>2019-06-24T14:05:21Z</time>
      </trkpt>
      <trkpt lat="43.90174" lon="6.21993">
        <ele>1073.93</ele>
        <time>2019-06-24T14:05:22Z</time>
      </trkpt>
      <trkpt lat="43.90181" lon="6.22002">
        <ele>1074.89</ele>
        <time>2019-06-24T14:05:23Z</time>
      </trkpt>
      <trkpt lat="43.90205" lon="6.22032">
        <ele>1078.26</ele>
        <time>2019-06-24T14:05:26Z</time>
      </trkpt>
      <trkpt lat="43.90227" lon="6.22061">
        <ele>1080.66</ele>
        <time>2019-06-24T14:05:29Z</time>
      </trkpt>
      <trkpt lat="43.90235" lon="6.22068">
        <ele>1081.62</ele>
        <time>2019-06-24T14:05:30Z</time>
      </trkpt>
      <trkpt lat="43.90244" lon="6.22074">
        <ele>1082.58</ele>
        <time>2019-06-24T14:05:31Z</time>
      </trkpt>
      <trkpt lat="43.90263" lon="6.22088">
        <ele>1084.02</ele>
        <time>2019-06-24T14:05:34Z</time>
      </trkpt>
      <trkpt lat="43.90267" lon="6.22094">
        <ele>1084.99</ele>
        <time>2019-06-24T14:05:35Z</time>
      </trkpt>
      <trkpt lat="43.9027" lon="6.22101">
        <ele>1084.5</ele>
        <time>2019-06-24T14:05:36Z</time>
      </trkpt>
      <trkpt lat="43.90272" lon="6.22106">
        <ele>1084.99</ele>
        <time>2019-06-24T14:05:37Z</time>
      </trkpt>
      <trkpt lat="43.90272" lon="6.22111">
        <ele>1084.99</ele>
        <time>2019-06-24T14:05:38Z</time>
      </trkpt>
      <trkpt lat="43.90271" lon="6.22114">
        <ele>1085.47</ele>
        <time>2019-06-24T14:05:39Z</time>
      </trkpt>
      <trkpt lat="43.90267" lon="6.22118">
        <ele>1085.95</ele>
        <time>2019-06-24T14:05:40Z</time>
      </trkpt>
      <trkpt lat="43.90264" lon="6.22119">
        <ele>1086.43</ele>
        <time>2019-06-24T14:05:41Z</time>
      </trkpt>
      <trkpt lat="43.9026" lon="6.22117">
        <ele>1086.43</ele>
        <time>2019-06-24T14:05:42Z</time>
      </trkpt>
      <trkpt lat="43.90257" lon="6.22113">
        <ele>1086.91</ele>
        <time>2019-06-24T14:05:43Z</time>
      </trkpt>
      <trkpt lat="43.90254" lon="6.22107">
        <ele>1087.39</ele>
        <time>2019-06-24T14:05:44Z</time>
      </trkpt>
      <trkpt lat="43.9025" lon="6.22101">
        <ele>1088.35</ele>
        <time>2019-06-24T14:05:45Z</time>
      </trkpt>
      <trkpt lat="43.90245" lon="6.22096">
        <ele>1088.83</ele>
        <time>2019-06-24T14:05:46Z</time>
      </trkpt>
      <trkpt lat="43.90238" lon="6.22092">
        <ele>1088.83</ele>
        <time>2019-06-24T14:05:47Z</time>
      </trkpt>
      <trkpt lat="43.90231" lon="6.22089">
        <ele>1089.31</ele>
        <time>2019-06-24T14:05:48Z</time>
      </trkpt>
      <trkpt lat="43.90224" lon="6.22086">
        <ele>1090.27</ele>
        <time>2019-06-24T14:05:49Z</time>
      </trkpt>
      <trkpt lat="43.90216" lon="6.22084">
        <ele>1091.23</ele>
        <time>2019-06-24T14:05:50Z</time>
      </trkpt>
      <trkpt lat="43.9021" lon="6.22083">
        <ele>1092.2</ele>
        <time>2019-06-24T14:05:51Z</time>
      </trkpt>
      <trkpt lat="43.90205" lon="6.22084">
        <ele>1092.2</ele>
        <time>2019-06-24T14:05:52Z</time>
      </trkpt>
      <trkpt lat="43.902" lon="6.22085">
        <ele>1092.2</ele>
        <time>2019-06-24T14:05:53Z</time>
      </trkpt>
      <trkpt lat="43.90196" lon="6.22087">
        <ele>1093.16</ele>
        <time>2019-06-24T14:05:54Z</time>
      </trkpt>
      <trkpt lat="43.90193" lon="6.22091">
        <ele>1093.64</ele>
        <time>2019-06-24T14:05:55Z</time>
      </trkpt>
      <trkpt lat="43.9019" lon="6.22097">
        <ele>1093.64</ele>
        <time>2019-06-24T14:05:56Z</time>
      </trkpt>
      <trkpt lat="43.90187" lon="6.22103">
        <ele>1094.12</ele>
        <time>2019-06-24T14:05:57Z</time>
      </trkpt>
      <trkpt lat="43.90183" lon="6.22115">
        <ele>1094.6</ele>
        <time>2019-06-24T14:05:59Z</time>
      </trkpt>
      <trkpt lat="43.90183" lon="6.22121">
        <ele>1095.56</ele>
        <time>2019-06-24T14:06:00Z</time>
      </trkpt>
      <trkpt lat="43.90185" lon="6.22125">
        <ele>1096.04</ele>
        <time>2019-06-24T14:06:01Z</time>
      </trkpt>
      <trkpt lat="43.90189" lon="6.22129">
        <ele>1097</ele>
        <time>2019-06-24T14:06:02Z</time>
      </trkpt>
      <trkpt lat="43.90194" lon="6.22131">
        <ele>1097</ele>
        <time>2019-06-24T14:06:03Z</time>
      </trkpt>
      <trkpt lat="43.902" lon="6.22132">
        <ele>1097</ele>
        <time>2019-06-24T14:06:04Z</time>
      </trkpt>
      <trkpt lat="43.90206" lon="6.22133">
        <ele>1097.96</ele>
        <time>2019-06-24T14:06:05Z</time>
      </trkpt>
      <trkpt lat="43.90211" lon="6.22135">
        <ele>1098.44</ele>
        <time>2019-06-24T14:06:06Z</time>
      </trkpt>
      <trkpt lat="43.90217" lon="6.22138">
        <ele>1099.4</ele>
        <time>2019-06-24T14:06:07Z</time>
      </trkpt>
      <trkpt lat="43.90222" lon="6.22142">
        <ele>1099.89</ele>
        <time>2019-06-24T14:06:08Z</time>
      </trkpt>
      <trkpt lat="43.90228" lon="6.22146">
        <ele>1100.85</ele>
        <time>2019-06-24T14:06:09Z</time>
      </trkpt>
      <trkpt lat="43.90234" lon="6.22152">
        <ele>1101.33</ele>
        <time>2019-06-24T14:06:10Z</time>
      </trkpt>
      <trkpt lat="43.90262" lon="6.2218">
        <ele>1104.69</ele>
        <time>2019-06-24T14:06:14Z</time>
      </trkpt>
      <trkpt lat="43.90275" lon="6.22196">
        <ele>1106.13</ele>
        <time>2019-06-24T14:06:16Z</time>
      </trkpt>
      <trkpt lat="43.90298" lon="6.22225">
        <ele>1109.02</ele>
        <time>2019-06-24T14:06:20Z</time>
      </trkpt>
      <trkpt lat="43.90315" lon="6.22255">
        <ele>1112.38</ele>
        <time>2019-06-24T14:06:23Z</time>
      </trkpt>
      <trkpt lat="43.90336" lon="6.22298">
        <ele>1115.75</ele>
        <time>2019-06-24T14:06:27Z</time>
      </trkpt>
      <trkpt lat="43.9034" lon="6.2231">
        <ele>1117.19</ele>
        <time>2019-06-24T14:06:28Z</time>
      </trkpt>
      <trkpt lat="43.90342" lon="6.22317">
        <ele>1117.19</ele>
        <time>2019-06-24T14:06:29Z</time>
      </trkpt>
      <trkpt lat="43.90345" lon="6.22333">
        <ele>1118.63</ele>
        <time>2019-06-24T14:06:30Z</time>
      </trkpt>
      <trkpt lat="43.90346" lon="6.22346">
        <ele>1119.59</ele>
        <time>2019-06-24T14:06:31Z</time>
      </trkpt>
      <trkpt lat="43.90347" lon="6.22396">
        <ele>1123.92</ele>
        <time>2019-06-24T14:06:35Z</time>
      </trkpt>
      <trkpt lat="43.90345" lon="6.22421">
        <ele>1125.36</ele>
        <time>2019-06-24T14:06:37Z</time>
      </trkpt>
      <trkpt lat="43.90341" lon="6.22453">
        <ele>1127.28</ele>
        <time>2019-06-24T14:06:40Z</time>
      </trkpt>
      <trkpt lat="43.90343" lon="6.22462">
        <ele>1127.76</ele>
        <time>2019-06-24T14:06:41Z</time>
      </trkpt>
      <trkpt lat="43.90347" lon="6.2247">
        <ele>1128.73</ele>
        <time>2019-06-24T14:06:42Z</time>
      </trkpt>
      <trkpt lat="43.90353" lon="6.22477">
        <ele>1129.21</ele>
        <time>2019-06-24T14:06:43Z</time>
      </trkpt>
      <trkpt lat="43.90361" lon="6.22483">
        <ele>1130.65</ele>
        <time>2019-06-24T14:06:44Z</time>
      </trkpt>
      <trkpt lat="43.90395" lon="6.22512">
        <ele>1133.53</ele>
        <time>2019-06-24T14:06:48Z</time>
      </trkpt>
      <trkpt lat="43.90428" lon="6.22541">
        <ele>1136.9</ele>
        <time>2019-06-24T14:06:52Z</time>
      </trkpt>
      <trkpt lat="43.90459" lon="6.2257">
        <ele>1140.74</ele>
        <time>2019-06-24T14:06:56Z</time>
      </trkpt>
      <trkpt lat="43.90494" lon="6.22597">
        <ele>1143.63</ele>
        <time>2019-06-24T14:07:00Z</time>
      </trkpt>
      <trkpt lat="43.90504" lon="6.22601">
        <ele>1144.59</ele>
        <time>2019-06-24T14:07:01Z</time>
      </trkpt>
      <trkpt lat="43.90514" lon="6.22603">
        <ele>1145.55</ele>
        <time>2019-06-24T14:07:02Z</time>
      </trkpt>
      <trkpt lat="43.90573" lon="6.22615">
        <ele>1147.47</ele>
        <time>2019-06-24T14:07:08Z</time>
      </trkpt>
      <trkpt lat="43.90667" lon="6.22651">
        <ele>1148.91</ele>
        <time>2019-06-24T14:07:18Z</time>
      </trkpt>
      <trkpt lat="43.90684" lon="6.22655">
        <ele>1149.39</ele>
        <time>2019-06-24T14:07:20Z</time>
      </trkpt>
      <trkpt lat="43.90692" lon="6.22658">
        <ele>1149.39</ele>
        <time>2019-06-24T14:07:21Z</time>
      </trkpt>
      <trkpt lat="43.90785" lon="6.22729">
        <ele>1147.95</ele>
        <time>2019-06-24T14:07:31Z</time>
      </trkpt>
      <trkpt lat="43.90871" lon="6.22829">
        <ele>1149.87</ele>
        <time>2019-06-24T14:07:41Z</time>
      </trkpt>
      <trkpt lat="43.90887" lon="6.2285">
        <ele>1151.8</ele>
        <time>2019-06-24T14:07:43Z</time>
      </trkpt>
      <trkpt lat="43.90896" lon="6.2286">
        <ele>1152.76</ele>
        <time>2019-06-24T14:07:44Z</time>
      </trkpt>
      <trkpt lat="43.90935" lon="6.22894">
        <ele>1156.12</ele>
        <time>2019-06-24T14:07:48Z</time>
      </trkpt>
      <trkpt lat="43.90953" lon="6.22907">
        <ele>1157.56</ele>
        <time>2019-06-24T14:07:50Z</time>
      </trkpt>
      <trkpt lat="43.90963" lon="6.2291">
        <ele>1158.05</ele>
        <time>2019-06-24T14:07:51Z</time>
      </trkpt>
      <trkpt lat="43.90973" lon="6.22912">
        <ele>1159.01</ele>
        <time>2019-06-24T14:07:52Z</time>
      </trkpt>
      <trkpt lat="43.90998" lon="6.22918">
        <ele>1160.93</ele>
        <time>2019-06-24T14:07:55Z</time>
      </trkpt>
      <trkpt lat="43.91005" lon="6.22923">
        <ele>1160.93</ele>
        <time>2019-06-24T14:07:56Z</time>
      </trkpt>
      <trkpt lat="43.91011" lon="6.22931">
        <ele>1161.41</ele>
        <time>2019-06-24T14:07:57Z</time>
      </trkpt>
      <trkpt lat="43.91016" lon="6.2294">
        <ele>1162.37</ele>
        <time>2019-06-24T14:07:58Z</time>
      </trkpt>
      <trkpt lat="43.9102" lon="6.22951">
        <ele>1162.37</ele>
        <time>2019-06-24T14:07:59Z</time>
      </trkpt>
      <trkpt lat="43.91023" lon="6.22961">
        <ele>1163.33</ele>
        <time>2019-06-24T14:08:00Z</time>
      </trkpt>
      <trkpt lat="43.91027" lon="6.22969">
        <ele>1163.33</ele>
        <time>2019-06-24T14:08:01Z</time>
      </trkpt>
      <trkpt lat="43.91032" lon="6.22975">
        <ele>1163.81</ele>
        <time>2019-06-24T14:08:02Z</time>
      </trkpt>
      <trkpt lat="43.91039" lon="6.22978">
        <ele>1163.81</ele>
        <time>2019-06-24T14:08:03Z</time>
      </trkpt>
      <trkpt lat="43.91046" lon="6.22978">
        <ele>1163.81</ele>
        <time>2019-06-24T14:08:04Z</time>
      </trkpt>
      <trkpt lat="43.91053" lon="6.22974">
        <ele>1164.29</ele>
        <time>2019-06-24T14:08:05Z</time>
      </trkpt>
      <trkpt lat="43.91059" lon="6.22968">
        <ele>1164.77</ele>
        <time>2019-06-24T14:08:06Z</time>
      </trkpt>
      <trkpt lat="43.91064" lon="6.22959">
        <ele>1164.77</ele>
        <time>2019-06-24T14:08:07Z</time>
      </trkpt>
      <trkpt lat="43.91069" lon="6.22949">
        <ele>1166.7</ele>
        <time>2019-06-24T14:08:08Z</time>
      </trkpt>
      <trkpt lat="43.91074" lon="6.22939">
        <ele>1166.7</ele>
        <time>2019-06-24T14:08:09Z</time>
      </trkpt>
      <trkpt lat="43.9108" lon="6.22931">
        <ele>1167.18</ele>
        <time>2019-06-24T14:08:10Z</time>
      </trkpt>
      <trkpt lat="43.91085" lon="6.22925">
        <ele>1167.66</ele>
        <time>2019-06-24T14:08:11Z</time>
      </trkpt>
      <trkpt lat="43.91091" lon="6.22919">
        <ele>1168.62</ele>
        <time>2019-06-24T14:08:12Z</time>
      </trkpt>
      <trkpt lat="43.91097" lon="6.22914">
        <ele>1169.1</ele>
        <time>2019-06-24T14:08:13Z</time>
      </trkpt>
      <trkpt lat="43.91104" lon="6.22911">
        <ele>1169.1</ele>
        <time>2019-06-24T14:08:14Z</time>
      </trkpt>
      <trkpt lat="43.91111" lon="6.22911">
        <ele>1170.06</ele>
        <time>2019-06-24T14:08:15Z</time>
      </trkpt>
      <trkpt lat="43.91118" lon="6.22911">
        <ele>1171.02</ele>
        <time>2019-06-24T14:08:16Z</time>
      </trkpt>
      <trkpt lat="43.91126" lon="6.22912">
        <ele>1172.47</ele>
        <time>2019-06-24T14:08:17Z</time>
      </trkpt>
      <trkpt lat="43.91157" lon="6.22915">
        <ele>1175.83</ele>
        <time>2019-06-24T14:08:21Z</time>
      </trkpt>
      <trkpt lat="43.91163" lon="6.22912">
        <ele>1176.31</ele>
        <time>2019-06-24T14:08:22Z</time>
      </trkpt>
      <trkpt lat="43.91168" lon="6.22906">
        <ele>1176.79</ele>
        <time>2019-06-24T14:08:23Z</time>
      </trkpt>
      <trkpt lat="43.91172" lon="6.22898">
        <ele>1177.27</ele>
        <time>2019-06-24T14:08:24Z</time>
      </trkpt>
      <trkpt lat="43.91176" lon="6.22887">
        <ele>1178.23</ele>
        <time>2019-06-24T14:08:25Z</time>
      </trkpt>
      <trkpt lat="43.91179" lon="6.22875">
        <ele>1179.19</ele>
        <time>2019-06-24T14:08:26Z</time>
      </trkpt>
      <trkpt lat="43.91192" lon="6.22834">
        <ele>1181.12</ele>
        <time>2019-06-24T14:08:30Z</time>
      </trkpt>
      <trkpt lat="43.91197" lon="6.22826">
        <ele>1182.08</ele>
        <time>2019-06-24T14:08:31Z</time>
      </trkpt>
      <trkpt lat="43.91203" lon="6.2282">
        <ele>1182.56</ele>
        <time>2019-06-24T14:08:32Z</time>
      </trkpt>
      <trkpt lat="43.91211" lon="6.22814">
        <ele>1183.04</ele>
        <time>2019-06-24T14:08:33Z</time>
      </trkpt>
      <trkpt lat="43.91219" lon="6.2281">
        <ele>1184</ele>
        <time>2019-06-24T14:08:34Z</time>
      </trkpt>
      <trkpt lat="43.91227" lon="6.22806">
        <ele>1184.48</ele>
        <time>2019-06-24T14:08:35Z</time>
      </trkpt>
      <trkpt lat="43.91236" lon="6.22803">
        <ele>1185.44</ele>
        <time>2019-06-24T14:08:36Z</time>
      </trkpt>
      <trkpt lat="43.91245" lon="6.22801">
        <ele>1185.92</ele>
        <time>2019-06-24T14:08:37Z</time>
      </trkpt>
      <trkpt lat="43.91255" lon="6.228">
        <ele>1187.37</ele>
        <time>2019-06-24T14:08:38Z</time>
      </trkpt>
      <trkpt lat="43.91266" lon="6.22799">
        <ele>1188.33</ele>
        <time>2019-06-24T14:08:39Z</time>
      </trkpt>
      <trkpt lat="43.91298" lon="6.22798">
        <ele>1191.69</ele>
        <time>2019-06-24T14:08:42Z</time>
      </trkpt>
      <trkpt lat="43.91332" lon="6.228">
        <ele>1194.58</ele>
        <time>2019-06-24T14:08:45Z</time>
      </trkpt>
      <trkpt lat="43.91353" lon="6.22797">
        <ele>1196.02</ele>
        <time>2019-06-24T14:08:47Z</time>
      </trkpt>
      <trkpt lat="43.91362" lon="6.22793">
        <ele>1197.46</ele>
        <time>2019-06-24T14:08:48Z</time>
      </trkpt>
      <trkpt lat="43.9137" lon="6.22786">
        <ele>1198.42</ele>
        <time>2019-06-24T14:08:49Z</time>
      </trkpt>
      <trkpt lat="43.91377" lon="6.22778">
        <ele>1198.42</ele>
        <time>2019-06-24T14:08:50Z</time>
      </trkpt>
      <trkpt lat="43.91388" lon="6.22767">
        <ele>1199.38</ele>
        <time>2019-06-24T14:08:52Z</time>
      </trkpt>
      <trkpt lat="43.91393" lon="6.22764">
        <ele>1199.38</ele>
        <time>2019-06-24T14:08:53Z</time>
      </trkpt>
      <trkpt lat="43.91399" lon="6.22763">
        <ele>1200.34</ele>
        <time>2019-06-24T14:08:54Z</time>
      </trkpt>
      <trkpt lat="43.91404" lon="6.22766">
        <ele>1200.82</ele>
        <time>2019-06-24T14:08:55Z</time>
      </trkpt>
      <trkpt lat="43.91409" lon="6.22771">
        <ele>1200.82</ele>
        <time>2019-06-24T14:08:56Z</time>
      </trkpt>
      <trkpt lat="43.91412" lon="6.22778">
        <ele>1200.82</ele>
        <time>2019-06-24T14:08:57Z</time>
      </trkpt>
      <trkpt lat="43.91414" lon="6.22787">
        <ele>1200.82</ele>
        <time>2019-06-24T14:08:58Z</time>
      </trkpt>
      <trkpt lat="43.91414" lon="6.22797">
        <ele>1201.79</ele>
        <time>2019-06-24T14:08:59Z</time>
      </trkpt>
      <trkpt lat="43.91413" lon="6.22808">
        <ele>1202.27</ele>
        <time>2019-06-24T14:09:00Z</time>
      </trkpt>
      <trkpt lat="43.91411" lon="6.22819">
        <ele>1203.23</ele>
        <time>2019-06-24T14:09:01Z</time>
      </trkpt>
      <trkpt lat="43.91409" lon="6.2283">
        <ele>1203.71</ele>
        <time>2019-06-24T14:09:02Z</time>
      </trkpt>
      <trkpt lat="43.91408" lon="6.22841">
        <ele>1204.67</ele>
        <time>2019-06-24T14:09:03Z</time>
      </trkpt>
      <trkpt lat="43.91408" lon="6.22853">
        <ele>1206.11</ele>
        <time>2019-06-24T14:09:04Z</time>
      </trkpt>
      <trkpt lat="43.91412" lon="6.22893">
        <ele>1209.48</ele>
        <time>2019-06-24T14:09:07Z</time>
      </trkpt>
      <trkpt lat="43.91419" lon="6.22931">
        <ele>1211.4</ele>
        <time>2019-06-24T14:09:10Z</time>
      </trkpt>
      <trkpt lat="43.91432" lon="6.22969">
        <ele>1212.36</ele>
        <time>2019-06-24T14:09:13Z</time>
      </trkpt>
      <trkpt lat="43.91437" lon="6.22977">
        <ele>1211.88</ele>
        <time>2019-06-24T14:09:14Z</time>
      </trkpt>
      <trkpt lat="43.91443" lon="6.22984">
        <ele>1211.88</ele>
        <time>2019-06-24T14:09:15Z</time>
      </trkpt>
      <trkpt lat="43.91452" lon="6.2299">
        <ele>1212.36</ele>
        <time>2019-06-24T14:09:16Z</time>
      </trkpt>
      <trkpt lat="43.91462" lon="6.22994">
        <ele>1212.84</ele>
        <time>2019-06-24T14:09:17Z</time>
      </trkpt>
      <trkpt lat="43.91472" lon="6.22997">
        <ele>1214.28</ele>
        <time>2019-06-24T14:09:18Z</time>
      </trkpt>
      <trkpt lat="43.91494" lon="6.23003">
        <ele>1214.76</ele>
        <time>2019-06-24T14:09:20Z</time>
      </trkpt>
      <trkpt lat="43.91528" lon="6.2301">
        <ele>1217.17</ele>
        <time>2019-06-24T14:09:23Z</time>
      </trkpt>
      <trkpt lat="43.91539" lon="6.2301">
        <ele>1218.13</ele>
        <time>2019-06-24T14:09:24Z</time>
      </trkpt>
      <trkpt lat="43.91572" lon="6.23009">
        <ele>1219.57</ele>
        <time>2019-06-24T14:09:27Z</time>
      </trkpt>
      <trkpt lat="43.91605" lon="6.23014">
        <ele>1222.93</ele>
        <time>2019-06-24T14:09:30Z</time>
      </trkpt>
      <trkpt lat="43.91627" lon="6.23018">
        <ele>1224.38</ele>
        <time>2019-06-24T14:09:32Z</time>
      </trkpt>
      <trkpt lat="43.91671" lon="6.23029">
        <ele>1228.7</ele>
        <time>2019-06-24T14:09:36Z</time>
      </trkpt>
      <trkpt lat="43.91702" lon="6.23031">
        <ele>1231.59</ele>
        <time>2019-06-24T14:09:39Z</time>
      </trkpt>
      <trkpt lat="43.91713" lon="6.23029">
        <ele>1231.59</ele>
        <time>2019-06-24T14:09:40Z</time>
      </trkpt>
      <trkpt lat="43.91724" lon="6.23026">
        <ele>1232.55</ele>
        <time>2019-06-24T14:09:41Z</time>
      </trkpt>
      <trkpt lat="43.91766" lon="6.23012">
        <ele>1235.91</ele>
        <time>2019-06-24T14:09:45Z</time>
      </trkpt>
      <trkpt lat="43.91817" lon="6.22995">
        <ele>1239.76</ele>
        <time>2019-06-24T14:09:50Z</time>
      </trkpt>
      <trkpt lat="43.91826" lon="6.22989">
        <ele>1240.72</ele>
        <time>2019-06-24T14:09:51Z</time>
      </trkpt>
      <trkpt lat="43.9186" lon="6.22961">
        <ele>1243.12</ele>
        <time>2019-06-24T14:09:55Z</time>
      </trkpt>
      <trkpt lat="43.91874" lon="6.22952">
        <ele>1244.08</ele>
        <time>2019-06-24T14:09:57Z</time>
      </trkpt>
      <trkpt lat="43.91879" lon="6.2295">
        <ele>1244.56</ele>
        <time>2019-06-24T14:09:58Z</time>
      </trkpt>
      <trkpt lat="43.91885" lon="6.22949">
        <ele>1245.53</ele>
        <time>2019-06-24T14:09:59Z</time>
      </trkpt>
      <trkpt lat="43.9189" lon="6.22949">
        <ele>1245.53</ele>
        <time>2019-06-24T14:10:00Z</time>
      </trkpt>
      <trkpt lat="43.91894" lon="6.22951">
        <ele>1245.53</ele>
        <time>2019-06-24T14:10:01Z</time>
      </trkpt>
      <trkpt lat="43.91897" lon="6.22953">
        <ele>1246.01</ele>
        <time>2019-06-24T14:10:02Z</time>
      </trkpt>
      <trkpt lat="43.91899" lon="6.22958">
        <ele>1245.04</ele>
        <time>2019-06-24T14:10:03Z</time>
      </trkpt>
      <trkpt lat="43.919" lon="6.22964">
        <ele>1245.53</ele>
        <time>2019-06-24T14:10:04Z</time>
      </trkpt>
      <trkpt lat="43.919" lon="6.2297">
        <ele>1245.53</ele>
        <time>2019-06-24T14:10:05Z</time>
      </trkpt>
      <trkpt lat="43.91898" lon="6.22976">
        <ele>1245.53</ele>
        <time>2019-06-24T14:10:06Z</time>
      </trkpt>
      <trkpt lat="43.91894" lon="6.22982">
        <ele>1246.01</ele>
        <time>2019-06-24T14:10:07Z</time>
      </trkpt>
      <trkpt lat="43.91888" lon="6.22986">
        <ele>1246.49</ele>
        <time>2019-06-24T14:10:08Z</time>
      </trkpt>
      <trkpt lat="43.91881" lon="6.22989">
        <ele>1246.97</ele>
        <time>2019-06-24T14:10:09Z</time>
      </trkpt>
      <trkpt lat="43.91873" lon="6.22993">
        <ele>1247.45</ele>
        <time>2019-06-24T14:10:10Z</time>
      </trkpt>
      <trkpt lat="43.91865" lon="6.23">
        <ele>1247.93</ele>
        <time>2019-06-24T14:10:11Z</time>
      </trkpt>
      <trkpt lat="43.91857" lon="6.23008">
        <ele>1248.41</ele>
        <time>2019-06-24T14:10:12Z</time>
      </trkpt>
      <trkpt lat="43.91848" lon="6.23018">
        <ele>1248.89</ele>
        <time>2019-06-24T14:10:13Z</time>
      </trkpt>
      <trkpt lat="43.91829" lon="6.23039">
        <ele>1249.85</ele>
        <time>2019-06-24T14:10:15Z</time>
      </trkpt>
      <trkpt lat="43.91818" lon="6.23048">
        <ele>1251.29</ele>
        <time>2019-06-24T14:10:16Z</time>
      </trkpt>
      <trkpt lat="43.91807" lon="6.23054">
        <ele>1251.29</ele>
        <time>2019-06-24T14:10:17Z</time>
      </trkpt>
      <trkpt lat="43.91797" lon="6.23058">
        <ele>1251.77</ele>
        <time>2019-06-24T14:10:18Z</time>
      </trkpt>
      <trkpt lat="43.91787" lon="6.23061">
        <ele>1252.25</ele>
        <time>2019-06-24T14:10:19Z</time>
      </trkpt>
      <trkpt lat="43.91777" lon="6.23065">
        <ele>1252.25</ele>
        <time>2019-06-24T14:10:20Z</time>
      </trkpt>
      <trkpt lat="43.91767" lon="6.23071">
        <ele>1253.22</ele>
        <time>2019-06-24T14:10:21Z</time>
      </trkpt>
      <trkpt lat="43.91724" lon="6.23102">
        <ele>1256.58</ele>
        <time>2019-06-24T14:10:25Z</time>
      </trkpt>
      <trkpt lat="43.91703" lon="6.23114">
        <ele>1257.54</ele>
        <time>2019-06-24T14:10:27Z</time>
      </trkpt>
      <trkpt lat="43.91694" lon="6.23119">
        <ele>1258.5</ele>
        <time>2019-06-24T14:10:28Z</time>
      </trkpt>
      <trkpt lat="43.91683" lon="6.23122">
        <ele>1259.46</ele>
        <time>2019-06-24T14:10:29Z</time>
      </trkpt>
      <trkpt lat="43.91661" lon="6.23126">
        <ele>1260.43</ele>
        <time>2019-06-24T14:10:31Z</time>
      </trkpt>
      <trkpt lat="43.91638" lon="6.23133">
        <ele>1262.83</ele>
        <time>2019-06-24T14:10:33Z</time>
      </trkpt>
      <trkpt lat="43.91627" lon="6.23138">
        <ele>1262.83</ele>
        <time>2019-06-24T14:10:34Z</time>
      </trkpt>
      <trkpt lat="43.91616" lon="6.23143">
        <ele>1263.31</ele>
        <time>2019-06-24T14:10:35Z</time>
      </trkpt>
      <trkpt lat="43.91606" lon="6.23147">
        <ele>1263.79</ele>
        <time>2019-06-24T14:10:36Z</time>
      </trkpt>
      <trkpt lat="43.91595" lon="6.23149">
        <ele>1265.23</ele>
        <time>2019-06-24T14:10:37Z</time>
      </trkpt>
      <trkpt lat="43.91583" lon="6.23151">
        <ele>1265.71</ele>
        <time>2019-06-24T14:10:38Z</time>
      </trkpt>
      <trkpt lat="43.91546" lon="6.23159">
        <ele>1267.64</ele>
        <time>2019-06-24T14:10:41Z</time>
      </trkpt>
      <trkpt lat="43.91486" lon="6.2317">
        <ele>1270.52</ele>
        <time>2019-06-24T14:10:46Z</time>
      </trkpt>
      <trkpt lat="43.91452" lon="6.23173">
        <ele>1272.44</ele>
        <time>2019-06-24T14:10:49Z</time>
      </trkpt>
      <trkpt lat="43.91396" lon="6.23169">
        <ele>1275.81</ele>
        <time>2019-06-24T14:10:54Z</time>
      </trkpt>
      <trkpt lat="43.91385" lon="6.23168">
        <ele>1275.81</ele>
        <time>2019-06-24T14:10:55Z</time>
      </trkpt>
      <trkpt lat="43.91312" lon="6.23177">
        <ele>1279.17</ele>
        <time>2019-06-24T14:11:02Z</time>
      </trkpt>
      <trkpt lat="43.91291" lon="6.23186">
        <ele>1280.13</ele>
        <time>2019-06-24T14:11:04Z</time>
      </trkpt>
      <trkpt lat="43.91259" lon="6.23201">
        <ele>1281.57</ele>
        <time>2019-06-24T14:11:07Z</time>
      </trkpt>
      <trkpt lat="43.91249" lon="6.23208">
        <ele>1282.06</ele>
        <time>2019-06-24T14:11:08Z</time>
      </trkpt>
      <trkpt lat="43.9124" lon="6.23216">
        <ele>1283.5</ele>
        <time>2019-06-24T14:11:09Z</time>
      </trkpt>
      <trkpt lat="43.91232" lon="6.23225">
        <ele>1283.02</ele>
        <time>2019-06-24T14:11:10Z</time>
      </trkpt>
      <trkpt lat="43.91224" lon="6.23234">
        <ele>1283.5</ele>
        <time>2019-06-24T14:11:11Z</time>
      </trkpt>
      <trkpt lat="43.91217" lon="6.23245">
        <ele>1284.46</ele>
        <time>2019-06-24T14:11:12Z</time>
      </trkpt>
      <trkpt lat="43.91211" lon="6.23256">
        <ele>1284.46</ele>
        <time>2019-06-24T14:11:13Z</time>
      </trkpt>
      <trkpt lat="43.91204" lon="6.23269">
        <ele>1284.94</ele>
        <time>2019-06-24T14:11:14Z</time>
      </trkpt>
      <trkpt lat="43.91183" lon="6.23309">
        <ele>1287.82</ele>
        <time>2019-06-24T14:11:17Z</time>
      </trkpt>
      <trkpt lat="43.91175" lon="6.23321">
        <ele>1288.3</ele>
        <time>2019-06-24T14:11:18Z</time>
      </trkpt>
      <trkpt lat="43.91167" lon="6.23331">
        <ele>1289.27</ele>
        <time>2019-06-24T14:11:19Z</time>
      </trkpt>
      <trkpt lat="43.91158" lon="6.23338">
        <ele>1290.23</ele>
        <time>2019-06-24T14:11:20Z</time>
      </trkpt>
      <trkpt lat="43.91148" lon="6.23344">
        <ele>1291.19</ele>
        <time>2019-06-24T14:11:21Z</time>
      </trkpt>
      <trkpt lat="43.91138" lon="6.23349">
        <ele>1292.15</ele>
        <time>2019-06-24T14:11:22Z</time>
      </trkpt>
      <trkpt lat="43.91106" lon="6.23362">
        <ele>1295.03</ele>
        <time>2019-06-24T14:11:25Z</time>
      </trkpt>
      <trkpt lat="43.91088" lon="6.23369">
        <ele>1295.99</ele>
        <time>2019-06-24T14:11:27Z</time>
      </trkpt>
      <trkpt lat="43.9108" lon="6.23374">
        <ele>1296.48</ele>
        <time>2019-06-24T14:11:28Z</time>
      </trkpt>
      <trkpt lat="43.91048" lon="6.23393">
        <ele>1300.32</ele>
        <time>2019-06-24T14:11:32Z</time>
      </trkpt>
      <trkpt lat="43.91032" lon="6.23401">
        <ele>1300.8</ele>
        <time>2019-06-24T14:11:34Z</time>
      </trkpt>
      <trkpt lat="43.91025" lon="6.23403">
        <ele>1300.8</ele>
        <time>2019-06-24T14:11:35Z</time>
      </trkpt>
      <trkpt lat="43.91016" lon="6.23404">
        <ele>1301.28</ele>
        <time>2019-06-24T14:11:36Z</time>
      </trkpt>
      <trkpt lat="43.91007" lon="6.23404">
        <ele>1301.28</ele>
        <time>2019-06-24T14:11:37Z</time>
      </trkpt>
      <trkpt lat="43.90998" lon="6.23404">
        <ele>1300.8</ele>
        <time>2019-06-24T14:11:38Z</time>
      </trkpt>
      <trkpt lat="43.90981" lon="6.23404">
        <ele>1300.8</ele>
        <time>2019-06-24T14:11:40Z</time>
      </trkpt>
      <trkpt lat="43.90974" lon="6.23406">
        <ele>1300.8</ele>
        <time>2019-06-24T14:11:41Z</time>
      </trkpt>
      <trkpt lat="43.90968" lon="6.23409">
        <ele>1300.8</ele>
        <time>2019-06-24T14:11:42Z</time>
      </trkpt>
      <trkpt lat="43.90963" lon="6.23413">
        <ele>1300.8</ele>
        <time>2019-06-24T14:11:43Z</time>
      </trkpt>
      <trkpt lat="43.90961" lon="6.23417">
        <ele>1300.8</ele>
        <time>2019-06-24T14:11:44Z</time>
      </trkpt>
      <trkpt lat="43.90959" lon="6.23421">
        <ele>1301.28</ele>
        <time>2019-06-24T14:11:45Z</time>
      </trkpt>
      <trkpt lat="43.90957" lon="6.23426">
        <ele>1300.8</ele>
        <time>2019-06-24T14:11:46Z</time>
      </trkpt>
      <trkpt lat="43.90954" lon="6.23431">
        <ele>1301.76</ele>
        <time>2019-06-24T14:11:47Z</time>
      </trkpt>
      <trkpt lat="43.90952" lon="6.23438">
        <ele>1301.28</ele>
        <time>2019-06-24T14:11:48Z</time>
      </trkpt>
      <trkpt lat="43.90951" lon="6.23444">
        <ele>1301.76</ele>
        <time>2019-06-24T14:11:49Z</time>
      </trkpt>
      <trkpt lat="43.90949" lon="6.23457">
        <ele>1301.28</ele>
        <time>2019-06-24T14:11:51Z</time>
      </trkpt>
      <trkpt lat="43.90949" lon="6.23464">
        <ele>1301.28</ele>
        <time>2019-06-24T14:11:52Z</time>
      </trkpt>
      <trkpt lat="43.90956" lon="6.23527">
        <ele>1301.28</ele>
        <time>2019-06-24T14:11:58Z</time>
      </trkpt>
      <trkpt lat="43.90956" lon="6.23539">
        <ele>1301.28</ele>
        <time>2019-06-24T14:11:59Z</time>
      </trkpt>
      <trkpt lat="43.90956" lon="6.23551">
        <ele>1300.8</ele>
        <time>2019-06-24T14:12:00Z</time>
      </trkpt>
      <trkpt lat="43.90955" lon="6.23585">
        <ele>1300.32</ele>
        <time>2019-06-24T14:12:03Z</time>
      </trkpt>
      <trkpt lat="43.90956" lon="6.23594">
        <ele>1299.84</ele>
        <time>2019-06-24T14:12:04Z</time>
      </trkpt>
      <trkpt lat="43.90959" lon="6.23602">
        <ele>1298.88</ele>
        <time>2019-06-24T14:12:05Z</time>
      </trkpt>
      <trkpt lat="43.90964" lon="6.23609">
        <ele>1298.4</ele>
        <time>2019-06-24T14:12:06Z</time>
      </trkpt>
      <trkpt lat="43.9097" lon="6.23615">
        <ele>1298.88</ele>
        <time>2019-06-24T14:12:07Z</time>
      </trkpt>
      <trkpt lat="43.90976" lon="6.23623">
        <ele>1298.88</ele>
        <time>2019-06-24T14:12:08Z</time>
      </trkpt>
      <trkpt lat="43.90983" lon="6.23632">
        <ele>1298.88</ele>
        <time>2019-06-24T14:12:09Z</time>
      </trkpt>
      <trkpt lat="43.90988" lon="6.23643">
        <ele>1299.36</ele>
        <time>2019-06-24T14:12:10Z</time>
      </trkpt>
      <trkpt lat="43.90994" lon="6.23655">
        <ele>1298.88</ele>
        <time>2019-06-24T14:12:11Z</time>
      </trkpt>
      <trkpt lat="43.91002" lon="6.23676">
        <ele>1297.44</ele>
        <time>2019-06-24T14:12:13Z</time>
      </trkpt>
      <trkpt lat="43.91004" lon="6.23687">
        <ele>1297.92</ele>
        <time>2019-06-24T14:12:14Z</time>
      </trkpt>
      <trkpt lat="43.91006" lon="6.23699">
        <ele>1298.4</ele>
        <time>2019-06-24T14:12:15Z</time>
      </trkpt>
      <trkpt lat="43.91006" lon="6.23711">
        <ele>1297.92</ele>
        <time>2019-06-24T14:12:16Z</time>
      </trkpt>
      <trkpt lat="43.91005" lon="6.23724">
        <ele>1297.44</ele>
        <time>2019-06-24T14:12:17Z</time>
      </trkpt>
      <trkpt lat="43.91004" lon="6.23736">
        <ele>1297.44</ele>
        <time>2019-06-24T14:12:18Z</time>
      </trkpt>
      <trkpt lat="43.91004" lon="6.23749">
        <ele>1296.96</ele>
        <time>2019-06-24T14:12:19Z</time>
      </trkpt>
      <trkpt lat="43.91005" lon="6.23763">
        <ele>1296.48</ele>
        <time>2019-06-24T14:12:20Z</time>
      </trkpt>
      <trkpt lat="43.91007" lon="6.23776">
        <ele>1296.48</ele>
        <time>2019-06-24T14:12:21Z</time>
      </trkpt>
      <trkpt lat="43.9101" lon="6.2379">
        <ele>1295.99</ele>
        <time>2019-06-24T14:12:22Z</time>
      </trkpt>
      <trkpt lat="43.91014" lon="6.23805">
        <ele>1295.99</ele>
        <time>2019-06-24T14:12:23Z</time>
      </trkpt>
      <trkpt lat="43.91019" lon="6.23819">
        <ele>1295.99</ele>
        <time>2019-06-24T14:12:24Z</time>
      </trkpt>
      <trkpt lat="43.91023" lon="6.23833">
        <ele>1295.51</ele>
        <time>2019-06-24T14:12:25Z</time>
      </trkpt>
      <trkpt lat="43.91027" lon="6.23847">
        <ele>1295.51</ele>
        <time>2019-06-24T14:12:26Z</time>
      </trkpt>
      <trkpt lat="43.91029" lon="6.23861">
        <ele>1295.03</ele>
        <time>2019-06-24T14:12:27Z</time>
      </trkpt>
      <trkpt lat="43.91031" lon="6.23874">
        <ele>1294.55</ele>
        <time>2019-06-24T14:12:28Z</time>
      </trkpt>
      <trkpt lat="43.91029" lon="6.23996">
        <ele>1294.07</ele>
        <time>2019-06-24T14:12:36Z</time>
      </trkpt>
      <trkpt lat="43.91025" lon="6.24153">
        <ele>1291.67</ele>
        <time>2019-06-24T14:12:46Z</time>
      </trkpt>
      <trkpt lat="43.91022" lon="6.24166">
        <ele>1291.19</ele>
        <time>2019-06-24T14:12:47Z</time>
      </trkpt>
      <trkpt lat="43.91018" lon="6.24176">
        <ele>1290.71</ele>
        <time>2019-06-24T14:12:48Z</time>
      </trkpt>
      <trkpt lat="43.91012" lon="6.24192">
        <ele>1290.23</ele>
        <time>2019-06-24T14:12:50Z</time>
      </trkpt>
      <trkpt lat="43.91011" lon="6.24199">
        <ele>1289.75</ele>
        <time>2019-06-24T14:12:51Z</time>
      </trkpt>
      <trkpt lat="43.91013" lon="6.24206">
        <ele>1289.27</ele>
        <time>2019-06-24T14:12:52Z</time>
      </trkpt>
      <trkpt lat="43.91017" lon="6.24214">
        <ele>1289.75</ele>
        <time>2019-06-24T14:12:53Z</time>
      </trkpt>
      <trkpt lat="43.91021" lon="6.24222">
        <ele>1290.23</ele>
        <time>2019-06-24T14:12:54Z</time>
      </trkpt>
      <trkpt lat="43.91031" lon="6.24243">
        <ele>1290.71</ele>
        <time>2019-06-24T14:12:56Z</time>
      </trkpt>
      <trkpt lat="43.91034" lon="6.24256">
        <ele>1290.23</ele>
        <time>2019-06-24T14:12:57Z</time>
      </trkpt>
      <trkpt lat="43.91038" lon="6.2427">
        <ele>1290.71</ele>
        <time>2019-06-24T14:12:58Z</time>
      </trkpt>
      <trkpt lat="43.9104" lon="6.24285">
        <ele>1290.71</ele>
        <time>2019-06-24T14:12:59Z</time>
      </trkpt>
      <trkpt lat="43.91042" lon="6.24299">
        <ele>1290.23</ele>
        <time>2019-06-24T14:13:00Z</time>
      </trkpt>
      <trkpt lat="43.91043" lon="6.24312">
        <ele>1289.75</ele>
        <time>2019-06-24T14:13:01Z</time>
      </trkpt>
      <trkpt lat="43.91043" lon="6.24327">
        <ele>1289.27</ele>
        <time>2019-06-24T14:13:02Z</time>
      </trkpt>
      <trkpt lat="43.91042" lon="6.24341">
        <ele>1288.78</ele>
        <time>2019-06-24T14:13:03Z</time>
      </trkpt>
      <trkpt lat="43.91041" lon="6.24355">
        <ele>1289.27</ele>
        <time>2019-06-24T14:13:04Z</time>
      </trkpt>
      <trkpt lat="43.91038" lon="6.24367">
        <ele>1288.78</ele>
        <time>2019-06-24T14:13:05Z</time>
      </trkpt>
      <trkpt lat="43.91035" lon="6.24379">
        <ele>1288.78</ele>
        <time>2019-06-24T14:13:06Z</time>
      </trkpt>
      <trkpt lat="43.90991" lon="6.2448">
        <ele>1287.82</ele>
        <time>2019-06-24T14:13:15Z</time>
      </trkpt>
      <trkpt lat="43.90978" lon="6.24496">
        <ele>1286.86</ele>
        <time>2019-06-24T14:13:17Z</time>
      </trkpt>
      <trkpt lat="43.90972" lon="6.24502">
        <ele>1286.86</ele>
        <time>2019-06-24T14:13:18Z</time>
      </trkpt>
      <trkpt lat="43.90966" lon="6.24506">
        <ele>1286.38</ele>
        <time>2019-06-24T14:13:19Z</time>
      </trkpt>
      <trkpt lat="43.90958" lon="6.2451">
        <ele>1286.86</ele>
        <time>2019-06-24T14:13:20Z</time>
      </trkpt>
      <trkpt lat="43.90951" lon="6.24513">
        <ele>1287.34</ele>
        <time>2019-06-24T14:13:21Z</time>
      </trkpt>
      <trkpt lat="43.9094" lon="6.2452">
        <ele>1285.9</ele>
        <time>2019-06-24T14:13:23Z</time>
      </trkpt>
      <trkpt lat="43.90936" lon="6.24524">
        <ele>1284.94</ele>
        <time>2019-06-24T14:13:24Z</time>
      </trkpt>
      <trkpt lat="43.90934" lon="6.2453">
        <ele>1284.46</ele>
        <time>2019-06-24T14:13:25Z</time>
      </trkpt>
      <trkpt lat="43.90934" lon="6.24539">
        <ele>1284.46</ele>
        <time>2019-06-24T14:13:26Z</time>
      </trkpt>
      <trkpt lat="43.90936" lon="6.24548">
        <ele>1284.46</ele>
        <time>2019-06-24T14:13:27Z</time>
      </trkpt>
      <trkpt lat="43.90939" lon="6.24558">
        <ele>1284.94</ele>
        <time>2019-06-24T14:13:28Z</time>
      </trkpt>
      <trkpt lat="43.90943" lon="6.24569">
        <ele>1285.42</ele>
        <time>2019-06-24T14:13:29Z</time>
      </trkpt>
      <trkpt lat="43.90949" lon="6.2458">
        <ele>1285.42</ele>
        <time>2019-06-24T14:13:30Z</time>
      </trkpt>
      <trkpt lat="43.90964" lon="6.24611">
        <ele>1284.46</ele>
        <time>2019-06-24T14:13:33Z</time>
      </trkpt>
      <trkpt lat="43.90966" lon="6.2462">
        <ele>1284.46</ele>
        <time>2019-06-24T14:13:34Z</time>
      </trkpt>
      <trkpt lat="43.90968" lon="6.24629">
        <ele>1283.5</ele>
        <time>2019-06-24T14:13:35Z</time>
      </trkpt>
      <trkpt lat="43.9097" lon="6.2464">
        <ele>1283.98</ele>
        <time>2019-06-24T14:13:36Z</time>
      </trkpt>
      <trkpt lat="43.90971" lon="6.24652">
        <ele>1283.5</ele>
        <time>2019-06-24T14:13:37Z</time>
      </trkpt>
      <trkpt lat="43.90972" lon="6.24666">
        <ele>1283.98</ele>
        <time>2019-06-24T14:13:38Z</time>
      </trkpt>
      <trkpt lat="43.9096" lon="6.24803">
        <ele>1281.57</ele>
        <time>2019-06-24T14:13:48Z</time>
      </trkpt>
      <trkpt lat="43.90913" lon="6.24928">
        <ele>1281.57</ele>
        <time>2019-06-24T14:13:59Z</time>
      </trkpt>
      <trkpt lat="43.90871" lon="6.24992">
        <ele>1282.06</ele>
        <time>2019-06-24T14:14:06Z</time>
      </trkpt>
      <trkpt lat="43.90865" lon="6.24999">
        <ele>1282.06</ele>
        <time>2019-06-24T14:14:07Z</time>
      </trkpt>
      <trkpt lat="43.90858" lon="6.25005">
        <ele>1282.06</ele>
        <time>2019-06-24T14:14:08Z</time>
      </trkpt>
      <trkpt lat="43.90772" lon="6.25063">
        <ele>1283.98</ele>
        <time>2019-06-24T14:14:18Z</time>
      </trkpt>
      <trkpt lat="43.90754" lon="6.25071">
        <ele>1284.94</ele>
        <time>2019-06-24T14:14:20Z</time>
      </trkpt>
      <trkpt lat="43.90747" lon="6.25077">
        <ele>1284.46</ele>
        <time>2019-06-24T14:14:21Z</time>
      </trkpt>
      <trkpt lat="43.90742" lon="6.25084">
        <ele>1283.5</ele>
        <time>2019-06-24T14:14:22Z</time>
      </trkpt>
      <trkpt lat="43.9074" lon="6.25093">
        <ele>1284.46</ele>
        <time>2019-06-24T14:14:23Z</time>
      </trkpt>
      <trkpt lat="43.90739" lon="6.25103">
        <ele>1284.94</ele>
        <time>2019-06-24T14:14:24Z</time>
      </trkpt>
      <trkpt lat="43.90739" lon="6.25113">
        <ele>1284.94</ele>
        <time>2019-06-24T14:14:25Z</time>
      </trkpt>
      <trkpt lat="43.90738" lon="6.25123">
        <ele>1284.94</ele>
        <time>2019-06-24T14:14:26Z</time>
      </trkpt>
      <trkpt lat="43.90735" lon="6.25132">
        <ele>1284.94</ele>
        <time>2019-06-24T14:14:27Z</time>
      </trkpt>
      <trkpt lat="43.90731" lon="6.25142">
        <ele>1284.94</ele>
        <time>2019-06-24T14:14:28Z</time>
      </trkpt>
      <trkpt lat="43.90724" lon="6.25165">
        <ele>1285.9</ele>
        <time>2019-06-24T14:14:30Z</time>
      </trkpt>
      <trkpt lat="43.90721" lon="6.25178">
        <ele>1286.86</ele>
        <time>2019-06-24T14:14:31Z</time>
      </trkpt>
      <trkpt lat="43.90709" lon="6.25299">
        <ele>1289.75</ele>
        <time>2019-06-24T14:14:39Z</time>
      </trkpt>
      <trkpt lat="43.90707" lon="6.25313">
        <ele>1290.23</ele>
        <time>2019-06-24T14:14:40Z</time>
      </trkpt>
      <trkpt lat="43.90672" lon="6.25454">
        <ele>1293.59</ele>
        <time>2019-06-24T14:14:50Z</time>
      </trkpt>
      <trkpt lat="43.90664" lon="6.25498">
        <ele>1295.03</ele>
        <time>2019-06-24T14:14:53Z</time>
      </trkpt>
      <trkpt lat="43.90661" lon="6.2551">
        <ele>1295.03</ele>
        <time>2019-06-24T14:14:54Z</time>
      </trkpt>
      <trkpt lat="43.90657" lon="6.25522">
        <ele>1295.99</ele>
        <time>2019-06-24T14:14:55Z</time>
      </trkpt>
      <trkpt lat="43.9065" lon="6.25547">
        <ele>1296.48</ele>
        <time>2019-06-24T14:14:57Z</time>
      </trkpt>
      <trkpt lat="43.9064" lon="6.25618">
        <ele>1298.88</ele>
        <time>2019-06-24T14:15:02Z</time>
      </trkpt>
      <trkpt lat="43.90635" lon="6.25644">
        <ele>1299.84</ele>
        <time>2019-06-24T14:15:04Z</time>
      </trkpt>
      <trkpt lat="43.90631" lon="6.25657">
        <ele>1299.84</ele>
        <time>2019-06-24T14:15:05Z</time>
      </trkpt>
      <trkpt lat="43.90626" lon="6.25668">
        <ele>1300.8</ele>
        <time>2019-06-24T14:15:06Z</time>
      </trkpt>
      <trkpt lat="43.90609" lon="6.25701">
        <ele>1302.24</ele>
        <time>2019-06-24T14:15:09Z</time>
      </trkpt>
      <trkpt lat="43.90595" lon="6.2572">
        <ele>1302.24</ele>
        <time>2019-06-24T14:15:11Z</time>
      </trkpt>
      <trkpt lat="43.9059" lon="6.2573">
        <ele>1302.24</ele>
        <time>2019-06-24T14:15:12Z</time>
      </trkpt>
      <trkpt lat="43.90586" lon="6.25743">
        <ele>1302.72</ele>
        <time>2019-06-24T14:15:13Z</time>
      </trkpt>
      <trkpt lat="43.90584" lon="6.25756">
        <ele>1303.69</ele>
        <time>2019-06-24T14:15:14Z</time>
      </trkpt>
      <trkpt lat="43.90581" lon="6.25771">
        <ele>1304.65</ele>
        <time>2019-06-24T14:15:15Z</time>
      </trkpt>
      <trkpt lat="43.90577" lon="6.25815">
        <ele>1306.57</ele>
        <time>2019-06-24T14:15:18Z</time>
      </trkpt>
      <trkpt lat="43.90577" lon="6.25861">
        <ele>1307.53</ele>
        <time>2019-06-24T14:15:21Z</time>
      </trkpt>
      <trkpt lat="43.90577" lon="6.25877">
        <ele>1308.49</ele>
        <time>2019-06-24T14:15:22Z</time>
      </trkpt>
      <trkpt lat="43.90579" lon="6.25892">
        <ele>1309.45</ele>
        <time>2019-06-24T14:15:23Z</time>
      </trkpt>
      <trkpt lat="43.90581" lon="6.25906">
        <ele>1309.93</ele>
        <time>2019-06-24T14:15:24Z</time>
      </trkpt>
      <trkpt lat="43.90584" lon="6.25919">
        <ele>1309.93</ele>
        <time>2019-06-24T14:15:25Z</time>
      </trkpt>
      <trkpt lat="43.90588" lon="6.25943">
        <ele>1311.38</ele>
        <time>2019-06-24T14:15:27Z</time>
      </trkpt>
      <trkpt lat="43.90589" lon="6.25953">
        <ele>1311.38</ele>
        <time>2019-06-24T14:15:28Z</time>
      </trkpt>
      <trkpt lat="43.90588" lon="6.25963">
        <ele>1311.38</ele>
        <time>2019-06-24T14:15:29Z</time>
      </trkpt>
      <trkpt lat="43.90586" lon="6.25974">
        <ele>1312.34</ele>
        <time>2019-06-24T14:15:30Z</time>
      </trkpt>
      <trkpt lat="43.90583" lon="6.25984">
        <ele>1312.82</ele>
        <time>2019-06-24T14:15:31Z</time>
      </trkpt>
      <trkpt lat="43.9058" lon="6.25996">
        <ele>1313.78</ele>
        <time>2019-06-24T14:15:32Z</time>
      </trkpt>
      <trkpt lat="43.90562" lon="6.26045">
        <ele>1317.14</ele>
        <time>2019-06-24T14:15:36Z</time>
      </trkpt>
      <trkpt lat="43.90537" lon="6.26103">
        <ele>1320.03</ele>
        <time>2019-06-24T14:15:41Z</time>
      </trkpt>
      <trkpt lat="43.9053" lon="6.26113">
        <ele>1320.51</ele>
        <time>2019-06-24T14:15:42Z</time>
      </trkpt>
      <trkpt lat="43.90516" lon="6.26131">
        <ele>1321.95</ele>
        <time>2019-06-24T14:15:44Z</time>
      </trkpt>
      <trkpt lat="43.90509" lon="6.26142">
        <ele>1322.43</ele>
        <time>2019-06-24T14:15:45Z</time>
      </trkpt>
      <trkpt lat="43.90489" lon="6.2617">
        <ele>1324.35</ele>
        <time>2019-06-24T14:15:48Z</time>
      </trkpt>
      <trkpt lat="43.90476" lon="6.26187">
        <ele>1325.31</ele>
        <time>2019-06-24T14:15:50Z</time>
      </trkpt>
      <trkpt lat="43.90395" lon="6.26257">
        <ele>1326.76</ele>
        <time>2019-06-24T14:16:00Z</time>
      </trkpt>
      <trkpt lat="43.90386" lon="6.26263">
        <ele>1327.24</ele>
        <time>2019-06-24T14:16:01Z</time>
      </trkpt>
      <trkpt lat="43.90377" lon="6.26268">
        <ele>1327.72</ele>
        <time>2019-06-24T14:16:02Z</time>
      </trkpt>
      <trkpt lat="43.90368" lon="6.26271">
        <ele>1328.2</ele>
        <time>2019-06-24T14:16:03Z</time>
      </trkpt>
      <trkpt lat="43.90358" lon="6.26273">
        <ele>1327.72</ele>
        <time>2019-06-24T14:16:04Z</time>
      </trkpt>
      <trkpt lat="43.90347" lon="6.26275">
        <ele>1327.72</ele>
        <time>2019-06-24T14:16:05Z</time>
      </trkpt>
      <trkpt lat="43.90331" lon="6.26275">
        <ele>1326.28</ele>
        <time>2019-06-24T14:16:07Z</time>
      </trkpt>
      <trkpt lat="43.90325" lon="6.26273">
        <ele>1325.8</ele>
        <time>2019-06-24T14:16:08Z</time>
      </trkpt>
      <trkpt lat="43.90321" lon="6.26269">
        <ele>1325.8</ele>
        <time>2019-06-24T14:16:09Z</time>
      </trkpt>
      <trkpt lat="43.90318" lon="6.26264">
        <ele>1325.31</ele>
        <time>2019-06-24T14:16:10Z</time>
      </trkpt>
      <trkpt lat="43.90317" lon="6.26258">
        <ele>1325.8</ele>
        <time>2019-06-24T14:16:11Z</time>
      </trkpt>
      <trkpt lat="43.90317" lon="6.26248">
        <ele>1325.8</ele>
        <time>2019-06-24T14:16:12Z</time>
      </trkpt>
      <trkpt lat="43.90319" lon="6.26236">
        <ele>1325.8</ele>
        <time>2019-06-24T14:16:13Z</time>
      </trkpt>
      <trkpt lat="43.90322" lon="6.26224">
        <ele>1325.8</ele>
        <time>2019-06-24T14:16:14Z</time>
      </trkpt>
      <trkpt lat="43.90325" lon="6.26211">
        <ele>1325.31</ele>
        <time>2019-06-24T14:16:15Z</time>
      </trkpt>
      <trkpt lat="43.9033" lon="6.26198">
        <ele>1325.8</ele>
        <time>2019-06-24T14:16:16Z</time>
      </trkpt>
      <trkpt lat="43.90335" lon="6.26186">
        <ele>1325.8</ele>
        <time>2019-06-24T14:16:17Z</time>
      </trkpt>
      <trkpt lat="43.90353" lon="6.26144">
        <ele>1323.87</ele>
        <time>2019-06-24T14:16:21Z</time>
      </trkpt>
      <trkpt lat="43.90355" lon="6.26137">
        <ele>1323.87</ele>
        <time>2019-06-24T14:16:22Z</time>
      </trkpt>
      <trkpt lat="43.90355" lon="6.2613">
        <ele>1324.35</ele>
        <time>2019-06-24T14:16:23Z</time>
      </trkpt>
      <trkpt lat="43.90352" lon="6.26123">
        <ele>1324.83</ele>
        <time>2019-06-24T14:16:24Z</time>
      </trkpt>
      <trkpt lat="43.90347" lon="6.26119">
        <ele>1324.83</ele>
        <time>2019-06-24T14:16:25Z</time>
      </trkpt>
      <trkpt lat="43.90341" lon="6.26117">
        <ele>1324.83</ele>
        <time>2019-06-24T14:16:26Z</time>
      </trkpt>
      <trkpt lat="43.90334" lon="6.26118">
        <ele>1324.35</ele>
        <time>2019-06-24T14:16:27Z</time>
      </trkpt>
      <trkpt lat="43.90327" lon="6.26119">
        <ele>1324.35</ele>
        <time>2019-06-24T14:16:28Z</time>
      </trkpt>
      <trkpt lat="43.90302" lon="6.26123">
        <ele>1322.91</ele>
        <time>2019-06-24T14:16:31Z</time>
      </trkpt>
      <trkpt lat="43.90293" lon="6.26126">
        <ele>1322.91</ele>
        <time>2019-06-24T14:16:32Z</time>
      </trkpt>
      <trkpt lat="43.90284" lon="6.2613">
        <ele>1321.95</ele>
        <time>2019-06-24T14:16:33Z</time>
      </trkpt>
      <trkpt lat="43.90276" lon="6.26135">
        <ele>1320.99</ele>
        <time>2019-06-24T14:16:34Z</time>
      </trkpt>
      <trkpt lat="43.90267" lon="6.26143">
        <ele>1320.03</ele>
        <time>2019-06-24T14:16:35Z</time>
      </trkpt>
      <trkpt lat="43.90258" lon="6.26153">
        <ele>1319.55</ele>
        <time>2019-06-24T14:16:36Z</time>
      </trkpt>
      <trkpt lat="43.90217" lon="6.262">
        <ele>1316.66</ele>
        <time>2019-06-24T14:16:39Z</time>
      </trkpt>
      <trkpt lat="43.90183" lon="6.26238">
        <ele>1312.82</ele>
        <time>2019-06-24T14:16:42Z</time>
      </trkpt>
      <trkpt lat="43.90127" lon="6.26288">
        <ele>1309.45</ele>
        <time>2019-06-24T14:16:47Z</time>
      </trkpt>
      <trkpt lat="43.90108" lon="6.26305">
        <ele>1306.57</ele>
        <time>2019-06-24T14:16:49Z</time>
      </trkpt>
      <trkpt lat="43.90082" lon="6.26334">
        <ele>1304.65</ele>
        <time>2019-06-24T14:16:52Z</time>
      </trkpt>
      <trkpt lat="43.90057" lon="6.26357">
        <ele>1301.76</ele>
        <time>2019-06-24T14:16:55Z</time>
      </trkpt>
      <trkpt lat="43.90049" lon="6.26362">
        <ele>1301.28</ele>
        <time>2019-06-24T14:16:56Z</time>
      </trkpt>
      <trkpt lat="43.90041" lon="6.26367">
        <ele>1300.8</ele>
        <time>2019-06-24T14:16:57Z</time>
      </trkpt>
      <trkpt lat="43.90032" lon="6.2637">
        <ele>1300.8</ele>
        <time>2019-06-24T14:16:58Z</time>
      </trkpt>
      <trkpt lat="43.90023" lon="6.26373">
        <ele>1300.32</ele>
        <time>2019-06-24T14:16:59Z</time>
      </trkpt>
      <trkpt lat="43.90013" lon="6.26375">
        <ele>1299.84</ele>
        <time>2019-06-24T14:17:00Z</time>
      </trkpt>
      <trkpt lat="43.89994" lon="6.26378">
        <ele>1298.4</ele>
        <time>2019-06-24T14:17:02Z</time>
      </trkpt>
      <trkpt lat="43.89975" lon="6.26386">
        <ele>1297.92</ele>
        <time>2019-06-24T14:17:04Z</time>
      </trkpt>
      <trkpt lat="43.89966" lon="6.26393">
        <ele>1297.44</ele>
        <time>2019-06-24T14:17:05Z</time>
      </trkpt>
      <trkpt lat="43.89957" lon="6.26401">
        <ele>1297.44</ele>
        <time>2019-06-24T14:17:06Z</time>
      </trkpt>
      <trkpt lat="43.89924" lon="6.26433">
        <ele>1295.03</ele>
        <time>2019-06-24T14:17:10Z</time>
      </trkpt>
      <trkpt lat="43.89895" lon="6.26461">
        <ele>1292.15</ele>
        <time>2019-06-24T14:17:14Z</time>
      </trkpt>
      <trkpt lat="43.89888" lon="6.26466">
        <ele>1291.67</ele>
        <time>2019-06-24T14:17:15Z</time>
      </trkpt>
      <trkpt lat="43.89881" lon="6.26471">
        <ele>1290.23</ele>
        <time>2019-06-24T14:17:16Z</time>
      </trkpt>
      <trkpt lat="43.89872" lon="6.26474">
        <ele>1290.23</ele>
        <time>2019-06-24T14:17:17Z</time>
      </trkpt>
      <trkpt lat="43.89844" lon="6.2648">
        <ele>1288.3</ele>
        <time>2019-06-24T14:17:20Z</time>
      </trkpt>
      <trkpt lat="43.89825" lon="6.26482">
        <ele>1287.34</ele>
        <time>2019-06-24T14:17:22Z</time>
      </trkpt>
      <trkpt lat="43.89765" lon="6.26484">
        <ele>1284.46</ele>
        <time>2019-06-24T14:17:28Z</time>
      </trkpt>
      <trkpt lat="43.89735" lon="6.26487">
        <ele>1282.54</ele>
        <time>2019-06-24T14:17:31Z</time>
      </trkpt>
      <trkpt lat="43.89696" lon="6.26496">
        <ele>1280.61</ele>
        <time>2019-06-24T14:17:35Z</time>
      </trkpt>
      <trkpt lat="43.89616" lon="6.26507">
        <ele>1277.25</ele>
        <time>2019-06-24T14:17:43Z</time>
      </trkpt>
      <trkpt lat="43.89606" lon="6.2651">
        <ele>1277.25</ele>
        <time>2019-06-24T14:17:44Z</time>
      </trkpt>
      <trkpt lat="43.89595" lon="6.26514">
        <ele>1276.77</ele>
        <time>2019-06-24T14:17:45Z</time>
      </trkpt>
      <trkpt lat="43.89551" lon="6.26541">
        <ele>1273.4</ele>
        <time>2019-06-24T14:17:49Z</time>
      </trkpt>
      <trkpt lat="43.89509" lon="6.26568">
        <ele>1270.04</ele>
        <time>2019-06-24T14:17:53Z</time>
      </trkpt>
      <trkpt lat="43.89477" lon="6.26586">
        <ele>1266.67</ele>
        <time>2019-06-24T14:17:56Z</time>
      </trkpt>
      <trkpt lat="43.89447" lon="6.26607">
        <ele>1263.79</ele>
        <time>2019-06-24T14:17:59Z</time>
      </trkpt>
      <trkpt lat="43.89403" lon="6.26638">
        <ele>1260.43</ele>
        <time>2019-06-24T14:18:03Z</time>
      </trkpt>
      <trkpt lat="43.89358" lon="6.2667">
        <ele>1257.06</ele>
        <time>2019-06-24T14:18:07Z</time>
      </trkpt>
      <trkpt lat="43.89317" lon="6.26706">
        <ele>1254.18</ele>
        <time>2019-06-24T14:18:11Z</time>
      </trkpt>
      <trkpt lat="43.89274" lon="6.26757">
        <ele>1250.81</ele>
        <time>2019-06-24T14:18:16Z</time>
      </trkpt>
      <trkpt lat="43.89267" lon="6.2677">
        <ele>1250.81</ele>
        <time>2019-06-24T14:18:17Z</time>
      </trkpt>
      <trkpt lat="43.89253" lon="6.26793">
        <ele>1248.41</ele>
        <time>2019-06-24T14:18:19Z</time>
      </trkpt>
      <trkpt lat="43.89246" lon="6.26802">
        <ele>1248.41</ele>
        <time>2019-06-24T14:18:20Z</time>
      </trkpt>
      <trkpt lat="43.89238" lon="6.2681">
        <ele>1247.93</ele>
        <time>2019-06-24T14:18:21Z</time>
      </trkpt>
      <trkpt lat="43.8923" lon="6.26818">
        <ele>1247.45</ele>
        <time>2019-06-24T14:18:22Z</time>
      </trkpt>
      <trkpt lat="43.89221" lon="6.26825">
        <ele>1247.45</ele>
        <time>2019-06-24T14:18:23Z</time>
      </trkpt>
      <trkpt lat="43.89164" lon="6.26877">
        <ele>1244.08</ele>
        <time>2019-06-24T14:18:29Z</time>
      </trkpt>
      <trkpt lat="43.89122" lon="6.26918">
        <ele>1240.72</ele>
        <time>2019-06-24T14:18:34Z</time>
      </trkpt>
      <trkpt lat="43.89115" lon="6.26924">
        <ele>1240.24</ele>
        <time>2019-06-24T14:18:35Z</time>
      </trkpt>
      <trkpt lat="43.89107" lon="6.26928">
        <ele>1240.24</ele>
        <time>2019-06-24T14:18:36Z</time>
      </trkpt>
      <trkpt lat="43.89099" lon="6.26931">
        <ele>1240.24</ele>
        <time>2019-06-24T14:18:37Z</time>
      </trkpt>
      <trkpt lat="43.89081" lon="6.26936">
        <ele>1239.28</ele>
        <time>2019-06-24T14:18:39Z</time>
      </trkpt>
      <trkpt lat="43.89074" lon="6.2694">
        <ele>1238.8</ele>
        <time>2019-06-24T14:18:40Z</time>
      </trkpt>
      <trkpt lat="43.89067" lon="6.26945">
        <ele>1238.32</ele>
        <time>2019-06-24T14:18:41Z</time>
      </trkpt>
      <trkpt lat="43.89055" lon="6.26955">
        <ele>1237.35</ele>
        <time>2019-06-24T14:18:43Z</time>
      </trkpt>
      <trkpt lat="43.8905" lon="6.26959">
        <ele>1237.35</ele>
        <time>2019-06-24T14:18:44Z</time>
      </trkpt>
      <trkpt lat="43.89043" lon="6.26963">
        <ele>1236.87</ele>
        <time>2019-06-24T14:18:45Z</time>
      </trkpt>
      <trkpt lat="43.89029" lon="6.26969">
        <ele>1235.91</ele>
        <time>2019-06-24T14:18:47Z</time>
      </trkpt>
      <trkpt lat="43.89021" lon="6.26975">
        <ele>1235.91</ele>
        <time>2019-06-24T14:18:48Z</time>
      </trkpt>
      <trkpt lat="43.89014" lon="6.26983">
        <ele>1235.43</ele>
        <time>2019-06-24T14:18:49Z</time>
      </trkpt>
      <trkpt lat="43.89007" lon="6.26994">
        <ele>1235.43</ele>
        <time>2019-06-24T14:18:50Z</time>
      </trkpt>
      <trkpt lat="43.89001" lon="6.27006">
        <ele>1234.95</ele>
        <time>2019-06-24T14:18:51Z</time>
      </trkpt>
      <trkpt lat="43.88966" lon="6.27058">
        <ele>1231.59</ele>
        <time>2019-06-24T14:18:56Z</time>
      </trkpt>
      <trkpt lat="43.88955" lon="6.27072">
        <ele>1230.62</ele>
        <time>2019-06-24T14:18:58Z</time>
      </trkpt>
      <trkpt lat="43.88948" lon="6.27078">
        <ele>1231.59</ele>
        <time>2019-06-24T14:18:59Z</time>
      </trkpt>
      <trkpt lat="43.88843" lon="6.27138">
        <ele>1228.22</ele>
        <time>2019-06-24T14:19:11Z</time>
      </trkpt>
      <trkpt lat="43.88818" lon="6.27151">
        <ele>1227.26</ele>
        <time>2019-06-24T14:19:14Z</time>
      </trkpt>
      <trkpt lat="43.88812" lon="6.27158">
        <ele>1226.78</ele>
        <time>2019-06-24T14:19:15Z</time>
      </trkpt>
      <trkpt lat="43.88806" lon="6.27166">
        <ele>1225.82</ele>
        <time>2019-06-24T14:19:16Z</time>
      </trkpt>
      <trkpt lat="43.88801" lon="6.27177">
        <ele>1225.34</ele>
        <time>2019-06-24T14:19:17Z</time>
      </trkpt>
      <trkpt lat="43.88796" lon="6.27188">
        <ele>1225.82</ele>
        <time>2019-06-24T14:19:18Z</time>
      </trkpt>
      <trkpt lat="43.88784" lon="6.2721">
        <ele>1224.38</ele>
        <time>2019-06-24T14:19:20Z</time>
      </trkpt>
      <trkpt lat="43.88778" lon="6.2722">
        <ele>1224.86</ele>
        <time>2019-06-24T14:19:21Z</time>
      </trkpt>
      <trkpt lat="43.8877" lon="6.27227">
        <ele>1224.86</ele>
        <time>2019-06-24T14:19:22Z</time>
      </trkpt>
      <trkpt lat="43.88763" lon="6.27233">
        <ele>1224.38</ele>
        <time>2019-06-24T14:19:23Z</time>
      </trkpt>
      <trkpt lat="43.88755" lon="6.27237">
        <ele>1224.86</ele>
        <time>2019-06-24T14:19:24Z</time>
      </trkpt>
      <trkpt lat="43.88746" lon="6.27239">
        <ele>1224.38</ele>
        <time>2019-06-24T14:19:25Z</time>
      </trkpt>
      <trkpt lat="43.88737" lon="6.27239">
        <ele>1224.86</ele>
        <time>2019-06-24T14:19:26Z</time>
      </trkpt>
      <trkpt lat="43.88729" lon="6.2724">
        <ele>1224.86</ele>
        <time>2019-06-24T14:19:27Z</time>
      </trkpt>
      <trkpt lat="43.8872" lon="6.27242">
        <ele>1224.38</ele>
        <time>2019-06-24T14:19:28Z</time>
      </trkpt>
      <trkpt lat="43.88712" lon="6.27246">
        <ele>1224.86</ele>
        <time>2019-06-24T14:19:29Z</time>
      </trkpt>
      <trkpt lat="43.88705" lon="6.27253">
        <ele>1224.38</ele>
        <time>2019-06-24T14:19:30Z</time>
      </trkpt>
      <trkpt lat="43.88697" lon="6.27263">
        <ele>1224.38</ele>
        <time>2019-06-24T14:19:31Z</time>
      </trkpt>
      <trkpt lat="43.8869" lon="6.27274">
        <ele>1224.38</ele>
        <time>2019-06-24T14:19:32Z</time>
      </trkpt>
      <trkpt lat="43.88615" lon="6.27361">
        <ele>1221.49</ele>
        <time>2019-06-24T14:19:41Z</time>
      </trkpt>
      <trkpt lat="43.88573" lon="6.27429">
        <ele>1219.09</ele>
        <time>2019-06-24T14:19:47Z</time>
      </trkpt>
      <trkpt lat="43.88566" lon="6.27437">
        <ele>1219.09</ele>
        <time>2019-06-24T14:19:48Z</time>
      </trkpt>
      <trkpt lat="43.88558" lon="6.27444">
        <ele>1219.09</ele>
        <time>2019-06-24T14:19:49Z</time>
      </trkpt>
      <trkpt lat="43.88541" lon="6.27456">
        <ele>1218.13</ele>
        <time>2019-06-24T14:19:51Z</time>
      </trkpt>
      <trkpt lat="43.88531" lon="6.27461">
        <ele>1218.13</ele>
        <time>2019-06-24T14:19:52Z</time>
      </trkpt>
      <trkpt lat="43.88522" lon="6.27465">
        <ele>1217.65</ele>
        <time>2019-06-24T14:19:53Z</time>
      </trkpt>
      <trkpt lat="43.88483" lon="6.27475">
        <ele>1216.21</ele>
        <time>2019-06-24T14:19:57Z</time>
      </trkpt>
      <trkpt lat="43.88473" lon="6.27481">
        <ele>1216.21</ele>
        <time>2019-06-24T14:19:58Z</time>
      </trkpt>
      <trkpt lat="43.88455" lon="6.27497">
        <ele>1215.24</ele>
        <time>2019-06-24T14:20:00Z</time>
      </trkpt>
      <trkpt lat="43.88446" lon="6.27507">
        <ele>1214.76</ele>
        <time>2019-06-24T14:20:01Z</time>
      </trkpt>
      <trkpt lat="43.88431" lon="6.27533">
        <ele>1213.8</ele>
        <time>2019-06-24T14:20:03Z</time>
      </trkpt>
      <trkpt lat="43.88424" lon="6.27547">
        <ele>1213.32</ele>
        <time>2019-06-24T14:20:04Z</time>
      </trkpt>
      <trkpt lat="43.88413" lon="6.27574">
        <ele>1212.36</ele>
        <time>2019-06-24T14:20:06Z</time>
      </trkpt>
      <trkpt lat="43.88402" lon="6.27595">
        <ele>1211.4</ele>
        <time>2019-06-24T14:20:08Z</time>
      </trkpt>
      <trkpt lat="43.88396" lon="6.27605">
        <ele>1210.92</ele>
        <time>2019-06-24T14:20:09Z</time>
      </trkpt>
      <trkpt lat="43.88388" lon="6.27612">
        <ele>1210.44</ele>
        <time>2019-06-24T14:20:10Z</time>
      </trkpt>
      <trkpt lat="43.8838" lon="6.27617">
        <ele>1209.96</ele>
        <time>2019-06-24T14:20:11Z</time>
      </trkpt>
      <trkpt lat="43.88372" lon="6.27619">
        <ele>1209.48</ele>
        <time>2019-06-24T14:20:12Z</time>
      </trkpt>
      <trkpt lat="43.88365" lon="6.27619">
        <ele>1208.51</ele>
        <time>2019-06-24T14:20:13Z</time>
      </trkpt>
      <trkpt lat="43.88359" lon="6.27617">
        <ele>1208.03</ele>
        <time>2019-06-24T14:20:14Z</time>
      </trkpt>
      <trkpt lat="43.88352" lon="6.27613">
        <ele>1207.55</ele>
        <time>2019-06-24T14:20:15Z</time>
      </trkpt>
      <trkpt lat="43.88345" lon="6.27607">
        <ele>1208.03</ele>
        <time>2019-06-24T14:20:16Z</time>
      </trkpt>
      <trkpt lat="43.88312" lon="6.27582">
        <ele>1206.11</ele>
        <time>2019-06-24T14:20:20Z</time>
      </trkpt>
      <trkpt lat="43.88304" lon="6.27576">
        <ele>1206.11</ele>
        <time>2019-06-24T14:20:21Z</time>
      </trkpt>
      <trkpt lat="43.88296" lon="6.27572">
        <ele>1204.67</ele>
        <time>2019-06-24T14:20:22Z</time>
      </trkpt>
      <trkpt lat="43.88288" lon="6.27569">
        <ele>1205.15</ele>
        <time>2019-06-24T14:20:23Z</time>
      </trkpt>
      <trkpt lat="43.88279" lon="6.27569">
        <ele>1204.67</ele>
        <time>2019-06-24T14:20:24Z</time>
      </trkpt>
      <trkpt lat="43.8827" lon="6.27573">
        <ele>1204.67</ele>
        <time>2019-06-24T14:20:25Z</time>
      </trkpt>
      <trkpt lat="43.88261" lon="6.2758">
        <ele>1204.67</ele>
        <time>2019-06-24T14:20:26Z</time>
      </trkpt>
      <trkpt lat="43.88251" lon="6.27588">
        <ele>1204.19</ele>
        <time>2019-06-24T14:20:27Z</time>
      </trkpt>
      <trkpt lat="43.88213" lon="6.27615">
        <ele>1201.3</ele>
        <time>2019-06-24T14:20:31Z</time>
      </trkpt>
      <trkpt lat="43.88205" lon="6.27623">
        <ele>1201.3</ele>
        <time>2019-06-24T14:20:32Z</time>
      </trkpt>
      <trkpt lat="43.88198" lon="6.27631">
        <ele>1200.82</ele>
        <time>2019-06-24T14:20:33Z</time>
      </trkpt>
      <trkpt lat="43.88192" lon="6.27642">
        <ele>1200.82</ele>
        <time>2019-06-24T14:20:34Z</time>
      </trkpt>
      <trkpt lat="43.88183" lon="6.27663">
        <ele>1199.38</ele>
        <time>2019-06-24T14:20:36Z</time>
      </trkpt>
      <trkpt lat="43.88178" lon="6.27673">
        <ele>1198.42</ele>
        <time>2019-06-24T14:20:37Z</time>
      </trkpt>
      <trkpt lat="43.88172" lon="6.27682">
        <ele>1198.42</ele>
        <time>2019-06-24T14:20:38Z</time>
      </trkpt>
      <trkpt lat="43.88137" lon="6.2773">
        <ele>1197.46</ele>
        <time>2019-06-24T14:20:43Z</time>
      </trkpt>
      <trkpt lat="43.88127" lon="6.27738">
        <ele>1196.98</ele>
        <time>2019-06-24T14:20:44Z</time>
      </trkpt>
      <trkpt lat="43.88089" lon="6.27765">
        <ele>1196.02</ele>
        <time>2019-06-24T14:20:48Z</time>
      </trkpt>
      <trkpt lat="43.88072" lon="6.27771">
        <ele>1195.54</ele>
        <time>2019-06-24T14:20:50Z</time>
      </trkpt>
      <trkpt lat="43.88064" lon="6.27772">
        <ele>1195.06</ele>
        <time>2019-06-24T14:20:51Z</time>
      </trkpt>
      <trkpt lat="43.88057" lon="6.2777">
        <ele>1195.06</ele>
        <time>2019-06-24T14:20:52Z</time>
      </trkpt>
      <trkpt lat="43.8805" lon="6.27766">
        <ele>1195.54</ele>
        <time>2019-06-24T14:20:53Z</time>
      </trkpt>
      <trkpt lat="43.88044" lon="6.2776">
        <ele>1195.06</ele>
        <time>2019-06-24T14:20:54Z</time>
      </trkpt>
      <trkpt lat="43.88039" lon="6.27752">
        <ele>1195.54</ele>
        <time>2019-06-24T14:20:55Z</time>
      </trkpt>
      <trkpt lat="43.88033" lon="6.27744">
        <ele>1196.02</ele>
        <time>2019-06-24T14:20:56Z</time>
      </trkpt>
      <trkpt lat="43.8801" lon="6.2771">
        <ele>1195.54</ele>
        <time>2019-06-24T14:21:00Z</time>
      </trkpt>
      <trkpt lat="43.88005" lon="6.27704">
        <ele>1196.02</ele>
        <time>2019-06-24T14:21:01Z</time>
      </trkpt>
      <trkpt lat="43.87999" lon="6.277">
        <ele>1195.54</ele>
        <time>2019-06-24T14:21:02Z</time>
      </trkpt>
      <trkpt lat="43.87994" lon="6.27698">
        <ele>1195.54</ele>
        <time>2019-06-24T14:21:03Z</time>
      </trkpt>
      <trkpt lat="43.87989" lon="6.27697">
        <ele>1195.54</ele>
        <time>2019-06-24T14:21:04Z</time>
      </trkpt>
      <trkpt lat="43.87978" lon="6.27695">
        <ele>1195.06</ele>
        <time>2019-06-24T14:21:06Z</time>
      </trkpt>
      <trkpt lat="43.87972" lon="6.27696">
        <ele>1195.06</ele>
        <time>2019-06-24T14:21:07Z</time>
      </trkpt>
      <trkpt lat="43.87967" lon="6.277">
        <ele>1195.54</ele>
        <time>2019-06-24T14:21:08Z</time>
      </trkpt>
      <trkpt lat="43.87962" lon="6.27705">
        <ele>1195.54</ele>
        <time>2019-06-24T14:21:09Z</time>
      </trkpt>
      <trkpt lat="43.87957" lon="6.27713">
        <ele>1196.02</ele>
        <time>2019-06-24T14:21:10Z</time>
      </trkpt>
      <trkpt lat="43.87954" lon="6.27723">
        <ele>1196.02</ele>
        <time>2019-06-24T14:21:11Z</time>
      </trkpt>
      <trkpt lat="43.87953" lon="6.27733">
        <ele>1196.02</ele>
        <time>2019-06-24T14:21:12Z</time>
      </trkpt>
      <trkpt lat="43.87952" lon="6.27744">
        <ele>1195.54</ele>
        <time>2019-06-24T14:21:13Z</time>
      </trkpt>
      <trkpt lat="43.87952" lon="6.27755">
        <ele>1195.54</ele>
        <time>2019-06-24T14:21:14Z</time>
      </trkpt>
      <trkpt lat="43.8795" lon="6.27765">
        <ele>1195.54</ele>
        <time>2019-06-24T14:21:15Z</time>
      </trkpt>
      <trkpt lat="43.87948" lon="6.27776">
        <ele>1195.54</ele>
        <time>2019-06-24T14:21:16Z</time>
      </trkpt>
      <trkpt lat="43.87944" lon="6.27786">
        <ele>1196.02</ele>
        <time>2019-06-24T14:21:17Z</time>
      </trkpt>
      <trkpt lat="43.87939" lon="6.27797">
        <ele>1196.5</ele>
        <time>2019-06-24T14:21:18Z</time>
      </trkpt>
      <trkpt lat="43.87934" lon="6.27808">
        <ele>1196.98</ele>
        <time>2019-06-24T14:21:19Z</time>
      </trkpt>
      <trkpt lat="43.87923" lon="6.27832">
        <ele>1196.5</ele>
        <time>2019-06-24T14:21:21Z</time>
      </trkpt>
      <trkpt lat="43.87916" lon="6.27861">
        <ele>1196.98</ele>
        <time>2019-06-24T14:21:23Z</time>
      </trkpt>
      <trkpt lat="43.87913" lon="6.27872">
        <ele>1196.98</ele>
        <time>2019-06-24T14:21:24Z</time>
      </trkpt>
      <trkpt lat="43.87911" lon="6.2788">
        <ele>1196.5</ele>
        <time>2019-06-24T14:21:25Z</time>
      </trkpt>
      <trkpt lat="43.87907" lon="6.27885">
        <ele>1196.5</ele>
        <time>2019-06-24T14:21:26Z</time>
      </trkpt>
      <trkpt lat="43.87901" lon="6.27889">
        <ele>1196.5</ele>
        <time>2019-06-24T14:21:27Z</time>
      </trkpt>
      <trkpt lat="43.87893" lon="6.27891">
        <ele>1196.98</ele>
        <time>2019-06-24T14:21:28Z</time>
      </trkpt>
      <trkpt lat="43.87884" lon="6.27889">
        <ele>1196.5</ele>
        <time>2019-06-24T14:21:29Z</time>
      </trkpt>
      <trkpt lat="43.87876" lon="6.27886">
        <ele>1196.98</ele>
        <time>2019-06-24T14:21:30Z</time>
      </trkpt>
      <trkpt lat="43.87869" lon="6.27885">
        <ele>1196.98</ele>
        <time>2019-06-24T14:21:31Z</time>
      </trkpt>
      <trkpt lat="43.87862" lon="6.27887">
        <ele>1196.98</ele>
        <time>2019-06-24T14:21:32Z</time>
      </trkpt>
      <trkpt lat="43.87857" lon="6.27891">
        <ele>1196.5</ele>
        <time>2019-06-24T14:21:33Z</time>
      </trkpt>
      <trkpt lat="43.87851" lon="6.27897">
        <ele>1196.98</ele>
        <time>2019-06-24T14:21:34Z</time>
      </trkpt>
      <trkpt lat="43.87846" lon="6.27905">
        <ele>1196.98</ele>
        <time>2019-06-24T14:21:35Z</time>
      </trkpt>
      <trkpt lat="43.87834" lon="6.27923">
        <ele>1196.98</ele>
        <time>2019-06-24T14:21:37Z</time>
      </trkpt>
      <trkpt lat="43.87826" lon="6.27931">
        <ele>1196.5</ele>
        <time>2019-06-24T14:21:38Z</time>
      </trkpt>
      <trkpt lat="43.87818" lon="6.27939">
        <ele>1197.46</ele>
        <time>2019-06-24T14:21:39Z</time>
      </trkpt>
      <trkpt lat="43.87763" lon="6.27989">
        <ele>1197.94</ele>
        <time>2019-06-24T14:21:45Z</time>
      </trkpt>
      <trkpt lat="43.87753" lon="6.27994">
        <ele>1198.42</ele>
        <time>2019-06-24T14:21:46Z</time>
      </trkpt>
      <trkpt lat="43.87723" lon="6.28006">
        <ele>1197.46</ele>
        <time>2019-06-24T14:21:49Z</time>
      </trkpt>
      <trkpt lat="43.87624" lon="6.28037">
        <ele>1196.98</ele>
        <time>2019-06-24T14:21:58Z</time>
      </trkpt>
      <trkpt lat="43.87614" lon="6.28044">
        <ele>1196.98</ele>
        <time>2019-06-24T14:21:59Z</time>
      </trkpt>
      <trkpt lat="43.87594" lon="6.28062">
        <ele>1196.5</ele>
        <time>2019-06-24T14:22:01Z</time>
      </trkpt>
      <trkpt lat="43.87586" lon="6.28072">
        <ele>1196.5</ele>
        <time>2019-06-24T14:22:02Z</time>
      </trkpt>
      <trkpt lat="43.87578" lon="6.28083">
        <ele>1196.02</ele>
        <time>2019-06-24T14:22:03Z</time>
      </trkpt>
      <trkpt lat="43.8756" lon="6.28109">
        <ele>1195.54</ele>
        <time>2019-06-24T14:22:06Z</time>
      </trkpt>
      <trkpt lat="43.87555" lon="6.28114">
        <ele>1194.58</ele>
        <time>2019-06-24T14:22:07Z</time>
      </trkpt>
      <trkpt lat="43.87549" lon="6.28117">
        <ele>1195.06</ele>
        <time>2019-06-24T14:22:08Z</time>
      </trkpt>
      <trkpt lat="43.87542" lon="6.28117">
        <ele>1195.06</ele>
        <time>2019-06-24T14:22:09Z</time>
      </trkpt>
      <trkpt lat="43.87534" lon="6.28115">
        <ele>1194.58</ele>
        <time>2019-06-24T14:22:10Z</time>
      </trkpt>
      <trkpt lat="43.87526" lon="6.28112">
        <ele>1195.06</ele>
        <time>2019-06-24T14:22:11Z</time>
      </trkpt>
      <trkpt lat="43.87518" lon="6.28109">
        <ele>1194.58</ele>
        <time>2019-06-24T14:22:12Z</time>
      </trkpt>
      <trkpt lat="43.87509" lon="6.28105">
        <ele>1195.06</ele>
        <time>2019-06-24T14:22:13Z</time>
      </trkpt>
      <trkpt lat="43.875" lon="6.28103">
        <ele>1194.09</ele>
        <time>2019-06-24T14:22:14Z</time>
      </trkpt>
      <trkpt lat="43.87491" lon="6.28103">
        <ele>1195.06</ele>
        <time>2019-06-24T14:22:15Z</time>
      </trkpt>
      <trkpt lat="43.87481" lon="6.28106">
        <ele>1195.06</ele>
        <time>2019-06-24T14:22:16Z</time>
      </trkpt>
      <trkpt lat="43.87472" lon="6.28108">
        <ele>1194.09</ele>
        <time>2019-06-24T14:22:17Z</time>
      </trkpt>
      <trkpt lat="43.87462" lon="6.2811">
        <ele>1194.58</ele>
        <time>2019-06-24T14:22:18Z</time>
      </trkpt>
      <trkpt lat="43.87443" lon="6.28116">
        <ele>1194.58</ele>
        <time>2019-06-24T14:22:20Z</time>
      </trkpt>
      <trkpt lat="43.87434" lon="6.28122">
        <ele>1194.58</ele>
        <time>2019-06-24T14:22:21Z</time>
      </trkpt>
      <trkpt lat="43.87425" lon="6.2813">
        <ele>1195.06</ele>
        <time>2019-06-24T14:22:22Z</time>
      </trkpt>
      <trkpt lat="43.87416" lon="6.28138">
        <ele>1195.06</ele>
        <time>2019-06-24T14:22:23Z</time>
      </trkpt>
      <trkpt lat="43.87406" lon="6.28144">
        <ele>1194.58</ele>
        <time>2019-06-24T14:22:24Z</time>
      </trkpt>
      <trkpt lat="43.87396" lon="6.2815">
        <ele>1195.06</ele>
        <time>2019-06-24T14:22:25Z</time>
      </trkpt>
      <trkpt lat="43.87386" lon="6.28157">
        <ele>1195.54</ele>
        <time>2019-06-24T14:22:26Z</time>
      </trkpt>
      <trkpt lat="43.87323" lon="6.28192">
        <ele>1195.54</ele>
        <time>2019-06-24T14:22:32Z</time>
      </trkpt>
      <trkpt lat="43.87313" lon="6.28198">
        <ele>1195.06</ele>
        <time>2019-06-24T14:22:33Z</time>
      </trkpt>
      <trkpt lat="43.87303" lon="6.28206">
        <ele>1194.09</ele>
        <time>2019-06-24T14:22:34Z</time>
      </trkpt>
      <trkpt lat="43.8725" lon="6.28255">
        <ele>1194.09</ele>
        <time>2019-06-24T14:22:40Z</time>
      </trkpt>
      <trkpt lat="43.87242" lon="6.28265">
        <ele>1194.09</ele>
        <time>2019-06-24T14:22:41Z</time>
      </trkpt>
      <trkpt lat="43.87234" lon="6.28276">
        <ele>1194.09</ele>
        <time>2019-06-24T14:22:42Z</time>
      </trkpt>
      <trkpt lat="43.87155" lon="6.28375">
        <ele>1193.61</ele>
        <time>2019-06-24T14:22:52Z</time>
      </trkpt>
      <trkpt lat="43.87129" lon="6.28395">
        <ele>1193.61</ele>
        <time>2019-06-24T14:22:55Z</time>
      </trkpt>
      <trkpt lat="43.87119" lon="6.284">
        <ele>1193.13</ele>
        <time>2019-06-24T14:22:56Z</time>
      </trkpt>
      <trkpt lat="43.87108" lon="6.28404">
        <ele>1193.61</ele>
        <time>2019-06-24T14:22:57Z</time>
      </trkpt>
      <trkpt lat="43.87073" lon="6.28415">
        <ele>1193.13</ele>
        <time>2019-06-24T14:23:00Z</time>
      </trkpt>
      <trkpt lat="43.87054" lon="6.28426">
        <ele>1191.69</ele>
        <time>2019-06-24T14:23:02Z</time>
      </trkpt>
      <trkpt lat="43.87044" lon="6.2843">
        <ele>1190.73</ele>
        <time>2019-06-24T14:23:03Z</time>
      </trkpt>
      <trkpt lat="43.86983" lon="6.2844">
        <ele>1189.77</ele>
        <time>2019-06-24T14:23:09Z</time>
      </trkpt>
      <trkpt lat="43.86974" lon="6.28443">
        <ele>1189.29</ele>
        <time>2019-06-24T14:23:10Z</time>
      </trkpt>
      <trkpt lat="43.86966" lon="6.28449">
        <ele>1188.81</ele>
        <time>2019-06-24T14:23:11Z</time>
      </trkpt>
      <trkpt lat="43.86959" lon="6.28459">
        <ele>1188.81</ele>
        <time>2019-06-24T14:23:12Z</time>
      </trkpt>
      <trkpt lat="43.86953" lon="6.28471">
        <ele>1189.29</ele>
        <time>2019-06-24T14:23:13Z</time>
      </trkpt>
      <trkpt lat="43.86947" lon="6.28484">
        <ele>1188.81</ele>
        <time>2019-06-24T14:23:14Z</time>
      </trkpt>
      <trkpt lat="43.86943" lon="6.28499">
        <ele>1189.29</ele>
        <time>2019-06-24T14:23:15Z</time>
      </trkpt>
      <trkpt lat="43.86939" lon="6.28513">
        <ele>1189.29</ele>
        <time>2019-06-24T14:23:16Z</time>
      </trkpt>
      <trkpt lat="43.8693" lon="6.28551">
        <ele>1187.85</ele>
        <time>2019-06-24T14:23:19Z</time>
      </trkpt>
      <trkpt lat="43.86924" lon="6.28561">
        <ele>1187.85</ele>
        <time>2019-06-24T14:23:20Z</time>
      </trkpt>
      <trkpt lat="43.86918" lon="6.28569">
        <ele>1187.85</ele>
        <time>2019-06-24T14:23:21Z</time>
      </trkpt>
      <trkpt lat="43.8691" lon="6.28576">
        <ele>1187.85</ele>
        <time>2019-06-24T14:23:22Z</time>
      </trkpt>
      <trkpt lat="43.86902" lon="6.28582">
        <ele>1187.85</ele>
        <time>2019-06-24T14:23:23Z</time>
      </trkpt>
      <trkpt lat="43.86892" lon="6.28586">
        <ele>1188.33</ele>
        <time>2019-06-24T14:23:24Z</time>
      </trkpt>
      <trkpt lat="43.86882" lon="6.2859">
        <ele>1187.85</ele>
        <time>2019-06-24T14:23:25Z</time>
      </trkpt>
      <trkpt lat="43.8683" lon="6.28613">
        <ele>1186.88</ele>
        <time>2019-06-24T14:23:30Z</time>
      </trkpt>
      <trkpt lat="43.86811" lon="6.28621">
        <ele>1185.92</ele>
        <time>2019-06-24T14:23:32Z</time>
      </trkpt>
      <trkpt lat="43.86802" lon="6.28623">
        <ele>1185.92</ele>
        <time>2019-06-24T14:23:33Z</time>
      </trkpt>
      <trkpt lat="43.86793" lon="6.28624">
        <ele>1185.44</ele>
        <time>2019-06-24T14:23:34Z</time>
      </trkpt>
      <trkpt lat="43.86774" lon="6.28625">
        <ele>1186.4</ele>
        <time>2019-06-24T14:23:36Z</time>
      </trkpt>
      <trkpt lat="43.86764" lon="6.28627">
        <ele>1186.4</ele>
        <time>2019-06-24T14:23:37Z</time>
      </trkpt>
      <trkpt lat="43.86755" lon="6.2863">
        <ele>1185.92</ele>
        <time>2019-06-24T14:23:38Z</time>
      </trkpt>
      <trkpt lat="43.86746" lon="6.28635">
        <ele>1185.92</ele>
        <time>2019-06-24T14:23:39Z</time>
      </trkpt>
      <trkpt lat="43.86738" lon="6.28641">
        <ele>1186.88</ele>
        <time>2019-06-24T14:23:40Z</time>
      </trkpt>
      <trkpt lat="43.86729" lon="6.28648">
        <ele>1186.88</ele>
        <time>2019-06-24T14:23:41Z</time>
      </trkpt>
      <trkpt lat="43.86695" lon="6.28677">
        <ele>1186.4</ele>
        <time>2019-06-24T14:23:45Z</time>
      </trkpt>
      <trkpt lat="43.86687" lon="6.28687">
        <ele>1185.92</ele>
        <time>2019-06-24T14:23:46Z</time>
      </trkpt>
      <trkpt lat="43.86681" lon="6.28699">
        <ele>1186.88</ele>
        <time>2019-06-24T14:23:47Z</time>
      </trkpt>
      <trkpt lat="43.86671" lon="6.28722">
        <ele>1185.92</ele>
        <time>2019-06-24T14:23:49Z</time>
      </trkpt>
      <trkpt lat="43.86664" lon="6.28733">
        <ele>1186.4</ele>
        <time>2019-06-24T14:23:50Z</time>
      </trkpt>
      <trkpt lat="43.86657" lon="6.28742">
        <ele>1185.92</ele>
        <time>2019-06-24T14:23:51Z</time>
      </trkpt>
      <trkpt lat="43.8665" lon="6.28751">
        <ele>1185.44</ele>
        <time>2019-06-24T14:23:52Z</time>
      </trkpt>
      <trkpt lat="43.86641" lon="6.28758">
        <ele>1185.44</ele>
        <time>2019-06-24T14:23:53Z</time>
      </trkpt>
      <trkpt lat="43.86632" lon="6.28764">
        <ele>1185.44</ele>
        <time>2019-06-24T14:23:54Z</time>
      </trkpt>
      <trkpt lat="43.86622" lon="6.28768">
        <ele>1184.96</ele>
        <time>2019-06-24T14:23:55Z</time>
      </trkpt>
      <trkpt lat="43.86612" lon="6.28771">
        <ele>1185.44</ele>
        <time>2019-06-24T14:23:56Z</time>
      </trkpt>
      <trkpt lat="43.86591" lon="6.28778">
        <ele>1184</ele>
        <time>2019-06-24T14:23:58Z</time>
      </trkpt>
      <trkpt lat="43.86582" lon="6.28784">
        <ele>1184</ele>
        <time>2019-06-24T14:23:59Z</time>
      </trkpt>
      <trkpt lat="43.86573" lon="6.28792">
        <ele>1184.48</ele>
        <time>2019-06-24T14:24:00Z</time>
      </trkpt>
      <trkpt lat="43.86565" lon="6.28802">
        <ele>1184.48</ele>
        <time>2019-06-24T14:24:01Z</time>
      </trkpt>
      <trkpt lat="43.86557" lon="6.28814">
        <ele>1184.96</ele>
        <time>2019-06-24T14:24:02Z</time>
      </trkpt>
      <trkpt lat="43.86549" lon="6.28825">
        <ele>1184.96</ele>
        <time>2019-06-24T14:24:03Z</time>
      </trkpt>
      <trkpt lat="43.8653" lon="6.28855">
        <ele>1184.48</ele>
        <time>2019-06-24T14:24:06Z</time>
      </trkpt>
      <trkpt lat="43.86521" lon="6.28862">
        <ele>1184.96</ele>
        <time>2019-06-24T14:24:07Z</time>
      </trkpt>
      <trkpt lat="43.86494" lon="6.28884">
        <ele>1184.96</ele>
        <time>2019-06-24T14:24:10Z</time>
      </trkpt>
      <trkpt lat="43.86485" lon="6.28893">
        <ele>1184.96</ele>
        <time>2019-06-24T14:24:11Z</time>
      </trkpt>
      <trkpt lat="43.86475" lon="6.28904">
        <ele>1184.96</ele>
        <time>2019-06-24T14:24:12Z</time>
      </trkpt>
      <trkpt lat="43.86398" lon="6.29002">
        <ele>1186.4</ele>
        <time>2019-06-24T14:24:21Z</time>
      </trkpt>
      <trkpt lat="43.86391" lon="6.2901">
        <ele>1185.92</ele>
        <time>2019-06-24T14:24:22Z</time>
      </trkpt>
      <trkpt lat="43.86385" lon="6.29015">
        <ele>1185.44</ele>
        <time>2019-06-24T14:24:23Z</time>
      </trkpt>
      <trkpt lat="43.86378" lon="6.29017">
        <ele>1184.96</ele>
        <time>2019-06-24T14:24:24Z</time>
      </trkpt>
      <trkpt lat="43.86372" lon="6.29018">
        <ele>1184.48</ele>
        <time>2019-06-24T14:24:25Z</time>
      </trkpt>
      <trkpt lat="43.86366" lon="6.29016">
        <ele>1184</ele>
        <time>2019-06-24T14:24:26Z</time>
      </trkpt>
      <trkpt lat="43.8636" lon="6.29013">
        <ele>1184</ele>
        <time>2019-06-24T14:24:27Z</time>
      </trkpt>
      <trkpt lat="43.86355" lon="6.29009">
        <ele>1184.48</ele>
        <time>2019-06-24T14:24:28Z</time>
      </trkpt>
      <trkpt lat="43.86351" lon="6.29003">
        <ele>1184</ele>
        <time>2019-06-24T14:24:29Z</time>
      </trkpt>
      <trkpt lat="43.86347" lon="6.28997">
        <ele>1184</ele>
        <time>2019-06-24T14:24:30Z</time>
      </trkpt>
      <trkpt lat="43.86343" lon="6.28993">
        <ele>1184</ele>
        <time>2019-06-24T14:24:31Z</time>
      </trkpt>
      <trkpt lat="43.8634" lon="6.2899">
        <ele>1184</ele>
        <time>2019-06-24T14:24:32Z</time>
      </trkpt>
      <trkpt lat="43.86337" lon="6.28989">
        <ele>1184</ele>
        <time>2019-06-24T14:24:33Z</time>
      </trkpt>
      <trkpt lat="43.86335" lon="6.28989">
        <ele>1184.48</ele>
        <time>2019-06-24T14:24:34Z</time>
      </trkpt>
      <trkpt lat="43.86332" lon="6.28988">
        <ele>1184</ele>
        <time>2019-06-24T14:24:35Z</time>
      </trkpt>
      <trkpt lat="43.8633" lon="6.28989">
        <ele>1184</ele>
        <time>2019-06-24T14:24:36Z</time>
      </trkpt>
      <trkpt lat="43.86328" lon="6.2899">
        <ele>1184</ele>
        <time>2019-06-24T14:24:37Z</time>
      </trkpt>
      <trkpt lat="43.86325" lon="6.28992">
        <ele>1184</ele>
        <time>2019-06-24T14:24:38Z</time>
      </trkpt>
      <trkpt lat="43.86307" lon="6.29012">
        <ele>1184</ele>
        <time>2019-06-24T14:24:44Z</time>
      </trkpt>
      <trkpt lat="43.86303" lon="6.29017">
        <ele>1184</ele>
        <time>2019-06-24T14:24:45Z</time>
      </trkpt>
      <trkpt lat="43.86274" lon="6.29061">
        <ele>1183.04</ele>
        <time>2019-06-24T14:24:51Z</time>
      </trkpt>
      <trkpt lat="43.8627" lon="6.29072">
        <ele>1183.04</ele>
        <time>2019-06-24T14:24:52Z</time>
      </trkpt>
      <trkpt lat="43.86238" lon="6.29149">
        <ele>1183.04</ele>
        <time>2019-06-24T14:24:59Z</time>
      </trkpt>
      <trkpt lat="43.86184" lon="6.29216">
        <ele>1182.56</ele>
        <time>2019-06-24T14:25:06Z</time>
      </trkpt>
      <trkpt lat="43.86178" lon="6.29225">
        <ele>1181.6</ele>
        <time>2019-06-24T14:25:07Z</time>
      </trkpt>
      <trkpt lat="43.86173" lon="6.29235">
        <ele>1181.12</ele>
        <time>2019-06-24T14:25:08Z</time>
      </trkpt>
      <trkpt lat="43.86171" lon="6.29247">
        <ele>1181.6</ele>
        <time>2019-06-24T14:25:09Z</time>
      </trkpt>
      <trkpt lat="43.86169" lon="6.29258">
        <ele>1182.08</ele>
        <time>2019-06-24T14:25:10Z</time>
      </trkpt>
      <trkpt lat="43.86158" lon="6.29304">
        <ele>1181.12</ele>
        <time>2019-06-24T14:25:14Z</time>
      </trkpt>
      <trkpt lat="43.86153" lon="6.29314">
        <ele>1180.64</ele>
        <time>2019-06-24T14:25:15Z</time>
      </trkpt>
      <trkpt lat="43.86147" lon="6.29324">
        <ele>1180.64</ele>
        <time>2019-06-24T14:25:16Z</time>
      </trkpt>
      <trkpt lat="43.86141" lon="6.29332">
        <ele>1180.16</ele>
        <time>2019-06-24T14:25:17Z</time>
      </trkpt>
      <trkpt lat="43.86135" lon="6.29338">
        <ele>1180.16</ele>
        <time>2019-06-24T14:25:18Z</time>
      </trkpt>
      <trkpt lat="43.8613" lon="6.29342">
        <ele>1180.16</ele>
        <time>2019-06-24T14:25:19Z</time>
      </trkpt>
      <trkpt lat="43.86124" lon="6.29345">
        <ele>1179.67</ele>
        <time>2019-06-24T14:25:20Z</time>
      </trkpt>
      <trkpt lat="43.86118" lon="6.29347">
        <ele>1179.67</ele>
        <time>2019-06-24T14:25:21Z</time>
      </trkpt>
      <trkpt lat="43.86112" lon="6.29352">
        <ele>1180.16</ele>
        <time>2019-06-24T14:25:22Z</time>
      </trkpt>
      <trkpt lat="43.86107" lon="6.29357">
        <ele>1179.19</ele>
        <time>2019-06-24T14:25:23Z</time>
      </trkpt>
      <trkpt lat="43.86104" lon="6.29365">
        <ele>1179.19</ele>
        <time>2019-06-24T14:25:24Z</time>
      </trkpt>
      <trkpt lat="43.86101" lon="6.29374">
        <ele>1179.19</ele>
        <time>2019-06-24T14:25:25Z</time>
      </trkpt>
      <trkpt lat="43.86098" lon="6.29382">
        <ele>1179.19</ele>
        <time>2019-06-24T14:25:26Z</time>
      </trkpt>
      <trkpt lat="43.86094" lon="6.2939">
        <ele>1178.71</ele>
        <time>2019-06-24T14:25:27Z</time>
      </trkpt>
      <trkpt lat="43.86089" lon="6.29396">
        <ele>1178.23</ele>
        <time>2019-06-24T14:25:28Z</time>
      </trkpt>
      <trkpt lat="43.86083" lon="6.29402">
        <ele>1178.71</ele>
        <time>2019-06-24T14:25:29Z</time>
      </trkpt>
      <trkpt lat="43.86047" lon="6.29432">
        <ele>1179.19</ele>
        <time>2019-06-24T14:25:34Z</time>
      </trkpt>
      <trkpt lat="43.86042" lon="6.2944">
        <ele>1179.67</ele>
        <time>2019-06-24T14:25:35Z</time>
      </trkpt>
      <trkpt lat="43.86039" lon="6.29447">
        <ele>1180.16</ele>
        <time>2019-06-24T14:25:36Z</time>
      </trkpt>
      <trkpt lat="43.86038" lon="6.29454">
        <ele>1180.16</ele>
        <time>2019-06-24T14:25:37Z</time>
      </trkpt>
      <trkpt lat="43.86039" lon="6.29461">
        <ele>1180.64</ele>
        <time>2019-06-24T14:25:38Z</time>
      </trkpt>
      <trkpt lat="43.8604" lon="6.29468">
        <ele>1180.64</ele>
        <time>2019-06-24T14:25:39Z</time>
      </trkpt>
      <trkpt lat="43.86044" lon="6.29473">
        <ele>1181.12</ele>
        <time>2019-06-24T14:25:40Z</time>
      </trkpt>
      <trkpt lat="43.86049" lon="6.29477">
        <ele>1181.12</ele>
        <time>2019-06-24T14:25:41Z</time>
      </trkpt>
      <trkpt lat="43.86056" lon="6.29481">
        <ele>1181.12</ele>
        <time>2019-06-24T14:25:42Z</time>
      </trkpt>
      <trkpt lat="43.86064" lon="6.29483">
        <ele>1181.6</ele>
        <time>2019-06-24T14:25:43Z</time>
      </trkpt>
      <trkpt lat="43.86071" lon="6.29486">
        <ele>1182.56</ele>
        <time>2019-06-24T14:25:44Z</time>
      </trkpt>
      <trkpt lat="43.86078" lon="6.29489">
        <ele>1183.04</ele>
        <time>2019-06-24T14:25:45Z</time>
      </trkpt>
      <trkpt lat="43.86083" lon="6.29492">
        <ele>1183.52</ele>
        <time>2019-06-24T14:25:46Z</time>
      </trkpt>
      <trkpt lat="43.86087" lon="6.29495">
        <ele>1183.52</ele>
        <time>2019-06-24T14:25:47Z</time>
      </trkpt>
      <trkpt lat="43.8609" lon="6.29498">
        <ele>1183.52</ele>
        <time>2019-06-24T14:25:48Z</time>
      </trkpt>
      <trkpt lat="43.86092" lon="6.29499">
        <ele>1183.52</ele>
        <time>2019-06-24T14:25:49Z</time>
      </trkpt>
      <trkpt lat="43.86091" lon="6.29506">
        <ele>1184.48</ele>
        <time>2019-06-24T14:26:03Z</time>
      </trkpt>
      <trkpt lat="43.86092" lon="6.29509">
        <ele>1184.48</ele>
        <time>2019-06-24T14:26:14Z</time>
      </trkpt>
      <trkpt lat="43.86101" lon="6.29537">
        <ele>1185.92</ele>
        <time>2019-06-24T14:26:19Z</time>
      </trkpt>
      <trkpt lat="43.86106" lon="6.29541">
        <ele>1186.4</ele>
        <time>2019-06-24T14:26:20Z</time>
      </trkpt>
      <trkpt lat="43.86112" lon="6.29543">
        <ele>1187.85</ele>
        <time>2019-06-24T14:26:21Z</time>
      </trkpt>
      <trkpt lat="43.86119" lon="6.29544">
        <ele>1188.81</ele>
        <time>2019-06-24T14:26:22Z</time>
      </trkpt>
      <trkpt lat="43.86126" lon="6.29544">
        <ele>1189.29</ele>
        <time>2019-06-24T14:26:23Z</time>
      </trkpt>
      <trkpt lat="43.86134" lon="6.29546">
        <ele>1189.77</ele>
        <time>2019-06-24T14:26:24Z</time>
      </trkpt>
      <trkpt lat="43.86141" lon="6.29548">
        <ele>1190.73</ele>
        <time>2019-06-24T14:26:25Z</time>
      </trkpt>
      <trkpt lat="43.86148" lon="6.29551">
        <ele>1191.21</ele>
        <time>2019-06-24T14:26:26Z</time>
      </trkpt>
      <trkpt lat="43.86154" lon="6.29556">
        <ele>1191.69</ele>
        <time>2019-06-24T14:26:27Z</time>
      </trkpt>
      <trkpt lat="43.86161" lon="6.29561">
        <ele>1193.13</ele>
        <time>2019-06-24T14:26:28Z</time>
      </trkpt>
      <trkpt lat="43.86167" lon="6.29567">
        <ele>1193.61</ele>
        <time>2019-06-24T14:26:29Z</time>
      </trkpt>
      <trkpt lat="43.86172" lon="6.29574">
        <ele>1194.58</ele>
        <time>2019-06-24T14:26:30Z</time>
      </trkpt>
      <trkpt lat="43.86178" lon="6.29582">
        <ele>1195.06</ele>
        <time>2019-06-24T14:26:31Z</time>
      </trkpt>
      <trkpt lat="43.86183" lon="6.29589">
        <ele>1196.02</ele>
        <time>2019-06-24T14:26:32Z</time>
      </trkpt>
      <trkpt lat="43.86187" lon="6.29597">
        <ele>1196.98</ele>
        <time>2019-06-24T14:26:33Z</time>
      </trkpt>
      <trkpt lat="43.86188" lon="6.29604">
        <ele>1197.46</ele>
        <time>2019-06-24T14:26:34Z</time>
      </trkpt>
      <trkpt lat="43.86188" lon="6.2961">
        <ele>1197.46</ele>
        <time>2019-06-24T14:26:35Z</time>
      </trkpt>
      <trkpt lat="43.86185" lon="6.29616">
        <ele>1198.42</ele>
        <time>2019-06-24T14:26:36Z</time>
      </trkpt>
      <trkpt lat="43.86182" lon="6.29619">
        <ele>1198.9</ele>
        <time>2019-06-24T14:26:37Z</time>
      </trkpt>
      <trkpt lat="43.86177" lon="6.29619">
        <ele>1199.38</ele>
        <time>2019-06-24T14:26:38Z</time>
      </trkpt>
      <trkpt lat="43.86172" lon="6.29617">
        <ele>1199.86</ele>
        <time>2019-06-24T14:26:39Z</time>
      </trkpt>
      <trkpt lat="43.86168" lon="6.29612">
        <ele>1199.86</ele>
        <time>2019-06-24T14:26:40Z</time>
      </trkpt>
      <trkpt lat="43.8615" lon="6.29599">
        <ele>1202.75</ele>
        <time>2019-06-24T14:26:43Z</time>
      </trkpt>
      <trkpt lat="43.86143" lon="6.29596">
        <ele>1202.75</ele>
        <time>2019-06-24T14:26:44Z</time>
      </trkpt>
      <trkpt lat="43.86135" lon="6.29595">
        <ele>1203.71</ele>
        <time>2019-06-24T14:26:45Z</time>
      </trkpt>
      <trkpt lat="43.86127" lon="6.29596">
        <ele>1205.15</ele>
        <time>2019-06-24T14:26:46Z</time>
      </trkpt>
      <trkpt lat="43.86118" lon="6.29599">
        <ele>1205.63</ele>
        <time>2019-06-24T14:26:47Z</time>
      </trkpt>
      <trkpt lat="43.86109" lon="6.29602">
        <ele>1205.63</ele>
        <time>2019-06-24T14:26:48Z</time>
      </trkpt>
      <trkpt lat="43.86092" lon="6.29611">
        <ele>1207.07</ele>
        <time>2019-06-24T14:26:50Z</time>
      </trkpt>
      <trkpt lat="43.86069" lon="6.2962">
        <ele>1209</ele>
        <time>2019-06-24T14:26:53Z</time>
      </trkpt>
      <trkpt lat="43.86061" lon="6.2962">
        <ele>1209.96</ele>
        <time>2019-06-24T14:26:54Z</time>
      </trkpt>
      <trkpt lat="43.86049" lon="6.29618">
        <ele>1210.92</ele>
        <time>2019-06-24T14:26:56Z</time>
      </trkpt>
      <trkpt lat="43.86042" lon="6.2962">
        <ele>1211.4</ele>
        <time>2019-06-24T14:26:58Z</time>
      </trkpt>
      <trkpt lat="43.86041" lon="6.29624">
        <ele>1212.36</ele>
        <time>2019-06-24T14:26:59Z</time>
      </trkpt>
      <trkpt lat="43.86041" lon="6.29629">
        <ele>1212.84</ele>
        <time>2019-06-24T14:27:00Z</time>
      </trkpt>
      <trkpt lat="43.86044" lon="6.29634">
        <ele>1212.84</ele>
        <time>2019-06-24T14:27:01Z</time>
      </trkpt>
      <trkpt lat="43.86047" lon="6.29638">
        <ele>1213.32</ele>
        <time>2019-06-24T14:27:02Z</time>
      </trkpt>
      <trkpt lat="43.86053" lon="6.29641">
        <ele>1213.32</ele>
        <time>2019-06-24T14:27:03Z</time>
      </trkpt>
      <trkpt lat="43.86059" lon="6.29642">
        <ele>1214.28</ele>
        <time>2019-06-24T14:27:04Z</time>
      </trkpt>
      <trkpt lat="43.86065" lon="6.29643">
        <ele>1214.76</ele>
        <time>2019-06-24T14:27:05Z</time>
      </trkpt>
      <trkpt lat="43.86073" lon="6.29643">
        <ele>1215.24</ele>
        <time>2019-06-24T14:27:06Z</time>
      </trkpt>
      <trkpt lat="43.86104" lon="6.29647">
        <ele>1217.17</ele>
        <time>2019-06-24T14:27:10Z</time>
      </trkpt>
      <trkpt lat="43.86111" lon="6.2965">
        <ele>1217.65</ele>
        <time>2019-06-24T14:27:11Z</time>
      </trkpt>
      <trkpt lat="43.86117" lon="6.29653">
        <ele>1217.65</ele>
        <time>2019-06-24T14:27:12Z</time>
      </trkpt>
      <trkpt lat="43.86122" lon="6.29657">
        <ele>1219.09</ele>
        <time>2019-06-24T14:27:13Z</time>
      </trkpt>
      <trkpt lat="43.86127" lon="6.29661">
        <ele>1219.09</ele>
        <time>2019-06-24T14:27:14Z</time>
      </trkpt>
      <trkpt lat="43.86132" lon="6.29666">
        <ele>1219.57</ele>
        <time>2019-06-24T14:27:15Z</time>
      </trkpt>
      <trkpt lat="43.86169" lon="6.297">
        <ele>1223.42</ele>
        <time>2019-06-24T14:27:20Z</time>
      </trkpt>
      <trkpt lat="43.86185" lon="6.29714">
        <ele>1225.34</ele>
        <time>2019-06-24T14:27:22Z</time>
      </trkpt>
      <trkpt lat="43.86203" lon="6.29738">
        <ele>1227.74</ele>
        <time>2019-06-24T14:27:25Z</time>
      </trkpt>
      <trkpt lat="43.86206" lon="6.29747">
        <ele>1228.22</ele>
        <time>2019-06-24T14:27:26Z</time>
      </trkpt>
      <trkpt lat="43.86207" lon="6.29757">
        <ele>1229.18</ele>
        <time>2019-06-24T14:27:27Z</time>
      </trkpt>
      <trkpt lat="43.86208" lon="6.29769">
        <ele>1230.14</ele>
        <time>2019-06-24T14:27:28Z</time>
      </trkpt>
      <trkpt lat="43.86208" lon="6.29781">
        <ele>1231.11</ele>
        <time>2019-06-24T14:27:29Z</time>
      </trkpt>
      <trkpt lat="43.86209" lon="6.29793">
        <ele>1231.59</ele>
        <time>2019-06-24T14:27:30Z</time>
      </trkpt>
      <trkpt lat="43.86211" lon="6.29803">
        <ele>1232.07</ele>
        <time>2019-06-24T14:27:31Z</time>
      </trkpt>
      <trkpt lat="43.86215" lon="6.29813">
        <ele>1232.55</ele>
        <time>2019-06-24T14:27:32Z</time>
      </trkpt>
      <trkpt lat="43.8622" lon="6.2982">
        <ele>1233.51</ele>
        <time>2019-06-24T14:27:33Z</time>
      </trkpt>
      <trkpt lat="43.86227" lon="6.29827">
        <ele>1234.47</ele>
        <time>2019-06-24T14:27:34Z</time>
      </trkpt>
      <trkpt lat="43.86235" lon="6.29833">
        <ele>1234.95</ele>
        <time>2019-06-24T14:27:35Z</time>
      </trkpt>
      <trkpt lat="43.8625" lon="6.29848">
        <ele>1236.87</ele>
        <time>2019-06-24T14:27:37Z</time>
      </trkpt>
      <trkpt lat="43.86256" lon="6.29856">
        <ele>1236.87</ele>
        <time>2019-06-24T14:27:38Z</time>
      </trkpt>
      <trkpt lat="43.86262" lon="6.29864">
        <ele>1237.83</ele>
        <time>2019-06-24T14:27:39Z</time>
      </trkpt>
      <trkpt lat="43.86268" lon="6.29869">
        <ele>1237.83</ele>
        <time>2019-06-24T14:27:40Z</time>
      </trkpt>
      <trkpt lat="43.86275" lon="6.29871">
        <ele>1237.83</ele>
        <time>2019-06-24T14:27:41Z</time>
      </trkpt>
      <trkpt lat="43.86282" lon="6.29868">
        <ele>1236.87</ele>
        <time>2019-06-24T14:27:42Z</time>
      </trkpt>
      <trkpt lat="43.86288" lon="6.29863">
        <ele>1236.87</ele>
        <time>2019-06-24T14:27:43Z</time>
      </trkpt>
      <trkpt lat="43.86292" lon="6.29855">
        <ele>1238.8</ele>
        <time>2019-06-24T14:27:44Z</time>
      </trkpt>
      <trkpt lat="43.86296" lon="6.29848">
        <ele>1238.8</ele>
        <time>2019-06-24T14:27:45Z</time>
      </trkpt>
      <trkpt lat="43.86308" lon="6.29802">
        <ele>1242.16</ele>
        <time>2019-06-24T14:27:49Z</time>
      </trkpt>
      <trkpt lat="43.86313" lon="6.29793">
        <ele>1243.12</ele>
        <time>2019-06-24T14:27:50Z</time>
      </trkpt>
      <trkpt lat="43.86318" lon="6.29784">
        <ele>1243.6</ele>
        <time>2019-06-24T14:27:51Z</time>
      </trkpt>
      <trkpt lat="43.86345" lon="6.29755">
        <ele>1245.04</ele>
        <time>2019-06-24T14:27:55Z</time>
      </trkpt>
      <trkpt lat="43.86353" lon="6.29751">
        <ele>1245.04</ele>
        <time>2019-06-24T14:27:56Z</time>
      </trkpt>
      <trkpt lat="43.86359" lon="6.29749">
        <ele>1245.53</ele>
        <time>2019-06-24T14:27:57Z</time>
      </trkpt>
      <trkpt lat="43.86365" lon="6.29748">
        <ele>1244.56</ele>
        <time>2019-06-24T14:27:58Z</time>
      </trkpt>
      <trkpt lat="43.86371" lon="6.29748">
        <ele>1245.04</ele>
        <time>2019-06-24T14:27:59Z</time>
      </trkpt>
      <trkpt lat="43.86438" lon="6.29738">
        <ele>1247.45</ele>
        <time>2019-06-24T14:28:06Z</time>
      </trkpt>
      <trkpt lat="43.86465" lon="6.29734">
        <ele>1248.89</ele>
        <time>2019-06-24T14:28:09Z</time>
      </trkpt>
      <trkpt lat="43.86471" lon="6.29729">
        <ele>1248.41</ele>
        <time>2019-06-24T14:28:10Z</time>
      </trkpt>
      <trkpt lat="43.86474" lon="6.29722">
        <ele>1248.89</ele>
        <time>2019-06-24T14:28:11Z</time>
      </trkpt>
      <trkpt lat="43.86476" lon="6.29712">
        <ele>1249.37</ele>
        <time>2019-06-24T14:28:12Z</time>
      </trkpt>
      <trkpt lat="43.86475" lon="6.29701">
        <ele>1249.85</ele>
        <time>2019-06-24T14:28:13Z</time>
      </trkpt>
      <trkpt lat="43.86472" lon="6.29688">
        <ele>1250.33</ele>
        <time>2019-06-24T14:28:14Z</time>
      </trkpt>
      <trkpt lat="43.86467" lon="6.29676">
        <ele>1250.81</ele>
        <time>2019-06-24T14:28:15Z</time>
      </trkpt>
      <trkpt lat="43.86462" lon="6.29663">
        <ele>1251.29</ele>
        <time>2019-06-24T14:28:16Z</time>
      </trkpt>
      <trkpt lat="43.86455" lon="6.2964">
        <ele>1251.29</ele>
        <time>2019-06-24T14:28:18Z</time>
      </trkpt>
      <trkpt lat="43.86454" lon="6.2963">
        <ele>1252.25</ele>
        <time>2019-06-24T14:28:19Z</time>
      </trkpt>
      <trkpt lat="43.86455" lon="6.29619">
        <ele>1252.74</ele>
        <time>2019-06-24T14:28:20Z</time>
      </trkpt>
      <trkpt lat="43.86456" lon="6.29608">
        <ele>1252.74</ele>
        <time>2019-06-24T14:28:21Z</time>
      </trkpt>
      <trkpt lat="43.86456" lon="6.29597">
        <ele>1253.7</ele>
        <time>2019-06-24T14:28:22Z</time>
      </trkpt>
      <trkpt lat="43.86455" lon="6.29587">
        <ele>1253.7</ele>
        <time>2019-06-24T14:28:23Z</time>
      </trkpt>
      <trkpt lat="43.86452" lon="6.29576">
        <ele>1254.18</ele>
        <time>2019-06-24T14:28:24Z</time>
      </trkpt>
      <trkpt lat="43.86447" lon="6.29567">
        <ele>1254.66</ele>
        <time>2019-06-24T14:28:25Z</time>
      </trkpt>
      <trkpt lat="43.86442" lon="6.29558">
        <ele>1255.14</ele>
        <time>2019-06-24T14:28:26Z</time>
      </trkpt>
      <trkpt lat="43.86438" lon="6.29549">
        <ele>1255.14</ele>
        <time>2019-06-24T14:28:27Z</time>
      </trkpt>
      <trkpt lat="43.86436" lon="6.29539">
        <ele>1256.1</ele>
        <time>2019-06-24T14:28:28Z</time>
      </trkpt>
      <trkpt lat="43.86437" lon="6.2953">
        <ele>1256.1</ele>
        <time>2019-06-24T14:28:29Z</time>
      </trkpt>
      <trkpt lat="43.86441" lon="6.29522">
        <ele>1256.1</ele>
        <time>2019-06-24T14:28:30Z</time>
      </trkpt>
      <trkpt lat="43.86448" lon="6.29516">
        <ele>1257.06</ele>
        <time>2019-06-24T14:28:31Z</time>
      </trkpt>
      <trkpt lat="43.86455" lon="6.29512">
        <ele>1257.54</ele>
        <time>2019-06-24T14:28:32Z</time>
      </trkpt>
      <trkpt lat="43.86464" lon="6.2951">
        <ele>1257.54</ele>
        <time>2019-06-24T14:28:33Z</time>
      </trkpt>
      <trkpt lat="43.86473" lon="6.29509">
        <ele>1257.54</ele>
        <time>2019-06-24T14:28:34Z</time>
      </trkpt>
      <trkpt lat="43.86483" lon="6.29509">
        <ele>1258.02</ele>
        <time>2019-06-24T14:28:35Z</time>
      </trkpt>
      <trkpt lat="43.86495" lon="6.29511">
        <ele>1258.98</ele>
        <time>2019-06-24T14:28:36Z</time>
      </trkpt>
      <trkpt lat="43.86556" lon="6.29519">
        <ele>1261.87</ele>
        <time>2019-06-24T14:28:41Z</time>
      </trkpt>
      <trkpt lat="43.86611" lon="6.29535">
        <ele>1263.31</ele>
        <time>2019-06-24T14:28:46Z</time>
      </trkpt>
      <trkpt lat="43.86619" lon="6.2954">
        <ele>1263.79</ele>
        <time>2019-06-24T14:28:47Z</time>
      </trkpt>
      <trkpt lat="43.86624" lon="6.29549">
        <ele>1264.27</ele>
        <time>2019-06-24T14:28:48Z</time>
      </trkpt>
      <trkpt lat="43.86627" lon="6.29559">
        <ele>1264.75</ele>
        <time>2019-06-24T14:28:49Z</time>
      </trkpt>
      <trkpt lat="43.8663" lon="6.29568">
        <ele>1264.75</ele>
        <time>2019-06-24T14:28:50Z</time>
      </trkpt>
      <trkpt lat="43.86634" lon="6.29577">
        <ele>1265.23</ele>
        <time>2019-06-24T14:28:51Z</time>
      </trkpt>
      <trkpt lat="43.86639" lon="6.29584">
        <ele>1265.71</ele>
        <time>2019-06-24T14:28:52Z</time>
      </trkpt>
      <trkpt lat="43.86645" lon="6.2959">
        <ele>1266.67</ele>
        <time>2019-06-24T14:28:53Z</time>
      </trkpt>
      <trkpt lat="43.86653" lon="6.29594">
        <ele>1266.67</ele>
        <time>2019-06-24T14:28:54Z</time>
      </trkpt>
      <trkpt lat="43.86661" lon="6.29595">
        <ele>1266.67</ele>
        <time>2019-06-24T14:28:55Z</time>
      </trkpt>
      <trkpt lat="43.86671" lon="6.29595">
        <ele>1267.64</ele>
        <time>2019-06-24T14:28:56Z</time>
      </trkpt>
      <trkpt lat="43.86681" lon="6.29592">
        <ele>1268.12</ele>
        <time>2019-06-24T14:28:57Z</time>
      </trkpt>
      <trkpt lat="43.8669" lon="6.29589">
        <ele>1269.08</ele>
        <time>2019-06-24T14:28:58Z</time>
      </trkpt>
      <trkpt lat="43.86709" lon="6.29583">
        <ele>1268.6</ele>
        <time>2019-06-24T14:29:00Z</time>
      </trkpt>
      <trkpt lat="43.86717" lon="6.29583">
        <ele>1270.04</ele>
        <time>2019-06-24T14:29:01Z</time>
      </trkpt>
      <trkpt lat="43.86726" lon="6.29584">
        <ele>1270.04</ele>
        <time>2019-06-24T14:29:02Z</time>
      </trkpt>
      <trkpt lat="43.86735" lon="6.29586">
        <ele>1270.04</ele>
        <time>2019-06-24T14:29:03Z</time>
      </trkpt>
      <trkpt lat="43.86744" lon="6.29589">
        <ele>1270.04</ele>
        <time>2019-06-24T14:29:04Z</time>
      </trkpt>
      <trkpt lat="43.86752" lon="6.29593">
        <ele>1270.04</ele>
        <time>2019-06-24T14:29:05Z</time>
      </trkpt>
      <trkpt lat="43.8676" lon="6.29597">
        <ele>1271</ele>
        <time>2019-06-24T14:29:06Z</time>
      </trkpt>
      <trkpt lat="43.86767" lon="6.296">
        <ele>1270.52</ele>
        <time>2019-06-24T14:29:07Z</time>
      </trkpt>
      <trkpt lat="43.86774" lon="6.29601">
        <ele>1271</ele>
        <time>2019-06-24T14:29:08Z</time>
      </trkpt>
      <trkpt lat="43.8678" lon="6.296">
        <ele>1271</ele>
        <time>2019-06-24T14:29:09Z</time>
      </trkpt>
      <trkpt lat="43.86787" lon="6.29596">
        <ele>1271</ele>
        <time>2019-06-24T14:29:10Z</time>
      </trkpt>
      <trkpt lat="43.86794" lon="6.29591">
        <ele>1271.48</ele>
        <time>2019-06-24T14:29:11Z</time>
      </trkpt>
      <trkpt lat="43.868" lon="6.29585">
        <ele>1271.96</ele>
        <time>2019-06-24T14:29:12Z</time>
      </trkpt>
      <trkpt lat="43.86805" lon="6.29579">
        <ele>1271.48</ele>
        <time>2019-06-24T14:29:13Z</time>
      </trkpt>
      <trkpt lat="43.8681" lon="6.29573">
        <ele>1271.48</ele>
        <time>2019-06-24T14:29:14Z</time>
      </trkpt>
      <trkpt lat="43.86815" lon="6.29568">
        <ele>1271.48</ele>
        <time>2019-06-24T14:29:15Z</time>
      </trkpt>
      <trkpt lat="43.86821" lon="6.29565">
        <ele>1272.44</ele>
        <time>2019-06-24T14:29:16Z</time>
      </trkpt>
      <trkpt lat="43.86829" lon="6.29568">
        <ele>1272.44</ele>
        <time>2019-06-24T14:29:17Z</time>
      </trkpt>
      <trkpt lat="43.86837" lon="6.29573">
        <ele>1272.92</ele>
        <time>2019-06-24T14:29:18Z</time>
      </trkpt>
      <trkpt lat="43.86845" lon="6.29579">
        <ele>1272.92</ele>
        <time>2019-06-24T14:29:19Z</time>
      </trkpt>
      <trkpt lat="43.86852" lon="6.29585">
        <ele>1271.96</ele>
        <time>2019-06-24T14:29:20Z</time>
      </trkpt>
      <trkpt lat="43.86866" lon="6.296">
        <ele>1272.44</ele>
        <time>2019-06-24T14:29:22Z</time>
      </trkpt>
      <trkpt lat="43.86873" lon="6.29609">
        <ele>1272.92</ele>
        <time>2019-06-24T14:29:23Z</time>
      </trkpt>
      <trkpt lat="43.86878" lon="6.29619">
        <ele>1273.4</ele>
        <time>2019-06-24T14:29:24Z</time>
      </trkpt>
      <trkpt lat="43.86889" lon="6.29639">
        <ele>1272.44</ele>
        <time>2019-06-24T14:29:26Z</time>
      </trkpt>
      <trkpt lat="43.86902" lon="6.29656">
        <ele>1272.92</ele>
        <time>2019-06-24T14:29:28Z</time>
      </trkpt>
      <trkpt lat="43.86909" lon="6.29662">
        <ele>1272.92</ele>
        <time>2019-06-24T14:29:29Z</time>
      </trkpt>
      <trkpt lat="43.86922" lon="6.29674">
        <ele>1271.48</ele>
        <time>2019-06-24T14:29:31Z</time>
      </trkpt>
      <trkpt lat="43.86927" lon="6.29682">
        <ele>1271.96</ele>
        <time>2019-06-24T14:29:32Z</time>
      </trkpt>
      <trkpt lat="43.86932" lon="6.29691">
        <ele>1271.48</ele>
        <time>2019-06-24T14:29:33Z</time>
      </trkpt>
      <trkpt lat="43.86936" lon="6.297">
        <ele>1271</ele>
        <time>2019-06-24T14:29:34Z</time>
      </trkpt>
      <trkpt lat="43.8694" lon="6.29711">
        <ele>1271.96</ele>
        <time>2019-06-24T14:29:35Z</time>
      </trkpt>
      <trkpt lat="43.86943" lon="6.29722">
        <ele>1272.44</ele>
        <time>2019-06-24T14:29:36Z</time>
      </trkpt>
      <trkpt lat="43.86946" lon="6.29731">
        <ele>1271.96</ele>
        <time>2019-06-24T14:29:37Z</time>
      </trkpt>
      <trkpt lat="43.86949" lon="6.29737">
        <ele>1271.96</ele>
        <time>2019-06-24T14:29:38Z</time>
      </trkpt>
      <trkpt lat="43.86954" lon="6.29739">
        <ele>1272.44</ele>
        <time>2019-06-24T14:29:39Z</time>
      </trkpt>
      <trkpt lat="43.86958" lon="6.29737">
        <ele>1272.92</ele>
        <time>2019-06-24T14:29:40Z</time>
      </trkpt>
      <trkpt lat="43.86962" lon="6.29732">
        <ele>1272.44</ele>
        <time>2019-06-24T14:29:41Z</time>
      </trkpt>
      <trkpt lat="43.86966" lon="6.29726">
        <ele>1272.92</ele>
        <time>2019-06-24T14:29:42Z</time>
      </trkpt>
      <trkpt lat="43.8697" lon="6.29718">
        <ele>1273.4</ele>
        <time>2019-06-24T14:29:43Z</time>
      </trkpt>
      <trkpt lat="43.86974" lon="6.2971">
        <ele>1273.4</ele>
        <time>2019-06-24T14:29:44Z</time>
      </trkpt>
      <trkpt lat="43.86982" lon="6.29697">
        <ele>1274.85</ele>
        <time>2019-06-24T14:29:46Z</time>
      </trkpt>
      <trkpt lat="43.86988" lon="6.29691">
        <ele>1275.33</ele>
        <time>2019-06-24T14:29:47Z</time>
      </trkpt>
      <trkpt lat="43.87009" lon="6.29677">
        <ele>1276.77</ele>
        <time>2019-06-24T14:29:50Z</time>
      </trkpt>
      <trkpt lat="43.87016" lon="6.2967">
        <ele>1279.17</ele>
        <time>2019-06-24T14:29:51Z</time>
      </trkpt>
      <trkpt lat="43.87023" lon="6.29662">
        <ele>1279.17</ele>
        <time>2019-06-24T14:29:52Z</time>
      </trkpt>
      <trkpt lat="43.87031" lon="6.29654">
        <ele>1280.13</ele>
        <time>2019-06-24T14:29:53Z</time>
      </trkpt>
      <trkpt lat="43.87038" lon="6.29648">
        <ele>1281.09</ele>
        <time>2019-06-24T14:29:54Z</time>
      </trkpt>
      <trkpt lat="43.87046" lon="6.29643">
        <ele>1281.57</ele>
        <time>2019-06-24T14:29:55Z</time>
      </trkpt>
      <trkpt lat="43.87053" lon="6.29641">
        <ele>1282.06</ele>
        <time>2019-06-24T14:29:56Z</time>
      </trkpt>
      <trkpt lat="43.87058" lon="6.2964">
        <ele>1282.54</ele>
        <time>2019-06-24T14:29:57Z</time>
      </trkpt>
      <trkpt lat="43.8707" lon="6.29642">
        <ele>1282.54</ele>
        <time>2019-06-24T14:29:58Z</time>
      </trkpt>
      <trkpt lat="43.87088" lon="6.29645">
        <ele>1283.5</ele>
        <time>2019-06-24T14:30:00Z</time>
      </trkpt>
      <trkpt lat="43.87098" lon="6.29644">
        <ele>1284.46</ele>
        <time>2019-06-24T14:30:01Z</time>
      </trkpt>
      <trkpt lat="43.87109" lon="6.29642">
        <ele>1285.42</ele>
        <time>2019-06-24T14:30:02Z</time>
      </trkpt>
      <trkpt lat="43.87124" lon="6.29638">
        <ele>1285.9</ele>
        <time>2019-06-24T14:30:03Z</time>
      </trkpt>
      <trkpt lat="43.87184" lon="6.29625">
        <ele>1286.38</ele>
        <time>2019-06-24T14:30:10Z</time>
      </trkpt>
      <trkpt lat="43.87191" lon="6.29629">
        <ele>1286.38</ele>
        <time>2019-06-24T14:30:11Z</time>
      </trkpt>
      <trkpt lat="43.87197" lon="6.29635">
        <ele>1286.38</ele>
        <time>2019-06-24T14:30:12Z</time>
      </trkpt>
      <trkpt lat="43.87204" lon="6.29641">
        <ele>1286.86</ele>
        <time>2019-06-24T14:30:13Z</time>
      </trkpt>
      <trkpt lat="43.87209" lon="6.29649">
        <ele>1286.86</ele>
        <time>2019-06-24T14:30:14Z</time>
      </trkpt>
      <trkpt lat="43.87215" lon="6.29658">
        <ele>1287.34</ele>
        <time>2019-06-24T14:30:15Z</time>
      </trkpt>
      <trkpt lat="43.87228" lon="6.29673">
        <ele>1288.78</ele>
        <time>2019-06-24T14:30:17Z</time>
      </trkpt>
      <trkpt lat="43.87234" lon="6.29678">
        <ele>1289.27</ele>
        <time>2019-06-24T14:30:18Z</time>
      </trkpt>
      <trkpt lat="43.87242" lon="6.29682">
        <ele>1289.75</ele>
        <time>2019-06-24T14:30:19Z</time>
      </trkpt>
      <trkpt lat="43.8725" lon="6.29684">
        <ele>1290.71</ele>
        <time>2019-06-24T14:30:20Z</time>
      </trkpt>
      <trkpt lat="43.87259" lon="6.29683">
        <ele>1290.71</ele>
        <time>2019-06-24T14:30:21Z</time>
      </trkpt>
      <trkpt lat="43.87268" lon="6.2968">
        <ele>1291.67</ele>
        <time>2019-06-24T14:30:22Z</time>
      </trkpt>
      <trkpt lat="43.87274" lon="6.29678">
        <ele>1291.67</ele>
        <time>2019-06-24T14:30:23Z</time>
      </trkpt>
      <trkpt lat="43.87291" lon="6.29669">
        <ele>1293.11</ele>
        <time>2019-06-24T14:30:25Z</time>
      </trkpt>
      <trkpt lat="43.87323" lon="6.29651">
        <ele>1294.07</ele>
        <time>2019-06-24T14:30:29Z</time>
      </trkpt>
      <trkpt lat="43.87326" lon="6.2965">
        <ele>1294.55</ele>
        <time>2019-06-24T14:30:30Z</time>
      </trkpt>
      <trkpt lat="43.87329" lon="6.29651">
        <ele>1295.51</ele>
        <time>2019-06-24T14:30:31Z</time>
      </trkpt>
      <trkpt lat="43.87331" lon="6.29657">
        <ele>1295.03</ele>
        <time>2019-06-24T14:30:32Z</time>
      </trkpt>
      <trkpt lat="43.87331" lon="6.29664">
        <ele>1295.51</ele>
        <time>2019-06-24T14:30:33Z</time>
      </trkpt>
      <trkpt lat="43.87329" lon="6.29672">
        <ele>1295.99</ele>
        <time>2019-06-24T14:30:34Z</time>
      </trkpt>
      <trkpt lat="43.87326" lon="6.29679">
        <ele>1297.44</ele>
        <time>2019-06-24T14:30:35Z</time>
      </trkpt>
      <trkpt lat="43.87322" lon="6.29686">
        <ele>1297.92</ele>
        <time>2019-06-24T14:30:36Z</time>
      </trkpt>
      <trkpt lat="43.87317" lon="6.29695">
        <ele>1298.4</ele>
        <time>2019-06-24T14:30:37Z</time>
      </trkpt>
      <trkpt lat="43.87311" lon="6.29703">
        <ele>1299.36</ele>
        <time>2019-06-24T14:30:38Z</time>
      </trkpt>
      <trkpt lat="43.87291" lon="6.29732">
        <ele>1303.2</ele>
        <time>2019-06-24T14:30:41Z</time>
      </trkpt>
      <trkpt lat="43.87277" lon="6.29753">
        <ele>1305.13</ele>
        <time>2019-06-24T14:30:43Z</time>
      </trkpt>
      <trkpt lat="43.87253" lon="6.29782">
        <ele>1307.05</ele>
        <time>2019-06-24T14:30:47Z</time>
      </trkpt>
      <trkpt lat="43.87254" lon="6.29788">
        <ele>1307.05</ele>
        <time>2019-06-24T14:30:48Z</time>
      </trkpt>
      <trkpt lat="43.87257" lon="6.29792">
        <ele>1307.53</ele>
        <time>2019-06-24T14:30:49Z</time>
      </trkpt>
      <trkpt lat="43.87261" lon="6.29795">
        <ele>1308.01</ele>
        <time>2019-06-24T14:30:50Z</time>
      </trkpt>
      <trkpt lat="43.87266" lon="6.29797">
        <ele>1308.49</ele>
        <time>2019-06-24T14:30:51Z</time>
      </trkpt>
      <trkpt lat="43.87271" lon="6.29797">
        <ele>1308.97</ele>
        <time>2019-06-24T14:30:52Z</time>
      </trkpt>
      <trkpt lat="43.87277" lon="6.29796">
        <ele>1309.45</ele>
        <time>2019-06-24T14:30:53Z</time>
      </trkpt>
      <trkpt lat="43.873" lon="6.29788">
        <ele>1311.86</ele>
        <time>2019-06-24T14:30:56Z</time>
      </trkpt>
      <trkpt lat="43.87349" lon="6.29775">
        <ele>1314.74</ele>
        <time>2019-06-24T14:31:02Z</time>
      </trkpt>
      <trkpt lat="43.87354" lon="6.29769">
        <ele>1314.74</ele>
        <time>2019-06-24T14:31:03Z</time>
      </trkpt>
      <trkpt lat="43.87359" lon="6.29763">
        <ele>1315.22</ele>
        <time>2019-06-24T14:31:04Z</time>
      </trkpt>
      <trkpt lat="43.87374" lon="6.29727">
        <ele>1316.66</ele>
        <time>2019-06-24T14:31:09Z</time>
      </trkpt>
      <trkpt lat="43.87379" lon="6.29722">
        <ele>1316.66</ele>
        <time>2019-06-24T14:31:10Z</time>
      </trkpt>
      <trkpt lat="43.87384" lon="6.29718">
        <ele>1317.14</ele>
        <time>2019-06-24T14:31:11Z</time>
      </trkpt>
      <trkpt lat="43.8739" lon="6.29715">
        <ele>1317.14</ele>
        <time>2019-06-24T14:31:12Z</time>
      </trkpt>
      <trkpt lat="43.87396" lon="6.29715">
        <ele>1317.14</ele>
        <time>2019-06-24T14:31:13Z</time>
      </trkpt>
      <trkpt lat="43.87402" lon="6.29715">
        <ele>1317.62</ele>
        <time>2019-06-24T14:31:14Z</time>
      </trkpt>
      <trkpt lat="43.87408" lon="6.29716">
        <ele>1318.1</ele>
        <time>2019-06-24T14:31:15Z</time>
      </trkpt>
      <trkpt lat="43.87413" lon="6.2972">
        <ele>1319.07</ele>
        <time>2019-06-24T14:31:16Z</time>
      </trkpt>
      <trkpt lat="43.8742" lon="6.29725">
        <ele>1320.03</ele>
        <time>2019-06-24T14:31:17Z</time>
      </trkpt>
      <trkpt lat="43.87434" lon="6.29735">
        <ele>1320.99</ele>
        <time>2019-06-24T14:31:19Z</time>
      </trkpt>
      <trkpt lat="43.87441" lon="6.29741">
        <ele>1321.47</ele>
        <time>2019-06-24T14:31:20Z</time>
      </trkpt>
      <trkpt lat="43.87447" lon="6.29748">
        <ele>1322.43</ele>
        <time>2019-06-24T14:31:21Z</time>
      </trkpt>
      <trkpt lat="43.87453" lon="6.29755">
        <ele>1322.91</ele>
        <time>2019-06-24T14:31:22Z</time>
      </trkpt>
      <trkpt lat="43.87459" lon="6.29763">
        <ele>1322.43</ele>
        <time>2019-06-24T14:31:23Z</time>
      </trkpt>
      <trkpt lat="43.87466" lon="6.2977">
        <ele>1323.39</ele>
        <time>2019-06-24T14:31:24Z</time>
      </trkpt>
      <trkpt lat="43.87473" lon="6.29774">
        <ele>1324.83</ele>
        <time>2019-06-24T14:31:25Z</time>
      </trkpt>
      <trkpt lat="43.8748" lon="6.29775">
        <ele>1325.31</ele>
        <time>2019-06-24T14:31:26Z</time>
      </trkpt>
      <trkpt lat="43.87488" lon="6.29774">
        <ele>1325.8</ele>
        <time>2019-06-24T14:31:27Z</time>
      </trkpt>
      <trkpt lat="43.87496" lon="6.29771">
        <ele>1326.76</ele>
        <time>2019-06-24T14:31:28Z</time>
      </trkpt>
      <trkpt lat="43.87504" lon="6.29766">
        <ele>1327.24</ele>
        <time>2019-06-24T14:31:29Z</time>
      </trkpt>
      <trkpt lat="43.87511" lon="6.2976">
        <ele>1328.2</ele>
        <time>2019-06-24T14:31:30Z</time>
      </trkpt>
      <trkpt lat="43.87516" lon="6.29753">
        <ele>1328.68</ele>
        <time>2019-06-24T14:31:31Z</time>
      </trkpt>
      <trkpt lat="43.8752" lon="6.29746">
        <ele>1329.64</ele>
        <time>2019-06-24T14:31:32Z</time>
      </trkpt>
      <trkpt lat="43.87524" lon="6.2974">
        <ele>1329.64</ele>
        <time>2019-06-24T14:31:33Z</time>
      </trkpt>
      <trkpt lat="43.87528" lon="6.29736">
        <ele>1330.12</ele>
        <time>2019-06-24T14:31:34Z</time>
      </trkpt>
      <trkpt lat="43.87533" lon="6.29733">
        <ele>1329.64</ele>
        <time>2019-06-24T14:31:35Z</time>
      </trkpt>
      <trkpt lat="43.87539" lon="6.29733">
        <ele>1330.12</ele>
        <time>2019-06-24T14:31:36Z</time>
      </trkpt>
      <trkpt lat="43.87545" lon="6.29736">
        <ele>1330.6</ele>
        <time>2019-06-24T14:31:37Z</time>
      </trkpt>
      <trkpt lat="43.87553" lon="6.29739">
        <ele>1331.08</ele>
        <time>2019-06-24T14:31:38Z</time>
      </trkpt>
      <trkpt lat="43.8756" lon="6.29743">
        <ele>1331.56</ele>
        <time>2019-06-24T14:31:39Z</time>
      </trkpt>
      <trkpt lat="43.87568" lon="6.29744">
        <ele>1332.52</ele>
        <time>2019-06-24T14:31:40Z</time>
      </trkpt>
      <trkpt lat="43.87576" lon="6.29743">
        <ele>1333.01</ele>
        <time>2019-06-24T14:31:41Z</time>
      </trkpt>
      <trkpt lat="43.87583" lon="6.29739">
        <ele>1334.45</ele>
        <time>2019-06-24T14:31:42Z</time>
      </trkpt>
      <trkpt lat="43.8759" lon="6.29733">
        <ele>1335.41</ele>
        <time>2019-06-24T14:31:43Z</time>
      </trkpt>
      <trkpt lat="43.87596" lon="6.29725">
        <ele>1335.89</ele>
        <time>2019-06-24T14:31:44Z</time>
      </trkpt>
      <trkpt lat="43.87602" lon="6.29715">
        <ele>1336.37</ele>
        <time>2019-06-24T14:31:45Z</time>
      </trkpt>
      <trkpt lat="43.87619" lon="6.29686">
        <ele>1334.45</ele>
        <time>2019-06-24T14:31:48Z</time>
      </trkpt>
      <trkpt lat="43.87622" lon="6.29676">
        <ele>1333.97</ele>
        <time>2019-06-24T14:31:49Z</time>
      </trkpt>
      <trkpt lat="43.87622" lon="6.29665">
        <ele>1333.97</ele>
        <time>2019-06-24T14:31:50Z</time>
      </trkpt>
      <trkpt lat="43.87621" lon="6.29655">
        <ele>1333.49</ele>
        <time>2019-06-24T14:31:51Z</time>
      </trkpt>
      <trkpt lat="43.8762" lon="6.29645">
        <ele>1333.49</ele>
        <time>2019-06-24T14:31:52Z</time>
      </trkpt>
      <trkpt lat="43.8762" lon="6.29636">
        <ele>1332.52</ele>
        <time>2019-06-24T14:31:53Z</time>
      </trkpt>
      <trkpt lat="43.87621" lon="6.29626">
        <ele>1332.04</ele>
        <time>2019-06-24T14:31:54Z</time>
      </trkpt>
      <trkpt lat="43.87622" lon="6.29616">
        <ele>1332.04</ele>
        <time>2019-06-24T14:31:55Z</time>
      </trkpt>
      <trkpt lat="43.87634" lon="6.29555">
        <ele>1329.16</ele>
        <time>2019-06-24T14:32:00Z</time>
      </trkpt>
      <trkpt lat="43.87639" lon="6.29543">
        <ele>1329.16</ele>
        <time>2019-06-24T14:32:01Z</time>
      </trkpt>
      <trkpt lat="43.87643" lon="6.29532">
        <ele>1328.2</ele>
        <time>2019-06-24T14:32:02Z</time>
      </trkpt>
      <trkpt lat="43.87652" lon="6.29499">
        <ele>1325.31</ele>
        <time>2019-06-24T14:32:05Z</time>
      </trkpt>
      <trkpt lat="43.87656" lon="6.29491">
        <ele>1324.83</ele>
        <time>2019-06-24T14:32:06Z</time>
      </trkpt>
      <trkpt lat="43.87661" lon="6.29485">
        <ele>1324.83</ele>
        <time>2019-06-24T14:32:07Z</time>
      </trkpt>
      <trkpt lat="43.87667" lon="6.29482">
        <ele>1323.87</ele>
        <time>2019-06-24T14:32:08Z</time>
      </trkpt>
      <trkpt lat="43.87673" lon="6.29481">
        <ele>1323.39</ele>
        <time>2019-06-24T14:32:09Z</time>
      </trkpt>
      <trkpt lat="43.8768" lon="6.29482">
        <ele>1322.91</ele>
        <time>2019-06-24T14:32:10Z</time>
      </trkpt>
      <trkpt lat="43.87686" lon="6.29484">
        <ele>1321.95</ele>
        <time>2019-06-24T14:32:11Z</time>
      </trkpt>
      <trkpt lat="43.87692" lon="6.29488">
        <ele>1321.95</ele>
        <time>2019-06-24T14:32:12Z</time>
      </trkpt>
      <trkpt lat="43.87696" lon="6.29494">
        <ele>1320.99</ele>
        <time>2019-06-24T14:32:13Z</time>
      </trkpt>
      <trkpt lat="43.87701" lon="6.29502">
        <ele>1320.99</ele>
        <time>2019-06-24T14:32:14Z</time>
      </trkpt>
      <trkpt lat="43.87705" lon="6.2951">
        <ele>1320.51</ele>
        <time>2019-06-24T14:32:15Z</time>
      </trkpt>
      <trkpt lat="43.87716" lon="6.29525">
        <ele>1319.55</ele>
        <time>2019-06-24T14:32:17Z</time>
      </trkpt>
      <trkpt lat="43.87723" lon="6.29529">
        <ele>1319.07</ele>
        <time>2019-06-24T14:32:18Z</time>
      </trkpt>
      <trkpt lat="43.8773" lon="6.29532">
        <ele>1318.59</ele>
        <time>2019-06-24T14:32:19Z</time>
      </trkpt>
      <trkpt lat="43.87738" lon="6.29535">
        <ele>1318.1</ele>
        <time>2019-06-24T14:32:20Z</time>
      </trkpt>
      <trkpt lat="43.87746" lon="6.2954">
        <ele>1317.62</ele>
        <time>2019-06-24T14:32:21Z</time>
      </trkpt>
      <trkpt lat="43.87754" lon="6.29546">
        <ele>1317.62</ele>
        <time>2019-06-24T14:32:22Z</time>
      </trkpt>
      <trkpt lat="43.87763" lon="6.29553">
        <ele>1316.66</ele>
        <time>2019-06-24T14:32:23Z</time>
      </trkpt>
      <trkpt lat="43.87773" lon="6.29557">
        <ele>1317.14</ele>
        <time>2019-06-24T14:32:24Z</time>
      </trkpt>
      <trkpt lat="43.87783" lon="6.2956">
        <ele>1317.14</ele>
        <time>2019-06-24T14:32:25Z</time>
      </trkpt>
      <trkpt lat="43.87804" lon="6.29562">
        <ele>1316.18</ele>
        <time>2019-06-24T14:32:27Z</time>
      </trkpt>
      <trkpt lat="43.87813" lon="6.29561">
        <ele>1315.22</ele>
        <time>2019-06-24T14:32:28Z</time>
      </trkpt>
      <trkpt lat="43.87822" lon="6.29558">
        <ele>1313.78</ele>
        <time>2019-06-24T14:32:29Z</time>
      </trkpt>
      <trkpt lat="43.87829" lon="6.29554">
        <ele>1313.78</ele>
        <time>2019-06-24T14:32:30Z</time>
      </trkpt>
      <trkpt lat="43.87836" lon="6.29547">
        <ele>1312.82</ele>
        <time>2019-06-24T14:32:31Z</time>
      </trkpt>
      <trkpt lat="43.87842" lon="6.29542">
        <ele>1311.38</ele>
        <time>2019-06-24T14:32:32Z</time>
      </trkpt>
      <trkpt lat="43.87848" lon="6.29537">
        <ele>1310.9</ele>
        <time>2019-06-24T14:32:33Z</time>
      </trkpt>
      <trkpt lat="43.87856" lon="6.29535">
        <ele>1310.9</ele>
        <time>2019-06-24T14:32:34Z</time>
      </trkpt>
      <trkpt lat="43.87863" lon="6.29534">
        <ele>1309.93</ele>
        <time>2019-06-24T14:32:35Z</time>
      </trkpt>
      <trkpt lat="43.8787" lon="6.29535">
        <ele>1309.45</ele>
        <time>2019-06-24T14:32:36Z</time>
      </trkpt>
      <trkpt lat="43.87878" lon="6.29535">
        <ele>1309.45</ele>
        <time>2019-06-24T14:32:37Z</time>
      </trkpt>
      <trkpt lat="43.87886" lon="6.29532">
        <ele>1308.97</ele>
        <time>2019-06-24T14:32:38Z</time>
      </trkpt>
      <trkpt lat="43.87894" lon="6.29527">
        <ele>1308.49</ele>
        <time>2019-06-24T14:32:39Z</time>
      </trkpt>
      <trkpt lat="43.87901" lon="6.2952">
        <ele>1308.01</ele>
        <time>2019-06-24T14:32:40Z</time>
      </trkpt>
      <trkpt lat="43.87909" lon="6.2951">
        <ele>1307.53</ele>
        <time>2019-06-24T14:32:41Z</time>
      </trkpt>
      <trkpt lat="43.87915" lon="6.29499">
        <ele>1306.57</ele>
        <time>2019-06-24T14:32:42Z</time>
      </trkpt>
      <trkpt lat="43.87921" lon="6.29488">
        <ele>1306.09</ele>
        <time>2019-06-24T14:32:43Z</time>
      </trkpt>
      <trkpt lat="43.87926" lon="6.29479">
        <ele>1305.61</ele>
        <time>2019-06-24T14:32:44Z</time>
      </trkpt>
      <trkpt lat="43.87931" lon="6.29472">
        <ele>1304.65</ele>
        <time>2019-06-24T14:32:45Z</time>
      </trkpt>
      <trkpt lat="43.87937" lon="6.29468">
        <ele>1304.17</ele>
        <time>2019-06-24T14:32:46Z</time>
      </trkpt>
      <trkpt lat="43.87942" lon="6.29466">
        <ele>1303.69</ele>
        <time>2019-06-24T14:32:47Z</time>
      </trkpt>
      <trkpt lat="43.87947" lon="6.29467">
        <ele>1302.72</ele>
        <time>2019-06-24T14:32:48Z</time>
      </trkpt>
      <trkpt lat="43.87951" lon="6.2947">
        <ele>1302.24</ele>
        <time>2019-06-24T14:32:49Z</time>
      </trkpt>
      <trkpt lat="43.87954" lon="6.29476">
        <ele>1302.24</ele>
        <time>2019-06-24T14:32:50Z</time>
      </trkpt>
      <trkpt lat="43.87958" lon="6.29484">
        <ele>1301.76</ele>
        <time>2019-06-24T14:32:51Z</time>
      </trkpt>
      <trkpt lat="43.87961" lon="6.29492">
        <ele>1301.28</ele>
        <time>2019-06-24T14:32:52Z</time>
      </trkpt>
      <trkpt lat="43.87966" lon="6.29498">
        <ele>1301.28</ele>
        <time>2019-06-24T14:32:53Z</time>
      </trkpt>
      <trkpt lat="43.87971" lon="6.29502">
        <ele>1300.8</ele>
        <time>2019-06-24T14:32:54Z</time>
      </trkpt>
      <trkpt lat="43.87978" lon="6.29504">
        <ele>1300.32</ele>
        <time>2019-06-24T14:32:55Z</time>
      </trkpt>
      <trkpt lat="43.87985" lon="6.29503">
        <ele>1299.84</ele>
        <time>2019-06-24T14:32:56Z</time>
      </trkpt>
      <trkpt lat="43.87992" lon="6.295">
        <ele>1299.36</ele>
        <time>2019-06-24T14:32:57Z</time>
      </trkpt>
      <trkpt lat="43.88001" lon="6.29496">
        <ele>1298.4</ele>
        <time>2019-06-24T14:32:58Z</time>
      </trkpt>
      <trkpt lat="43.88009" lon="6.29491">
        <ele>1297.92</ele>
        <time>2019-06-24T14:32:59Z</time>
      </trkpt>
      <trkpt lat="43.88019" lon="6.29486">
        <ele>1296.96</ele>
        <time>2019-06-24T14:33:00Z</time>
      </trkpt>
      <trkpt lat="43.88028" lon="6.29482">
        <ele>1296.48</ele>
        <time>2019-06-24T14:33:01Z</time>
      </trkpt>
      <trkpt lat="43.88047" lon="6.29474">
        <ele>1295.51</ele>
        <time>2019-06-24T14:33:03Z</time>
      </trkpt>
      <trkpt lat="43.88072" lon="6.29462">
        <ele>1293.11</ele>
        <time>2019-06-24T14:33:06Z</time>
      </trkpt>
      <trkpt lat="43.8808" lon="6.29461">
        <ele>1292.15</ele>
        <time>2019-06-24T14:33:07Z</time>
      </trkpt>
      <trkpt lat="43.88087" lon="6.29461">
        <ele>1291.67</ele>
        <time>2019-06-24T14:33:08Z</time>
      </trkpt>
      <trkpt lat="43.88094" lon="6.29463">
        <ele>1290.71</ele>
        <time>2019-06-24T14:33:09Z</time>
      </trkpt>
      <trkpt lat="43.88101" lon="6.29466">
        <ele>1289.75</ele>
        <time>2019-06-24T14:33:10Z</time>
      </trkpt>
      <trkpt lat="43.88108" lon="6.2947">
        <ele>1289.27</ele>
        <time>2019-06-24T14:33:11Z</time>
      </trkpt>
      <trkpt lat="43.88115" lon="6.29476">
        <ele>1288.78</ele>
        <time>2019-06-24T14:33:12Z</time>
      </trkpt>
      <trkpt lat="43.88122" lon="6.29482">
        <ele>1287.82</ele>
        <time>2019-06-24T14:33:13Z</time>
      </trkpt>
      <trkpt lat="43.88129" lon="6.29489">
        <ele>1287.34</ele>
        <time>2019-06-24T14:33:14Z</time>
      </trkpt>
      <trkpt lat="43.88157" lon="6.29515">
        <ele>1284.94</ele>
        <time>2019-06-24T14:33:18Z</time>
      </trkpt>
      <trkpt lat="43.88165" lon="6.29517">
        <ele>1284.46</ele>
        <time>2019-06-24T14:33:19Z</time>
      </trkpt>
      <trkpt lat="43.88173" lon="6.29514">
        <ele>1283.5</ele>
        <time>2019-06-24T14:33:20Z</time>
      </trkpt>
      <trkpt lat="43.8818" lon="6.29509">
        <ele>1283.5</ele>
        <time>2019-06-24T14:33:21Z</time>
      </trkpt>
      <trkpt lat="43.88186" lon="6.29502">
        <ele>1283.02</ele>
        <time>2019-06-24T14:33:22Z</time>
      </trkpt>
      <trkpt lat="43.88192" lon="6.29493">
        <ele>1282.06</ele>
        <time>2019-06-24T14:33:23Z</time>
      </trkpt>
      <trkpt lat="43.88198" lon="6.29484">
        <ele>1281.57</ele>
        <time>2019-06-24T14:33:24Z</time>
      </trkpt>
      <trkpt lat="43.88212" lon="6.29467">
        <ele>1280.13</ele>
        <time>2019-06-24T14:33:26Z</time>
      </trkpt>
      <trkpt lat="43.88239" lon="6.29441">
        <ele>1276.77</ele>
        <time>2019-06-24T14:33:30Z</time>
      </trkpt>
      <trkpt lat="43.88246" lon="6.29436">
        <ele>1275.81</ele>
        <time>2019-06-24T14:33:31Z</time>
      </trkpt>
      <trkpt lat="43.88254" lon="6.29432">
        <ele>1274.85</ele>
        <time>2019-06-24T14:33:32Z</time>
      </trkpt>
      <trkpt lat="43.8827" lon="6.29425">
        <ele>1272.44</ele>
        <time>2019-06-24T14:33:34Z</time>
      </trkpt>
      <trkpt lat="43.88278" lon="6.2942">
        <ele>1271.96</ele>
        <time>2019-06-24T14:33:35Z</time>
      </trkpt>
      <trkpt lat="43.88285" lon="6.29412">
        <ele>1271</ele>
        <time>2019-06-24T14:33:36Z</time>
      </trkpt>
      <trkpt lat="43.8829" lon="6.29403">
        <ele>1271</ele>
        <time>2019-06-24T14:33:37Z</time>
      </trkpt>
      <trkpt lat="43.88294" lon="6.29392">
        <ele>1270.04</ele>
        <time>2019-06-24T14:33:38Z</time>
      </trkpt>
      <trkpt lat="43.88298" lon="6.2938">
        <ele>1269.56</ele>
        <time>2019-06-24T14:33:39Z</time>
      </trkpt>
      <trkpt lat="43.88302" lon="6.29369">
        <ele>1269.08</ele>
        <time>2019-06-24T14:33:40Z</time>
      </trkpt>
      <trkpt lat="43.88309" lon="6.29348">
        <ele>1268.12</ele>
        <time>2019-06-24T14:33:42Z</time>
      </trkpt>
      <trkpt lat="43.88313" lon="6.29338">
        <ele>1267.16</ele>
        <time>2019-06-24T14:33:43Z</time>
      </trkpt>
      <trkpt lat="43.88318" lon="6.29329">
        <ele>1267.16</ele>
        <time>2019-06-24T14:33:44Z</time>
      </trkpt>
      <trkpt lat="43.88323" lon="6.29321">
        <ele>1266.67</ele>
        <time>2019-06-24T14:33:45Z</time>
      </trkpt>
      <trkpt lat="43.8833" lon="6.29315">
        <ele>1266.67</ele>
        <time>2019-06-24T14:33:46Z</time>
      </trkpt>
      <trkpt lat="43.88337" lon="6.29309">
        <ele>1266.19</ele>
        <time>2019-06-24T14:33:47Z</time>
      </trkpt>
      <trkpt lat="43.88343" lon="6.29303">
        <ele>1266.67</ele>
        <time>2019-06-24T14:33:48Z</time>
      </trkpt>
      <trkpt lat="43.88373" lon="6.29275">
        <ele>1262.35</ele>
        <time>2019-06-24T14:33:52Z</time>
      </trkpt>
      <trkpt lat="43.88387" lon="6.29264">
        <ele>1260.43</ele>
        <time>2019-06-24T14:33:54Z</time>
      </trkpt>
      <trkpt lat="43.88395" lon="6.29261">
        <ele>1259.94</ele>
        <time>2019-06-24T14:33:55Z</time>
      </trkpt>
      <trkpt lat="43.88403" lon="6.2926">
        <ele>1259.46</ele>
        <time>2019-06-24T14:33:56Z</time>
      </trkpt>
      <trkpt lat="43.88413" lon="6.29259">
        <ele>1259.46</ele>
        <time>2019-06-24T14:33:57Z</time>
      </trkpt>
      <trkpt lat="43.88422" lon="6.29255">
        <ele>1258.5</ele>
        <time>2019-06-24T14:33:58Z</time>
      </trkpt>
      <trkpt lat="43.8843" lon="6.2925">
        <ele>1258.98</ele>
        <time>2019-06-24T14:33:59Z</time>
      </trkpt>
      <trkpt lat="43.88438" lon="6.29245">
        <ele>1258.5</ele>
        <time>2019-06-24T14:34:00Z</time>
      </trkpt>
      <trkpt lat="43.88446" lon="6.29242">
        <ele>1257.54</ele>
        <time>2019-06-24T14:34:01Z</time>
      </trkpt>
      <trkpt lat="43.88454" lon="6.2924">
        <ele>1257.06</ele>
        <time>2019-06-24T14:34:02Z</time>
      </trkpt>
      <trkpt lat="43.88462" lon="6.2924">
        <ele>1256.58</ele>
        <time>2019-06-24T14:34:03Z</time>
      </trkpt>
      <trkpt lat="43.88471" lon="6.2924">
        <ele>1257.06</ele>
        <time>2019-06-24T14:34:04Z</time>
      </trkpt>
      <trkpt lat="43.88508" lon="6.29248">
        <ele>1255.62</ele>
        <time>2019-06-24T14:34:08Z</time>
      </trkpt>
      <trkpt lat="43.88517" lon="6.29252">
        <ele>1256.1</ele>
        <time>2019-06-24T14:34:09Z</time>
      </trkpt>
      <trkpt lat="43.88526" lon="6.29257">
        <ele>1257.06</ele>
        <time>2019-06-24T14:34:10Z</time>
      </trkpt>
      <trkpt lat="43.88534" lon="6.29263">
        <ele>1257.06</ele>
        <time>2019-06-24T14:34:11Z</time>
      </trkpt>
      <trkpt lat="43.88554" lon="6.2928">
        <ele>1256.1</ele>
        <time>2019-06-24T14:34:14Z</time>
      </trkpt>
      <trkpt lat="43.88561" lon="6.29284">
        <ele>1257.06</ele>
        <time>2019-06-24T14:34:15Z</time>
      </trkpt>
      <trkpt lat="43.88577" lon="6.29293">
        <ele>1254.66</ele>
        <time>2019-06-24T14:34:18Z</time>
      </trkpt>
      <trkpt lat="43.88582" lon="6.29293">
        <ele>1254.66</ele>
        <time>2019-06-24T14:34:19Z</time>
      </trkpt>
      <trkpt lat="43.88587" lon="6.29291">
        <ele>1254.18</ele>
        <time>2019-06-24T14:34:20Z</time>
      </trkpt>
      <trkpt lat="43.88592" lon="6.29287">
        <ele>1254.66</ele>
        <time>2019-06-24T14:34:21Z</time>
      </trkpt>
      <trkpt lat="43.88596" lon="6.29281">
        <ele>1254.18</ele>
        <time>2019-06-24T14:34:22Z</time>
      </trkpt>
      <trkpt lat="43.88599" lon="6.29273">
        <ele>1254.66</ele>
        <time>2019-06-24T14:34:23Z</time>
      </trkpt>
      <trkpt lat="43.88601" lon="6.29265">
        <ele>1254.66</ele>
        <time>2019-06-24T14:34:24Z</time>
      </trkpt>
      <trkpt lat="43.88602" lon="6.29255">
        <ele>1254.66</ele>
        <time>2019-06-24T14:34:25Z</time>
      </trkpt>
      <trkpt lat="43.88602" lon="6.29246">
        <ele>1254.66</ele>
        <time>2019-06-24T14:34:26Z</time>
      </trkpt>
      <trkpt lat="43.88604" lon="6.29238">
        <ele>1254.18</ele>
        <time>2019-06-24T14:34:27Z</time>
      </trkpt>
      <trkpt lat="43.88607" lon="6.29229">
        <ele>1254.18</ele>
        <time>2019-06-24T14:34:28Z</time>
      </trkpt>
      <trkpt lat="43.88613" lon="6.29221">
        <ele>1253.22</ele>
        <time>2019-06-24T14:34:29Z</time>
      </trkpt>
      <trkpt lat="43.8862" lon="6.29214">
        <ele>1253.22</ele>
        <time>2019-06-24T14:34:30Z</time>
      </trkpt>
      <trkpt lat="43.88627" lon="6.29205">
        <ele>1252.74</ele>
        <time>2019-06-24T14:34:31Z</time>
      </trkpt>
      <trkpt lat="43.88693" lon="6.29127">
        <ele>1248.89</ele>
        <time>2019-06-24T14:34:39Z</time>
      </trkpt>
      <trkpt lat="43.88701" lon="6.29118">
        <ele>1248.89</ele>
        <time>2019-06-24T14:34:40Z</time>
      </trkpt>
      <trkpt lat="43.88767" lon="6.29038">
        <ele>1246.49</ele>
        <time>2019-06-24T14:34:49Z</time>
      </trkpt>
      <trkpt lat="43.88774" lon="6.2903">
        <ele>1246.49</ele>
        <time>2019-06-24T14:34:50Z</time>
      </trkpt>
      <trkpt lat="43.88781" lon="6.29023">
        <ele>1245.53</ele>
        <time>2019-06-24T14:34:51Z</time>
      </trkpt>
      <trkpt lat="43.88789" lon="6.29017">
        <ele>1244.56</ele>
        <time>2019-06-24T14:34:52Z</time>
      </trkpt>
      <trkpt lat="43.88799" lon="6.29013">
        <ele>1244.56</ele>
        <time>2019-06-24T14:34:53Z</time>
      </trkpt>
      <trkpt lat="43.8881" lon="6.2901">
        <ele>1244.56</ele>
        <time>2019-06-24T14:34:54Z</time>
      </trkpt>
      <trkpt lat="43.88821" lon="6.29007">
        <ele>1244.56</ele>
        <time>2019-06-24T14:34:55Z</time>
      </trkpt>
      <trkpt lat="43.88907" lon="6.28972">
        <ele>1240.72</ele>
        <time>2019-06-24T14:35:03Z</time>
      </trkpt>
      <trkpt lat="43.88917" lon="6.28968">
        <ele>1240.72</ele>
        <time>2019-06-24T14:35:04Z</time>
      </trkpt>
      <trkpt lat="43.88942" lon="6.28955">
        <ele>1241.68</ele>
        <time>2019-06-24T14:35:07Z</time>
      </trkpt>
      <trkpt lat="43.88949" lon="6.28954">
        <ele>1241.68</ele>
        <time>2019-06-24T14:35:08Z</time>
      </trkpt>
      <trkpt lat="43.88957" lon="6.28955">
        <ele>1241.2</ele>
        <time>2019-06-24T14:35:09Z</time>
      </trkpt>
      <trkpt lat="43.88966" lon="6.28957">
        <ele>1241.2</ele>
        <time>2019-06-24T14:35:10Z</time>
      </trkpt>
      <trkpt lat="43.88975" lon="6.28961">
        <ele>1241.2</ele>
        <time>2019-06-24T14:35:11Z</time>
      </trkpt>
      <trkpt lat="43.88984" lon="6.28967">
        <ele>1241.2</ele>
        <time>2019-06-24T14:35:12Z</time>
      </trkpt>
      <trkpt lat="43.89028" lon="6.29">
        <ele>1240.72</ele>
        <time>2019-06-24T14:35:17Z</time>
      </trkpt>
      <trkpt lat="43.89036" lon="6.29002">
        <ele>1240.24</ele>
        <time>2019-06-24T14:35:18Z</time>
      </trkpt>
      <trkpt lat="43.89045" lon="6.29003">
        <ele>1239.76</ele>
        <time>2019-06-24T14:35:19Z</time>
      </trkpt>
      <trkpt lat="43.89054" lon="6.29001">
        <ele>1240.72</ele>
        <time>2019-06-24T14:35:20Z</time>
      </trkpt>
      <trkpt lat="43.89064" lon="6.28999">
        <ele>1240.72</ele>
        <time>2019-06-24T14:35:21Z</time>
      </trkpt>
      <trkpt lat="43.89074" lon="6.28995">
        <ele>1239.76</ele>
        <time>2019-06-24T14:35:22Z</time>
      </trkpt>
      <trkpt lat="43.89084" lon="6.28989">
        <ele>1240.24</ele>
        <time>2019-06-24T14:35:23Z</time>
      </trkpt>
      <trkpt lat="43.89094" lon="6.28982">
        <ele>1240.72</ele>
        <time>2019-06-24T14:35:24Z</time>
      </trkpt>
      <trkpt lat="43.89121" lon="6.28966">
        <ele>1241.2</ele>
        <time>2019-06-24T14:35:27Z</time>
      </trkpt>
      <trkpt lat="43.89128" lon="6.28964">
        <ele>1241.2</ele>
        <time>2019-06-24T14:35:28Z</time>
      </trkpt>
      <trkpt lat="43.89135" lon="6.28964">
        <ele>1242.16</ele>
        <time>2019-06-24T14:35:29Z</time>
      </trkpt>
      <trkpt lat="43.89141" lon="6.28966">
        <ele>1241.2</ele>
        <time>2019-06-24T14:35:30Z</time>
      </trkpt>
      <trkpt lat="43.89147" lon="6.28968">
        <ele>1240.72</ele>
        <time>2019-06-24T14:35:31Z</time>
      </trkpt>
      <trkpt lat="43.89151" lon="6.2897">
        <ele>1240.72</ele>
        <time>2019-06-24T14:35:32Z</time>
      </trkpt>
      <trkpt lat="43.89157" lon="6.2897">
        <ele>1240.72</ele>
        <time>2019-06-24T14:35:33Z</time>
      </trkpt>
      <trkpt lat="43.89164" lon="6.28967">
        <ele>1241.2</ele>
        <time>2019-06-24T14:35:34Z</time>
      </trkpt>
      <trkpt lat="43.89172" lon="6.28964">
        <ele>1241.2</ele>
        <time>2019-06-24T14:35:35Z</time>
      </trkpt>
      <trkpt lat="43.89247" lon="6.28918">
        <ele>1241.2</ele>
        <time>2019-06-24T14:35:43Z</time>
      </trkpt>
      <trkpt lat="43.89255" lon="6.28909">
        <ele>1241.68</ele>
        <time>2019-06-24T14:35:44Z</time>
      </trkpt>
      <trkpt lat="43.89269" lon="6.28891">
        <ele>1242.64</ele>
        <time>2019-06-24T14:35:46Z</time>
      </trkpt>
      <trkpt lat="43.89278" lon="6.28882">
        <ele>1243.6</ele>
        <time>2019-06-24T14:35:47Z</time>
      </trkpt>
      <trkpt lat="43.89287" lon="6.28875">
        <ele>1244.08</ele>
        <time>2019-06-24T14:35:48Z</time>
      </trkpt>
      <trkpt lat="43.89297" lon="6.28869">
        <ele>1243.6</ele>
        <time>2019-06-24T14:35:49Z</time>
      </trkpt>
      <trkpt lat="43.89307" lon="6.28864">
        <ele>1244.56</ele>
        <time>2019-06-24T14:35:50Z</time>
      </trkpt>
      <trkpt lat="43.89317" lon="6.28862">
        <ele>1245.04</ele>
        <time>2019-06-24T14:35:51Z</time>
      </trkpt>
      <trkpt lat="43.89326" lon="6.28862">
        <ele>1245.04</ele>
        <time>2019-06-24T14:35:52Z</time>
      </trkpt>
      <trkpt lat="43.89336" lon="6.28862">
        <ele>1246.01</ele>
        <time>2019-06-24T14:35:53Z</time>
      </trkpt>
      <trkpt lat="43.894" lon="6.28855">
        <ele>1249.37</ele>
        <time>2019-06-24T14:35:59Z</time>
      </trkpt>
      <trkpt lat="43.89424" lon="6.28847">
        <ele>1248.89</ele>
        <time>2019-06-24T14:36:02Z</time>
      </trkpt>
      <trkpt lat="43.89431" lon="6.28841">
        <ele>1247.93</ele>
        <time>2019-06-24T14:36:03Z</time>
      </trkpt>
      <trkpt lat="43.89438" lon="6.28835">
        <ele>1246.97</ele>
        <time>2019-06-24T14:36:04Z</time>
      </trkpt>
      <trkpt lat="43.89456" lon="6.28817">
        <ele>1245.04</ele>
        <time>2019-06-24T14:36:07Z</time>
      </trkpt>
      <trkpt lat="43.89463" lon="6.28813">
        <ele>1244.56</ele>
        <time>2019-06-24T14:36:08Z</time>
      </trkpt>
      <trkpt lat="43.89471" lon="6.28811">
        <ele>1243.6</ele>
        <time>2019-06-24T14:36:09Z</time>
      </trkpt>
      <trkpt lat="43.8948" lon="6.2881">
        <ele>1242.16</ele>
        <time>2019-06-24T14:36:10Z</time>
      </trkpt>
      <trkpt lat="43.89489" lon="6.2881">
        <ele>1242.16</ele>
        <time>2019-06-24T14:36:11Z</time>
      </trkpt>
      <trkpt lat="43.89498" lon="6.28811">
        <ele>1241.2</ele>
        <time>2019-06-24T14:36:12Z</time>
      </trkpt>
      <trkpt lat="43.89507" lon="6.28813">
        <ele>1240.72</ele>
        <time>2019-06-24T14:36:13Z</time>
      </trkpt>
      <trkpt lat="43.89517" lon="6.28816">
        <ele>1239.28</ele>
        <time>2019-06-24T14:36:14Z</time>
      </trkpt>
      <trkpt lat="43.89526" lon="6.2882">
        <ele>1238.32</ele>
        <time>2019-06-24T14:36:15Z</time>
      </trkpt>
      <trkpt lat="43.89535" lon="6.28826">
        <ele>1237.35</ele>
        <time>2019-06-24T14:36:16Z</time>
      </trkpt>
      <trkpt lat="43.89544" lon="6.28832">
        <ele>1235.91</ele>
        <time>2019-06-24T14:36:17Z</time>
      </trkpt>
      <trkpt lat="43.89577" lon="6.2885">
        <ele>1232.07</ele>
        <time>2019-06-24T14:36:21Z</time>
      </trkpt>
      <trkpt lat="43.89592" lon="6.28859">
        <ele>1231.11</ele>
        <time>2019-06-24T14:36:23Z</time>
      </trkpt>
      <trkpt lat="43.89604" lon="6.28868">
        <ele>1229.18</ele>
        <time>2019-06-24T14:36:25Z</time>
      </trkpt>
      <trkpt lat="43.89609" lon="6.28868">
        <ele>1228.22</ele>
        <time>2019-06-24T14:36:26Z</time>
      </trkpt>
      <trkpt lat="43.89615" lon="6.28865">
        <ele>1228.22</ele>
        <time>2019-06-24T14:36:27Z</time>
      </trkpt>
      <trkpt lat="43.89621" lon="6.28861">
        <ele>1228.22</ele>
        <time>2019-06-24T14:36:28Z</time>
      </trkpt>
      <trkpt lat="43.89627" lon="6.28857">
        <ele>1228.22</ele>
        <time>2019-06-24T14:36:29Z</time>
      </trkpt>
      <trkpt lat="43.89634" lon="6.28856">
        <ele>1227.26</ele>
        <time>2019-06-24T14:36:30Z</time>
      </trkpt>
      <trkpt lat="43.89642" lon="6.28856">
        <ele>1226.78</ele>
        <time>2019-06-24T14:36:31Z</time>
      </trkpt>
      <trkpt lat="43.89651" lon="6.28858">
        <ele>1226.3</ele>
        <time>2019-06-24T14:36:32Z</time>
      </trkpt>
      <trkpt lat="43.8966" lon="6.28861">
        <ele>1225.34</ele>
        <time>2019-06-24T14:36:33Z</time>
      </trkpt>
      <trkpt lat="43.89705" lon="6.28875">
        <ele>1224.38</ele>
        <time>2019-06-24T14:36:38Z</time>
      </trkpt>
      <trkpt lat="43.89713" lon="6.2888">
        <ele>1222.93</ele>
        <time>2019-06-24T14:36:39Z</time>
      </trkpt>
      <trkpt lat="43.8972" lon="6.28887">
        <ele>1222.45</ele>
        <time>2019-06-24T14:36:40Z</time>
      </trkpt>
      <trkpt lat="43.89727" lon="6.28895">
        <ele>1221.97</ele>
        <time>2019-06-24T14:36:41Z</time>
      </trkpt>
      <trkpt lat="43.89735" lon="6.28905">
        <ele>1221.49</ele>
        <time>2019-06-24T14:36:42Z</time>
      </trkpt>
      <trkpt lat="43.89747" lon="6.28924">
        <ele>1220.53</ele>
        <time>2019-06-24T14:36:44Z</time>
      </trkpt>
      <trkpt lat="43.89753" lon="6.28934">
        <ele>1219.57</ele>
        <time>2019-06-24T14:36:45Z</time>
      </trkpt>
      <trkpt lat="43.89757" lon="6.28942">
        <ele>1219.09</ele>
        <time>2019-06-24T14:36:46Z</time>
      </trkpt>
      <trkpt lat="43.89761" lon="6.28948">
        <ele>1218.61</ele>
        <time>2019-06-24T14:36:47Z</time>
      </trkpt>
      <trkpt lat="43.89766" lon="6.28951">
        <ele>1218.61</ele>
        <time>2019-06-24T14:36:48Z</time>
      </trkpt>
      <trkpt lat="43.89773" lon="6.28951">
        <ele>1218.13</ele>
        <time>2019-06-24T14:36:49Z</time>
      </trkpt>
      <trkpt lat="43.89788" lon="6.28947">
        <ele>1217.65</ele>
        <time>2019-06-24T14:36:51Z</time>
      </trkpt>
      <trkpt lat="43.89794" lon="6.28948">
        <ele>1217.65</ele>
        <time>2019-06-24T14:36:52Z</time>
      </trkpt>
      <trkpt lat="43.89799" lon="6.2895">
        <ele>1216.69</ele>
        <time>2019-06-24T14:36:53Z</time>
      </trkpt>
      <trkpt lat="43.89804" lon="6.28954">
        <ele>1216.21</ele>
        <time>2019-06-24T14:36:54Z</time>
      </trkpt>
      <trkpt lat="43.89809" lon="6.28959">
        <ele>1215.72</ele>
        <time>2019-06-24T14:36:55Z</time>
      </trkpt>
      <trkpt lat="43.89814" lon="6.28965">
        <ele>1215.24</ele>
        <time>2019-06-24T14:36:56Z</time>
      </trkpt>
      <trkpt lat="43.89818" lon="6.28973">
        <ele>1214.76</ele>
        <time>2019-06-24T14:36:57Z</time>
      </trkpt>
      <trkpt lat="43.8983" lon="6.28988">
        <ele>1214.28</ele>
        <time>2019-06-24T14:36:59Z</time>
      </trkpt>
      <trkpt lat="43.89838" lon="6.28994">
        <ele>1213.8</ele>
        <time>2019-06-24T14:37:00Z</time>
      </trkpt>
      <trkpt lat="43.89847" lon="6.28997">
        <ele>1213.8</ele>
        <time>2019-06-24T14:37:01Z</time>
      </trkpt>
      <trkpt lat="43.89857" lon="6.28999">
        <ele>1213.8</ele>
        <time>2019-06-24T14:37:02Z</time>
      </trkpt>
      <trkpt lat="43.89867" lon="6.28998">
        <ele>1213.8</ele>
        <time>2019-06-24T14:37:03Z</time>
      </trkpt>
      <trkpt lat="43.89876" lon="6.28997">
        <ele>1212.84</ele>
        <time>2019-06-24T14:37:04Z</time>
      </trkpt>
      <trkpt lat="43.89885" lon="6.28997">
        <ele>1212.36</ele>
        <time>2019-06-24T14:37:05Z</time>
      </trkpt>
      <trkpt lat="43.89894" lon="6.28998">
        <ele>1211.4</ele>
        <time>2019-06-24T14:37:06Z</time>
      </trkpt>
      <trkpt lat="43.89903" lon="6.29002">
        <ele>1210.44</ele>
        <time>2019-06-24T14:37:07Z</time>
      </trkpt>
      <trkpt lat="43.89956" lon="6.29016">
        <ele>1207.07</ele>
        <time>2019-06-24T14:37:13Z</time>
      </trkpt>
      <trkpt lat="43.89963" lon="6.29021">
        <ele>1207.07</ele>
        <time>2019-06-24T14:37:14Z</time>
      </trkpt>
      <trkpt lat="43.89976" lon="6.2903">
        <ele>1205.15</ele>
        <time>2019-06-24T14:37:16Z</time>
      </trkpt>
      <trkpt lat="43.89986" lon="6.29038">
        <ele>1204.19</ele>
        <time>2019-06-24T14:37:18Z</time>
      </trkpt>
      <trkpt lat="43.89988" lon="6.29043">
        <ele>1203.71</ele>
        <time>2019-06-24T14:37:19Z</time>
      </trkpt>
      <trkpt lat="43.8999" lon="6.29049">
        <ele>1203.71</ele>
        <time>2019-06-24T14:37:20Z</time>
      </trkpt>
      <trkpt lat="43.89999" lon="6.29072">
        <ele>1203.71</ele>
        <time>2019-06-24T14:37:23Z</time>
      </trkpt>
      <trkpt lat="43.90002" lon="6.29079">
        <ele>1203.71</ele>
        <time>2019-06-24T14:37:24Z</time>
      </trkpt>
      <trkpt lat="43.90006" lon="6.29082">
        <ele>1203.71</ele>
        <time>2019-06-24T14:37:25Z</time>
      </trkpt>
      <trkpt lat="43.90011" lon="6.29083">
        <ele>1203.71</ele>
        <time>2019-06-24T14:37:26Z</time>
      </trkpt>
      <trkpt lat="43.90017" lon="6.29082">
        <ele>1203.71</ele>
        <time>2019-06-24T14:37:27Z</time>
      </trkpt>
      <trkpt lat="43.90022" lon="6.29077">
        <ele>1203.71</ele>
        <time>2019-06-24T14:37:28Z</time>
      </trkpt>
      <trkpt lat="43.90028" lon="6.29071">
        <ele>1203.71</ele>
        <time>2019-06-24T14:37:29Z</time>
      </trkpt>
      <trkpt lat="43.90033" lon="6.29064">
        <ele>1204.19</ele>
        <time>2019-06-24T14:37:30Z</time>
      </trkpt>
      <trkpt lat="43.90038" lon="6.29055">
        <ele>1204.67</ele>
        <time>2019-06-24T14:37:31Z</time>
      </trkpt>
      <trkpt lat="43.90043" lon="6.29048">
        <ele>1205.15</ele>
        <time>2019-06-24T14:37:32Z</time>
      </trkpt>
      <trkpt lat="43.90048" lon="6.29042">
        <ele>1204.67</ele>
        <time>2019-06-24T14:37:33Z</time>
      </trkpt>
      <trkpt lat="43.90053" lon="6.2904">
        <ele>1204.67</ele>
        <time>2019-06-24T14:37:34Z</time>
      </trkpt>
      <trkpt lat="43.90059" lon="6.29039">
        <ele>1204.19</ele>
        <time>2019-06-24T14:37:35Z</time>
      </trkpt>
      <trkpt lat="43.90066" lon="6.29042">
        <ele>1203.71</ele>
        <time>2019-06-24T14:37:36Z</time>
      </trkpt>
      <trkpt lat="43.90073" lon="6.29045">
        <ele>1203.71</ele>
        <time>2019-06-24T14:37:37Z</time>
      </trkpt>
      <trkpt lat="43.9008" lon="6.2905">
        <ele>1204.19</ele>
        <time>2019-06-24T14:37:38Z</time>
      </trkpt>
      <trkpt lat="43.90087" lon="6.29056">
        <ele>1204.19</ele>
        <time>2019-06-24T14:37:39Z</time>
      </trkpt>
      <trkpt lat="43.90093" lon="6.29063">
        <ele>1204.67</ele>
        <time>2019-06-24T14:37:40Z</time>
      </trkpt>
      <trkpt lat="43.90099" lon="6.29071">
        <ele>1203.71</ele>
        <time>2019-06-24T14:37:41Z</time>
      </trkpt>
      <trkpt lat="43.90106" lon="6.29078">
        <ele>1204.19</ele>
        <time>2019-06-24T14:37:42Z</time>
      </trkpt>
      <trkpt lat="43.90129" lon="6.29101">
        <ele>1203.71</ele>
        <time>2019-06-24T14:37:45Z</time>
      </trkpt>
      <trkpt lat="43.90138" lon="6.29105">
        <ele>1203.23</ele>
        <time>2019-06-24T14:37:46Z</time>
      </trkpt>
      <trkpt lat="43.90146" lon="6.29107">
        <ele>1202.75</ele>
        <time>2019-06-24T14:37:47Z</time>
      </trkpt>
      <trkpt lat="43.90154" lon="6.29108">
        <ele>1203.23</ele>
        <time>2019-06-24T14:37:48Z</time>
      </trkpt>
      <trkpt lat="43.90161" lon="6.29112">
        <ele>1203.71</ele>
        <time>2019-06-24T14:37:49Z</time>
      </trkpt>
      <trkpt lat="43.90169" lon="6.29117">
        <ele>1202.75</ele>
        <time>2019-06-24T14:37:50Z</time>
      </trkpt>
      <trkpt lat="43.90177" lon="6.29121">
        <ele>1201.79</ele>
        <time>2019-06-24T14:37:51Z</time>
      </trkpt>
      <trkpt lat="43.90185" lon="6.29124">
        <ele>1201.3</ele>
        <time>2019-06-24T14:37:52Z</time>
      </trkpt>
      <trkpt lat="43.90203" lon="6.29132">
        <ele>1198.9</ele>
        <time>2019-06-24T14:37:54Z</time>
      </trkpt>
      <trkpt lat="43.90211" lon="6.29139">
        <ele>1197.94</ele>
        <time>2019-06-24T14:37:55Z</time>
      </trkpt>
      <trkpt lat="43.90218" lon="6.29146">
        <ele>1198.42</ele>
        <time>2019-06-24T14:37:56Z</time>
      </trkpt>
      <trkpt lat="43.90226" lon="6.29151">
        <ele>1198.42</ele>
        <time>2019-06-24T14:37:57Z</time>
      </trkpt>
      <trkpt lat="43.90234" lon="6.29154">
        <ele>1198.42</ele>
        <time>2019-06-24T14:37:58Z</time>
      </trkpt>
      <trkpt lat="43.90244" lon="6.29156">
        <ele>1198.42</ele>
        <time>2019-06-24T14:37:59Z</time>
      </trkpt>
      <trkpt lat="43.90253" lon="6.29156">
        <ele>1197.94</ele>
        <time>2019-06-24T14:38:00Z</time>
      </trkpt>
      <trkpt lat="43.90262" lon="6.29156">
        <ele>1198.42</ele>
        <time>2019-06-24T14:38:01Z</time>
      </trkpt>
      <trkpt lat="43.90279" lon="6.29153">
        <ele>1198.42</ele>
        <time>2019-06-24T14:38:03Z</time>
      </trkpt>
      <trkpt lat="43.90287" lon="6.29149">
        <ele>1198.42</ele>
        <time>2019-06-24T14:38:04Z</time>
      </trkpt>
      <trkpt lat="43.90295" lon="6.29145">
        <ele>1198.9</ele>
        <time>2019-06-24T14:38:05Z</time>
      </trkpt>
      <trkpt lat="43.90304" lon="6.29143">
        <ele>1199.38</ele>
        <time>2019-06-24T14:38:06Z</time>
      </trkpt>
      <trkpt lat="43.90313" lon="6.29141">
        <ele>1199.38</ele>
        <time>2019-06-24T14:38:07Z</time>
      </trkpt>
      <trkpt lat="43.90368" lon="6.29126">
        <ele>1195.54</ele>
        <time>2019-06-24T14:38:13Z</time>
      </trkpt>
      <trkpt lat="43.90391" lon="6.29117">
        <ele>1195.54</ele>
        <time>2019-06-24T14:38:16Z</time>
      </trkpt>
      <trkpt lat="43.90399" lon="6.29116">
        <ele>1195.06</ele>
        <time>2019-06-24T14:38:17Z</time>
      </trkpt>
      <trkpt lat="43.90407" lon="6.29116">
        <ele>1194.58</ele>
        <time>2019-06-24T14:38:18Z</time>
      </trkpt>
      <trkpt lat="43.90455" lon="6.29128">
        <ele>1193.13</ele>
        <time>2019-06-24T14:38:25Z</time>
      </trkpt>
      <trkpt lat="43.90462" lon="6.29132">
        <ele>1193.13</ele>
        <time>2019-06-24T14:38:26Z</time>
      </trkpt>
      <trkpt lat="43.90467" lon="6.29137">
        <ele>1192.17</ele>
        <time>2019-06-24T14:38:27Z</time>
      </trkpt>
      <trkpt lat="43.90472" lon="6.29143">
        <ele>1192.17</ele>
        <time>2019-06-24T14:38:28Z</time>
      </trkpt>
      <trkpt lat="43.90477" lon="6.29149">
        <ele>1191.69</ele>
        <time>2019-06-24T14:38:29Z</time>
      </trkpt>
      <trkpt lat="43.90483" lon="6.29154">
        <ele>1191.69</ele>
        <time>2019-06-24T14:38:30Z</time>
      </trkpt>
      <trkpt lat="43.90489" lon="6.29155">
        <ele>1190.73</ele>
        <time>2019-06-24T14:38:31Z</time>
      </trkpt>
      <trkpt lat="43.90496" lon="6.29154">
        <ele>1191.21</ele>
        <time>2019-06-24T14:38:32Z</time>
      </trkpt>
      <trkpt lat="43.90566" lon="6.29123">
        <ele>1188.81</ele>
        <time>2019-06-24T14:38:41Z</time>
      </trkpt>
      <trkpt lat="43.90626" lon="6.29066">
        <ele>1186.88</ele>
        <time>2019-06-24T14:38:49Z</time>
      </trkpt>
      <trkpt lat="43.90633" lon="6.2906">
        <ele>1185.92</ele>
        <time>2019-06-24T14:38:50Z</time>
      </trkpt>
      <trkpt lat="43.90667" lon="6.29035">
        <ele>1183.04</ele>
        <time>2019-06-24T14:38:54Z</time>
      </trkpt>
      <trkpt lat="43.90675" lon="6.29026">
        <ele>1183.04</ele>
        <time>2019-06-24T14:38:55Z</time>
      </trkpt>
      <trkpt lat="43.90691" lon="6.29007">
        <ele>1181.12</ele>
        <time>2019-06-24T14:38:57Z</time>
      </trkpt>
      <trkpt lat="43.90739" lon="6.2895">
        <ele>1178.23</ele>
        <time>2019-06-24T14:39:03Z</time>
      </trkpt>
      <trkpt lat="43.90747" lon="6.28945">
        <ele>1176.79</ele>
        <time>2019-06-24T14:39:04Z</time>
      </trkpt>
      <trkpt lat="43.90756" lon="6.28942">
        <ele>1176.79</ele>
        <time>2019-06-24T14:39:05Z</time>
      </trkpt>
      <trkpt lat="43.90766" lon="6.2894">
        <ele>1176.79</ele>
        <time>2019-06-24T14:39:06Z</time>
      </trkpt>
      <trkpt lat="43.90776" lon="6.28938">
        <ele>1177.75</ele>
        <time>2019-06-24T14:39:07Z</time>
      </trkpt>
      <trkpt lat="43.90795" lon="6.28933">
        <ele>1176.31</ele>
        <time>2019-06-24T14:39:09Z</time>
      </trkpt>
      <trkpt lat="43.90804" lon="6.28928">
        <ele>1175.83</ele>
        <time>2019-06-24T14:39:10Z</time>
      </trkpt>
      <trkpt lat="43.90812" lon="6.28921">
        <ele>1175.35</ele>
        <time>2019-06-24T14:39:11Z</time>
      </trkpt>
      <trkpt lat="43.90827" lon="6.28908">
        <ele>1175.83</ele>
        <time>2019-06-24T14:39:13Z</time>
      </trkpt>
      <trkpt lat="43.90835" lon="6.28904">
        <ele>1174.87</ele>
        <time>2019-06-24T14:39:14Z</time>
      </trkpt>
      <trkpt lat="43.90844" lon="6.28902">
        <ele>1174.87</ele>
        <time>2019-06-24T14:39:15Z</time>
      </trkpt>
      <trkpt lat="43.90861" lon="6.28899">
        <ele>1172.47</ele>
        <time>2019-06-24T14:39:17Z</time>
      </trkpt>
      <trkpt lat="43.90869" lon="6.28895">
        <ele>1171.5</ele>
        <time>2019-06-24T14:39:18Z</time>
      </trkpt>
      <trkpt lat="43.90877" lon="6.28889">
        <ele>1171.98</ele>
        <time>2019-06-24T14:39:19Z</time>
      </trkpt>
      <trkpt lat="43.90885" lon="6.28881">
        <ele>1171.5</ele>
        <time>2019-06-24T14:39:20Z</time>
      </trkpt>
      <trkpt lat="43.90892" lon="6.28872">
        <ele>1170.54</ele>
        <time>2019-06-24T14:39:21Z</time>
      </trkpt>
      <trkpt lat="43.90899" lon="6.28862">
        <ele>1170.06</ele>
        <time>2019-06-24T14:39:22Z</time>
      </trkpt>
      <trkpt lat="43.90904" lon="6.28852">
        <ele>1169.58</ele>
        <time>2019-06-24T14:39:23Z</time>
      </trkpt>
      <trkpt lat="43.90908" lon="6.28842">
        <ele>1169.58</ele>
        <time>2019-06-24T14:39:24Z</time>
      </trkpt>
      <trkpt lat="43.9091" lon="6.28831">
        <ele>1169.1</ele>
        <time>2019-06-24T14:39:25Z</time>
      </trkpt>
      <trkpt lat="43.90912" lon="6.28822">
        <ele>1168.14</ele>
        <time>2019-06-24T14:39:26Z</time>
      </trkpt>
      <trkpt lat="43.90915" lon="6.28815">
        <ele>1167.66</ele>
        <time>2019-06-24T14:39:27Z</time>
      </trkpt>
      <trkpt lat="43.90919" lon="6.2881">
        <ele>1167.18</ele>
        <time>2019-06-24T14:39:28Z</time>
      </trkpt>
      <trkpt lat="43.90925" lon="6.28807">
        <ele>1167.18</ele>
        <time>2019-06-24T14:39:29Z</time>
      </trkpt>
      <trkpt lat="43.90932" lon="6.28804">
        <ele>1167.18</ele>
        <time>2019-06-24T14:39:30Z</time>
      </trkpt>
      <trkpt lat="43.9094" lon="6.28803">
        <ele>1167.18</ele>
        <time>2019-06-24T14:39:31Z</time>
      </trkpt>
      <trkpt lat="43.90948" lon="6.28801">
        <ele>1167.18</ele>
        <time>2019-06-24T14:39:32Z</time>
      </trkpt>
      <trkpt lat="43.90974" lon="6.28797">
        <ele>1164.29</ele>
        <time>2019-06-24T14:39:36Z</time>
      </trkpt>
      <trkpt lat="43.90979" lon="6.28798">
        <ele>1163.81</ele>
        <time>2019-06-24T14:39:37Z</time>
      </trkpt>
      <trkpt lat="43.90984" lon="6.28802">
        <ele>1163.33</ele>
        <time>2019-06-24T14:39:38Z</time>
      </trkpt>
      <trkpt lat="43.90987" lon="6.28807">
        <ele>1163.81</ele>
        <time>2019-06-24T14:39:39Z</time>
      </trkpt>
      <trkpt lat="43.90991" lon="6.28814">
        <ele>1163.33</ele>
        <time>2019-06-24T14:39:40Z</time>
      </trkpt>
      <trkpt lat="43.90994" lon="6.28822">
        <ele>1163.33</ele>
        <time>2019-06-24T14:39:41Z</time>
      </trkpt>
      <trkpt lat="43.91002" lon="6.28839">
        <ele>1162.37</ele>
        <time>2019-06-24T14:39:43Z</time>
      </trkpt>
      <trkpt lat="43.91008" lon="6.28847">
        <ele>1161.89</ele>
        <time>2019-06-24T14:39:44Z</time>
      </trkpt>
      <trkpt lat="43.91014" lon="6.28853">
        <ele>1161.89</ele>
        <time>2019-06-24T14:39:45Z</time>
      </trkpt>
      <trkpt lat="43.91034" lon="6.28872">
        <ele>1160.93</ele>
        <time>2019-06-24T14:39:48Z</time>
      </trkpt>
      <trkpt lat="43.91039" lon="6.28879">
        <ele>1160.93</ele>
        <time>2019-06-24T14:39:49Z</time>
      </trkpt>
      <trkpt lat="43.91053" lon="6.289">
        <ele>1159.49</ele>
        <time>2019-06-24T14:39:52Z</time>
      </trkpt>
      <trkpt lat="43.9106" lon="6.28906">
        <ele>1159.49</ele>
        <time>2019-06-24T14:39:53Z</time>
      </trkpt>
      <trkpt lat="43.91067" lon="6.2891">
        <ele>1158.53</ele>
        <time>2019-06-24T14:39:54Z</time>
      </trkpt>
      <trkpt lat="43.91075" lon="6.28912">
        <ele>1158.05</ele>
        <time>2019-06-24T14:39:55Z</time>
      </trkpt>
      <trkpt lat="43.91082" lon="6.28914">
        <ele>1157.56</ele>
        <time>2019-06-24T14:39:56Z</time>
      </trkpt>
      <trkpt lat="43.91089" lon="6.28918">
        <ele>1157.08</ele>
        <time>2019-06-24T14:39:57Z</time>
      </trkpt>
      <trkpt lat="43.91096" lon="6.28923">
        <ele>1157.08</ele>
        <time>2019-06-24T14:39:58Z</time>
      </trkpt>
      <trkpt lat="43.91103" lon="6.28929">
        <ele>1157.08</ele>
        <time>2019-06-24T14:39:59Z</time>
      </trkpt>
      <trkpt lat="43.91159" lon="6.28973">
        <ele>1154.68</ele>
        <time>2019-06-24T14:40:07Z</time>
      </trkpt>
      <trkpt lat="43.91166" lon="6.28979">
        <ele>1154.68</ele>
        <time>2019-06-24T14:40:08Z</time>
      </trkpt>
      <trkpt lat="43.91172" lon="6.28987">
        <ele>1154.68</ele>
        <time>2019-06-24T14:40:09Z</time>
      </trkpt>
      <trkpt lat="43.91179" lon="6.28995">
        <ele>1153.72</ele>
        <time>2019-06-24T14:40:10Z</time>
      </trkpt>
      <trkpt lat="43.91186" lon="6.29002">
        <ele>1153.24</ele>
        <time>2019-06-24T14:40:11Z</time>
      </trkpt>
      <trkpt lat="43.91193" lon="6.29008">
        <ele>1152.28</ele>
        <time>2019-06-24T14:40:12Z</time>
      </trkpt>
      <trkpt lat="43.91211" lon="6.29028">
        <ele>1152.28</ele>
        <time>2019-06-24T14:40:15Z</time>
      </trkpt>
      <trkpt lat="43.91214" lon="6.29035">
        <ele>1151.8</ele>
        <time>2019-06-24T14:40:16Z</time>
      </trkpt>
      <trkpt lat="43.91216" lon="6.29043">
        <ele>1151.32</ele>
        <time>2019-06-24T14:40:17Z</time>
      </trkpt>
      <trkpt lat="43.91218" lon="6.29051">
        <ele>1150.84</ele>
        <time>2019-06-24T14:40:18Z</time>
      </trkpt>
      <trkpt lat="43.9122" lon="6.29058">
        <ele>1151.32</ele>
        <time>2019-06-24T14:40:19Z</time>
      </trkpt>
      <trkpt lat="43.91224" lon="6.29064">
        <ele>1150.84</ele>
        <time>2019-06-24T14:40:20Z</time>
      </trkpt>
      <trkpt lat="43.91228" lon="6.29068">
        <ele>1150.35</ele>
        <time>2019-06-24T14:40:21Z</time>
      </trkpt>
      <trkpt lat="43.91232" lon="6.29072">
        <ele>1150.35</ele>
        <time>2019-06-24T14:40:22Z</time>
      </trkpt>
      <trkpt lat="43.91236" lon="6.29075">
        <ele>1150.35</ele>
        <time>2019-06-24T14:40:23Z</time>
      </trkpt>
      <trkpt lat="43.9124" lon="6.29077">
        <ele>1149.87</ele>
        <time>2019-06-24T14:40:24Z</time>
      </trkpt>
      <trkpt lat="43.91244" lon="6.29076">
        <ele>1149.87</ele>
        <time>2019-06-24T14:40:25Z</time>
      </trkpt>
      <trkpt lat="43.91249" lon="6.29072">
        <ele>1149.87</ele>
        <time>2019-06-24T14:40:26Z</time>
      </trkpt>
      <trkpt lat="43.91254" lon="6.29069">
        <ele>1149.87</ele>
        <time>2019-06-24T14:40:27Z</time>
      </trkpt>
      <trkpt lat="43.91259" lon="6.29065">
        <ele>1149.87</ele>
        <time>2019-06-24T14:40:28Z</time>
      </trkpt>
      <trkpt lat="43.91264" lon="6.29062">
        <ele>1149.39</ele>
        <time>2019-06-24T14:40:29Z</time>
      </trkpt>
      <trkpt lat="43.91268" lon="6.29058">
        <ele>1149.39</ele>
        <time>2019-06-24T14:40:30Z</time>
      </trkpt>
      <trkpt lat="43.91271" lon="6.29055">
        <ele>1148.91</ele>
        <time>2019-06-24T14:40:31Z</time>
      </trkpt>
      <trkpt lat="43.91273" lon="6.29052">
        <ele>1148.43</ele>
        <time>2019-06-24T14:40:32Z</time>
      </trkpt>
      <trkpt lat="43.91278" lon="6.29049">
        <ele>1147.95</ele>
        <time>2019-06-24T14:40:42Z</time>
      </trkpt>
      <trkpt lat="43.91278" lon="6.29049">
        <ele>1147.95</ele>
        <time>2019-06-24T14:40:49Z</time>
      </trkpt>
      <trkpt lat="43.91281" lon="6.29039">
        <ele>1136.42</ele>
        <time>2019-06-24T14:44:28Z</time>
      </trkpt>
      <trkpt lat="43.91281" lon="6.29039">
        <ele>1136.42</ele>
        <time>2019-06-24T14:44:29Z</time>
      </trkpt>
      <trkpt lat="43.91276" lon="6.29043">
        <ele>1138.34</ele>
        <time>2019-06-24T14:44:34Z</time>
      </trkpt>
      <trkpt lat="43.91274" lon="6.29044">
        <ele>1140.74</ele>
        <time>2019-06-24T14:44:38Z</time>
      </trkpt>
      <trkpt lat="43.91275" lon="6.29044">
        <ele>1144.11</ele>
        <time>2019-06-24T14:44:44Z</time>
      </trkpt>
      <trkpt lat="43.91278" lon="6.29044">
        <ele>1146.03</ele>
        <time>2019-06-24T14:44:49Z</time>
      </trkpt>
      <trkpt lat="43.91277" lon="6.29046">
        <ele>1149.39</ele>
        <time>2019-06-24T14:44:59Z</time>
      </trkpt>
      <trkpt lat="43.91278" lon="6.29046">
        <ele>1152.28</ele>
        <time>2019-06-24T14:45:14Z</time>
      </trkpt>
      <trkpt lat="43.91279" lon="6.29048">
        <ele>1155.64</ele>
        <time>2019-06-24T14:45:32Z</time>
      </trkpt>
      <trkpt lat="43.91279" lon="6.29046">
        <ele>1156.12</ele>
        <time>2019-06-24T14:45:45Z</time>
      </trkpt>
      <trkpt lat="43.91283" lon="6.2904">
        <ele>1155.64</ele>
        <time>2019-06-24T14:45:47Z</time>
      </trkpt>
      <trkpt lat="43.91301" lon="6.29007">
        <ele>1154.68</ele>
        <time>2019-06-24T14:45:52Z</time>
      </trkpt>
      <trkpt lat="43.91304" lon="6.28999">
        <ele>1154.2</ele>
        <time>2019-06-24T14:45:53Z</time>
      </trkpt>
      <trkpt lat="43.91315" lon="6.28962">
        <ele>1152.28</ele>
        <time>2019-06-24T14:45:58Z</time>
      </trkpt>
      <trkpt lat="43.91318" lon="6.28956">
        <ele>1152.28</ele>
        <time>2019-06-24T14:45:59Z</time>
      </trkpt>
      <trkpt lat="43.91321" lon="6.2895">
        <ele>1151.8</ele>
        <time>2019-06-24T14:46:00Z</time>
      </trkpt>
      <trkpt lat="43.91325" lon="6.28945">
        <ele>1150.84</ele>
        <time>2019-06-24T14:46:01Z</time>
      </trkpt>
      <trkpt lat="43.91329" lon="6.2894">
        <ele>1151.32</ele>
        <time>2019-06-24T14:46:02Z</time>
      </trkpt>
      <trkpt lat="43.91335" lon="6.28936">
        <ele>1150.84</ele>
        <time>2019-06-24T14:46:03Z</time>
      </trkpt>
      <trkpt lat="43.9134" lon="6.28933">
        <ele>1150.84</ele>
        <time>2019-06-24T14:46:04Z</time>
      </trkpt>
      <trkpt lat="43.91346" lon="6.2893">
        <ele>1150.84</ele>
        <time>2019-06-24T14:46:05Z</time>
      </trkpt>
      <trkpt lat="43.9138" lon="6.2891">
        <ele>1150.35</ele>
        <time>2019-06-24T14:46:11Z</time>
      </trkpt>
      <trkpt lat="43.91385" lon="6.28909">
        <ele>1149.87</ele>
        <time>2019-06-24T14:46:12Z</time>
      </trkpt>
      <trkpt lat="43.9141" lon="6.28902">
        <ele>1151.32</ele>
        <time>2019-06-24T14:46:16Z</time>
      </trkpt>
      <trkpt lat="43.91418" lon="6.28897">
        <ele>1150.84</ele>
        <time>2019-06-24T14:46:17Z</time>
      </trkpt>
      <trkpt lat="43.91425" lon="6.28891">
        <ele>1151.8</ele>
        <time>2019-06-24T14:46:18Z</time>
      </trkpt>
      <trkpt lat="43.91432" lon="6.28884">
        <ele>1150.84</ele>
        <time>2019-06-24T14:46:19Z</time>
      </trkpt>
      <trkpt lat="43.91439" lon="6.28876">
        <ele>1151.32</ele>
        <time>2019-06-24T14:46:20Z</time>
      </trkpt>
      <trkpt lat="43.91522" lon="6.28792">
        <ele>1152.28</ele>
        <time>2019-06-24T14:46:32Z</time>
      </trkpt>
      <trkpt lat="43.91535" lon="6.28782">
        <ele>1152.28</ele>
        <time>2019-06-24T14:46:34Z</time>
      </trkpt>
      <trkpt lat="43.91539" lon="6.28775">
        <ele>1151.8</ele>
        <time>2019-06-24T14:46:35Z</time>
      </trkpt>
      <trkpt lat="43.91541" lon="6.28765">
        <ele>1152.28</ele>
        <time>2019-06-24T14:46:36Z</time>
      </trkpt>
      <trkpt lat="43.91542" lon="6.28754">
        <ele>1152.28</ele>
        <time>2019-06-24T14:46:37Z</time>
      </trkpt>
      <trkpt lat="43.91542" lon="6.28744">
        <ele>1151.8</ele>
        <time>2019-06-24T14:46:38Z</time>
      </trkpt>
      <trkpt lat="43.91541" lon="6.28734">
        <ele>1151.8</ele>
        <time>2019-06-24T14:46:39Z</time>
      </trkpt>
      <trkpt lat="43.91539" lon="6.28724">
        <ele>1151.8</ele>
        <time>2019-06-24T14:46:40Z</time>
      </trkpt>
      <trkpt lat="43.91536" lon="6.28715">
        <ele>1151.8</ele>
        <time>2019-06-24T14:46:41Z</time>
      </trkpt>
      <trkpt lat="43.91532" lon="6.28705">
        <ele>1151.8</ele>
        <time>2019-06-24T14:46:42Z</time>
      </trkpt>
      <trkpt lat="43.91526" lon="6.28687">
        <ele>1151.32</ele>
        <time>2019-06-24T14:46:44Z</time>
      </trkpt>
      <trkpt lat="43.91525" lon="6.28678">
        <ele>1150.35</ele>
        <time>2019-06-24T14:46:45Z</time>
      </trkpt>
      <trkpt lat="43.91525" lon="6.28667">
        <ele>1151.32</ele>
        <time>2019-06-24T14:46:46Z</time>
      </trkpt>
      <trkpt lat="43.91526" lon="6.28643">
        <ele>1151.32</ele>
        <time>2019-06-24T14:46:48Z</time>
      </trkpt>
      <trkpt lat="43.91526" lon="6.28629">
        <ele>1150.84</ele>
        <time>2019-06-24T14:46:49Z</time>
      </trkpt>
      <trkpt lat="43.91524" lon="6.28614">
        <ele>1151.32</ele>
        <time>2019-06-24T14:46:50Z</time>
      </trkpt>
      <trkpt lat="43.91516" lon="6.28507">
        <ele>1150.84</ele>
        <time>2019-06-24T14:46:57Z</time>
      </trkpt>
      <trkpt lat="43.91518" lon="6.28493">
        <ele>1150.84</ele>
        <time>2019-06-24T14:46:58Z</time>
      </trkpt>
      <trkpt lat="43.91521" lon="6.28479">
        <ele>1150.35</ele>
        <time>2019-06-24T14:46:59Z</time>
      </trkpt>
      <trkpt lat="43.91526" lon="6.28466">
        <ele>1150.35</ele>
        <time>2019-06-24T14:47:00Z</time>
      </trkpt>
      <trkpt lat="43.91532" lon="6.28452">
        <ele>1150.84</ele>
        <time>2019-06-24T14:47:01Z</time>
      </trkpt>
      <trkpt lat="43.91577" lon="6.28337">
        <ele>1147.95</ele>
        <time>2019-06-24T14:47:09Z</time>
      </trkpt>
      <trkpt lat="43.91581" lon="6.28318">
        <ele>1157.58203125</ele>
      </trkpt>
      <trkpt lat="43.91612" lon="6.28281">
        <ele>1159.8203125</ele>
      </trkpt>
      <trkpt lat="43.91612" lon="6.28282">
        <ele>1159.99609375</ele>
      </trkpt>
      <trkpt lat="43.91652" lon="6.28267">
        <ele>1166.4609375</ele>
      </trkpt>
      <trkpt lat="43.91686" lon="6.28266">
        <ele>1174.32421875</ele>
      </trkpt>
      <trkpt lat="43.91707" lon="6.28261">
        <ele>1178.1640625</ele>
      </trkpt>
      <trkpt lat="43.91742" lon="6.28232">
        <ele>1182.2578125</ele>
      </trkpt>
      <trkpt lat="43.91791" lon="6.28157">
        <ele>1184.35546875</ele>
      </trkpt>
      <trkpt lat="43.91805" lon="6.28138">
        <ele>1186.16796875</ele>
      </trkpt>
      <trkpt lat="43.91814" lon="6.28083">
        <ele>1180.8125</ele>
      </trkpt>
      <trkpt lat="43.91878" lon="6.28029">
        <ele>1196.57421875</ele>
      </trkpt>
      <trkpt lat="43.91889" lon="6.27989">
        <ele>1198.65234375</ele>
      </trkpt>
      <trkpt lat="43.91873" lon="6.27961">
        <ele>1193.62890625</ele>
      </trkpt>
      <trkpt lat="43.91867" lon="6.27949">
        <ele>1180.64</ele>
        <time>2019-06-24T14:50:28Z</time>
      </trkpt>
      <trkpt lat="43.9187" lon="6.27945">
        <ele>1181.12</ele>
        <time>2019-06-24T14:50:43Z</time>
      </trkpt>
      <trkpt lat="43.9187" lon="6.27943">
        <ele>1180.64</ele>
        <time>2019-06-24T14:50:44Z</time>
      </trkpt>
      <trkpt lat="43.91868" lon="6.27939">
        <ele>1181.12</ele>
        <time>2019-06-24T14:50:45Z</time>
      </trkpt>
      <trkpt lat="43.91866" lon="6.27934">
        <ele>1181.12</ele>
        <time>2019-06-24T14:50:46Z</time>
      </trkpt>
      <trkpt lat="43.91862" lon="6.27929">
        <ele>1181.12</ele>
        <time>2019-06-24T14:50:47Z</time>
      </trkpt>
      <trkpt lat="43.91857" lon="6.27924">
        <ele>1180.64</ele>
        <time>2019-06-24T14:50:48Z</time>
      </trkpt>
      <trkpt lat="43.91852" lon="6.2792">
        <ele>1181.12</ele>
        <time>2019-06-24T14:50:49Z</time>
      </trkpt>
      <trkpt lat="43.91847" lon="6.27915">
        <ele>1182.56</ele>
        <time>2019-06-24T14:50:50Z</time>
      </trkpt>
      <trkpt lat="43.91842" lon="6.2791">
        <ele>1182.56</ele>
        <time>2019-06-24T14:50:51Z</time>
      </trkpt>
      <trkpt lat="43.91839" lon="6.27904">
        <ele>1183.52</ele>
        <time>2019-06-24T14:50:52Z</time>
      </trkpt>
      <trkpt lat="43.91836" lon="6.27896">
        <ele>1184</ele>
        <time>2019-06-24T14:50:53Z</time>
      </trkpt>
      <trkpt lat="43.91835" lon="6.27887">
        <ele>1184</ele>
        <time>2019-06-24T14:50:54Z</time>
      </trkpt>
      <trkpt lat="43.91835" lon="6.27877">
        <ele>1184.48</ele>
        <time>2019-06-24T14:50:55Z</time>
      </trkpt>
      <trkpt lat="43.91837" lon="6.27868">
        <ele>1185.44</ele>
        <time>2019-06-24T14:50:56Z</time>
      </trkpt>
      <trkpt lat="43.9184" lon="6.2786">
        <ele>1186.4</ele>
        <time>2019-06-24T14:50:57Z</time>
      </trkpt>
      <trkpt lat="43.91845" lon="6.27851">
        <ele>1186.88</ele>
        <time>2019-06-24T14:50:58Z</time>
      </trkpt>
      <trkpt lat="43.9185" lon="6.27843">
        <ele>1186.88</ele>
        <time>2019-06-24T14:50:59Z</time>
      </trkpt>
      <trkpt lat="43.91855" lon="6.27834">
        <ele>1187.37</ele>
        <time>2019-06-24T14:51:00Z</time>
      </trkpt>
      <trkpt lat="43.91878" lon="6.27805">
        <ele>1190.73</ele>
        <time>2019-06-24T14:51:04Z</time>
      </trkpt>
      <trkpt lat="43.91885" lon="6.27802">
        <ele>1190.25</ele>
        <time>2019-06-24T14:51:05Z</time>
      </trkpt>
      <trkpt lat="43.91892" lon="6.278">
        <ele>1190.25</ele>
        <time>2019-06-24T14:51:06Z</time>
      </trkpt>
      <trkpt lat="43.91899" lon="6.27801">
        <ele>1190.25</ele>
        <time>2019-06-24T14:51:07Z</time>
      </trkpt>
      <trkpt lat="43.91905" lon="6.27805">
        <ele>1191.21</ele>
        <time>2019-06-24T14:51:08Z</time>
      </trkpt>
      <trkpt lat="43.9191" lon="6.27811">
        <ele>1192.17</ele>
        <time>2019-06-24T14:51:09Z</time>
      </trkpt>
      <trkpt lat="43.91915" lon="6.27819">
        <ele>1191.69</ele>
        <time>2019-06-24T14:51:10Z</time>
      </trkpt>
      <trkpt lat="43.91919" lon="6.27827">
        <ele>1193.13</ele>
        <time>2019-06-24T14:51:11Z</time>
      </trkpt>
      <trkpt lat="43.91929" lon="6.27843">
        <ele>1194.09</ele>
        <time>2019-06-24T14:51:13Z</time>
      </trkpt>
      <trkpt lat="43.91935" lon="6.27848">
        <ele>1194.58</ele>
        <time>2019-06-24T14:51:14Z</time>
      </trkpt>
      <trkpt lat="43.9194" lon="6.27852">
        <ele>1194.58</ele>
        <time>2019-06-24T14:51:15Z</time>
      </trkpt>
      <trkpt lat="43.91947" lon="6.27854">
        <ele>1195.06</ele>
        <time>2019-06-24T14:51:16Z</time>
      </trkpt>
      <trkpt lat="43.91954" lon="6.27855">
        <ele>1194.58</ele>
        <time>2019-06-24T14:51:17Z</time>
      </trkpt>
      <trkpt lat="43.91962" lon="6.27855">
        <ele>1195.54</ele>
        <time>2019-06-24T14:51:18Z</time>
      </trkpt>
      <trkpt lat="43.91969" lon="6.27852">
        <ele>1196.5</ele>
        <time>2019-06-24T14:51:19Z</time>
      </trkpt>
      <trkpt lat="43.91975" lon="6.27847">
        <ele>1196.98</ele>
        <time>2019-06-24T14:51:20Z</time>
      </trkpt>
      <trkpt lat="43.9198" lon="6.27843">
        <ele>1196.98</ele>
        <time>2019-06-24T14:51:21Z</time>
      </trkpt>
      <trkpt lat="43.91986" lon="6.27841">
        <ele>1197.46</ele>
        <time>2019-06-24T14:51:22Z</time>
      </trkpt>
      <trkpt lat="43.91992" lon="6.27841">
        <ele>1197.94</ele>
        <time>2019-06-24T14:51:23Z</time>
      </trkpt>
      <trkpt lat="43.91998" lon="6.27843">
        <ele>1198.42</ele>
        <time>2019-06-24T14:51:24Z</time>
      </trkpt>
      <trkpt lat="43.92004" lon="6.27847">
        <ele>1198.9</ele>
        <time>2019-06-24T14:51:25Z</time>
      </trkpt>
      <trkpt lat="43.9201" lon="6.27851">
        <ele>1199.38</ele>
        <time>2019-06-24T14:51:26Z</time>
      </trkpt>
      <trkpt lat="43.92017" lon="6.27854">
        <ele>1199.86</ele>
        <time>2019-06-24T14:51:27Z</time>
      </trkpt>
      <trkpt lat="43.92024" lon="6.27856">
        <ele>1200.82</ele>
        <time>2019-06-24T14:51:28Z</time>
      </trkpt>
      <trkpt lat="43.92032" lon="6.27856">
        <ele>1201.3</ele>
        <time>2019-06-24T14:51:29Z</time>
      </trkpt>
      <trkpt lat="43.9204" lon="6.27854">
        <ele>1202.27</ele>
        <time>2019-06-24T14:51:30Z</time>
      </trkpt>
      <trkpt lat="43.92048" lon="6.2785">
        <ele>1202.27</ele>
        <time>2019-06-24T14:51:31Z</time>
      </trkpt>
      <trkpt lat="43.92057" lon="6.27845">
        <ele>1203.23</ele>
        <time>2019-06-24T14:51:32Z</time>
      </trkpt>
      <trkpt lat="43.92064" lon="6.27839">
        <ele>1203.71</ele>
        <time>2019-06-24T14:51:33Z</time>
      </trkpt>
      <trkpt lat="43.92072" lon="6.27833">
        <ele>1204.19</ele>
        <time>2019-06-24T14:51:34Z</time>
      </trkpt>
      <trkpt lat="43.92088" lon="6.27823">
        <ele>1205.63</ele>
        <time>2019-06-24T14:51:36Z</time>
      </trkpt>
      <trkpt lat="43.92093" lon="6.27816">
        <ele>1206.11</ele>
        <time>2019-06-24T14:51:37Z</time>
      </trkpt>
      <trkpt lat="43.92097" lon="6.2781">
        <ele>1207.07</ele>
        <time>2019-06-24T14:51:38Z</time>
      </trkpt>
      <trkpt lat="43.92101" lon="6.27807">
        <ele>1207.07</ele>
        <time>2019-06-24T14:51:39Z</time>
      </trkpt>
      <trkpt lat="43.92104" lon="6.27808">
        <ele>1207.07</ele>
        <time>2019-06-24T14:51:40Z</time>
      </trkpt>
      <trkpt lat="43.92107" lon="6.27811">
        <ele>1207.07</ele>
        <time>2019-06-24T14:51:41Z</time>
      </trkpt>
      <trkpt lat="43.92108" lon="6.27816">
        <ele>1208.03</ele>
        <time>2019-06-24T14:51:42Z</time>
      </trkpt>
      <trkpt lat="43.92107" lon="6.27822">
        <ele>1208.51</ele>
        <time>2019-06-24T14:51:43Z</time>
      </trkpt>
      <trkpt lat="43.92105" lon="6.27828">
        <ele>1208.51</ele>
        <time>2019-06-24T14:51:44Z</time>
      </trkpt>
      <trkpt lat="43.92102" lon="6.27835">
        <ele>1209</ele>
        <time>2019-06-24T14:51:45Z</time>
      </trkpt>
      <trkpt lat="43.92098" lon="6.27842">
        <ele>1209.48</ele>
        <time>2019-06-24T14:51:46Z</time>
      </trkpt>
      <trkpt lat="43.9209" lon="6.27859">
        <ele>1209.96</ele>
        <time>2019-06-24T14:51:48Z</time>
      </trkpt>
      <trkpt lat="43.92082" lon="6.27878">
        <ele>1211.88</ele>
        <time>2019-06-24T14:51:50Z</time>
      </trkpt>
      <trkpt lat="43.92077" lon="6.27886">
        <ele>1212.36</ele>
        <time>2019-06-24T14:51:51Z</time>
      </trkpt>
      <trkpt lat="43.92071" lon="6.27893">
        <ele>1212.84</ele>
        <time>2019-06-24T14:51:52Z</time>
      </trkpt>
      <trkpt lat="43.92064" lon="6.27899">
        <ele>1213.32</ele>
        <time>2019-06-24T14:51:53Z</time>
      </trkpt>
      <trkpt lat="43.92057" lon="6.27903">
        <ele>1213.8</ele>
        <time>2019-06-24T14:51:54Z</time>
      </trkpt>
      <trkpt lat="43.9205" lon="6.27904">
        <ele>1214.28</ele>
        <time>2019-06-24T14:51:55Z</time>
      </trkpt>
      <trkpt lat="43.92043" lon="6.27904">
        <ele>1214.28</ele>
        <time>2019-06-24T14:51:56Z</time>
      </trkpt>
      <trkpt lat="43.92036" lon="6.27904">
        <ele>1215.24</ele>
        <time>2019-06-24T14:51:57Z</time>
      </trkpt>
      <trkpt lat="43.92029" lon="6.27906">
        <ele>1215.24</ele>
        <time>2019-06-24T14:51:58Z</time>
      </trkpt>
      <trkpt lat="43.92022" lon="6.27907">
        <ele>1215.72</ele>
        <time>2019-06-24T14:51:59Z</time>
      </trkpt>
      <trkpt lat="43.92017" lon="6.27911">
        <ele>1216.21</ele>
        <time>2019-06-24T14:52:00Z</time>
      </trkpt>
      <trkpt lat="43.92013" lon="6.27916">
        <ele>1216.69</ele>
        <time>2019-06-24T14:52:01Z</time>
      </trkpt>
      <trkpt lat="43.92011" lon="6.27924">
        <ele>1217.65</ele>
        <time>2019-06-24T14:52:02Z</time>
      </trkpt>
      <trkpt lat="43.9201" lon="6.27933">
        <ele>1218.13</ele>
        <time>2019-06-24T14:52:03Z</time>
      </trkpt>
      <trkpt lat="43.92008" lon="6.27943">
        <ele>1218.13</ele>
        <time>2019-06-24T14:52:04Z</time>
      </trkpt>
      <trkpt lat="43.92008" lon="6.27954">
        <ele>1219.09</ele>
        <time>2019-06-24T14:52:05Z</time>
      </trkpt>
      <trkpt lat="43.92004" lon="6.28">
        <ele>1222.45</ele>
        <time>2019-06-24T14:52:09Z</time>
      </trkpt>
      <trkpt lat="43.92004" lon="6.28012">
        <ele>1222.93</ele>
        <time>2019-06-24T14:52:10Z</time>
      </trkpt>
      <trkpt lat="43.92003" lon="6.28024">
        <ele>1223.9</ele>
        <time>2019-06-24T14:52:11Z</time>
      </trkpt>
      <trkpt lat="43.92" lon="6.28049">
        <ele>1224.86</ele>
        <time>2019-06-24T14:52:13Z</time>
      </trkpt>
      <trkpt lat="43.91993" lon="6.28087">
        <ele>1227.74</ele>
        <time>2019-06-24T14:52:16Z</time>
      </trkpt>
      <trkpt lat="43.91989" lon="6.28099">
        <ele>1228.7</ele>
        <time>2019-06-24T14:52:17Z</time>
      </trkpt>
      <trkpt lat="43.91981" lon="6.28122">
        <ele>1229.18</ele>
        <time>2019-06-24T14:52:19Z</time>
      </trkpt>
      <trkpt lat="43.91978" lon="6.28135">
        <ele>1229.66</ele>
        <time>2019-06-24T14:52:20Z</time>
      </trkpt>
      <trkpt lat="43.91975" lon="6.28148">
        <ele>1230.62</ele>
        <time>2019-06-24T14:52:21Z</time>
      </trkpt>
      <trkpt lat="43.91972" lon="6.28161">
        <ele>1231.11</ele>
        <time>2019-06-24T14:52:22Z</time>
      </trkpt>
      <trkpt lat="43.91967" lon="6.28172">
        <ele>1231.59</ele>
        <time>2019-06-24T14:52:23Z</time>
      </trkpt>
      <trkpt lat="43.91963" lon="6.28183">
        <ele>1231.59</ele>
        <time>2019-06-24T14:52:24Z</time>
      </trkpt>
      <trkpt lat="43.91959" lon="6.28195">
        <ele>1232.55</ele>
        <time>2019-06-24T14:52:25Z</time>
      </trkpt>
      <trkpt lat="43.91955" lon="6.28207">
        <ele>1233.03</ele>
        <time>2019-06-24T14:52:26Z</time>
      </trkpt>
      <trkpt lat="43.91945" lon="6.28247">
        <ele>1233.51</ele>
        <time>2019-06-24T14:52:29Z</time>
      </trkpt>
      <trkpt lat="43.91932" lon="6.28282">
        <ele>1233.99</ele>
        <time>2019-06-24T14:52:32Z</time>
      </trkpt>
      <trkpt lat="43.91927" lon="6.28292">
        <ele>1234.47</ele>
        <time>2019-06-24T14:52:33Z</time>
      </trkpt>
      <trkpt lat="43.91921" lon="6.28301">
        <ele>1234.95</ele>
        <time>2019-06-24T14:52:34Z</time>
      </trkpt>
      <trkpt lat="43.91914" lon="6.28309">
        <ele>1235.43</ele>
        <time>2019-06-24T14:52:35Z</time>
      </trkpt>
      <trkpt lat="43.91897" lon="6.28331">
        <ele>1235.91</ele>
        <time>2019-06-24T14:52:38Z</time>
      </trkpt>
      <trkpt lat="43.91893" lon="6.2834">
        <ele>1236.39</ele>
        <time>2019-06-24T14:52:39Z</time>
      </trkpt>
      <trkpt lat="43.91878" lon="6.28384">
        <ele>1237.83</ele>
        <time>2019-06-24T14:52:43Z</time>
      </trkpt>
      <trkpt lat="43.91873" lon="6.28394">
        <ele>1237.83</ele>
        <time>2019-06-24T14:52:44Z</time>
      </trkpt>
      <trkpt lat="43.91866" lon="6.28403">
        <ele>1238.32</ele>
        <time>2019-06-24T14:52:45Z</time>
      </trkpt>
      <trkpt lat="43.91859" lon="6.28412">
        <ele>1237.83</ele>
        <time>2019-06-24T14:52:46Z</time>
      </trkpt>
      <trkpt lat="43.91852" lon="6.2842">
        <ele>1238.8</ele>
        <time>2019-06-24T14:52:47Z</time>
      </trkpt>
      <trkpt lat="43.91821" lon="6.28462">
        <ele>1238.8</ele>
        <time>2019-06-24T14:52:52Z</time>
      </trkpt>
      <trkpt lat="43.91817" lon="6.28471">
        <ele>1238.8</ele>
        <time>2019-06-24T14:52:53Z</time>
      </trkpt>
      <trkpt lat="43.91815" lon="6.28481">
        <ele>1239.28</ele>
        <time>2019-06-24T14:52:54Z</time>
      </trkpt>
      <trkpt lat="43.91811" lon="6.28528">
        <ele>1239.76</ele>
        <time>2019-06-24T14:52:58Z</time>
      </trkpt>
      <trkpt lat="43.91813" lon="6.28539">
        <ele>1239.76</ele>
        <time>2019-06-24T14:52:59Z</time>
      </trkpt>
      <trkpt lat="43.91816" lon="6.28549">
        <ele>1239.76</ele>
        <time>2019-06-24T14:53:00Z</time>
      </trkpt>
      <trkpt lat="43.91819" lon="6.28559">
        <ele>1238.32</ele>
        <time>2019-06-24T14:53:01Z</time>
      </trkpt>
      <trkpt lat="43.9182" lon="6.28569">
        <ele>1238.8</ele>
        <time>2019-06-24T14:53:02Z</time>
      </trkpt>
      <trkpt lat="43.9182" lon="6.2858">
        <ele>1238.8</ele>
        <time>2019-06-24T14:53:03Z</time>
      </trkpt>
      <trkpt lat="43.91819" lon="6.2859">
        <ele>1238.8</ele>
        <time>2019-06-24T14:53:04Z</time>
      </trkpt>
      <trkpt lat="43.91816" lon="6.28599">
        <ele>1238.8</ele>
        <time>2019-06-24T14:53:05Z</time>
      </trkpt>
      <trkpt lat="43.91813" lon="6.28608">
        <ele>1238.32</ele>
        <time>2019-06-24T14:53:06Z</time>
      </trkpt>
      <trkpt lat="43.91795" lon="6.2865">
        <ele>1238.8</ele>
        <time>2019-06-24T14:53:10Z</time>
      </trkpt>
      <trkpt lat="43.91792" lon="6.2866">
        <ele>1238.8</ele>
        <time>2019-06-24T14:53:11Z</time>
      </trkpt>
      <trkpt lat="43.9179" lon="6.28671">
        <ele>1237.83</ele>
        <time>2019-06-24T14:53:12Z</time>
      </trkpt>
      <trkpt lat="43.91786" lon="6.28694">
        <ele>1237.83</ele>
        <time>2019-06-24T14:53:14Z</time>
      </trkpt>
      <trkpt lat="43.91782" lon="6.28706">
        <ele>1237.83</ele>
        <time>2019-06-24T14:53:15Z</time>
      </trkpt>
      <trkpt lat="43.91768" lon="6.28739">
        <ele>1237.35</ele>
        <time>2019-06-24T14:53:18Z</time>
      </trkpt>
      <trkpt lat="43.91765" lon="6.2875">
        <ele>1236.39</ele>
        <time>2019-06-24T14:53:19Z</time>
      </trkpt>
      <trkpt lat="43.91758" lon="6.28796">
        <ele>1235.43</ele>
        <time>2019-06-24T14:53:23Z</time>
      </trkpt>
      <trkpt lat="43.91756" lon="6.28808">
        <ele>1235.43</ele>
        <time>2019-06-24T14:53:24Z</time>
      </trkpt>
      <trkpt lat="43.91752" lon="6.28818">
        <ele>1234.95</ele>
        <time>2019-06-24T14:53:25Z</time>
      </trkpt>
      <trkpt lat="43.91744" lon="6.2884">
        <ele>1234.47</ele>
        <time>2019-06-24T14:53:27Z</time>
      </trkpt>
      <trkpt lat="43.91741" lon="6.28852">
        <ele>1233.99</ele>
        <time>2019-06-24T14:53:28Z</time>
      </trkpt>
      <trkpt lat="43.91738" lon="6.28865">
        <ele>1233.51</ele>
        <time>2019-06-24T14:53:29Z</time>
      </trkpt>
      <trkpt lat="43.91736" lon="6.28878">
        <ele>1233.99</ele>
        <time>2019-06-24T14:53:30Z</time>
      </trkpt>
      <trkpt lat="43.91735" lon="6.28892">
        <ele>1233.51</ele>
        <time>2019-06-24T14:53:31Z</time>
      </trkpt>
      <trkpt lat="43.91714" lon="6.28979">
        <ele>1231.11</ele>
        <time>2019-06-24T14:53:38Z</time>
      </trkpt>
      <trkpt lat="43.91709" lon="6.28989">
        <ele>1229.66</ele>
        <time>2019-06-24T14:53:39Z</time>
      </trkpt>
      <trkpt lat="43.91704" lon="6.28998">
        <ele>1230.14</ele>
        <time>2019-06-24T14:53:40Z</time>
      </trkpt>
      <trkpt lat="43.91696" lon="6.29015">
        <ele>1228.22</ele>
        <time>2019-06-24T14:53:42Z</time>
      </trkpt>
      <trkpt lat="43.91694" lon="6.29021">
        <ele>1227.74</ele>
        <time>2019-06-24T14:53:43Z</time>
      </trkpt>
      <trkpt lat="43.91693" lon="6.29026">
        <ele>1227.26</ele>
        <time>2019-06-24T14:53:44Z</time>
      </trkpt>
      <trkpt lat="43.91692" lon="6.29029">
        <ele>1227.26</ele>
        <time>2019-06-24T14:53:45Z</time>
      </trkpt>
      <trkpt lat="43.91693" lon="6.29031">
        <ele>1227.74</ele>
        <time>2019-06-24T14:53:56Z</time>
      </trkpt>
      <trkpt lat="43.91692" lon="6.29039">
        <ele>1227.26</ele>
        <time>2019-06-24T14:54:21Z</time>
      </trkpt>
      <trkpt lat="43.91687" lon="6.29052">
        <ele>1227.74</ele>
        <time>2019-06-24T14:54:23Z</time>
      </trkpt>
      <trkpt lat="43.91685" lon="6.29061">
        <ele>1227.74</ele>
        <time>2019-06-24T14:54:24Z</time>
      </trkpt>
      <trkpt lat="43.91676" lon="6.29128">
        <ele>1229.66</ele>
        <time>2019-06-24T14:54:31Z</time>
      </trkpt>
      <trkpt lat="43.91671" lon="6.29154">
        <ele>1230.62</ele>
        <time>2019-06-24T14:54:34Z</time>
      </trkpt>
      <trkpt lat="43.91668" lon="6.29161">
        <ele>1231.11</ele>
        <time>2019-06-24T14:54:35Z</time>
      </trkpt>
      <trkpt lat="43.91666" lon="6.29167">
        <ele>1231.59</ele>
        <time>2019-06-24T14:54:36Z</time>
      </trkpt>
      <trkpt lat="43.91666" lon="6.29174">
        <ele>1231.59</ele>
        <time>2019-06-24T14:54:37Z</time>
      </trkpt>
      <trkpt lat="43.91668" lon="6.29181">
        <ele>1232.07</ele>
        <time>2019-06-24T14:54:38Z</time>
      </trkpt>
      <trkpt lat="43.91671" lon="6.29188">
        <ele>1232.55</ele>
        <time>2019-06-24T14:54:39Z</time>
      </trkpt>
      <trkpt lat="43.91675" lon="6.29195">
        <ele>1233.03</ele>
        <time>2019-06-24T14:54:40Z</time>
      </trkpt>
      <trkpt lat="43.9168" lon="6.29202">
        <ele>1234.47</ele>
        <time>2019-06-24T14:54:41Z</time>
      </trkpt>
      <trkpt lat="43.91684" lon="6.29209">
        <ele>1234.47</ele>
        <time>2019-06-24T14:54:42Z</time>
      </trkpt>
      <trkpt lat="43.91701" lon="6.29246">
        <ele>1237.83</ele>
        <time>2019-06-24T14:54:47Z</time>
      </trkpt>
      <trkpt lat="43.91705" lon="6.29253">
        <ele>1238.32</ele>
        <time>2019-06-24T14:54:48Z</time>
      </trkpt>
      <trkpt lat="43.9171" lon="6.2926">
        <ele>1238.8</ele>
        <time>2019-06-24T14:54:49Z</time>
      </trkpt>
      <trkpt lat="43.91715" lon="6.29266">
        <ele>1238.8</ele>
        <time>2019-06-24T14:54:50Z</time>
      </trkpt>
      <trkpt lat="43.9172" lon="6.29271">
        <ele>1239.28</ele>
        <time>2019-06-24T14:54:51Z</time>
      </trkpt>
      <trkpt lat="43.91724" lon="6.29278">
        <ele>1239.76</ele>
        <time>2019-06-24T14:54:52Z</time>
      </trkpt>
      <trkpt lat="43.91728" lon="6.29285">
        <ele>1240.72</ele>
        <time>2019-06-24T14:54:53Z</time>
      </trkpt>
      <trkpt lat="43.91731" lon="6.29293">
        <ele>1241.2</ele>
        <time>2019-06-24T14:54:54Z</time>
      </trkpt>
      <trkpt lat="43.91734" lon="6.29299">
        <ele>1241.68</ele>
        <time>2019-06-24T14:54:55Z</time>
      </trkpt>
      <trkpt lat="43.91738" lon="6.29305">
        <ele>1242.64</ele>
        <time>2019-06-24T14:54:56Z</time>
      </trkpt>
      <trkpt lat="43.91743" lon="6.29309">
        <ele>1243.12</ele>
        <time>2019-06-24T14:54:57Z</time>
      </trkpt>
      <trkpt lat="43.91748" lon="6.29313">
        <ele>1243.6</ele>
        <time>2019-06-24T14:54:58Z</time>
      </trkpt>
      <trkpt lat="43.91754" lon="6.29317">
        <ele>1244.08</ele>
        <time>2019-06-24T14:54:59Z</time>
      </trkpt>
      <trkpt lat="43.91764" lon="6.29325">
        <ele>1245.53</ele>
        <time>2019-06-24T14:55:01Z</time>
      </trkpt>
      <trkpt lat="43.91773" lon="6.29331">
        <ele>1246.49</ele>
        <time>2019-06-24T14:55:03Z</time>
      </trkpt>
      <trkpt lat="43.91776" lon="6.29336">
        <ele>1246.97</ele>
        <time>2019-06-24T14:55:04Z</time>
      </trkpt>
      <trkpt lat="43.91778" lon="6.2934">
        <ele>1247.93</ele>
        <time>2019-06-24T14:55:05Z</time>
      </trkpt>
      <trkpt lat="43.91778" lon="6.29345">
        <ele>1247.93</ele>
        <time>2019-06-24T14:55:06Z</time>
      </trkpt>
      <trkpt lat="43.91778" lon="6.2935">
        <ele>1248.41</ele>
        <time>2019-06-24T14:55:07Z</time>
      </trkpt>
      <trkpt lat="43.91776" lon="6.29355">
        <ele>1248.89</ele>
        <time>2019-06-24T14:55:08Z</time>
      </trkpt>
      <trkpt lat="43.91773" lon="6.29359">
        <ele>1249.85</ele>
        <time>2019-06-24T14:55:09Z</time>
      </trkpt>
      <trkpt lat="43.9177" lon="6.29363">
        <ele>1249.85</ele>
        <time>2019-06-24T14:55:10Z</time>
      </trkpt>
      <trkpt lat="43.91765" lon="6.29366">
        <ele>1250.33</ele>
        <time>2019-06-24T14:55:11Z</time>
      </trkpt>
      <trkpt lat="43.91761" lon="6.29368">
        <ele>1251.29</ele>
        <time>2019-06-24T14:55:12Z</time>
      </trkpt>
      <trkpt lat="43.91756" lon="6.2937">
        <ele>1251.29</ele>
        <time>2019-06-24T14:55:13Z</time>
      </trkpt>
      <trkpt lat="43.9172" lon="6.29386">
        <ele>1254.66</ele>
        <time>2019-06-24T14:55:20Z</time>
      </trkpt>
      <trkpt lat="43.91715" lon="6.29389">
        <ele>1255.62</ele>
        <time>2019-06-24T14:55:21Z</time>
      </trkpt>
      <trkpt lat="43.9171" lon="6.29394">
        <ele>1255.14</ele>
        <time>2019-06-24T14:55:22Z</time>
      </trkpt>
      <trkpt lat="43.91695" lon="6.29411">
        <ele>1257.06</ele>
        <time>2019-06-24T14:55:25Z</time>
      </trkpt>
      <trkpt lat="43.9169" lon="6.29417">
        <ele>1258.02</ele>
        <time>2019-06-24T14:55:26Z</time>
      </trkpt>
      <trkpt lat="43.91686" lon="6.29423">
        <ele>1258.02</ele>
        <time>2019-06-24T14:55:27Z</time>
      </trkpt>
      <trkpt lat="43.91682" lon="6.2943">
        <ele>1258.5</ele>
        <time>2019-06-24T14:55:28Z</time>
      </trkpt>
      <trkpt lat="43.91678" lon="6.29435">
        <ele>1258.98</ele>
        <time>2019-06-24T14:55:29Z</time>
      </trkpt>
      <trkpt lat="43.91673" lon="6.29441">
        <ele>1258.98</ele>
        <time>2019-06-24T14:55:30Z</time>
      </trkpt>
      <trkpt lat="43.9165" lon="6.29471">
        <ele>1261.39</ele>
        <time>2019-06-24T14:55:35Z</time>
      </trkpt>
      <trkpt lat="43.91646" lon="6.29478">
        <ele>1262.35</ele>
        <time>2019-06-24T14:55:36Z</time>
      </trkpt>
      <trkpt lat="43.91634" lon="6.29502">
        <ele>1264.27</ele>
        <time>2019-06-24T14:55:39Z</time>
      </trkpt>
      <trkpt lat="43.9163" lon="6.29508">
        <ele>1264.75</ele>
        <time>2019-06-24T14:55:40Z</time>
      </trkpt>
      <trkpt lat="43.91626" lon="6.29515">
        <ele>1265.23</ele>
        <time>2019-06-24T14:55:41Z</time>
      </trkpt>
      <trkpt lat="43.91622" lon="6.29521">
        <ele>1265.71</ele>
        <time>2019-06-24T14:55:42Z</time>
      </trkpt>
      <trkpt lat="43.91618" lon="6.29527">
        <ele>1265.71</ele>
        <time>2019-06-24T14:55:43Z</time>
      </trkpt>
      <trkpt lat="43.91606" lon="6.29546">
        <ele>1268.12</ele>
        <time>2019-06-24T14:55:46Z</time>
      </trkpt>
      <trkpt lat="43.91601" lon="6.29552">
        <ele>1268.6</ele>
        <time>2019-06-24T14:55:47Z</time>
      </trkpt>
      <trkpt lat="43.91597" lon="6.29559">
        <ele>1269.08</ele>
        <time>2019-06-24T14:55:48Z</time>
      </trkpt>
      <trkpt lat="43.91589" lon="6.29572">
        <ele>1270.52</ele>
        <time>2019-06-24T14:55:50Z</time>
      </trkpt>
      <trkpt lat="43.91582" lon="6.29583">
        <ele>1271</ele>
        <time>2019-06-24T14:55:52Z</time>
      </trkpt>
      <trkpt lat="43.91572" lon="6.29602">
        <ele>1272.92</ele>
        <time>2019-06-24T14:55:55Z</time>
      </trkpt>
      <trkpt lat="43.91567" lon="6.29608">
        <ele>1273.4</ele>
        <time>2019-06-24T14:55:56Z</time>
      </trkpt>
      <trkpt lat="43.91561" lon="6.29613">
        <ele>1273.88</ele>
        <time>2019-06-24T14:55:57Z</time>
      </trkpt>
      <trkpt lat="43.91555" lon="6.29618">
        <ele>1274.85</ele>
        <time>2019-06-24T14:55:58Z</time>
      </trkpt>
      <trkpt lat="43.91549" lon="6.29623">
        <ele>1275.33</ele>
        <time>2019-06-24T14:55:59Z</time>
      </trkpt>
      <trkpt lat="43.91544" lon="6.29627">
        <ele>1275.81</ele>
        <time>2019-06-24T14:56:00Z</time>
      </trkpt>
      <trkpt lat="43.91538" lon="6.2963">
        <ele>1276.29</ele>
        <time>2019-06-24T14:56:01Z</time>
      </trkpt>
      <trkpt lat="43.91527" lon="6.29638">
        <ele>1277.25</ele>
        <time>2019-06-24T14:56:03Z</time>
      </trkpt>
      <trkpt lat="43.91516" lon="6.29647">
        <ele>1278.21</ele>
        <time>2019-06-24T14:56:05Z</time>
      </trkpt>
      <trkpt lat="43.91511" lon="6.29653">
        <ele>1279.17</ele>
        <time>2019-06-24T14:56:06Z</time>
      </trkpt>
      <trkpt lat="43.91507" lon="6.29659">
        <ele>1279.17</ele>
        <time>2019-06-24T14:56:07Z</time>
      </trkpt>
      <trkpt lat="43.91503" lon="6.29665">
        <ele>1280.13</ele>
        <time>2019-06-24T14:56:08Z</time>
      </trkpt>
      <trkpt lat="43.91497" lon="6.29668">
        <ele>1281.09</ele>
        <time>2019-06-24T14:56:09Z</time>
      </trkpt>
      <trkpt lat="43.91492" lon="6.29671">
        <ele>1281.57</ele>
        <time>2019-06-24T14:56:10Z</time>
      </trkpt>
      <trkpt lat="43.91486" lon="6.29675">
        <ele>1281.57</ele>
        <time>2019-06-24T14:56:11Z</time>
      </trkpt>
      <trkpt lat="43.9148" lon="6.2968">
        <ele>1283.02</ele>
        <time>2019-06-24T14:56:12Z</time>
      </trkpt>
      <trkpt lat="43.91475" lon="6.29686">
        <ele>1283.02</ele>
        <time>2019-06-24T14:56:13Z</time>
      </trkpt>
      <trkpt lat="43.9147" lon="6.29693">
        <ele>1283.98</ele>
        <time>2019-06-24T14:56:14Z</time>
      </trkpt>
      <trkpt lat="43.91464" lon="6.29701">
        <ele>1284.94</ele>
        <time>2019-06-24T14:56:15Z</time>
      </trkpt>
      <trkpt lat="43.9146" lon="6.2971">
        <ele>1285.42</ele>
        <time>2019-06-24T14:56:16Z</time>
      </trkpt>
      <trkpt lat="43.91455" lon="6.29719">
        <ele>1285.9</ele>
        <time>2019-06-24T14:56:17Z</time>
      </trkpt>
      <trkpt lat="43.91451" lon="6.29729">
        <ele>1286.38</ele>
        <time>2019-06-24T14:56:18Z</time>
      </trkpt>
      <trkpt lat="43.91448" lon="6.29738">
        <ele>1286.86</ele>
        <time>2019-06-24T14:56:19Z</time>
      </trkpt>
      <trkpt lat="43.91445" lon="6.29746">
        <ele>1287.34</ele>
        <time>2019-06-24T14:56:20Z</time>
      </trkpt>
      <trkpt lat="43.91442" lon="6.29753">
        <ele>1287.34</ele>
        <time>2019-06-24T14:56:21Z</time>
      </trkpt>
      <trkpt lat="43.91435" lon="6.29765">
        <ele>1287.82</ele>
        <time>2019-06-24T14:56:23Z</time>
      </trkpt>
      <trkpt lat="43.9143" lon="6.2977">
        <ele>1288.78</ele>
        <time>2019-06-24T14:56:24Z</time>
      </trkpt>
      <trkpt lat="43.91426" lon="6.29774">
        <ele>1289.27</ele>
        <time>2019-06-24T14:56:25Z</time>
      </trkpt>
      <trkpt lat="43.91421" lon="6.29779">
        <ele>1289.75</ele>
        <time>2019-06-24T14:56:26Z</time>
      </trkpt>
      <trkpt lat="43.91415" lon="6.29782">
        <ele>1290.71</ele>
        <time>2019-06-24T14:56:27Z</time>
      </trkpt>
      <trkpt lat="43.9141" lon="6.29785">
        <ele>1292.15</ele>
        <time>2019-06-24T14:56:28Z</time>
      </trkpt>
      <trkpt lat="43.91405" lon="6.29788">
        <ele>1292.15</ele>
        <time>2019-06-24T14:56:29Z</time>
      </trkpt>
      <trkpt lat="43.914" lon="6.29793">
        <ele>1293.11</ele>
        <time>2019-06-24T14:56:30Z</time>
      </trkpt>
      <trkpt lat="43.91391" lon="6.29807">
        <ele>1293.11</ele>
        <time>2019-06-24T14:56:32Z</time>
      </trkpt>
      <trkpt lat="43.91376" lon="6.29826">
        <ele>1295.03</ele>
        <time>2019-06-24T14:56:35Z</time>
      </trkpt>
      <trkpt lat="43.91371" lon="6.29833">
        <ele>1295.51</ele>
        <time>2019-06-24T14:56:36Z</time>
      </trkpt>
      <trkpt lat="43.91362" lon="6.29849">
        <ele>1296.48</ele>
        <time>2019-06-24T14:56:38Z</time>
      </trkpt>
      <trkpt lat="43.91354" lon="6.29866">
        <ele>1297.92</ele>
        <time>2019-06-24T14:56:40Z</time>
      </trkpt>
      <trkpt lat="43.91328" lon="6.29915">
        <ele>1301.76</ele>
        <time>2019-06-24T14:56:46Z</time>
      </trkpt>
      <trkpt lat="43.91299" lon="6.29961">
        <ele>1305.13</ele>
        <time>2019-06-24T14:56:51Z</time>
      </trkpt>
      <trkpt lat="43.91277" lon="6.29997">
        <ele>1308.97</ele>
        <time>2019-06-24T14:56:55Z</time>
      </trkpt>
      <trkpt lat="43.91272" lon="6.30003">
        <ele>1308.97</ele>
        <time>2019-06-24T14:56:56Z</time>
      </trkpt>
      <trkpt lat="43.91266" lon="6.30008">
        <ele>1309.45</ele>
        <time>2019-06-24T14:56:57Z</time>
      </trkpt>
      <trkpt lat="43.9126" lon="6.30012">
        <ele>1309.93</ele>
        <time>2019-06-24T14:56:58Z</time>
      </trkpt>
      <trkpt lat="43.91247" lon="6.30018">
        <ele>1311.38</ele>
        <time>2019-06-24T14:57:00Z</time>
      </trkpt>
      <trkpt lat="43.91241" lon="6.30022">
        <ele>1312.34</ele>
        <time>2019-06-24T14:57:01Z</time>
      </trkpt>
      <trkpt lat="43.91236" lon="6.30027">
        <ele>1312.34</ele>
        <time>2019-06-24T14:57:02Z</time>
      </trkpt>
      <trkpt lat="43.91227" lon="6.30034">
        <ele>1313.3</ele>
        <time>2019-06-24T14:57:04Z</time>
      </trkpt>
      <trkpt lat="43.91222" lon="6.30036">
        <ele>1313.78</ele>
        <time>2019-06-24T14:57:05Z</time>
      </trkpt>
      <trkpt lat="43.91198" lon="6.30046">
        <ele>1316.18</ele>
        <time>2019-06-24T14:57:10Z</time>
      </trkpt>
      <trkpt lat="43.91194" lon="6.30049">
        <ele>1316.18</ele>
        <time>2019-06-24T14:57:11Z</time>
      </trkpt>
      <trkpt lat="43.91184" lon="6.30054">
        <ele>1317.14</ele>
        <time>2019-06-24T14:57:14Z</time>
      </trkpt>
      <trkpt lat="43.91175" lon="6.30056">
        <ele>1317.62</ele>
        <time>2019-06-24T14:57:16Z</time>
      </trkpt>
      <trkpt lat="43.91171" lon="6.30058">
        <ele>1318.59</ele>
        <time>2019-06-24T14:57:17Z</time>
      </trkpt>
      <trkpt lat="43.91166" lon="6.30061">
        <ele>1319.55</ele>
        <time>2019-06-24T14:57:18Z</time>
      </trkpt>
      <trkpt lat="43.91162" lon="6.30064">
        <ele>1319.55</ele>
        <time>2019-06-24T14:57:19Z</time>
      </trkpt>
      <trkpt lat="43.91142" lon="6.30083">
        <ele>1321.47</ele>
        <time>2019-06-24T14:57:23Z</time>
      </trkpt>
      <trkpt lat="43.91138" lon="6.3009">
        <ele>1322.43</ele>
        <time>2019-06-24T14:57:24Z</time>
      </trkpt>
      <trkpt lat="43.91132" lon="6.30105">
        <ele>1323.39</ele>
        <time>2019-06-24T14:57:26Z</time>
      </trkpt>
      <trkpt lat="43.91128" lon="6.30111">
        <ele>1324.35</ele>
        <time>2019-06-24T14:57:27Z</time>
      </trkpt>
      <trkpt lat="43.91123" lon="6.30115">
        <ele>1324.35</ele>
        <time>2019-06-24T14:57:28Z</time>
      </trkpt>
      <trkpt lat="43.91117" lon="6.30118">
        <ele>1324.83</ele>
        <time>2019-06-24T14:57:29Z</time>
      </trkpt>
      <trkpt lat="43.91112" lon="6.3012">
        <ele>1325.31</ele>
        <time>2019-06-24T14:57:30Z</time>
      </trkpt>
      <trkpt lat="43.91106" lon="6.30122">
        <ele>1325.31</ele>
        <time>2019-06-24T14:57:31Z</time>
      </trkpt>
      <trkpt lat="43.91101" lon="6.30125">
        <ele>1325.8</ele>
        <time>2019-06-24T14:57:32Z</time>
      </trkpt>
      <trkpt lat="43.91094" lon="6.30127">
        <ele>1326.28</ele>
        <time>2019-06-24T14:57:33Z</time>
      </trkpt>
      <trkpt lat="43.91082" lon="6.30132">
        <ele>1326.76</ele>
        <time>2019-06-24T14:57:35Z</time>
      </trkpt>
      <trkpt lat="43.9107" lon="6.30135">
        <ele>1328.68</ele>
        <time>2019-06-24T14:57:37Z</time>
      </trkpt>
      <trkpt lat="43.91057" lon="6.30138">
        <ele>1329.64</ele>
        <time>2019-06-24T14:57:39Z</time>
      </trkpt>
      <trkpt lat="43.91051" lon="6.3014">
        <ele>1330.6</ele>
        <time>2019-06-24T14:57:40Z</time>
      </trkpt>
      <trkpt lat="43.91046" lon="6.30143">
        <ele>1330.6</ele>
        <time>2019-06-24T14:57:41Z</time>
      </trkpt>
      <trkpt lat="43.91041" lon="6.30146">
        <ele>1330.6</ele>
        <time>2019-06-24T14:57:42Z</time>
      </trkpt>
      <trkpt lat="43.91035" lon="6.30148">
        <ele>1331.08</ele>
        <time>2019-06-24T14:57:43Z</time>
      </trkpt>
      <trkpt lat="43.9103" lon="6.30148">
        <ele>1331.56</ele>
        <time>2019-06-24T14:57:44Z</time>
      </trkpt>
      <trkpt lat="43.91024" lon="6.3015">
        <ele>1332.52</ele>
        <time>2019-06-24T14:57:45Z</time>
      </trkpt>
      <trkpt lat="43.91018" lon="6.30152">
        <ele>1333.01</ele>
        <time>2019-06-24T14:57:46Z</time>
      </trkpt>
      <trkpt lat="43.90985" lon="6.30167">
        <ele>1335.89</ele>
        <time>2019-06-24T14:57:52Z</time>
      </trkpt>
      <trkpt lat="43.90981" lon="6.3017">
        <ele>1335.89</ele>
        <time>2019-06-24T14:57:53Z</time>
      </trkpt>
      <trkpt lat="43.90978" lon="6.30174">
        <ele>1336.37</ele>
        <time>2019-06-24T14:57:54Z</time>
      </trkpt>
      <trkpt lat="43.90976" lon="6.3018">
        <ele>1336.85</ele>
        <time>2019-06-24T14:57:55Z</time>
      </trkpt>
      <trkpt lat="43.90974" lon="6.30187">
        <ele>1337.33</ele>
        <time>2019-06-24T14:57:56Z</time>
      </trkpt>
      <trkpt lat="43.90971" lon="6.30193">
        <ele>1337.81</ele>
        <time>2019-06-24T14:57:57Z</time>
      </trkpt>
      <trkpt lat="43.90968" lon="6.302">
        <ele>1338.29</ele>
        <time>2019-06-24T14:57:58Z</time>
      </trkpt>
      <trkpt lat="43.90965" lon="6.30205">
        <ele>1338.77</ele>
        <time>2019-06-24T14:57:59Z</time>
      </trkpt>
      <trkpt lat="43.90955" lon="6.30221">
        <ele>1340.22</ele>
        <time>2019-06-24T14:58:02Z</time>
      </trkpt>
      <trkpt lat="43.90952" lon="6.30228">
        <ele>1341.18</ele>
        <time>2019-06-24T14:58:03Z</time>
      </trkpt>
      <trkpt lat="43.9095" lon="6.30235">
        <ele>1341.66</ele>
        <time>2019-06-24T14:58:04Z</time>
      </trkpt>
      <trkpt lat="43.90947" lon="6.30243">
        <ele>1342.14</ele>
        <time>2019-06-24T14:58:05Z</time>
      </trkpt>
      <trkpt lat="43.90932" lon="6.30281">
        <ele>1345.5</ele>
        <time>2019-06-24T14:58:10Z</time>
      </trkpt>
      <trkpt lat="43.90927" lon="6.30287">
        <ele>1345.5</ele>
        <time>2019-06-24T14:58:11Z</time>
      </trkpt>
      <trkpt lat="43.90921" lon="6.30291">
        <ele>1345.98</ele>
        <time>2019-06-24T14:58:12Z</time>
      </trkpt>
      <trkpt lat="43.90894" lon="6.30308">
        <ele>1348.39</ele>
        <time>2019-06-24T14:58:16Z</time>
      </trkpt>
      <trkpt lat="43.90888" lon="6.30312">
        <ele>1349.35</ele>
        <time>2019-06-24T14:58:17Z</time>
      </trkpt>
      <trkpt lat="43.90878" lon="6.30322">
        <ele>1349.83</ele>
        <time>2019-06-24T14:58:19Z</time>
      </trkpt>
      <trkpt lat="43.90873" lon="6.30326">
        <ele>1350.31</ele>
        <time>2019-06-24T14:58:20Z</time>
      </trkpt>
      <trkpt lat="43.90868" lon="6.30331">
        <ele>1350.79</ele>
        <time>2019-06-24T14:58:21Z</time>
      </trkpt>
      <trkpt lat="43.9085" lon="6.30355">
        <ele>1353.19</ele>
        <time>2019-06-24T14:58:25Z</time>
      </trkpt>
      <trkpt lat="43.9084" lon="6.30367">
        <ele>1354.15</ele>
        <time>2019-06-24T14:58:27Z</time>
      </trkpt>
      <trkpt lat="43.90834" lon="6.30372">
        <ele>1354.15</ele>
        <time>2019-06-24T14:58:28Z</time>
      </trkpt>
      <trkpt lat="43.90822" lon="6.3038">
        <ele>1355.12</ele>
        <time>2019-06-24T14:58:30Z</time>
      </trkpt>
      <trkpt lat="43.90816" lon="6.30385">
        <ele>1355.6</ele>
        <time>2019-06-24T14:58:31Z</time>
      </trkpt>
      <trkpt lat="43.90801" lon="6.30404">
        <ele>1357.52</ele>
        <time>2019-06-24T14:58:34Z</time>
      </trkpt>
      <trkpt lat="43.90797" lon="6.30411">
        <ele>1358.48</ele>
        <time>2019-06-24T14:58:35Z</time>
      </trkpt>
      <trkpt lat="43.90776" lon="6.30447">
        <ele>1361.84</ele>
        <time>2019-06-24T14:58:40Z</time>
      </trkpt>
      <trkpt lat="43.9075" lon="6.30479">
        <ele>1364.73</ele>
        <time>2019-06-24T14:58:45Z</time>
      </trkpt>
      <trkpt lat="43.90729" lon="6.30507">
        <ele>1367.61</ele>
        <time>2019-06-24T14:58:50Z</time>
      </trkpt>
      <trkpt lat="43.90724" lon="6.30511">
        <ele>1367.61</ele>
        <time>2019-06-24T14:58:51Z</time>
      </trkpt>
      <trkpt lat="43.90719" lon="6.30514">
        <ele>1368.57</ele>
        <time>2019-06-24T14:58:52Z</time>
      </trkpt>
      <trkpt lat="43.90714" lon="6.30515">
        <ele>1369.05</ele>
        <time>2019-06-24T14:58:53Z</time>
      </trkpt>
      <trkpt lat="43.90708" lon="6.30515">
        <ele>1369.05</ele>
        <time>2019-06-24T14:58:54Z</time>
      </trkpt>
      <trkpt lat="43.90703" lon="6.30517">
        <ele>1369.54</ele>
        <time>2019-06-24T14:58:55Z</time>
      </trkpt>
      <trkpt lat="43.90699" lon="6.30521">
        <ele>1370.02</ele>
        <time>2019-06-24T14:58:56Z</time>
      </trkpt>
      <trkpt lat="43.90696" lon="6.30526">
        <ele>1370.02</ele>
        <time>2019-06-24T14:58:57Z</time>
      </trkpt>
      <trkpt lat="43.90694" lon="6.30532">
        <ele>1370.5</ele>
        <time>2019-06-24T14:58:58Z</time>
      </trkpt>
      <trkpt lat="43.90692" lon="6.30539">
        <ele>1370.98</ele>
        <time>2019-06-24T14:58:59Z</time>
      </trkpt>
      <trkpt lat="43.9069" lon="6.30546">
        <ele>1371.46</ele>
        <time>2019-06-24T14:59:00Z</time>
      </trkpt>
      <trkpt lat="43.90687" lon="6.30553">
        <ele>1371.94</ele>
        <time>2019-06-24T14:59:01Z</time>
      </trkpt>
      <trkpt lat="43.90684" lon="6.30559">
        <ele>1372.42</ele>
        <time>2019-06-24T14:59:02Z</time>
      </trkpt>
      <trkpt lat="43.9068" lon="6.30565">
        <ele>1372.42</ele>
        <time>2019-06-24T14:59:03Z</time>
      </trkpt>
      <trkpt lat="43.90676" lon="6.3057">
        <ele>1372.9</ele>
        <time>2019-06-24T14:59:04Z</time>
      </trkpt>
      <trkpt lat="43.90662" lon="6.30585">
        <ele>1374.34</ele>
        <time>2019-06-24T14:59:07Z</time>
      </trkpt>
      <trkpt lat="43.90652" lon="6.30594">
        <ele>1375.78</ele>
        <time>2019-06-24T14:59:09Z</time>
      </trkpt>
      <trkpt lat="43.90642" lon="6.30605">
        <ele>1376.75</ele>
        <time>2019-06-24T14:59:11Z</time>
      </trkpt>
      <trkpt lat="43.90638" lon="6.30612">
        <ele>1377.23</ele>
        <time>2019-06-24T14:59:12Z</time>
      </trkpt>
      <trkpt lat="43.90634" lon="6.3062">
        <ele>1377.71</ele>
        <time>2019-06-24T14:59:13Z</time>
      </trkpt>
      <trkpt lat="43.90631" lon="6.30629">
        <ele>1379.15</ele>
        <time>2019-06-24T14:59:14Z</time>
      </trkpt>
      <trkpt lat="43.90626" lon="6.30636">
        <ele>1380.11</ele>
        <time>2019-06-24T14:59:15Z</time>
      </trkpt>
      <trkpt lat="43.90622" lon="6.30644">
        <ele>1380.11</ele>
        <time>2019-06-24T14:59:16Z</time>
      </trkpt>
      <trkpt lat="43.90619" lon="6.30652">
        <ele>1380.59</ele>
        <time>2019-06-24T14:59:17Z</time>
      </trkpt>
      <trkpt lat="43.90618" lon="6.30661">
        <ele>1381.07</ele>
        <time>2019-06-24T14:59:18Z</time>
      </trkpt>
      <trkpt lat="43.90616" lon="6.30669">
        <ele>1381.55</ele>
        <time>2019-06-24T14:59:19Z</time>
      </trkpt>
      <trkpt lat="43.90614" lon="6.30675">
        <ele>1381.07</ele>
        <time>2019-06-24T14:59:20Z</time>
      </trkpt>
      <trkpt lat="43.9061" lon="6.30681">
        <ele>1382.03</ele>
        <time>2019-06-24T14:59:21Z</time>
      </trkpt>
      <trkpt lat="43.90605" lon="6.30687">
        <ele>1382.03</ele>
        <time>2019-06-24T14:59:22Z</time>
      </trkpt>
      <trkpt lat="43.906" lon="6.30692">
        <ele>1383.47</ele>
        <time>2019-06-24T14:59:23Z</time>
      </trkpt>
      <trkpt lat="43.90595" lon="6.30695">
        <ele>1383.96</ele>
        <time>2019-06-24T14:59:24Z</time>
      </trkpt>
      <trkpt lat="43.9059" lon="6.30698">
        <ele>1384.44</ele>
        <time>2019-06-24T14:59:25Z</time>
      </trkpt>
      <trkpt lat="43.90578" lon="6.30706">
        <ele>1385.4</ele>
        <time>2019-06-24T14:59:27Z</time>
      </trkpt>
      <trkpt lat="43.9056" lon="6.30716">
        <ele>1387.32</ele>
        <time>2019-06-24T14:59:30Z</time>
      </trkpt>
      <trkpt lat="43.90555" lon="6.30721">
        <ele>1387.32</ele>
        <time>2019-06-24T14:59:31Z</time>
      </trkpt>
      <trkpt lat="43.9055" lon="6.30727">
        <ele>1388.28</ele>
        <time>2019-06-24T14:59:32Z</time>
      </trkpt>
      <trkpt lat="43.90545" lon="6.30735">
        <ele>1388.76</ele>
        <time>2019-06-24T14:59:33Z</time>
      </trkpt>
      <trkpt lat="43.9054" lon="6.30742">
        <ele>1389.72</ele>
        <time>2019-06-24T14:59:34Z</time>
      </trkpt>
      <trkpt lat="43.90536" lon="6.3075">
        <ele>1390.2</ele>
        <time>2019-06-24T14:59:35Z</time>
      </trkpt>
      <trkpt lat="43.90532" lon="6.30758">
        <ele>1390.68</ele>
        <time>2019-06-24T14:59:36Z</time>
      </trkpt>
      <trkpt lat="43.90529" lon="6.30767">
        <ele>1391.17</ele>
        <time>2019-06-24T14:59:37Z</time>
      </trkpt>
      <trkpt lat="43.90522" lon="6.30786">
        <ele>1392.61</ele>
        <time>2019-06-24T14:59:40Z</time>
      </trkpt>
      <trkpt lat="43.90518" lon="6.30792">
        <ele>1393.57</ele>
        <time>2019-06-24T14:59:41Z</time>
      </trkpt>
      <trkpt lat="43.90508" lon="6.3081">
        <ele>1394.53</ele>
        <time>2019-06-24T14:59:44Z</time>
      </trkpt>
      <trkpt lat="43.90505" lon="6.30816">
        <ele>1395.01</ele>
        <time>2019-06-24T14:59:45Z</time>
      </trkpt>
      <trkpt lat="43.90502" lon="6.30824">
        <ele>1395.49</ele>
        <time>2019-06-24T14:59:46Z</time>
      </trkpt>
      <trkpt lat="43.905" lon="6.30831">
        <ele>1395.97</ele>
        <time>2019-06-24T14:59:47Z</time>
      </trkpt>
      <trkpt lat="43.90498" lon="6.30839">
        <ele>1396.93</ele>
        <time>2019-06-24T14:59:48Z</time>
      </trkpt>
      <trkpt lat="43.90481" lon="6.30883">
        <ele>1400.3</ele>
        <time>2019-06-24T14:59:54Z</time>
      </trkpt>
      <trkpt lat="43.90474" lon="6.30895">
        <ele>1401.74</ele>
        <time>2019-06-24T14:59:56Z</time>
      </trkpt>
      <trkpt lat="43.90457" lon="6.30918">
        <ele>1403.66</ele>
        <time>2019-06-24T15:00:00Z</time>
      </trkpt>
      <trkpt lat="43.90454" lon="6.30924">
        <ele>1404.14</ele>
        <time>2019-06-24T15:00:01Z</time>
      </trkpt>
      <trkpt lat="43.90451" lon="6.3093">
        <ele>1404.62</ele>
        <time>2019-06-24T15:00:02Z</time>
      </trkpt>
      <trkpt lat="43.90447" lon="6.30936">
        <ele>1405.58</ele>
        <time>2019-06-24T15:00:03Z</time>
      </trkpt>
      <trkpt lat="43.90443" lon="6.30941">
        <ele>1405.58</ele>
        <time>2019-06-24T15:00:04Z</time>
      </trkpt>
      <trkpt lat="43.90438" lon="6.30948">
        <ele>1406.55</ele>
        <time>2019-06-24T15:00:05Z</time>
      </trkpt>
      <trkpt lat="43.90435" lon="6.30955">
        <ele>1407.03</ele>
        <time>2019-06-24T15:00:06Z</time>
      </trkpt>
      <trkpt lat="43.9041" lon="6.30998">
        <ele>1410.39</ele>
        <time>2019-06-24T15:00:12Z</time>
      </trkpt>
      <trkpt lat="43.90405" lon="6.31005">
        <ele>1409.91</ele>
        <time>2019-06-24T15:00:13Z</time>
      </trkpt>
      <trkpt lat="43.90396" lon="6.31018">
        <ele>1411.35</ele>
        <time>2019-06-24T15:00:15Z</time>
      </trkpt>
      <trkpt lat="43.90376" lon="6.3104">
        <ele>1413.76</ele>
        <time>2019-06-24T15:00:19Z</time>
      </trkpt>
      <trkpt lat="43.9037" lon="6.31045">
        <ele>1414.24</ele>
        <time>2019-06-24T15:00:20Z</time>
      </trkpt>
      <trkpt lat="43.90355" lon="6.31058">
        <ele>1416.16</ele>
        <time>2019-06-24T15:00:23Z</time>
      </trkpt>
      <trkpt lat="43.90351" lon="6.31064">
        <ele>1416.16</ele>
        <time>2019-06-24T15:00:24Z</time>
      </trkpt>
      <trkpt lat="43.90347" lon="6.31072">
        <ele>1417.12</ele>
        <time>2019-06-24T15:00:25Z</time>
      </trkpt>
      <trkpt lat="43.90345" lon="6.31081">
        <ele>1417.6</ele>
        <time>2019-06-24T15:00:26Z</time>
      </trkpt>
      <trkpt lat="43.90343" lon="6.31091">
        <ele>1418.56</ele>
        <time>2019-06-24T15:00:27Z</time>
      </trkpt>
      <trkpt lat="43.90342" lon="6.311">
        <ele>1418.56</ele>
        <time>2019-06-24T15:00:28Z</time>
      </trkpt>
      <trkpt lat="43.90318" lon="6.3117">
        <ele>1421.93</ele>
        <time>2019-06-24T15:00:36Z</time>
      </trkpt>
      <trkpt lat="43.90297" lon="6.31212">
        <ele>1424.33</ele>
        <time>2019-06-24T15:00:41Z</time>
      </trkpt>
      <trkpt lat="43.90294" lon="6.31221">
        <ele>1424.81</ele>
        <time>2019-06-24T15:00:42Z</time>
      </trkpt>
      <trkpt lat="43.90285" lon="6.31254">
        <ele>1425.77</ele>
        <time>2019-06-24T15:00:46Z</time>
      </trkpt>
      <trkpt lat="43.90272" lon="6.3127">
        <ele>1428.18</ele>
        <time>2019-06-24T15:00:51Z</time>
      </trkpt>
      <trkpt lat="43.90267" lon="6.31273">
        <ele>1428.66</ele>
        <time>2019-06-24T15:00:52Z</time>
      </trkpt>
      <trkpt lat="43.90262" lon="6.31276">
        <ele>1429.14</ele>
        <time>2019-06-24T15:00:53Z</time>
      </trkpt>
      <trkpt lat="43.90257" lon="6.31281">
        <ele>1428.66</ele>
        <time>2019-06-24T15:00:54Z</time>
      </trkpt>
      <trkpt lat="43.90252" lon="6.31288">
        <ele>1428.66</ele>
        <time>2019-06-24T15:00:55Z</time>
      </trkpt>
      <trkpt lat="43.90247" lon="6.31295">
        <ele>1429.62</ele>
        <time>2019-06-24T15:00:56Z</time>
      </trkpt>
      <trkpt lat="43.90242" lon="6.31302">
        <ele>1430.58</ele>
        <time>2019-06-24T15:00:57Z</time>
      </trkpt>
      <trkpt lat="43.90227" lon="6.31323">
        <ele>1431.54</ele>
        <time>2019-06-24T15:01:00Z</time>
      </trkpt>
      <trkpt lat="43.90223" lon="6.3133">
        <ele>1432.5</ele>
        <time>2019-06-24T15:01:01Z</time>
      </trkpt>
      <trkpt lat="43.90215" lon="6.31344">
        <ele>1432.5</ele>
        <time>2019-06-24T15:01:03Z</time>
      </trkpt>
      <trkpt lat="43.9021" lon="6.3135">
        <ele>1432.98</ele>
        <time>2019-06-24T15:01:04Z</time>
      </trkpt>
      <trkpt lat="43.90201" lon="6.31362">
        <ele>1433.46</ele>
        <time>2019-06-24T15:01:06Z</time>
      </trkpt>
      <trkpt lat="43.90198" lon="6.31369">
        <ele>1434.42</ele>
        <time>2019-06-24T15:01:07Z</time>
      </trkpt>
      <trkpt lat="43.90196" lon="6.31375">
        <ele>1433.94</ele>
        <time>2019-06-24T15:01:08Z</time>
      </trkpt>
      <trkpt lat="43.90197" lon="6.31381">
        <ele>1434.91</ele>
        <time>2019-06-24T15:01:09Z</time>
      </trkpt>
      <trkpt lat="43.90199" lon="6.31386">
        <ele>1434.91</ele>
        <time>2019-06-24T15:01:10Z</time>
      </trkpt>
      <trkpt lat="43.90202" lon="6.31388">
        <ele>1434.91</ele>
        <time>2019-06-24T15:01:11Z</time>
      </trkpt>
      <trkpt lat="43.90206" lon="6.31389">
        <ele>1435.39</ele>
        <time>2019-06-24T15:01:12Z</time>
      </trkpt>
      <trkpt lat="43.90211" lon="6.31388">
        <ele>1435.39</ele>
        <time>2019-06-24T15:01:13Z</time>
      </trkpt>
      <trkpt lat="43.90215" lon="6.31387">
        <ele>1435.39</ele>
        <time>2019-06-24T15:01:14Z</time>
      </trkpt>
      <trkpt lat="43.90254" lon="6.31396">
        <ele>1437.79</ele>
        <time>2019-06-24T15:01:24Z</time>
      </trkpt>
      <trkpt lat="43.90256" lon="6.314">
        <ele>1437.79</ele>
        <time>2019-06-24T15:01:33Z</time>
      </trkpt>
      <trkpt lat="43.90257" lon="6.31399">
        <ele>1438.27</ele>
        <time>2019-06-24T15:01:51Z</time>
      </trkpt>
      <trkpt lat="43.90257" lon="6.31399">
        <ele>1437.31</ele>
        <time>2019-06-24T15:02:20Z</time>
      </trkpt>
      <trkpt lat="43.90257" lon="6.314">
        <ele>1438.75</ele>
        <time>2019-06-24T15:03:06Z</time>
      </trkpt>
      <trkpt lat="43.90257" lon="6.314">
        <ele>1438.75</ele>
        <time>2019-06-24T15:03:39Z</time>
      </trkpt>
      <trkpt lat="43.90256" lon="6.31401">
        <ele>1439.23</ele>
        <time>2019-06-24T15:04:10Z</time>
      </trkpt>
      <trkpt lat="43.90258" lon="6.31404">
        <ele>1440.67</ele>
        <time>2019-06-24T15:04:43Z</time>
      </trkpt>
      <trkpt lat="43.90259" lon="6.31409">
        <ele>1440.67</ele>
        <time>2019-06-24T15:04:44Z</time>
      </trkpt>
      <trkpt lat="43.9026" lon="6.31415">
        <ele>1441.15</ele>
        <time>2019-06-24T15:04:45Z</time>
      </trkpt>
      <trkpt lat="43.9026" lon="6.31423">
        <ele>1441.63</ele>
        <time>2019-06-24T15:04:46Z</time>
      </trkpt>
      <trkpt lat="43.9026" lon="6.31431">
        <ele>1441.63</ele>
        <time>2019-06-24T15:04:47Z</time>
      </trkpt>
      <trkpt lat="43.90259" lon="6.31439">
        <ele>1441.63</ele>
        <time>2019-06-24T15:04:48Z</time>
      </trkpt>
      <trkpt lat="43.90257" lon="6.31447">
        <ele>1442.11</ele>
        <time>2019-06-24T15:04:49Z</time>
      </trkpt>
      <trkpt lat="43.90256" lon="6.31455">
        <ele>1443.08</ele>
        <time>2019-06-24T15:04:50Z</time>
      </trkpt>
      <trkpt lat="43.90254" lon="6.31463">
        <ele>1443.08</ele>
        <time>2019-06-24T15:04:51Z</time>
      </trkpt>
      <trkpt lat="43.90249" lon="6.3148">
        <ele>1444.52</ele>
        <time>2019-06-24T15:04:53Z</time>
      </trkpt>
      <trkpt lat="43.90237" lon="6.31519">
        <ele>1446.44</ele>
        <time>2019-06-24T15:04:58Z</time>
      </trkpt>
      <trkpt lat="43.90232" lon="6.31536">
        <ele>1447.4</ele>
        <time>2019-06-24T15:05:00Z</time>
      </trkpt>
      <trkpt lat="43.9022" lon="6.31604">
        <ele>1450.77</ele>
        <time>2019-06-24T15:05:08Z</time>
      </trkpt>
      <trkpt lat="43.9021" lon="6.31643">
        <ele>1453.65</ele>
        <time>2019-06-24T15:05:13Z</time>
      </trkpt>
      <trkpt lat="43.9021" lon="6.31651">
        <ele>1454.13</ele>
        <time>2019-06-24T15:05:14Z</time>
      </trkpt>
      <trkpt lat="43.9021" lon="6.31659">
        <ele>1454.61</ele>
        <time>2019-06-24T15:05:15Z</time>
      </trkpt>
      <trkpt lat="43.90212" lon="6.31677">
        <ele>1455.57</ele>
        <time>2019-06-24T15:05:17Z</time>
      </trkpt>
      <trkpt lat="43.90212" lon="6.31685">
        <ele>1454.61</ele>
        <time>2019-06-24T15:05:18Z</time>
      </trkpt>
      <trkpt lat="43.90211" lon="6.31694">
        <ele>1455.57</ele>
        <time>2019-06-24T15:05:19Z</time>
      </trkpt>
      <trkpt lat="43.90208" lon="6.31721">
        <ele>1456.53</ele>
        <time>2019-06-24T15:05:22Z</time>
      </trkpt>
      <trkpt lat="43.90209" lon="6.31731">
        <ele>1457.5</ele>
        <time>2019-06-24T15:05:23Z</time>
      </trkpt>
      <trkpt lat="43.90215" lon="6.31767">
        <ele>1458.46</ele>
        <time>2019-06-24T15:05:27Z</time>
      </trkpt>
      <trkpt lat="43.90218" lon="6.31774">
        <ele>1458.46</ele>
        <time>2019-06-24T15:05:28Z</time>
      </trkpt>
      <trkpt lat="43.90222" lon="6.3178">
        <ele>1457.98</ele>
        <time>2019-06-24T15:05:29Z</time>
      </trkpt>
      <trkpt lat="43.90231" lon="6.31792">
        <ele>1457.98</ele>
        <time>2019-06-24T15:05:31Z</time>
      </trkpt>
      <trkpt lat="43.90234" lon="6.31799">
        <ele>1458.46</ele>
        <time>2019-06-24T15:05:32Z</time>
      </trkpt>
      <trkpt lat="43.90236" lon="6.31808">
        <ele>1458.94</ele>
        <time>2019-06-24T15:05:33Z</time>
      </trkpt>
      <trkpt lat="43.90237" lon="6.31817">
        <ele>1458.94</ele>
        <time>2019-06-24T15:05:34Z</time>
      </trkpt>
      <trkpt lat="43.90238" lon="6.31828">
        <ele>1459.9</ele>
        <time>2019-06-24T15:05:35Z</time>
      </trkpt>
      <trkpt lat="43.90239" lon="6.31839">
        <ele>1459.42</ele>
        <time>2019-06-24T15:05:36Z</time>
      </trkpt>
      <trkpt lat="43.90239" lon="6.31849">
        <ele>1460.38</ele>
        <time>2019-06-24T15:05:37Z</time>
      </trkpt>
      <trkpt lat="43.90242" lon="6.31876">
        <ele>1458.94</ele>
        <time>2019-06-24T15:05:40Z</time>
      </trkpt>
      <trkpt lat="43.90247" lon="6.319">
        <ele>1460.38</ele>
        <time>2019-06-24T15:05:43Z</time>
      </trkpt>
      <trkpt lat="43.90247" lon="6.31908">
        <ele>1460.86</ele>
        <time>2019-06-24T15:05:44Z</time>
      </trkpt>
      <trkpt lat="43.90246" lon="6.31915">
        <ele>1460.38</ele>
        <time>2019-06-24T15:05:45Z</time>
      </trkpt>
      <trkpt lat="43.90245" lon="6.31922">
        <ele>1459.9</ele>
        <time>2019-06-24T15:05:46Z</time>
      </trkpt>
      <trkpt lat="43.90246" lon="6.31928">
        <ele>1460.86</ele>
        <time>2019-06-24T15:05:47Z</time>
      </trkpt>
      <trkpt lat="43.90247" lon="6.31935">
        <ele>1460.38</ele>
        <time>2019-06-24T15:05:48Z</time>
      </trkpt>
      <trkpt lat="43.90248" lon="6.31942">
        <ele>1460.38</ele>
        <time>2019-06-24T15:05:49Z</time>
      </trkpt>
      <trkpt lat="43.9025" lon="6.31949">
        <ele>1460.38</ele>
        <time>2019-06-24T15:05:50Z</time>
      </trkpt>
      <trkpt lat="43.90254" lon="6.31966">
        <ele>1460.86</ele>
        <time>2019-06-24T15:05:52Z</time>
      </trkpt>
      <trkpt lat="43.90254" lon="6.31974">
        <ele>1460.86</ele>
        <time>2019-06-24T15:05:53Z</time>
      </trkpt>
      <trkpt lat="43.90256" lon="6.31992">
        <ele>1460.86</ele>
        <time>2019-06-24T15:05:55Z</time>
      </trkpt>
      <trkpt lat="43.90258" lon="6.32001">
        <ele>1460.86</ele>
        <time>2019-06-24T15:05:56Z</time>
      </trkpt>
      <trkpt lat="43.90259" lon="6.32008">
        <ele>1460.86</ele>
        <time>2019-06-24T15:05:57Z</time>
      </trkpt>
      <trkpt lat="43.9026" lon="6.32015">
        <ele>1460.86</ele>
        <time>2019-06-24T15:05:58Z</time>
      </trkpt>
      <trkpt lat="43.9026" lon="6.32021">
        <ele>1461.34</ele>
        <time>2019-06-24T15:05:59Z</time>
      </trkpt>
      <trkpt lat="43.90259" lon="6.32028">
        <ele>1460.86</ele>
        <time>2019-06-24T15:06:00Z</time>
      </trkpt>
      <trkpt lat="43.90257" lon="6.32036">
        <ele>1461.34</ele>
        <time>2019-06-24T15:06:01Z</time>
      </trkpt>
      <trkpt lat="43.90251" lon="6.32072">
        <ele>1462.3</ele>
        <time>2019-06-24T15:06:05Z</time>
      </trkpt>
      <trkpt lat="43.9025" lon="6.3208">
        <ele>1462.3</ele>
        <time>2019-06-24T15:06:06Z</time>
      </trkpt>
      <trkpt lat="43.9025" lon="6.32088">
        <ele>1462.78</ele>
        <time>2019-06-24T15:06:07Z</time>
      </trkpt>
      <trkpt lat="43.90251" lon="6.32096">
        <ele>1462.78</ele>
        <time>2019-06-24T15:06:08Z</time>
      </trkpt>
      <trkpt lat="43.90253" lon="6.32104">
        <ele>1462.78</ele>
        <time>2019-06-24T15:06:09Z</time>
      </trkpt>
      <trkpt lat="43.90255" lon="6.32112">
        <ele>1463.26</ele>
        <time>2019-06-24T15:06:10Z</time>
      </trkpt>
      <trkpt lat="43.90257" lon="6.32121">
        <ele>1463.26</ele>
        <time>2019-06-24T15:06:11Z</time>
      </trkpt>
      <trkpt lat="43.90258" lon="6.3213">
        <ele>1463.74</ele>
        <time>2019-06-24T15:06:12Z</time>
      </trkpt>
      <trkpt lat="43.90258" lon="6.32205">
        <ele>1464.71</ele>
        <time>2019-06-24T15:06:18Z</time>
      </trkpt>
      <trkpt lat="43.90256" lon="6.32217">
        <ele>1465.67</ele>
        <time>2019-06-24T15:06:19Z</time>
      </trkpt>
      <trkpt lat="43.90252" lon="6.32238">
        <ele>1464.71</ele>
        <time>2019-06-24T15:06:21Z</time>
      </trkpt>
      <trkpt lat="43.90252" lon="6.32248">
        <ele>1464.71</ele>
        <time>2019-06-24T15:06:22Z</time>
      </trkpt>
      <trkpt lat="43.90252" lon="6.32256">
        <ele>1464.71</ele>
        <time>2019-06-24T15:06:23Z</time>
      </trkpt>
      <trkpt lat="43.90254" lon="6.32265">
        <ele>1464.23</ele>
        <time>2019-06-24T15:06:24Z</time>
      </trkpt>
      <trkpt lat="43.90256" lon="6.32274">
        <ele>1464.71</ele>
        <time>2019-06-24T15:06:25Z</time>
      </trkpt>
      <trkpt lat="43.90259" lon="6.32282">
        <ele>1464.71</ele>
        <time>2019-06-24T15:06:26Z</time>
      </trkpt>
      <trkpt lat="43.90264" lon="6.32295">
        <ele>1464.23</ele>
        <time>2019-06-24T15:06:28Z</time>
      </trkpt>
      <trkpt lat="43.90268" lon="6.32298">
        <ele>1464.23</ele>
        <time>2019-06-24T15:06:29Z</time>
      </trkpt>
      <trkpt lat="43.90272" lon="6.32299">
        <ele>1463.74</ele>
        <time>2019-06-24T15:06:30Z</time>
      </trkpt>
      <trkpt lat="43.90277" lon="6.32298">
        <ele>1463.26</ele>
        <time>2019-06-24T15:06:31Z</time>
      </trkpt>
      <trkpt lat="43.90282" lon="6.32295">
        <ele>1463.74</ele>
        <time>2019-06-24T15:06:32Z</time>
      </trkpt>
      <trkpt lat="43.90288" lon="6.3229">
        <ele>1462.78</ele>
        <time>2019-06-24T15:06:33Z</time>
      </trkpt>
      <trkpt lat="43.90294" lon="6.32285">
        <ele>1462.78</ele>
        <time>2019-06-24T15:06:34Z</time>
      </trkpt>
      <trkpt lat="43.90308" lon="6.32274">
        <ele>1463.26</ele>
        <time>2019-06-24T15:06:36Z</time>
      </trkpt>
      <trkpt lat="43.90316" lon="6.32271">
        <ele>1462.3</ele>
        <time>2019-06-24T15:06:37Z</time>
      </trkpt>
      <trkpt lat="43.90344" lon="6.32257">
        <ele>1461.34</ele>
        <time>2019-06-24T15:06:41Z</time>
      </trkpt>
      <trkpt lat="43.90378" lon="6.32231">
        <ele>1457.98</ele>
        <time>2019-06-24T15:06:46Z</time>
      </trkpt>
      <trkpt lat="43.90396" lon="6.32214">
        <ele>1456.53</ele>
        <time>2019-06-24T15:06:49Z</time>
      </trkpt>
      <trkpt lat="43.90402" lon="6.3221">
        <ele>1455.57</ele>
        <time>2019-06-24T15:06:50Z</time>
      </trkpt>
      <trkpt lat="43.90409" lon="6.32208">
        <ele>1454.61</ele>
        <time>2019-06-24T15:06:51Z</time>
      </trkpt>
      <trkpt lat="43.90416" lon="6.32206">
        <ele>1455.57</ele>
        <time>2019-06-24T15:06:52Z</time>
      </trkpt>
      <trkpt lat="43.9045" lon="6.32202">
        <ele>1452.69</ele>
        <time>2019-06-24T15:06:56Z</time>
      </trkpt>
      <trkpt lat="43.90458" lon="6.32203">
        <ele>1452.69</ele>
        <time>2019-06-24T15:06:57Z</time>
      </trkpt>
      <trkpt lat="43.90466" lon="6.32207">
        <ele>1452.69</ele>
        <time>2019-06-24T15:06:58Z</time>
      </trkpt>
      <trkpt lat="43.90474" lon="6.32213">
        <ele>1452.21</ele>
        <time>2019-06-24T15:06:59Z</time>
      </trkpt>
      <trkpt lat="43.90481" lon="6.32219">
        <ele>1451.73</ele>
        <time>2019-06-24T15:07:00Z</time>
      </trkpt>
      <trkpt lat="43.90493" lon="6.32232">
        <ele>1450.29</ele>
        <time>2019-06-24T15:07:02Z</time>
      </trkpt>
      <trkpt lat="43.90498" lon="6.32241">
        <ele>1450.29</ele>
        <time>2019-06-24T15:07:03Z</time>
      </trkpt>
      <trkpt lat="43.90518" lon="6.32281">
        <ele>1447.88</ele>
        <time>2019-06-24T15:07:07Z</time>
      </trkpt>
      <trkpt lat="43.90524" lon="6.3229">
        <ele>1448.36</ele>
        <time>2019-06-24T15:07:08Z</time>
      </trkpt>
      <trkpt lat="43.90531" lon="6.32297">
        <ele>1446.92</ele>
        <time>2019-06-24T15:07:09Z</time>
      </trkpt>
      <trkpt lat="43.90538" lon="6.32304">
        <ele>1445.96</ele>
        <time>2019-06-24T15:07:10Z</time>
      </trkpt>
      <trkpt lat="43.90546" lon="6.32312">
        <ele>1446.44</ele>
        <time>2019-06-24T15:07:11Z</time>
      </trkpt>
      <trkpt lat="43.90553" lon="6.3232">
        <ele>1444.52</ele>
        <time>2019-06-24T15:07:12Z</time>
      </trkpt>
      <trkpt lat="43.90561" lon="6.32326">
        <ele>1444.52</ele>
        <time>2019-06-24T15:07:13Z</time>
      </trkpt>
      <trkpt lat="43.90569" lon="6.32332">
        <ele>1443.56</ele>
        <time>2019-06-24T15:07:14Z</time>
      </trkpt>
      <trkpt lat="43.90574" lon="6.32339">
        <ele>1443.08</ele>
        <time>2019-06-24T15:07:15Z</time>
      </trkpt>
      <trkpt lat="43.90577" lon="6.32348">
        <ele>1442.6</ele>
        <time>2019-06-24T15:07:16Z</time>
      </trkpt>
      <trkpt lat="43.90579" lon="6.32358">
        <ele>1442.6</ele>
        <time>2019-06-24T15:07:17Z</time>
      </trkpt>
      <trkpt lat="43.9058" lon="6.32368">
        <ele>1442.6</ele>
        <time>2019-06-24T15:07:18Z</time>
      </trkpt>
      <trkpt lat="43.9058" lon="6.32378">
        <ele>1443.56</ele>
        <time>2019-06-24T15:07:19Z</time>
      </trkpt>
      <trkpt lat="43.90578" lon="6.32388">
        <ele>1443.08</ele>
        <time>2019-06-24T15:07:20Z</time>
      </trkpt>
      <trkpt lat="43.90575" lon="6.32398">
        <ele>1443.08</ele>
        <time>2019-06-24T15:07:21Z</time>
      </trkpt>
      <trkpt lat="43.90572" lon="6.32408">
        <ele>1443.08</ele>
        <time>2019-06-24T15:07:22Z</time>
      </trkpt>
      <trkpt lat="43.90571" lon="6.32419">
        <ele>1443.56</ele>
        <time>2019-06-24T15:07:23Z</time>
      </trkpt>
      <trkpt lat="43.9057" lon="6.3243">
        <ele>1443.56</ele>
        <time>2019-06-24T15:07:24Z</time>
      </trkpt>
      <trkpt lat="43.90568" lon="6.32453">
        <ele>1443.08</ele>
        <time>2019-06-24T15:07:26Z</time>
      </trkpt>
      <trkpt lat="43.90565" lon="6.32464">
        <ele>1443.08</ele>
        <time>2019-06-24T15:07:27Z</time>
      </trkpt>
      <trkpt lat="43.9056" lon="6.32474">
        <ele>1443.56</ele>
        <time>2019-06-24T15:07:28Z</time>
      </trkpt>
      <trkpt lat="43.90543" lon="6.32506">
        <ele>1442.11</ele>
        <time>2019-06-24T15:07:32Z</time>
      </trkpt>
      <trkpt lat="43.9054" lon="6.32513">
        <ele>1442.11</ele>
        <time>2019-06-24T15:07:33Z</time>
      </trkpt>
      <trkpt lat="43.90537" lon="6.3252">
        <ele>1442.11</ele>
        <time>2019-06-24T15:07:34Z</time>
      </trkpt>
      <trkpt lat="43.90536" lon="6.32529">
        <ele>1442.11</ele>
        <time>2019-06-24T15:07:35Z</time>
      </trkpt>
      <trkpt lat="43.90537" lon="6.32537">
        <ele>1441.15</ele>
        <time>2019-06-24T15:07:36Z</time>
      </trkpt>
      <trkpt lat="43.9054" lon="6.32546">
        <ele>1441.15</ele>
        <time>2019-06-24T15:07:37Z</time>
      </trkpt>
      <trkpt lat="43.90543" lon="6.32555">
        <ele>1441.15</ele>
        <time>2019-06-24T15:07:38Z</time>
      </trkpt>
      <trkpt lat="43.90547" lon="6.32564">
        <ele>1440.19</ele>
        <time>2019-06-24T15:07:39Z</time>
      </trkpt>
      <trkpt lat="43.9055" lon="6.32574">
        <ele>1439.71</ele>
        <time>2019-06-24T15:07:40Z</time>
      </trkpt>
      <trkpt lat="43.9055" lon="6.32585">
        <ele>1439.71</ele>
        <time>2019-06-24T15:07:41Z</time>
      </trkpt>
      <trkpt lat="43.90552" lon="6.32606">
        <ele>1438.75</ele>
        <time>2019-06-24T15:07:43Z</time>
      </trkpt>
      <trkpt lat="43.90554" lon="6.32626">
        <ele>1438.27</ele>
        <time>2019-06-24T15:07:45Z</time>
      </trkpt>
      <trkpt lat="43.90552" lon="6.32636">
        <ele>1438.27</ele>
        <time>2019-06-24T15:07:46Z</time>
      </trkpt>
      <trkpt lat="43.90549" lon="6.32645">
        <ele>1438.27</ele>
        <time>2019-06-24T15:07:47Z</time>
      </trkpt>
      <trkpt lat="43.90545" lon="6.32653">
        <ele>1437.79</ele>
        <time>2019-06-24T15:07:48Z</time>
      </trkpt>
      <trkpt lat="43.9054" lon="6.32661">
        <ele>1437.79</ele>
        <time>2019-06-24T15:07:49Z</time>
      </trkpt>
      <trkpt lat="43.90534" lon="6.32668">
        <ele>1437.79</ele>
        <time>2019-06-24T15:07:50Z</time>
      </trkpt>
      <trkpt lat="43.90523" lon="6.32684">
        <ele>1437.79</ele>
        <time>2019-06-24T15:07:52Z</time>
      </trkpt>
      <trkpt lat="43.90519" lon="6.32693">
        <ele>1437.79</ele>
        <time>2019-06-24T15:07:53Z</time>
      </trkpt>
      <trkpt lat="43.90511" lon="6.32713">
        <ele>1439.23</ele>
        <time>2019-06-24T15:07:55Z</time>
      </trkpt>
      <trkpt lat="43.90483" lon="6.3277">
        <ele>1440.19</ele>
        <time>2019-06-24T15:08:03Z</time>
      </trkpt>
      <trkpt lat="43.90481" lon="6.32778">
        <ele>1440.67</ele>
        <time>2019-06-24T15:08:04Z</time>
      </trkpt>
      <trkpt lat="43.90472" lon="6.32847">
        <ele>1444.04</ele>
        <time>2019-06-24T15:08:12Z</time>
      </trkpt>
      <trkpt lat="43.90469" lon="6.32854">
        <ele>1444.52</ele>
        <time>2019-06-24T15:08:13Z</time>
      </trkpt>
      <trkpt lat="43.90462" lon="6.3287">
        <ele>1445</ele>
        <time>2019-06-24T15:08:15Z</time>
      </trkpt>
      <trkpt lat="43.9046" lon="6.32878">
        <ele>1445.48</ele>
        <time>2019-06-24T15:08:16Z</time>
      </trkpt>
      <trkpt lat="43.90458" lon="6.32886">
        <ele>1445.96</ele>
        <time>2019-06-24T15:08:17Z</time>
      </trkpt>
      <trkpt lat="43.90454" lon="6.32894">
        <ele>1446.44</ele>
        <time>2019-06-24T15:08:18Z</time>
      </trkpt>
      <trkpt lat="43.9045" lon="6.32901">
        <ele>1446.92</ele>
        <time>2019-06-24T15:08:19Z</time>
      </trkpt>
      <trkpt lat="43.90446" lon="6.3291">
        <ele>1448.36</ele>
        <time>2019-06-24T15:08:20Z</time>
      </trkpt>
      <trkpt lat="43.90443" lon="6.32918">
        <ele>1447.88</ele>
        <time>2019-06-24T15:08:21Z</time>
      </trkpt>
      <trkpt lat="43.9043" lon="6.32944">
        <ele>1448.84</ele>
        <time>2019-06-24T15:08:24Z</time>
      </trkpt>
      <trkpt lat="43.90424" lon="6.32952">
        <ele>1449.32</ele>
        <time>2019-06-24T15:08:25Z</time>
      </trkpt>
      <trkpt lat="43.90412" lon="6.32966">
        <ele>1449.81</ele>
        <time>2019-06-24T15:08:27Z</time>
      </trkpt>
      <trkpt lat="43.90395" lon="6.32993">
        <ele>1449.32</ele>
        <time>2019-06-24T15:08:32Z</time>
      </trkpt>
      <trkpt lat="43.90393" lon="6.32999">
        <ele>1449.32</ele>
        <time>2019-06-24T15:08:33Z</time>
      </trkpt>
      <trkpt lat="43.90393" lon="6.33006">
        <ele>1449.32</ele>
        <time>2019-06-24T15:08:34Z</time>
      </trkpt>
      <trkpt lat="43.90395" lon="6.33025">
        <ele>1448.84</ele>
        <time>2019-06-24T15:08:36Z</time>
      </trkpt>
      <trkpt lat="43.90395" lon="6.33035">
        <ele>1448.36</ele>
        <time>2019-06-24T15:08:37Z</time>
      </trkpt>
      <trkpt lat="43.90393" lon="6.33046">
        <ele>1448.36</ele>
        <time>2019-06-24T15:08:38Z</time>
      </trkpt>
      <trkpt lat="43.90391" lon="6.33057">
        <ele>1447.4</ele>
        <time>2019-06-24T15:08:39Z</time>
      </trkpt>
      <trkpt lat="43.90389" lon="6.33067">
        <ele>1446.92</ele>
        <time>2019-06-24T15:08:40Z</time>
      </trkpt>
      <trkpt lat="43.90377" lon="6.33106">
        <ele>1444.04</ele>
        <time>2019-06-24T15:08:44Z</time>
      </trkpt>
      <trkpt lat="43.90362" lon="6.33135">
        <ele>1442.6</ele>
        <time>2019-06-24T15:08:48Z</time>
      </trkpt>
      <trkpt lat="43.90357" lon="6.33141">
        <ele>1442.11</ele>
        <time>2019-06-24T15:08:49Z</time>
      </trkpt>
      <trkpt lat="43.90351" lon="6.33147">
        <ele>1440.67</ele>
        <time>2019-06-24T15:08:50Z</time>
      </trkpt>
      <trkpt lat="43.90345" lon="6.33153">
        <ele>1440.19</ele>
        <time>2019-06-24T15:08:51Z</time>
      </trkpt>
      <trkpt lat="43.90339" lon="6.33159">
        <ele>1439.71</ele>
        <time>2019-06-24T15:08:52Z</time>
      </trkpt>
      <trkpt lat="43.90314" lon="6.33184">
        <ele>1435.87</ele>
        <time>2019-06-24T15:08:56Z</time>
      </trkpt>
      <trkpt lat="43.90302" lon="6.33194">
        <ele>1434.91</ele>
        <time>2019-06-24T15:08:58Z</time>
      </trkpt>
      <trkpt lat="43.90297" lon="6.33198">
        <ele>1433.46</ele>
        <time>2019-06-24T15:08:59Z</time>
      </trkpt>
      <trkpt lat="43.90292" lon="6.33203">
        <ele>1432.5</ele>
        <time>2019-06-24T15:09:00Z</time>
      </trkpt>
      <trkpt lat="43.90282" lon="6.33213">
        <ele>1432.02</ele>
        <time>2019-06-24T15:09:02Z</time>
      </trkpt>
      <trkpt lat="43.90262" lon="6.33236">
        <ele>1430.1</ele>
        <time>2019-06-24T15:09:06Z</time>
      </trkpt>
      <trkpt lat="43.90255" lon="6.33246">
        <ele>1428.66</ele>
        <time>2019-06-24T15:09:08Z</time>
      </trkpt>
      <trkpt lat="43.90251" lon="6.33247">
        <ele>1428.66</ele>
        <time>2019-06-24T15:09:09Z</time>
      </trkpt>
      <trkpt lat="43.90248" lon="6.33245">
        <ele>1428.18</ele>
        <time>2019-06-24T15:09:10Z</time>
      </trkpt>
      <trkpt lat="43.90246" lon="6.33241">
        <ele>1427.7</ele>
        <time>2019-06-24T15:09:11Z</time>
      </trkpt>
      <trkpt lat="43.90246" lon="6.33234">
        <ele>1427.7</ele>
        <time>2019-06-24T15:09:12Z</time>
      </trkpt>
      <trkpt lat="43.90248" lon="6.33229">
        <ele>1427.7</ele>
        <time>2019-06-24T15:09:13Z</time>
      </trkpt>
      <trkpt lat="43.90251" lon="6.33224">
        <ele>1427.21</ele>
        <time>2019-06-24T15:09:14Z</time>
      </trkpt>
      <trkpt lat="43.90254" lon="6.33218">
        <ele>1427.7</ele>
        <time>2019-06-24T15:09:15Z</time>
      </trkpt>
      <trkpt lat="43.90257" lon="6.33211">
        <ele>1426.73</ele>
        <time>2019-06-24T15:09:16Z</time>
      </trkpt>
      <trkpt lat="43.90259" lon="6.33203">
        <ele>1426.25</ele>
        <time>2019-06-24T15:09:17Z</time>
      </trkpt>
      <trkpt lat="43.90261" lon="6.33195">
        <ele>1425.77</ele>
        <time>2019-06-24T15:09:18Z</time>
      </trkpt>
      <trkpt lat="43.90262" lon="6.33188">
        <ele>1425.29</ele>
        <time>2019-06-24T15:09:19Z</time>
      </trkpt>
      <trkpt lat="43.90262" lon="6.3318">
        <ele>1424.81</ele>
        <time>2019-06-24T15:09:20Z</time>
      </trkpt>
      <trkpt lat="43.90263" lon="6.33172">
        <ele>1424.81</ele>
        <time>2019-06-24T15:09:21Z</time>
      </trkpt>
      <trkpt lat="43.90263" lon="6.33164">
        <ele>1423.85</ele>
        <time>2019-06-24T15:09:22Z</time>
      </trkpt>
      <trkpt lat="43.90263" lon="6.33155">
        <ele>1422.89</ele>
        <time>2019-06-24T15:09:23Z</time>
      </trkpt>
      <trkpt lat="43.90263" lon="6.33147">
        <ele>1422.41</ele>
        <time>2019-06-24T15:09:24Z</time>
      </trkpt>
      <trkpt lat="43.90265" lon="6.33139">
        <ele>1421.93</ele>
        <time>2019-06-24T15:09:25Z</time>
      </trkpt>
      <trkpt lat="43.90266" lon="6.3313">
        <ele>1421.93</ele>
        <time>2019-06-24T15:09:26Z</time>
      </trkpt>
      <trkpt lat="43.90266" lon="6.3312">
        <ele>1420.97</ele>
        <time>2019-06-24T15:09:27Z</time>
      </trkpt>
      <trkpt lat="43.90268" lon="6.33102">
        <ele>1420</ele>
        <time>2019-06-24T15:09:29Z</time>
      </trkpt>
      <trkpt lat="43.90269" lon="6.33085">
        <ele>1418.56</ele>
        <time>2019-06-24T15:09:31Z</time>
      </trkpt>
      <trkpt lat="43.90267" lon="6.33075">
        <ele>1417.6</ele>
        <time>2019-06-24T15:09:32Z</time>
      </trkpt>
      <trkpt lat="43.90264" lon="6.33065">
        <ele>1417.12</ele>
        <time>2019-06-24T15:09:33Z</time>
      </trkpt>
      <trkpt lat="43.90247" lon="6.33017">
        <ele>1413.76</ele>
        <time>2019-06-24T15:09:38Z</time>
      </trkpt>
      <trkpt lat="43.90245" lon="6.3301">
        <ele>1413.28</ele>
        <time>2019-06-24T15:09:39Z</time>
      </trkpt>
      <trkpt lat="43.90241" lon="6.33005">
        <ele>1412.31</ele>
        <time>2019-06-24T15:09:40Z</time>
      </trkpt>
      <trkpt lat="43.90238" lon="6.33003">
        <ele>1411.83</ele>
        <time>2019-06-24T15:09:41Z</time>
      </trkpt>
      <trkpt lat="43.90234" lon="6.33005">
        <ele>1411.35</ele>
        <time>2019-06-24T15:09:42Z</time>
      </trkpt>
      <trkpt lat="43.90231" lon="6.33008">
        <ele>1410.87</ele>
        <time>2019-06-24T15:09:43Z</time>
      </trkpt>
      <trkpt lat="43.9023" lon="6.33014">
        <ele>1410.39</ele>
        <time>2019-06-24T15:09:44Z</time>
      </trkpt>
      <trkpt lat="43.90231" lon="6.3302">
        <ele>1410.39</ele>
        <time>2019-06-24T15:09:45Z</time>
      </trkpt>
      <trkpt lat="43.90232" lon="6.33027">
        <ele>1410.39</ele>
        <time>2019-06-24T15:09:46Z</time>
      </trkpt>
      <trkpt lat="43.90234" lon="6.33035">
        <ele>1409.91</ele>
        <time>2019-06-24T15:09:47Z</time>
      </trkpt>
      <trkpt lat="43.90234" lon="6.33043">
        <ele>1409.91</ele>
        <time>2019-06-24T15:09:48Z</time>
      </trkpt>
      <trkpt lat="43.90232" lon="6.33051">
        <ele>1409.91</ele>
        <time>2019-06-24T15:09:49Z</time>
      </trkpt>
      <trkpt lat="43.9023" lon="6.3306">
        <ele>1409.43</ele>
        <time>2019-06-24T15:09:50Z</time>
      </trkpt>
      <trkpt lat="43.90227" lon="6.33068">
        <ele>1408.95</ele>
        <time>2019-06-24T15:09:51Z</time>
      </trkpt>
      <trkpt lat="43.90223" lon="6.33076">
        <ele>1408.47</ele>
        <time>2019-06-24T15:09:52Z</time>
      </trkpt>
      <trkpt lat="43.90217" lon="6.33082">
        <ele>1407.99</ele>
        <time>2019-06-24T15:09:53Z</time>
      </trkpt>
      <trkpt lat="43.90211" lon="6.33088">
        <ele>1406.55</ele>
        <time>2019-06-24T15:09:54Z</time>
      </trkpt>
      <trkpt lat="43.90205" lon="6.33092">
        <ele>1406.07</ele>
        <time>2019-06-24T15:09:55Z</time>
      </trkpt>
      <trkpt lat="43.90198" lon="6.33095">
        <ele>1405.1</ele>
        <time>2019-06-24T15:09:56Z</time>
      </trkpt>
      <trkpt lat="43.90185" lon="6.331">
        <ele>1403.66</ele>
        <time>2019-06-24T15:09:58Z</time>
      </trkpt>
      <trkpt lat="43.9018" lon="6.33103">
        <ele>1402.22</ele>
        <time>2019-06-24T15:09:59Z</time>
      </trkpt>
      <trkpt lat="43.90176" lon="6.33107">
        <ele>1401.26</ele>
        <time>2019-06-24T15:10:00Z</time>
      </trkpt>
      <trkpt lat="43.90173" lon="6.33113">
        <ele>1401.26</ele>
        <time>2019-06-24T15:10:01Z</time>
      </trkpt>
      <trkpt lat="43.9017" lon="6.33119">
        <ele>1399.82</ele>
        <time>2019-06-24T15:10:02Z</time>
      </trkpt>
      <trkpt lat="43.90168" lon="6.33127">
        <ele>1399.82</ele>
        <time>2019-06-24T15:10:03Z</time>
      </trkpt>
      <trkpt lat="43.90166" lon="6.33136">
        <ele>1399.34</ele>
        <time>2019-06-24T15:10:04Z</time>
      </trkpt>
      <trkpt lat="43.90164" lon="6.33145">
        <ele>1397.89</ele>
        <time>2019-06-24T15:10:05Z</time>
      </trkpt>
      <trkpt lat="43.90162" lon="6.33154">
        <ele>1397.41</ele>
        <time>2019-06-24T15:10:06Z</time>
      </trkpt>
      <trkpt lat="43.9016" lon="6.33162">
        <ele>1396.45</ele>
        <time>2019-06-24T15:10:07Z</time>
      </trkpt>
      <trkpt lat="43.90157" lon="6.33168">
        <ele>1395.97</ele>
        <time>2019-06-24T15:10:08Z</time>
      </trkpt>
      <trkpt lat="43.90152" lon="6.33171">
        <ele>1395.01</ele>
        <time>2019-06-24T15:10:09Z</time>
      </trkpt>
      <trkpt lat="43.90147" lon="6.33173">
        <ele>1394.05</ele>
        <time>2019-06-24T15:10:10Z</time>
      </trkpt>
      <trkpt lat="43.90142" lon="6.33172">
        <ele>1393.57</ele>
        <time>2019-06-24T15:10:11Z</time>
      </trkpt>
      <trkpt lat="43.90136" lon="6.3317">
        <ele>1393.09</ele>
        <time>2019-06-24T15:10:12Z</time>
      </trkpt>
      <trkpt lat="43.90129" lon="6.33167">
        <ele>1393.09</ele>
        <time>2019-06-24T15:10:13Z</time>
      </trkpt>
      <trkpt lat="43.90123" lon="6.33165">
        <ele>1391.65</ele>
        <time>2019-06-24T15:10:14Z</time>
      </trkpt>
      <trkpt lat="43.90117" lon="6.33164">
        <ele>1391.17</ele>
        <time>2019-06-24T15:10:15Z</time>
      </trkpt>
      <trkpt lat="43.90111" lon="6.33164">
        <ele>1391.17</ele>
        <time>2019-06-24T15:10:16Z</time>
      </trkpt>
      <trkpt lat="43.90105" lon="6.33164">
        <ele>1390.68</ele>
        <time>2019-06-24T15:10:17Z</time>
      </trkpt>
      <trkpt lat="43.901" lon="6.33167">
        <ele>1389.72</ele>
        <time>2019-06-24T15:10:18Z</time>
      </trkpt>
      <trkpt lat="43.90095" lon="6.33171">
        <ele>1389.24</ele>
        <time>2019-06-24T15:10:19Z</time>
      </trkpt>
      <trkpt lat="43.90089" lon="6.33176">
        <ele>1389.24</ele>
        <time>2019-06-24T15:10:20Z</time>
      </trkpt>
      <trkpt lat="43.90084" lon="6.33181">
        <ele>1388.76</ele>
        <time>2019-06-24T15:10:21Z</time>
      </trkpt>
      <trkpt lat="43.90078" lon="6.33182">
        <ele>1388.28</ele>
        <time>2019-06-24T15:10:22Z</time>
      </trkpt>
      <trkpt lat="43.90071" lon="6.33181">
        <ele>1387.8</ele>
        <time>2019-06-24T15:10:23Z</time>
      </trkpt>
      <trkpt lat="43.90065" lon="6.33178">
        <ele>1386.36</ele>
        <time>2019-06-24T15:10:24Z</time>
      </trkpt>
      <trkpt lat="43.90059" lon="6.33175">
        <ele>1385.88</ele>
        <time>2019-06-24T15:10:25Z</time>
      </trkpt>
      <trkpt lat="43.90053" lon="6.33173">
        <ele>1385.4</ele>
        <time>2019-06-24T15:10:26Z</time>
      </trkpt>
      <trkpt lat="43.90033" lon="6.33168">
        <ele>1383.47</ele>
        <time>2019-06-24T15:10:29Z</time>
      </trkpt>
      <trkpt lat="43.90027" lon="6.33166">
        <ele>1382.99</ele>
        <time>2019-06-24T15:10:30Z</time>
      </trkpt>
      <trkpt lat="43.90022" lon="6.33163">
        <ele>1382.99</ele>
        <time>2019-06-24T15:10:31Z</time>
      </trkpt>
      <trkpt lat="43.90017" lon="6.33159">
        <ele>1382.51</ele>
        <time>2019-06-24T15:10:32Z</time>
      </trkpt>
      <trkpt lat="43.90012" lon="6.33156">
        <ele>1381.07</ele>
        <time>2019-06-24T15:10:33Z</time>
      </trkpt>
      <trkpt lat="43.90007" lon="6.33153">
        <ele>1380.59</ele>
        <time>2019-06-24T15:10:34Z</time>
      </trkpt>
      <trkpt lat="43.90002" lon="6.33151">
        <ele>1380.11</ele>
        <time>2019-06-24T15:10:35Z</time>
      </trkpt>
      <trkpt lat="43.89996" lon="6.3315">
        <ele>1379.63</ele>
        <time>2019-06-24T15:10:36Z</time>
      </trkpt>
      <trkpt lat="43.8999" lon="6.3315">
        <ele>1378.19</ele>
        <time>2019-06-24T15:10:37Z</time>
      </trkpt>
      <trkpt lat="43.89984" lon="6.3315">
        <ele>1378.19</ele>
        <time>2019-06-24T15:10:38Z</time>
      </trkpt>
      <trkpt lat="43.89978" lon="6.33149">
        <ele>1377.71</ele>
        <time>2019-06-24T15:10:39Z</time>
      </trkpt>
      <trkpt lat="43.89972" lon="6.33146">
        <ele>1376.75</ele>
        <time>2019-06-24T15:10:40Z</time>
      </trkpt>
      <trkpt lat="43.89967" lon="6.33141">
        <ele>1376.26</ele>
        <time>2019-06-24T15:10:41Z</time>
      </trkpt>
      <trkpt lat="43.89962" lon="6.33135">
        <ele>1376.26</ele>
        <time>2019-06-24T15:10:42Z</time>
      </trkpt>
      <trkpt lat="43.89958" lon="6.3313">
        <ele>1375.78</ele>
        <time>2019-06-24T15:10:43Z</time>
      </trkpt>
      <trkpt lat="43.89953" lon="6.33125">
        <ele>1375.3</ele>
        <time>2019-06-24T15:10:44Z</time>
      </trkpt>
      <trkpt lat="43.89949" lon="6.33122">
        <ele>1373.86</ele>
        <time>2019-06-24T15:10:45Z</time>
      </trkpt>
      <trkpt lat="43.89945" lon="6.33118">
        <ele>1373.38</ele>
        <time>2019-06-24T15:10:46Z</time>
      </trkpt>
      <trkpt lat="43.89941" lon="6.33115">
        <ele>1372.9</ele>
        <time>2019-06-24T15:10:47Z</time>
      </trkpt>
      <trkpt lat="43.89938" lon="6.3311">
        <ele>1372.9</ele>
        <time>2019-06-24T15:10:48Z</time>
      </trkpt>
      <trkpt lat="43.89935" lon="6.33104">
        <ele>1371.94</ele>
        <time>2019-06-24T15:10:49Z</time>
      </trkpt>
      <trkpt lat="43.89931" lon="6.331">
        <ele>1371.46</ele>
        <time>2019-06-24T15:10:50Z</time>
      </trkpt>
      <trkpt lat="43.89926" lon="6.33099">
        <ele>1371.46</ele>
        <time>2019-06-24T15:10:51Z</time>
      </trkpt>
      <trkpt lat="43.89922" lon="6.331">
        <ele>1370.5</ele>
        <time>2019-06-24T15:10:52Z</time>
      </trkpt>
      <trkpt lat="43.89917" lon="6.33103">
        <ele>1370.02</ele>
        <time>2019-06-24T15:10:53Z</time>
      </trkpt>
      <trkpt lat="43.89913" lon="6.33109">
        <ele>1369.54</ele>
        <time>2019-06-24T15:10:54Z</time>
      </trkpt>
      <trkpt lat="43.89909" lon="6.33115">
        <ele>1368.57</ele>
        <time>2019-06-24T15:10:55Z</time>
      </trkpt>
      <trkpt lat="43.89905" lon="6.33122">
        <ele>1368.57</ele>
        <time>2019-06-24T15:10:56Z</time>
      </trkpt>
      <trkpt lat="43.89899" lon="6.33127">
        <ele>1367.61</ele>
        <time>2019-06-24T15:10:57Z</time>
      </trkpt>
      <trkpt lat="43.89894" lon="6.33131">
        <ele>1367.13</ele>
        <time>2019-06-24T15:10:58Z</time>
      </trkpt>
      <trkpt lat="43.89879" lon="6.33142">
        <ele>1365.69</ele>
        <time>2019-06-24T15:11:01Z</time>
      </trkpt>
      <trkpt lat="43.89875" lon="6.33148">
        <ele>1365.21</ele>
        <time>2019-06-24T15:11:02Z</time>
      </trkpt>
      <trkpt lat="43.89871" lon="6.33156">
        <ele>1364.25</ele>
        <time>2019-06-24T15:11:03Z</time>
      </trkpt>
      <trkpt lat="43.89869" lon="6.33165">
        <ele>1363.29</ele>
        <time>2019-06-24T15:11:04Z</time>
      </trkpt>
      <trkpt lat="43.89867" lon="6.33174">
        <ele>1362.81</ele>
        <time>2019-06-24T15:11:05Z</time>
      </trkpt>
      <trkpt lat="43.89866" lon="6.33182">
        <ele>1362.33</ele>
        <time>2019-06-24T15:11:06Z</time>
      </trkpt>
      <trkpt lat="43.8986" lon="6.33195">
        <ele>1360.88</ele>
        <time>2019-06-24T15:11:09Z</time>
      </trkpt>
      <trkpt lat="43.89838" lon="6.33204">
        <ele>1358.48</ele>
        <time>2019-06-24T15:11:18Z</time>
      </trkpt>
      <trkpt lat="43.89826" lon="6.33212">
        <ele>1358</ele>
        <time>2019-06-24T15:11:21Z</time>
      </trkpt>
      <trkpt lat="43.89821" lon="6.33217">
        <ele>1357.52</ele>
        <time>2019-06-24T15:11:22Z</time>
      </trkpt>
      <trkpt lat="43.89817" lon="6.33224">
        <ele>1357.52</ele>
        <time>2019-06-24T15:11:23Z</time>
      </trkpt>
      <trkpt lat="43.89812" lon="6.3323">
        <ele>1356.56</ele>
        <time>2019-06-24T15:11:24Z</time>
      </trkpt>
      <trkpt lat="43.89807" lon="6.33236">
        <ele>1356.08</ele>
        <time>2019-06-24T15:11:25Z</time>
      </trkpt>
      <trkpt lat="43.89801" lon="6.33239">
        <ele>1356.08</ele>
        <time>2019-06-24T15:11:26Z</time>
      </trkpt>
      <trkpt lat="43.89795" lon="6.33241">
        <ele>1356.56</ele>
        <time>2019-06-24T15:11:27Z</time>
      </trkpt>
      <trkpt lat="43.8979" lon="6.33242">
        <ele>1356.56</ele>
        <time>2019-06-24T15:11:28Z</time>
      </trkpt>
      <trkpt lat="43.89784" lon="6.33241">
        <ele>1356.08</ele>
        <time>2019-06-24T15:11:29Z</time>
      </trkpt>
      <trkpt lat="43.89779" lon="6.33239">
        <ele>1356.08</ele>
        <time>2019-06-24T15:11:30Z</time>
      </trkpt>
      <trkpt lat="43.89775" lon="6.33237">
        <ele>1354.63</ele>
        <time>2019-06-24T15:11:31Z</time>
      </trkpt>
      <trkpt lat="43.89771" lon="6.33236">
        <ele>1355.12</ele>
        <time>2019-06-24T15:11:32Z</time>
      </trkpt>
      <trkpt lat="43.89766" lon="6.33238">
        <ele>1354.63</ele>
        <time>2019-06-24T15:11:33Z</time>
      </trkpt>
      <trkpt lat="43.8976" lon="6.33241">
        <ele>1354.15</ele>
        <time>2019-06-24T15:11:34Z</time>
      </trkpt>
      <trkpt lat="43.89755" lon="6.33246">
        <ele>1353.67</ele>
        <time>2019-06-24T15:11:35Z</time>
      </trkpt>
      <trkpt lat="43.8975" lon="6.33249">
        <ele>1353.19</ele>
        <time>2019-06-24T15:11:36Z</time>
      </trkpt>
      <trkpt lat="43.89744" lon="6.3325">
        <ele>1352.71</ele>
        <time>2019-06-24T15:11:37Z</time>
      </trkpt>
      <trkpt lat="43.89738" lon="6.33249">
        <ele>1352.23</ele>
        <time>2019-06-24T15:11:38Z</time>
      </trkpt>
      <trkpt lat="43.89734" lon="6.33247">
        <ele>1352.23</ele>
        <time>2019-06-24T15:11:39Z</time>
      </trkpt>
      <trkpt lat="43.89729" lon="6.33245">
        <ele>1351.75</ele>
        <time>2019-06-24T15:11:40Z</time>
      </trkpt>
      <trkpt lat="43.89725" lon="6.33243">
        <ele>1351.75</ele>
        <time>2019-06-24T15:11:41Z</time>
      </trkpt>
      <trkpt lat="43.89719" lon="6.33242">
        <ele>1351.27</ele>
        <time>2019-06-24T15:11:42Z</time>
      </trkpt>
      <trkpt lat="43.89714" lon="6.33242">
        <ele>1350.79</ele>
        <time>2019-06-24T15:11:43Z</time>
      </trkpt>
      <trkpt lat="43.89709" lon="6.33245">
        <ele>1350.79</ele>
        <time>2019-06-24T15:11:44Z</time>
      </trkpt>
      <trkpt lat="43.89705" lon="6.33248">
        <ele>1350.31</ele>
        <time>2019-06-24T15:11:45Z</time>
      </trkpt>
      <trkpt lat="43.89701" lon="6.33252">
        <ele>1350.31</ele>
        <time>2019-06-24T15:11:46Z</time>
      </trkpt>
      <trkpt lat="43.89699" lon="6.33257">
        <ele>1349.35</ele>
        <time>2019-06-24T15:11:47Z</time>
      </trkpt>
      <trkpt lat="43.89697" lon="6.33263">
        <ele>1349.35</ele>
        <time>2019-06-24T15:11:48Z</time>
      </trkpt>
      <trkpt lat="43.89696" lon="6.3327">
        <ele>1348.87</ele>
        <time>2019-06-24T15:11:49Z</time>
      </trkpt>
      <trkpt lat="43.89695" lon="6.33277">
        <ele>1348.39</ele>
        <time>2019-06-24T15:11:50Z</time>
      </trkpt>
      <trkpt lat="43.89695" lon="6.33284">
        <ele>1347.91</ele>
        <time>2019-06-24T15:11:51Z</time>
      </trkpt>
      <trkpt lat="43.89693" lon="6.33291">
        <ele>1347.43</ele>
        <time>2019-06-24T15:11:52Z</time>
      </trkpt>
      <trkpt lat="43.89691" lon="6.33298">
        <ele>1346.94</ele>
        <time>2019-06-24T15:11:53Z</time>
      </trkpt>
      <trkpt lat="43.89687" lon="6.33305">
        <ele>1346.94</ele>
        <time>2019-06-24T15:11:54Z</time>
      </trkpt>
      <trkpt lat="43.89684" lon="6.33312">
        <ele>1346.46</ele>
        <time>2019-06-24T15:11:55Z</time>
      </trkpt>
      <trkpt lat="43.8968" lon="6.33319">
        <ele>1345.5</ele>
        <time>2019-06-24T15:11:56Z</time>
      </trkpt>
      <trkpt lat="43.89677" lon="6.33327">
        <ele>1345.5</ele>
        <time>2019-06-24T15:11:57Z</time>
      </trkpt>
      <trkpt lat="43.89675" lon="6.33335">
        <ele>1345.98</ele>
        <time>2019-06-24T15:11:58Z</time>
      </trkpt>
      <trkpt lat="43.89674" lon="6.33342">
        <ele>1345.02</ele>
        <time>2019-06-24T15:11:59Z</time>
      </trkpt>
      <trkpt lat="43.89673" lon="6.3335">
        <ele>1345.5</ele>
        <time>2019-06-24T15:12:00Z</time>
      </trkpt>
      <trkpt lat="43.89673" lon="6.33358">
        <ele>1344.06</ele>
        <time>2019-06-24T15:12:01Z</time>
      </trkpt>
      <trkpt lat="43.89673" lon="6.33377">
        <ele>1343.58</ele>
        <time>2019-06-24T15:12:03Z</time>
      </trkpt>
      <trkpt lat="43.89676" lon="6.3342">
        <ele>1341.18</ele>
        <time>2019-06-24T15:12:07Z</time>
      </trkpt>
      <trkpt lat="43.89678" lon="6.3343">
        <ele>1340.22</ele>
        <time>2019-06-24T15:12:08Z</time>
      </trkpt>
      <trkpt lat="43.89679" lon="6.33439">
        <ele>1339.25</ele>
        <time>2019-06-24T15:12:09Z</time>
      </trkpt>
      <trkpt lat="43.89679" lon="6.33447">
        <ele>1338.77</ele>
        <time>2019-06-24T15:12:10Z</time>
      </trkpt>
      <trkpt lat="43.89677" lon="6.33455">
        <ele>1337.81</ele>
        <time>2019-06-24T15:12:11Z</time>
      </trkpt>
      <trkpt lat="43.89673" lon="6.33463">
        <ele>1337.33</ele>
        <time>2019-06-24T15:12:12Z</time>
      </trkpt>
      <trkpt lat="43.89668" lon="6.3347">
        <ele>1336.85</ele>
        <time>2019-06-24T15:12:13Z</time>
      </trkpt>
      <trkpt lat="43.89663" lon="6.33478">
        <ele>1336.37</ele>
        <time>2019-06-24T15:12:14Z</time>
      </trkpt>
      <trkpt lat="43.89653" lon="6.33495">
        <ele>1335.41</ele>
        <time>2019-06-24T15:12:16Z</time>
      </trkpt>
      <trkpt lat="43.89647" lon="6.33502">
        <ele>1333.97</ele>
        <time>2019-06-24T15:12:17Z</time>
      </trkpt>
      <trkpt lat="43.89625" lon="6.33525">
        <ele>1330.6</ele>
        <time>2019-06-24T15:12:21Z</time>
      </trkpt>
      <trkpt lat="43.89614" lon="6.33538">
        <ele>1329.64</ele>
        <time>2019-06-24T15:12:23Z</time>
      </trkpt>
      <trkpt lat="43.8961" lon="6.33545">
        <ele>1328.68</ele>
        <time>2019-06-24T15:12:24Z</time>
      </trkpt>
      <trkpt lat="43.89606" lon="6.33553">
        <ele>1328.68</ele>
        <time>2019-06-24T15:12:25Z</time>
      </trkpt>
      <trkpt lat="43.89597" lon="6.33567">
        <ele>1327.24</ele>
        <time>2019-06-24T15:12:27Z</time>
      </trkpt>
      <trkpt lat="43.89585" lon="6.33598">
        <ele>1324.35</ele>
        <time>2019-06-24T15:12:31Z</time>
      </trkpt>
      <trkpt lat="43.89577" lon="6.33624">
        <ele>1322.43</ele>
        <time>2019-06-24T15:12:34Z</time>
      </trkpt>
      <trkpt lat="43.89573" lon="6.3363">
        <ele>1321.47</ele>
        <time>2019-06-24T15:12:35Z</time>
      </trkpt>
      <trkpt lat="43.89571" lon="6.33637">
        <ele>1320.51</ele>
        <time>2019-06-24T15:12:36Z</time>
      </trkpt>
      <trkpt lat="43.89559" lon="6.33675">
        <ele>1318.1</ele>
        <time>2019-06-24T15:12:41Z</time>
      </trkpt>
      <trkpt lat="43.89555" lon="6.33682">
        <ele>1316.66</ele>
        <time>2019-06-24T15:12:42Z</time>
      </trkpt>
      <trkpt lat="43.89551" lon="6.33688">
        <ele>1315.7</ele>
        <time>2019-06-24T15:12:43Z</time>
      </trkpt>
      <trkpt lat="43.89546" lon="6.33694">
        <ele>1315.7</ele>
        <time>2019-06-24T15:12:44Z</time>
      </trkpt>
      <trkpt lat="43.89541" lon="6.33699">
        <ele>1314.74</ele>
        <time>2019-06-24T15:12:45Z</time>
      </trkpt>
      <trkpt lat="43.89537" lon="6.33705">
        <ele>1313.78</ele>
        <time>2019-06-24T15:12:46Z</time>
      </trkpt>
      <trkpt lat="43.89533" lon="6.33712">
        <ele>1313.3</ele>
        <time>2019-06-24T15:12:47Z</time>
      </trkpt>
      <trkpt lat="43.89519" lon="6.33729">
        <ele>1311.86</ele>
        <time>2019-06-24T15:12:50Z</time>
      </trkpt>
      <trkpt lat="43.89515" lon="6.33736">
        <ele>1311.38</ele>
        <time>2019-06-24T15:12:51Z</time>
      </trkpt>
      <trkpt lat="43.89512" lon="6.33744">
        <ele>1310.41</ele>
        <time>2019-06-24T15:12:52Z</time>
      </trkpt>
      <trkpt lat="43.8951" lon="6.33752">
        <ele>1308.97</ele>
        <time>2019-06-24T15:12:53Z</time>
      </trkpt>
      <trkpt lat="43.89508" lon="6.33761">
        <ele>1308.49</ele>
        <time>2019-06-24T15:12:54Z</time>
      </trkpt>
      <trkpt lat="43.89507" lon="6.33771">
        <ele>1308.01</ele>
        <time>2019-06-24T15:12:55Z</time>
      </trkpt>
      <trkpt lat="43.89505" lon="6.33779">
        <ele>1307.53</ele>
        <time>2019-06-24T15:12:56Z</time>
      </trkpt>
      <trkpt lat="43.89502" lon="6.33786">
        <ele>1306.57</ele>
        <time>2019-06-24T15:12:57Z</time>
      </trkpt>
      <trkpt lat="43.89498" lon="6.33791">
        <ele>1306.09</ele>
        <time>2019-06-24T15:12:58Z</time>
      </trkpt>
      <trkpt lat="43.89493" lon="6.33794">
        <ele>1305.61</ele>
        <time>2019-06-24T15:12:59Z</time>
      </trkpt>
      <trkpt lat="43.89488" lon="6.33798">
        <ele>1304.65</ele>
        <time>2019-06-24T15:13:00Z</time>
      </trkpt>
      <trkpt lat="43.89483" lon="6.33802">
        <ele>1304.65</ele>
        <time>2019-06-24T15:13:01Z</time>
      </trkpt>
      <trkpt lat="43.89479" lon="6.33808">
        <ele>1304.17</ele>
        <time>2019-06-24T15:13:02Z</time>
      </trkpt>
      <trkpt lat="43.89475" lon="6.33813">
        <ele>1303.69</ele>
        <time>2019-06-24T15:13:03Z</time>
      </trkpt>
      <trkpt lat="43.89472" lon="6.33819">
        <ele>1302.72</ele>
        <time>2019-06-24T15:13:04Z</time>
      </trkpt>
      <trkpt lat="43.89469" lon="6.33824">
        <ele>1302.24</ele>
        <time>2019-06-24T15:13:05Z</time>
      </trkpt>
      <trkpt lat="43.89466" lon="6.33829">
        <ele>1301.76</ele>
        <time>2019-06-24T15:13:06Z</time>
      </trkpt>
      <trkpt lat="43.89463" lon="6.33835">
        <ele>1300.8</ele>
        <time>2019-06-24T15:13:07Z</time>
      </trkpt>
      <trkpt lat="43.89458" lon="6.33842">
        <ele>1300.32</ele>
        <time>2019-06-24T15:13:08Z</time>
      </trkpt>
      <trkpt lat="43.89448" lon="6.3386">
        <ele>1299.36</ele>
        <time>2019-06-24T15:13:10Z</time>
      </trkpt>
      <trkpt lat="43.89433" lon="6.3389">
        <ele>1297.92</ele>
        <time>2019-06-24T15:13:13Z</time>
      </trkpt>
      <trkpt lat="43.89424" lon="6.33909">
        <ele>1296.96</ele>
        <time>2019-06-24T15:13:15Z</time>
      </trkpt>
      <trkpt lat="43.89421" lon="6.33919">
        <ele>1296.48</ele>
        <time>2019-06-24T15:13:16Z</time>
      </trkpt>
      <trkpt lat="43.89419" lon="6.33928">
        <ele>1295.99</ele>
        <time>2019-06-24T15:13:17Z</time>
      </trkpt>
      <trkpt lat="43.89416" lon="6.33946">
        <ele>1295.03</ele>
        <time>2019-06-24T15:13:19Z</time>
      </trkpt>
      <trkpt lat="43.89415" lon="6.33954">
        <ele>1295.03</ele>
        <time>2019-06-24T15:13:20Z</time>
      </trkpt>
      <trkpt lat="43.89415" lon="6.33989">
        <ele>1294.55</ele>
        <time>2019-06-24T15:13:24Z</time>
      </trkpt>
      <trkpt lat="43.89416" lon="6.34035">
        <ele>1293.59</ele>
        <time>2019-06-24T15:13:29Z</time>
      </trkpt>
      <trkpt lat="43.89413" lon="6.34044">
        <ele>1293.59</ele>
        <time>2019-06-24T15:13:30Z</time>
      </trkpt>
      <trkpt lat="43.8941" lon="6.34053">
        <ele>1293.11</ele>
        <time>2019-06-24T15:13:31Z</time>
      </trkpt>
      <trkpt lat="43.89405" lon="6.3406">
        <ele>1292.63</ele>
        <time>2019-06-24T15:13:32Z</time>
      </trkpt>
      <trkpt lat="43.89402" lon="6.34067">
        <ele>1291.67</ele>
        <time>2019-06-24T15:13:33Z</time>
      </trkpt>
      <trkpt lat="43.89399" lon="6.34074">
        <ele>1290.71</ele>
        <time>2019-06-24T15:13:34Z</time>
      </trkpt>
      <trkpt lat="43.89398" lon="6.34082">
        <ele>1290.23</ele>
        <time>2019-06-24T15:13:35Z</time>
      </trkpt>
      <trkpt lat="43.89397" lon="6.34091">
        <ele>1290.23</ele>
        <time>2019-06-24T15:13:36Z</time>
      </trkpt>
      <trkpt lat="43.89396" lon="6.341">
        <ele>1289.27</ele>
        <time>2019-06-24T15:13:37Z</time>
      </trkpt>
      <trkpt lat="43.89395" lon="6.3411">
        <ele>1289.27</ele>
        <time>2019-06-24T15:13:38Z</time>
      </trkpt>
      <trkpt lat="43.89392" lon="6.34119">
        <ele>1289.27</ele>
        <time>2019-06-24T15:13:39Z</time>
      </trkpt>
      <trkpt lat="43.89388" lon="6.34126">
        <ele>1289.27</ele>
        <time>2019-06-24T15:13:40Z</time>
      </trkpt>
      <trkpt lat="43.89383" lon="6.34133">
        <ele>1288.3</ele>
        <time>2019-06-24T15:13:41Z</time>
      </trkpt>
      <trkpt lat="43.89369" lon="6.3415">
        <ele>1285.42</ele>
        <time>2019-06-24T15:13:44Z</time>
      </trkpt>
      <trkpt lat="43.89366" lon="6.34156">
        <ele>1284.46</ele>
        <time>2019-06-24T15:13:45Z</time>
      </trkpt>
      <trkpt lat="43.89364" lon="6.34163">
        <ele>1283.98</ele>
        <time>2019-06-24T15:13:46Z</time>
      </trkpt>
      <trkpt lat="43.8936" lon="6.34178">
        <ele>1283.02</ele>
        <time>2019-06-24T15:13:48Z</time>
      </trkpt>
      <trkpt lat="43.89357" lon="6.34186">
        <ele>1282.54</ele>
        <time>2019-06-24T15:13:49Z</time>
      </trkpt>
      <trkpt lat="43.89353" lon="6.34194">
        <ele>1281.57</ele>
        <time>2019-06-24T15:13:50Z</time>
      </trkpt>
      <trkpt lat="43.89336" lon="6.34228">
        <ele>1278.21</ele>
        <time>2019-06-24T15:13:54Z</time>
      </trkpt>
      <trkpt lat="43.89324" lon="6.34247">
        <ele>1275.33</ele>
        <time>2019-06-24T15:13:57Z</time>
      </trkpt>
      <trkpt lat="43.89321" lon="6.34254">
        <ele>1274.36</ele>
        <time>2019-06-24T15:13:58Z</time>
      </trkpt>
      <trkpt lat="43.89319" lon="6.34261">
        <ele>1273.88</ele>
        <time>2019-06-24T15:13:59Z</time>
      </trkpt>
      <trkpt lat="43.89319" lon="6.34268">
        <ele>1273.4</ele>
        <time>2019-06-24T15:14:00Z</time>
      </trkpt>
      <trkpt lat="43.89319" lon="6.34276">
        <ele>1272.92</ele>
        <time>2019-06-24T15:14:01Z</time>
      </trkpt>
      <trkpt lat="43.89321" lon="6.34284">
        <ele>1272.92</ele>
        <time>2019-06-24T15:14:02Z</time>
      </trkpt>
      <trkpt lat="43.89324" lon="6.3429">
        <ele>1271.96</ele>
        <time>2019-06-24T15:14:03Z</time>
      </trkpt>
      <trkpt lat="43.89325" lon="6.34296">
        <ele>1271.96</ele>
        <time>2019-06-24T15:14:04Z</time>
      </trkpt>
      <trkpt lat="43.89324" lon="6.34301">
        <ele>1271.48</ele>
        <time>2019-06-24T15:14:05Z</time>
      </trkpt>
      <trkpt lat="43.89321" lon="6.34304">
        <ele>1270.52</ele>
        <time>2019-06-24T15:14:06Z</time>
      </trkpt>
      <trkpt lat="43.89318" lon="6.34305">
        <ele>1270.52</ele>
        <time>2019-06-24T15:14:07Z</time>
      </trkpt>
      <trkpt lat="43.89315" lon="6.34303">
        <ele>1269.56</ele>
        <time>2019-06-24T15:14:08Z</time>
      </trkpt>
      <trkpt lat="43.89311" lon="6.34299">
        <ele>1270.52</ele>
        <time>2019-06-24T15:14:09Z</time>
      </trkpt>
      <trkpt lat="43.89307" lon="6.34293">
        <ele>1270.04</ele>
        <time>2019-06-24T15:14:10Z</time>
      </trkpt>
      <trkpt lat="43.89303" lon="6.34285">
        <ele>1270.04</ele>
        <time>2019-06-24T15:14:11Z</time>
      </trkpt>
      <trkpt lat="43.89298" lon="6.34279">
        <ele>1269.56</ele>
        <time>2019-06-24T15:14:12Z</time>
      </trkpt>
      <trkpt lat="43.89292" lon="6.34273">
        <ele>1269.56</ele>
        <time>2019-06-24T15:14:13Z</time>
      </trkpt>
      <trkpt lat="43.89286" lon="6.34268">
        <ele>1268.6</ele>
        <time>2019-06-24T15:14:14Z</time>
      </trkpt>
      <trkpt lat="43.89281" lon="6.34262">
        <ele>1267.64</ele>
        <time>2019-06-24T15:14:15Z</time>
      </trkpt>
      <trkpt lat="43.89276" lon="6.34255">
        <ele>1267.16</ele>
        <time>2019-06-24T15:14:16Z</time>
      </trkpt>
      <trkpt lat="43.89272" lon="6.34248">
        <ele>1266.67</ele>
        <time>2019-06-24T15:14:17Z</time>
      </trkpt>
      <trkpt lat="43.8927" lon="6.34242">
        <ele>1265.23</ele>
        <time>2019-06-24T15:14:18Z</time>
      </trkpt>
      <trkpt lat="43.89268" lon="6.34234">
        <ele>1265.23</ele>
        <time>2019-06-24T15:14:19Z</time>
      </trkpt>
      <trkpt lat="43.89267" lon="6.34226">
        <ele>1264.27</ele>
        <time>2019-06-24T15:14:20Z</time>
      </trkpt>
      <trkpt lat="43.89267" lon="6.34217">
        <ele>1264.27</ele>
        <time>2019-06-24T15:14:21Z</time>
      </trkpt>
      <trkpt lat="43.89268" lon="6.34208">
        <ele>1263.31</ele>
        <time>2019-06-24T15:14:22Z</time>
      </trkpt>
      <trkpt lat="43.89267" lon="6.34198">
        <ele>1262.35</ele>
        <time>2019-06-24T15:14:23Z</time>
      </trkpt>
      <trkpt lat="43.89266" lon="6.34187">
        <ele>1262.83</ele>
        <time>2019-06-24T15:14:24Z</time>
      </trkpt>
      <trkpt lat="43.89265" lon="6.34176">
        <ele>1261.39</ele>
        <time>2019-06-24T15:14:25Z</time>
      </trkpt>
      <trkpt lat="43.89254" lon="6.34135">
        <ele>1258.02</ele>
        <time>2019-06-24T15:14:29Z</time>
      </trkpt>
      <trkpt lat="43.89251" lon="6.34124">
        <ele>1257.54</ele>
        <time>2019-06-24T15:14:30Z</time>
      </trkpt>
      <trkpt lat="43.89249" lon="6.34113">
        <ele>1256.58</ele>
        <time>2019-06-24T15:14:31Z</time>
      </trkpt>
      <trkpt lat="43.89245" lon="6.34092">
        <ele>1254.66</ele>
        <time>2019-06-24T15:14:33Z</time>
      </trkpt>
      <trkpt lat="43.89243" lon="6.34083">
        <ele>1252.74</ele>
        <time>2019-06-24T15:14:34Z</time>
      </trkpt>
      <trkpt lat="43.89239" lon="6.34074">
        <ele>1251.77</ele>
        <time>2019-06-24T15:14:35Z</time>
      </trkpt>
      <trkpt lat="43.89236" lon="6.34065">
        <ele>1251.77</ele>
        <time>2019-06-24T15:14:36Z</time>
      </trkpt>
      <trkpt lat="43.89232" lon="6.34056">
        <ele>1250.81</ele>
        <time>2019-06-24T15:14:37Z</time>
      </trkpt>
      <trkpt lat="43.8923" lon="6.34047">
        <ele>1250.81</ele>
        <time>2019-06-24T15:14:38Z</time>
      </trkpt>
      <trkpt lat="43.89229" lon="6.34039">
        <ele>1249.85</ele>
        <time>2019-06-24T15:14:39Z</time>
      </trkpt>
      <trkpt lat="43.89227" lon="6.34033">
        <ele>1248.89</ele>
        <time>2019-06-24T15:14:40Z</time>
      </trkpt>
      <trkpt lat="43.89225" lon="6.34028">
        <ele>1248.41</ele>
        <time>2019-06-24T15:14:41Z</time>
      </trkpt>
      <trkpt lat="43.89222" lon="6.34025">
        <ele>1247.45</ele>
        <time>2019-06-24T15:14:42Z</time>
      </trkpt>
      <trkpt lat="43.89219" lon="6.34024">
        <ele>1246.97</ele>
        <time>2019-06-24T15:14:43Z</time>
      </trkpt>
      <trkpt lat="43.89216" lon="6.34025">
        <ele>1246.49</ele>
        <time>2019-06-24T15:14:44Z</time>
      </trkpt>
      <trkpt lat="43.89213" lon="6.34028">
        <ele>1246.49</ele>
        <time>2019-06-24T15:14:45Z</time>
      </trkpt>
      <trkpt lat="43.89211" lon="6.34033">
        <ele>1245.53</ele>
        <time>2019-06-24T15:14:46Z</time>
      </trkpt>
      <trkpt lat="43.89208" lon="6.34038">
        <ele>1245.53</ele>
        <time>2019-06-24T15:14:47Z</time>
      </trkpt>
      <trkpt lat="43.89206" lon="6.34044">
        <ele>1245.04</ele>
        <time>2019-06-24T15:14:48Z</time>
      </trkpt>
      <trkpt lat="43.89204" lon="6.34053">
        <ele>1245.04</ele>
        <time>2019-06-24T15:14:49Z</time>
      </trkpt>
      <trkpt lat="43.89198" lon="6.3407">
        <ele>1244.56</ele>
        <time>2019-06-24T15:14:51Z</time>
      </trkpt>
      <trkpt lat="43.89189" lon="6.34114">
        <ele>1241.2</ele>
        <time>2019-06-24T15:14:55Z</time>
      </trkpt>
      <trkpt lat="43.89178" lon="6.34162">
        <ele>1237.35</ele>
        <time>2019-06-24T15:14:59Z</time>
      </trkpt>
      <trkpt lat="43.8917" lon="6.3419">
        <ele>1234.47</ele>
        <time>2019-06-24T15:15:02Z</time>
      </trkpt>
      <trkpt lat="43.89169" lon="6.34199">
        <ele>1234.95</ele>
        <time>2019-06-24T15:15:03Z</time>
      </trkpt>
      <trkpt lat="43.89166" lon="6.34224">
        <ele>1233.03</ele>
        <time>2019-06-24T15:15:06Z</time>
      </trkpt>
      <trkpt lat="43.89165" lon="6.34231">
        <ele>1233.03</ele>
        <time>2019-06-24T15:15:07Z</time>
      </trkpt>
      <trkpt lat="43.89164" lon="6.34239">
        <ele>1233.03</ele>
        <time>2019-06-24T15:15:08Z</time>
      </trkpt>
      <trkpt lat="43.89165" lon="6.34247">
        <ele>1232.07</ele>
        <time>2019-06-24T15:15:09Z</time>
      </trkpt>
      <trkpt lat="43.89167" lon="6.34256">
        <ele>1231.59</ele>
        <time>2019-06-24T15:15:10Z</time>
      </trkpt>
      <trkpt lat="43.89169" lon="6.34265">
        <ele>1231.59</ele>
        <time>2019-06-24T15:15:11Z</time>
      </trkpt>
      <trkpt lat="43.89179" lon="6.34302">
        <ele>1228.22</ele>
        <time>2019-06-24T15:15:15Z</time>
      </trkpt>
      <trkpt lat="43.89185" lon="6.34329">
        <ele>1224.86</ele>
        <time>2019-06-24T15:15:18Z</time>
      </trkpt>
      <trkpt lat="43.89186" lon="6.34339">
        <ele>1224.86</ele>
        <time>2019-06-24T15:15:19Z</time>
      </trkpt>
      <trkpt lat="43.89186" lon="6.34348">
        <ele>1223.9</ele>
        <time>2019-06-24T15:15:20Z</time>
      </trkpt>
      <trkpt lat="43.89186" lon="6.34358">
        <ele>1223.42</ele>
        <time>2019-06-24T15:15:21Z</time>
      </trkpt>
      <trkpt lat="43.89185" lon="6.34369">
        <ele>1222.45</ele>
        <time>2019-06-24T15:15:22Z</time>
      </trkpt>
      <trkpt lat="43.89185" lon="6.34379">
        <ele>1221.97</ele>
        <time>2019-06-24T15:15:23Z</time>
      </trkpt>
      <trkpt lat="43.89185" lon="6.34389">
        <ele>1221.01</ele>
        <time>2019-06-24T15:15:24Z</time>
      </trkpt>
      <trkpt lat="43.89187" lon="6.34398">
        <ele>1219.57</ele>
        <time>2019-06-24T15:15:25Z</time>
      </trkpt>
      <trkpt lat="43.89188" lon="6.34408">
        <ele>1219.09</ele>
        <time>2019-06-24T15:15:26Z</time>
      </trkpt>
      <trkpt lat="43.89189" lon="6.34418">
        <ele>1218.61</ele>
        <time>2019-06-24T15:15:27Z</time>
      </trkpt>
      <trkpt lat="43.89189" lon="6.34428">
        <ele>1218.13</ele>
        <time>2019-06-24T15:15:28Z</time>
      </trkpt>
      <trkpt lat="43.89187" lon="6.34438">
        <ele>1217.65</ele>
        <time>2019-06-24T15:15:29Z</time>
      </trkpt>
      <trkpt lat="43.89184" lon="6.34448">
        <ele>1216.69</ele>
        <time>2019-06-24T15:15:30Z</time>
      </trkpt>
      <trkpt lat="43.89181" lon="6.34456">
        <ele>1216.21</ele>
        <time>2019-06-24T15:15:31Z</time>
      </trkpt>
      <trkpt lat="43.89178" lon="6.34464">
        <ele>1214.76</ele>
        <time>2019-06-24T15:15:32Z</time>
      </trkpt>
      <trkpt lat="43.89176" lon="6.34471">
        <ele>1213.8</ele>
        <time>2019-06-24T15:15:33Z</time>
      </trkpt>
      <trkpt lat="43.89175" lon="6.34479">
        <ele>1213.32</ele>
        <time>2019-06-24T15:15:34Z</time>
      </trkpt>
      <trkpt lat="43.89176" lon="6.34495">
        <ele>1211.88</ele>
        <time>2019-06-24T15:15:36Z</time>
      </trkpt>
      <trkpt lat="43.89174" lon="6.34504">
        <ele>1211.88</ele>
        <time>2019-06-24T15:15:37Z</time>
      </trkpt>
      <trkpt lat="43.89172" lon="6.34513">
        <ele>1210.92</ele>
        <time>2019-06-24T15:15:38Z</time>
      </trkpt>
      <trkpt lat="43.89169" lon="6.34521">
        <ele>1209.48</ele>
        <time>2019-06-24T15:15:39Z</time>
      </trkpt>
      <trkpt lat="43.89166" lon="6.34528">
        <ele>1208.51</ele>
        <time>2019-06-24T15:15:40Z</time>
      </trkpt>
      <trkpt lat="43.89155" lon="6.34556">
        <ele>1204.67</ele>
        <time>2019-06-24T15:15:44Z</time>
      </trkpt>
      <trkpt lat="43.89152" lon="6.34563">
        <ele>1205.15</ele>
        <time>2019-06-24T15:15:45Z</time>
      </trkpt>
      <trkpt lat="43.89142" lon="6.34596">
        <ele>1202.27</ele>
        <time>2019-06-24T15:15:49Z</time>
      </trkpt>
      <trkpt lat="43.89137" lon="6.34625">
        <ele>1200.34</ele>
        <time>2019-06-24T15:15:52Z</time>
      </trkpt>
      <trkpt lat="43.89135" lon="6.34635">
        <ele>1199.38</ele>
        <time>2019-06-24T15:15:53Z</time>
      </trkpt>
      <trkpt lat="43.89132" lon="6.34643">
        <ele>1198.42</ele>
        <time>2019-06-24T15:15:54Z</time>
      </trkpt>
      <trkpt lat="43.89129" lon="6.34652">
        <ele>1197.94</ele>
        <time>2019-06-24T15:15:55Z</time>
      </trkpt>
      <trkpt lat="43.89122" lon="6.34668">
        <ele>1196.02</ele>
        <time>2019-06-24T15:15:57Z</time>
      </trkpt>
      <trkpt lat="43.89119" lon="6.34675">
        <ele>1194.58</ele>
        <time>2019-06-24T15:15:58Z</time>
      </trkpt>
      <trkpt lat="43.89117" lon="6.34684">
        <ele>1193.61</ele>
        <time>2019-06-24T15:15:59Z</time>
      </trkpt>
      <trkpt lat="43.89113" lon="6.34701">
        <ele>1192.65</ele>
        <time>2019-06-24T15:16:01Z</time>
      </trkpt>
      <trkpt lat="43.89098" lon="6.34741">
        <ele>1191.21</ele>
        <time>2019-06-24T15:16:05Z</time>
      </trkpt>
      <trkpt lat="43.8909" lon="6.34758">
        <ele>1188.33</ele>
        <time>2019-06-24T15:16:07Z</time>
      </trkpt>
      <trkpt lat="43.89087" lon="6.34767">
        <ele>1187.37</ele>
        <time>2019-06-24T15:16:08Z</time>
      </trkpt>
      <trkpt lat="43.89084" lon="6.34776">
        <ele>1187.37</ele>
        <time>2019-06-24T15:16:09Z</time>
      </trkpt>
      <trkpt lat="43.8908" lon="6.34783">
        <ele>1186.4</ele>
        <time>2019-06-24T15:16:10Z</time>
      </trkpt>
      <trkpt lat="43.89074" lon="6.34787">
        <ele>1185.92</ele>
        <time>2019-06-24T15:16:11Z</time>
      </trkpt>
      <trkpt lat="43.89067" lon="6.3479">
        <ele>1184.96</ele>
        <time>2019-06-24T15:16:12Z</time>
      </trkpt>
      <trkpt lat="43.89061" lon="6.34791">
        <ele>1184.48</ele>
        <time>2019-06-24T15:16:13Z</time>
      </trkpt>
      <trkpt lat="43.89055" lon="6.34792">
        <ele>1183.52</ele>
        <time>2019-06-24T15:16:14Z</time>
      </trkpt>
      <trkpt lat="43.89044" lon="6.34795">
        <ele>1182.08</ele>
        <time>2019-06-24T15:16:16Z</time>
      </trkpt>
      <trkpt lat="43.89027" lon="6.34803">
        <ele>1180.16</ele>
        <time>2019-06-24T15:16:19Z</time>
      </trkpt>
      <trkpt lat="43.89011" lon="6.34812">
        <ele>1176.79</ele>
        <time>2019-06-24T15:16:22Z</time>
      </trkpt>
      <trkpt lat="43.89007" lon="6.34816">
        <ele>1175.83</ele>
        <time>2019-06-24T15:16:23Z</time>
      </trkpt>
      <trkpt lat="43.88998" lon="6.34822">
        <ele>1174.87</ele>
        <time>2019-06-24T15:16:25Z</time>
      </trkpt>
      <trkpt lat="43.88994" lon="6.34822">
        <ele>1174.39</ele>
        <time>2019-06-24T15:16:26Z</time>
      </trkpt>
      <trkpt lat="43.8899" lon="6.34819">
        <ele>1173.43</ele>
        <time>2019-06-24T15:16:27Z</time>
      </trkpt>
      <trkpt lat="43.88989" lon="6.34816">
        <ele>1172.47</ele>
        <time>2019-06-24T15:16:28Z</time>
      </trkpt>
      <trkpt lat="43.8899" lon="6.34811">
        <ele>1172.47</ele>
        <time>2019-06-24T15:16:29Z</time>
      </trkpt>
      <trkpt lat="43.88992" lon="6.34806">
        <ele>1172.47</ele>
        <time>2019-06-24T15:16:30Z</time>
      </trkpt>
      <trkpt lat="43.88995" lon="6.348">
        <ele>1172.47</ele>
        <time>2019-06-24T15:16:31Z</time>
      </trkpt>
      <trkpt lat="43.88999" lon="6.34794">
        <ele>1172.47</ele>
        <time>2019-06-24T15:16:32Z</time>
      </trkpt>
      <trkpt lat="43.89018" lon="6.3476">
        <ele>1170.54</ele>
        <time>2019-06-24T15:16:36Z</time>
      </trkpt>
      <trkpt lat="43.89029" lon="6.34738">
        <ele>1168.14</ele>
        <time>2019-06-24T15:16:39Z</time>
      </trkpt>
      <trkpt lat="43.89031" lon="6.3473">
        <ele>1167.18</ele>
        <time>2019-06-24T15:16:40Z</time>
      </trkpt>
      <trkpt lat="43.89033" lon="6.34705">
        <ele>1165.74</ele>
        <time>2019-06-24T15:16:43Z</time>
      </trkpt>
      <trkpt lat="43.89032" lon="6.34696">
        <ele>1165.26</ele>
        <time>2019-06-24T15:16:44Z</time>
      </trkpt>
      <trkpt lat="43.8903" lon="6.34689">
        <ele>1164.77</ele>
        <time>2019-06-24T15:16:45Z</time>
      </trkpt>
      <trkpt lat="43.89029" lon="6.34681">
        <ele>1163.33</ele>
        <time>2019-06-24T15:16:46Z</time>
      </trkpt>
      <trkpt lat="43.89029" lon="6.34672">
        <ele>1163.33</ele>
        <time>2019-06-24T15:16:47Z</time>
      </trkpt>
      <trkpt lat="43.8903" lon="6.34664">
        <ele>1162.85</ele>
        <time>2019-06-24T15:16:48Z</time>
      </trkpt>
      <trkpt lat="43.89032" lon="6.34656">
        <ele>1161.41</ele>
        <time>2019-06-24T15:16:49Z</time>
      </trkpt>
      <trkpt lat="43.89034" lon="6.34649">
        <ele>1161.89</ele>
        <time>2019-06-24T15:16:50Z</time>
      </trkpt>
      <trkpt lat="43.89034" lon="6.34644">
        <ele>1161.41</ele>
        <time>2019-06-24T15:16:51Z</time>
      </trkpt>
      <trkpt lat="43.89032" lon="6.34639">
        <ele>1160.93</ele>
        <time>2019-06-24T15:16:52Z</time>
      </trkpt>
      <trkpt lat="43.89028" lon="6.34637">
        <ele>1160.45</ele>
        <time>2019-06-24T15:16:53Z</time>
      </trkpt>
      <trkpt lat="43.89023" lon="6.34637">
        <ele>1159.97</ele>
        <time>2019-06-24T15:16:54Z</time>
      </trkpt>
      <trkpt lat="43.89019" lon="6.34641">
        <ele>1159.01</ele>
        <time>2019-06-24T15:16:55Z</time>
      </trkpt>
      <trkpt lat="43.89015" lon="6.34648">
        <ele>1159.01</ele>
        <time>2019-06-24T15:16:56Z</time>
      </trkpt>
      <trkpt lat="43.89011" lon="6.34656">
        <ele>1158.53</ele>
        <time>2019-06-24T15:16:57Z</time>
      </trkpt>
      <trkpt lat="43.89006" lon="6.34664">
        <ele>1158.05</ele>
        <time>2019-06-24T15:16:58Z</time>
      </trkpt>
      <trkpt lat="43.89" lon="6.34672">
        <ele>1156.6</ele>
        <time>2019-06-24T15:16:59Z</time>
      </trkpt>
      <trkpt lat="43.88981" lon="6.34692">
        <ele>1154.68</ele>
        <time>2019-06-24T15:17:02Z</time>
      </trkpt>
      <trkpt lat="43.88974" lon="6.34697">
        <ele>1153.72</ele>
        <time>2019-06-24T15:17:03Z</time>
      </trkpt>
      <trkpt lat="43.88967" lon="6.34701">
        <ele>1153.24</ele>
        <time>2019-06-24T15:17:04Z</time>
      </trkpt>
      <trkpt lat="43.88961" lon="6.34705">
        <ele>1152.28</ele>
        <time>2019-06-24T15:17:05Z</time>
      </trkpt>
      <trkpt lat="43.88954" lon="6.34709">
        <ele>1150.84</ele>
        <time>2019-06-24T15:17:06Z</time>
      </trkpt>
      <trkpt lat="43.88943" lon="6.34718">
        <ele>1149.87</ele>
        <time>2019-06-24T15:17:08Z</time>
      </trkpt>
      <trkpt lat="43.88939" lon="6.34723">
        <ele>1148.91</ele>
        <time>2019-06-24T15:17:09Z</time>
      </trkpt>
      <trkpt lat="43.88935" lon="6.34727">
        <ele>1148.91</ele>
        <time>2019-06-24T15:17:10Z</time>
      </trkpt>
      <trkpt lat="43.88931" lon="6.34729">
        <ele>1147.95</ele>
        <time>2019-06-24T15:17:11Z</time>
      </trkpt>
      <trkpt lat="43.88926" lon="6.3473">
        <ele>1148.43</ele>
        <time>2019-06-24T15:17:12Z</time>
      </trkpt>
      <trkpt lat="43.88923" lon="6.34727">
        <ele>1147.95</ele>
        <time>2019-06-24T15:17:13Z</time>
      </trkpt>
      <trkpt lat="43.88921" lon="6.34723">
        <ele>1147.47</ele>
        <time>2019-06-24T15:17:14Z</time>
      </trkpt>
      <trkpt lat="43.8892" lon="6.34717">
        <ele>1146.99</ele>
        <time>2019-06-24T15:17:15Z</time>
      </trkpt>
      <trkpt lat="43.88922" lon="6.34709">
        <ele>1147.47</ele>
        <time>2019-06-24T15:17:16Z</time>
      </trkpt>
      <trkpt lat="43.88925" lon="6.34701">
        <ele>1146.99</ele>
        <time>2019-06-24T15:17:17Z</time>
      </trkpt>
      <trkpt lat="43.88929" lon="6.34691">
        <ele>1146.99</ele>
        <time>2019-06-24T15:17:18Z</time>
      </trkpt>
      <trkpt lat="43.88932" lon="6.34681">
        <ele>1146.51</ele>
        <time>2019-06-24T15:17:19Z</time>
      </trkpt>
      <trkpt lat="43.88941" lon="6.34649">
        <ele>1144.11</ele>
        <time>2019-06-24T15:17:22Z</time>
      </trkpt>
      <trkpt lat="43.88944" lon="6.34629">
        <ele>1142.66</ele>
        <time>2019-06-24T15:17:24Z</time>
      </trkpt>
      <trkpt lat="43.88944" lon="6.34613">
        <ele>1140.26</ele>
        <time>2019-06-24T15:17:26Z</time>
      </trkpt>
      <trkpt lat="43.88943" lon="6.34604">
        <ele>1139.3</ele>
        <time>2019-06-24T15:17:27Z</time>
      </trkpt>
      <trkpt lat="43.8894" lon="6.34596">
        <ele>1138.34</ele>
        <time>2019-06-24T15:17:28Z</time>
      </trkpt>
      <trkpt lat="43.88936" lon="6.34587">
        <ele>1137.86</ele>
        <time>2019-06-24T15:17:29Z</time>
      </trkpt>
      <trkpt lat="43.88932" lon="6.34578">
        <ele>1137.86</ele>
        <time>2019-06-24T15:17:30Z</time>
      </trkpt>
      <trkpt lat="43.88923" lon="6.34559">
        <ele>1136.42</ele>
        <time>2019-06-24T15:17:32Z</time>
      </trkpt>
      <trkpt lat="43.88918" lon="6.34551">
        <ele>1135.94</ele>
        <time>2019-06-24T15:17:33Z</time>
      </trkpt>
      <trkpt lat="43.88912" lon="6.34544">
        <ele>1135.45</ele>
        <time>2019-06-24T15:17:34Z</time>
      </trkpt>
      <trkpt lat="43.88897" lon="6.34525">
        <ele>1133.53</ele>
        <time>2019-06-24T15:17:37Z</time>
      </trkpt>
      <trkpt lat="43.88894" lon="6.34517">
        <ele>1132.57</ele>
        <time>2019-06-24T15:17:38Z</time>
      </trkpt>
      <trkpt lat="43.88893" lon="6.34508">
        <ele>1131.61</ele>
        <time>2019-06-24T15:17:39Z</time>
      </trkpt>
      <trkpt lat="43.88893" lon="6.34499">
        <ele>1131.13</ele>
        <time>2019-06-24T15:17:40Z</time>
      </trkpt>
      <trkpt lat="43.88893" lon="6.34491">
        <ele>1129.69</ele>
        <time>2019-06-24T15:17:41Z</time>
      </trkpt>
      <trkpt lat="43.88893" lon="6.34485">
        <ele>1129.21</ele>
        <time>2019-06-24T15:17:42Z</time>
      </trkpt>
      <trkpt lat="43.88891" lon="6.3448">
        <ele>1128.73</ele>
        <time>2019-06-24T15:17:43Z</time>
      </trkpt>
      <trkpt lat="43.88888" lon="6.34477">
        <ele>1128.24</ele>
        <time>2019-06-24T15:17:44Z</time>
      </trkpt>
      <trkpt lat="43.88885" lon="6.34476">
        <ele>1127.28</ele>
        <time>2019-06-24T15:17:45Z</time>
      </trkpt>
      <trkpt lat="43.88882" lon="6.34478">
        <ele>1126.8</ele>
        <time>2019-06-24T15:17:46Z</time>
      </trkpt>
      <trkpt lat="43.88879" lon="6.3448">
        <ele>1126.8</ele>
        <time>2019-06-24T15:17:47Z</time>
      </trkpt>
      <trkpt lat="43.88876" lon="6.34484">
        <ele>1126.32</ele>
        <time>2019-06-24T15:17:48Z</time>
      </trkpt>
      <trkpt lat="43.88874" lon="6.3449">
        <ele>1125.84</ele>
        <time>2019-06-24T15:17:49Z</time>
      </trkpt>
      <trkpt lat="43.88871" lon="6.34497">
        <ele>1125.36</ele>
        <time>2019-06-24T15:17:50Z</time>
      </trkpt>
      <trkpt lat="43.88864" lon="6.34525">
        <ele>1123.92</ele>
        <time>2019-06-24T15:17:53Z</time>
      </trkpt>
      <trkpt lat="43.8886" lon="6.34546">
        <ele>1122.48</ele>
        <time>2019-06-24T15:17:55Z</time>
      </trkpt>
      <trkpt lat="43.88857" lon="6.34555">
        <ele>1121.52</ele>
        <time>2019-06-24T15:17:56Z</time>
      </trkpt>
      <trkpt lat="43.88852" lon="6.34563">
        <ele>1120.55</ele>
        <time>2019-06-24T15:17:57Z</time>
      </trkpt>
      <trkpt lat="43.88846" lon="6.34568">
        <ele>1119.59</ele>
        <time>2019-06-24T15:17:58Z</time>
      </trkpt>
      <trkpt lat="43.8884" lon="6.34571">
        <ele>1119.11</ele>
        <time>2019-06-24T15:17:59Z</time>
      </trkpt>
      <trkpt lat="43.88832" lon="6.34573">
        <ele>1119.11</ele>
        <time>2019-06-24T15:18:00Z</time>
      </trkpt>
      <trkpt lat="43.88823" lon="6.34575">
        <ele>1119.11</ele>
        <time>2019-06-24T15:18:01Z</time>
      </trkpt>
      <trkpt lat="43.88814" lon="6.34576">
        <ele>1118.63</ele>
        <time>2019-06-24T15:18:02Z</time>
      </trkpt>
      <trkpt lat="43.88789" lon="6.3458">
        <ele>1115.27</ele>
        <time>2019-06-24T15:18:05Z</time>
      </trkpt>
      <trkpt lat="43.88757" lon="6.34589">
        <ele>1112.38</ele>
        <time>2019-06-24T15:18:09Z</time>
      </trkpt>
      <trkpt lat="43.88724" lon="6.34607">
        <ele>1109.02</ele>
        <time>2019-06-24T15:18:13Z</time>
      </trkpt>
      <trkpt lat="43.88702" lon="6.34627">
        <ele>1106.61</ele>
        <time>2019-06-24T15:18:16Z</time>
      </trkpt>
      <trkpt lat="43.88691" lon="6.34642">
        <ele>1104.69</ele>
        <time>2019-06-24T15:18:18Z</time>
      </trkpt>
      <trkpt lat="43.88687" lon="6.3465">
        <ele>1103.73</ele>
        <time>2019-06-24T15:18:19Z</time>
      </trkpt>
      <trkpt lat="43.88684" lon="6.34658">
        <ele>1103.25</ele>
        <time>2019-06-24T15:18:20Z</time>
      </trkpt>
      <trkpt lat="43.88682" lon="6.34666">
        <ele>1101.81</ele>
        <time>2019-06-24T15:18:21Z</time>
      </trkpt>
      <trkpt lat="43.88681" lon="6.34673">
        <ele>1101.81</ele>
        <time>2019-06-24T15:18:22Z</time>
      </trkpt>
      <trkpt lat="43.88679" lon="6.3468">
        <ele>1101.33</ele>
        <time>2019-06-24T15:18:23Z</time>
      </trkpt>
      <trkpt lat="43.88676" lon="6.34684">
        <ele>1100.37</ele>
        <time>2019-06-24T15:18:24Z</time>
      </trkpt>
      <trkpt lat="43.88673" lon="6.34687">
        <ele>1100.37</ele>
        <time>2019-06-24T15:18:25Z</time>
      </trkpt>
      <trkpt lat="43.88669" lon="6.34686">
        <ele>1100.37</ele>
        <time>2019-06-24T15:18:26Z</time>
      </trkpt>
      <trkpt lat="43.88665" lon="6.34683">
        <ele>1099.89</ele>
        <time>2019-06-24T15:18:27Z</time>
      </trkpt>
      <trkpt lat="43.8866" lon="6.34678">
        <ele>1099.4</ele>
        <time>2019-06-24T15:18:28Z</time>
      </trkpt>
      <trkpt lat="43.88654" lon="6.34673">
        <ele>1098.92</ele>
        <time>2019-06-24T15:18:29Z</time>
      </trkpt>
      <trkpt lat="43.88647" lon="6.34668">
        <ele>1098.44</ele>
        <time>2019-06-24T15:18:30Z</time>
      </trkpt>
      <trkpt lat="43.8864" lon="6.34662">
        <ele>1098.44</ele>
        <time>2019-06-24T15:18:31Z</time>
      </trkpt>
      <trkpt lat="43.88633" lon="6.34655">
        <ele>1097.96</ele>
        <time>2019-06-24T15:18:32Z</time>
      </trkpt>
      <trkpt lat="43.88627" lon="6.34647">
        <ele>1096.04</ele>
        <time>2019-06-24T15:18:33Z</time>
      </trkpt>
      <trkpt lat="43.88622" lon="6.34638">
        <ele>1095.08</ele>
        <time>2019-06-24T15:18:34Z</time>
      </trkpt>
      <trkpt lat="43.88618" lon="6.34629">
        <ele>1094.12</ele>
        <time>2019-06-24T15:18:35Z</time>
      </trkpt>
      <trkpt lat="43.88614" lon="6.34618">
        <ele>1093.64</ele>
        <time>2019-06-24T15:18:36Z</time>
      </trkpt>
      <trkpt lat="43.88611" lon="6.34609">
        <ele>1094.12</ele>
        <time>2019-06-24T15:18:37Z</time>
      </trkpt>
      <trkpt lat="43.88608" lon="6.346">
        <ele>1092.68</ele>
        <time>2019-06-24T15:18:38Z</time>
      </trkpt>
      <trkpt lat="43.88604" lon="6.34592">
        <ele>1091.71</ele>
        <time>2019-06-24T15:18:39Z</time>
      </trkpt>
      <trkpt lat="43.886" lon="6.34586">
        <ele>1090.75</ele>
        <time>2019-06-24T15:18:40Z</time>
      </trkpt>
      <trkpt lat="43.88595" lon="6.34581">
        <ele>1089.79</ele>
        <time>2019-06-24T15:18:41Z</time>
      </trkpt>
      <trkpt lat="43.88589" lon="6.34578">
        <ele>1089.31</ele>
        <time>2019-06-24T15:18:42Z</time>
      </trkpt>
      <trkpt lat="43.88583" lon="6.34575">
        <ele>1088.83</ele>
        <time>2019-06-24T15:18:43Z</time>
      </trkpt>
      <trkpt lat="43.88576" lon="6.34573">
        <ele>1087.39</ele>
        <time>2019-06-24T15:18:44Z</time>
      </trkpt>
      <trkpt lat="43.88569" lon="6.34573">
        <ele>1086.91</ele>
        <time>2019-06-24T15:18:45Z</time>
      </trkpt>
      <trkpt lat="43.88562" lon="6.34573">
        <ele>1085.47</ele>
        <time>2019-06-24T15:18:46Z</time>
      </trkpt>
      <trkpt lat="43.88542" lon="6.34572">
        <ele>1082.1</ele>
        <time>2019-06-24T15:18:49Z</time>
      </trkpt>
      <trkpt lat="43.88536" lon="6.34573">
        <ele>1081.62</ele>
        <time>2019-06-24T15:18:50Z</time>
      </trkpt>
      <trkpt lat="43.88531" lon="6.34576">
        <ele>1080.66</ele>
        <time>2019-06-24T15:18:51Z</time>
      </trkpt>
      <trkpt lat="43.88526" lon="6.34581">
        <ele>1080.18</ele>
        <time>2019-06-24T15:18:52Z</time>
      </trkpt>
      <trkpt lat="43.8852" lon="6.34588">
        <ele>1078.74</ele>
        <time>2019-06-24T15:18:53Z</time>
      </trkpt>
      <trkpt lat="43.88516" lon="6.34595">
        <ele>1078.26</ele>
        <time>2019-06-24T15:18:54Z</time>
      </trkpt>
      <trkpt lat="43.88512" lon="6.34603">
        <ele>1078.26</ele>
        <time>2019-06-24T15:18:55Z</time>
      </trkpt>
      <trkpt lat="43.88509" lon="6.34612">
        <ele>1077.78</ele>
        <time>2019-06-24T15:18:56Z</time>
      </trkpt>
      <trkpt lat="43.88506" lon="6.34621">
        <ele>1077.29</ele>
        <time>2019-06-24T15:18:57Z</time>
      </trkpt>
      <trkpt lat="43.88505" lon="6.34629">
        <ele>1076.81</ele>
        <time>2019-06-24T15:18:58Z</time>
      </trkpt>
      <trkpt lat="43.88507" lon="6.34637">
        <ele>1076.33</ele>
        <time>2019-06-24T15:18:59Z</time>
      </trkpt>
      <trkpt lat="43.88509" lon="6.34644">
        <ele>1076.33</ele>
        <time>2019-06-24T15:19:00Z</time>
      </trkpt>
      <trkpt lat="43.88513" lon="6.34651">
        <ele>1076.33</ele>
        <time>2019-06-24T15:19:01Z</time>
      </trkpt>
      <trkpt lat="43.88519" lon="6.34658">
        <ele>1076.33</ele>
        <time>2019-06-24T15:19:02Z</time>
      </trkpt>
      <trkpt lat="43.88525" lon="6.34665">
        <ele>1075.85</ele>
        <time>2019-06-24T15:19:03Z</time>
      </trkpt>
      <trkpt lat="43.88553" lon="6.347">
        <ele>1072.01</ele>
        <time>2019-06-24T15:19:08Z</time>
      </trkpt>
      <trkpt lat="43.88563" lon="6.34713">
        <ele>1069.12</ele>
        <time>2019-06-24T15:19:10Z</time>
      </trkpt>
      <trkpt lat="43.88567" lon="6.34719">
        <ele>1068.16</ele>
        <time>2019-06-24T15:19:11Z</time>
      </trkpt>
      <trkpt lat="43.88572" lon="6.34724">
        <ele>1067.68</ele>
        <time>2019-06-24T15:19:12Z</time>
      </trkpt>
      <trkpt lat="43.88576" lon="6.34727">
        <ele>1066.72</ele>
        <time>2019-06-24T15:19:13Z</time>
      </trkpt>
      <trkpt lat="43.8858" lon="6.34729">
        <ele>1066.24</ele>
        <time>2019-06-24T15:19:14Z</time>
      </trkpt>
      <trkpt lat="43.88582" lon="6.34733">
        <ele>1065.28</ele>
        <time>2019-06-24T15:19:15Z</time>
      </trkpt>
      <trkpt lat="43.88583" lon="6.34737">
        <ele>1065.28</ele>
        <time>2019-06-24T15:19:16Z</time>
      </trkpt>
      <trkpt lat="43.88582" lon="6.34742">
        <ele>1064.32</ele>
        <time>2019-06-24T15:19:17Z</time>
      </trkpt>
      <trkpt lat="43.8858" lon="6.34745">
        <ele>1063.84</ele>
        <time>2019-06-24T15:19:18Z</time>
      </trkpt>
      <trkpt lat="43.88576" lon="6.34747">
        <ele>1063.36</ele>
        <time>2019-06-24T15:19:19Z</time>
      </trkpt>
      <trkpt lat="43.8857" lon="6.34745">
        <ele>1062.87</ele>
        <time>2019-06-24T15:19:20Z</time>
      </trkpt>
      <trkpt lat="43.88563" lon="6.34743">
        <ele>1062.39</ele>
        <time>2019-06-24T15:19:21Z</time>
      </trkpt>
      <trkpt lat="43.88556" lon="6.3474">
        <ele>1061.43</ele>
        <time>2019-06-24T15:19:22Z</time>
      </trkpt>
      <trkpt lat="43.88535" lon="6.34731">
        <ele>1058.07</ele>
        <time>2019-06-24T15:19:25Z</time>
      </trkpt>
      <trkpt lat="43.8853" lon="6.34727">
        <ele>1056.63</ele>
        <time>2019-06-24T15:19:26Z</time>
      </trkpt>
      <trkpt lat="43.88525" lon="6.34724">
        <ele>1056.15</ele>
        <time>2019-06-24T15:19:27Z</time>
      </trkpt>
      <trkpt lat="43.88521" lon="6.34722">
        <ele>1055.18</ele>
        <time>2019-06-24T15:19:28Z</time>
      </trkpt>
      <trkpt lat="43.88517" lon="6.34723">
        <ele>1054.7</ele>
        <time>2019-06-24T15:19:29Z</time>
      </trkpt>
      <trkpt lat="43.88515" lon="6.34726">
        <ele>1054.22</ele>
        <time>2019-06-24T15:19:30Z</time>
      </trkpt>
      <trkpt lat="43.88513" lon="6.3473">
        <ele>1053.74</ele>
        <time>2019-06-24T15:19:31Z</time>
      </trkpt>
      <trkpt lat="43.88514" lon="6.34736">
        <ele>1052.78</ele>
        <time>2019-06-24T15:19:32Z</time>
      </trkpt>
      <trkpt lat="43.88516" lon="6.34742">
        <ele>1052.78</ele>
        <time>2019-06-24T15:19:33Z</time>
      </trkpt>
      <trkpt lat="43.8852" lon="6.34748">
        <ele>1052.78</ele>
        <time>2019-06-24T15:19:34Z</time>
      </trkpt>
      <trkpt lat="43.88524" lon="6.34756">
        <ele>1051.82</ele>
        <time>2019-06-24T15:19:35Z</time>
      </trkpt>
      <trkpt lat="43.88528" lon="6.34764">
        <ele>1051.82</ele>
        <time>2019-06-24T15:19:36Z</time>
      </trkpt>
      <trkpt lat="43.88532" lon="6.34773">
        <ele>1050.38</ele>
        <time>2019-06-24T15:19:37Z</time>
      </trkpt>
      <trkpt lat="43.88535" lon="6.34783">
        <ele>1049.9</ele>
        <time>2019-06-24T15:19:38Z</time>
      </trkpt>
      <trkpt lat="43.88539" lon="6.34802">
        <ele>1048.94</ele>
        <time>2019-06-24T15:19:40Z</time>
      </trkpt>
      <trkpt lat="43.88542" lon="6.3481">
        <ele>1047.49</ele>
        <time>2019-06-24T15:19:41Z</time>
      </trkpt>
      <trkpt lat="43.88546" lon="6.34816">
        <ele>1047.49</ele>
        <time>2019-06-24T15:19:42Z</time>
      </trkpt>
      <trkpt lat="43.88551" lon="6.34821">
        <ele>1046.53</ele>
        <time>2019-06-24T15:19:43Z</time>
      </trkpt>
      <trkpt lat="43.88556" lon="6.34824">
        <ele>1045.57</ele>
        <time>2019-06-24T15:19:44Z</time>
      </trkpt>
      <trkpt lat="43.88563" lon="6.34826">
        <ele>1045.09</ele>
        <time>2019-06-24T15:19:45Z</time>
      </trkpt>
      <trkpt lat="43.88571" lon="6.34828">
        <ele>1045.09</ele>
        <time>2019-06-24T15:19:46Z</time>
      </trkpt>
      <trkpt lat="43.88578" lon="6.3483">
        <ele>1043.65</ele>
        <time>2019-06-24T15:19:47Z</time>
      </trkpt>
      <trkpt lat="43.88584" lon="6.34834">
        <ele>1042.69</ele>
        <time>2019-06-24T15:19:48Z</time>
      </trkpt>
      <trkpt lat="43.88588" lon="6.3484">
        <ele>1043.17</ele>
        <time>2019-06-24T15:19:49Z</time>
      </trkpt>
      <trkpt lat="43.8859" lon="6.34846">
        <ele>1042.69</ele>
        <time>2019-06-24T15:19:50Z</time>
      </trkpt>
      <trkpt lat="43.88591" lon="6.34852">
        <ele>1042.21</ele>
        <time>2019-06-24T15:19:51Z</time>
      </trkpt>
      <trkpt lat="43.88589" lon="6.34858">
        <ele>1042.21</ele>
        <time>2019-06-24T15:19:52Z</time>
      </trkpt>
      <trkpt lat="43.88585" lon="6.34862">
        <ele>1041.73</ele>
        <time>2019-06-24T15:19:53Z</time>
      </trkpt>
      <trkpt lat="43.8858" lon="6.34865">
        <ele>1042.69</ele>
        <time>2019-06-24T15:19:54Z</time>
      </trkpt>
      <trkpt lat="43.88574" lon="6.34867">
        <ele>1043.65</ele>
        <time>2019-06-24T15:19:55Z</time>
      </trkpt>
      <trkpt lat="43.88568" lon="6.34869">
        <ele>1043.65</ele>
        <time>2019-06-24T15:19:56Z</time>
      </trkpt>
      <trkpt lat="43.88562" lon="6.34872">
        <ele>1043.65</ele>
        <time>2019-06-24T15:19:57Z</time>
      </trkpt>
      <trkpt lat="43.88557" lon="6.34877">
        <ele>1044.61</ele>
        <time>2019-06-24T15:19:58Z</time>
      </trkpt>
      <trkpt lat="43.88551" lon="6.34883">
        <ele>1044.13</ele>
        <time>2019-06-24T15:19:59Z</time>
      </trkpt>
      <trkpt lat="43.88545" lon="6.34892">
        <ele>1043.65</ele>
        <time>2019-06-24T15:20:00Z</time>
      </trkpt>
      <trkpt lat="43.88539" lon="6.349">
        <ele>1043.17</ele>
        <time>2019-06-24T15:20:01Z</time>
      </trkpt>
      <trkpt lat="43.88533" lon="6.34907">
        <ele>1043.17</ele>
        <time>2019-06-24T15:20:02Z</time>
      </trkpt>
      <trkpt lat="43.88526" lon="6.34911">
        <ele>1042.69</ele>
        <time>2019-06-24T15:20:03Z</time>
      </trkpt>
      <trkpt lat="43.88519" lon="6.34914">
        <ele>1042.21</ele>
        <time>2019-06-24T15:20:04Z</time>
      </trkpt>
      <trkpt lat="43.88511" lon="6.34914">
        <ele>1041.73</ele>
        <time>2019-06-24T15:20:05Z</time>
      </trkpt>
      <trkpt lat="43.88505" lon="6.34913">
        <ele>1041.73</ele>
        <time>2019-06-24T15:20:06Z</time>
      </trkpt>
      <trkpt lat="43.88499" lon="6.34912">
        <ele>1041.25</ele>
        <time>2019-06-24T15:20:07Z</time>
      </trkpt>
      <trkpt lat="43.88495" lon="6.34911">
        <ele>1040.76</ele>
        <time>2019-06-24T15:20:08Z</time>
      </trkpt>
      <trkpt lat="43.8849" lon="6.34912">
        <ele>1040.76</ele>
        <time>2019-06-24T15:20:09Z</time>
      </trkpt>
      <trkpt lat="43.88485" lon="6.34914">
        <ele>1040.76</ele>
        <time>2019-06-24T15:20:10Z</time>
      </trkpt>
      <trkpt lat="43.88455" lon="6.34924">
        <ele>1037.4</ele>
        <time>2019-06-24T15:20:15Z</time>
      </trkpt>
      <trkpt lat="43.88441" lon="6.34926">
        <ele>1035.96</ele>
        <time>2019-06-24T15:20:17Z</time>
      </trkpt>
      <trkpt lat="43.88418" lon="6.34931">
        <ele>1031.63</ele>
        <time>2019-06-24T15:20:20Z</time>
      </trkpt>
      <trkpt lat="43.88387" lon="6.34936">
        <ele>1027.79</ele>
        <time>2019-06-24T15:20:24Z</time>
      </trkpt>
      <trkpt lat="43.88381" lon="6.34939">
        <ele>1026.34</ele>
        <time>2019-06-24T15:20:25Z</time>
      </trkpt>
      <trkpt lat="43.88376" lon="6.34944">
        <ele>1024.9</ele>
        <time>2019-06-24T15:20:26Z</time>
      </trkpt>
      <trkpt lat="43.88354" lon="6.34965">
        <ele>1023.46</ele>
        <time>2019-06-24T15:20:30Z</time>
      </trkpt>
      <trkpt lat="43.88348" lon="6.34968">
        <ele>1022.98</ele>
        <time>2019-06-24T15:20:31Z</time>
      </trkpt>
      <trkpt lat="43.88342" lon="6.34969">
        <ele>1022.98</ele>
        <time>2019-06-24T15:20:32Z</time>
      </trkpt>
      <trkpt lat="43.88309" lon="6.34969">
        <ele>1019.62</ele>
        <time>2019-06-24T15:20:37Z</time>
      </trkpt>
      <trkpt lat="43.88304" lon="6.34967">
        <ele>1018.65</ele>
        <time>2019-06-24T15:20:38Z</time>
      </trkpt>
      <trkpt lat="43.88294" lon="6.34959">
        <ele>1017.21</ele>
        <time>2019-06-24T15:20:40Z</time>
      </trkpt>
      <trkpt lat="43.88288" lon="6.34956">
        <ele>1016.25</ele>
        <time>2019-06-24T15:20:41Z</time>
      </trkpt>
      <trkpt lat="43.88282" lon="6.34956">
        <ele>1015.77</ele>
        <time>2019-06-24T15:20:42Z</time>
      </trkpt>
      <trkpt lat="43.88275" lon="6.34958">
        <ele>1014.33</ele>
        <time>2019-06-24T15:20:43Z</time>
      </trkpt>
      <trkpt lat="43.88268" lon="6.34962">
        <ele>1013.37</ele>
        <time>2019-06-24T15:20:44Z</time>
      </trkpt>
      <trkpt lat="43.8826" lon="6.34967">
        <ele>1012.41</ele>
        <time>2019-06-24T15:20:45Z</time>
      </trkpt>
      <trkpt lat="43.88252" lon="6.34973">
        <ele>1011.93</ele>
        <time>2019-06-24T15:20:46Z</time>
      </trkpt>
      <trkpt lat="43.88237" lon="6.34982">
        <ele>1010.48</ele>
        <time>2019-06-24T15:20:48Z</time>
      </trkpt>
      <trkpt lat="43.88229" lon="6.34983">
        <ele>1010</ele>
        <time>2019-06-24T15:20:49Z</time>
      </trkpt>
      <trkpt lat="43.88222" lon="6.34984">
        <ele>1009.04</ele>
        <time>2019-06-24T15:20:50Z</time>
      </trkpt>
      <trkpt lat="43.88214" lon="6.34983">
        <ele>1008.56</ele>
        <time>2019-06-24T15:20:51Z</time>
      </trkpt>
      <trkpt lat="43.88207" lon="6.34982">
        <ele>1007.6</ele>
        <time>2019-06-24T15:20:52Z</time>
      </trkpt>
      <trkpt lat="43.88199" lon="6.34981">
        <ele>1007.12</ele>
        <time>2019-06-24T15:20:53Z</time>
      </trkpt>
      <trkpt lat="43.88193" lon="6.34982">
        <ele>1006.16</ele>
        <time>2019-06-24T15:20:54Z</time>
      </trkpt>
      <trkpt lat="43.88186" lon="6.34984">
        <ele>1005.68</ele>
        <time>2019-06-24T15:20:55Z</time>
      </trkpt>
      <trkpt lat="43.88181" lon="6.34988">
        <ele>1005.2</ele>
        <time>2019-06-24T15:20:56Z</time>
      </trkpt>
      <trkpt lat="43.88175" lon="6.34993">
        <ele>1003.75</ele>
        <time>2019-06-24T15:20:57Z</time>
      </trkpt>
      <trkpt lat="43.88169" lon="6.34997">
        <ele>1003.27</ele>
        <time>2019-06-24T15:20:58Z</time>
      </trkpt>
      <trkpt lat="43.88151" lon="6.35009">
        <ele>1001.35</ele>
        <time>2019-06-24T15:21:01Z</time>
      </trkpt>
      <trkpt lat="43.88146" lon="6.35015">
        <ele>1000.39</ele>
        <time>2019-06-24T15:21:02Z</time>
      </trkpt>
      <trkpt lat="43.88141" lon="6.35021">
        <ele>1000.87</ele>
        <time>2019-06-24T15:21:03Z</time>
      </trkpt>
      <trkpt lat="43.88136" lon="6.35028">
        <ele>999.91</ele>
        <time>2019-06-24T15:21:04Z</time>
      </trkpt>
      <trkpt lat="43.88132" lon="6.35036">
        <ele>999.43</ele>
        <time>2019-06-24T15:21:05Z</time>
      </trkpt>
      <trkpt lat="43.88127" lon="6.35046">
        <ele>999.43</ele>
        <time>2019-06-24T15:21:06Z</time>
      </trkpt>
      <trkpt lat="43.88098" lon="6.35123">
        <ele>997.51</ele>
        <time>2019-06-24T15:21:15Z</time>
      </trkpt>
      <trkpt lat="43.88065" lon="6.35203">
        <ele>996.54</ele>
        <time>2019-06-24T15:21:21Z</time>
      </trkpt>
      <trkpt lat="43.88058" lon="6.35219">
        <ele>996.06</ele>
        <time>2019-06-24T15:21:22Z</time>
      </trkpt>
      <trkpt lat="43.88053" lon="6.35235">
        <ele>995.58</ele>
        <time>2019-06-24T15:21:23Z</time>
      </trkpt>
      <trkpt lat="43.88049" lon="6.35252">
        <ele>994.62</ele>
        <time>2019-06-24T15:21:24Z</time>
      </trkpt>
      <trkpt lat="43.88046" lon="6.35269">
        <ele>994.62</ele>
        <time>2019-06-24T15:21:25Z</time>
      </trkpt>
      <trkpt lat="43.88044" lon="6.35286">
        <ele>993.66</ele>
        <time>2019-06-24T15:21:26Z</time>
      </trkpt>
      <trkpt lat="43.88009" lon="6.35439">
        <ele>993.18</ele>
        <time>2019-06-24T15:21:34Z</time>
      </trkpt>
      <trkpt lat="43.87981" lon="6.35493">
        <ele>989.81</ele>
        <time>2019-06-24T15:21:37Z</time>
      </trkpt>
      <trkpt lat="43.87961" lon="6.35529">
        <ele>988.85</ele>
        <time>2019-06-24T15:21:39Z</time>
      </trkpt>
      <trkpt lat="43.87911" lon="6.35619">
        <ele>985.49</ele>
        <time>2019-06-24T15:21:44Z</time>
      </trkpt>
      <trkpt lat="43.87882" lon="6.35664">
        <ele>983.57</ele>
        <time>2019-06-24T15:21:47Z</time>
      </trkpt>
      <trkpt lat="43.87865" lon="6.35688">
        <ele>982.6</ele>
        <time>2019-06-24T15:21:49Z</time>
      </trkpt>
      <trkpt lat="43.87859" lon="6.35703">
        <ele>981.16</ele>
        <time>2019-06-24T15:21:50Z</time>
      </trkpt>
      <trkpt lat="43.87854" lon="6.35718">
        <ele>981.16</ele>
        <time>2019-06-24T15:21:51Z</time>
      </trkpt>
      <trkpt lat="43.87849" lon="6.35734">
        <ele>981.16</ele>
        <time>2019-06-24T15:21:52Z</time>
      </trkpt>
      <trkpt lat="43.87841" lon="6.35749">
        <ele>981.16</ele>
        <time>2019-06-24T15:21:53Z</time>
      </trkpt>
      <trkpt lat="43.87833" lon="6.35762">
        <ele>981.16</ele>
        <time>2019-06-24T15:21:54Z</time>
      </trkpt>
      <trkpt lat="43.87795" lon="6.35811">
        <ele>980.68</ele>
        <time>2019-06-24T15:21:58Z</time>
      </trkpt>
      <trkpt lat="43.8779" lon="6.35826">
        <ele>980.2</ele>
        <time>2019-06-24T15:21:59Z</time>
      </trkpt>
      <trkpt lat="43.87785" lon="6.35843">
        <ele>979.72</ele>
        <time>2019-06-24T15:22:00Z</time>
      </trkpt>
      <trkpt lat="43.87777" lon="6.35876">
        <ele>979.72</ele>
        <time>2019-06-24T15:22:02Z</time>
      </trkpt>
      <trkpt lat="43.87769" lon="6.3589">
        <ele>980.2</ele>
        <time>2019-06-24T15:22:03Z</time>
      </trkpt>
      <trkpt lat="43.87763" lon="6.35903">
        <ele>979.72</ele>
        <time>2019-06-24T15:22:04Z</time>
      </trkpt>
      <trkpt lat="43.87758" lon="6.35918">
        <ele>979.72</ele>
        <time>2019-06-24T15:22:05Z</time>
      </trkpt>
      <trkpt lat="43.87753" lon="6.35934">
        <ele>979.72</ele>
        <time>2019-06-24T15:22:06Z</time>
      </trkpt>
      <trkpt lat="43.87748" lon="6.35951">
        <ele>980.68</ele>
        <time>2019-06-24T15:22:07Z</time>
      </trkpt>
      <trkpt lat="43.87741" lon="6.35966">
        <ele>980.68</ele>
        <time>2019-06-24T15:22:08Z</time>
      </trkpt>
      <trkpt lat="43.87726" lon="6.35996">
        <ele>979.72</ele>
        <time>2019-06-24T15:22:10Z</time>
      </trkpt>
      <trkpt lat="43.87717" lon="6.36009">
        <ele>979.24</ele>
        <time>2019-06-24T15:22:11Z</time>
      </trkpt>
      <trkpt lat="43.87708" lon="6.3602">
        <ele>978.76</ele>
        <time>2019-06-24T15:22:12Z</time>
      </trkpt>
      <trkpt lat="43.87681" lon="6.36052">
        <ele>978.28</ele>
        <time>2019-06-24T15:22:15Z</time>
      </trkpt>
      <trkpt lat="43.87673" lon="6.36065">
        <ele>978.28</ele>
        <time>2019-06-24T15:22:16Z</time>
      </trkpt>
      <trkpt lat="43.87666" lon="6.36079">
        <ele>978.76</ele>
        <time>2019-06-24T15:22:17Z</time>
      </trkpt>
      <trkpt lat="43.87616" lon="6.36167">
        <ele>977.32</ele>
        <time>2019-06-24T15:22:23Z</time>
      </trkpt>
      <trkpt lat="43.87605" lon="6.36178">
        <ele>977.32</ele>
        <time>2019-06-24T15:22:24Z</time>
      </trkpt>
      <trkpt lat="43.87497" lon="6.36295">
        <ele>979.24</ele>
        <time>2019-06-24T15:22:34Z</time>
      </trkpt>
      <trkpt lat="43.87487" lon="6.36306">
        <ele>979.72</ele>
        <time>2019-06-24T15:22:35Z</time>
      </trkpt>
      <trkpt lat="43.87371" lon="6.36435">
        <ele>980.2</ele>
        <time>2019-06-24T15:22:46Z</time>
      </trkpt>
      <trkpt lat="43.8736" lon="6.36443">
        <ele>980.2</ele>
        <time>2019-06-24T15:22:47Z</time>
      </trkpt>
      <trkpt lat="43.87349" lon="6.36451">
        <ele>980.2</ele>
        <time>2019-06-24T15:22:48Z</time>
      </trkpt>
      <trkpt lat="43.8734" lon="6.36462">
        <ele>980.68</ele>
        <time>2019-06-24T15:22:49Z</time>
      </trkpt>
      <trkpt lat="43.87332" lon="6.36476">
        <ele>980.68</ele>
        <time>2019-06-24T15:22:50Z</time>
      </trkpt>
      <trkpt lat="43.87325" lon="6.36491">
        <ele>979.72</ele>
        <time>2019-06-24T15:22:51Z</time>
      </trkpt>
      <trkpt lat="43.87319" lon="6.36507">
        <ele>979.24</ele>
        <time>2019-06-24T15:22:52Z</time>
      </trkpt>
      <trkpt lat="43.87279" lon="6.36617">
        <ele>977.8</ele>
        <time>2019-06-24T15:23:00Z</time>
      </trkpt>
      <trkpt lat="43.87241" lon="6.36718">
        <ele>979.72</ele>
        <time>2019-06-24T15:23:07Z</time>
      </trkpt>
      <trkpt lat="43.8722" lon="6.36775">
        <ele>983.57</ele>
        <time>2019-06-24T15:23:11Z</time>
      </trkpt>
      <trkpt lat="43.87201" lon="6.36847">
        <ele>986.45</ele>
        <time>2019-06-24T15:23:16Z</time>
      </trkpt>
      <trkpt lat="43.87194" lon="6.36873">
        <ele>987.41</ele>
        <time>2019-06-24T15:23:18Z</time>
      </trkpt>
      <trkpt lat="43.87182" lon="6.36925">
        <ele>990.78</ele>
        <time>2019-06-24T15:23:22Z</time>
      </trkpt>
      <trkpt lat="43.87177" lon="6.36976">
        <ele>991.74</ele>
        <time>2019-06-24T15:23:26Z</time>
      </trkpt>
      <trkpt lat="43.87179" lon="6.36986">
        <ele>991.26</ele>
        <time>2019-06-24T15:23:27Z</time>
      </trkpt>
      <trkpt lat="43.87183" lon="6.36993">
        <ele>990.78</ele>
        <time>2019-06-24T15:23:28Z</time>
      </trkpt>
      <trkpt lat="43.87189" lon="6.36997">
        <ele>990.3</ele>
        <time>2019-06-24T15:23:29Z</time>
      </trkpt>
      <trkpt lat="43.87197" lon="6.36998">
        <ele>990.3</ele>
        <time>2019-06-24T15:23:30Z</time>
      </trkpt>
      <trkpt lat="43.87206" lon="6.36999">
        <ele>990.3</ele>
        <time>2019-06-24T15:23:31Z</time>
      </trkpt>
      <trkpt lat="43.87227" lon="6.36995">
        <ele>989.33</ele>
        <time>2019-06-24T15:23:33Z</time>
      </trkpt>
      <trkpt lat="43.87238" lon="6.3699">
        <ele>989.33</ele>
        <time>2019-06-24T15:23:34Z</time>
      </trkpt>
      <trkpt lat="43.87248" lon="6.36982">
        <ele>989.81</ele>
        <time>2019-06-24T15:23:35Z</time>
      </trkpt>
      <trkpt lat="43.87257" lon="6.36973">
        <ele>988.37</ele>
        <time>2019-06-24T15:23:36Z</time>
      </trkpt>
      <trkpt lat="43.87265" lon="6.36962">
        <ele>987.89</ele>
        <time>2019-06-24T15:23:37Z</time>
      </trkpt>
      <trkpt lat="43.87273" lon="6.36951">
        <ele>987.89</ele>
        <time>2019-06-24T15:23:38Z</time>
      </trkpt>
      <trkpt lat="43.87294" lon="6.36924">
        <ele>985.01</ele>
        <time>2019-06-24T15:23:41Z</time>
      </trkpt>
      <trkpt lat="43.8731" lon="6.36907">
        <ele>983.57</ele>
        <time>2019-06-24T15:23:44Z</time>
      </trkpt>
      <trkpt lat="43.87324" lon="6.36896">
        <ele>981.64</ele>
        <time>2019-06-24T15:23:47Z</time>
      </trkpt>
      <trkpt lat="43.8733" lon="6.36894">
        <ele>981.16</ele>
        <time>2019-06-24T15:23:48Z</time>
      </trkpt>
      <trkpt lat="43.87335" lon="6.36894">
        <ele>980.68</ele>
        <time>2019-06-24T15:23:49Z</time>
      </trkpt>
      <trkpt lat="43.87339" lon="6.36897">
        <ele>980.68</ele>
        <time>2019-06-24T15:23:50Z</time>
      </trkpt>
      <trkpt lat="43.87341" lon="6.36902">
        <ele>980.2</ele>
        <time>2019-06-24T15:23:51Z</time>
      </trkpt>
      <trkpt lat="43.87343" lon="6.36907">
        <ele>980.2</ele>
        <time>2019-06-24T15:23:52Z</time>
      </trkpt>
      <trkpt lat="43.87346" lon="6.36912">
        <ele>980.2</ele>
        <time>2019-06-24T15:23:53Z</time>
      </trkpt>
      <trkpt lat="43.87348" lon="6.36917">
        <ele>980.2</ele>
        <time>2019-06-24T15:23:54Z</time>
      </trkpt>
      <trkpt lat="43.87349" lon="6.36923">
        <ele>980.2</ele>
        <time>2019-06-24T15:23:55Z</time>
      </trkpt>
      <trkpt lat="43.87347" lon="6.3693">
        <ele>980.2</ele>
        <time>2019-06-24T15:23:56Z</time>
      </trkpt>
      <trkpt lat="43.87344" lon="6.36938">
        <ele>980.2</ele>
        <time>2019-06-24T15:23:57Z</time>
      </trkpt>
      <trkpt lat="43.87338" lon="6.36946">
        <ele>981.16</ele>
        <time>2019-06-24T15:23:58Z</time>
      </trkpt>
      <trkpt lat="43.87332" lon="6.36955">
        <ele>981.16</ele>
        <time>2019-06-24T15:23:59Z</time>
      </trkpt>
      <trkpt lat="43.87328" lon="6.36965">
        <ele>981.16</ele>
        <time>2019-06-24T15:24:00Z</time>
      </trkpt>
      <trkpt lat="43.87324" lon="6.36975">
        <ele>980.2</ele>
        <time>2019-06-24T15:24:01Z</time>
      </trkpt>
      <trkpt lat="43.87321" lon="6.36986">
        <ele>980.68</ele>
        <time>2019-06-24T15:24:02Z</time>
      </trkpt>
      <trkpt lat="43.87292" lon="6.3705">
        <ele>977.8</ele>
        <time>2019-06-24T15:24:09Z</time>
      </trkpt>
      <trkpt lat="43.87286" lon="6.37058">
        <ele>977.8</ele>
        <time>2019-06-24T15:24:10Z</time>
      </trkpt>
      <trkpt lat="43.87279" lon="6.37065">
        <ele>977.8</ele>
        <time>2019-06-24T15:24:11Z</time>
      </trkpt>
      <trkpt lat="43.87264" lon="6.37081">
        <ele>976.84</ele>
        <time>2019-06-24T15:24:13Z</time>
      </trkpt>
      <trkpt lat="43.87257" lon="6.3709">
        <ele>976.36</ele>
        <time>2019-06-24T15:24:14Z</time>
      </trkpt>
      <trkpt lat="43.87227" lon="6.37134">
        <ele>974.91</ele>
        <time>2019-06-24T15:24:18Z</time>
      </trkpt>
      <trkpt lat="43.87218" lon="6.37143">
        <ele>974.43</ele>
        <time>2019-06-24T15:24:19Z</time>
      </trkpt>
      <trkpt lat="43.87185" lon="6.37167">
        <ele>971.55</ele>
        <time>2019-06-24T15:24:23Z</time>
      </trkpt>
      <trkpt lat="43.87159" lon="6.37193">
        <ele>969.63</ele>
        <time>2019-06-24T15:24:27Z</time>
      </trkpt>
      <trkpt lat="43.871" lon="6.37259">
        <ele>969.15</ele>
        <time>2019-06-24T15:24:37Z</time>
      </trkpt>
      <trkpt lat="43.87096" lon="6.37266">
        <ele>969.15</ele>
        <time>2019-06-24T15:24:38Z</time>
      </trkpt>
      <trkpt lat="43.87092" lon="6.37274">
        <ele>969.15</ele>
        <time>2019-06-24T15:24:39Z</time>
      </trkpt>
      <trkpt lat="43.87089" lon="6.37283">
        <ele>969.15</ele>
        <time>2019-06-24T15:24:40Z</time>
      </trkpt>
      <trkpt lat="43.87086" lon="6.37293">
        <ele>969.15</ele>
        <time>2019-06-24T15:24:41Z</time>
      </trkpt>
      <trkpt lat="43.87064" lon="6.37364">
        <ele>964.34</ele>
        <time>2019-06-24T15:24:47Z</time>
      </trkpt>
      <trkpt lat="43.8705" lon="6.37423">
        <ele>960.98</ele>
        <time>2019-06-24T15:24:51Z</time>
      </trkpt>
      <trkpt lat="43.87034" lon="6.37484">
        <ele>957.61</ele>
        <time>2019-06-24T15:24:55Z</time>
      </trkpt>
      <trkpt lat="43.87027" lon="6.37509">
        <ele>955.69</ele>
        <time>2019-06-24T15:24:57Z</time>
      </trkpt>
      <trkpt lat="43.87025" lon="6.37522">
        <ele>954.73</ele>
        <time>2019-06-24T15:24:58Z</time>
      </trkpt>
      <trkpt lat="43.87026" lon="6.37536">
        <ele>954.25</ele>
        <time>2019-06-24T15:24:59Z</time>
      </trkpt>
      <trkpt lat="43.87027" lon="6.3755">
        <ele>953.28</ele>
        <time>2019-06-24T15:25:00Z</time>
      </trkpt>
      <trkpt lat="43.87031" lon="6.37564">
        <ele>952.8</ele>
        <time>2019-06-24T15:25:01Z</time>
      </trkpt>
      <trkpt lat="43.87037" lon="6.37577">
        <ele>951.36</ele>
        <time>2019-06-24T15:25:02Z</time>
      </trkpt>
      <trkpt lat="43.87043" lon="6.37588">
        <ele>950.88</ele>
        <time>2019-06-24T15:25:03Z</time>
      </trkpt>
      <trkpt lat="43.87049" lon="6.37597">
        <ele>950.4</ele>
        <time>2019-06-24T15:25:04Z</time>
      </trkpt>
      <trkpt lat="43.87052" lon="6.37607">
        <ele>948.96</ele>
        <time>2019-06-24T15:25:05Z</time>
      </trkpt>
      <trkpt lat="43.87053" lon="6.37619">
        <ele>948.96</ele>
        <time>2019-06-24T15:25:06Z</time>
      </trkpt>
      <trkpt lat="43.87052" lon="6.37631">
        <ele>949.44</ele>
        <time>2019-06-24T15:25:07Z</time>
      </trkpt>
      <trkpt lat="43.87049" lon="6.37644">
        <ele>948.96</ele>
        <time>2019-06-24T15:25:08Z</time>
      </trkpt>
      <trkpt lat="43.87036" lon="6.377">
        <ele>945.59</ele>
        <time>2019-06-24T15:25:12Z</time>
      </trkpt>
      <trkpt lat="43.87034" lon="6.37712">
        <ele>944.63</ele>
        <time>2019-06-24T15:25:13Z</time>
      </trkpt>
      <trkpt lat="43.87033" lon="6.37723">
        <ele>944.15</ele>
        <time>2019-06-24T15:25:14Z</time>
      </trkpt>
      <trkpt lat="43.87035" lon="6.37732">
        <ele>944.15</ele>
        <time>2019-06-24T15:25:15Z</time>
      </trkpt>
      <trkpt lat="43.8704" lon="6.37738">
        <ele>943.67</ele>
        <time>2019-06-24T15:25:16Z</time>
      </trkpt>
      <trkpt lat="43.87046" lon="6.37744">
        <ele>944.15</ele>
        <time>2019-06-24T15:25:17Z</time>
      </trkpt>
      <trkpt lat="43.87052" lon="6.37751">
        <ele>944.63</ele>
        <time>2019-06-24T15:25:18Z</time>
      </trkpt>
      <trkpt lat="43.87058" lon="6.37761">
        <ele>944.15</ele>
        <time>2019-06-24T15:25:19Z</time>
      </trkpt>
      <trkpt lat="43.87061" lon="6.37772">
        <ele>944.15</ele>
        <time>2019-06-24T15:25:20Z</time>
      </trkpt>
      <trkpt lat="43.87062" lon="6.37786">
        <ele>943.67</ele>
        <time>2019-06-24T15:25:21Z</time>
      </trkpt>
      <trkpt lat="43.87061" lon="6.37802">
        <ele>943.19</ele>
        <time>2019-06-24T15:25:22Z</time>
      </trkpt>
      <trkpt lat="43.87059" lon="6.37819">
        <ele>942.71</ele>
        <time>2019-06-24T15:25:23Z</time>
      </trkpt>
      <trkpt lat="43.87056" lon="6.37836">
        <ele>942.23</ele>
        <time>2019-06-24T15:25:24Z</time>
      </trkpt>
      <trkpt lat="43.87053" lon="6.37853">
        <ele>941.27</ele>
        <time>2019-06-24T15:25:25Z</time>
      </trkpt>
      <trkpt lat="43.87033" lon="6.37931">
        <ele>937.9</ele>
        <time>2019-06-24T15:25:30Z</time>
      </trkpt>
      <trkpt lat="43.87028" lon="6.37962">
        <ele>936.46</ele>
        <time>2019-06-24T15:25:32Z</time>
      </trkpt>
      <trkpt lat="43.87028" lon="6.37979">
        <ele>935.98</ele>
        <time>2019-06-24T15:25:33Z</time>
      </trkpt>
      <trkpt lat="43.87028" lon="6.37995">
        <ele>935.02</ele>
        <time>2019-06-24T15:25:34Z</time>
      </trkpt>
      <trkpt lat="43.87032" lon="6.38027">
        <ele>933.58</ele>
        <time>2019-06-24T15:25:36Z</time>
      </trkpt>
      <trkpt lat="43.87036" lon="6.38042">
        <ele>932.62</ele>
        <time>2019-06-24T15:25:37Z</time>
      </trkpt>
      <trkpt lat="43.87042" lon="6.38055">
        <ele>932.62</ele>
        <time>2019-06-24T15:25:38Z</time>
      </trkpt>
      <trkpt lat="43.87056" lon="6.38097">
        <ele>930.21</ele>
        <time>2019-06-24T15:25:41Z</time>
      </trkpt>
      <trkpt lat="43.87056" lon="6.38112">
        <ele>929.73</ele>
        <time>2019-06-24T15:25:42Z</time>
      </trkpt>
      <trkpt lat="43.87055" lon="6.38127">
        <ele>929.25</ele>
        <time>2019-06-24T15:25:43Z</time>
      </trkpt>
      <trkpt lat="43.87052" lon="6.38141">
        <ele>928.77</ele>
        <time>2019-06-24T15:25:44Z</time>
      </trkpt>
      <trkpt lat="43.87047" lon="6.38153">
        <ele>928.29</ele>
        <time>2019-06-24T15:25:45Z</time>
      </trkpt>
      <trkpt lat="43.87041" lon="6.38164">
        <ele>927.33</ele>
        <time>2019-06-24T15:25:46Z</time>
      </trkpt>
      <trkpt lat="43.87034" lon="6.38173">
        <ele>926.85</ele>
        <time>2019-06-24T15:25:47Z</time>
      </trkpt>
      <trkpt lat="43.87028" lon="6.38182">
        <ele>926.37</ele>
        <time>2019-06-24T15:25:48Z</time>
      </trkpt>
      <trkpt lat="43.87023" lon="6.38192">
        <ele>925.89</ele>
        <time>2019-06-24T15:25:49Z</time>
      </trkpt>
      <trkpt lat="43.8702" lon="6.38204">
        <ele>925.41</ele>
        <time>2019-06-24T15:25:50Z</time>
      </trkpt>
      <trkpt lat="43.87017" lon="6.38217">
        <ele>924.93</ele>
        <time>2019-06-24T15:25:51Z</time>
      </trkpt>
      <trkpt lat="43.87011" lon="6.38241">
        <ele>923.96</ele>
        <time>2019-06-24T15:25:53Z</time>
      </trkpt>
      <trkpt lat="43.87003" lon="6.38276">
        <ele>922.52</ele>
        <time>2019-06-24T15:25:56Z</time>
      </trkpt>
      <trkpt lat="43.86997" lon="6.38299">
        <ele>922.52</ele>
        <time>2019-06-24T15:25:58Z</time>
      </trkpt>
      <trkpt lat="43.86991" lon="6.3831">
        <ele>922.04</ele>
        <time>2019-06-24T15:25:59Z</time>
      </trkpt>
      <trkpt lat="43.86984" lon="6.38319">
        <ele>922.04</ele>
        <time>2019-06-24T15:26:00Z</time>
      </trkpt>
      <trkpt lat="43.86969" lon="6.38335">
        <ele>920.6</ele>
        <time>2019-06-24T15:26:02Z</time>
      </trkpt>
      <trkpt lat="43.86943" lon="6.3838">
        <ele>918.68</ele>
        <time>2019-06-24T15:26:07Z</time>
      </trkpt>
      <trkpt lat="43.8694" lon="6.38392">
        <ele>918.2</ele>
        <time>2019-06-24T15:26:08Z</time>
      </trkpt>
      <trkpt lat="43.86929" lon="6.38449">
        <ele>915.79</ele>
        <time>2019-06-24T15:26:12Z</time>
      </trkpt>
      <trkpt lat="43.86929" lon="6.38462">
        <ele>915.31</ele>
        <time>2019-06-24T15:26:13Z</time>
      </trkpt>
      <trkpt lat="43.86932" lon="6.38475">
        <ele>914.83</ele>
        <time>2019-06-24T15:26:14Z</time>
      </trkpt>
      <trkpt lat="43.86937" lon="6.38504">
        <ele>913.87</ele>
        <time>2019-06-24T15:26:16Z</time>
      </trkpt>
      <trkpt lat="43.86943" lon="6.38546">
        <ele>911.95</ele>
        <time>2019-06-24T15:26:19Z</time>
      </trkpt>
      <trkpt lat="43.86943" lon="6.38562">
        <ele>911.47</ele>
        <time>2019-06-24T15:26:20Z</time>
      </trkpt>
      <trkpt lat="43.86941" lon="6.38578">
        <ele>910.51</ele>
        <time>2019-06-24T15:26:21Z</time>
      </trkpt>
      <trkpt lat="43.86938" lon="6.38592">
        <ele>910.03</ele>
        <time>2019-06-24T15:26:22Z</time>
      </trkpt>
      <trkpt lat="43.86933" lon="6.38606">
        <ele>910.03</ele>
        <time>2019-06-24T15:26:23Z</time>
      </trkpt>
      <trkpt lat="43.86926" lon="6.38619">
        <ele>909.54</ele>
        <time>2019-06-24T15:26:24Z</time>
      </trkpt>
      <trkpt lat="43.86919" lon="6.38631">
        <ele>909.06</ele>
        <time>2019-06-24T15:26:25Z</time>
      </trkpt>
      <trkpt lat="43.86908" lon="6.38652">
        <ele>907.62</ele>
        <time>2019-06-24T15:26:27Z</time>
      </trkpt>
      <trkpt lat="43.86906" lon="6.38664">
        <ele>906.66</ele>
        <time>2019-06-24T15:26:28Z</time>
      </trkpt>
      <trkpt lat="43.86901" lon="6.3869">
        <ele>905.7</ele>
        <time>2019-06-24T15:26:30Z</time>
      </trkpt>
      <trkpt lat="43.86897" lon="6.38703">
        <ele>905.22</ele>
        <time>2019-06-24T15:26:31Z</time>
      </trkpt>
      <trkpt lat="43.86889" lon="6.38728">
        <ele>904.26</ele>
        <time>2019-06-24T15:26:33Z</time>
      </trkpt>
      <trkpt lat="43.86886" lon="6.38742">
        <ele>903.3</ele>
        <time>2019-06-24T15:26:34Z</time>
      </trkpt>
      <trkpt lat="43.86886" lon="6.38755">
        <ele>903.3</ele>
        <time>2019-06-24T15:26:35Z</time>
      </trkpt>
      <trkpt lat="43.86889" lon="6.38767">
        <ele>902.33</ele>
        <time>2019-06-24T15:26:36Z</time>
      </trkpt>
      <trkpt lat="43.86892" lon="6.3878">
        <ele>901.37</ele>
        <time>2019-06-24T15:26:37Z</time>
      </trkpt>
      <trkpt lat="43.86894" lon="6.38794">
        <ele>900.89</ele>
        <time>2019-06-24T15:26:38Z</time>
      </trkpt>
      <trkpt lat="43.86894" lon="6.38809">
        <ele>900.89</ele>
        <time>2019-06-24T15:26:39Z</time>
      </trkpt>
      <trkpt lat="43.86893" lon="6.38824">
        <ele>900.89</ele>
        <time>2019-06-24T15:26:40Z</time>
      </trkpt>
      <trkpt lat="43.86892" lon="6.38838">
        <ele>901.37</ele>
        <time>2019-06-24T15:26:41Z</time>
      </trkpt>
      <trkpt lat="43.86892" lon="6.38852">
        <ele>901.37</ele>
        <time>2019-06-24T15:26:42Z</time>
      </trkpt>
      <trkpt lat="43.86895" lon="6.38866">
        <ele>900.89</ele>
        <time>2019-06-24T15:26:43Z</time>
      </trkpt>
      <trkpt lat="43.869" lon="6.38879">
        <ele>901.85</ele>
        <time>2019-06-24T15:26:44Z</time>
      </trkpt>
      <trkpt lat="43.86921" lon="6.38935">
        <ele>903.78</ele>
        <time>2019-06-24T15:26:48Z</time>
      </trkpt>
      <trkpt lat="43.8694" lon="6.39034">
        <ele>904.26</ele>
        <time>2019-06-24T15:26:54Z</time>
      </trkpt>
      <trkpt lat="43.86952" lon="6.39135">
        <ele>900.41</ele>
        <time>2019-06-24T15:27:00Z</time>
      </trkpt>
      <trkpt lat="43.8696" lon="6.39179">
        <ele>898.01</ele>
        <time>2019-06-24T15:27:03Z</time>
      </trkpt>
      <trkpt lat="43.86963" lon="6.39192">
        <ele>897.53</ele>
        <time>2019-06-24T15:27:04Z</time>
      </trkpt>
      <trkpt lat="43.86969" lon="6.39203">
        <ele>897.53</ele>
        <time>2019-06-24T15:27:05Z</time>
      </trkpt>
      <trkpt lat="43.86976" lon="6.39213">
        <ele>897.05</ele>
        <time>2019-06-24T15:27:06Z</time>
      </trkpt>
      <trkpt lat="43.86984" lon="6.39222">
        <ele>897.05</ele>
        <time>2019-06-24T15:27:07Z</time>
      </trkpt>
      <trkpt lat="43.86995" lon="6.39229">
        <ele>897.05</ele>
        <time>2019-06-24T15:27:08Z</time>
      </trkpt>
      <trkpt lat="43.87006" lon="6.39236">
        <ele>897.05</ele>
        <time>2019-06-24T15:27:09Z</time>
      </trkpt>
      <trkpt lat="43.87064" lon="6.39282">
        <ele>896.57</ele>
        <time>2019-06-24T15:27:14Z</time>
      </trkpt>
      <trkpt lat="43.87074" lon="6.39295">
        <ele>896.57</ele>
        <time>2019-06-24T15:27:15Z</time>
      </trkpt>
      <trkpt lat="43.87138" lon="6.39388">
        <ele>894.16</ele>
        <time>2019-06-24T15:27:22Z</time>
      </trkpt>
      <trkpt lat="43.87146" lon="6.39401">
        <ele>893.2</ele>
        <time>2019-06-24T15:27:23Z</time>
      </trkpt>
      <trkpt lat="43.87155" lon="6.3941">
        <ele>893.2</ele>
        <time>2019-06-24T15:27:24Z</time>
      </trkpt>
      <trkpt lat="43.87166" lon="6.39417">
        <ele>893.2</ele>
        <time>2019-06-24T15:27:25Z</time>
      </trkpt>
      <trkpt lat="43.87178" lon="6.39424">
        <ele>893.2</ele>
        <time>2019-06-24T15:27:26Z</time>
      </trkpt>
      <trkpt lat="43.87187" lon="6.39434">
        <ele>892.72</ele>
        <time>2019-06-24T15:27:27Z</time>
      </trkpt>
      <trkpt lat="43.87195" lon="6.39447">
        <ele>893.2</ele>
        <time>2019-06-24T15:27:28Z</time>
      </trkpt>
      <trkpt lat="43.87201" lon="6.3946">
        <ele>893.2</ele>
        <time>2019-06-24T15:27:29Z</time>
      </trkpt>
      <trkpt lat="43.87205" lon="6.39474">
        <ele>893.2</ele>
        <time>2019-06-24T15:27:30Z</time>
      </trkpt>
      <trkpt lat="43.87209" lon="6.39488">
        <ele>892.24</ele>
        <time>2019-06-24T15:27:31Z</time>
      </trkpt>
      <trkpt lat="43.87211" lon="6.39502">
        <ele>894.64</ele>
        <time>2019-06-24T15:27:32Z</time>
      </trkpt>
      <trkpt lat="43.87213" lon="6.39515">
        <ele>892.24</ele>
        <time>2019-06-24T15:27:33Z</time>
      </trkpt>
      <trkpt lat="43.87218" lon="6.39528">
        <ele>891.76</ele>
        <time>2019-06-24T15:27:34Z</time>
      </trkpt>
      <trkpt lat="43.87225" lon="6.39539">
        <ele>891.76</ele>
        <time>2019-06-24T15:27:35Z</time>
      </trkpt>
      <trkpt lat="43.87239" lon="6.3956">
        <ele>891.76</ele>
        <time>2019-06-24T15:27:37Z</time>
      </trkpt>
      <trkpt lat="43.87245" lon="6.39572">
        <ele>892.24</ele>
        <time>2019-06-24T15:27:38Z</time>
      </trkpt>
      <trkpt lat="43.87251" lon="6.39584">
        <ele>888.88</ele>
        <time>2019-06-24T15:27:39Z</time>
      </trkpt>
      <trkpt lat="43.87258" lon="6.39596">
        <ele>893.68</ele>
        <time>2019-06-24T15:27:40Z</time>
      </trkpt>
      <trkpt lat="43.87298" lon="6.3965">
        <ele>892.24</ele>
        <time>2019-06-24T15:27:45Z</time>
      </trkpt>
      <trkpt lat="43.87305" lon="6.3966">
        <ele>891.76</ele>
        <time>2019-06-24T15:27:46Z</time>
      </trkpt>
      <trkpt lat="43.87311" lon="6.3967">
        <ele>892.24</ele>
        <time>2019-06-24T15:27:47Z</time>
      </trkpt>
      <trkpt lat="43.87314" lon="6.39683">
        <ele>891.76</ele>
        <time>2019-06-24T15:27:48Z</time>
      </trkpt>
      <trkpt lat="43.87315" lon="6.39695">
        <ele>891.76</ele>
        <time>2019-06-24T15:27:49Z</time>
      </trkpt>
      <trkpt lat="43.87314" lon="6.39708">
        <ele>891.76</ele>
        <time>2019-06-24T15:27:50Z</time>
      </trkpt>
      <trkpt lat="43.87314" lon="6.39721">
        <ele>891.76</ele>
        <time>2019-06-24T15:27:51Z</time>
      </trkpt>
      <trkpt lat="43.87316" lon="6.39735">
        <ele>891.76</ele>
        <time>2019-06-24T15:27:52Z</time>
      </trkpt>
      <trkpt lat="43.87321" lon="6.39748">
        <ele>891.76</ele>
        <time>2019-06-24T15:27:53Z</time>
      </trkpt>
      <trkpt lat="43.87328" lon="6.39761">
        <ele>891.76</ele>
        <time>2019-06-24T15:27:54Z</time>
      </trkpt>
      <trkpt lat="43.87336" lon="6.39773">
        <ele>891.76</ele>
        <time>2019-06-24T15:27:55Z</time>
      </trkpt>
      <trkpt lat="43.87346" lon="6.39783">
        <ele>891.28</ele>
        <time>2019-06-24T15:27:56Z</time>
      </trkpt>
      <trkpt lat="43.87355" lon="6.39795">
        <ele>891.28</ele>
        <time>2019-06-24T15:27:57Z</time>
      </trkpt>
      <trkpt lat="43.87363" lon="6.39809">
        <ele>891.28</ele>
        <time>2019-06-24T15:27:58Z</time>
      </trkpt>
      <trkpt lat="43.87391" lon="6.39864">
        <ele>889.36</ele>
        <time>2019-06-24T15:28:02Z</time>
      </trkpt>
      <trkpt lat="43.87406" lon="6.39888">
        <ele>887.43</ele>
        <time>2019-06-24T15:28:04Z</time>
      </trkpt>
      <trkpt lat="43.8741" lon="6.39901">
        <ele>886.95</ele>
        <time>2019-06-24T15:28:05Z</time>
      </trkpt>
      <trkpt lat="43.87412" lon="6.39916">
        <ele>886.47</ele>
        <time>2019-06-24T15:28:06Z</time>
      </trkpt>
      <trkpt lat="43.87414" lon="6.39932">
        <ele>885.99</ele>
        <time>2019-06-24T15:28:07Z</time>
      </trkpt>
      <trkpt lat="43.87418" lon="6.39948">
        <ele>885.51</ele>
        <time>2019-06-24T15:28:08Z</time>
      </trkpt>
      <trkpt lat="43.87422" lon="6.39965">
        <ele>885.03</ele>
        <time>2019-06-24T15:28:09Z</time>
      </trkpt>
      <trkpt lat="43.87427" lon="6.39984">
        <ele>885.51</ele>
        <time>2019-06-24T15:28:10Z</time>
      </trkpt>
      <trkpt lat="43.8743" lon="6.40003">
        <ele>885.03</ele>
        <time>2019-06-24T15:28:11Z</time>
      </trkpt>
      <trkpt lat="43.87432" lon="6.40021">
        <ele>883.11</ele>
        <time>2019-06-24T15:28:12Z</time>
      </trkpt>
      <trkpt lat="43.87437" lon="6.40037">
        <ele>881.67</ele>
        <time>2019-06-24T15:28:13Z</time>
      </trkpt>
      <trkpt lat="43.87444" lon="6.4005">
        <ele>881.19</ele>
        <time>2019-06-24T15:28:14Z</time>
      </trkpt>
      <trkpt lat="43.87452" lon="6.40063">
        <ele>880.71</ele>
        <time>2019-06-24T15:28:15Z</time>
      </trkpt>
      <trkpt lat="43.87461" lon="6.40075">
        <ele>881.19</ele>
        <time>2019-06-24T15:28:16Z</time>
      </trkpt>
      <trkpt lat="43.87472" lon="6.40085">
        <ele>881.19</ele>
        <time>2019-06-24T15:28:17Z</time>
      </trkpt>
      <trkpt lat="43.87507" lon="6.40107">
        <ele>881.67</ele>
        <time>2019-06-24T15:28:20Z</time>
      </trkpt>
      <trkpt lat="43.87516" lon="6.40118">
        <ele>881.67</ele>
        <time>2019-06-24T15:28:21Z</time>
      </trkpt>
      <trkpt lat="43.87524" lon="6.40132">
        <ele>882.63</ele>
        <time>2019-06-24T15:28:22Z</time>
      </trkpt>
      <trkpt lat="43.87531" lon="6.40147">
        <ele>883.59</ele>
        <time>2019-06-24T15:28:23Z</time>
      </trkpt>
      <trkpt lat="43.87538" lon="6.40163">
        <ele>883.11</ele>
        <time>2019-06-24T15:28:24Z</time>
      </trkpt>
      <trkpt lat="43.87543" lon="6.40179">
        <ele>883.11</ele>
        <time>2019-06-24T15:28:25Z</time>
      </trkpt>
      <trkpt lat="43.87547" lon="6.40196">
        <ele>883.59</ele>
        <time>2019-06-24T15:28:26Z</time>
      </trkpt>
      <trkpt lat="43.8755" lon="6.40212">
        <ele>883.11</ele>
        <time>2019-06-24T15:28:27Z</time>
      </trkpt>
      <trkpt lat="43.87552" lon="6.40228">
        <ele>882.63</ele>
        <time>2019-06-24T15:28:28Z</time>
      </trkpt>
      <trkpt lat="43.87561" lon="6.40285">
        <ele>881.67</ele>
        <time>2019-06-24T15:28:32Z</time>
      </trkpt>
      <trkpt lat="43.87566" lon="6.40296">
        <ele>880.71</ele>
        <time>2019-06-24T15:28:33Z</time>
      </trkpt>
      <trkpt lat="43.87573" lon="6.40304">
        <ele>880.71</ele>
        <time>2019-06-24T15:28:34Z</time>
      </trkpt>
      <trkpt lat="43.87582" lon="6.40311">
        <ele>880.22</ele>
        <time>2019-06-24T15:28:35Z</time>
      </trkpt>
      <trkpt lat="43.87593" lon="6.40316">
        <ele>880.22</ele>
        <time>2019-06-24T15:28:36Z</time>
      </trkpt>
      <trkpt lat="43.87645" lon="6.4035">
        <ele>877.82</ele>
        <time>2019-06-24T15:28:41Z</time>
      </trkpt>
      <trkpt lat="43.87651" lon="6.40359">
        <ele>876.86</ele>
        <time>2019-06-24T15:28:42Z</time>
      </trkpt>
      <trkpt lat="43.87654" lon="6.40369">
        <ele>876.38</ele>
        <time>2019-06-24T15:28:43Z</time>
      </trkpt>
      <trkpt lat="43.87654" lon="6.4038">
        <ele>876.38</ele>
        <time>2019-06-24T15:28:44Z</time>
      </trkpt>
      <trkpt lat="43.87651" lon="6.40393">
        <ele>876.38</ele>
        <time>2019-06-24T15:28:45Z</time>
      </trkpt>
      <trkpt lat="43.87647" lon="6.40406">
        <ele>877.34</ele>
        <time>2019-06-24T15:28:46Z</time>
      </trkpt>
      <trkpt lat="43.87644" lon="6.40421">
        <ele>877.34</ele>
        <time>2019-06-24T15:28:47Z</time>
      </trkpt>
      <trkpt lat="43.87641" lon="6.40436">
        <ele>876.86</ele>
        <time>2019-06-24T15:28:48Z</time>
      </trkpt>
      <trkpt lat="43.87638" lon="6.40469">
        <ele>875.9</ele>
        <time>2019-06-24T15:28:50Z</time>
      </trkpt>
      <trkpt lat="43.87639" lon="6.40529">
        <ele>874.94</ele>
        <time>2019-06-24T15:28:54Z</time>
      </trkpt>
      <trkpt lat="43.87642" lon="6.40543">
        <ele>875.42</ele>
        <time>2019-06-24T15:28:55Z</time>
      </trkpt>
      <trkpt lat="43.87644" lon="6.40556">
        <ele>873.98</ele>
        <time>2019-06-24T15:28:56Z</time>
      </trkpt>
      <trkpt lat="43.87645" lon="6.40569">
        <ele>873.98</ele>
        <time>2019-06-24T15:28:57Z</time>
      </trkpt>
      <trkpt lat="43.87644" lon="6.40581">
        <ele>873.5</ele>
        <time>2019-06-24T15:28:58Z</time>
      </trkpt>
      <trkpt lat="43.87644" lon="6.40604">
        <ele>873.01</ele>
        <time>2019-06-24T15:29:00Z</time>
      </trkpt>
      <trkpt lat="43.87645" lon="6.40614">
        <ele>872.53</ele>
        <time>2019-06-24T15:29:01Z</time>
      </trkpt>
      <trkpt lat="43.87661" lon="6.40721">
        <ele>870.61</ele>
        <time>2019-06-24T15:29:09Z</time>
      </trkpt>
      <trkpt lat="43.8767" lon="6.40752">
        <ele>870.61</ele>
        <time>2019-06-24T15:29:11Z</time>
      </trkpt>
      <trkpt lat="43.87672" lon="6.4077">
        <ele>870.13</ele>
        <time>2019-06-24T15:29:12Z</time>
      </trkpt>
      <trkpt lat="43.87672" lon="6.40788">
        <ele>870.13</ele>
        <time>2019-06-24T15:29:13Z</time>
      </trkpt>
      <trkpt lat="43.87671" lon="6.40857">
        <ele>867.25</ele>
        <time>2019-06-24T15:29:17Z</time>
      </trkpt>
      <trkpt lat="43.87672" lon="6.40873">
        <ele>866.29</ele>
        <time>2019-06-24T15:29:18Z</time>
      </trkpt>
      <trkpt lat="43.87675" lon="6.40888">
        <ele>865.8</ele>
        <time>2019-06-24T15:29:19Z</time>
      </trkpt>
      <trkpt lat="43.87681" lon="6.40903">
        <ele>865.8</ele>
        <time>2019-06-24T15:29:20Z</time>
      </trkpt>
      <trkpt lat="43.87689" lon="6.40918">
        <ele>865.32</ele>
        <time>2019-06-24T15:29:21Z</time>
      </trkpt>
      <trkpt lat="43.87697" lon="6.40933">
        <ele>865.32</ele>
        <time>2019-06-24T15:29:22Z</time>
      </trkpt>
      <trkpt lat="43.87753" lon="6.41048">
        <ele>866.29</ele>
        <time>2019-06-24T15:29:29Z</time>
      </trkpt>
      <trkpt lat="43.87757" lon="6.41065">
        <ele>865.8</ele>
        <time>2019-06-24T15:29:30Z</time>
      </trkpt>
      <trkpt lat="43.87761" lon="6.41083">
        <ele>865.8</ele>
        <time>2019-06-24T15:29:31Z</time>
      </trkpt>
      <trkpt lat="43.87763" lon="6.41101">
        <ele>865.8</ele>
        <time>2019-06-24T15:29:32Z</time>
      </trkpt>
      <trkpt lat="43.87763" lon="6.41119">
        <ele>864.84</ele>
        <time>2019-06-24T15:29:33Z</time>
      </trkpt>
      <trkpt lat="43.87763" lon="6.41134">
        <ele>863.88</ele>
        <time>2019-06-24T15:29:34Z</time>
      </trkpt>
      <trkpt lat="43.87765" lon="6.41145">
        <ele>863.88</ele>
        <time>2019-06-24T15:29:35Z</time>
      </trkpt>
      <trkpt lat="43.87771" lon="6.41152">
        <ele>863.4</ele>
        <time>2019-06-24T15:29:36Z</time>
      </trkpt>
      <trkpt lat="43.87778" lon="6.41157">
        <ele>863.4</ele>
        <time>2019-06-24T15:29:37Z</time>
      </trkpt>
      <trkpt lat="43.87787" lon="6.41162">
        <ele>863.4</ele>
        <time>2019-06-24T15:29:38Z</time>
      </trkpt>
      <trkpt lat="43.8782" lon="6.41176">
        <ele>863.4</ele>
        <time>2019-06-24T15:29:41Z</time>
      </trkpt>
      <trkpt lat="43.87832" lon="6.41178">
        <ele>862.44</ele>
        <time>2019-06-24T15:29:42Z</time>
      </trkpt>
      <trkpt lat="43.87843" lon="6.4118">
        <ele>861.96</ele>
        <time>2019-06-24T15:29:43Z</time>
      </trkpt>
      <trkpt lat="43.87855" lon="6.41185">
        <ele>861.48</ele>
        <time>2019-06-24T15:29:44Z</time>
      </trkpt>
      <trkpt lat="43.87865" lon="6.41193">
        <ele>861</ele>
        <time>2019-06-24T15:29:45Z</time>
      </trkpt>
      <trkpt lat="43.87873" lon="6.41204">
        <ele>861</ele>
        <time>2019-06-24T15:29:46Z</time>
      </trkpt>
      <trkpt lat="43.8788" lon="6.41216">
        <ele>861</ele>
        <time>2019-06-24T15:29:47Z</time>
      </trkpt>
      <trkpt lat="43.87885" lon="6.41228">
        <ele>861</ele>
        <time>2019-06-24T15:29:48Z</time>
      </trkpt>
      <trkpt lat="43.87888" lon="6.41241">
        <ele>860.52</ele>
        <time>2019-06-24T15:29:49Z</time>
      </trkpt>
      <trkpt lat="43.8789" lon="6.41255">
        <ele>861</ele>
        <time>2019-06-24T15:29:50Z</time>
      </trkpt>
      <trkpt lat="43.87891" lon="6.41271">
        <ele>861</ele>
        <time>2019-06-24T15:29:51Z</time>
      </trkpt>
      <trkpt lat="43.87891" lon="6.41287">
        <ele>861</ele>
        <time>2019-06-24T15:29:52Z</time>
      </trkpt>
      <trkpt lat="43.8789" lon="6.41303">
        <ele>860.04</ele>
        <time>2019-06-24T15:29:53Z</time>
      </trkpt>
      <trkpt lat="43.87888" lon="6.4132">
        <ele>860.04</ele>
        <time>2019-06-24T15:29:54Z</time>
      </trkpt>
      <trkpt lat="43.87884" lon="6.41336">
        <ele>859.56</ele>
        <time>2019-06-24T15:29:55Z</time>
      </trkpt>
      <trkpt lat="43.8788" lon="6.41351">
        <ele>859.08</ele>
        <time>2019-06-24T15:29:56Z</time>
      </trkpt>
      <trkpt lat="43.87875" lon="6.41365">
        <ele>859.08</ele>
        <time>2019-06-24T15:29:57Z</time>
      </trkpt>
      <trkpt lat="43.8787" lon="6.41377">
        <ele>859.08</ele>
        <time>2019-06-24T15:29:58Z</time>
      </trkpt>
      <trkpt lat="43.87868" lon="6.41388">
        <ele>858.11</ele>
        <time>2019-06-24T15:29:59Z</time>
      </trkpt>
      <trkpt lat="43.87869" lon="6.41398">
        <ele>857.63</ele>
        <time>2019-06-24T15:30:00Z</time>
      </trkpt>
      <trkpt lat="43.87873" lon="6.41405">
        <ele>857.15</ele>
        <time>2019-06-24T15:30:01Z</time>
      </trkpt>
      <trkpt lat="43.8788" lon="6.41409">
        <ele>856.67</ele>
        <time>2019-06-24T15:30:02Z</time>
      </trkpt>
      <trkpt lat="43.87888" lon="6.41409">
        <ele>857.15</ele>
        <time>2019-06-24T15:30:03Z</time>
      </trkpt>
      <trkpt lat="43.87897" lon="6.41406">
        <ele>856.67</ele>
        <time>2019-06-24T15:30:04Z</time>
      </trkpt>
      <trkpt lat="43.87907" lon="6.41401">
        <ele>856.19</ele>
        <time>2019-06-24T15:30:05Z</time>
      </trkpt>
      <trkpt lat="43.87927" lon="6.41389">
        <ele>856.67</ele>
        <time>2019-06-24T15:30:07Z</time>
      </trkpt>
      <trkpt lat="43.87938" lon="6.4138">
        <ele>856.67</ele>
        <time>2019-06-24T15:30:08Z</time>
      </trkpt>
      <trkpt lat="43.87947" lon="6.41369">
        <ele>856.67</ele>
        <time>2019-06-24T15:30:09Z</time>
      </trkpt>
      <trkpt lat="43.87956" lon="6.41357">
        <ele>856.19</ele>
        <time>2019-06-24T15:30:10Z</time>
      </trkpt>
      <trkpt lat="43.87965" lon="6.41345">
        <ele>856.19</ele>
        <time>2019-06-24T15:30:11Z</time>
      </trkpt>
      <trkpt lat="43.87973" lon="6.41332">
        <ele>856.19</ele>
        <time>2019-06-24T15:30:12Z</time>
      </trkpt>
      <trkpt lat="43.87983" lon="6.41322">
        <ele>856.67</ele>
        <time>2019-06-24T15:30:13Z</time>
      </trkpt>
      <trkpt lat="43.87994" lon="6.41313">
        <ele>857.15</ele>
        <time>2019-06-24T15:30:14Z</time>
      </trkpt>
      <trkpt lat="43.88005" lon="6.41308">
        <ele>857.63</ele>
        <time>2019-06-24T15:30:15Z</time>
      </trkpt>
      <trkpt lat="43.88017" lon="6.41306">
        <ele>857.15</ele>
        <time>2019-06-24T15:30:16Z</time>
      </trkpt>
      <trkpt lat="43.8803" lon="6.41306">
        <ele>857.15</ele>
        <time>2019-06-24T15:30:17Z</time>
      </trkpt>
      <trkpt lat="43.88042" lon="6.4131">
        <ele>857.63</ele>
        <time>2019-06-24T15:30:18Z</time>
      </trkpt>
      <trkpt lat="43.88055" lon="6.41315">
        <ele>858.11</ele>
        <time>2019-06-24T15:30:19Z</time>
      </trkpt>
      <trkpt lat="43.88066" lon="6.41321">
        <ele>857.15</ele>
        <time>2019-06-24T15:30:20Z</time>
      </trkpt>
      <trkpt lat="43.88077" lon="6.41328">
        <ele>856.67</ele>
        <time>2019-06-24T15:30:21Z</time>
      </trkpt>
      <trkpt lat="43.88086" lon="6.41337">
        <ele>856.67</ele>
        <time>2019-06-24T15:30:22Z</time>
      </trkpt>
      <trkpt lat="43.88094" lon="6.41349">
        <ele>856.19</ele>
        <time>2019-06-24T15:30:23Z</time>
      </trkpt>
      <trkpt lat="43.881" lon="6.41363">
        <ele>856.67</ele>
        <time>2019-06-24T15:30:24Z</time>
      </trkpt>
      <trkpt lat="43.88106" lon="6.41378">
        <ele>856.67</ele>
        <time>2019-06-24T15:30:25Z</time>
      </trkpt>
      <trkpt lat="43.88111" lon="6.41394">
        <ele>857.15</ele>
        <time>2019-06-24T15:30:26Z</time>
      </trkpt>
      <trkpt lat="43.88116" lon="6.41411">
        <ele>856.19</ele>
        <time>2019-06-24T15:30:27Z</time>
      </trkpt>
      <trkpt lat="43.88121" lon="6.41427">
        <ele>856.19</ele>
        <time>2019-06-24T15:30:28Z</time>
      </trkpt>
      <trkpt lat="43.88128" lon="6.41441">
        <ele>855.23</ele>
        <time>2019-06-24T15:30:29Z</time>
      </trkpt>
      <trkpt lat="43.88137" lon="6.41451">
        <ele>855.23</ele>
        <time>2019-06-24T15:30:30Z</time>
      </trkpt>
      <trkpt lat="43.88148" lon="6.41459">
        <ele>854.27</ele>
        <time>2019-06-24T15:30:31Z</time>
      </trkpt>
      <trkpt lat="43.8816" lon="6.41463">
        <ele>854.75</ele>
        <time>2019-06-24T15:30:32Z</time>
      </trkpt>
      <trkpt lat="43.88172" lon="6.41465">
        <ele>854.75</ele>
        <time>2019-06-24T15:30:33Z</time>
      </trkpt>
      <trkpt lat="43.88184" lon="6.41466">
        <ele>854.75</ele>
        <time>2019-06-24T15:30:34Z</time>
      </trkpt>
      <trkpt lat="43.88197" lon="6.41468">
        <ele>854.75</ele>
        <time>2019-06-24T15:30:35Z</time>
      </trkpt>
      <trkpt lat="43.8821" lon="6.41473">
        <ele>855.71</ele>
        <time>2019-06-24T15:30:36Z</time>
      </trkpt>
      <trkpt lat="43.88238" lon="6.41482">
        <ele>854.75</ele>
        <time>2019-06-24T15:30:38Z</time>
      </trkpt>
      <trkpt lat="43.88253" lon="6.41485">
        <ele>855.23</ele>
        <time>2019-06-24T15:30:39Z</time>
      </trkpt>
      <trkpt lat="43.88268" lon="6.41485">
        <ele>855.23</ele>
        <time>2019-06-24T15:30:40Z</time>
      </trkpt>
      <trkpt lat="43.88283" lon="6.41483">
        <ele>854.27</ele>
        <time>2019-06-24T15:30:41Z</time>
      </trkpt>
      <trkpt lat="43.88297" lon="6.41479">
        <ele>854.75</ele>
        <time>2019-06-24T15:30:42Z</time>
      </trkpt>
      <trkpt lat="43.8831" lon="6.41472">
        <ele>854.27</ele>
        <time>2019-06-24T15:30:43Z</time>
      </trkpt>
      <trkpt lat="43.88323" lon="6.41462">
        <ele>853.31</ele>
        <time>2019-06-24T15:30:44Z</time>
      </trkpt>
      <trkpt lat="43.88335" lon="6.4145">
        <ele>853.79</ele>
        <time>2019-06-24T15:30:45Z</time>
      </trkpt>
      <trkpt lat="43.88348" lon="6.41439">
        <ele>853.79</ele>
        <time>2019-06-24T15:30:46Z</time>
      </trkpt>
      <trkpt lat="43.88362" lon="6.41429">
        <ele>853.31</ele>
        <time>2019-06-24T15:30:47Z</time>
      </trkpt>
      <trkpt lat="43.88375" lon="6.41423">
        <ele>853.31</ele>
        <time>2019-06-24T15:30:48Z</time>
      </trkpt>
      <trkpt lat="43.88389" lon="6.41419">
        <ele>853.31</ele>
        <time>2019-06-24T15:30:49Z</time>
      </trkpt>
      <trkpt lat="43.88402" lon="6.4142">
        <ele>853.31</ele>
        <time>2019-06-24T15:30:50Z</time>
      </trkpt>
      <trkpt lat="43.88416" lon="6.41423">
        <ele>854.27</ele>
        <time>2019-06-24T15:30:51Z</time>
      </trkpt>
      <trkpt lat="43.88441" lon="6.41433">
        <ele>852.35</ele>
        <time>2019-06-24T15:30:53Z</time>
      </trkpt>
      <trkpt lat="43.88452" lon="6.41444">
        <ele>851.87</ele>
        <time>2019-06-24T15:30:54Z</time>
      </trkpt>
      <trkpt lat="43.88462" lon="6.41457">
        <ele>851.38</ele>
        <time>2019-06-24T15:30:55Z</time>
      </trkpt>
      <trkpt lat="43.88471" lon="6.4147">
        <ele>851.38</ele>
        <time>2019-06-24T15:30:56Z</time>
      </trkpt>
      <trkpt lat="43.88482" lon="6.41483">
        <ele>849.94</ele>
        <time>2019-06-24T15:30:57Z</time>
      </trkpt>
      <trkpt lat="43.88493" lon="6.41494">
        <ele>850.9</ele>
        <time>2019-06-24T15:30:58Z</time>
      </trkpt>
      <trkpt lat="43.88504" lon="6.41503">
        <ele>850.9</ele>
        <time>2019-06-24T15:30:59Z</time>
      </trkpt>
      <trkpt lat="43.88515" lon="6.41511">
        <ele>850.9</ele>
        <time>2019-06-24T15:31:00Z</time>
      </trkpt>
      <trkpt lat="43.88525" lon="6.4152">
        <ele>849.94</ele>
        <time>2019-06-24T15:31:01Z</time>
      </trkpt>
      <trkpt lat="43.88534" lon="6.41531">
        <ele>849.94</ele>
        <time>2019-06-24T15:31:02Z</time>
      </trkpt>
      <trkpt lat="43.88542" lon="6.41543">
        <ele>849.46</ele>
        <time>2019-06-24T15:31:03Z</time>
      </trkpt>
      <trkpt lat="43.88551" lon="6.41556">
        <ele>849.94</ele>
        <time>2019-06-24T15:31:04Z</time>
      </trkpt>
      <trkpt lat="43.88562" lon="6.41569">
        <ele>848.98</ele>
        <time>2019-06-24T15:31:05Z</time>
      </trkpt>
      <trkpt lat="43.88573" lon="6.41581">
        <ele>848.98</ele>
        <time>2019-06-24T15:31:06Z</time>
      </trkpt>
      <trkpt lat="43.88596" lon="6.41608">
        <ele>847.54</ele>
        <time>2019-06-24T15:31:08Z</time>
      </trkpt>
      <trkpt lat="43.88605" lon="6.41622">
        <ele>847.54</ele>
        <time>2019-06-24T15:31:09Z</time>
      </trkpt>
      <trkpt lat="43.88613" lon="6.41635">
        <ele>847.54</ele>
        <time>2019-06-24T15:31:10Z</time>
      </trkpt>
      <trkpt lat="43.88622" lon="6.41645">
        <ele>847.06</ele>
        <time>2019-06-24T15:31:11Z</time>
      </trkpt>
      <trkpt lat="43.88632" lon="6.41653">
        <ele>846.58</ele>
        <time>2019-06-24T15:31:12Z</time>
      </trkpt>
      <trkpt lat="43.88643" lon="6.4166">
        <ele>846.1</ele>
        <time>2019-06-24T15:31:13Z</time>
      </trkpt>
      <trkpt lat="43.88654" lon="6.41665">
        <ele>846.1</ele>
        <time>2019-06-24T15:31:14Z</time>
      </trkpt>
      <trkpt lat="43.88666" lon="6.41668">
        <ele>845.62</ele>
        <time>2019-06-24T15:31:15Z</time>
      </trkpt>
      <trkpt lat="43.88678" lon="6.41667">
        <ele>845.62</ele>
        <time>2019-06-24T15:31:16Z</time>
      </trkpt>
      <trkpt lat="43.8869" lon="6.41664">
        <ele>844.66</ele>
        <time>2019-06-24T15:31:17Z</time>
      </trkpt>
      <trkpt lat="43.88711" lon="6.4166">
        <ele>844.18</ele>
        <time>2019-06-24T15:31:19Z</time>
      </trkpt>
      <trkpt lat="43.88721" lon="6.4166">
        <ele>843.21</ele>
        <time>2019-06-24T15:31:20Z</time>
      </trkpt>
      <trkpt lat="43.88729" lon="6.41663">
        <ele>842.73</ele>
        <time>2019-06-24T15:31:21Z</time>
      </trkpt>
      <trkpt lat="43.88736" lon="6.41668">
        <ele>842.73</ele>
        <time>2019-06-24T15:31:22Z</time>
      </trkpt>
      <trkpt lat="43.88741" lon="6.41677">
        <ele>843.21</ele>
        <time>2019-06-24T15:31:23Z</time>
      </trkpt>
      <trkpt lat="43.88746" lon="6.41687">
        <ele>842.73</ele>
        <time>2019-06-24T15:31:24Z</time>
      </trkpt>
      <trkpt lat="43.8875" lon="6.41696">
        <ele>842.73</ele>
        <time>2019-06-24T15:31:25Z</time>
      </trkpt>
      <trkpt lat="43.88753" lon="6.41704">
        <ele>842.73</ele>
        <time>2019-06-24T15:31:26Z</time>
      </trkpt>
      <trkpt lat="43.88757" lon="6.41708">
        <ele>842.73</ele>
        <time>2019-06-24T15:31:27Z</time>
      </trkpt>
      <trkpt lat="43.8876" lon="6.41711">
        <ele>842.25</ele>
        <time>2019-06-24T15:31:28Z</time>
      </trkpt>
      <trkpt lat="43.88764" lon="6.41712">
        <ele>842.73</ele>
        <time>2019-06-24T15:31:29Z</time>
      </trkpt>
      <trkpt lat="43.88765" lon="6.41712">
        <ele>842.25</ele>
        <time>2019-06-24T15:31:30Z</time>
      </trkpt>
      <trkpt lat="43.88767" lon="6.41712">
        <ele>842.25</ele>
        <time>2019-06-24T15:31:31Z</time>
      </trkpt>
      <trkpt lat="43.88776" lon="6.41718">
        <ele>842.25</ele>
        <time>2019-06-24T15:31:40Z</time>
      </trkpt>
      <trkpt lat="43.8878" lon="6.41722">
        <ele>842.73</ele>
        <time>2019-06-24T15:31:41Z</time>
      </trkpt>
      <trkpt lat="43.88785" lon="6.41728">
        <ele>842.73</ele>
        <time>2019-06-24T15:31:42Z</time>
      </trkpt>
      <trkpt lat="43.88791" lon="6.41737">
        <ele>842.73</ele>
        <time>2019-06-24T15:31:43Z</time>
      </trkpt>
      <trkpt lat="43.88801" lon="6.41759">
        <ele>844.18</ele>
        <time>2019-06-24T15:31:45Z</time>
      </trkpt>
      <trkpt lat="43.88812" lon="6.41785">
        <ele>844.66</ele>
        <time>2019-06-24T15:31:47Z</time>
      </trkpt>
      <trkpt lat="43.8882" lon="6.41798">
        <ele>844.66</ele>
        <time>2019-06-24T15:31:48Z</time>
      </trkpt>
      <trkpt lat="43.88889" lon="6.41891">
        <ele>843.21</ele>
        <time>2019-06-24T15:31:56Z</time>
      </trkpt>
      <trkpt lat="43.88898" lon="6.41896">
        <ele>843.21</ele>
        <time>2019-06-24T15:31:57Z</time>
      </trkpt>
      <trkpt lat="43.88908" lon="6.41899">
        <ele>843.21</ele>
        <time>2019-06-24T15:31:58Z</time>
      </trkpt>
      <trkpt lat="43.88918" lon="6.41902">
        <ele>842.73</ele>
        <time>2019-06-24T15:31:59Z</time>
      </trkpt>
      <trkpt lat="43.88927" lon="6.41908">
        <ele>842.73</ele>
        <time>2019-06-24T15:32:00Z</time>
      </trkpt>
      <trkpt lat="43.88936" lon="6.41915">
        <ele>843.21</ele>
        <time>2019-06-24T15:32:01Z</time>
      </trkpt>
      <trkpt lat="43.88944" lon="6.41924">
        <ele>843.21</ele>
        <time>2019-06-24T15:32:02Z</time>
      </trkpt>
      <trkpt lat="43.8895" lon="6.41934">
        <ele>843.21</ele>
        <time>2019-06-24T15:32:03Z</time>
      </trkpt>
      <trkpt lat="43.88953" lon="6.41946">
        <ele>842.25</ele>
        <time>2019-06-24T15:32:04Z</time>
      </trkpt>
      <trkpt lat="43.88952" lon="6.4196">
        <ele>842.73</ele>
        <time>2019-06-24T15:32:05Z</time>
      </trkpt>
      <trkpt lat="43.8895" lon="6.41973">
        <ele>842.73</ele>
        <time>2019-06-24T15:32:06Z</time>
      </trkpt>
      <trkpt lat="43.8895" lon="6.41987">
        <ele>842.25</ele>
        <time>2019-06-24T15:32:07Z</time>
      </trkpt>
      <trkpt lat="43.88951" lon="6.42">
        <ele>841.77</ele>
        <time>2019-06-24T15:32:08Z</time>
      </trkpt>
      <trkpt lat="43.88956" lon="6.42014">
        <ele>842.25</ele>
        <time>2019-06-24T15:32:09Z</time>
      </trkpt>
      <trkpt lat="43.88963" lon="6.42027">
        <ele>842.25</ele>
        <time>2019-06-24T15:32:10Z</time>
      </trkpt>
      <trkpt lat="43.88971" lon="6.4204">
        <ele>842.73</ele>
        <time>2019-06-24T15:32:11Z</time>
      </trkpt>
      <trkpt lat="43.89064" lon="6.4217">
        <ele>842.25</ele>
        <time>2019-06-24T15:32:21Z</time>
      </trkpt>
      <trkpt lat="43.89071" lon="6.42184">
        <ele>841.77</ele>
        <time>2019-06-24T15:32:22Z</time>
      </trkpt>
      <trkpt lat="43.89077" lon="6.42199">
        <ele>840.81</ele>
        <time>2019-06-24T15:32:23Z</time>
      </trkpt>
      <trkpt lat="43.89082" lon="6.42215">
        <ele>839.85</ele>
        <time>2019-06-24T15:32:24Z</time>
      </trkpt>
      <trkpt lat="43.89086" lon="6.42231">
        <ele>838.41</ele>
        <time>2019-06-24T15:32:25Z</time>
      </trkpt>
      <trkpt lat="43.8909" lon="6.42244">
        <ele>837.45</ele>
        <time>2019-06-24T15:32:26Z</time>
      </trkpt>
      <trkpt lat="43.89097" lon="6.42254">
        <ele>836.48</ele>
        <time>2019-06-24T15:32:27Z</time>
      </trkpt>
      <trkpt lat="43.89106" lon="6.42261">
        <ele>836</ele>
        <time>2019-06-24T15:32:28Z</time>
      </trkpt>
      <trkpt lat="43.89116" lon="6.42267">
        <ele>835.04</ele>
        <time>2019-06-24T15:32:29Z</time>
      </trkpt>
      <trkpt lat="43.89126" lon="6.4227">
        <ele>834.08</ele>
        <time>2019-06-24T15:32:30Z</time>
      </trkpt>
      <trkpt lat="43.89136" lon="6.42271">
        <ele>833.6</ele>
        <time>2019-06-24T15:32:31Z</time>
      </trkpt>
      <trkpt lat="43.89147" lon="6.42268">
        <ele>833.6</ele>
        <time>2019-06-24T15:32:32Z</time>
      </trkpt>
      <trkpt lat="43.89158" lon="6.42263">
        <ele>834.08</ele>
        <time>2019-06-24T15:32:33Z</time>
      </trkpt>
      <trkpt lat="43.89168" lon="6.42256">
        <ele>834.08</ele>
        <time>2019-06-24T15:32:34Z</time>
      </trkpt>
      <trkpt lat="43.89179" lon="6.42249">
        <ele>834.56</ele>
        <time>2019-06-24T15:32:35Z</time>
      </trkpt>
      <trkpt lat="43.89188" lon="6.42243">
        <ele>834.08</ele>
        <time>2019-06-24T15:32:36Z</time>
      </trkpt>
      <trkpt lat="43.89197" lon="6.42239">
        <ele>834.08</ele>
        <time>2019-06-24T15:32:37Z</time>
      </trkpt>
      <trkpt lat="43.89204" lon="6.42239">
        <ele>834.08</ele>
        <time>2019-06-24T15:32:38Z</time>
      </trkpt>
      <trkpt lat="43.8921" lon="6.4224">
        <ele>834.56</ele>
        <time>2019-06-24T15:32:39Z</time>
      </trkpt>
      <trkpt lat="43.89215" lon="6.42243">
        <ele>835.04</ele>
        <time>2019-06-24T15:32:40Z</time>
      </trkpt>
      <trkpt lat="43.8922" lon="6.42246">
        <ele>835.04</ele>
        <time>2019-06-24T15:32:41Z</time>
      </trkpt>
      <trkpt lat="43.89233" lon="6.42257">
        <ele>833.12</ele>
        <time>2019-06-24T15:32:50Z</time>
      </trkpt>
      <trkpt lat="43.89233" lon="6.42258">
        <ele>833.12</ele>
        <time>2019-06-24T15:32:57Z</time>
      </trkpt>
      <trkpt lat="43.89235" lon="6.42259">
        <ele>833.12</ele>
        <time>2019-06-24T15:32:58Z</time>
      </trkpt>
      <trkpt lat="43.89237" lon="6.42258">
        <ele>833.12</ele>
        <time>2019-06-24T15:32:59Z</time>
      </trkpt>
      <trkpt lat="43.8924" lon="6.42253">
        <ele>833.12</ele>
        <time>2019-06-24T15:33:00Z</time>
      </trkpt>
      <trkpt lat="43.89241" lon="6.42247">
        <ele>833.12</ele>
        <time>2019-06-24T15:33:01Z</time>
      </trkpt>
      <trkpt lat="43.89242" lon="6.4224">
        <ele>833.12</ele>
        <time>2019-06-24T15:33:02Z</time>
      </trkpt>
      <trkpt lat="43.89241" lon="6.42236">
        <ele>833.12</ele>
        <time>2019-06-24T15:33:03Z</time>
      </trkpt>
      <trkpt lat="43.89241" lon="6.42232">
        <ele>832.64</ele>
        <time>2019-06-24T15:33:04Z</time>
      </trkpt>
      <trkpt lat="43.89241" lon="6.4223">
        <ele>832.16</ele>
        <time>2019-06-24T15:33:05Z</time>
      </trkpt>
      <trkpt lat="43.89244" lon="6.42227">
        <ele>832.64</ele>
        <time>2019-06-24T15:33:18Z</time>
      </trkpt>
      <trkpt lat="43.89243" lon="6.42226">
        <ele>831.68</ele>
        <time>2019-06-24T15:33:59Z</time>
      </trkpt>
      <trkpt lat="43.89241" lon="6.42229">
        <ele>831.68</ele>
        <time>2019-06-24T15:34:44Z</time>
      </trkpt>
      <trkpt lat="43.89243" lon="6.42227">
        <ele>831.68</ele>
        <time>2019-06-24T15:35:22Z</time>
      </trkpt>
      <trkpt lat="43.89245" lon="6.42227">
        <ele>831.2</ele>
        <time>2019-06-24T15:36:00Z</time>
      </trkpt>
      <trkpt lat="43.89275" lon="6.42147">
        <ele>815.67578125</ele>
      </trkpt>
      <trkpt lat="43.89291" lon="6.42122">
        <ele>814.0703125</ele>
      </trkpt>
      <trkpt lat="43.89312" lon="6.42111">
        <ele>813.73046875</ele>
      </trkpt>
      <trkpt lat="43.89607" lon="6.42087">
        <ele>817.25</ele>
      </trkpt>
      <trkpt lat="43.89885" lon="6.41999">
        <ele>818.984375</ele>
      </trkpt>
      <trkpt lat="43.89964" lon="6.41963">
        <ele>815.859375</ele>
      </trkpt>
      <trkpt lat="43.90158" lon="6.41855">
        <ele>815.00390625</ele>
      </trkpt>
      <trkpt lat="43.90283" lon="6.41789">
        <ele>818.34765625</ele>
      </trkpt>
      <trkpt lat="43.90424" lon="6.4176">
        <ele>819.140625</ele>
      </trkpt>
      <trkpt lat="43.90477" lon="6.4173">
        <ele>812.59765625</ele>
      </trkpt>
      <trkpt lat="43.90651" lon="6.41709">
        <ele>808.1640625</ele>
      </trkpt>
      <trkpt lat="43.90766" lon="6.41709">
        <ele>811.70703125</ele>
      </trkpt>
      <trkpt lat="43.90851" lon="6.41652">
        <ele>810.63671875</ele>
      </trkpt>
      <trkpt lat="43.90908" lon="6.41624">
        <ele>811.31640625</ele>
      </trkpt>
      <trkpt lat="43.9099" lon="6.41499">
        <ele>812.96875</ele>
      </trkpt>
      <trkpt lat="43.91106" lon="6.41466">
        <ele>816.578125</ele>
      </trkpt>
      <trkpt lat="43.9119" lon="6.41426">
        <ele>806.2578125</ele>
      </trkpt>
      <trkpt lat="43.91276" lon="6.41413">
        <ele>801.3984375</ele>
      </trkpt>
      <trkpt lat="43.91347" lon="6.41374">
        <ele>808.91015625</ele>
      </trkpt>
      <trkpt lat="43.91394" lon="6.4131">
        <ele>798.87109375</ele>
      </trkpt>
      <trkpt lat="43.91432" lon="6.41236">
        <ele>790.15625</ele>
      </trkpt>
      <trkpt lat="43.9151" lon="6.41151">
        <ele>789.8984375</ele>
      </trkpt>
      <trkpt lat="43.91536" lon="6.41084">
        <ele>789.9765625</ele>
      </trkpt>
      <trkpt lat="43.91535" lon="6.41021">
        <ele>792.89453125</ele>
      </trkpt>
      <trkpt lat="43.9153" lon="6.40931">
        <ele>795.86328125</ele>
      </trkpt>
      <trkpt lat="43.9155" lon="6.40892">
        <ele>792.5390625</ele>
      </trkpt>
      <trkpt lat="43.91641" lon="6.40912">
        <ele>791.0625</ele>
      </trkpt>
      <trkpt lat="43.91699" lon="6.40926">
        <ele>791.9921875</ele>
      </trkpt>
      <trkpt lat="43.91803" lon="6.40918">
        <ele>792.09765625</ele>
      </trkpt>
      <trkpt lat="43.91894" lon="6.40884">
        <ele>785.07421875</ele>
      </trkpt>
      <trkpt lat="43.92005" lon="6.40747">
        <ele>771.40625</ele>
      </trkpt>
      <trkpt lat="43.92432" lon="6.40172">
        <ele>764.25390625</ele>
      </trkpt>
      <trkpt lat="43.92715" lon="6.39782">
        <ele>762.3203125</ele>
      </trkpt>
      <trkpt lat="43.92869" lon="6.39526">
        <ele>768.37109375</ele>
      </trkpt>
      <trkpt lat="43.93356" lon="6.38969">
        <ele>764.1640625</ele>
      </trkpt>
      <trkpt lat="43.93408" lon="6.38876">
        <ele>757.9140625</ele>
      </trkpt>
      <trkpt lat="43.93496" lon="6.38634">
        <ele>747.52734375</ele>
      </trkpt>
      <trkpt lat="43.9355" lon="6.38552">
        <ele>746.70703125</ele>
      </trkpt>
      <trkpt lat="43.94027" lon="6.3827">
        <ele>735</ele>
      </trkpt>
      <trkpt lat="43.94274" lon="6.38061">
        <ele>736.91015625</ele>
      </trkpt>
      <trkpt lat="43.94479" lon="6.37857">
        <ele>735.63671875</ele>
      </trkpt>
      <trkpt lat="43.94643" lon="6.37557">
        <ele>733.49609375</ele>
      </trkpt>
      <trkpt lat="43.94644" lon="6.37555">
        <ele>733.49609375</ele>
      </trkpt>
      <trkpt lat="43.94768" lon="6.37177">
        <ele>720.109375</ele>
      </trkpt>
      <trkpt lat="43.95186" lon="6.36631">
        <ele>721.4140625</ele>
      </trkpt>
    </trkseg>
  </trk>
</gpx>